<?xml version='1.0' encoding='UTF-8'?><gpx version="1.1" creator="JPX - https://github.com/jenetics/jpx" xmlns="http://www.topografix.com/GPX/1/1"><trk><trkseg><trkpt lat="44.2791649" lon="11.1102817"><ele>202.0</ele><time>2026-04-06T09:44:27.919Z</time></trkpt><trkpt lat="44.2790505" lon="11.1102946"><ele>202.0</ele><time>2026-04-06T09:44:28.917Z</time></trkpt><trkpt lat="44.2789441" lon="11.1103199"><ele>202.0</ele><time>2026-04-06T09:44:29.932Z</time></trkpt><trkpt lat="44.2788123" lon="11.1103436"><ele>202.0</ele><time>2026-04-06T09:44:30.923Z</time></trkpt><trkpt lat="44.2786726" lon="11.1103889"><ele>201.33333333333331</ele><time>2026-04-06T09:44:31.929Z</time></trkpt><trkpt lat="44.2785305" lon="11.1104332"><ele>200.66666666666669</ele><time>2026-04-06T09:44:32.919Z</time></trkpt><trkpt lat="44.2783786" lon="11.1105167"><ele>200.0</ele><time>2026-04-06T09:44:34.173Z</time></trkpt><trkpt lat="44.2780924" lon="11.1105566"><ele>201.33333333333334</ele><time>2026-04-06T09:44:35.924Z</time></trkpt><trkpt lat="44.2779419" lon="11.1107381"><ele>202.66666666666669</ele><time>2026-04-06T09:44:36.918Z</time></trkpt><trkpt lat="44.2778149" lon="11.1108286"><ele>204.0</ele><time>2026-04-06T09:44:37.921Z</time></trkpt><trkpt lat="44.2776523" lon="11.1109022"><ele>200.66666666666669</ele><time>2026-04-06T09:44:38.916Z</time></trkpt><trkpt lat="44.2774976" lon="11.1110292"><ele>197.33333333333334</ele><time>2026-04-06T09:44:39.923Z</time></trkpt><trkpt lat="44.2773638" lon="11.111127"><ele>194.0</ele><time>2026-04-06T09:44:40.926Z</time></trkpt><trkpt lat="44.2772349" lon="11.1112143"><ele>194.0</ele><time>2026-04-06T09:44:41.923Z</time></trkpt><trkpt lat="44.2771014" lon="11.1113153"><ele>194.0</ele><time>2026-04-06T09:44:42.922Z</time></trkpt><trkpt lat="44.2769732" lon="11.1113875"><ele>194.0</ele><time>2026-04-06T09:44:43.917Z</time></trkpt><trkpt lat="44.2768299" lon="11.1114628"><ele>194.0</ele><time>2026-04-06T09:44:44.918Z</time></trkpt><trkpt lat="44.2766938" lon="11.1115357"><ele>194.0</ele><time>2026-04-06T09:44:45.92Z</time></trkpt><trkpt lat="44.276545" lon="11.1116014"><ele>194.0</ele><time>2026-04-06T09:44:46.919Z</time></trkpt><trkpt lat="44.2764128" lon="11.1116869"><ele>194.0</ele><time>2026-04-06T09:44:47.918Z</time></trkpt><trkpt lat="44.2762741" lon="11.1117571"><ele>194.0</ele><time>2026-04-06T09:44:48.919Z</time></trkpt><trkpt lat="44.2761442" lon="11.1117994"><ele>194.0</ele><time>2026-04-06T09:44:49.921Z</time></trkpt><trkpt lat="44.2760037" lon="11.1118816"><ele>194.0</ele><time>2026-04-06T09:44:50.918Z</time></trkpt><trkpt lat="44.2758623" lon="11.1119314"><ele>194.0</ele><time>2026-04-06T09:44:51.917Z</time></trkpt><trkpt lat="44.2757175" lon="11.1119824"><ele>194.0</ele><time>2026-04-06T09:44:52.918Z</time></trkpt><trkpt lat="44.2755609" lon="11.1120457"><ele>194.33333333333334</ele><time>2026-04-06T09:44:53.921Z</time></trkpt><trkpt lat="44.2754049" lon="11.1120958"><ele>194.66666666666669</ele><time>2026-04-06T09:44:54.928Z</time></trkpt><trkpt lat="44.2752587" lon="11.1121356"><ele>195.0</ele><time>2026-04-06T09:44:55.919Z</time></trkpt><trkpt lat="44.2751148" lon="11.1121597"><ele>195.0</ele><time>2026-04-06T09:44:56.918Z</time></trkpt><trkpt lat="44.2749699" lon="11.1121894"><ele>195.0</ele><time>2026-04-06T09:44:57.923Z</time></trkpt><trkpt lat="44.2748369" lon="11.1121965"><ele>195.0</ele><time>2026-04-06T09:44:58.92Z</time></trkpt><trkpt lat="44.2746936" lon="11.1121936"><ele>195.0</ele><time>2026-04-06T09:44:59.926Z</time></trkpt><trkpt lat="44.2745331" lon="11.1121905"><ele>194.66666666666669</ele><time>2026-04-06T09:45:00.917Z</time></trkpt><trkpt lat="44.2743818" lon="11.1121849"><ele>194.33333333333334</ele><time>2026-04-06T09:45:01.924Z</time></trkpt><trkpt lat="44.2742151" lon="11.1121817"><ele>194.0</ele><time>2026-04-06T09:45:02.919Z</time></trkpt><trkpt lat="44.2740336" lon="11.1121446"><ele>194.33333333333334</ele><time>2026-04-06T09:45:03.911Z</time></trkpt><trkpt lat="44.2738663" lon="11.1121141"><ele>194.66666666666669</ele><time>2026-04-06T09:45:04.943Z</time></trkpt><trkpt lat="44.2736909" lon="11.112069"><ele>195.0</ele><time>2026-04-06T09:45:05.919Z</time></trkpt><trkpt lat="44.2735211" lon="11.1120429"><ele>195.0</ele><time>2026-04-06T09:45:06.92Z</time></trkpt><trkpt lat="44.2733453" lon="11.1120003"><ele>195.0</ele><time>2026-04-06T09:45:07.919Z</time></trkpt><trkpt lat="44.2731723" lon="11.1119554"><ele>195.0</ele><time>2026-04-06T09:45:08.923Z</time></trkpt><trkpt lat="44.2729806" lon="11.1119336"><ele>195.33333333333331</ele><time>2026-04-06T09:45:09.924Z</time></trkpt><trkpt lat="44.2727965" lon="11.1119042"><ele>195.66666666666666</ele><time>2026-04-06T09:45:10.92Z</time></trkpt><trkpt lat="44.2726143" lon="11.1118706"><ele>196.0</ele><time>2026-04-06T09:45:11.92Z</time></trkpt><trkpt lat="44.2724395" lon="11.1118326"><ele>196.0</ele><time>2026-04-06T09:45:12.92Z</time></trkpt><trkpt lat="44.2722675" lon="11.1117964"><ele>196.0</ele><time>2026-04-06T09:45:13.917Z</time></trkpt><trkpt lat="44.2720886" lon="11.1117553"><ele>196.0</ele><time>2026-04-06T09:45:14.917Z</time></trkpt><trkpt lat="44.2719027" lon="11.1117318"><ele>196.0</ele><time>2026-04-06T09:45:15.927Z</time></trkpt><trkpt lat="44.2717338" lon="11.1116868"><ele>196.0</ele><time>2026-04-06T09:45:16.924Z</time></trkpt><trkpt lat="44.271557" lon="11.1116425"><ele>196.0</ele><time>2026-04-06T09:45:17.919Z</time></trkpt><trkpt lat="44.2713901" lon="11.1115959"><ele>196.0</ele><time>2026-04-06T09:45:18.918Z</time></trkpt><trkpt lat="44.2712237" lon="11.1115515"><ele>196.0</ele><time>2026-04-06T09:45:19.921Z</time></trkpt><trkpt lat="44.2710533" lon="11.111507"><ele>196.0</ele><time>2026-04-06T09:45:20.919Z</time></trkpt><trkpt lat="44.2708734" lon="11.1114772"><ele>196.0</ele><time>2026-04-06T09:45:21.922Z</time></trkpt><trkpt lat="44.2706962" lon="11.1114411"><ele>196.0</ele><time>2026-04-06T09:45:22.925Z</time></trkpt><trkpt lat="44.2705166" lon="11.1113992"><ele>196.0</ele><time>2026-04-06T09:45:23.917Z</time></trkpt><trkpt lat="44.2703404" lon="11.1113674"><ele>196.33333333333331</ele><time>2026-04-06T09:45:24.923Z</time></trkpt><trkpt lat="44.270177" lon="11.1113299"><ele>196.66666666666669</ele><time>2026-04-06T09:45:25.922Z</time></trkpt><trkpt lat="44.2700129" lon="11.1112957"><ele>197.0</ele><time>2026-04-06T09:45:26.918Z</time></trkpt><trkpt lat="44.2698609" lon="11.1112583"><ele>197.0</ele><time>2026-04-06T09:45:27.916Z</time></trkpt><trkpt lat="44.2696988" lon="11.1112134"><ele>197.0</ele><time>2026-04-06T09:45:28.917Z</time></trkpt><trkpt lat="44.2695278" lon="11.1111782"><ele>197.0</ele><time>2026-04-06T09:45:29.916Z</time></trkpt><trkpt lat="44.2693473" lon="11.1111427"><ele>197.0</ele><time>2026-04-06T09:45:30.92Z</time></trkpt><trkpt lat="44.2691694" lon="11.1110992"><ele>197.0</ele><time>2026-04-06T09:45:31.92Z</time></trkpt><trkpt lat="44.2689794" lon="11.1110566"><ele>197.0</ele><time>2026-04-06T09:45:32.917Z</time></trkpt><trkpt lat="44.2687704" lon="11.1110282"><ele>198.0</ele><time>2026-04-06T09:45:33.927Z</time></trkpt><trkpt lat="44.268543" lon="11.1109949"><ele>199.0</ele><time>2026-04-06T09:45:34.918Z</time></trkpt><trkpt lat="44.2683376" lon="11.1109232"><ele>200.0</ele><time>2026-04-06T09:45:35.918Z</time></trkpt><trkpt lat="44.2681264" lon="11.1108821"><ele>201.0</ele><time>2026-04-06T09:45:36.924Z</time></trkpt><trkpt lat="44.2679227" lon="11.110819"><ele>202.0</ele><time>2026-04-06T09:45:37.922Z</time></trkpt><trkpt lat="44.2677123" lon="11.1107741"><ele>203.0</ele><time>2026-04-06T09:45:38.92Z</time></trkpt><trkpt lat="44.2674888" lon="11.1107299"><ele>204.66666666666669</ele><time>2026-04-06T09:45:39.916Z</time></trkpt><trkpt lat="44.2672723" lon="11.1106592"><ele>206.33333333333331</ele><time>2026-04-06T09:45:40.922Z</time></trkpt><trkpt lat="44.2670559" lon="11.1105913"><ele>208.0</ele><time>2026-04-06T09:45:41.922Z</time></trkpt><trkpt lat="44.2668353" lon="11.1105254"><ele>208.0</ele><time>2026-04-06T09:45:42.923Z</time></trkpt><trkpt lat="44.2666104" lon="11.1104408"><ele>208.0</ele><time>2026-04-06T09:45:43.916Z</time></trkpt><trkpt lat="44.2663915" lon="11.1103453"><ele>206.0</ele><time>2026-04-06T09:45:44.921Z</time></trkpt><trkpt lat="44.2661731" lon="11.1102407"><ele>204.0</ele><time>2026-04-06T09:45:45.917Z</time></trkpt><trkpt lat="44.2659466" lon="11.110127"><ele>204.0</ele><time>2026-04-06T09:45:46.92Z</time></trkpt><trkpt lat="44.2657424" lon="11.1100151"><ele>204.0</ele><time>2026-04-06T09:45:47.921Z</time></trkpt><trkpt lat="44.265534" lon="11.1098765"><ele>204.0</ele><time>2026-04-06T09:45:48.924Z</time></trkpt><trkpt lat="44.2653235" lon="11.1097474"><ele>204.0</ele><time>2026-04-06T09:45:49.921Z</time></trkpt><trkpt lat="44.2651298" lon="11.1096064"><ele>204.0</ele><time>2026-04-06T09:45:50.925Z</time></trkpt><trkpt lat="44.2649438" lon="11.1094487"><ele>203.0</ele><time>2026-04-06T09:45:51.915Z</time></trkpt><trkpt lat="44.2647325" lon="11.1093204"><ele>202.0</ele><time>2026-04-06T09:45:52.918Z</time></trkpt><trkpt lat="44.2645262" lon="11.1091951"><ele>203.66666666666666</ele><time>2026-04-06T09:45:53.916Z</time></trkpt><trkpt lat="44.2643395" lon="11.1090565"><ele>205.33333333333331</ele><time>2026-04-06T09:45:54.916Z</time></trkpt><trkpt lat="44.2641392" lon="11.1089079"><ele>207.0</ele><time>2026-04-06T09:45:55.924Z</time></trkpt><trkpt lat="44.2639752" lon="11.1087832"><ele>206.0</ele><time>2026-04-06T09:45:56.92Z</time></trkpt><trkpt lat="44.2637813" lon="11.1086878"><ele>205.0</ele><time>2026-04-06T09:45:57.93Z</time></trkpt><trkpt lat="44.2635977" lon="11.1085973"><ele>204.0</ele><time>2026-04-06T09:45:58.922Z</time></trkpt><trkpt lat="44.2634135" lon="11.1084794"><ele>204.0</ele><time>2026-04-06T09:45:59.926Z</time></trkpt><trkpt lat="44.2632294" lon="11.1083614"><ele>204.0</ele><time>2026-04-06T09:46:00.915Z</time></trkpt><trkpt lat="44.2630326" lon="11.1082231"><ele>204.0</ele><time>2026-04-06T09:46:01.917Z</time></trkpt><trkpt lat="44.2628365" lon="11.1080841"><ele>204.0</ele><time>2026-04-06T09:46:02.922Z</time></trkpt><trkpt lat="44.2626463" lon="11.1079366"><ele>204.0</ele><time>2026-04-06T09:46:03.916Z</time></trkpt><trkpt lat="44.2624482" lon="11.1077937"><ele>204.0</ele><time>2026-04-06T09:46:04.916Z</time></trkpt><trkpt lat="44.2622482" lon="11.1076642"><ele>204.0</ele><time>2026-04-06T09:46:05.921Z</time></trkpt><trkpt lat="44.2620706" lon="11.1075278"><ele>204.0</ele><time>2026-04-06T09:46:06.916Z</time></trkpt><trkpt lat="44.2618632" lon="11.1073951"><ele>204.0</ele><time>2026-04-06T09:46:07.917Z</time></trkpt><trkpt lat="44.2616874" lon="11.1072801"><ele>204.66666666666669</ele><time>2026-04-06T09:46:08.917Z</time></trkpt><trkpt lat="44.2615202" lon="11.1071722"><ele>205.33333333333334</ele><time>2026-04-06T09:46:09.919Z</time></trkpt><trkpt lat="44.2613121" lon="11.1070493"><ele>206.0</ele><time>2026-04-06T09:46:10.922Z</time></trkpt><trkpt lat="44.2610987" lon="11.106929"><ele>206.0</ele><time>2026-04-06T09:46:11.916Z</time></trkpt><trkpt lat="44.2609048" lon="11.1067962"><ele>206.0</ele><time>2026-04-06T09:46:12.92Z</time></trkpt><trkpt lat="44.2607265" lon="11.106662"><ele>206.0</ele><time>2026-04-06T09:46:13.918Z</time></trkpt><trkpt lat="44.260523" lon="11.1065271"><ele>206.0</ele><time>2026-04-06T09:46:14.926Z</time></trkpt><trkpt lat="44.2603195" lon="11.1063978"><ele>206.0</ele><time>2026-04-06T09:46:15.923Z</time></trkpt><trkpt lat="44.260129" lon="11.1062903"><ele>206.0</ele><time>2026-04-06T09:46:16.916Z</time></trkpt><trkpt lat="44.2599325" lon="11.1061549"><ele>206.33333333333334</ele><time>2026-04-06T09:46:17.92Z</time></trkpt><trkpt lat="44.2597425" lon="11.1060266"><ele>206.66666666666669</ele><time>2026-04-06T09:46:18.917Z</time></trkpt><trkpt lat="44.2595407" lon="11.1058857"><ele>207.0</ele><time>2026-04-06T09:46:19.922Z</time></trkpt><trkpt lat="44.2593377" lon="11.1057474"><ele>208.0</ele><time>2026-04-06T09:46:20.918Z</time></trkpt><trkpt lat="44.2591315" lon="11.1056406"><ele>209.0</ele><time>2026-04-06T09:46:21.923Z</time></trkpt><trkpt lat="44.2589279" lon="11.1055104"><ele>210.0</ele><time>2026-04-06T09:46:22.923Z</time></trkpt><trkpt lat="44.2587119" lon="11.1053973"><ele>209.66666666666669</ele><time>2026-04-06T09:46:23.918Z</time></trkpt><trkpt lat="44.2585174" lon="11.1052821"><ele>209.33333333333334</ele><time>2026-04-06T09:46:24.916Z</time></trkpt><trkpt lat="44.2583014" lon="11.1051806"><ele>209.0</ele><time>2026-04-06T09:46:25.921Z</time></trkpt><trkpt lat="44.2580891" lon="11.1050813"><ele>209.0</ele><time>2026-04-06T09:46:26.93Z</time></trkpt><trkpt lat="44.2578747" lon="11.1049954"><ele>209.0</ele><time>2026-04-06T09:46:27.927Z</time></trkpt><trkpt lat="44.2576645" lon="11.1049056"><ele>209.0</ele><time>2026-04-06T09:46:28.928Z</time></trkpt><trkpt lat="44.2574527" lon="11.1048313"><ele>209.66666666666669</ele><time>2026-04-06T09:46:29.934Z</time></trkpt><trkpt lat="44.2572406" lon="11.1047422"><ele>210.33333333333331</ele><time>2026-04-06T09:46:30.918Z</time></trkpt><trkpt lat="44.2570395" lon="11.1046649"><ele>211.0</ele><time>2026-04-06T09:46:31.913Z</time></trkpt><trkpt lat="44.2568381" lon="11.1046052"><ele>211.0</ele><time>2026-04-06T09:46:32.923Z</time></trkpt><trkpt lat="44.2566228" lon="11.1045115"><ele>211.0</ele><time>2026-04-06T09:46:33.917Z</time></trkpt><trkpt lat="44.2564301" lon="11.1043841"><ele>211.0</ele><time>2026-04-06T09:46:34.917Z</time></trkpt><trkpt lat="44.256217" lon="11.1042772"><ele>211.33333333333331</ele><time>2026-04-06T09:46:35.92Z</time></trkpt><trkpt lat="44.2560168" lon="11.1041661"><ele>211.66666666666669</ele><time>2026-04-06T09:46:36.921Z</time></trkpt><trkpt lat="44.2558082" lon="11.1040758"><ele>212.0</ele><time>2026-04-06T09:46:37.917Z</time></trkpt><trkpt lat="44.25562" lon="11.1039532"><ele>212.0</ele><time>2026-04-06T09:46:38.925Z</time></trkpt><trkpt lat="44.2554144" lon="11.1038271"><ele>212.0</ele><time>2026-04-06T09:46:39.916Z</time></trkpt><trkpt lat="44.2552328" lon="11.1036642"><ele>212.0</ele><time>2026-04-06T09:46:40.919Z</time></trkpt><trkpt lat="44.2550555" lon="11.1034854"><ele>212.0</ele><time>2026-04-06T09:46:41.919Z</time></trkpt><trkpt lat="44.254893" lon="11.1033072"><ele>212.0</ele><time>2026-04-06T09:46:42.918Z</time></trkpt><trkpt lat="44.2547299" lon="11.1031132"><ele>212.0</ele><time>2026-04-06T09:46:43.923Z</time></trkpt><trkpt lat="44.2545828" lon="11.1029104"><ele>212.0</ele><time>2026-04-06T09:46:44.921Z</time></trkpt><trkpt lat="44.254428" lon="11.1027165"><ele>212.0</ele><time>2026-04-06T09:46:45.918Z</time></trkpt><trkpt lat="44.2543062" lon="11.1024776"><ele>212.0</ele><time>2026-04-06T09:46:46.916Z</time></trkpt><trkpt lat="44.2541903" lon="11.1022272"><ele>212.0</ele><time>2026-04-06T09:46:47.949Z</time></trkpt><trkpt lat="44.2540749" lon="11.1019796"><ele>212.0</ele><time>2026-04-06T09:46:48.922Z</time></trkpt><trkpt lat="44.2539881" lon="11.1016912"><ele>212.0</ele><time>2026-04-06T09:46:49.929Z</time></trkpt><trkpt lat="44.2538738" lon="11.1014282"><ele>212.0</ele><time>2026-04-06T09:46:50.918Z</time></trkpt><trkpt lat="44.2537543" lon="11.1011844"><ele>212.0</ele><time>2026-04-06T09:46:51.917Z</time></trkpt><trkpt lat="44.2536431" lon="11.1009213"><ele>212.0</ele><time>2026-04-06T09:46:52.922Z</time></trkpt><trkpt lat="44.2535279" lon="11.1006843"><ele>213.0</ele><time>2026-04-06T09:46:53.917Z</time></trkpt><trkpt lat="44.253448" lon="11.1003968"><ele>214.0</ele><time>2026-04-06T09:46:54.924Z</time></trkpt><trkpt lat="44.2533467" lon="11.1001188"><ele>215.0</ele><time>2026-04-06T09:46:55.923Z</time></trkpt><trkpt lat="44.2532306" lon="11.0998402"><ele>214.33333333333334</ele><time>2026-04-06T09:46:56.919Z</time></trkpt><trkpt lat="44.2530972" lon="11.0995933"><ele>213.66666666666669</ele><time>2026-04-06T09:46:57.916Z</time></trkpt><trkpt lat="44.2529536" lon="11.0993579"><ele>213.0</ele><time>2026-04-06T09:46:58.922Z</time></trkpt><trkpt lat="44.2527773" lon="11.0991478"><ele>214.33333333333331</ele><time>2026-04-06T09:46:59.925Z</time></trkpt><trkpt lat="44.2526305" lon="11.0989164"><ele>215.66666666666666</ele><time>2026-04-06T09:47:00.922Z</time></trkpt><trkpt lat="44.2524839" lon="11.0986919"><ele>217.0</ele><time>2026-04-06T09:47:01.916Z</time></trkpt><trkpt lat="44.2523152" lon="11.0985115"><ele>217.0</ele><time>2026-04-06T09:47:02.918Z</time></trkpt><trkpt lat="44.2521396" lon="11.0983482"><ele>217.0</ele><time>2026-04-06T09:47:03.918Z</time></trkpt><trkpt lat="44.2519331" lon="11.0982185"><ele>217.0</ele><time>2026-04-06T09:47:04.917Z</time></trkpt><trkpt lat="44.2517506" lon="11.0980566"><ele>217.0</ele><time>2026-04-06T09:47:05.923Z</time></trkpt><trkpt lat="44.2515559" lon="11.0978983"><ele>217.0</ele><time>2026-04-06T09:47:06.923Z</time></trkpt><trkpt lat="44.2513692" lon="11.0977849"><ele>217.0</ele><time>2026-04-06T09:47:07.932Z</time></trkpt><trkpt lat="44.2512302" lon="11.0976627"><ele>217.0</ele><time>2026-04-06T09:47:08.912Z</time></trkpt><trkpt lat="44.2511168" lon="11.0974883"><ele>217.0</ele><time>2026-04-06T09:47:09.924Z</time></trkpt><trkpt lat="44.2509416" lon="11.0974212"><ele>217.0</ele><time>2026-04-06T09:47:10.912Z</time></trkpt><trkpt lat="44.2508109" lon="11.0973445"><ele>217.5</ele><time>2026-04-06T09:47:11.918Z</time></trkpt><trkpt lat="44.2506838" lon="11.0972644"><ele>218.0</ele><time>2026-04-06T09:47:12.921Z</time></trkpt><trkpt lat="44.2505498" lon="11.0971691"><ele>218.5</ele><time>2026-04-06T09:47:13.918Z</time></trkpt><trkpt lat="44.2504298" lon="11.0970742"><ele>219.0</ele><time>2026-04-06T09:47:14.92Z</time></trkpt><trkpt lat="44.2502828" lon="11.0969658"><ele>219.0</ele><time>2026-04-06T09:47:15.917Z</time></trkpt><trkpt lat="44.2501404" lon="11.0968989"><ele>219.0</ele><time>2026-04-06T09:47:16.928Z</time></trkpt><trkpt lat="44.2499769" lon="11.0968469"><ele>219.0</ele><time>2026-04-06T09:47:17.928Z</time></trkpt><trkpt lat="44.2498313" lon="11.0967836"><ele>219.33333333333331</ele><time>2026-04-06T09:47:18.922Z</time></trkpt><trkpt lat="44.2496803" lon="11.0967097"><ele>219.66666666666666</ele><time>2026-04-06T09:47:19.917Z</time></trkpt><trkpt lat="44.2495099" lon="11.0966437"><ele>220.0</ele><time>2026-04-06T09:47:20.924Z</time></trkpt><trkpt lat="44.2493418" lon="11.0965817"><ele>222.66666666666666</ele><time>2026-04-06T09:47:21.916Z</time></trkpt><trkpt lat="44.2491657" lon="11.0965056"><ele>225.33333333333331</ele><time>2026-04-06T09:47:22.92Z</time></trkpt><trkpt lat="44.2489975" lon="11.0964399"><ele>228.0</ele><time>2026-04-06T09:47:23.92Z</time></trkpt><trkpt lat="44.2488163" lon="11.0963679"><ele>228.66666666666669</ele><time>2026-04-06T09:47:24.919Z</time></trkpt><trkpt lat="44.2486476" lon="11.0962762"><ele>229.33333333333334</ele><time>2026-04-06T09:47:25.916Z</time></trkpt><trkpt lat="44.2484783" lon="11.0962007"><ele>230.0</ele><time>2026-04-06T09:47:26.926Z</time></trkpt><trkpt lat="44.2483095" lon="11.0961152"><ele>230.0</ele><time>2026-04-06T09:47:27.916Z</time></trkpt><trkpt lat="44.2481376" lon="11.0960147"><ele>230.0</ele><time>2026-04-06T09:47:28.919Z</time></trkpt><trkpt lat="44.2479592" lon="11.0959255"><ele>230.0</ele><time>2026-04-06T09:47:29.916Z</time></trkpt><trkpt lat="44.2477926" lon="11.0958169"><ele>227.5</ele><time>2026-04-06T09:47:30.916Z</time></trkpt><trkpt lat="44.2476343" lon="11.0957049"><ele>225.0</ele><time>2026-04-06T09:47:31.916Z</time></trkpt><trkpt lat="44.2468531" lon="11.0949851"><ele>224.66666666666669</ele><time>2026-04-06T09:47:36.917Z</time></trkpt><trkpt lat="44.2466953" lon="11.0948329"><ele>224.33333333333334</ele><time>2026-04-06T09:47:37.917Z</time></trkpt><trkpt lat="44.2465579" lon="11.0946919"><ele>224.0</ele><time>2026-04-06T09:47:38.92Z</time></trkpt><trkpt lat="44.2464052" lon="11.0944807"><ele>224.0</ele><time>2026-04-06T09:47:39.922Z</time></trkpt><trkpt lat="44.246257" lon="11.0942519"><ele>224.0</ele><time>2026-04-06T09:47:40.916Z</time></trkpt><trkpt lat="44.2460855" lon="11.0940047"><ele>223.0</ele><time>2026-04-06T09:47:41.92Z</time></trkpt><trkpt lat="44.2459381" lon="11.0937601"><ele>222.0</ele><time>2026-04-06T09:47:42.918Z</time></trkpt><trkpt lat="44.2458073" lon="11.0935115"><ele>222.0</ele><time>2026-04-06T09:47:43.916Z</time></trkpt><trkpt lat="44.2456487" lon="11.0932534"><ele>222.0</ele><time>2026-04-06T09:47:44.918Z</time></trkpt><trkpt lat="44.2454864" lon="11.0930354"><ele>228.0</ele><time>2026-04-06T09:47:45.916Z</time></trkpt><trkpt lat="44.2453275" lon="11.0928047"><ele>234.0</ele><time>2026-04-06T09:47:46.915Z</time></trkpt><trkpt lat="44.2451805" lon="11.092556"><ele>230.0</ele><time>2026-04-06T09:47:47.924Z</time></trkpt><trkpt lat="44.2450236" lon="11.0923255"><ele>226.0</ele><time>2026-04-06T09:47:48.918Z</time></trkpt><trkpt lat="44.2448844" lon="11.0920641"><ele>231.0</ele><time>2026-04-06T09:47:49.921Z</time></trkpt><trkpt lat="44.244698" lon="11.0918747"><ele>236.0</ele><time>2026-04-06T09:47:50.925Z</time></trkpt><trkpt lat="44.2445483" lon="11.0916368"><ele>232.5</ele><time>2026-04-06T09:47:51.919Z</time></trkpt><trkpt lat="44.2443794" lon="11.0914013"><ele>229.0</ele><time>2026-04-06T09:47:52.922Z</time></trkpt><trkpt lat="44.2442413" lon="11.0911332"><ele>229.0</ele><time>2026-04-06T09:47:53.92Z</time></trkpt><trkpt lat="44.2440866" lon="11.090889"><ele>229.0</ele><time>2026-04-06T09:47:54.919Z</time></trkpt><trkpt lat="44.2439246" lon="11.0906599"><ele>226.5</ele><time>2026-04-06T09:47:55.919Z</time></trkpt><trkpt lat="44.2437623" lon="11.0904464"><ele>224.0</ele><time>2026-04-06T09:47:56.918Z</time></trkpt><trkpt lat="44.2435468" lon="11.0902903"><ele>224.0</ele><time>2026-04-06T09:47:57.916Z</time></trkpt><trkpt lat="44.2433489" lon="11.0901079"><ele>224.0</ele><time>2026-04-06T09:47:58.919Z</time></trkpt><trkpt lat="44.2431445" lon="11.0899616"><ele>223.5</ele><time>2026-04-06T09:47:59.921Z</time></trkpt><trkpt lat="44.2429341" lon="11.0898124"><ele>223.0</ele><time>2026-04-06T09:48:00.92Z</time></trkpt><trkpt lat="44.2427312" lon="11.0896531"><ele>223.0</ele><time>2026-04-06T09:48:01.921Z</time></trkpt><trkpt lat="44.2425185" lon="11.089507"><ele>223.0</ele><time>2026-04-06T09:48:02.919Z</time></trkpt><trkpt lat="44.2422885" lon="11.0893632"><ele>223.5</ele><time>2026-04-06T09:48:03.914Z</time></trkpt><trkpt lat="44.2420662" lon="11.0892063"><ele>224.0</ele><time>2026-04-06T09:48:04.923Z</time></trkpt><trkpt lat="44.2418697" lon="11.0890312"><ele>224.0</ele><time>2026-04-06T09:48:05.916Z</time></trkpt><trkpt lat="44.2416713" lon="11.0888473"><ele>224.0</ele><time>2026-04-06T09:48:06.917Z</time></trkpt><trkpt lat="44.2414802" lon="11.0886395"><ele>224.5</ele><time>2026-04-06T09:48:07.921Z</time></trkpt><trkpt lat="44.2413019" lon="11.0884194"><ele>225.0</ele><time>2026-04-06T09:48:08.919Z</time></trkpt><trkpt lat="44.2411372" lon="11.0881734"><ele>225.0</ele><time>2026-04-06T09:48:09.92Z</time></trkpt><trkpt lat="44.2409761" lon="11.0879248"><ele>225.0</ele><time>2026-04-06T09:48:10.92Z</time></trkpt><trkpt lat="44.2408343" lon="11.0876604"><ele>226.5</ele><time>2026-04-06T09:48:11.92Z</time></trkpt><trkpt lat="44.2407026" lon="11.0873723"><ele>228.0</ele><time>2026-04-06T09:48:12.917Z</time></trkpt><trkpt lat="44.2405856" lon="11.0870821"><ele>228.0</ele><time>2026-04-06T09:48:13.922Z</time></trkpt><trkpt lat="44.2404795" lon="11.0867964"><ele>228.0</ele><time>2026-04-06T09:48:14.925Z</time></trkpt><trkpt lat="44.2403714" lon="11.0865009"><ele>227.5</ele><time>2026-04-06T09:48:15.92Z</time></trkpt><trkpt lat="44.2402924" lon="11.0861965"><ele>227.0</ele><time>2026-04-06T09:48:16.915Z</time></trkpt><trkpt lat="44.2402314" lon="11.085892"><ele>226.5</ele><time>2026-04-06T09:48:17.919Z</time></trkpt><trkpt lat="44.2401879" lon="11.0855827"><ele>226.0</ele><time>2026-04-06T09:48:18.932Z</time></trkpt><trkpt lat="44.2401321" lon="11.0852622"><ele>226.5</ele><time>2026-04-06T09:48:19.918Z</time></trkpt><trkpt lat="44.240154" lon="11.0849117"><ele>227.0</ele><time>2026-04-06T09:48:20.919Z</time></trkpt><trkpt lat="44.240148" lon="11.0845791"><ele>227.0</ele><time>2026-04-06T09:48:21.924Z</time></trkpt><trkpt lat="44.2401348" lon="11.0842647"><ele>227.0</ele><time>2026-04-06T09:48:22.919Z</time></trkpt><trkpt lat="44.2401252" lon="11.0839707"><ele>227.0</ele><time>2026-04-06T09:48:23.921Z</time></trkpt><trkpt lat="44.2401196" lon="11.0836845"><ele>227.33333333333334</ele><time>2026-04-06T09:48:24.919Z</time></trkpt><trkpt lat="44.2401056" lon="11.0834144"><ele>227.66666666666669</ele><time>2026-04-06T09:48:25.92Z</time></trkpt><trkpt lat="44.2401011" lon="11.0831628"><ele>228.0</ele><time>2026-04-06T09:48:26.922Z</time></trkpt><trkpt lat="44.2400911" lon="11.082905"><ele>228.0</ele><time>2026-04-06T09:48:27.917Z</time></trkpt><trkpt lat="44.240087" lon="11.0826458"><ele>228.0</ele><time>2026-04-06T09:48:28.919Z</time></trkpt><trkpt lat="44.2400799" lon="11.0823677"><ele>228.0</ele><time>2026-04-06T09:48:29.923Z</time></trkpt><trkpt lat="44.2400716" lon="11.082094"><ele>228.0</ele><time>2026-04-06T09:48:30.917Z</time></trkpt><trkpt lat="44.2400674" lon="11.0818132"><ele>228.0</ele><time>2026-04-06T09:48:31.918Z</time></trkpt><trkpt lat="44.2400633" lon="11.0815228"><ele>228.0</ele><time>2026-04-06T09:48:32.923Z</time></trkpt><trkpt lat="44.2400454" lon="11.081229"><ele>228.0</ele><time>2026-04-06T09:48:33.918Z</time></trkpt><trkpt lat="44.2400352" lon="11.0809306"><ele>228.0</ele><time>2026-04-06T09:48:34.912Z</time></trkpt><trkpt lat="44.2400346" lon="11.080626"><ele>228.0</ele><time>2026-04-06T09:48:35.922Z</time></trkpt><trkpt lat="44.2400387" lon="11.0803164"><ele>228.0</ele><time>2026-04-06T09:48:36.921Z</time></trkpt><trkpt lat="44.240036" lon="11.0800004"><ele>228.0</ele><time>2026-04-06T09:48:37.921Z</time></trkpt><trkpt lat="44.240025" lon="11.0796974"><ele>228.0</ele><time>2026-04-06T09:48:38.916Z</time></trkpt><trkpt lat="44.240011" lon="11.0793649"><ele>228.5</ele><time>2026-04-06T09:48:39.916Z</time></trkpt><trkpt lat="44.2400044" lon="11.0790268"><ele>229.0</ele><time>2026-04-06T09:48:40.918Z</time></trkpt><trkpt lat="44.2399987" lon="11.0787045"><ele>229.0</ele><time>2026-04-06T09:48:41.919Z</time></trkpt><trkpt lat="44.2399955" lon="11.0783689"><ele>229.0</ele><time>2026-04-06T09:48:42.918Z</time></trkpt><trkpt lat="44.2399843" lon="11.0780396"><ele>229.0</ele><time>2026-04-06T09:48:43.915Z</time></trkpt><trkpt lat="44.2399819" lon="11.0777082"><ele>229.0</ele><time>2026-04-06T09:48:44.92Z</time></trkpt><trkpt lat="44.2399777" lon="11.0773716"><ele>229.5</ele><time>2026-04-06T09:48:45.918Z</time></trkpt><trkpt lat="44.2399733" lon="11.0770485"><ele>230.0</ele><time>2026-04-06T09:48:46.923Z</time></trkpt><trkpt lat="44.2399614" lon="11.0767175"><ele>231.0</ele><time>2026-04-06T09:48:47.924Z</time></trkpt><trkpt lat="44.2399546" lon="11.0763895"><ele>232.0</ele><time>2026-04-06T09:48:48.917Z</time></trkpt><trkpt lat="44.2399428" lon="11.0760672"><ele>231.5</ele><time>2026-04-06T09:48:49.918Z</time></trkpt><trkpt lat="44.2399336" lon="11.0757486"><ele>231.0</ele><time>2026-04-06T09:48:50.923Z</time></trkpt><trkpt lat="44.2399321" lon="11.0754253"><ele>231.0</ele><time>2026-04-06T09:48:51.917Z</time></trkpt><trkpt lat="44.2399223" lon="11.0751138"><ele>231.0</ele><time>2026-04-06T09:48:52.918Z</time></trkpt><trkpt lat="44.2399096" lon="11.0747938"><ele>229.5</ele><time>2026-04-06T09:48:53.919Z</time></trkpt><trkpt lat="44.2398753" lon="11.0744764"><ele>228.0</ele><time>2026-04-06T09:48:54.92Z</time></trkpt><trkpt lat="44.2398334" lon="11.0741627"><ele>230.0</ele><time>2026-04-06T09:48:55.918Z</time></trkpt><trkpt lat="44.2397784" lon="11.0738552"><ele>232.0</ele><time>2026-04-06T09:48:56.921Z</time></trkpt><trkpt lat="44.2397065" lon="11.0735355"><ele>234.0</ele><time>2026-04-06T09:48:57.914Z</time></trkpt><trkpt lat="44.2395906" lon="11.0732131"><ele>236.0</ele><time>2026-04-06T09:48:58.924Z</time></trkpt><trkpt lat="44.2394955" lon="11.0729262"><ele>236.0</ele><time>2026-04-06T09:48:59.936Z</time></trkpt><trkpt lat="44.2393862" lon="11.0726097"><ele>236.0</ele><time>2026-04-06T09:49:00.919Z</time></trkpt><trkpt lat="44.2392886" lon="11.0723393"><ele>236.0</ele><time>2026-04-06T09:49:01.915Z</time></trkpt><trkpt lat="44.2391779" lon="11.0720477"><ele>236.0</ele><time>2026-04-06T09:49:02.916Z</time></trkpt><trkpt lat="44.2390299" lon="11.0718212"><ele>238.0</ele><time>2026-04-06T09:49:03.917Z</time></trkpt><trkpt lat="44.238907" lon="11.0715815"><ele>240.0</ele><time>2026-04-06T09:49:04.921Z</time></trkpt><trkpt lat="44.2387901" lon="11.0713349"><ele>242.0</ele><time>2026-04-06T09:49:05.919Z</time></trkpt><trkpt lat="44.2386954" lon="11.0710696"><ele>242.0</ele><time>2026-04-06T09:49:06.919Z</time></trkpt><trkpt lat="44.2386072" lon="11.0708075"><ele>242.0</ele><time>2026-04-06T09:49:07.921Z</time></trkpt><trkpt lat="44.2384678" lon="11.0705886"><ele>242.0</ele><time>2026-04-06T09:49:08.92Z</time></trkpt><trkpt lat="44.2383476" lon="11.0703384"><ele>243.33333333333334</ele><time>2026-04-06T09:49:09.915Z</time></trkpt><trkpt lat="44.2382397" lon="11.0700915"><ele>244.66666666666669</ele><time>2026-04-06T09:49:10.918Z</time></trkpt><trkpt lat="44.2381224" lon="11.0698378"><ele>246.0</ele><time>2026-04-06T09:49:11.918Z</time></trkpt><trkpt lat="44.2380139" lon="11.0695919"><ele>254.0</ele><time>2026-04-06T09:49:12.92Z</time></trkpt><trkpt lat="44.237912" lon="11.069295"><ele>262.0</ele><time>2026-04-06T09:49:13.923Z</time></trkpt><trkpt lat="44.2378026" lon="11.0690187"><ele>271.0</ele><time>2026-04-06T09:49:14.923Z</time></trkpt><trkpt lat="44.2376907" lon="11.068738"><ele>280.0</ele><time>2026-04-06T09:49:15.922Z</time></trkpt><trkpt lat="44.2375837" lon="11.0684588"><ele>249.0</ele><time>2026-04-06T09:49:16.921Z</time></trkpt><trkpt lat="44.2284345" lon="11.0490311"><ele>249.0</ele><time>2026-04-06T09:50:32.935Z</time></trkpt><trkpt lat="44.2282397" lon="11.0487472"><ele>249.0</ele><time>2026-04-06T09:50:33.918Z</time></trkpt><trkpt lat="44.2280656" lon="11.0484616"><ele>257.5</ele><time>2026-04-06T09:50:34.918Z</time></trkpt><trkpt lat="44.2279243" lon="11.0481745"><ele>266.0</ele><time>2026-04-06T09:50:35.918Z</time></trkpt><trkpt lat="44.2278065" lon="11.047892"><ele>266.0</ele><time>2026-04-06T09:50:36.917Z</time></trkpt><trkpt lat="44.2277221" lon="11.047592"><ele>266.0</ele><time>2026-04-06T09:50:37.918Z</time></trkpt><trkpt lat="44.2276602" lon="11.0472847"><ele>267.0</ele><time>2026-04-06T09:50:38.916Z</time></trkpt><trkpt lat="44.2276012" lon="11.0469908"><ele>268.0</ele><time>2026-04-06T09:50:39.918Z</time></trkpt><trkpt lat="44.2275525" lon="11.0466902"><ele>269.0</ele><time>2026-04-06T09:50:40.917Z</time></trkpt><trkpt lat="44.2275258" lon="11.0463817"><ele>270.0</ele><time>2026-04-06T09:50:41.917Z</time></trkpt><trkpt lat="44.2275129" lon="11.0460671"><ele>271.0</ele><time>2026-04-06T09:50:42.921Z</time></trkpt><trkpt lat="44.2275145" lon="11.0457603"><ele>272.0</ele><time>2026-04-06T09:50:43.92Z</time></trkpt><trkpt lat="44.2275216" lon="11.0454463"><ele>273.0</ele><time>2026-04-06T09:50:44.918Z</time></trkpt><trkpt lat="44.2275363" lon="11.0451323"><ele>274.0</ele><time>2026-04-06T09:50:45.92Z</time></trkpt><trkpt lat="44.2275459" lon="11.0448131"><ele>272.0</ele><time>2026-04-06T09:50:46.912Z</time></trkpt><trkpt lat="44.2275483" lon="11.0444884"><ele>270.0</ele><time>2026-04-06T09:50:47.921Z</time></trkpt><trkpt lat="44.2275537" lon="11.0441683"><ele>267.5</ele><time>2026-04-06T09:50:48.919Z</time></trkpt><trkpt lat="44.2275592" lon="11.0438486"><ele>265.0</ele><time>2026-04-06T09:50:49.919Z</time></trkpt><trkpt lat="44.2275676" lon="11.0435204"><ele>264.0</ele><time>2026-04-06T09:50:50.92Z</time></trkpt><trkpt lat="44.2275734" lon="11.0431961"><ele>263.0</ele><time>2026-04-06T09:50:51.922Z</time></trkpt><trkpt lat="44.2275827" lon="11.0428728"><ele>263.0</ele><time>2026-04-06T09:50:52.918Z</time></trkpt><trkpt lat="44.2276032" lon="11.0425438"><ele>263.0</ele><time>2026-04-06T09:50:53.923Z</time></trkpt><trkpt lat="44.2276194" lon="11.0422234"><ele>261.0</ele><time>2026-04-06T09:50:54.922Z</time></trkpt><trkpt lat="44.2276331" lon="11.0419026"><ele>259.0</ele><time>2026-04-06T09:50:55.92Z</time></trkpt><trkpt lat="44.2276395" lon="11.0415751"><ele>257.5</ele><time>2026-04-06T09:50:56.92Z</time></trkpt><trkpt lat="44.2276486" lon="11.0412614"><ele>256.0</ele><time>2026-04-06T09:50:57.917Z</time></trkpt><trkpt lat="44.2276484" lon="11.0409464"><ele>256.3333333333333</ele><time>2026-04-06T09:50:58.923Z</time></trkpt><trkpt lat="44.2276417" lon="11.0406378"><ele>256.6666666666667</ele><time>2026-04-06T09:50:59.923Z</time></trkpt><trkpt lat="44.2276128" lon="11.0403353"><ele>257.0</ele><time>2026-04-06T09:51:00.918Z</time></trkpt><trkpt lat="44.2275792" lon="11.0400465"><ele>258.6666666666667</ele><time>2026-04-06T09:51:01.919Z</time></trkpt><trkpt lat="44.2275435" lon="11.0397637"><ele>260.3333333333333</ele><time>2026-04-06T09:51:02.918Z</time></trkpt><trkpt lat="44.2275167" lon="11.0395106"><ele>262.0</ele><time>2026-04-06T09:51:03.915Z</time></trkpt><trkpt lat="44.2274872" lon="11.0392796"><ele>262.0</ele><time>2026-04-06T09:51:04.92Z</time></trkpt><trkpt lat="44.2274222" lon="11.0391539"><ele>262.0</ele><time>2026-04-06T09:51:05.92Z</time></trkpt><trkpt lat="44.2273734" lon="11.0390243"><ele>262.0</ele><time>2026-04-06T09:51:06.92Z</time></trkpt><trkpt lat="44.2273499" lon="11.0389097"><ele>262.0</ele><time>2026-04-06T09:51:07.922Z</time></trkpt><trkpt lat="44.2273624" lon="11.0387964"><ele>262.0</ele><time>2026-04-06T09:51:08.919Z</time></trkpt><trkpt lat="44.2273866" lon="11.0386828"><ele>262.8</ele><time>2026-04-06T09:51:09.921Z</time></trkpt><trkpt lat="44.2274033" lon="11.0385574"><ele>263.6</ele><time>2026-04-06T09:51:10.918Z</time></trkpt><trkpt lat="44.227387" lon="11.0384381"><ele>264.40000000000003</ele><time>2026-04-06T09:51:11.919Z</time></trkpt><trkpt lat="44.2273517" lon="11.0383209"><ele>265.2</ele><time>2026-04-06T09:51:12.921Z</time></trkpt><trkpt lat="44.2273012" lon="11.0382169"><ele>266.0</ele><time>2026-04-06T09:51:13.92Z</time></trkpt><trkpt lat="44.2272035" lon="11.0380973"><ele>266.0</ele><time>2026-04-06T09:51:14.918Z</time></trkpt><trkpt lat="44.2271031" lon="11.037975"><ele>266.0</ele><time>2026-04-06T09:51:15.918Z</time></trkpt><trkpt lat="44.2270095" lon="11.0378271"><ele>266.0</ele><time>2026-04-06T09:51:16.92Z</time></trkpt><trkpt lat="44.2269227" lon="11.0376685"><ele>266.0</ele><time>2026-04-06T09:51:17.921Z</time></trkpt><trkpt lat="44.2268605" lon="11.0375028"><ele>266.75</ele><time>2026-04-06T09:51:18.921Z</time></trkpt><trkpt lat="44.2268161" lon="11.0373291"><ele>267.5</ele><time>2026-04-06T09:51:19.918Z</time></trkpt><trkpt lat="44.2267923" lon="11.0371587"><ele>268.25</ele><time>2026-04-06T09:51:20.919Z</time></trkpt><trkpt lat="44.2267891" lon="11.0370003"><ele>269.0</ele><time>2026-04-06T09:51:21.919Z</time></trkpt><trkpt lat="44.2267936" lon="11.0368505"><ele>269.0</ele><time>2026-04-06T09:51:22.921Z</time></trkpt><trkpt lat="44.2267878" lon="11.036715"><ele>269.0</ele><time>2026-04-06T09:51:23.919Z</time></trkpt><trkpt lat="44.2267777" lon="11.0365809"><ele>269.0</ele><time>2026-04-06T09:51:24.925Z</time></trkpt><trkpt lat="44.2267573" lon="11.0364402"><ele>269.0</ele><time>2026-04-06T09:51:25.919Z</time></trkpt><trkpt lat="44.2267175" lon="11.0362664"><ele>269.0</ele><time>2026-04-06T09:51:26.92Z</time></trkpt><trkpt lat="44.2266606" lon="11.036087"><ele>268.6666666666667</ele><time>2026-04-06T09:51:27.917Z</time></trkpt><trkpt lat="44.2265942" lon="11.0359007"><ele>268.3333333333333</ele><time>2026-04-06T09:51:28.924Z</time></trkpt><trkpt lat="44.2265191" lon="11.035718"><ele>268.0</ele><time>2026-04-06T09:51:29.917Z</time></trkpt><trkpt lat="44.2264416" lon="11.0355095"><ele>268.0</ele><time>2026-04-06T09:51:30.92Z</time></trkpt><trkpt lat="44.2263672" lon="11.0353001"><ele>268.0</ele><time>2026-04-06T09:51:31.918Z</time></trkpt><trkpt lat="44.226292" lon="11.0350819"><ele>268.0</ele><time>2026-04-06T09:51:32.919Z</time></trkpt><trkpt lat="44.2262115" lon="11.034868"><ele>268.66666666666663</ele><time>2026-04-06T09:51:33.92Z</time></trkpt><trkpt lat="44.2261332" lon="11.0346572"><ele>269.3333333333333</ele><time>2026-04-06T09:51:34.918Z</time></trkpt><trkpt lat="44.226062" lon="11.0344469"><ele>270.0</ele><time>2026-04-06T09:51:35.92Z</time></trkpt><trkpt lat="44.225986" lon="11.0342386"><ele>272.0</ele><time>2026-04-06T09:51:36.92Z</time></trkpt><trkpt lat="44.2259163" lon="11.034035"><ele>274.0</ele><time>2026-04-06T09:51:37.918Z</time></trkpt><trkpt lat="44.2258354" lon="11.0338366"><ele>276.0</ele><time>2026-04-06T09:51:38.917Z</time></trkpt><trkpt lat="44.2257628" lon="11.0336366"><ele>276.0</ele><time>2026-04-06T09:51:39.916Z</time></trkpt><trkpt lat="44.2256918" lon="11.0334369"><ele>276.0</ele><time>2026-04-06T09:51:40.918Z</time></trkpt><trkpt lat="44.2256169" lon="11.033232"><ele>276.0</ele><time>2026-04-06T09:51:41.917Z</time></trkpt><trkpt lat="44.2255447" lon="11.0330421"><ele>274.6666666666667</ele><time>2026-04-06T09:51:42.921Z</time></trkpt><trkpt lat="44.2254762" lon="11.0328502"><ele>273.33333333333337</ele><time>2026-04-06T09:51:43.92Z</time></trkpt><trkpt lat="44.2254183" lon="11.0326592"><ele>272.0</ele><time>2026-04-06T09:51:44.921Z</time></trkpt><trkpt lat="44.2253985" lon="11.0324451"><ele>272.0</ele><time>2026-04-06T09:51:45.922Z</time></trkpt><trkpt lat="44.2253805" lon="11.032227"><ele>272.0</ele><time>2026-04-06T09:51:46.916Z</time></trkpt><trkpt lat="44.2253741" lon="11.031997"><ele>272.0</ele><time>2026-04-06T09:51:47.919Z</time></trkpt><trkpt lat="44.2253563" lon="11.0317744"><ele>273.0</ele><time>2026-04-06T09:51:48.917Z</time></trkpt><trkpt lat="44.2253487" lon="11.0315422"><ele>274.0</ele><time>2026-04-06T09:51:49.919Z</time></trkpt><trkpt lat="44.2253345" lon="11.031308"><ele>275.0</ele><time>2026-04-06T09:51:50.918Z</time></trkpt><trkpt lat="44.2253154" lon="11.0310862"><ele>275.0</ele><time>2026-04-06T09:51:51.918Z</time></trkpt><trkpt lat="44.2253032" lon="11.0308661"><ele>275.0</ele><time>2026-04-06T09:51:52.92Z</time></trkpt><trkpt lat="44.2252912" lon="11.0306482"><ele>275.0</ele><time>2026-04-06T09:51:53.922Z</time></trkpt><trkpt lat="44.2252945" lon="11.030443"><ele>275.0</ele><time>2026-04-06T09:51:54.917Z</time></trkpt><trkpt lat="44.2253036" lon="11.0302502"><ele>275.0</ele><time>2026-04-06T09:51:55.919Z</time></trkpt><trkpt lat="44.2253001" lon="11.03007"><ele>275.0</ele><time>2026-04-06T09:51:56.917Z</time></trkpt><trkpt lat="44.2252857" lon="11.0299042"><ele>275.0</ele><time>2026-04-06T09:51:57.915Z</time></trkpt><trkpt lat="44.2252616" lon="11.0297344"><ele>276.33333333333337</ele><time>2026-04-06T09:51:58.921Z</time></trkpt><trkpt lat="44.2252074" lon="11.0295844"><ele>277.6666666666667</ele><time>2026-04-06T09:51:59.921Z</time></trkpt><trkpt lat="44.2250771" lon="11.0294158"><ele>279.0</ele><time>2026-04-06T09:52:00.934Z</time></trkpt><trkpt lat="44.224961" lon="11.0292679"><ele>280.0</ele><time>2026-04-06T09:52:01.921Z</time></trkpt><trkpt lat="44.2248456" lon="11.0291343"><ele>281.0</ele><time>2026-04-06T09:52:02.919Z</time></trkpt><trkpt lat="44.2247167" lon="11.0290461"><ele>282.0</ele><time>2026-04-06T09:52:03.922Z</time></trkpt><trkpt lat="44.22457" lon="11.0289806"><ele>283.0</ele><time>2026-04-06T09:52:04.917Z</time></trkpt><trkpt lat="44.224448" lon="11.0289446"><ele>285.3333333333333</ele><time>2026-04-06T09:52:05.917Z</time></trkpt><trkpt lat="44.2243359" lon="11.028894"><ele>287.6666666666667</ele><time>2026-04-06T09:52:06.921Z</time></trkpt><trkpt lat="44.2241946" lon="11.0289093"><ele>290.0</ele><time>2026-04-06T09:52:07.92Z</time></trkpt><trkpt lat="44.2240294" lon="11.0290415"><ele>286.6666666666667</ele><time>2026-04-06T09:52:08.917Z</time></trkpt><trkpt lat="44.2238856" lon="11.0291615"><ele>283.3333333333333</ele><time>2026-04-06T09:52:09.914Z</time></trkpt><trkpt lat="44.2237452" lon="11.029244"><ele>280.0</ele><time>2026-04-06T09:52:10.916Z</time></trkpt><trkpt lat="44.2236053" lon="11.0293227"><ele>280.0</ele><time>2026-04-06T09:52:11.918Z</time></trkpt><trkpt lat="44.2234728" lon="11.0293623"><ele>280.0</ele><time>2026-04-06T09:52:12.921Z</time></trkpt><trkpt lat="44.2233313" lon="11.0293986"><ele>280.0</ele><time>2026-04-06T09:52:13.921Z</time></trkpt><trkpt lat="44.2231799" lon="11.0294159"><ele>280.0</ele><time>2026-04-06T09:52:14.917Z</time></trkpt><trkpt lat="44.2230304" lon="11.0294108"><ele>279.3333333333333</ele><time>2026-04-06T09:52:15.919Z</time></trkpt><trkpt lat="44.2228823" lon="11.0294237"><ele>278.6666666666667</ele><time>2026-04-06T09:52:16.926Z</time></trkpt><trkpt lat="44.2227344" lon="11.0294453"><ele>278.0</ele><time>2026-04-06T09:52:17.917Z</time></trkpt><trkpt lat="44.2225731" lon="11.029487"><ele>278.0</ele><time>2026-04-06T09:52:18.916Z</time></trkpt><trkpt lat="44.2224271" lon="11.0295067"><ele>278.0</ele><time>2026-04-06T09:52:19.916Z</time></trkpt><trkpt lat="44.2222557" lon="11.029493"><ele>278.0</ele><time>2026-04-06T09:52:20.916Z</time></trkpt><trkpt lat="44.2220901" lon="11.0294567"><ele>278.0</ele><time>2026-04-06T09:52:21.918Z</time></trkpt><trkpt lat="44.2218949" lon="11.0294137"><ele>278.0</ele><time>2026-04-06T09:52:22.926Z</time></trkpt><trkpt lat="44.2217855" lon="11.0293146"><ele>278.0</ele><time>2026-04-06T09:52:23.912Z</time></trkpt><trkpt lat="44.2216509" lon="11.0292716"><ele>278.0</ele><time>2026-04-06T09:52:24.914Z</time></trkpt><trkpt lat="44.2215117" lon="11.0292634"><ele>278.0</ele><time>2026-04-06T09:52:25.918Z</time></trkpt><trkpt lat="44.2213809" lon="11.0293742"><ele>278.0</ele><time>2026-04-06T09:52:26.916Z</time></trkpt><trkpt lat="44.2212211" lon="11.0294609"><ele>277.0</ele><time>2026-04-06T09:52:27.922Z</time></trkpt><trkpt lat="44.2210682" lon="11.0295175"><ele>276.0</ele><time>2026-04-06T09:52:28.92Z</time></trkpt><trkpt lat="44.2209068" lon="11.0295641"><ele>275.0</ele><time>2026-04-06T09:52:29.92Z</time></trkpt><trkpt lat="44.2207603" lon="11.0295625"><ele>274.33333333333337</ele><time>2026-04-06T09:52:30.911Z</time></trkpt><trkpt lat="44.2206117" lon="11.0295089"><ele>273.6666666666667</ele><time>2026-04-06T09:52:31.917Z</time></trkpt><trkpt lat="44.2204479" lon="11.029466"><ele>273.0</ele><time>2026-04-06T09:52:32.921Z</time></trkpt><trkpt lat="44.2202922" lon="11.0293804"><ele>273.0</ele><time>2026-04-06T09:52:33.913Z</time></trkpt><trkpt lat="44.2201245" lon="11.0292481"><ele>273.0</ele><time>2026-04-06T09:52:34.918Z</time></trkpt><trkpt lat="44.2199679" lon="11.0291449"><ele>273.0</ele><time>2026-04-06T09:52:35.916Z</time></trkpt><trkpt lat="44.2198171" lon="11.0290065"><ele>273.6666666666667</ele><time>2026-04-06T09:52:36.916Z</time></trkpt><trkpt lat="44.2196788" lon="11.02886"><ele>274.33333333333337</ele><time>2026-04-06T09:52:37.918Z</time></trkpt><trkpt lat="44.2195544" lon="11.028701"><ele>275.0</ele><time>2026-04-06T09:52:38.919Z</time></trkpt><trkpt lat="44.2194086" lon="11.0285338"><ele>275.0</ele><time>2026-04-06T09:52:39.915Z</time></trkpt><trkpt lat="44.2192935" lon="11.0283204"><ele>275.0</ele><time>2026-04-06T09:52:40.917Z</time></trkpt><trkpt lat="44.2191692" lon="11.0281303"><ele>275.0</ele><time>2026-04-06T09:52:41.927Z</time></trkpt><trkpt lat="44.2190092" lon="11.0279689"><ele>274.6666666666667</ele><time>2026-04-06T09:52:42.919Z</time></trkpt><trkpt lat="44.2188533" lon="11.0278067"><ele>274.3333333333333</ele><time>2026-04-06T09:52:43.917Z</time></trkpt><trkpt lat="44.2186691" lon="11.0276641"><ele>274.0</ele><time>2026-04-06T09:52:44.931Z</time></trkpt><trkpt lat="44.2184975" lon="11.0275148"><ele>276.3333333333333</ele><time>2026-04-06T09:52:45.919Z</time></trkpt><trkpt lat="44.2183379" lon="11.0273604"><ele>278.6666666666667</ele><time>2026-04-06T09:52:46.917Z</time></trkpt><trkpt lat="44.2181701" lon="11.0272169"><ele>281.0</ele><time>2026-04-06T09:52:47.916Z</time></trkpt><trkpt lat="44.2180037" lon="11.0270802"><ele>281.0</ele><time>2026-04-06T09:52:48.918Z</time></trkpt><trkpt lat="44.2178294" lon="11.0269561"><ele>281.0</ele><time>2026-04-06T09:52:49.918Z</time></trkpt><trkpt lat="44.2176428" lon="11.0268735"><ele>281.0</ele><time>2026-04-06T09:52:50.92Z</time></trkpt><trkpt lat="44.2174557" lon="11.0267885"><ele>279.6666666666667</ele><time>2026-04-06T09:52:51.919Z</time></trkpt><trkpt lat="44.2172789" lon="11.0267057"><ele>278.3333333333333</ele><time>2026-04-06T09:52:52.919Z</time></trkpt><trkpt lat="44.2170857" lon="11.026619"><ele>277.0</ele><time>2026-04-06T09:52:53.919Z</time></trkpt><trkpt lat="44.2168913" lon="11.0265344"><ele>278.66666666666663</ele><time>2026-04-06T09:52:54.917Z</time></trkpt><trkpt lat="44.2166981" lon="11.026438"><ele>280.3333333333333</ele><time>2026-04-06T09:52:55.922Z</time></trkpt><trkpt lat="44.2165027" lon="11.0263567"><ele>282.0</ele><time>2026-04-06T09:52:56.922Z</time></trkpt><trkpt lat="44.2163289" lon="11.0262553"><ele>282.0</ele><time>2026-04-06T09:52:57.916Z</time></trkpt><trkpt lat="44.2161699" lon="11.026132"><ele>282.0</ele><time>2026-04-06T09:52:58.918Z</time></trkpt><trkpt lat="44.2160114" lon="11.025981"><ele>282.0</ele><time>2026-04-06T09:52:59.919Z</time></trkpt><trkpt lat="44.2158776" lon="11.025784"><ele>282.0</ele><time>2026-04-06T09:53:00.916Z</time></trkpt><trkpt lat="44.2157425" lon="11.0255901"><ele>282.0</ele><time>2026-04-06T09:53:01.916Z</time></trkpt><trkpt lat="44.2156068" lon="11.0254077"><ele>282.0</ele><time>2026-04-06T09:53:02.912Z</time></trkpt><trkpt lat="44.2154649" lon="11.0252124"><ele>282.0</ele><time>2026-04-06T09:53:03.934Z</time></trkpt><trkpt lat="44.2153215" lon="11.0250564"><ele>282.0</ele><time>2026-04-06T09:53:04.911Z</time></trkpt><trkpt lat="44.2151629" lon="11.0249227"><ele>282.0</ele><time>2026-04-06T09:53:05.914Z</time></trkpt><trkpt lat="44.2150043" lon="11.0248123"><ele>287.0</ele><time>2026-04-06T09:53:06.919Z</time></trkpt><trkpt lat="44.214831" lon="11.0247507"><ele>292.0</ele><time>2026-04-06T09:53:07.918Z</time></trkpt><trkpt lat="44.2146666" lon="11.024696"><ele>297.0</ele><time>2026-04-06T09:53:08.916Z</time></trkpt><trkpt lat="44.2144887" lon="11.0247024"><ele>296.3333333333333</ele><time>2026-04-06T09:53:09.916Z</time></trkpt><trkpt lat="44.2143114" lon="11.024708"><ele>295.66666666666663</ele><time>2026-04-06T09:53:10.919Z</time></trkpt><trkpt lat="44.2141229" lon="11.0246937"><ele>295.0</ele><time>2026-04-06T09:53:11.918Z</time></trkpt><trkpt lat="44.2139242" lon="11.0246809"><ele>295.0</ele><time>2026-04-06T09:53:12.916Z</time></trkpt><trkpt lat="44.213737" lon="11.0246257"><ele>295.0</ele><time>2026-04-06T09:53:13.924Z</time></trkpt><trkpt lat="44.2135354" lon="11.0245856"><ele>295.0</ele><time>2026-04-06T09:53:14.921Z</time></trkpt><trkpt lat="44.2133602" lon="11.0244738"><ele>295.0</ele><time>2026-04-06T09:53:15.924Z</time></trkpt><trkpt lat="44.2131723" lon="11.0243913"><ele>295.0</ele><time>2026-04-06T09:53:16.916Z</time></trkpt><trkpt lat="44.2129867" lon="11.0243174"><ele>295.0</ele><time>2026-04-06T09:53:17.919Z</time></trkpt><trkpt lat="44.2127862" lon="11.0243071"><ele>294.3333333333333</ele><time>2026-04-06T09:53:18.918Z</time></trkpt><trkpt lat="44.2126063" lon="11.0242794"><ele>293.6666666666667</ele><time>2026-04-06T09:53:19.916Z</time></trkpt><trkpt lat="44.2124137" lon="11.0242787"><ele>293.0</ele><time>2026-04-06T09:53:20.922Z</time></trkpt><trkpt lat="44.2122323" lon="11.0242702"><ele>293.0</ele><time>2026-04-06T09:53:21.92Z</time></trkpt><trkpt lat="44.2120436" lon="11.0242454"><ele>293.0</ele><time>2026-04-06T09:53:22.917Z</time></trkpt><trkpt lat="44.21186" lon="11.0241901"><ele>293.0</ele><time>2026-04-06T09:53:23.917Z</time></trkpt><trkpt lat="44.2116902" lon="11.0241027"><ele>295.6666666666667</ele><time>2026-04-06T09:53:24.916Z</time></trkpt><trkpt lat="44.2115218" lon="11.023997"><ele>298.3333333333333</ele><time>2026-04-06T09:53:25.918Z</time></trkpt><trkpt lat="44.2113605" lon="11.0238564"><ele>301.0</ele><time>2026-04-06T09:53:26.917Z</time></trkpt><trkpt lat="44.2112204" lon="11.023698"><ele>301.0</ele><time>2026-04-06T09:53:27.918Z</time></trkpt><trkpt lat="44.2110977" lon="11.0235505"><ele>301.0</ele><time>2026-04-06T09:53:28.917Z</time></trkpt><trkpt lat="44.2109664" lon="11.0234222"><ele>301.0</ele><time>2026-04-06T09:53:29.919Z</time></trkpt><trkpt lat="44.210834" lon="11.0233048"><ele>302.5</ele><time>2026-04-06T09:53:30.923Z</time></trkpt><trkpt lat="44.2106961" lon="11.0232177"><ele>304.0</ele><time>2026-04-06T09:53:31.917Z</time></trkpt><trkpt lat="44.2105447" lon="11.0232193"><ele>305.5</ele><time>2026-04-06T09:53:32.918Z</time></trkpt><trkpt lat="44.2104103" lon="11.02327"><ele>307.0</ele><time>2026-04-06T09:53:33.918Z</time></trkpt><trkpt lat="44.2102124" lon="11.0234347"><ele>307.0</ele><time>2026-04-06T09:53:34.916Z</time></trkpt><trkpt lat="44.2100553" lon="11.0235538"><ele>307.0</ele><time>2026-04-06T09:53:35.92Z</time></trkpt><trkpt lat="44.2098981" lon="11.0236659"><ele>307.0</ele><time>2026-04-06T09:53:36.917Z</time></trkpt><trkpt lat="44.2097526" lon="11.0237405"><ele>306.3333333333333</ele><time>2026-04-06T09:53:37.921Z</time></trkpt><trkpt lat="44.2095966" lon="11.0237855"><ele>305.6666666666667</ele><time>2026-04-06T09:53:38.919Z</time></trkpt><trkpt lat="44.209435" lon="11.0237808"><ele>305.0</ele><time>2026-04-06T09:53:39.92Z</time></trkpt><trkpt lat="44.2092888" lon="11.0237179"><ele>305.0</ele><time>2026-04-06T09:53:40.919Z</time></trkpt><trkpt lat="44.2091356" lon="11.0236473"><ele>305.0</ele><time>2026-04-06T09:53:41.917Z</time></trkpt><trkpt lat="44.2089946" lon="11.0235422"><ele>305.0</ele><time>2026-04-06T09:53:42.919Z</time></trkpt><trkpt lat="44.2089786" lon="11.0232878"><ele>302.33333333333337</ele><time>2026-04-06T09:53:43.926Z</time></trkpt><trkpt lat="44.2089376" lon="11.0230671"><ele>299.6666666666667</ele><time>2026-04-06T09:53:44.923Z</time></trkpt><trkpt lat="44.2089013" lon="11.022828"><ele>297.0</ele><time>2026-04-06T09:53:45.917Z</time></trkpt><trkpt lat="44.2088345" lon="11.0225855"><ele>299.3333333333333</ele><time>2026-04-06T09:53:46.917Z</time></trkpt><trkpt lat="44.2087684" lon="11.0223411"><ele>301.66666666666663</ele><time>2026-04-06T09:53:47.92Z</time></trkpt><trkpt lat="44.2087007" lon="11.0220758"><ele>304.0</ele><time>2026-04-06T09:53:48.92Z</time></trkpt><trkpt lat="44.2086258" lon="11.0218218"><ele>306.3333333333333</ele><time>2026-04-06T09:53:49.919Z</time></trkpt><trkpt lat="44.2085468" lon="11.0215665"><ele>308.6666666666667</ele><time>2026-04-06T09:53:50.921Z</time></trkpt><trkpt lat="44.2084686" lon="11.021318"><ele>311.0</ele><time>2026-04-06T09:53:51.915Z</time></trkpt><trkpt lat="44.208354" lon="11.0210858"><ele>311.0</ele><time>2026-04-06T09:53:52.921Z</time></trkpt><trkpt lat="44.2082346" lon="11.0208661"><ele>311.0</ele><time>2026-04-06T09:53:53.925Z</time></trkpt><trkpt lat="44.2080984" lon="11.0206646"><ele>311.0</ele><time>2026-04-06T09:53:54.919Z</time></trkpt><trkpt lat="44.2080076" lon="11.0204433"><ele>310.6666666666667</ele><time>2026-04-06T09:53:55.916Z</time></trkpt><trkpt lat="44.2079461" lon="11.020205"><ele>310.3333333333333</ele><time>2026-04-06T09:53:56.919Z</time></trkpt><trkpt lat="44.2079076" lon="11.0199513"><ele>310.0</ele><time>2026-04-06T09:53:57.926Z</time></trkpt><trkpt lat="44.2078764" lon="11.0196906"><ele>310.0</ele><time>2026-04-06T09:53:58.915Z</time></trkpt><trkpt lat="44.2078381" lon="11.0194315"><ele>310.0</ele><time>2026-04-06T09:53:59.92Z</time></trkpt><trkpt lat="44.2077873" lon="11.0191914"><ele>310.0</ele><time>2026-04-06T09:54:00.919Z</time></trkpt><trkpt lat="44.2077156" lon="11.0189823"><ele>313.0</ele><time>2026-04-06T09:54:01.919Z</time></trkpt><trkpt lat="44.2076315" lon="11.0188098"><ele>316.0</ele><time>2026-04-06T09:54:02.919Z</time></trkpt><trkpt lat="44.2075279" lon="11.0186644"><ele>319.0</ele><time>2026-04-06T09:54:03.92Z</time></trkpt><trkpt lat="44.2073873" lon="11.0185496"><ele>319.66666666666663</ele><time>2026-04-06T09:54:04.915Z</time></trkpt><trkpt lat="44.2072358" lon="11.0184517"><ele>320.3333333333333</ele><time>2026-04-06T09:54:05.916Z</time></trkpt><trkpt lat="44.2070674" lon="11.0183771"><ele>321.0</ele><time>2026-04-06T09:54:06.915Z</time></trkpt><trkpt lat="44.2069013" lon="11.0182763"><ele>321.0</ele><time>2026-04-06T09:54:07.924Z</time></trkpt><trkpt lat="44.2067487" lon="11.0181552"><ele>321.0</ele><time>2026-04-06T09:54:08.922Z</time></trkpt><trkpt lat="44.2065862" lon="11.0180265"><ele>321.0</ele><time>2026-04-06T09:54:09.92Z</time></trkpt><trkpt lat="44.20651" lon="11.0178133"><ele>320.0</ele><time>2026-04-06T09:54:10.922Z</time></trkpt><trkpt lat="44.2063986" lon="11.0176332"><ele>319.0</ele><time>2026-04-06T09:54:11.917Z</time></trkpt><trkpt lat="44.2063156" lon="11.0174204"><ele>318.0</ele><time>2026-04-06T09:54:12.933Z</time></trkpt><trkpt lat="44.2062216" lon="11.0172149"><ele>318.0</ele><time>2026-04-06T09:54:13.915Z</time></trkpt><trkpt lat="44.2061389" lon="11.0169909"><ele>318.0</ele><time>2026-04-06T09:54:14.915Z</time></trkpt><trkpt lat="44.2060557" lon="11.0167567"><ele>318.0</ele><time>2026-04-06T09:54:15.921Z</time></trkpt><trkpt lat="44.2059515" lon="11.0165537"><ele>318.6666666666667</ele><time>2026-04-06T09:54:16.918Z</time></trkpt><trkpt lat="44.2058352" lon="11.0163645"><ele>319.33333333333337</ele><time>2026-04-06T09:54:17.916Z</time></trkpt><trkpt lat="44.2057072" lon="11.0162208"><ele>320.0</ele><time>2026-04-06T09:54:18.921Z</time></trkpt><trkpt lat="44.205576" lon="11.016095"><ele>320.0</ele><time>2026-04-06T09:54:19.917Z</time></trkpt><trkpt lat="44.2054222" lon="11.0159884"><ele>320.0</ele><time>2026-04-06T09:54:20.919Z</time></trkpt><trkpt lat="44.2052422" lon="11.0159102"><ele>320.0</ele><time>2026-04-06T09:54:21.916Z</time></trkpt><trkpt lat="44.2050893" lon="11.0157896"><ele>318.0</ele><time>2026-04-06T09:54:22.917Z</time></trkpt><trkpt lat="44.2049492" lon="11.0156671"><ele>316.0</ele><time>2026-04-06T09:54:23.915Z</time></trkpt><trkpt lat="44.2048232" lon="11.0155279"><ele>314.0</ele><time>2026-04-06T09:54:24.923Z</time></trkpt><trkpt lat="44.2047072" lon="11.0153706"><ele>314.0</ele><time>2026-04-06T09:54:25.919Z</time></trkpt><trkpt lat="44.2046447" lon="11.0151271"><ele>314.0</ele><time>2026-04-06T09:54:26.917Z</time></trkpt><trkpt lat="44.2045539" lon="11.0149178"><ele>314.0</ele><time>2026-04-06T09:54:27.924Z</time></trkpt><trkpt lat="44.2045" lon="11.014673"><ele>316.33333333333337</ele><time>2026-04-06T09:54:28.92Z</time></trkpt><trkpt lat="44.2044452" lon="11.0144391"><ele>318.6666666666667</ele><time>2026-04-06T09:54:29.92Z</time></trkpt><trkpt lat="44.2043949" lon="11.0142319"><ele>321.0</ele><time>2026-04-06T09:54:30.918Z</time></trkpt><trkpt lat="44.2043479" lon="11.0140493"><ele>323.20000000000005</ele><time>2026-04-06T09:54:31.916Z</time></trkpt><trkpt lat="44.2042877" lon="11.0139195"><ele>325.40000000000003</ele><time>2026-04-06T09:54:32.918Z</time></trkpt><trkpt lat="44.2042054" lon="11.0138218"><ele>327.6</ele><time>2026-04-06T09:54:33.915Z</time></trkpt><trkpt lat="44.2041345" lon="11.013745"><ele>329.8</ele><time>2026-04-06T09:54:34.916Z</time></trkpt><trkpt lat="44.204012" lon="11.0137496"><ele>332.0</ele><time>2026-04-06T09:54:35.917Z</time></trkpt><trkpt lat="44.203781" lon="11.0138957"><ele>333.33333333333337</ele><time>2026-04-06T09:54:36.92Z</time></trkpt><trkpt lat="44.2035982" lon="11.0139939"><ele>334.6666666666667</ele><time>2026-04-06T09:54:37.92Z</time></trkpt><trkpt lat="44.2034269" lon="11.014073"><ele>336.0</ele><time>2026-04-06T09:54:38.92Z</time></trkpt><trkpt lat="44.2032307" lon="11.0141382"><ele>334.0</ele><time>2026-04-06T09:54:39.92Z</time></trkpt><trkpt lat="44.2030583" lon="11.014231"><ele>332.0</ele><time>2026-04-06T09:54:40.919Z</time></trkpt><trkpt lat="44.2029021" lon="11.0143476"><ele>330.0</ele><time>2026-04-06T09:54:41.919Z</time></trkpt><trkpt lat="44.2027546" lon="11.0144756"><ele>330.0</ele><time>2026-04-06T09:54:42.919Z</time></trkpt><trkpt lat="44.20261" lon="11.0145661"><ele>330.0</ele><time>2026-04-06T09:54:43.916Z</time></trkpt><trkpt lat="44.2024544" lon="11.014611"><ele>330.0</ele><time>2026-04-06T09:54:44.92Z</time></trkpt><trkpt lat="44.2022798" lon="11.0146188"><ele>330.3333333333333</ele><time>2026-04-06T09:54:45.919Z</time></trkpt><trkpt lat="44.2021015" lon="11.0145928"><ele>330.66666666666663</ele><time>2026-04-06T09:54:46.918Z</time></trkpt><trkpt lat="44.2019307" lon="11.0145393"><ele>331.0</ele><time>2026-04-06T09:54:47.919Z</time></trkpt><trkpt lat="44.2017628" lon="11.0144311"><ele>331.0</ele><time>2026-04-06T09:54:48.921Z</time></trkpt><trkpt lat="44.2016016" lon="11.014315"><ele>331.0</ele><time>2026-04-06T09:54:49.916Z</time></trkpt><trkpt lat="44.2014392" lon="11.0141737"><ele>331.0</ele><time>2026-04-06T09:54:50.92Z</time></trkpt><trkpt lat="44.201284" lon="11.0140165"><ele>328.66666666666663</ele><time>2026-04-06T09:54:51.915Z</time></trkpt><trkpt lat="44.2011339" lon="11.0138465"><ele>326.3333333333333</ele><time>2026-04-06T09:54:52.913Z</time></trkpt><trkpt lat="44.2010049" lon="11.0136483"><ele>324.0</ele><time>2026-04-06T09:54:53.918Z</time></trkpt><trkpt lat="44.2008715" lon="11.0134384"><ele>322.0</ele><time>2026-04-06T09:54:54.917Z</time></trkpt><trkpt lat="44.2007564" lon="11.0132205"><ele>320.0</ele><time>2026-04-06T09:54:55.916Z</time></trkpt><trkpt lat="44.2006631" lon="11.0129597"><ele>318.0</ele><time>2026-04-06T09:54:56.913Z</time></trkpt><trkpt lat="44.2005745" lon="11.0126948"><ele>320.6666666666667</ele><time>2026-04-06T09:54:57.915Z</time></trkpt><trkpt lat="44.200494" lon="11.0124505"><ele>323.33333333333337</ele><time>2026-04-06T09:54:58.918Z</time></trkpt><trkpt lat="44.2004084" lon="11.0122126"><ele>326.0</ele><time>2026-04-06T09:54:59.917Z</time></trkpt><trkpt lat="44.2003128" lon="11.011986"><ele>326.0</ele><time>2026-04-06T09:55:00.919Z</time></trkpt><trkpt lat="44.2002054" lon="11.0117703"><ele>326.0</ele><time>2026-04-06T09:55:01.918Z</time></trkpt><trkpt lat="44.2000878" lon="11.0115673"><ele>326.0</ele><time>2026-04-06T09:55:02.916Z</time></trkpt><trkpt lat="44.1999433" lon="11.0114124"><ele>325.33333333333337</ele><time>2026-04-06T09:55:03.932Z</time></trkpt><trkpt lat="44.1997769" lon="11.0112646"><ele>324.6666666666667</ele><time>2026-04-06T09:55:04.92Z</time></trkpt><trkpt lat="44.1996201" lon="11.0111451"><ele>324.0</ele><time>2026-04-06T09:55:05.92Z</time></trkpt><trkpt lat="44.1994807" lon="11.0110262"><ele>324.0</ele><time>2026-04-06T09:55:06.916Z</time></trkpt><trkpt lat="44.1993585" lon="11.0109007"><ele>324.0</ele><time>2026-04-06T09:55:07.917Z</time></trkpt><trkpt lat="44.1992712" lon="11.010765"><ele>324.0</ele><time>2026-04-06T09:55:08.918Z</time></trkpt><trkpt lat="44.199216" lon="11.0106193"><ele>324.0</ele><time>2026-04-06T09:55:09.922Z</time></trkpt><trkpt lat="44.1992642" lon="11.0103537"><ele>324.3333333333333</ele><time>2026-04-06T09:55:10.927Z</time></trkpt><trkpt lat="44.1992805" lon="11.0101251"><ele>324.66666666666663</ele><time>2026-04-06T09:55:11.92Z</time></trkpt><trkpt lat="44.1992943" lon="11.0098865"><ele>325.0</ele><time>2026-04-06T09:55:12.919Z</time></trkpt><trkpt lat="44.1993131" lon="11.0096664"><ele>325.0</ele><time>2026-04-06T09:55:13.919Z</time></trkpt><trkpt lat="44.1993339" lon="11.0094501"><ele>325.0</ele><time>2026-04-06T09:55:14.912Z</time></trkpt><trkpt lat="44.1993669" lon="11.0092475"><ele>325.0</ele><time>2026-04-06T09:55:15.915Z</time></trkpt><trkpt lat="44.199419" lon="11.0090373"><ele>324.0</ele><time>2026-04-06T09:55:16.918Z</time></trkpt><trkpt lat="44.1994778" lon="11.0088424"><ele>323.0</ele><time>2026-04-06T09:55:17.921Z</time></trkpt><trkpt lat="44.1995567" lon="11.008666"><ele>322.0</ele><time>2026-04-06T09:55:18.916Z</time></trkpt><trkpt lat="44.1996056" lon="11.0084745"><ele>321.0</ele><time>2026-04-06T09:55:19.918Z</time></trkpt><trkpt lat="44.1996503" lon="11.0082951"><ele>323.75</ele><time>2026-04-06T09:55:20.917Z</time></trkpt><trkpt lat="44.1996242" lon="11.0081134"><ele>326.5</ele><time>2026-04-06T09:55:21.924Z</time></trkpt><trkpt lat="44.1995892" lon="11.0079338"><ele>329.25</ele><time>2026-04-06T09:55:22.926Z</time></trkpt><trkpt lat="44.1995251" lon="11.0078126"><ele>332.0</ele><time>2026-04-06T09:55:23.931Z</time></trkpt><trkpt lat="44.1993303" lon="11.0077764"><ele>332.0</ele><time>2026-04-06T09:55:24.912Z</time></trkpt><trkpt lat="44.1991502" lon="11.0077646"><ele>332.0</ele><time>2026-04-06T09:55:25.92Z</time></trkpt><trkpt lat="44.1989931" lon="11.0077203"><ele>332.0</ele><time>2026-04-06T09:55:26.923Z</time></trkpt><trkpt lat="44.1988426" lon="11.007662"><ele>332.33333333333337</ele><time>2026-04-06T09:55:27.915Z</time></trkpt><trkpt lat="44.1986525" lon="11.007564"><ele>332.6666666666667</ele><time>2026-04-06T09:55:28.923Z</time></trkpt><trkpt lat="44.1984936" lon="11.0074288"><ele>333.0</ele><time>2026-04-06T09:55:29.919Z</time></trkpt><trkpt lat="44.1983245" lon="11.0073155"><ele>330.0</ele><time>2026-04-06T09:55:30.916Z</time></trkpt><trkpt lat="44.1981585" lon="11.0071712"><ele>327.0</ele><time>2026-04-06T09:55:31.915Z</time></trkpt><trkpt lat="44.1979936" lon="11.0070198"><ele>324.0</ele><time>2026-04-06T09:55:32.917Z</time></trkpt><trkpt lat="44.1978207" lon="11.0068894"><ele>324.0</ele><time>2026-04-06T09:55:33.915Z</time></trkpt><trkpt lat="44.1976538" lon="11.0067653"><ele>324.0</ele><time>2026-04-06T09:55:34.914Z</time></trkpt><trkpt lat="44.197492" lon="11.0066678"><ele>324.0</ele><time>2026-04-06T09:55:35.917Z</time></trkpt><trkpt lat="44.1973039" lon="11.0066307"><ele>325.3333333333333</ele><time>2026-04-06T09:55:36.914Z</time></trkpt><trkpt lat="44.1971275" lon="11.0066107"><ele>326.66666666666663</ele><time>2026-04-06T09:55:37.923Z</time></trkpt><trkpt lat="44.1969497" lon="11.0066059"><ele>328.0</ele><time>2026-04-06T09:55:38.919Z</time></trkpt><trkpt lat="44.1967669" lon="11.0065889"><ele>328.0</ele><time>2026-04-06T09:55:39.923Z</time></trkpt><trkpt lat="44.1965959" lon="11.0065288"><ele>328.0</ele><time>2026-04-06T09:55:40.917Z</time></trkpt><trkpt lat="44.196423" lon="11.006434"><ele>328.0</ele><time>2026-04-06T09:55:41.919Z</time></trkpt><trkpt lat="44.1962613" lon="11.0063309"><ele>326.3333333333333</ele><time>2026-04-06T09:55:42.919Z</time></trkpt><trkpt lat="44.1960982" lon="11.0061882"><ele>324.6666666666667</ele><time>2026-04-06T09:55:43.92Z</time></trkpt><trkpt lat="44.1959721" lon="11.0059954"><ele>323.0</ele><time>2026-04-06T09:55:44.916Z</time></trkpt><trkpt lat="44.1958385" lon="11.0058281"><ele>323.0</ele><time>2026-04-06T09:55:45.916Z</time></trkpt><trkpt lat="44.1956931" lon="11.0056574"><ele>323.0</ele><time>2026-04-06T09:55:46.921Z</time></trkpt><trkpt lat="44.1955535" lon="11.005491"><ele>323.0</ele><time>2026-04-06T09:55:47.919Z</time></trkpt><trkpt lat="44.1953843" lon="11.0053636"><ele>321.0</ele><time>2026-04-06T09:55:48.92Z</time></trkpt><trkpt lat="44.1952018" lon="11.0052344"><ele>319.0</ele><time>2026-04-06T09:55:49.913Z</time></trkpt><trkpt lat="44.195032" lon="11.0051225"><ele>317.0</ele><time>2026-04-06T09:55:50.916Z</time></trkpt><trkpt lat="44.1948621" lon="11.005015"><ele>319.0</ele><time>2026-04-06T09:55:51.922Z</time></trkpt><trkpt lat="44.1947011" lon="11.0049131"><ele>321.0</ele><time>2026-04-06T09:55:52.919Z</time></trkpt><trkpt lat="44.1945383" lon="11.0048"><ele>323.0</ele><time>2026-04-06T09:55:53.921Z</time></trkpt><trkpt lat="44.194376" lon="11.0046961"><ele>323.0</ele><time>2026-04-06T09:55:54.916Z</time></trkpt><trkpt lat="44.1942123" lon="11.0045945"><ele>323.0</ele><time>2026-04-06T09:55:55.921Z</time></trkpt><trkpt lat="44.1940484" lon="11.0044861"><ele>323.0</ele><time>2026-04-06T09:55:56.916Z</time></trkpt><trkpt lat="44.1938909" lon="11.0043773"><ele>321.6666666666667</ele><time>2026-04-06T09:55:57.917Z</time></trkpt><trkpt lat="44.193743" lon="11.0042858"><ele>320.3333333333333</ele><time>2026-04-06T09:55:58.917Z</time></trkpt><trkpt lat="44.1936019" lon="11.0042166"><ele>319.0</ele><time>2026-04-06T09:55:59.92Z</time></trkpt><trkpt lat="44.1934673" lon="11.0041575"><ele>319.0</ele><time>2026-04-06T09:56:00.916Z</time></trkpt><trkpt lat="44.1933486" lon="11.0041106"><ele>319.0</ele><time>2026-04-06T09:56:01.916Z</time></trkpt><trkpt lat="44.1932459" lon="11.0041007"><ele>319.0</ele><time>2026-04-06T09:56:02.917Z</time></trkpt><trkpt lat="44.1931564" lon="11.0041431"><ele>319.0</ele><time>2026-04-06T09:56:03.921Z</time></trkpt><trkpt lat="44.19308" lon="11.0041867"><ele>319.0</ele><time>2026-04-06T09:56:04.923Z</time></trkpt><trkpt lat="44.1930194" lon="11.0043092"><ele>319.0</ele><time>2026-04-06T09:56:05.919Z</time></trkpt><trkpt lat="44.1929451" lon="11.0044126"><ele>319.0</ele><time>2026-04-06T09:56:06.915Z</time></trkpt><trkpt lat="44.19286" lon="11.0044724"><ele>319.0</ele><time>2026-04-06T09:56:07.92Z</time></trkpt><trkpt lat="44.1927636" lon="11.0045043"><ele>319.0</ele><time>2026-04-06T09:56:08.92Z</time></trkpt><trkpt lat="44.1926564" lon="11.0044874"><ele>319.0</ele><time>2026-04-06T09:56:09.917Z</time></trkpt><trkpt lat="44.1925273" lon="11.004433"><ele>319.0</ele><time>2026-04-06T09:56:10.927Z</time></trkpt><trkpt lat="44.1923954" lon="11.0043481"><ele>319.0</ele><time>2026-04-06T09:56:11.922Z</time></trkpt><trkpt lat="44.1922557" lon="11.0042609"><ele>319.0</ele><time>2026-04-06T09:56:12.916Z</time></trkpt><trkpt lat="44.1921211" lon="11.0041764"><ele>319.0</ele><time>2026-04-06T09:56:13.918Z</time></trkpt><trkpt lat="44.1919911" lon="11.0041033"><ele>319.2</ele><time>2026-04-06T09:56:14.916Z</time></trkpt><trkpt lat="44.1918797" lon="11.0040656"><ele>319.4</ele><time>2026-04-06T09:56:15.917Z</time></trkpt><trkpt lat="44.1917707" lon="11.0040565"><ele>319.6</ele><time>2026-04-06T09:56:16.914Z</time></trkpt><trkpt lat="44.1916836" lon="11.0040978"><ele>319.8</ele><time>2026-04-06T09:56:17.915Z</time></trkpt><trkpt lat="44.191615" lon="11.0041325"><ele>320.0</ele><time>2026-04-06T09:56:18.918Z</time></trkpt><trkpt lat="44.1915446" lon="11.004152"><ele>317.75</ele><time>2026-04-06T09:56:19.914Z</time></trkpt><trkpt lat="44.1914153" lon="11.0040718"><ele>315.5</ele><time>2026-04-06T09:56:21.919Z</time></trkpt><trkpt lat="44.1913297" lon="11.0039978"><ele>313.25</ele><time>2026-04-06T09:56:22.919Z</time></trkpt><trkpt lat="44.191229" lon="11.0038972"><ele>311.0</ele><time>2026-04-06T09:56:23.915Z</time></trkpt><trkpt lat="44.1911314" lon="11.0037839"><ele>311.0</ele><time>2026-04-06T09:56:24.916Z</time></trkpt><trkpt lat="44.1910399" lon="11.0036425"><ele>311.0</ele><time>2026-04-06T09:56:25.92Z</time></trkpt><trkpt lat="44.1909349" lon="11.0034971"><ele>311.0</ele><time>2026-04-06T09:56:26.923Z</time></trkpt><trkpt lat="44.1908241" lon="11.0033461"><ele>311.0</ele><time>2026-04-06T09:56:27.915Z</time></trkpt><trkpt lat="44.1907105" lon="11.0031915"><ele>311.0</ele><time>2026-04-06T09:56:28.927Z</time></trkpt><trkpt lat="44.1905947" lon="11.0030238"><ele>311.0</ele><time>2026-04-06T09:56:29.928Z</time></trkpt><trkpt lat="44.1904789" lon="11.0028594"><ele>311.0</ele><time>2026-04-06T09:56:30.921Z</time></trkpt><trkpt lat="44.1903621" lon="11.0026901"><ele>311.0</ele><time>2026-04-06T09:56:31.912Z</time></trkpt><trkpt lat="44.190243" lon="11.0025202"><ele>311.0</ele><time>2026-04-06T09:56:32.921Z</time></trkpt><trkpt lat="44.1901227" lon="11.0023455"><ele>311.0</ele><time>2026-04-06T09:56:33.92Z</time></trkpt><trkpt lat="44.1900008" lon="11.0021654"><ele>310.33333333333337</ele><time>2026-04-06T09:56:34.92Z</time></trkpt><trkpt lat="44.1898781" lon="11.0019987"><ele>309.6666666666667</ele><time>2026-04-06T09:56:35.924Z</time></trkpt><trkpt lat="44.1897609" lon="11.0018239"><ele>309.0</ele><time>2026-04-06T09:56:36.919Z</time></trkpt><trkpt lat="44.1896467" lon="11.001661"><ele>310.75</ele><time>2026-04-06T09:56:37.918Z</time></trkpt><trkpt lat="44.1895414" lon="11.0015022"><ele>312.5</ele><time>2026-04-06T09:56:38.926Z</time></trkpt><trkpt lat="44.1894461" lon="11.0013633"><ele>314.25</ele><time>2026-04-06T09:56:39.924Z</time></trkpt><trkpt lat="44.1893502" lon="11.0012392"><ele>316.0</ele><time>2026-04-06T09:56:40.922Z</time></trkpt><trkpt lat="44.1892722" lon="11.0011209"><ele>316.0</ele><time>2026-04-06T09:56:41.919Z</time></trkpt><trkpt lat="44.1891974" lon="11.0010048"><ele>316.0</ele><time>2026-04-06T09:56:42.915Z</time></trkpt><trkpt lat="44.1891297" lon="11.0009015"><ele>316.0</ele><time>2026-04-06T09:56:43.919Z</time></trkpt><trkpt lat="44.1890477" lon="11.0007971"><ele>316.0</ele><time>2026-04-06T09:56:44.925Z</time></trkpt><trkpt lat="44.1889758" lon="11.0006828"><ele>316.0</ele><time>2026-04-06T09:56:45.917Z</time></trkpt><trkpt lat="44.1889102" lon="11.0005814"><ele>315.66666666666663</ele><time>2026-04-06T09:56:46.92Z</time></trkpt><trkpt lat="44.1888414" lon="11.0004963"><ele>315.3333333333333</ele><time>2026-04-06T09:56:47.921Z</time></trkpt><trkpt lat="44.1887755" lon="11.0004173"><ele>315.0</ele><time>2026-04-06T09:56:48.923Z</time></trkpt><trkpt lat="44.1887136" lon="11.0003297"><ele>314.6666666666667</ele><time>2026-04-06T09:56:49.922Z</time></trkpt><trkpt lat="44.1886589" lon="11.0002425"><ele>314.33333333333337</ele><time>2026-04-06T09:56:50.925Z</time></trkpt><trkpt lat="44.1886111" lon="11.0001575"><ele>314.0</ele><time>2026-04-06T09:56:51.918Z</time></trkpt><trkpt lat="44.1885584" lon="11.000095"><ele>314.0</ele><time>2026-04-06T09:56:52.916Z</time></trkpt><trkpt lat="44.1885079" lon="11.000023"><ele>314.0</ele><time>2026-04-06T09:56:53.92Z</time></trkpt><trkpt lat="44.1884495" lon="10.9999333"><ele>314.0</ele><time>2026-04-06T09:56:54.918Z</time></trkpt><trkpt lat="44.1883904" lon="10.9998469"><ele>314.0</ele><time>2026-04-06T09:56:55.924Z</time></trkpt><trkpt lat="44.1883212" lon="10.9997619"><ele>314.0</ele><time>2026-04-06T09:56:56.92Z</time></trkpt><trkpt lat="44.1882371" lon="10.9996615"><ele>314.0</ele><time>2026-04-06T09:56:57.921Z</time></trkpt><trkpt lat="44.1881485" lon="10.9995537"><ele>313.5</ele><time>2026-04-06T09:56:58.921Z</time></trkpt><trkpt lat="44.1880625" lon="10.9994366"><ele>313.0</ele><time>2026-04-06T09:56:59.918Z</time></trkpt><trkpt lat="44.187969" lon="10.9993189"><ele>312.5</ele><time>2026-04-06T09:57:00.92Z</time></trkpt><trkpt lat="44.1878794" lon="10.9992005"><ele>312.0</ele><time>2026-04-06T09:57:01.919Z</time></trkpt><trkpt lat="44.1878038" lon="10.9990843"><ele>312.0</ele><time>2026-04-06T09:57:02.919Z</time></trkpt><trkpt lat="44.1877266" lon="10.9989867"><ele>312.0</ele><time>2026-04-06T09:57:03.916Z</time></trkpt><trkpt lat="44.1876678" lon="10.9988982"><ele>312.0</ele><time>2026-04-06T09:57:04.916Z</time></trkpt><trkpt lat="44.1875902" lon="10.9988081"><ele>312.0</ele><time>2026-04-06T09:57:06.918Z</time></trkpt><trkpt lat="44.1875581" lon="10.9987288"><ele>312.0</ele><time>2026-04-06T09:57:08.915Z</time></trkpt><trkpt lat="44.1875594" lon="10.9986315"><ele>312.0</ele><time>2026-04-06T09:57:15.917Z</time></trkpt><trkpt lat="44.1874911" lon="10.9985667"><ele>312.0</ele><time>2026-04-06T09:57:36.941Z</time></trkpt><trkpt lat="44.1874307" lon="10.9984839"><ele>312.0</ele><time>2026-04-06T09:57:37.91Z</time></trkpt><trkpt lat="44.1873746" lon="10.9983566"><ele>312.0</ele><time>2026-04-06T09:57:38.918Z</time></trkpt><trkpt lat="44.1872608" lon="10.9982262"><ele>312.0</ele><time>2026-04-06T09:57:39.915Z</time></trkpt><trkpt lat="44.1871731" lon="10.9980987"><ele>314.3333333333333</ele><time>2026-04-06T09:57:40.932Z</time></trkpt><trkpt lat="44.1870265" lon="10.9979188"><ele>316.66666666666663</ele><time>2026-04-06T09:57:41.917Z</time></trkpt><trkpt lat="44.1869049" lon="10.997758"><ele>319.0</ele><time>2026-04-06T09:57:42.92Z</time></trkpt><trkpt lat="44.1867959" lon="10.997568"><ele>322.0</ele><time>2026-04-06T09:57:43.923Z</time></trkpt><trkpt lat="44.1866967" lon="10.9973579"><ele>325.0</ele><time>2026-04-06T09:57:44.927Z</time></trkpt><trkpt lat="44.1866087" lon="10.9971577"><ele>328.0</ele><time>2026-04-06T09:57:45.92Z</time></trkpt><trkpt lat="44.1865281" lon="10.9969512"><ele>325.0</ele><time>2026-04-06T09:57:46.917Z</time></trkpt><trkpt lat="44.1864655" lon="10.9967428"><ele>322.0</ele><time>2026-04-06T09:57:47.912Z</time></trkpt><trkpt lat="44.1864071" lon="10.9965284"><ele>319.0</ele><time>2026-04-06T09:57:48.927Z</time></trkpt><trkpt lat="44.1863558" lon="10.9963116"><ele>319.0</ele><time>2026-04-06T09:57:49.92Z</time></trkpt><trkpt lat="44.1862973" lon="10.9960881"><ele>319.0</ele><time>2026-04-06T09:57:50.912Z</time></trkpt><trkpt lat="44.1862399" lon="10.9958682"><ele>319.0</ele><time>2026-04-06T09:57:51.925Z</time></trkpt><trkpt lat="44.1861853" lon="10.9956445"><ele>321.0</ele><time>2026-04-06T09:57:52.916Z</time></trkpt><trkpt lat="44.1861411" lon="10.9954239"><ele>323.0</ele><time>2026-04-06T09:57:53.913Z</time></trkpt><trkpt lat="44.1860986" lon="10.9951981"><ele>325.0</ele><time>2026-04-06T09:57:54.917Z</time></trkpt><trkpt lat="44.1860583" lon="10.9949836"><ele>325.66666666666663</ele><time>2026-04-06T09:57:55.921Z</time></trkpt><trkpt lat="44.186013" lon="10.9947603"><ele>326.3333333333333</ele><time>2026-04-06T09:57:56.917Z</time></trkpt><trkpt lat="44.1859598" lon="10.9945261"><ele>327.0</ele><time>2026-04-06T09:57:57.912Z</time></trkpt><trkpt lat="44.1859065" lon="10.9943045"><ele>327.3333333333333</ele><time>2026-04-06T09:57:58.919Z</time></trkpt><trkpt lat="44.1858477" lon="10.9940758"><ele>327.66666666666663</ele><time>2026-04-06T09:57:59.919Z</time></trkpt><trkpt lat="44.1857827" lon="10.9938464"><ele>328.0</ele><time>2026-04-06T09:58:00.916Z</time></trkpt><trkpt lat="44.1857207" lon="10.9936114"><ele>323.66666666666663</ele><time>2026-04-06T09:58:01.923Z</time></trkpt><trkpt lat="44.1856665" lon="10.9933768"><ele>319.3333333333333</ele><time>2026-04-06T09:58:02.923Z</time></trkpt><trkpt lat="44.1856049" lon="10.9931458"><ele>315.0</ele><time>2026-04-06T09:58:03.922Z</time></trkpt><trkpt lat="44.1855503" lon="10.9929264"><ele>315.0</ele><time>2026-04-06T09:58:04.916Z</time></trkpt><trkpt lat="44.1854868" lon="10.992703"><ele>315.0</ele><time>2026-04-06T09:58:05.919Z</time></trkpt><trkpt lat="44.1854255" lon="10.9924906"><ele>315.0</ele><time>2026-04-06T09:58:06.921Z</time></trkpt><trkpt lat="44.1853545" lon="10.9922829"><ele>317.6666666666667</ele><time>2026-04-06T09:58:07.921Z</time></trkpt><trkpt lat="44.1852656" lon="10.9920852"><ele>320.33333333333337</ele><time>2026-04-06T09:58:08.914Z</time></trkpt><trkpt lat="44.1851692" lon="10.9918906"><ele>323.0</ele><time>2026-04-06T09:58:09.915Z</time></trkpt><trkpt lat="44.1850691" lon="10.9917069"><ele>322.0</ele><time>2026-04-06T09:58:10.919Z</time></trkpt><trkpt lat="44.1849548" lon="10.9915306"><ele>321.0</ele><time>2026-04-06T09:58:11.919Z</time></trkpt><trkpt lat="44.1848343" lon="10.991363"><ele>320.0</ele><time>2026-04-06T09:58:12.92Z</time></trkpt><trkpt lat="44.1847108" lon="10.9912007"><ele>320.0</ele><time>2026-04-06T09:58:13.922Z</time></trkpt><trkpt lat="44.1845973" lon="10.9910228"><ele>320.0</ele><time>2026-04-06T09:58:14.915Z</time></trkpt><trkpt lat="44.1844795" lon="10.9908445"><ele>320.0</ele><time>2026-04-06T09:58:15.919Z</time></trkpt><trkpt lat="44.1843629" lon="10.9906674"><ele>319.6666666666667</ele><time>2026-04-06T09:58:16.916Z</time></trkpt><trkpt lat="44.1842358" lon="10.9905082"><ele>319.3333333333333</ele><time>2026-04-06T09:58:17.916Z</time></trkpt><trkpt lat="44.18411" lon="10.9903584"><ele>319.0</ele><time>2026-04-06T09:58:18.915Z</time></trkpt><trkpt lat="44.1839843" lon="10.9902044"><ele>319.0</ele><time>2026-04-06T09:58:19.92Z</time></trkpt><trkpt lat="44.1838663" lon="10.9900406"><ele>319.0</ele><time>2026-04-06T09:58:20.916Z</time></trkpt><trkpt lat="44.1837525" lon="10.9898774"><ele>319.0</ele><time>2026-04-06T09:58:21.916Z</time></trkpt><trkpt lat="44.1836531" lon="10.9896903"><ele>320.0</ele><time>2026-04-06T09:58:22.914Z</time></trkpt><trkpt lat="44.183558" lon="10.9895081"><ele>321.0</ele><time>2026-04-06T09:58:23.913Z</time></trkpt><trkpt lat="44.1834684" lon="10.9893254"><ele>322.0</ele><time>2026-04-06T09:58:24.91Z</time></trkpt><trkpt lat="44.1833891" lon="10.9891296"><ele>321.0</ele><time>2026-04-06T09:58:25.921Z</time></trkpt><trkpt lat="44.1833188" lon="10.9889356"><ele>320.0</ele><time>2026-04-06T09:58:26.917Z</time></trkpt><trkpt lat="44.1832454" lon="10.9887435"><ele>319.0</ele><time>2026-04-06T09:58:27.914Z</time></trkpt><trkpt lat="44.1831763" lon="10.9885432"><ele>319.0</ele><time>2026-04-06T09:58:28.917Z</time></trkpt><trkpt lat="44.1831075" lon="10.9883479"><ele>319.0</ele><time>2026-04-06T09:58:29.921Z</time></trkpt><trkpt lat="44.1830386" lon="10.988166"><ele>319.0</ele><time>2026-04-06T09:58:30.92Z</time></trkpt><trkpt lat="44.1829705" lon="10.9879964"><ele>319.0</ele><time>2026-04-06T09:58:31.918Z</time></trkpt><trkpt lat="44.1829013" lon="10.9878279"><ele>319.5</ele><time>2026-04-06T09:58:32.915Z</time></trkpt><trkpt lat="44.1828317" lon="10.9876662"><ele>320.0</ele><time>2026-04-06T09:58:33.917Z</time></trkpt><trkpt lat="44.182754" lon="10.9875087"><ele>320.5</ele><time>2026-04-06T09:58:34.922Z</time></trkpt><trkpt lat="44.1826698" lon="10.9873602"><ele>321.0</ele><time>2026-04-06T09:58:35.917Z</time></trkpt><trkpt lat="44.1825848" lon="10.9872296"><ele>320.6</ele><time>2026-04-06T09:58:36.917Z</time></trkpt><trkpt lat="44.1824912" lon="10.9871178"><ele>320.20000000000005</ele><time>2026-04-06T09:58:37.921Z</time></trkpt><trkpt lat="44.1824095" lon="10.986995"><ele>319.79999999999995</ele><time>2026-04-06T09:58:38.911Z</time></trkpt><trkpt lat="44.1823358" lon="10.9868772"><ele>319.4</ele><time>2026-04-06T09:58:39.928Z</time></trkpt><trkpt lat="44.1822745" lon="10.9867841"><ele>319.0</ele><time>2026-04-06T09:58:40.919Z</time></trkpt><trkpt lat="44.1822386" lon="10.9867022"><ele>319.79999999999995</ele><time>2026-04-06T09:58:41.914Z</time></trkpt><trkpt lat="44.1822383" lon="10.9865331"><ele>320.59999999999997</ele><time>2026-04-06T09:58:43.919Z</time></trkpt><trkpt lat="44.1822521" lon="10.9864088"><ele>321.4</ele><time>2026-04-06T09:58:45.93Z</time></trkpt><trkpt lat="44.1822282" lon="10.9863043"><ele>322.2</ele><time>2026-04-06T09:58:48.915Z</time></trkpt><trkpt lat="44.182089" lon="10.9862669"><ele>323.0</ele><time>2026-04-06T09:59:21.919Z</time></trkpt><trkpt lat="44.182026" lon="10.9862969"><ele>323.0</ele><time>2026-04-06T09:59:22.925Z</time></trkpt><trkpt lat="44.1819551" lon="10.986333"><ele>323.0</ele><time>2026-04-06T09:59:23.928Z</time></trkpt><trkpt lat="44.1818858" lon="10.9863333"><ele>323.0</ele><time>2026-04-06T09:59:24.919Z</time></trkpt><trkpt lat="44.1817928" lon="10.9863149"><ele>323.0</ele><time>2026-04-06T09:59:25.921Z</time></trkpt><trkpt lat="44.1817034" lon="10.9862212"><ele>323.0</ele><time>2026-04-06T09:59:26.926Z</time></trkpt><trkpt lat="44.1816294" lon="10.9860925"><ele>323.0</ele><time>2026-04-06T09:59:27.915Z</time></trkpt><trkpt lat="44.1815378" lon="10.9859906"><ele>323.0</ele><time>2026-04-06T09:59:28.917Z</time></trkpt><trkpt lat="44.1814527" lon="10.9858516"><ele>323.0</ele><time>2026-04-06T09:59:29.914Z</time></trkpt><trkpt lat="44.1813689" lon="10.9856877"><ele>323.0</ele><time>2026-04-06T09:59:30.919Z</time></trkpt><trkpt lat="44.1812552" lon="10.9855566"><ele>323.0</ele><time>2026-04-06T09:59:31.918Z</time></trkpt><trkpt lat="44.1811547" lon="10.9854208"><ele>323.0</ele><time>2026-04-06T09:59:32.917Z</time></trkpt><trkpt lat="44.1810403" lon="10.9853036"><ele>323.0</ele><time>2026-04-06T09:59:33.92Z</time></trkpt><trkpt lat="44.1809191" lon="10.9851702"><ele>323.0</ele><time>2026-04-06T09:59:34.928Z</time></trkpt><trkpt lat="44.180782" lon="10.9850557"><ele>324.0</ele><time>2026-04-06T09:59:35.917Z</time></trkpt><trkpt lat="44.1806711" lon="10.9849027"><ele>325.0</ele><time>2026-04-06T09:59:36.916Z</time></trkpt><trkpt lat="44.1805694" lon="10.9847336"><ele>326.0</ele><time>2026-04-06T09:59:37.913Z</time></trkpt><trkpt lat="44.1804881" lon="10.9845195"><ele>326.0</ele><time>2026-04-06T09:59:38.913Z</time></trkpt><trkpt lat="44.1804004" lon="10.9843311"><ele>326.0</ele><time>2026-04-06T09:59:39.928Z</time></trkpt><trkpt lat="44.180308" lon="10.9841485"><ele>326.0</ele><time>2026-04-06T09:59:40.915Z</time></trkpt><trkpt lat="44.1802245" lon="10.9839633"><ele>325.0</ele><time>2026-04-06T09:59:41.921Z</time></trkpt><trkpt lat="44.1801474" lon="10.9837593"><ele>324.0</ele><time>2026-04-06T09:59:42.919Z</time></trkpt><trkpt lat="44.1800758" lon="10.9835472"><ele>323.0</ele><time>2026-04-06T09:59:43.915Z</time></trkpt><trkpt lat="44.1800083" lon="10.9833349"><ele>322.33333333333337</ele><time>2026-04-06T09:59:44.94Z</time></trkpt><trkpt lat="44.1799339" lon="10.9831423"><ele>321.6666666666667</ele><time>2026-04-06T09:59:45.915Z</time></trkpt><trkpt lat="44.1798491" lon="10.9829374"><ele>321.0</ele><time>2026-04-06T09:59:46.916Z</time></trkpt><trkpt lat="44.1797658" lon="10.9827436"><ele>322.3333333333333</ele><time>2026-04-06T09:59:47.908Z</time></trkpt><trkpt lat="44.1796814" lon="10.9825346"><ele>323.66666666666663</ele><time>2026-04-06T09:59:48.913Z</time></trkpt><trkpt lat="44.1795999" lon="10.9823508"><ele>325.0</ele><time>2026-04-06T09:59:49.919Z</time></trkpt><trkpt lat="44.1794989" lon="10.9821412"><ele>325.0</ele><time>2026-04-06T09:59:50.91Z</time></trkpt><trkpt lat="44.1794001" lon="10.981939"><ele>325.0</ele><time>2026-04-06T09:59:51.914Z</time></trkpt><trkpt lat="44.1792891" lon="10.9817414"><ele>325.0</ele><time>2026-04-06T09:59:52.913Z</time></trkpt><trkpt lat="44.1791719" lon="10.9815522"><ele>325.3333333333333</ele><time>2026-04-06T09:59:53.911Z</time></trkpt><trkpt lat="44.1790507" lon="10.9813762"><ele>325.6666666666667</ele><time>2026-04-06T09:59:54.922Z</time></trkpt><trkpt lat="44.1789232" lon="10.981202"><ele>326.0</ele><time>2026-04-06T09:59:55.912Z</time></trkpt><trkpt lat="44.1787877" lon="10.9810359"><ele>326.0</ele><time>2026-04-06T09:59:56.913Z</time></trkpt><trkpt lat="44.1786394" lon="10.9808776"><ele>326.0</ele><time>2026-04-06T09:59:57.918Z</time></trkpt><trkpt lat="44.1784883" lon="10.9807272"><ele>326.0</ele><time>2026-04-06T09:59:58.923Z</time></trkpt><trkpt lat="44.1783284" lon="10.9805964"><ele>326.6666666666667</ele><time>2026-04-06T09:59:59.92Z</time></trkpt><trkpt lat="44.1781779" lon="10.9804664"><ele>327.3333333333333</ele><time>2026-04-06T10:00:00.913Z</time></trkpt><trkpt lat="44.1780236" lon="10.9803474"><ele>328.0</ele><time>2026-04-06T10:00:01.915Z</time></trkpt><trkpt lat="44.1778646" lon="10.9802388"><ele>328.0</ele><time>2026-04-06T10:00:02.914Z</time></trkpt><trkpt lat="44.1777007" lon="10.9801451"><ele>328.0</ele><time>2026-04-06T10:00:03.918Z</time></trkpt><trkpt lat="44.1775407" lon="10.9800646"><ele>328.0</ele><time>2026-04-06T10:00:04.913Z</time></trkpt><trkpt lat="44.1773761" lon="10.9799906"><ele>327.0</ele><time>2026-04-06T10:00:05.925Z</time></trkpt><trkpt lat="44.1772102" lon="10.9799155"><ele>326.0</ele><time>2026-04-06T10:00:06.92Z</time></trkpt><trkpt lat="44.177034" lon="10.9798561"><ele>325.0</ele><time>2026-04-06T10:00:07.915Z</time></trkpt><trkpt lat="44.1768653" lon="10.9798046"><ele>325.0</ele><time>2026-04-06T10:00:08.915Z</time></trkpt><trkpt lat="44.176694" lon="10.9797759"><ele>325.0</ele><time>2026-04-06T10:00:09.919Z</time></trkpt><trkpt lat="44.1765156" lon="10.9797568"><ele>325.0</ele><time>2026-04-06T10:00:10.913Z</time></trkpt><trkpt lat="44.1763399" lon="10.9797439"><ele>324.66666666666663</ele><time>2026-04-06T10:00:11.916Z</time></trkpt><trkpt lat="44.1761669" lon="10.9797301"><ele>324.3333333333333</ele><time>2026-04-06T10:00:12.914Z</time></trkpt><trkpt lat="44.1759924" lon="10.9797211"><ele>324.0</ele><time>2026-04-06T10:00:13.917Z</time></trkpt><trkpt lat="44.1758145" lon="10.9797108"><ele>324.3333333333333</ele><time>2026-04-06T10:00:14.916Z</time></trkpt><trkpt lat="44.1756401" lon="10.979694"><ele>324.66666666666663</ele><time>2026-04-06T10:00:15.921Z</time></trkpt><trkpt lat="44.175466" lon="10.9796736"><ele>325.0</ele><time>2026-04-06T10:00:16.918Z</time></trkpt><trkpt lat="44.1752881" lon="10.9796626"><ele>325.0</ele><time>2026-04-06T10:00:17.92Z</time></trkpt><trkpt lat="44.175108" lon="10.979664"><ele>325.0</ele><time>2026-04-06T10:00:18.915Z</time></trkpt><trkpt lat="44.1749267" lon="10.9796531"><ele>325.0</ele><time>2026-04-06T10:00:19.927Z</time></trkpt><trkpt lat="44.1747464" lon="10.97963"><ele>325.0</ele><time>2026-04-06T10:00:20.914Z</time></trkpt><trkpt lat="44.1745618" lon="10.9796174"><ele>325.0</ele><time>2026-04-06T10:00:21.92Z</time></trkpt><trkpt lat="44.1743808" lon="10.9796118"><ele>325.0</ele><time>2026-04-06T10:00:22.917Z</time></trkpt><trkpt lat="44.1741932" lon="10.9795994"><ele>325.66666666666663</ele><time>2026-04-06T10:00:23.917Z</time></trkpt><trkpt lat="44.174002" lon="10.9796034"><ele>326.3333333333333</ele><time>2026-04-06T10:00:24.926Z</time></trkpt><trkpt lat="44.1738218" lon="10.9795843"><ele>327.0</ele><time>2026-04-06T10:00:25.917Z</time></trkpt><trkpt lat="44.1736388" lon="10.9795577"><ele>327.0</ele><time>2026-04-06T10:00:26.919Z</time></trkpt><trkpt lat="44.1734491" lon="10.9795346"><ele>327.0</ele><time>2026-04-06T10:00:27.919Z</time></trkpt><trkpt lat="44.1732669" lon="10.9795079"><ele>327.0</ele><time>2026-04-06T10:00:28.917Z</time></trkpt><trkpt lat="44.1730797" lon="10.9794678"><ele>327.6666666666667</ele><time>2026-04-06T10:00:29.913Z</time></trkpt><trkpt lat="44.1728933" lon="10.9794045"><ele>328.33333333333337</ele><time>2026-04-06T10:00:30.917Z</time></trkpt><trkpt lat="44.1727077" lon="10.9793416"><ele>329.0</ele><time>2026-04-06T10:00:31.912Z</time></trkpt><trkpt lat="44.1725055" lon="10.9792568"><ele>328.5</ele><time>2026-04-06T10:00:32.925Z</time></trkpt><trkpt lat="44.1722973" lon="10.9791708"><ele>328.0</ele><time>2026-04-06T10:00:33.92Z</time></trkpt><trkpt lat="44.1720753" lon="10.9790674"><ele>328.0</ele><time>2026-04-06T10:00:34.922Z</time></trkpt><trkpt lat="44.1718423" lon="10.9789443"><ele>328.0</ele><time>2026-04-06T10:00:35.925Z</time></trkpt><trkpt lat="44.1716021" lon="10.9788093"><ele>329.0</ele><time>2026-04-06T10:00:36.913Z</time></trkpt><trkpt lat="44.171352" lon="10.9786699"><ele>330.0</ele><time>2026-04-06T10:00:37.942Z</time></trkpt><trkpt lat="44.1711174" lon="10.9785382"><ele>330.0</ele><time>2026-04-06T10:00:38.923Z</time></trkpt><trkpt lat="44.1708819" lon="10.9784136"><ele>330.0</ele><time>2026-04-06T10:00:39.913Z</time></trkpt><trkpt lat="44.1706497" lon="10.9782969"><ele>330.5</ele><time>2026-04-06T10:00:40.928Z</time></trkpt><trkpt lat="44.1704264" lon="10.9781819"><ele>331.0</ele><time>2026-04-06T10:00:41.919Z</time></trkpt><trkpt lat="44.1701961" lon="10.9780694"><ele>331.0</ele><time>2026-04-06T10:00:42.911Z</time></trkpt><trkpt lat="44.1699688" lon="10.9779656"><ele>331.0</ele><time>2026-04-06T10:00:43.911Z</time></trkpt><trkpt lat="44.1697521" lon="10.9778655"><ele>330.66666666666663</ele><time>2026-04-06T10:00:44.913Z</time></trkpt><trkpt lat="44.1695476" lon="10.9777658"><ele>330.3333333333333</ele><time>2026-04-06T10:00:45.92Z</time></trkpt><trkpt lat="44.1693419" lon="10.9776686"><ele>330.0</ele><time>2026-04-06T10:00:46.914Z</time></trkpt><trkpt lat="44.1691327" lon="10.9775687"><ele>330.6666666666667</ele><time>2026-04-06T10:00:47.917Z</time></trkpt><trkpt lat="44.1689233" lon="10.977468"><ele>331.33333333333337</ele><time>2026-04-06T10:00:48.923Z</time></trkpt><trkpt lat="44.1687195" lon="10.9773675"><ele>332.0</ele><time>2026-04-06T10:00:49.919Z</time></trkpt><trkpt lat="44.1685148" lon="10.9772662"><ele>332.0</ele><time>2026-04-06T10:00:50.924Z</time></trkpt><trkpt lat="44.1683122" lon="10.9771651"><ele>332.0</ele><time>2026-04-06T10:00:51.919Z</time></trkpt><trkpt lat="44.1681088" lon="10.9770631"><ele>332.0</ele><time>2026-04-06T10:00:52.922Z</time></trkpt><trkpt lat="44.167907" lon="10.9769603"><ele>332.6666666666667</ele><time>2026-04-06T10:00:53.913Z</time></trkpt><trkpt lat="44.1677001" lon="10.9768582"><ele>333.3333333333333</ele><time>2026-04-06T10:00:54.926Z</time></trkpt><trkpt lat="44.1674937" lon="10.9767548"><ele>334.0</ele><time>2026-04-06T10:00:55.915Z</time></trkpt><trkpt lat="44.1672894" lon="10.9766513"><ele>334.66666666666663</ele><time>2026-04-06T10:00:56.913Z</time></trkpt><trkpt lat="44.1670841" lon="10.9765486"><ele>335.3333333333333</ele><time>2026-04-06T10:00:57.918Z</time></trkpt><trkpt lat="44.1668782" lon="10.976445"><ele>336.0</ele><time>2026-04-06T10:00:58.921Z</time></trkpt><trkpt lat="44.1666723" lon="10.9763421"><ele>336.3333333333333</ele><time>2026-04-06T10:00:59.92Z</time></trkpt><trkpt lat="44.1664664" lon="10.9762359"><ele>336.66666666666663</ele><time>2026-04-06T10:01:00.92Z</time></trkpt><trkpt lat="44.1662689" lon="10.9761359"><ele>337.0</ele><time>2026-04-06T10:01:01.912Z</time></trkpt><trkpt lat="44.1660655" lon="10.9760335"><ele>337.0</ele><time>2026-04-06T10:01:02.914Z</time></trkpt><trkpt lat="44.1658497" lon="10.9759281"><ele>337.0</ele><time>2026-04-06T10:01:03.924Z</time></trkpt><trkpt lat="44.1656592" lon="10.9758274"><ele>337.0</ele><time>2026-04-06T10:01:04.922Z</time></trkpt><trkpt lat="44.165459" lon="10.9757322"><ele>337.0</ele><time>2026-04-06T10:01:05.918Z</time></trkpt><trkpt lat="44.1652582" lon="10.9756374"><ele>337.0</ele><time>2026-04-06T10:01:06.915Z</time></trkpt><trkpt lat="44.1650583" lon="10.9755484"><ele>337.0</ele><time>2026-04-06T10:01:07.919Z</time></trkpt><trkpt lat="44.1648622" lon="10.9754504"><ele>337.0</ele><time>2026-04-06T10:01:08.917Z</time></trkpt><trkpt lat="44.1646745" lon="10.975352"><ele>337.0</ele><time>2026-04-06T10:01:09.916Z</time></trkpt><trkpt lat="44.1644739" lon="10.9752837"><ele>337.0</ele><time>2026-04-06T10:01:10.923Z</time></trkpt><trkpt lat="44.1642711" lon="10.9752305"><ele>337.0</ele><time>2026-04-06T10:01:11.916Z</time></trkpt><trkpt lat="44.1640721" lon="10.975191"><ele>337.0</ele><time>2026-04-06T10:01:12.919Z</time></trkpt><trkpt lat="44.1638701" lon="10.9751855"><ele>337.0</ele><time>2026-04-06T10:01:13.921Z</time></trkpt><trkpt lat="44.1636635" lon="10.9751963"><ele>337.66666666666663</ele><time>2026-04-06T10:01:14.916Z</time></trkpt><trkpt lat="44.1634658" lon="10.9752198"><ele>338.3333333333333</ele><time>2026-04-06T10:01:15.919Z</time></trkpt><trkpt lat="44.1632676" lon="10.9752759"><ele>339.0</ele><time>2026-04-06T10:01:16.918Z</time></trkpt><trkpt lat="44.1630732" lon="10.975362"><ele>339.3333333333333</ele><time>2026-04-06T10:01:17.922Z</time></trkpt><trkpt lat="44.1628869" lon="10.9754624"><ele>339.66666666666663</ele><time>2026-04-06T10:01:18.915Z</time></trkpt><trkpt lat="44.1627063" lon="10.9755758"><ele>340.0</ele><time>2026-04-06T10:01:19.913Z</time></trkpt><trkpt lat="44.1625314" lon="10.9757054"><ele>340.3333333333333</ele><time>2026-04-06T10:01:20.917Z</time></trkpt><trkpt lat="44.1623613" lon="10.975852"><ele>340.6666666666667</ele><time>2026-04-06T10:01:21.918Z</time></trkpt><trkpt lat="44.1621984" lon="10.9760085"><ele>341.0</ele><time>2026-04-06T10:01:22.923Z</time></trkpt><trkpt lat="44.1620448" lon="10.976185"><ele>343.6666666666667</ele><time>2026-04-06T10:01:23.922Z</time></trkpt><trkpt lat="44.1618936" lon="10.9763636"><ele>346.3333333333333</ele><time>2026-04-06T10:01:24.943Z</time></trkpt><trkpt lat="44.1617424" lon="10.9765598"><ele>349.0</ele><time>2026-04-06T10:01:25.925Z</time></trkpt><trkpt lat="44.161589" lon="10.9767551"><ele>352.0</ele><time>2026-04-06T10:01:26.915Z</time></trkpt><trkpt lat="44.1614342" lon="10.9769506"><ele>355.0</ele><time>2026-04-06T10:01:27.918Z</time></trkpt><trkpt lat="44.16128" lon="10.9771381"><ele>358.0</ele><time>2026-04-06T10:01:28.929Z</time></trkpt><trkpt lat="44.1611213" lon="10.9773353"><ele>361.0</ele><time>2026-04-06T10:01:29.911Z</time></trkpt><trkpt lat="44.1609657" lon="10.9775291"><ele>364.0</ele><time>2026-04-06T10:01:30.925Z</time></trkpt><trkpt lat="44.1608038" lon="10.9777245"><ele>367.0</ele><time>2026-04-06T10:01:31.914Z</time></trkpt><trkpt lat="44.1606386" lon="10.9779085"><ele>367.0</ele><time>2026-04-06T10:01:32.916Z</time></trkpt><trkpt lat="44.1604761" lon="10.9780913"><ele>367.0</ele><time>2026-04-06T10:01:33.916Z</time></trkpt><trkpt lat="44.160307" lon="10.9782735"><ele>367.0</ele><time>2026-04-06T10:01:34.92Z</time></trkpt><trkpt lat="44.1601421" lon="10.9784599"><ele>368.0</ele><time>2026-04-06T10:01:35.926Z</time></trkpt><trkpt lat="44.1599742" lon="10.9786425"><ele>369.0</ele><time>2026-04-06T10:01:36.925Z</time></trkpt><trkpt lat="44.1598027" lon="10.9788284"><ele>370.0</ele><time>2026-04-06T10:01:37.92Z</time></trkpt><trkpt lat="44.1596306" lon="10.9790153"><ele>372.3333333333333</ele><time>2026-04-06T10:01:38.922Z</time></trkpt><trkpt lat="44.1594606" lon="10.9791991"><ele>374.6666666666667</ele><time>2026-04-06T10:01:39.92Z</time></trkpt><trkpt lat="44.1592848" lon="10.9793806"><ele>377.0</ele><time>2026-04-06T10:01:40.915Z</time></trkpt><trkpt lat="44.1591192" lon="10.9795456"><ele>373.6666666666667</ele><time>2026-04-06T10:01:41.913Z</time></trkpt><trkpt lat="44.1589624" lon="10.9797063"><ele>370.3333333333333</ele><time>2026-04-06T10:01:42.918Z</time></trkpt><trkpt lat="44.1588016" lon="10.9798601"><ele>367.0</ele><time>2026-04-06T10:01:43.915Z</time></trkpt><trkpt lat="44.1586591" lon="10.9800095"><ele>369.66666666666663</ele><time>2026-04-06T10:01:44.913Z</time></trkpt><trkpt lat="44.1585248" lon="10.9801463"><ele>372.3333333333333</ele><time>2026-04-06T10:01:45.919Z</time></trkpt><trkpt lat="44.1583895" lon="10.9802875"><ele>375.0</ele><time>2026-04-06T10:01:46.921Z</time></trkpt><trkpt lat="44.1582585" lon="10.9804159"><ele>379.66666666666663</ele><time>2026-04-06T10:01:47.919Z</time></trkpt><trkpt lat="44.1581232" lon="10.980553"><ele>384.3333333333333</ele><time>2026-04-06T10:01:48.923Z</time></trkpt><trkpt lat="44.1579893" lon="10.9806898"><ele>389.0</ele><time>2026-04-06T10:01:49.915Z</time></trkpt><trkpt lat="44.15785" lon="10.9808266"><ele>394.3333333333333</ele><time>2026-04-06T10:01:50.918Z</time></trkpt><trkpt lat="44.1577147" lon="10.9809643"><ele>399.66666666666663</ele><time>2026-04-06T10:01:51.926Z</time></trkpt><trkpt lat="44.1575742" lon="10.9811023"><ele>405.0</ele><time>2026-04-06T10:01:52.918Z</time></trkpt><trkpt lat="44.1574348" lon="10.9812393"><ele>402.0</ele><time>2026-04-06T10:01:53.915Z</time></trkpt><trkpt lat="44.1572953" lon="10.9813761"><ele>399.0</ele><time>2026-04-06T10:01:54.914Z</time></trkpt><trkpt lat="44.1502469" lon="10.9855848"><ele>398.33333333333337</ele><time>2026-04-06T10:02:35.923Z</time></trkpt><trkpt lat="44.1500804" lon="10.9856173"><ele>397.6666666666667</ele><time>2026-04-06T10:02:36.916Z</time></trkpt><trkpt lat="44.1499114" lon="10.9856498"><ele>397.0</ele><time>2026-04-06T10:02:37.919Z</time></trkpt><trkpt lat="44.1497424" lon="10.9856831"><ele>401.5</ele><time>2026-04-06T10:02:38.923Z</time></trkpt><trkpt lat="44.149575" lon="10.9857155"><ele>406.0</ele><time>2026-04-06T10:02:39.912Z</time></trkpt><trkpt lat="44.1464827" lon="10.9858925"><ele>393.33333333333337</ele><time>2026-04-06T10:02:55.926Z</time></trkpt><trkpt lat="44.1462984" lon="10.9858066"><ele>380.6666666666667</ele><time>2026-04-06T10:02:56.919Z</time></trkpt><trkpt lat="44.1461308" lon="10.9857513"><ele>368.0</ele><time>2026-04-06T10:02:57.921Z</time></trkpt><trkpt lat="44.1459753" lon="10.985713"><ele>368.0</ele><time>2026-04-06T10:02:58.91Z</time></trkpt><trkpt lat="44.1458014" lon="10.9856904"><ele>368.0</ele><time>2026-04-06T10:02:59.926Z</time></trkpt><trkpt lat="44.145614" lon="10.9856987"><ele>368.0</ele><time>2026-04-06T10:03:00.919Z</time></trkpt><trkpt lat="44.145427" lon="10.9857095"><ele>374.0</ele><time>2026-04-06T10:03:01.914Z</time></trkpt><trkpt lat="44.1452472" lon="10.9857302"><ele>380.0</ele><time>2026-04-06T10:03:02.926Z</time></trkpt><trkpt lat="44.1450951" lon="10.9857657"><ele>386.0</ele><time>2026-04-06T10:03:03.917Z</time></trkpt><trkpt lat="44.1449503" lon="10.9858417"><ele>383.0</ele><time>2026-04-06T10:03:04.92Z</time></trkpt><trkpt lat="44.1448095" lon="10.9859212"><ele>380.0</ele><time>2026-04-06T10:03:05.918Z</time></trkpt><trkpt lat="44.1446622" lon="10.9860023"><ele>377.0</ele><time>2026-04-06T10:03:06.917Z</time></trkpt><trkpt lat="44.1445124" lon="10.9860776"><ele>377.0</ele><time>2026-04-06T10:03:07.914Z</time></trkpt><trkpt lat="44.1443821" lon="10.986144"><ele>377.0</ele><time>2026-04-06T10:03:08.92Z</time></trkpt><trkpt lat="44.1442451" lon="10.9862303"><ele>377.0</ele><time>2026-04-06T10:03:09.922Z</time></trkpt><trkpt lat="44.144114" lon="10.9863211"><ele>377.0</ele><time>2026-04-06T10:03:10.92Z</time></trkpt><trkpt lat="44.1439791" lon="10.9864286"><ele>377.0</ele><time>2026-04-06T10:03:11.917Z</time></trkpt><trkpt lat="44.1438394" lon="10.9865601"><ele>377.0</ele><time>2026-04-06T10:03:12.922Z</time></trkpt><trkpt lat="44.1437104" lon="10.9866973"><ele>377.0</ele><time>2026-04-06T10:03:13.917Z</time></trkpt><trkpt lat="44.1435856" lon="10.986822"><ele>377.0</ele><time>2026-04-06T10:03:14.914Z</time></trkpt><trkpt lat="44.143465" lon="10.9869596"><ele>377.0</ele><time>2026-04-06T10:03:15.92Z</time></trkpt><trkpt lat="44.1433542" lon="10.9870776"><ele>377.0</ele><time>2026-04-06T10:03:16.916Z</time></trkpt><trkpt lat="44.1432395" lon="10.9871725"><ele>377.0</ele><time>2026-04-06T10:03:17.92Z</time></trkpt><trkpt lat="44.1431152" lon="10.9872596"><ele>380.0</ele><time>2026-04-06T10:03:18.923Z</time></trkpt><trkpt lat="44.1429898" lon="10.9873626"><ele>383.0</ele><time>2026-04-06T10:03:19.921Z</time></trkpt><trkpt lat="44.1428568" lon="10.9874789"><ele>386.0</ele><time>2026-04-06T10:03:20.918Z</time></trkpt><trkpt lat="44.1427304" lon="10.9876106"><ele>386.0</ele><time>2026-04-06T10:03:21.923Z</time></trkpt><trkpt lat="44.1426124" lon="10.9877546"><ele>386.0</ele><time>2026-04-06T10:03:22.918Z</time></trkpt><trkpt lat="44.1424974" lon="10.9879191"><ele>386.0</ele><time>2026-04-06T10:03:23.917Z</time></trkpt><trkpt lat="44.1423921" lon="10.988101"><ele>387.3333333333333</ele><time>2026-04-06T10:03:24.916Z</time></trkpt><trkpt lat="44.1423162" lon="10.9882808"><ele>388.66666666666663</ele><time>2026-04-06T10:03:25.923Z</time></trkpt><trkpt lat="44.1422183" lon="10.9884557"><ele>390.0</ele><time>2026-04-06T10:03:26.916Z</time></trkpt><trkpt lat="44.1421269" lon="10.9886165"><ele>390.0</ele><time>2026-04-06T10:03:27.921Z</time></trkpt><trkpt lat="44.1420293" lon="10.988775"><ele>390.0</ele><time>2026-04-06T10:03:28.921Z</time></trkpt><trkpt lat="44.1419152" lon="10.9889072"><ele>390.0</ele><time>2026-04-06T10:03:29.913Z</time></trkpt><trkpt lat="44.1418091" lon="10.9890104"><ele>390.0</ele><time>2026-04-06T10:03:30.92Z</time></trkpt><trkpt lat="44.1416647" lon="10.9890929"><ele>389.33333333333337</ele><time>2026-04-06T10:03:31.923Z</time></trkpt><trkpt lat="44.1415136" lon="10.9891982"><ele>388.6666666666667</ele><time>2026-04-06T10:03:32.918Z</time></trkpt><trkpt lat="44.141348" lon="10.9893009"><ele>388.0</ele><time>2026-04-06T10:03:33.926Z</time></trkpt><trkpt lat="44.1411707" lon="10.989393"><ele>388.0</ele><time>2026-04-06T10:03:34.913Z</time></trkpt><trkpt lat="44.1409825" lon="10.9894765"><ele>388.0</ele><time>2026-04-06T10:03:35.918Z</time></trkpt><trkpt lat="44.1408088" lon="10.98956"><ele>388.0</ele><time>2026-04-06T10:03:36.918Z</time></trkpt><trkpt lat="44.1406516" lon="10.9896373"><ele>387.0</ele><time>2026-04-06T10:03:37.914Z</time></trkpt><trkpt lat="44.14052" lon="10.9897379"><ele>386.0</ele><time>2026-04-06T10:03:38.917Z</time></trkpt><trkpt lat="44.1403901" lon="10.989846"><ele>385.0</ele><time>2026-04-06T10:03:39.914Z</time></trkpt><trkpt lat="44.140261" lon="10.9899456"><ele>384.0</ele><time>2026-04-06T10:03:40.92Z</time></trkpt><trkpt lat="44.1401455" lon="10.9900454"><ele>384.0</ele><time>2026-04-06T10:03:41.922Z</time></trkpt><trkpt lat="44.1400366" lon="10.990146"><ele>384.0</ele><time>2026-04-06T10:03:42.916Z</time></trkpt><trkpt lat="44.1399231" lon="10.9902406"><ele>384.0</ele><time>2026-04-06T10:03:43.915Z</time></trkpt><trkpt lat="44.1398014" lon="10.9903268"><ele>384.0</ele><time>2026-04-06T10:03:44.914Z</time></trkpt><trkpt lat="44.1396716" lon="10.9904133"><ele>386.25</ele><time>2026-04-06T10:03:45.918Z</time></trkpt><trkpt lat="44.1395265" lon="10.9904943"><ele>388.5</ele><time>2026-04-06T10:03:46.914Z</time></trkpt><trkpt lat="44.1393991" lon="10.9905409"><ele>390.75</ele><time>2026-04-06T10:03:47.921Z</time></trkpt><trkpt lat="44.1392594" lon="10.990603"><ele>393.0</ele><time>2026-04-06T10:03:48.926Z</time></trkpt><trkpt lat="44.1391308" lon="10.9906631"><ele>394.5</ele><time>2026-04-06T10:03:49.922Z</time></trkpt><trkpt lat="44.1390082" lon="10.9907373"><ele>396.0</ele><time>2026-04-06T10:03:50.93Z</time></trkpt><trkpt lat="44.1388791" lon="10.9908269"><ele>397.5</ele><time>2026-04-06T10:03:51.914Z</time></trkpt><trkpt lat="44.1387606" lon="10.9909057"><ele>399.0</ele><time>2026-04-06T10:03:52.928Z</time></trkpt><trkpt lat="44.1386548" lon="10.9909674"><ele>393.5</ele><time>2026-04-06T10:03:53.924Z</time></trkpt><trkpt lat="44.1385434" lon="10.9909989"><ele>388.0</ele><time>2026-04-06T10:03:54.911Z</time></trkpt><trkpt lat="44.1384206" lon="10.9910067"><ele>382.5</ele><time>2026-04-06T10:03:55.922Z</time></trkpt><trkpt lat="44.1383023" lon="10.9910343"><ele>377.0</ele><time>2026-04-06T10:03:56.914Z</time></trkpt><trkpt lat="44.1381675" lon="10.9910019"><ele>377.0</ele><time>2026-04-06T10:03:57.928Z</time></trkpt><trkpt lat="44.1380509" lon="10.99086"><ele>377.0</ele><time>2026-04-06T10:03:58.914Z</time></trkpt><trkpt lat="44.137919" lon="10.9907749"><ele>377.0</ele><time>2026-04-06T10:03:59.911Z</time></trkpt><trkpt lat="44.1377962" lon="10.9907134"><ele>377.0</ele><time>2026-04-06T10:04:00.927Z</time></trkpt><trkpt lat="44.13766" lon="10.9906374"><ele>378.25</ele><time>2026-04-06T10:04:01.955Z</time></trkpt><trkpt lat="44.1375246" lon="10.9906013"><ele>379.5</ele><time>2026-04-06T10:04:02.92Z</time></trkpt><trkpt lat="44.1373944" lon="10.9905686"><ele>380.75</ele><time>2026-04-06T10:04:03.914Z</time></trkpt><trkpt lat="44.1372841" lon="10.9905485"><ele>382.0</ele><time>2026-04-06T10:04:04.909Z</time></trkpt><trkpt lat="44.1371699" lon="10.9905326"><ele>382.0</ele><time>2026-04-06T10:04:05.92Z</time></trkpt><trkpt lat="44.1370413" lon="10.990501"><ele>382.0</ele><time>2026-04-06T10:04:06.909Z</time></trkpt><trkpt lat="44.1369329" lon="10.9904613"><ele>382.0</ele><time>2026-04-06T10:04:07.909Z</time></trkpt><trkpt lat="44.1368547" lon="10.9903773"><ele>382.0</ele><time>2026-04-06T10:04:08.91Z</time></trkpt><trkpt lat="44.136768" lon="10.990351"><ele>382.0</ele><time>2026-04-06T10:04:09.909Z</time></trkpt><trkpt lat="44.1366659" lon="10.9902718"><ele>382.0</ele><time>2026-04-06T10:04:10.916Z</time></trkpt><trkpt lat="44.1365855" lon="10.9901913"><ele>382.0</ele><time>2026-04-06T10:04:11.922Z</time></trkpt><trkpt lat="44.1365058" lon="10.9901177"><ele>382.0</ele><time>2026-04-06T10:04:12.924Z</time></trkpt><trkpt lat="44.1364102" lon="10.9900543"><ele>382.0</ele><time>2026-04-06T10:04:13.909Z</time></trkpt><trkpt lat="44.1363297" lon="10.9899717"><ele>382.0</ele><time>2026-04-06T10:04:14.913Z</time></trkpt><trkpt lat="44.1362284" lon="10.9899109"><ele>384.5</ele><time>2026-04-06T10:04:15.918Z</time></trkpt><trkpt lat="44.1361119" lon="10.9898507"><ele>387.0</ele><time>2026-04-06T10:04:16.916Z</time></trkpt><trkpt lat="44.1359936" lon="10.989791"><ele>389.5</ele><time>2026-04-06T10:04:17.915Z</time></trkpt><trkpt lat="44.1359142" lon="10.9897059"><ele>392.0</ele><time>2026-04-06T10:04:18.92Z</time></trkpt><trkpt lat="44.1358108" lon="10.9896458"><ele>391.5</ele><time>2026-04-06T10:04:19.915Z</time></trkpt><trkpt lat="44.1356447" lon="10.9896115"><ele>391.0</ele><time>2026-04-06T10:04:20.909Z</time></trkpt><trkpt lat="44.1355205" lon="10.9895597"><ele>390.5</ele><time>2026-04-06T10:04:21.913Z</time></trkpt><trkpt lat="44.1354152" lon="10.9894944"><ele>390.0</ele><time>2026-04-06T10:04:22.913Z</time></trkpt><trkpt lat="44.1352886" lon="10.9894427"><ele>390.0</ele><time>2026-04-06T10:04:23.912Z</time></trkpt><trkpt lat="44.135156" lon="10.9893979"><ele>390.0</ele><time>2026-04-06T10:04:24.916Z</time></trkpt><trkpt lat="44.1350255" lon="10.9893407"><ele>390.0</ele><time>2026-04-06T10:04:25.924Z</time></trkpt><trkpt lat="44.1348945" lon="10.9892921"><ele>390.0</ele><time>2026-04-06T10:04:26.912Z</time></trkpt><trkpt lat="44.1347439" lon="10.9892679"><ele>390.0</ele><time>2026-04-06T10:04:27.912Z</time></trkpt><trkpt lat="44.1345953" lon="10.9892445"><ele>390.0</ele><time>2026-04-06T10:04:28.917Z</time></trkpt><trkpt lat="44.134448" lon="10.9892612"><ele>390.0</ele><time>2026-04-06T10:04:29.915Z</time></trkpt><trkpt lat="44.1343061" lon="10.9892739"><ele>390.0</ele><time>2026-04-06T10:04:30.914Z</time></trkpt><trkpt lat="44.1341673" lon="10.9893521"><ele>393.66666666666663</ele><time>2026-04-06T10:04:31.92Z</time></trkpt><trkpt lat="44.1340196" lon="10.9894267"><ele>397.3333333333333</ele><time>2026-04-06T10:04:32.916Z</time></trkpt><trkpt lat="44.1338699" lon="10.9895244"><ele>401.0</ele><time>2026-04-06T10:04:33.916Z</time></trkpt><trkpt lat="44.1337352" lon="10.9896052"><ele>401.0</ele><time>2026-04-06T10:04:34.915Z</time></trkpt><trkpt lat="44.1336346" lon="10.9896503"><ele>401.0</ele><time>2026-04-06T10:04:35.909Z</time></trkpt><trkpt lat="44.1335222" lon="10.9896947"><ele>401.0</ele><time>2026-04-06T10:04:36.914Z</time></trkpt><trkpt lat="44.1334124" lon="10.9897667"><ele>401.0</ele><time>2026-04-06T10:04:37.923Z</time></trkpt><trkpt lat="44.1333157" lon="10.989843"><ele>401.75</ele><time>2026-04-06T10:04:38.916Z</time></trkpt><trkpt lat="44.1332219" lon="10.9899205"><ele>402.5</ele><time>2026-04-06T10:04:39.912Z</time></trkpt><trkpt lat="44.1331162" lon="10.9900539"><ele>403.25</ele><time>2026-04-06T10:04:40.914Z</time></trkpt><trkpt lat="44.1330116" lon="10.9901757"><ele>404.0</ele><time>2026-04-06T10:04:41.917Z</time></trkpt><trkpt lat="44.1329077" lon="10.9902797"><ele>404.0</ele><time>2026-04-06T10:04:42.913Z</time></trkpt><trkpt lat="44.1328035" lon="10.9904161"><ele>404.0</ele><time>2026-04-06T10:04:43.916Z</time></trkpt><trkpt lat="44.1326772" lon="10.9905126"><ele>404.0</ele><time>2026-04-06T10:04:44.917Z</time></trkpt><trkpt lat="44.1325402" lon="10.9905836"><ele>404.0</ele><time>2026-04-06T10:04:45.916Z</time></trkpt><trkpt lat="44.1324453" lon="10.9906454"><ele>403.66666666666663</ele><time>2026-04-06T10:04:46.912Z</time></trkpt><trkpt lat="44.1323498" lon="10.9907142"><ele>403.3333333333333</ele><time>2026-04-06T10:04:47.921Z</time></trkpt><trkpt lat="44.1322711" lon="10.9907781"><ele>403.0</ele><time>2026-04-06T10:04:48.913Z</time></trkpt><trkpt lat="44.1321804" lon="10.9908196"><ele>402.66666666666663</ele><time>2026-04-06T10:04:49.91Z</time></trkpt><trkpt lat="44.132119" lon="10.990841"><ele>402.3333333333333</ele><time>2026-04-06T10:04:50.914Z</time></trkpt><trkpt lat="44.1320482" lon="10.9908407"><ele>402.0</ele><time>2026-04-06T10:04:51.912Z</time></trkpt><trkpt lat="44.131982" lon="10.9908448"><ele>402.0</ele><time>2026-04-06T10:04:54.916Z</time></trkpt><trkpt lat="44.1319235" lon="10.9908897"><ele>402.0</ele><time>2026-04-06T10:05:05.918Z</time></trkpt><trkpt lat="44.1318603" lon="10.9909306"><ele>402.0</ele><time>2026-04-06T10:05:08.914Z</time></trkpt><trkpt lat="44.1316009" lon="10.9910548"><ele>402.0</ele><time>2026-04-06T10:05:11.919Z</time></trkpt><trkpt lat="44.1315108" lon="10.9910738"><ele>402.0</ele><time>2026-04-06T10:05:12.914Z</time></trkpt><trkpt lat="44.1313447" lon="10.9911326"><ele>402.0</ele><time>2026-04-06T10:05:14.922Z</time></trkpt><trkpt lat="44.1312368" lon="10.9911764"><ele>402.0</ele><time>2026-04-06T10:05:15.915Z</time></trkpt><trkpt lat="44.1311418" lon="10.9911877"><ele>402.0</ele><time>2026-04-06T10:05:16.923Z</time></trkpt><trkpt lat="44.1310124" lon="10.9912106"><ele>402.0</ele><time>2026-04-06T10:05:17.918Z</time></trkpt><trkpt lat="44.1309014" lon="10.9912377"><ele>402.0</ele><time>2026-04-06T10:05:18.913Z</time></trkpt><trkpt lat="44.1307738" lon="10.9912682"><ele>402.0</ele><time>2026-04-06T10:05:19.916Z</time></trkpt><trkpt lat="44.1306509" lon="10.9912896"><ele>402.0</ele><time>2026-04-06T10:05:20.914Z</time></trkpt><trkpt lat="44.1305387" lon="10.991315"><ele>402.6</ele><time>2026-04-06T10:05:21.915Z</time></trkpt><trkpt lat="44.1304269" lon="10.9913527"><ele>403.20000000000005</ele><time>2026-04-06T10:05:22.923Z</time></trkpt><trkpt lat="44.1303072" lon="10.9913726"><ele>403.8</ele><time>2026-04-06T10:05:23.919Z</time></trkpt><trkpt lat="44.1302156" lon="10.9914125"><ele>404.4</ele><time>2026-04-06T10:05:24.912Z</time></trkpt><trkpt lat="44.1301179" lon="10.9914446"><ele>405.0</ele><time>2026-04-06T10:05:25.915Z</time></trkpt><trkpt lat="44.1300228" lon="10.9914643"><ele>405.0</ele><time>2026-04-06T10:05:26.913Z</time></trkpt><trkpt lat="44.1299376" lon="10.9914817"><ele>405.0</ele><time>2026-04-06T10:05:27.915Z</time></trkpt><trkpt lat="44.1298774" lon="10.9915252"><ele>405.0</ele><time>2026-04-06T10:05:28.918Z</time></trkpt><trkpt lat="44.1297892" lon="10.9915512"><ele>405.0</ele><time>2026-04-06T10:05:29.919Z</time></trkpt><trkpt lat="44.129707" lon="10.9915767"><ele>405.0</ele><time>2026-04-06T10:05:30.918Z</time></trkpt><trkpt lat="44.1296243" lon="10.9915896"><ele>405.0</ele><time>2026-04-06T10:05:31.913Z</time></trkpt><trkpt lat="44.1295524" lon="10.9916066"><ele>404.5</ele><time>2026-04-06T10:05:32.919Z</time></trkpt><trkpt lat="44.1294714" lon="10.9916274"><ele>404.0</ele><time>2026-04-06T10:05:33.914Z</time></trkpt><trkpt lat="44.129406" lon="10.9916472"><ele>403.5</ele><time>2026-04-06T10:05:34.916Z</time></trkpt><trkpt lat="44.1293256" lon="10.9916713"><ele>403.0</ele><time>2026-04-06T10:05:36.918Z</time></trkpt><trkpt lat="44.1292368" lon="10.9916358"><ele>402.5</ele><time>2026-04-06T10:05:39.914Z</time></trkpt><trkpt lat="44.1291179" lon="10.9916693"><ele>402.0</ele><time>2026-04-06T10:05:41.919Z</time></trkpt><trkpt lat="44.1290433" lon="10.9917036"><ele>402.0</ele><time>2026-04-06T10:05:42.914Z</time></trkpt><trkpt lat="44.1289589" lon="10.99175"><ele>402.0</ele><time>2026-04-06T10:05:43.915Z</time></trkpt><trkpt lat="44.1288657" lon="10.9917899"><ele>402.0</ele><time>2026-04-06T10:05:44.918Z</time></trkpt><trkpt lat="44.1287655" lon="10.9918035"><ele>402.0</ele><time>2026-04-06T10:05:45.913Z</time></trkpt><trkpt lat="44.1286483" lon="10.9918151"><ele>402.0</ele><time>2026-04-06T10:05:46.912Z</time></trkpt><trkpt lat="44.1285293" lon="10.9918529"><ele>402.0</ele><time>2026-04-06T10:05:47.917Z</time></trkpt><trkpt lat="44.1284071" lon="10.9918813"><ele>402.0</ele><time>2026-04-06T10:05:48.919Z</time></trkpt><trkpt lat="44.1282928" lon="10.991917"><ele>402.0</ele><time>2026-04-06T10:05:49.915Z</time></trkpt><trkpt lat="44.1282087" lon="10.992005"><ele>402.0</ele><time>2026-04-06T10:05:50.912Z</time></trkpt><trkpt lat="44.1281385" lon="10.9920693"><ele>402.0</ele><time>2026-04-06T10:05:51.916Z</time></trkpt><trkpt lat="44.1280741" lon="10.9921925"><ele>406.75</ele><time>2026-04-06T10:05:52.915Z</time></trkpt><trkpt lat="44.1280407" lon="10.9923195"><ele>411.5</ele><time>2026-04-06T10:05:53.915Z</time></trkpt><trkpt lat="44.1280969" lon="10.9924929"><ele>416.25</ele><time>2026-04-06T10:05:54.92Z</time></trkpt><trkpt lat="44.1281155" lon="10.9926674"><ele>421.0</ele><time>2026-04-06T10:05:55.915Z</time></trkpt><trkpt lat="44.128129" lon="10.9928349"><ele>421.0</ele><time>2026-04-06T10:05:56.918Z</time></trkpt><trkpt lat="44.1281357" lon="10.9930241"><ele>421.0</ele><time>2026-04-06T10:05:57.918Z</time></trkpt><trkpt lat="44.1281262" lon="10.993192"><ele>421.0</ele><time>2026-04-06T10:05:58.92Z</time></trkpt><trkpt lat="44.1280876" lon="10.9933492"><ele>421.0</ele><time>2026-04-06T10:05:59.916Z</time></trkpt><trkpt lat="44.1280458" lon="10.9935244"><ele>422.75</ele><time>2026-04-06T10:06:00.915Z</time></trkpt><trkpt lat="44.1279734" lon="10.9937145"><ele>424.5</ele><time>2026-04-06T10:06:01.916Z</time></trkpt><trkpt lat="44.1279141" lon="10.9938767"><ele>426.25</ele><time>2026-04-06T10:06:02.917Z</time></trkpt><trkpt lat="44.1278716" lon="10.994031"><ele>428.0</ele><time>2026-04-06T10:06:03.919Z</time></trkpt><trkpt lat="44.1278597" lon="10.9941823"><ele>430.0</ele><time>2026-04-06T10:06:04.916Z</time></trkpt><trkpt lat="44.1278334" lon="10.9943417"><ele>432.0</ele><time>2026-04-06T10:06:05.914Z</time></trkpt><trkpt lat="44.1278591" lon="10.9945288"><ele>434.0</ele><time>2026-04-06T10:06:06.91Z</time></trkpt><trkpt lat="44.1278972" lon="10.9947385"><ele>436.0</ele><time>2026-04-06T10:06:07.912Z</time></trkpt><trkpt lat="44.1279545" lon="10.994927"><ele>436.6666666666667</ele><time>2026-04-06T10:06:08.913Z</time></trkpt><trkpt lat="44.127995" lon="10.9951392"><ele>437.33333333333337</ele><time>2026-04-06T10:06:09.915Z</time></trkpt><trkpt lat="44.1280179" lon="10.9953491"><ele>438.0</ele><time>2026-04-06T10:06:10.917Z</time></trkpt><trkpt lat="44.1280547" lon="10.9955408"><ele>438.0</ele><time>2026-04-06T10:06:11.915Z</time></trkpt><trkpt lat="44.1280823" lon="10.9957207"><ele>438.0</ele><time>2026-04-06T10:06:12.92Z</time></trkpt><trkpt lat="44.1280931" lon="10.9958887"><ele>438.0</ele><time>2026-04-06T10:06:13.918Z</time></trkpt><trkpt lat="44.1280914" lon="10.9960562"><ele>438.0</ele><time>2026-04-06T10:06:14.914Z</time></trkpt><trkpt lat="44.1280758" lon="10.9962263"><ele>435.0</ele><time>2026-04-06T10:06:15.915Z</time></trkpt><trkpt lat="44.128038" lon="10.9963925"><ele>432.0</ele><time>2026-04-06T10:06:16.916Z</time></trkpt><trkpt lat="44.1278894" lon="10.9965498"><ele>429.0</ele><time>2026-04-06T10:06:17.921Z</time></trkpt><trkpt lat="44.1277734" lon="10.9967054"><ele>430.75</ele><time>2026-04-06T10:06:18.915Z</time></trkpt><trkpt lat="44.1276938" lon="10.9968216"><ele>432.5</ele><time>2026-04-06T10:06:19.917Z</time></trkpt><trkpt lat="44.1275856" lon="10.9969592"><ele>434.25</ele><time>2026-04-06T10:06:20.916Z</time></trkpt><trkpt lat="44.1274589" lon="10.9970705"><ele>436.0</ele><time>2026-04-06T10:06:21.919Z</time></trkpt><trkpt lat="44.1273395" lon="10.9971774"><ele>436.0</ele><time>2026-04-06T10:06:22.917Z</time></trkpt><trkpt lat="44.1272099" lon="10.9972764"><ele>436.0</ele><time>2026-04-06T10:06:23.92Z</time></trkpt><trkpt lat="44.1270787" lon="10.9974011"><ele>436.0</ele><time>2026-04-06T10:06:24.916Z</time></trkpt><trkpt lat="44.1269528" lon="10.9975204"><ele>432.0</ele><time>2026-04-06T10:06:25.913Z</time></trkpt><trkpt lat="44.1268254" lon="10.9976311"><ele>428.0</ele><time>2026-04-06T10:06:26.915Z</time></trkpt><trkpt lat="44.1267035" lon="10.9977238"><ele>424.0</ele><time>2026-04-06T10:06:27.916Z</time></trkpt><trkpt lat="44.1265405" lon="10.9978041"><ele>432.0</ele><time>2026-04-06T10:06:28.92Z</time></trkpt><trkpt lat="44.1263892" lon="10.9979098"><ele>440.0</ele><time>2026-04-06T10:06:29.911Z</time></trkpt><trkpt lat="44.126253" lon="10.9980436"><ele>448.0</ele><time>2026-04-06T10:06:30.915Z</time></trkpt><trkpt lat="44.1261076" lon="10.9982928"><ele>443.33333333333337</ele><time>2026-04-06T10:06:31.917Z</time></trkpt><trkpt lat="44.125952" lon="10.9984699"><ele>438.66666666666663</ele><time>2026-04-06T10:06:32.919Z</time></trkpt><trkpt lat="44.1258006" lon="10.9986348"><ele>434.0</ele><time>2026-04-06T10:06:33.917Z</time></trkpt><trkpt lat="44.1256541" lon="10.9987766"><ele>441.66666666666663</ele><time>2026-04-06T10:06:34.918Z</time></trkpt><trkpt lat="44.1255355" lon="10.998933"><ele>449.33333333333337</ele><time>2026-04-06T10:06:35.921Z</time></trkpt><trkpt lat="44.1255705" lon="10.9991517"><ele>457.0</ele><time>2026-04-06T10:06:36.915Z</time></trkpt><trkpt lat="44.1255078" lon="10.9993293"><ele>457.0</ele><time>2026-04-06T10:06:37.923Z</time></trkpt><trkpt lat="44.1253799" lon="10.9995213"><ele>457.0</ele><time>2026-04-06T10:06:38.913Z</time></trkpt><trkpt lat="44.1252883" lon="10.9997134"><ele>457.0</ele><time>2026-04-06T10:06:39.916Z</time></trkpt><trkpt lat="44.1251748" lon="10.9998789"><ele>457.0</ele><time>2026-04-06T10:06:40.913Z</time></trkpt><trkpt lat="44.1250368" lon="11.0000401"><ele>457.0</ele><time>2026-04-06T10:06:41.922Z</time></trkpt><trkpt lat="44.1249177" lon="11.0002056"><ele>457.0</ele><time>2026-04-06T10:06:42.917Z</time></trkpt><trkpt lat="44.1248431" lon="11.0003628"><ele>461.75</ele><time>2026-04-06T10:06:43.914Z</time></trkpt><trkpt lat="44.1247534" lon="11.0005127"><ele>466.5</ele><time>2026-04-06T10:06:44.915Z</time></trkpt><trkpt lat="44.1246835" lon="11.000679"><ele>471.25</ele><time>2026-04-06T10:06:45.93Z</time></trkpt><trkpt lat="44.1246328" lon="11.000852"><ele>476.0</ele><time>2026-04-06T10:06:46.921Z</time></trkpt><trkpt lat="44.1245598" lon="11.0009769"><ele>476.0</ele><time>2026-04-06T10:06:47.913Z</time></trkpt><trkpt lat="44.1245002" lon="11.0011041"><ele>476.0</ele><time>2026-04-06T10:06:48.914Z</time></trkpt><trkpt lat="44.1244221" lon="11.0011619"><ele>476.0</ele><time>2026-04-06T10:06:49.912Z</time></trkpt><trkpt lat="44.1243305" lon="11.0012329"><ele>476.0</ele><time>2026-04-06T10:06:50.915Z</time></trkpt><trkpt lat="44.1242004" lon="11.0013201"><ele>476.0</ele><time>2026-04-06T10:06:51.913Z</time></trkpt><trkpt lat="44.1241045" lon="11.0014189"><ele>474.75</ele><time>2026-04-06T10:06:52.918Z</time></trkpt><trkpt lat="44.1240363" lon="11.0015677"><ele>473.5</ele><time>2026-04-06T10:06:53.914Z</time></trkpt><trkpt lat="44.1239686" lon="11.0017076"><ele>472.25</ele><time>2026-04-06T10:06:54.914Z</time></trkpt><trkpt lat="44.1239278" lon="11.001875"><ele>471.0</ele><time>2026-04-06T10:06:55.919Z</time></trkpt><trkpt lat="44.1238191" lon="11.0020097"><ele>471.0</ele><time>2026-04-06T10:06:57.919Z</time></trkpt><trkpt lat="44.1237305" lon="11.0020661"><ele>471.0</ele><time>2026-04-06T10:06:58.914Z</time></trkpt><trkpt lat="44.1236379" lon="11.0021269"><ele>471.0</ele><time>2026-04-06T10:06:59.914Z</time></trkpt><trkpt lat="44.1235305" lon="11.0021057"><ele>471.0</ele><time>2026-04-06T10:07:00.917Z</time></trkpt><trkpt lat="44.1234021" lon="11.0021001"><ele>471.0</ele><time>2026-04-06T10:07:01.914Z</time></trkpt><trkpt lat="44.1232916" lon="11.0020764"><ele>471.20000000000005</ele><time>2026-04-06T10:07:02.912Z</time></trkpt><trkpt lat="44.1231719" lon="11.0020572"><ele>471.40000000000003</ele><time>2026-04-06T10:07:03.911Z</time></trkpt><trkpt lat="44.1230689" lon="11.0020415"><ele>471.6</ele><time>2026-04-06T10:07:04.918Z</time></trkpt><trkpt lat="44.1229632" lon="11.002012"><ele>471.8</ele><time>2026-04-06T10:07:05.92Z</time></trkpt><trkpt lat="44.1228678" lon="11.0019624"><ele>472.0</ele><time>2026-04-06T10:07:06.915Z</time></trkpt><trkpt lat="44.1227788" lon="11.0019017"><ele>472.0</ele><time>2026-04-06T10:07:07.915Z</time></trkpt><trkpt lat="44.1226783" lon="11.0018667"><ele>472.00000000000006</ele><time>2026-04-06T10:07:08.918Z</time></trkpt><trkpt lat="44.1226017" lon="11.0018249"><ele>472.00000000000006</ele><time>2026-04-06T10:07:09.917Z</time></trkpt><trkpt lat="44.1225089" lon="11.0018186"><ele>472.0</ele><time>2026-04-06T10:07:10.922Z</time></trkpt><trkpt lat="44.1224177" lon="11.0018483"><ele>472.0</ele><time>2026-04-06T10:07:11.92Z</time></trkpt><trkpt lat="44.1223349" lon="11.0018875"><ele>473.75</ele><time>2026-04-06T10:07:12.92Z</time></trkpt><trkpt lat="44.122247" lon="11.0019727"><ele>475.5</ele><time>2026-04-06T10:07:13.913Z</time></trkpt><trkpt lat="44.1221518" lon="11.0020144"><ele>477.25</ele><time>2026-04-06T10:07:14.915Z</time></trkpt><trkpt lat="44.1220454" lon="11.0021012"><ele>479.0</ele><time>2026-04-06T10:07:15.913Z</time></trkpt><trkpt lat="44.1219214" lon="11.0021872"><ele>479.0</ele><time>2026-04-06T10:07:16.917Z</time></trkpt><trkpt lat="44.1217992" lon="11.0022793"><ele>479.0</ele><time>2026-04-06T10:07:17.909Z</time></trkpt><trkpt lat="44.1217025" lon="11.0023372"><ele>479.0</ele><time>2026-04-06T10:07:18.914Z</time></trkpt><trkpt lat="44.121601" lon="11.0024124"><ele>479.0</ele><time>2026-04-06T10:07:19.913Z</time></trkpt><trkpt lat="44.1215162" lon="11.0024717"><ele>477.8333333333333</ele><time>2026-04-06T10:07:20.917Z</time></trkpt><trkpt lat="44.1214402" lon="11.0025308"><ele>476.66666666666663</ele><time>2026-04-06T10:07:21.915Z</time></trkpt><trkpt lat="44.1213608" lon="11.0025856"><ele>475.5</ele><time>2026-04-06T10:07:22.915Z</time></trkpt><trkpt lat="44.1212633" lon="11.0026138"><ele>474.33333333333337</ele><time>2026-04-06T10:07:23.916Z</time></trkpt><trkpt lat="44.1211947" lon="11.0026329"><ele>473.1666666666667</ele><time>2026-04-06T10:07:24.915Z</time></trkpt><trkpt lat="44.1211189" lon="11.0026178"><ele>472.0</ele><time>2026-04-06T10:07:25.913Z</time></trkpt><trkpt lat="44.1209946" lon="11.0025609"><ele>472.00000000000006</ele><time>2026-04-06T10:07:26.913Z</time></trkpt><trkpt lat="44.120919" lon="11.0025038"><ele>472.0</ele><time>2026-04-06T10:07:27.916Z</time></trkpt><trkpt lat="44.1208505" lon="11.0024436"><ele>472.0</ele><time>2026-04-06T10:07:28.916Z</time></trkpt><trkpt lat="44.1207754" lon="11.0024339"><ele>472.0</ele><time>2026-04-06T10:07:29.913Z</time></trkpt><trkpt lat="44.1206838" lon="11.002444"><ele>472.00000000000006</ele><time>2026-04-06T10:07:30.913Z</time></trkpt><trkpt lat="44.1206008" lon="11.0024524"><ele>472.0</ele><time>2026-04-06T10:07:31.916Z</time></trkpt><trkpt lat="44.1205136" lon="11.002479"><ele>474.0</ele><time>2026-04-06T10:07:32.923Z</time></trkpt><trkpt lat="44.1204183" lon="11.0024941"><ele>476.00000000000006</ele><time>2026-04-06T10:07:33.916Z</time></trkpt><trkpt lat="44.1203207" lon="11.0025312"><ele>478.00000000000006</ele><time>2026-04-06T10:07:34.913Z</time></trkpt><trkpt lat="44.1202167" lon="11.0025834"><ele>480.0</ele><time>2026-04-06T10:07:35.915Z</time></trkpt><trkpt lat="44.1201083" lon="11.002605"><ele>482.0</ele><time>2026-04-06T10:07:36.922Z</time></trkpt><trkpt lat="44.1200115" lon="11.0026156"><ele>481.75</ele><time>2026-04-06T10:07:37.921Z</time></trkpt><trkpt lat="44.1198862" lon="11.0025648"><ele>481.5</ele><time>2026-04-06T10:07:38.909Z</time></trkpt><trkpt lat="44.1197768" lon="11.0024651"><ele>481.25</ele><time>2026-04-06T10:07:39.913Z</time></trkpt><trkpt lat="44.1196597" lon="11.0024271"><ele>481.0</ele><time>2026-04-06T10:07:40.92Z</time></trkpt><trkpt lat="44.1195233" lon="11.0023857"><ele>485.0</ele><time>2026-04-06T10:07:41.917Z</time></trkpt><trkpt lat="44.1194047" lon="11.0023678"><ele>489.0</ele><time>2026-04-06T10:07:42.918Z</time></trkpt><trkpt lat="44.1193011" lon="11.0023783"><ele>493.0</ele><time>2026-04-06T10:07:43.917Z</time></trkpt><trkpt lat="44.1191862" lon="11.0023928"><ele>497.0</ele><time>2026-04-06T10:07:44.914Z</time></trkpt><trkpt lat="44.1190917" lon="11.0024233"><ele>501.0</ele><time>2026-04-06T10:07:45.916Z</time></trkpt><trkpt lat="44.1189828" lon="11.0025236"><ele>501.0</ele><time>2026-04-06T10:07:46.913Z</time></trkpt><trkpt lat="44.1189007" lon="11.0025754"><ele>501.0</ele><time>2026-04-06T10:07:47.915Z</time></trkpt><trkpt lat="44.1188113" lon="11.0025938"><ele>501.0</ele><time>2026-04-06T10:07:48.917Z</time></trkpt><trkpt lat="44.118705" lon="11.002618"><ele>501.0</ele><time>2026-04-06T10:07:49.913Z</time></trkpt><trkpt lat="44.1185801" lon="11.0025969"><ele>501.0</ele><time>2026-04-06T10:07:50.914Z</time></trkpt><trkpt lat="44.1184697" lon="11.0025509"><ele>501.0</ele><time>2026-04-06T10:07:51.918Z</time></trkpt><trkpt lat="44.1183771" lon="11.0025048"><ele>501.0</ele><time>2026-04-06T10:07:52.914Z</time></trkpt><trkpt lat="44.1182748" lon="11.002497"><ele>501.0</ele><time>2026-04-06T10:07:53.916Z</time></trkpt><trkpt lat="44.1181324" lon="11.0025052"><ele>501.0</ele><time>2026-04-06T10:07:54.917Z</time></trkpt><trkpt lat="44.1180102" lon="11.0025607"><ele>507.0</ele><time>2026-04-06T10:07:55.921Z</time></trkpt><trkpt lat="44.1178957" lon="11.0026022"><ele>513.0</ele><time>2026-04-06T10:07:56.914Z</time></trkpt><trkpt lat="44.1177788" lon="11.0027141"><ele>519.0</ele><time>2026-04-06T10:07:57.916Z</time></trkpt><trkpt lat="44.1176592" lon="11.0028017"><ele>525.0</ele><time>2026-04-06T10:07:58.919Z</time></trkpt><trkpt lat="44.1175123" lon="11.0029898"><ele>523.75</ele><time>2026-04-06T10:07:59.917Z</time></trkpt><trkpt lat="44.1174003" lon="11.0030765"><ele>522.5</ele><time>2026-04-06T10:08:00.921Z</time></trkpt><trkpt lat="44.117247" lon="11.0031949"><ele>521.25</ele><time>2026-04-06T10:08:01.917Z</time></trkpt><trkpt lat="44.1171396" lon="11.0032627"><ele>520.0</ele><time>2026-04-06T10:08:02.915Z</time></trkpt><trkpt lat="44.1170365" lon="11.0033412"><ele>520.0</ele><time>2026-04-06T10:08:03.93Z</time></trkpt><trkpt lat="44.1169268" lon="11.0034323"><ele>520.0</ele><time>2026-04-06T10:08:04.917Z</time></trkpt><trkpt lat="44.116819" lon="11.0034967"><ele>520.0</ele><time>2026-04-06T10:08:05.919Z</time></trkpt><trkpt lat="44.116712" lon="11.0035841"><ele>520.0</ele><time>2026-04-06T10:08:06.915Z</time></trkpt><trkpt lat="44.1165967" lon="11.0036754"><ele>523.5</ele><time>2026-04-06T10:08:07.915Z</time></trkpt><trkpt lat="44.1164815" lon="11.0037674"><ele>527.0</ele><time>2026-04-06T10:08:08.921Z</time></trkpt><trkpt lat="44.116371" lon="11.0038187"><ele>530.5</ele><time>2026-04-06T10:08:09.915Z</time></trkpt><trkpt lat="44.1162857" lon="11.003894"><ele>534.0</ele><time>2026-04-06T10:08:10.926Z</time></trkpt><trkpt lat="44.116192" lon="11.0039692"><ele>534.0</ele><time>2026-04-06T10:08:11.917Z</time></trkpt><trkpt lat="44.116094" lon="11.0040051"><ele>534.0</ele><time>2026-04-06T10:08:12.917Z</time></trkpt><trkpt lat="44.1159788" lon="11.0040132"><ele>534.0</ele><time>2026-04-06T10:08:13.912Z</time></trkpt><trkpt lat="44.1158449" lon="11.0040034"><ele>534.0</ele><time>2026-04-06T10:08:14.916Z</time></trkpt><trkpt lat="44.1157249" lon="11.0039989"><ele>530.0</ele><time>2026-04-06T10:08:15.917Z</time></trkpt><trkpt lat="44.1156064" lon="11.0039626"><ele>526.0</ele><time>2026-04-06T10:08:16.92Z</time></trkpt><trkpt lat="44.1154855" lon="11.0039688"><ele>522.0</ele><time>2026-04-06T10:08:17.917Z</time></trkpt><trkpt lat="44.1153665" lon="11.0039494"><ele>518.0</ele><time>2026-04-06T10:08:18.916Z</time></trkpt><trkpt lat="44.1152211" lon="11.0039166"><ele>518.0</ele><time>2026-04-06T10:08:19.92Z</time></trkpt><trkpt lat="44.1150779" lon="11.0038604"><ele>518.0</ele><time>2026-04-06T10:08:20.916Z</time></trkpt><trkpt lat="44.1149098" lon="11.0037505"><ele>518.0</ele><time>2026-04-06T10:08:21.922Z</time></trkpt><trkpt lat="44.1147277" lon="11.003673"><ele>522.0</ele><time>2026-04-06T10:08:22.916Z</time></trkpt><trkpt lat="44.1145359" lon="11.0035655"><ele>526.0</ele><time>2026-04-06T10:08:23.91Z</time></trkpt><trkpt lat="44.1143499" lon="11.0034055"><ele>530.0</ele><time>2026-04-06T10:08:24.913Z</time></trkpt><trkpt lat="44.1141528" lon="11.0033031"><ele>520.0</ele><time>2026-04-06T10:08:25.913Z</time></trkpt><trkpt lat="44.1139884" lon="11.003164"><ele>510.0</ele><time>2026-04-06T10:08:26.914Z</time></trkpt><trkpt lat="44.1138146" lon="11.0030208"><ele>500.0</ele><time>2026-04-06T10:08:27.912Z</time></trkpt><trkpt lat="44.113677" lon="11.0028864"><ele>500.0</ele><time>2026-04-06T10:08:28.913Z</time></trkpt><trkpt lat="44.1134979" lon="11.0028004"><ele>500.0</ele><time>2026-04-06T10:08:29.912Z</time></trkpt><trkpt lat="44.1133595" lon="11.0026606"><ele>500.0</ele><time>2026-04-06T10:08:30.914Z</time></trkpt><trkpt lat="44.1131931" lon="11.0025617"><ele>499.0</ele><time>2026-04-06T10:08:31.913Z</time></trkpt><trkpt lat="44.1130817" lon="11.0024142"><ele>498.0</ele><time>2026-04-06T10:08:32.929Z</time></trkpt><trkpt lat="44.1129762" lon="11.0022642"><ele>497.0</ele><time>2026-04-06T10:08:33.918Z</time></trkpt><trkpt lat="44.1128824" lon="11.0021126"><ele>496.0</ele><time>2026-04-06T10:08:34.913Z</time></trkpt><trkpt lat="44.1127768" lon="11.0019719"><ele>496.0</ele><time>2026-04-06T10:08:35.914Z</time></trkpt><trkpt lat="44.1126691" lon="11.0018173"><ele>496.0</ele><time>2026-04-06T10:08:36.918Z</time></trkpt><trkpt lat="44.11257" lon="11.0016581"><ele>496.0</ele><time>2026-04-06T10:08:37.916Z</time></trkpt><trkpt lat="44.1124583" lon="11.0015105"><ele>503.25</ele><time>2026-04-06T10:08:38.919Z</time></trkpt><trkpt lat="44.1123498" lon="11.0013762"><ele>510.5</ele><time>2026-04-06T10:08:39.917Z</time></trkpt><trkpt lat="44.1122394" lon="11.0012331"><ele>517.75</ele><time>2026-04-06T10:08:40.917Z</time></trkpt><trkpt lat="44.1121282" lon="11.0011083"><ele>525.0</ele><time>2026-04-06T10:08:41.916Z</time></trkpt><trkpt lat="44.1119785" lon="11.0010222"><ele>525.0</ele><time>2026-04-06T10:08:42.917Z</time></trkpt><trkpt lat="44.1118625" lon="11.0009629"><ele>525.0</ele><time>2026-04-06T10:08:43.919Z</time></trkpt><trkpt lat="44.1117419" lon="11.0009347"><ele>525.0</ele><time>2026-04-06T10:08:44.919Z</time></trkpt><trkpt lat="44.1116131" lon="11.000956"><ele>525.0</ele><time>2026-04-06T10:08:45.916Z</time></trkpt><trkpt lat="44.1114842" lon="11.0009804"><ele>528.0</ele><time>2026-04-06T10:08:46.918Z</time></trkpt><trkpt lat="44.111385" lon="11.0010717"><ele>531.0</ele><time>2026-04-06T10:08:47.916Z</time></trkpt><trkpt lat="44.1112875" lon="11.0011572"><ele>534.0</ele><time>2026-04-06T10:08:48.917Z</time></trkpt><trkpt lat="44.1111222" lon="11.0012942"><ele>537.0</ele><time>2026-04-06T10:08:49.915Z</time></trkpt><trkpt lat="44.1110088" lon="11.0014019"><ele>537.0</ele><time>2026-04-06T10:08:50.919Z</time></trkpt><trkpt lat="44.1109009" lon="11.0015168"><ele>537.0</ele><time>2026-04-06T10:08:51.92Z</time></trkpt><trkpt lat="44.110758" lon="11.0014791"><ele>537.0</ele><time>2026-04-06T10:08:52.915Z</time></trkpt><trkpt lat="44.1106159" lon="11.0015036"><ele>537.0</ele><time>2026-04-06T10:08:53.91Z</time></trkpt><trkpt lat="44.1104918" lon="11.0014383"><ele>540.5</ele><time>2026-04-06T10:08:54.917Z</time></trkpt><trkpt lat="44.1103492" lon="11.0014252"><ele>544.0</ele><time>2026-04-06T10:08:55.913Z</time></trkpt><trkpt lat="44.1102115" lon="11.0014075"><ele>547.5</ele><time>2026-04-06T10:08:56.918Z</time></trkpt><trkpt lat="44.1100827" lon="11.0014179"><ele>551.0</ele><time>2026-04-06T10:08:57.92Z</time></trkpt><trkpt lat="44.109926" lon="11.001418"><ele>548.0</ele><time>2026-04-06T10:08:58.913Z</time></trkpt><trkpt lat="44.1098003" lon="11.0015702"><ele>545.0</ele><time>2026-04-06T10:08:59.916Z</time></trkpt><trkpt lat="44.1096868" lon="11.0016933"><ele>542.0</ele><time>2026-04-06T10:09:00.918Z</time></trkpt><trkpt lat="44.1096066" lon="11.0017754"><ele>539.0</ele><time>2026-04-06T10:09:01.915Z</time></trkpt><trkpt lat="44.1094979" lon="11.0020011"><ele>539.0</ele><time>2026-04-06T10:09:02.921Z</time></trkpt><trkpt lat="44.1093572" lon="11.0022577"><ele>539.0</ele><time>2026-04-06T10:09:03.919Z</time></trkpt><trkpt lat="44.1092285" lon="11.0024471"><ele>539.0</ele><time>2026-04-06T10:09:04.923Z</time></trkpt><trkpt lat="44.1091078" lon="11.0026105"><ele>533.5</ele><time>2026-04-06T10:09:05.915Z</time></trkpt><trkpt lat="44.1089959" lon="11.002719"><ele>528.0</ele><time>2026-04-06T10:09:06.918Z</time></trkpt><trkpt lat="44.1088867" lon="11.0027889"><ele>522.5</ele><time>2026-04-06T10:09:07.918Z</time></trkpt><trkpt lat="44.1087606" lon="11.0028504"><ele>517.0</ele><time>2026-04-06T10:09:08.909Z</time></trkpt><trkpt lat="44.1086128" lon="11.0028857"><ele>517.0</ele><time>2026-04-06T10:09:09.911Z</time></trkpt><trkpt lat="44.1084649" lon="11.0028047"><ele>517.0</ele><time>2026-04-06T10:09:10.917Z</time></trkpt><trkpt lat="44.1083066" lon="11.0028106"><ele>517.0</ele><time>2026-04-06T10:09:11.913Z</time></trkpt><trkpt lat="44.1081523" lon="11.0028102"><ele>511.33333333333337</ele><time>2026-04-06T10:09:12.914Z</time></trkpt><trkpt lat="44.1079674" lon="11.0028329"><ele>505.66666666666663</ele><time>2026-04-06T10:09:13.916Z</time></trkpt><trkpt lat="44.1078328" lon="11.0028502"><ele>500.0</ele><time>2026-04-06T10:09:14.914Z</time></trkpt><trkpt lat="44.1076967" lon="11.0028309"><ele>500.0</ele><time>2026-04-06T10:09:15.916Z</time></trkpt><trkpt lat="44.1075554" lon="11.0026851"><ele>500.0</ele><time>2026-04-06T10:09:16.918Z</time></trkpt><trkpt lat="44.1074033" lon="11.0026075"><ele>500.0</ele><time>2026-04-06T10:09:17.913Z</time></trkpt><trkpt lat="44.1072779" lon="11.0025175"><ele>500.0</ele><time>2026-04-06T10:09:18.916Z</time></trkpt><trkpt lat="44.107139" lon="11.0023683"><ele>500.0</ele><time>2026-04-06T10:09:19.922Z</time></trkpt><trkpt lat="44.1070128" lon="11.0022278"><ele>500.0</ele><time>2026-04-06T10:09:20.91Z</time></trkpt><trkpt lat="44.1069282" lon="11.0020579"><ele>500.0</ele><time>2026-04-06T10:09:21.924Z</time></trkpt><trkpt lat="44.1068516" lon="11.0018308"><ele>500.0</ele><time>2026-04-06T10:09:22.91Z</time></trkpt><trkpt lat="44.1067747" lon="11.0017153"><ele>500.0</ele><time>2026-04-06T10:09:23.913Z</time></trkpt><trkpt lat="44.106697" lon="11.0015418"><ele>500.0</ele><time>2026-04-06T10:09:24.929Z</time></trkpt><trkpt lat="44.1066198" lon="11.0013435"><ele>500.3333333333333</ele><time>2026-04-06T10:09:25.919Z</time></trkpt><trkpt lat="44.1065529" lon="11.001095"><ele>500.66666666666663</ele><time>2026-04-06T10:09:26.913Z</time></trkpt><trkpt lat="44.1065143" lon="11.0007908"><ele>501.0</ele><time>2026-04-06T10:09:27.917Z</time></trkpt><trkpt lat="44.1064619" lon="11.0005706"><ele>501.0</ele><time>2026-04-06T10:09:28.914Z</time></trkpt><trkpt lat="44.106345" lon="11.0004047"><ele>501.0</ele><time>2026-04-06T10:09:29.915Z</time></trkpt><trkpt lat="44.1062598" lon="11.0002055"><ele>501.0</ele><time>2026-04-06T10:09:30.922Z</time></trkpt><trkpt lat="44.106102" lon="11.00006"><ele>501.0</ele><time>2026-04-06T10:09:31.916Z</time></trkpt><trkpt lat="44.1060317" lon="10.9998793"><ele>501.0</ele><time>2026-04-06T10:09:32.913Z</time></trkpt><trkpt lat="44.1059092" lon="10.999749"><ele>501.0</ele><time>2026-04-06T10:09:33.918Z</time></trkpt><trkpt lat="44.1058283" lon="10.9996264"><ele>501.0</ele><time>2026-04-06T10:09:34.921Z</time></trkpt><trkpt lat="44.1056851" lon="10.9995277"><ele>501.5</ele><time>2026-04-06T10:09:35.913Z</time></trkpt><trkpt lat="44.1055479" lon="10.9995066"><ele>502.0</ele><time>2026-04-06T10:09:36.915Z</time></trkpt><trkpt lat="44.1054464" lon="10.9994884"><ele>502.5</ele><time>2026-04-06T10:09:37.916Z</time></trkpt><trkpt lat="44.1053192" lon="10.9995214"><ele>503.0</ele><time>2026-04-06T10:09:38.915Z</time></trkpt><trkpt lat="44.1052005" lon="10.9994825"><ele>503.0</ele><time>2026-04-06T10:09:39.916Z</time></trkpt><trkpt lat="44.1050679" lon="10.9994494"><ele>503.0</ele><time>2026-04-06T10:09:40.916Z</time></trkpt><trkpt lat="44.1049581" lon="10.9993726"><ele>503.0</ele><time>2026-04-06T10:09:41.917Z</time></trkpt><trkpt lat="44.1048604" lon="10.9993778"><ele>503.0</ele><time>2026-04-06T10:09:42.922Z</time></trkpt><trkpt lat="44.1047558" lon="10.9994089"><ele>505.66666666666663</ele><time>2026-04-06T10:09:43.913Z</time></trkpt><trkpt lat="44.104591" lon="10.9995729"><ele>508.33333333333337</ele><time>2026-04-06T10:09:44.914Z</time></trkpt><trkpt lat="44.1044399" lon="10.9996869"><ele>511.0</ele><time>2026-04-06T10:09:45.915Z</time></trkpt><trkpt lat="44.1042929" lon="10.9997754"><ele>511.0</ele><time>2026-04-06T10:09:46.919Z</time></trkpt><trkpt lat="44.1041425" lon="10.99988"><ele>511.0</ele><time>2026-04-06T10:09:47.915Z</time></trkpt><trkpt lat="44.1040018" lon="10.9999766"><ele>511.0</ele><time>2026-04-06T10:09:48.912Z</time></trkpt><trkpt lat="44.1038564" lon="11.0000939"><ele>515.0</ele><time>2026-04-06T10:09:49.918Z</time></trkpt><trkpt lat="44.1037283" lon="11.0001465"><ele>519.0</ele><time>2026-04-06T10:09:50.918Z</time></trkpt><trkpt lat="44.1036128" lon="11.0001474"><ele>523.0</ele><time>2026-04-06T10:09:51.916Z</time></trkpt><trkpt lat="44.103493" lon="11.0001491"><ele>527.0</ele><time>2026-04-06T10:09:52.914Z</time></trkpt><trkpt lat="44.1033835" lon="11.0000931"><ele>527.0</ele><time>2026-04-06T10:09:53.91Z</time></trkpt><trkpt lat="44.1032704" lon="11.0000486"><ele>527.0</ele><time>2026-04-06T10:09:54.911Z</time></trkpt><trkpt lat="44.10315" lon="10.9998909"><ele>527.0</ele><time>2026-04-06T10:09:55.915Z</time></trkpt><trkpt lat="44.1030202" lon="10.9996939"><ele>533.4</ele><time>2026-04-06T10:09:56.913Z</time></trkpt><trkpt lat="44.1029126" lon="10.9995535"><ele>539.8000000000001</ele><time>2026-04-06T10:09:57.924Z</time></trkpt><trkpt lat="44.1028567" lon="10.9994153"><ele>546.2</ele><time>2026-04-06T10:09:58.924Z</time></trkpt><trkpt lat="44.102845" lon="10.999288"><ele>552.6</ele><time>2026-04-06T10:09:59.915Z</time></trkpt><trkpt lat="44.1027775" lon="10.9992301"><ele>559.0</ele><time>2026-04-06T10:10:00.922Z</time></trkpt><trkpt lat="44.1027023" lon="10.9991967"><ele>559.0</ele><time>2026-04-06T10:10:01.92Z</time></trkpt><trkpt lat="44.1026285" lon="10.9991836"><ele>559.0</ele><time>2026-04-06T10:10:02.919Z</time></trkpt><trkpt lat="44.1025553" lon="10.9992848"><ele>559.0</ele><time>2026-04-06T10:10:03.915Z</time></trkpt><trkpt lat="44.1024689" lon="10.9993131"><ele>559.0</ele><time>2026-04-06T10:10:04.916Z</time></trkpt><trkpt lat="44.1023223" lon="10.999438"><ele>559.0</ele><time>2026-04-06T10:10:05.917Z</time></trkpt><trkpt lat="44.1021583" lon="10.9994229"><ele>566.6666666666667</ele><time>2026-04-06T10:10:06.913Z</time></trkpt><trkpt lat="44.1019832" lon="10.9993679"><ele>574.3333333333334</ele><time>2026-04-06T10:10:07.915Z</time></trkpt><trkpt lat="44.1018187" lon="10.9993738"><ele>582.0</ele><time>2026-04-06T10:10:08.919Z</time></trkpt><trkpt lat="44.1016849" lon="10.9993109"><ele>569.0</ele><time>2026-04-06T10:10:09.918Z</time></trkpt><trkpt lat="44.1016073" lon="10.9990947"><ele>556.0</ele><time>2026-04-06T10:10:10.914Z</time></trkpt><trkpt lat="44.1015033" lon="10.9989744"><ele>543.0</ele><time>2026-04-06T10:10:11.913Z</time></trkpt><trkpt lat="44.1013878" lon="10.9988085"><ele>543.0</ele><time>2026-04-06T10:10:12.915Z</time></trkpt><trkpt lat="44.1012736" lon="10.9986545"><ele>543.0</ele><time>2026-04-06T10:10:13.915Z</time></trkpt><trkpt lat="44.1011324" lon="10.9985196"><ele>543.0</ele><time>2026-04-06T10:10:14.918Z</time></trkpt><trkpt lat="44.1010015" lon="10.9983715"><ele>544.6666666666666</ele><time>2026-04-06T10:10:15.912Z</time></trkpt><trkpt lat="44.100859" lon="10.998253"><ele>546.3333333333333</ele><time>2026-04-06T10:10:16.913Z</time></trkpt><trkpt lat="44.1006951" lon="10.9981612"><ele>548.0</ele><time>2026-04-06T10:10:17.913Z</time></trkpt><trkpt lat="44.1005533" lon="10.9980657"><ele>548.0</ele><time>2026-04-06T10:10:18.918Z</time></trkpt><trkpt lat="44.1004" lon="10.9979827"><ele>548.0</ele><time>2026-04-06T10:10:19.918Z</time></trkpt><trkpt lat="44.1002471" lon="10.9978866"><ele>548.0</ele><time>2026-04-06T10:10:20.918Z</time></trkpt><trkpt lat="44.1001027" lon="10.9977618"><ele>548.0</ele><time>2026-04-06T10:10:21.92Z</time></trkpt><trkpt lat="44.0999705" lon="10.997669"><ele>548.0</ele><time>2026-04-06T10:10:22.919Z</time></trkpt><trkpt lat="44.099805" lon="10.9975895"><ele>548.0</ele><time>2026-04-06T10:10:23.913Z</time></trkpt><trkpt lat="44.0996581" lon="10.9975153"><ele>547.5</ele><time>2026-04-06T10:10:24.92Z</time></trkpt><trkpt lat="44.0995345" lon="10.9974191"><ele>547.0</ele><time>2026-04-06T10:10:25.914Z</time></trkpt><trkpt lat="44.0994291" lon="10.9973336"><ele>546.5</ele><time>2026-04-06T10:10:26.934Z</time></trkpt><trkpt lat="44.0993561" lon="10.9972462"><ele>546.0</ele><time>2026-04-06T10:10:27.922Z</time></trkpt><trkpt lat="44.0992835" lon="10.9971372"><ele>546.0</ele><time>2026-04-06T10:10:28.914Z</time></trkpt><trkpt lat="44.0992834" lon="10.9970062"><ele>546.0</ele><time>2026-04-06T10:10:29.911Z</time></trkpt><trkpt lat="44.0992811" lon="10.9968601"><ele>546.0</ele><time>2026-04-06T10:10:30.92Z</time></trkpt><trkpt lat="44.0992674" lon="10.9966982"><ele>546.0</ele><time>2026-04-06T10:10:31.92Z</time></trkpt><trkpt lat="44.0992159" lon="10.9965476"><ele>546.0</ele><time>2026-04-06T10:10:32.914Z</time></trkpt><trkpt lat="44.0991653" lon="10.9964"><ele>545.5</ele><time>2026-04-06T10:10:33.914Z</time></trkpt><trkpt lat="44.0991027" lon="10.9962498"><ele>545.0</ele><time>2026-04-06T10:10:34.914Z</time></trkpt><trkpt lat="44.0990064" lon="10.9960761"><ele>544.5</ele><time>2026-04-06T10:10:35.919Z</time></trkpt><trkpt lat="44.0989164" lon="10.9959226"><ele>544.0</ele><time>2026-04-06T10:10:36.918Z</time></trkpt><trkpt lat="44.0988116" lon="10.9957741"><ele>541.0</ele><time>2026-04-06T10:10:37.914Z</time></trkpt><trkpt lat="44.0987275" lon="10.9956136"><ele>538.0</ele><time>2026-04-06T10:10:38.912Z</time></trkpt><trkpt lat="44.0986372" lon="10.9954636"><ele>535.0</ele><time>2026-04-06T10:10:39.92Z</time></trkpt><trkpt lat="44.0985277" lon="10.9953187"><ele>532.0</ele><time>2026-04-06T10:10:40.92Z</time></trkpt><trkpt lat="44.0984454" lon="10.9951731"><ele>532.0</ele><time>2026-04-06T10:10:41.913Z</time></trkpt><trkpt lat="44.0983135" lon="10.9950856"><ele>532.0</ele><time>2026-04-06T10:10:42.912Z</time></trkpt><trkpt lat="44.0981671" lon="10.9949935"><ele>532.0</ele><time>2026-04-06T10:10:43.92Z</time></trkpt><trkpt lat="44.0980549" lon="10.9948836"><ele>532.0</ele><time>2026-04-06T10:10:44.912Z</time></trkpt><trkpt lat="44.0979295" lon="10.9947785"><ele>531.75</ele><time>2026-04-06T10:10:45.913Z</time></trkpt><trkpt lat="44.0978215" lon="10.9946693"><ele>531.5</ele><time>2026-04-06T10:10:46.914Z</time></trkpt><trkpt lat="44.0977008" lon="10.9945716"><ele>531.25</ele><time>2026-04-06T10:10:47.918Z</time></trkpt><trkpt lat="44.0975501" lon="10.9944944"><ele>531.0</ele><time>2026-04-06T10:10:48.918Z</time></trkpt><trkpt lat="44.0974376" lon="10.9943887"><ele>531.0</ele><time>2026-04-06T10:10:49.912Z</time></trkpt><trkpt lat="44.0973113" lon="10.9942923"><ele>531.0</ele><time>2026-04-06T10:10:50.912Z</time></trkpt><trkpt lat="44.0972139" lon="10.9941614"><ele>531.0</ele><time>2026-04-06T10:10:51.915Z</time></trkpt><trkpt lat="44.0971" lon="10.9940856"><ele>531.0</ele><time>2026-04-06T10:10:52.917Z</time></trkpt><trkpt lat="44.0970153" lon="10.9939749"><ele>531.0</ele><time>2026-04-06T10:10:53.916Z</time></trkpt><trkpt lat="44.0968753" lon="10.9939611"><ele>531.0</ele><time>2026-04-06T10:10:54.916Z</time></trkpt><trkpt lat="44.0967341" lon="10.9939496"><ele>531.0</ele><time>2026-04-06T10:10:55.912Z</time></trkpt><trkpt lat="44.0966384" lon="10.9938523"><ele>531.0</ele><time>2026-04-06T10:10:56.913Z</time></trkpt><trkpt lat="44.0965092" lon="10.9937417"><ele>533.3333333333334</ele><time>2026-04-06T10:10:57.911Z</time></trkpt><trkpt lat="44.0964113" lon="10.9935998"><ele>535.6666666666667</ele><time>2026-04-06T10:10:58.915Z</time></trkpt><trkpt lat="44.0962428" lon="10.9934827"><ele>538.0</ele><time>2026-04-06T10:10:59.915Z</time></trkpt><trkpt lat="44.096089" lon="10.9933708"><ele>536.6666666666667</ele><time>2026-04-06T10:11:00.919Z</time></trkpt><trkpt lat="44.0959302" lon="10.9932343"><ele>535.3333333333334</ele><time>2026-04-06T10:11:01.914Z</time></trkpt><trkpt lat="44.0958005" lon="10.9931028"><ele>534.0</ele><time>2026-04-06T10:11:02.918Z</time></trkpt><trkpt lat="44.0956585" lon="10.9929718"><ele>534.0</ele><time>2026-04-06T10:11:03.915Z</time></trkpt><trkpt lat="44.0955289" lon="10.9928096"><ele>534.0</ele><time>2026-04-06T10:11:04.919Z</time></trkpt><trkpt lat="44.0953852" lon="10.9926851"><ele>534.0</ele><time>2026-04-06T10:11:05.915Z</time></trkpt><trkpt lat="44.0952535" lon="10.9925284"><ele>533.6666666666666</ele><time>2026-04-06T10:11:06.915Z</time></trkpt><trkpt lat="44.0950994" lon="10.9924195"><ele>533.3333333333333</ele><time>2026-04-06T10:11:07.92Z</time></trkpt><trkpt lat="44.094983" lon="10.992252"><ele>533.0</ele><time>2026-04-06T10:11:08.912Z</time></trkpt><trkpt lat="44.0948714" lon="10.992089"><ele>533.0</ele><time>2026-04-06T10:11:09.914Z</time></trkpt><trkpt lat="44.0947619" lon="10.9919227"><ele>533.0</ele><time>2026-04-06T10:11:10.919Z</time></trkpt><trkpt lat="44.0946638" lon="10.9917345"><ele>533.0</ele><time>2026-04-06T10:11:11.914Z</time></trkpt><trkpt lat="44.0945618" lon="10.9915926"><ele>535.6666666666666</ele><time>2026-04-06T10:11:12.915Z</time></trkpt><trkpt lat="44.0944702" lon="10.991423"><ele>538.3333333333334</ele><time>2026-04-06T10:11:13.912Z</time></trkpt><trkpt lat="44.0943223" lon="10.9913265"><ele>541.0</ele><time>2026-04-06T10:11:14.914Z</time></trkpt><trkpt lat="44.0941587" lon="10.991252"><ele>541.0</ele><time>2026-04-06T10:11:15.921Z</time></trkpt><trkpt lat="44.0939829" lon="10.9912371"><ele>541.0</ele><time>2026-04-06T10:11:16.917Z</time></trkpt><trkpt lat="44.0938386" lon="10.9912263"><ele>541.0</ele><time>2026-04-06T10:11:17.912Z</time></trkpt><trkpt lat="44.0936842" lon="10.9912519"><ele>541.0</ele><time>2026-04-06T10:11:18.922Z</time></trkpt><trkpt lat="44.0935208" lon="10.9912165"><ele>541.0</ele><time>2026-04-06T10:11:19.912Z</time></trkpt><trkpt lat="44.0933543" lon="10.9911924"><ele>541.0</ele><time>2026-04-06T10:11:20.914Z</time></trkpt><trkpt lat="44.0932276" lon="10.9910958"><ele>541.3333333333334</ele><time>2026-04-06T10:11:21.914Z</time></trkpt><trkpt lat="44.0931026" lon="10.9910118"><ele>541.6666666666666</ele><time>2026-04-06T10:11:22.92Z</time></trkpt><trkpt lat="44.0929675" lon="10.9908861"><ele>542.0</ele><time>2026-04-06T10:11:23.92Z</time></trkpt><trkpt lat="44.0928495" lon="10.990742"><ele>542.0</ele><time>2026-04-06T10:11:24.909Z</time></trkpt><trkpt lat="44.0927204" lon="10.990636"><ele>542.0</ele><time>2026-04-06T10:11:25.922Z</time></trkpt><trkpt lat="44.0926149" lon="10.9904729"><ele>542.0</ele><time>2026-04-06T10:11:26.918Z</time></trkpt><trkpt lat="44.0925125" lon="10.9902931"><ele>542.0</ele><time>2026-04-06T10:11:27.919Z</time></trkpt><trkpt lat="44.0924253" lon="10.9901101"><ele>542.0</ele><time>2026-04-06T10:11:28.919Z</time></trkpt><trkpt lat="44.0923235" lon="10.9899229"><ele>542.0</ele><time>2026-04-06T10:11:29.917Z</time></trkpt><trkpt lat="44.0922141" lon="10.9897517"><ele>542.6666666666666</ele><time>2026-04-06T10:11:30.915Z</time></trkpt><trkpt lat="44.092081" lon="10.9896148"><ele>543.3333333333334</ele><time>2026-04-06T10:11:31.922Z</time></trkpt><trkpt lat="44.0919123" lon="10.9894988"><ele>544.0</ele><time>2026-04-06T10:11:32.912Z</time></trkpt><trkpt lat="44.0917318" lon="10.9894228"><ele>544.0</ele><time>2026-04-06T10:11:33.912Z</time></trkpt><trkpt lat="44.0915606" lon="10.9893369"><ele>544.0</ele><time>2026-04-06T10:11:34.921Z</time></trkpt><trkpt lat="44.0913868" lon="10.9892763"><ele>544.0</ele><time>2026-04-06T10:11:35.916Z</time></trkpt><trkpt lat="44.0912268" lon="10.9892119"><ele>544.0</ele><time>2026-04-06T10:11:36.917Z</time></trkpt><trkpt lat="44.091069" lon="10.9891896"><ele>544.0</ele><time>2026-04-06T10:11:37.915Z</time></trkpt><trkpt lat="44.0908895" lon="10.9891632"><ele>544.0</ele><time>2026-04-06T10:11:38.914Z</time></trkpt><trkpt lat="44.090707" lon="10.9891596"><ele>547.0</ele><time>2026-04-06T10:11:39.922Z</time></trkpt><trkpt lat="44.0905429" lon="10.9891425"><ele>550.0</ele><time>2026-04-06T10:11:40.918Z</time></trkpt><trkpt lat="44.0903463" lon="10.9892067"><ele>553.0</ele><time>2026-04-06T10:11:41.915Z</time></trkpt><trkpt lat="44.0901342" lon="10.9892736"><ele>553.0</ele><time>2026-04-06T10:11:42.916Z</time></trkpt><trkpt lat="44.0899685" lon="10.9893138"><ele>553.0</ele><time>2026-04-06T10:11:43.915Z</time></trkpt><trkpt lat="44.0898144" lon="10.9893637"><ele>553.0</ele><time>2026-04-06T10:11:44.914Z</time></trkpt><trkpt lat="44.0896496" lon="10.9894269"><ele>555.6666666666667</ele><time>2026-04-06T10:11:45.917Z</time></trkpt><trkpt lat="44.0894827" lon="10.989461"><ele>558.3333333333334</ele><time>2026-04-06T10:11:46.921Z</time></trkpt><trkpt lat="44.0893284" lon="10.9895242"><ele>561.0</ele><time>2026-04-06T10:11:47.914Z</time></trkpt><trkpt lat="44.0892335" lon="10.9893829"><ele>561.0</ele><time>2026-04-06T10:11:48.915Z</time></trkpt><trkpt lat="44.0891374" lon="10.9892875"><ele>561.0</ele><time>2026-04-06T10:11:49.912Z</time></trkpt><trkpt lat="44.0890443" lon="10.9891037"><ele>561.0</ele><time>2026-04-06T10:11:50.919Z</time></trkpt><trkpt lat="44.0889312" lon="10.9890005"><ele>561.0</ele><time>2026-04-06T10:11:51.926Z</time></trkpt><trkpt lat="44.088767" lon="10.9888888"><ele>562.6666666666666</ele><time>2026-04-06T10:11:52.912Z</time></trkpt><trkpt lat="44.0886355" lon="10.9888072"><ele>564.3333333333333</ele><time>2026-04-06T10:11:53.912Z</time></trkpt><trkpt lat="44.0884432" lon="10.9888076"><ele>566.0</ele><time>2026-04-06T10:11:54.913Z</time></trkpt><trkpt lat="44.0882848" lon="10.9887802"><ele>567.0</ele><time>2026-04-06T10:11:55.917Z</time></trkpt><trkpt lat="44.0880859" lon="10.9887509"><ele>568.0</ele><time>2026-04-06T10:11:56.912Z</time></trkpt><trkpt lat="44.0879006" lon="10.9887102"><ele>569.0</ele><time>2026-04-06T10:11:57.915Z</time></trkpt><trkpt lat="44.0877352" lon="10.988682"><ele>569.0</ele><time>2026-04-06T10:11:58.918Z</time></trkpt><trkpt lat="44.0875614" lon="10.988632"><ele>569.0</ele><time>2026-04-06T10:11:59.922Z</time></trkpt><trkpt lat="44.0874389" lon="10.9885849"><ele>569.0</ele><time>2026-04-06T10:12:00.913Z</time></trkpt><trkpt lat="44.0872333" lon="10.9885636"><ele>569.3333333333333</ele><time>2026-04-06T10:12:01.913Z</time></trkpt><trkpt lat="44.0870808" lon="10.9885257"><ele>569.6666666666666</ele><time>2026-04-06T10:12:02.92Z</time></trkpt><trkpt lat="44.0869445" lon="10.9883758"><ele>570.0</ele><time>2026-04-06T10:12:03.914Z</time></trkpt><trkpt lat="44.0868252" lon="10.9882464"><ele>570.0</ele><time>2026-04-06T10:12:04.914Z</time></trkpt><trkpt lat="44.0867267" lon="10.9880115"><ele>570.0</ele><time>2026-04-06T10:12:05.912Z</time></trkpt><trkpt lat="44.0866228" lon="10.9878483"><ele>570.0</ele><time>2026-04-06T10:12:06.916Z</time></trkpt><trkpt lat="44.08651" lon="10.9877012"><ele>572.6666666666666</ele><time>2026-04-06T10:12:07.919Z</time></trkpt><trkpt lat="44.0864219" lon="10.987498"><ele>575.3333333333333</ele><time>2026-04-06T10:12:08.916Z</time></trkpt><trkpt lat="44.0863325" lon="10.9873468"><ele>578.0</ele><time>2026-04-06T10:12:09.918Z</time></trkpt><trkpt lat="44.0862396" lon="10.9871899"><ele>578.0</ele><time>2026-04-06T10:12:10.92Z</time></trkpt><trkpt lat="44.0861353" lon="10.987039"><ele>578.0</ele><time>2026-04-06T10:12:11.922Z</time></trkpt><trkpt lat="44.0860565" lon="10.986807"><ele>578.0</ele><time>2026-04-06T10:12:12.915Z</time></trkpt><trkpt lat="44.0859677" lon="10.9866379"><ele>578.25</ele><time>2026-04-06T10:12:13.916Z</time></trkpt><trkpt lat="44.0858593" lon="10.9864827"><ele>578.5</ele><time>2026-04-06T10:12:14.916Z</time></trkpt><trkpt lat="44.085752" lon="10.9863492"><ele>578.75</ele><time>2026-04-06T10:12:15.912Z</time></trkpt><trkpt lat="44.0856376" lon="10.9862374"><ele>579.0</ele><time>2026-04-06T10:12:16.913Z</time></trkpt><trkpt lat="44.0855249" lon="10.9861568"><ele>579.0</ele><time>2026-04-06T10:12:17.914Z</time></trkpt><trkpt lat="44.0853883" lon="10.9861292"><ele>579.0</ele><time>2026-04-06T10:12:18.915Z</time></trkpt><trkpt lat="44.0853074" lon="10.9861319"><ele>579.0</ele><time>2026-04-06T10:12:19.917Z</time></trkpt><trkpt lat="44.0852309" lon="10.986235"><ele>579.0</ele><time>2026-04-06T10:12:20.917Z</time></trkpt><trkpt lat="44.0851586" lon="10.9863382"><ele>579.0</ele><time>2026-04-06T10:12:21.915Z</time></trkpt><trkpt lat="44.0850885" lon="10.9864598"><ele>579.0</ele><time>2026-04-06T10:12:22.92Z</time></trkpt><trkpt lat="44.0849752" lon="10.9866698"><ele>579.0</ele><time>2026-04-06T10:12:23.915Z</time></trkpt><trkpt lat="44.0849023" lon="10.9867454"><ele>579.0</ele><time>2026-04-06T10:12:24.914Z</time></trkpt><trkpt lat="44.0848377" lon="10.9868551"><ele>579.0</ele><time>2026-04-06T10:12:25.913Z</time></trkpt><trkpt lat="44.0847546" lon="10.9869135"><ele>582.25</ele><time>2026-04-06T10:12:26.923Z</time></trkpt><trkpt lat="44.0846402" lon="10.9869292"><ele>585.5</ele><time>2026-04-06T10:12:27.914Z</time></trkpt><trkpt lat="44.0845387" lon="10.9869228"><ele>588.75</ele><time>2026-04-06T10:12:28.909Z</time></trkpt><trkpt lat="44.084376" lon="10.9868843"><ele>592.0</ele><time>2026-04-06T10:12:29.921Z</time></trkpt><trkpt lat="44.0842307" lon="10.9868614"><ele>593.3333333333334</ele><time>2026-04-06T10:12:30.912Z</time></trkpt><trkpt lat="44.0840765" lon="10.9865786"><ele>594.6666666666666</ele><time>2026-04-06T10:12:31.916Z</time></trkpt><trkpt lat="44.0839163" lon="10.9864804"><ele>596.0</ele><time>2026-04-06T10:12:32.912Z</time></trkpt><trkpt lat="44.083809" lon="10.9863624"><ele>596.0</ele><time>2026-04-06T10:12:33.913Z</time></trkpt><trkpt lat="44.083728" lon="10.9862272"><ele>596.0</ele><time>2026-04-06T10:12:34.912Z</time></trkpt><trkpt lat="44.0835958" lon="10.9861112"><ele>596.0</ele><time>2026-04-06T10:12:35.917Z</time></trkpt><trkpt lat="44.0834898" lon="10.9860219"><ele>596.0</ele><time>2026-04-06T10:12:36.916Z</time></trkpt><trkpt lat="44.0833698" lon="10.9859952"><ele>596.6</ele><time>2026-04-06T10:12:37.929Z</time></trkpt><trkpt lat="44.0832502" lon="10.9859584"><ele>597.2</ele><time>2026-04-06T10:12:38.915Z</time></trkpt><trkpt lat="44.0831526" lon="10.9860019"><ele>597.8</ele><time>2026-04-06T10:12:39.912Z</time></trkpt><trkpt lat="44.0830754" lon="10.9859848"><ele>598.4</ele><time>2026-04-06T10:12:40.921Z</time></trkpt><trkpt lat="44.0830116" lon="10.985967"><ele>599.0</ele><time>2026-04-06T10:12:41.914Z</time></trkpt><trkpt lat="44.0828243" lon="10.9859504"><ele>599.0</ele><time>2026-04-06T10:12:42.919Z</time></trkpt><trkpt lat="44.082593" lon="10.9859699"><ele>599.0</ele><time>2026-04-06T10:12:43.922Z</time></trkpt><trkpt lat="44.0824284" lon="10.9859624"><ele>599.0</ele><time>2026-04-06T10:12:44.914Z</time></trkpt><trkpt lat="44.0822337" lon="10.9859382"><ele>598.3333333333333</ele><time>2026-04-06T10:12:45.913Z</time></trkpt><trkpt lat="44.0820473" lon="10.9859132"><ele>597.6666666666666</ele><time>2026-04-06T10:12:46.916Z</time></trkpt><trkpt lat="44.0818822" lon="10.985898"><ele>597.0</ele><time>2026-04-06T10:12:47.917Z</time></trkpt><trkpt lat="44.0817405" lon="10.9859462"><ele>597.0</ele><time>2026-04-06T10:12:48.915Z</time></trkpt><trkpt lat="44.0816171" lon="10.9859197"><ele>597.0</ele><time>2026-04-06T10:12:49.919Z</time></trkpt><trkpt lat="44.081495" lon="10.9859198"><ele>597.0</ele><time>2026-04-06T10:12:50.911Z</time></trkpt><trkpt lat="44.0813789" lon="10.9858293"><ele>597.0</ele><time>2026-04-06T10:12:51.915Z</time></trkpt><trkpt lat="44.0813144" lon="10.9856817"><ele>595.5</ele><time>2026-04-06T10:12:52.917Z</time></trkpt><trkpt lat="44.0812247" lon="10.9855542"><ele>594.0</ele><time>2026-04-06T10:12:53.914Z</time></trkpt><trkpt lat="44.0810994" lon="10.9854103"><ele>592.5</ele><time>2026-04-06T10:12:54.935Z</time></trkpt><trkpt lat="44.0809921" lon="10.9852783"><ele>591.0</ele><time>2026-04-06T10:12:55.908Z</time></trkpt><trkpt lat="44.0808953" lon="10.9851363"><ele>591.0</ele><time>2026-04-06T10:12:56.921Z</time></trkpt><trkpt lat="44.0808078" lon="10.9850242"><ele>591.0</ele><time>2026-04-06T10:12:57.915Z</time></trkpt><trkpt lat="44.0806571" lon="10.9849657"><ele>591.0</ele><time>2026-04-06T10:12:58.919Z</time></trkpt><trkpt lat="44.0805205" lon="10.9849467"><ele>591.0</ele><time>2026-04-06T10:12:59.933Z</time></trkpt><trkpt lat="44.0803659" lon="10.9849618"><ele>593.3333333333334</ele><time>2026-04-06T10:13:00.921Z</time></trkpt><trkpt lat="44.0802157" lon="10.9849808"><ele>595.6666666666667</ele><time>2026-04-06T10:13:01.912Z</time></trkpt><trkpt lat="44.0800601" lon="10.9850041"><ele>598.0</ele><time>2026-04-06T10:13:02.921Z</time></trkpt><trkpt lat="44.0799054" lon="10.9850234"><ele>603.0</ele><time>2026-04-06T10:13:03.919Z</time></trkpt><trkpt lat="44.0797454" lon="10.9850442"><ele>608.0</ele><time>2026-04-06T10:13:04.907Z</time></trkpt><trkpt lat="44.0795792" lon="10.9850737"><ele>613.0</ele><time>2026-04-06T10:13:05.915Z</time></trkpt><trkpt lat="44.0794256" lon="10.9850741"><ele>613.0</ele><time>2026-04-06T10:13:06.92Z</time></trkpt><trkpt lat="44.0792736" lon="10.9850515"><ele>613.0</ele><time>2026-04-06T10:13:07.915Z</time></trkpt><trkpt lat="44.079124" lon="10.9849757"><ele>613.0</ele><time>2026-04-06T10:13:08.923Z</time></trkpt><trkpt lat="44.0789853" lon="10.9849025"><ele>612.25</ele><time>2026-04-06T10:13:09.914Z</time></trkpt><trkpt lat="44.0788478" lon="10.9847926"><ele>611.5</ele><time>2026-04-06T10:13:10.915Z</time></trkpt><trkpt lat="44.0787008" lon="10.9847307"><ele>610.75</ele><time>2026-04-06T10:13:11.924Z</time></trkpt><trkpt lat="44.0785732" lon="10.9847657"><ele>610.0</ele><time>2026-04-06T10:13:12.913Z</time></trkpt><trkpt lat="44.0784403" lon="10.9847738"><ele>610.0</ele><time>2026-04-06T10:13:13.911Z</time></trkpt><trkpt lat="44.0782763" lon="10.9847815"><ele>610.0</ele><time>2026-04-06T10:13:14.919Z</time></trkpt><trkpt lat="44.0781204" lon="10.9848179"><ele>610.0</ele><time>2026-04-06T10:13:15.911Z</time></trkpt><trkpt lat="44.0779919" lon="10.9848473"><ele>608.6666666666667</ele><time>2026-04-06T10:13:16.915Z</time></trkpt><trkpt lat="44.0778536" lon="10.9849158"><ele>607.3333333333334</ele><time>2026-04-06T10:13:17.919Z</time></trkpt><trkpt lat="44.0776307" lon="10.9850339"><ele>606.0</ele><time>2026-04-06T10:13:18.909Z</time></trkpt><trkpt lat="44.0774597" lon="10.9851363"><ele>608.0</ele><time>2026-04-06T10:13:19.913Z</time></trkpt><trkpt lat="44.0773216" lon="10.9851605"><ele>610.0</ele><time>2026-04-06T10:13:20.918Z</time></trkpt><trkpt lat="44.0771738" lon="10.9851432"><ele>612.0</ele><time>2026-04-06T10:13:21.912Z</time></trkpt><trkpt lat="44.077036" lon="10.9851765"><ele>614.0</ele><time>2026-04-06T10:13:22.914Z</time></trkpt><trkpt lat="44.0768885" lon="10.9851901"><ele>614.0</ele><time>2026-04-06T10:13:23.92Z</time></trkpt><trkpt lat="44.0767732" lon="10.9851559"><ele>614.0</ele><time>2026-04-06T10:13:24.913Z</time></trkpt><trkpt lat="44.0766757" lon="10.9851931"><ele>614.0</ele><time>2026-04-06T10:13:25.913Z</time></trkpt><trkpt lat="44.0765974" lon="10.9852267"><ele>614.0</ele><time>2026-04-06T10:13:26.913Z</time></trkpt><trkpt lat="44.0765426" lon="10.9850928"><ele>614.0</ele><time>2026-04-06T10:13:27.911Z</time></trkpt><trkpt lat="44.0764662" lon="10.9849506"><ele>623.0</ele><time>2026-04-06T10:13:28.926Z</time></trkpt><trkpt lat="44.076378" lon="10.9847364"><ele>632.0</ele><time>2026-04-06T10:13:29.912Z</time></trkpt><trkpt lat="44.0763501" lon="10.9844128"><ele>641.0</ele><time>2026-04-06T10:13:30.914Z</time></trkpt><trkpt lat="44.0762878" lon="10.9841947"><ele>633.0</ele><time>2026-04-06T10:13:31.915Z</time></trkpt><trkpt lat="44.0762165" lon="10.9839707"><ele>625.0</ele><time>2026-04-06T10:13:32.924Z</time></trkpt><trkpt lat="44.0761462" lon="10.9837457"><ele>617.0</ele><time>2026-04-06T10:13:33.926Z</time></trkpt><trkpt lat="44.0760462" lon="10.9835615"><ele>617.0</ele><time>2026-04-06T10:13:34.913Z</time></trkpt><trkpt lat="44.0759408" lon="10.9833622"><ele>617.0</ele><time>2026-04-06T10:13:35.911Z</time></trkpt><trkpt lat="44.0758132" lon="10.9832036"><ele>617.0</ele><time>2026-04-06T10:13:36.913Z</time></trkpt><trkpt lat="44.0756998" lon="10.9830593"><ele>620.3333333333333</ele><time>2026-04-06T10:13:37.911Z</time></trkpt><trkpt lat="44.0755773" lon="10.9829541"><ele>623.6666666666666</ele><time>2026-04-06T10:13:38.917Z</time></trkpt><trkpt lat="44.0754358" lon="10.9828656"><ele>627.0</ele><time>2026-04-06T10:13:39.917Z</time></trkpt><trkpt lat="44.0751923" lon="10.9827999"><ele>627.0</ele><time>2026-04-06T10:13:40.914Z</time></trkpt><trkpt lat="44.0750191" lon="10.9826885"><ele>627.0</ele><time>2026-04-06T10:13:41.92Z</time></trkpt><trkpt lat="44.0748256" lon="10.9826038"><ele>627.0</ele><time>2026-04-06T10:13:42.912Z</time></trkpt><trkpt lat="44.0746638" lon="10.9825271"><ele>627.0</ele><time>2026-04-06T10:13:43.911Z</time></trkpt><trkpt lat="44.0745564" lon="10.9823767"><ele>627.0</ele><time>2026-04-06T10:13:44.91Z</time></trkpt><trkpt lat="44.0743988" lon="10.9822939"><ele>627.0</ele><time>2026-04-06T10:13:45.915Z</time></trkpt><trkpt lat="44.0743283" lon="10.9820324"><ele>627.0</ele><time>2026-04-06T10:13:46.916Z</time></trkpt><trkpt lat="44.0742218" lon="10.9818485"><ele>627.0</ele><time>2026-04-06T10:13:47.914Z</time></trkpt><trkpt lat="44.074148" lon="10.9816361"><ele>627.0</ele><time>2026-04-06T10:13:48.914Z</time></trkpt><trkpt lat="44.0740644" lon="10.9814271"><ele>626.75</ele><time>2026-04-06T10:13:49.914Z</time></trkpt><trkpt lat="44.0740026" lon="10.9812796"><ele>626.5</ele><time>2026-04-06T10:13:50.914Z</time></trkpt><trkpt lat="44.0739329" lon="10.9811644"><ele>626.25</ele><time>2026-04-06T10:13:51.918Z</time></trkpt><trkpt lat="44.073948" lon="10.9809775"><ele>626.0</ele><time>2026-04-06T10:13:52.915Z</time></trkpt><trkpt lat="44.0739851" lon="10.9808042"><ele>626.0</ele><time>2026-04-06T10:13:53.92Z</time></trkpt><trkpt lat="44.0739978" lon="10.9806388"><ele>626.0</ele><time>2026-04-06T10:13:54.912Z</time></trkpt><trkpt lat="44.0739906" lon="10.9804731"><ele>626.0</ele><time>2026-04-06T10:13:55.914Z</time></trkpt><trkpt lat="44.0739625" lon="10.98026"><ele>626.0</ele><time>2026-04-06T10:13:56.912Z</time></trkpt><trkpt lat="44.0739155" lon="10.9800845"><ele>625.0</ele><time>2026-04-06T10:13:57.915Z</time></trkpt><trkpt lat="44.0738414" lon="10.9799216"><ele>624.0</ele><time>2026-04-06T10:13:58.924Z</time></trkpt><trkpt lat="44.0737697" lon="10.9797913"><ele>623.0</ele><time>2026-04-06T10:13:59.918Z</time></trkpt><trkpt lat="44.0736541" lon="10.9797115"><ele>622.0</ele><time>2026-04-06T10:14:00.92Z</time></trkpt><trkpt lat="44.0735203" lon="10.9796442"><ele>622.0</ele><time>2026-04-06T10:14:01.909Z</time></trkpt><trkpt lat="44.0734047" lon="10.9795439"><ele>622.0</ele><time>2026-04-06T10:14:02.91Z</time></trkpt><trkpt lat="44.0731804" lon="10.9795398"><ele>622.0</ele><time>2026-04-06T10:14:03.926Z</time></trkpt><trkpt lat="44.072988" lon="10.9795051"><ele>624.3333333333334</ele><time>2026-04-06T10:14:04.919Z</time></trkpt><trkpt lat="44.0728323" lon="10.9794398"><ele>626.6666666666666</ele><time>2026-04-06T10:14:05.914Z</time></trkpt><trkpt lat="44.0726765" lon="10.9793693"><ele>629.0</ele><time>2026-04-06T10:14:06.961Z</time></trkpt><trkpt lat="44.072572" lon="10.9792521"><ele>629.0</ele><time>2026-04-06T10:14:07.919Z</time></trkpt><trkpt lat="44.0724733" lon="10.9790905"><ele>629.0</ele><time>2026-04-06T10:14:08.935Z</time></trkpt><trkpt lat="44.0723659" lon="10.978938"><ele>629.0</ele><time>2026-04-06T10:14:09.925Z</time></trkpt><trkpt lat="44.07224" lon="10.9787592"><ele>628.3333333333333</ele><time>2026-04-06T10:14:10.913Z</time></trkpt><trkpt lat="44.072107" lon="10.9785825"><ele>627.6666666666666</ele><time>2026-04-06T10:14:11.922Z</time></trkpt><trkpt lat="44.0720117" lon="10.9783913"><ele>627.0</ele><time>2026-04-06T10:14:12.908Z</time></trkpt><trkpt lat="44.0718948" lon="10.9781863"><ele>627.0</ele><time>2026-04-06T10:14:13.908Z</time></trkpt><trkpt lat="44.0718029" lon="10.9779735"><ele>627.0</ele><time>2026-04-06T10:14:14.913Z</time></trkpt><trkpt lat="44.0716735" lon="10.9777584"><ele>627.0</ele><time>2026-04-06T10:14:15.919Z</time></trkpt><trkpt lat="44.0715766" lon="10.9775525"><ele>629.3333333333334</ele><time>2026-04-06T10:14:16.913Z</time></trkpt><trkpt lat="44.0714398" lon="10.9774292"><ele>631.6666666666667</ele><time>2026-04-06T10:14:17.911Z</time></trkpt><trkpt lat="44.0712981" lon="10.9772956"><ele>634.0</ele><time>2026-04-06T10:14:18.913Z</time></trkpt><trkpt lat="44.0711782" lon="10.9771838"><ele>634.0</ele><time>2026-04-06T10:14:19.909Z</time></trkpt><trkpt lat="44.0711091" lon="10.9770396"><ele>634.0</ele><time>2026-04-06T10:14:20.912Z</time></trkpt><trkpt lat="44.0710367" lon="10.9768822"><ele>634.0</ele><time>2026-04-06T10:14:21.915Z</time></trkpt><trkpt lat="44.0710256" lon="10.9766501"><ele>634.0</ele><time>2026-04-06T10:14:22.915Z</time></trkpt><trkpt lat="44.0709842" lon="10.9764868"><ele>634.25</ele><time>2026-04-06T10:14:23.909Z</time></trkpt><trkpt lat="44.0709487" lon="10.9762927"><ele>634.5</ele><time>2026-04-06T10:14:24.918Z</time></trkpt><trkpt lat="44.070889" lon="10.9761234"><ele>634.75</ele><time>2026-04-06T10:14:25.913Z</time></trkpt><trkpt lat="44.0707926" lon="10.9759539"><ele>635.0</ele><time>2026-04-06T10:14:26.926Z</time></trkpt><trkpt lat="44.0706853" lon="10.9758094"><ele>635.0</ele><time>2026-04-06T10:14:27.916Z</time></trkpt><trkpt lat="44.0705427" lon="10.9756352"><ele>635.0</ele><time>2026-04-06T10:14:28.912Z</time></trkpt><trkpt lat="44.0704158" lon="10.9754639"><ele>635.0</ele><time>2026-04-06T10:14:29.913Z</time></trkpt><trkpt lat="44.0702741" lon="10.9752967"><ele>635.0</ele><time>2026-04-06T10:14:30.924Z</time></trkpt><trkpt lat="44.0701393" lon="10.9751375"><ele>635.0</ele><time>2026-04-06T10:14:31.908Z</time></trkpt><trkpt lat="44.0699833" lon="10.9749916"><ele>635.0</ele><time>2026-04-06T10:14:32.951Z</time></trkpt><trkpt lat="44.0698315" lon="10.9748295"><ele>640.6666666666666</ele><time>2026-04-06T10:14:33.908Z</time></trkpt><trkpt lat="44.0696922" lon="10.9746845"><ele>646.3333333333334</ele><time>2026-04-06T10:14:34.91Z</time></trkpt><trkpt lat="44.0695752" lon="10.9745358"><ele>652.0</ele><time>2026-04-06T10:14:35.924Z</time></trkpt><trkpt lat="44.0694515" lon="10.9744005"><ele>652.0</ele><time>2026-04-06T10:14:36.912Z</time></trkpt><trkpt lat="44.0693501" lon="10.9742268"><ele>652.0</ele><time>2026-04-06T10:14:37.91Z</time></trkpt><trkpt lat="44.0692335" lon="10.9740599"><ele>652.0</ele><time>2026-04-06T10:14:38.913Z</time></trkpt><trkpt lat="44.0690494" lon="10.9737062"><ele>654.6666666666667</ele><time>2026-04-06T10:14:40.907Z</time></trkpt><trkpt lat="44.0689329" lon="10.9735378"><ele>657.3333333333334</ele><time>2026-04-06T10:14:41.911Z</time></trkpt><trkpt lat="44.0688058" lon="10.9734354"><ele>660.0</ele><time>2026-04-06T10:14:42.92Z</time></trkpt><trkpt lat="44.0686667" lon="10.9732698"><ele>654.6666666666666</ele><time>2026-04-06T10:14:43.913Z</time></trkpt><trkpt lat="44.0685495" lon="10.9731405"><ele>649.3333333333333</ele><time>2026-04-06T10:14:44.913Z</time></trkpt><trkpt lat="44.068399" lon="10.9730518"><ele>644.0</ele><time>2026-04-06T10:14:45.919Z</time></trkpt><trkpt lat="44.0682745" lon="10.9729257"><ele>644.0</ele><time>2026-04-06T10:14:46.924Z</time></trkpt><trkpt lat="44.0681516" lon="10.9728595"><ele>644.0</ele><time>2026-04-06T10:14:47.913Z</time></trkpt><trkpt lat="44.0680016" lon="10.9728393"><ele>644.0</ele><time>2026-04-06T10:14:48.92Z</time></trkpt><trkpt lat="44.0678629" lon="10.9728431"><ele>644.0</ele><time>2026-04-06T10:14:49.92Z</time></trkpt><trkpt lat="44.0677055" lon="10.9728989"><ele>644.0</ele><time>2026-04-06T10:14:50.916Z</time></trkpt><trkpt lat="44.0675861" lon="10.9729416"><ele>644.0</ele><time>2026-04-06T10:14:51.92Z</time></trkpt><trkpt lat="44.0673801" lon="10.9729745"><ele>644.0</ele><time>2026-04-06T10:14:52.912Z</time></trkpt><trkpt lat="44.0672242" lon="10.9729876"><ele>649.0</ele><time>2026-04-06T10:14:53.917Z</time></trkpt><trkpt lat="44.0670518" lon="10.9730161"><ele>654.0</ele><time>2026-04-06T10:14:54.917Z</time></trkpt><trkpt lat="44.0668714" lon="10.9729194"><ele>659.0</ele><time>2026-04-06T10:14:55.921Z</time></trkpt><trkpt lat="44.0667263" lon="10.9728263"><ele>659.0</ele><time>2026-04-06T10:14:56.921Z</time></trkpt><trkpt lat="44.0666012" lon="10.9727397"><ele>659.0</ele><time>2026-04-06T10:14:57.923Z</time></trkpt><trkpt lat="44.0664691" lon="10.9726245"><ele>659.0</ele><time>2026-04-06T10:14:58.909Z</time></trkpt><trkpt lat="44.0663337" lon="10.9725296"><ele>659.0</ele><time>2026-04-06T10:14:59.915Z</time></trkpt><trkpt lat="44.066237" lon="10.9724144"><ele>659.0</ele><time>2026-04-06T10:15:00.923Z</time></trkpt><trkpt lat="44.0661366" lon="10.9722823"><ele>659.0</ele><time>2026-04-06T10:15:01.912Z</time></trkpt><trkpt lat="44.0661206" lon="10.9720279"><ele>659.0</ele><time>2026-04-06T10:15:02.915Z</time></trkpt><trkpt lat="44.066032" lon="10.9718776"><ele>659.0</ele><time>2026-04-06T10:15:03.914Z</time></trkpt><trkpt lat="44.0658808" lon="10.9717654"><ele>659.0</ele><time>2026-04-06T10:15:04.919Z</time></trkpt><trkpt lat="44.0658005" lon="10.971539"><ele>659.0</ele><time>2026-04-06T10:15:05.912Z</time></trkpt><trkpt lat="44.0657088" lon="10.9713103"><ele>660.0</ele><time>2026-04-06T10:15:06.912Z</time></trkpt><trkpt lat="44.0656143" lon="10.9710905"><ele>661.0</ele><time>2026-04-06T10:15:07.919Z</time></trkpt><trkpt lat="44.0654991" lon="10.9709129"><ele>662.0</ele><time>2026-04-06T10:15:08.913Z</time></trkpt><trkpt lat="44.065378" lon="10.9707375"><ele>662.0</ele><time>2026-04-06T10:15:09.919Z</time></trkpt><trkpt lat="44.0652906" lon="10.9705464"><ele>662.0</ele><time>2026-04-06T10:15:10.953Z</time></trkpt><trkpt lat="44.065177" lon="10.9703855"><ele>662.0</ele><time>2026-04-06T10:15:11.911Z</time></trkpt><trkpt lat="44.0650103" lon="10.9702878"><ele>661.0</ele><time>2026-04-06T10:15:12.91Z</time></trkpt><trkpt lat="44.064871" lon="10.9701678"><ele>660.0</ele><time>2026-04-06T10:15:13.916Z</time></trkpt><trkpt lat="44.0647253" lon="10.9700543"><ele>659.0</ele><time>2026-04-06T10:15:14.914Z</time></trkpt><trkpt lat="44.0645892" lon="10.9699328"><ele>659.0</ele><time>2026-04-06T10:15:15.906Z</time></trkpt><trkpt lat="44.0644411" lon="10.9698652"><ele>659.0</ele><time>2026-04-06T10:15:16.915Z</time></trkpt><trkpt lat="44.0642915" lon="10.9698027"><ele>659.0</ele><time>2026-04-06T10:15:17.917Z</time></trkpt><trkpt lat="44.064108" lon="10.9697917"><ele>661.0</ele><time>2026-04-06T10:15:18.915Z</time></trkpt><trkpt lat="44.0639659" lon="10.9698191"><ele>663.0</ele><time>2026-04-06T10:15:19.917Z</time></trkpt><trkpt lat="44.0638394" lon="10.969769"><ele>665.0</ele><time>2026-04-06T10:15:20.911Z</time></trkpt><trkpt lat="44.0637237" lon="10.9697168"><ele>667.0</ele><time>2026-04-06T10:15:21.912Z</time></trkpt><trkpt lat="44.0636278" lon="10.9696612"><ele>667.0</ele><time>2026-04-06T10:15:22.918Z</time></trkpt><trkpt lat="44.0635337" lon="10.969626"><ele>667.0</ele><time>2026-04-06T10:15:23.927Z</time></trkpt><trkpt lat="44.0634901" lon="10.9695049"><ele>667.0</ele><time>2026-04-06T10:15:24.916Z</time></trkpt><trkpt lat="44.0634207" lon="10.9693336"><ele>667.0</ele><time>2026-04-06T10:15:25.917Z</time></trkpt><trkpt lat="44.0633059" lon="10.9692354"><ele>669.5</ele><time>2026-04-06T10:15:26.914Z</time></trkpt><trkpt lat="44.0632363" lon="10.9690528"><ele>672.0</ele><time>2026-04-06T10:15:27.914Z</time></trkpt><trkpt lat="44.0631396" lon="10.9689114"><ele>674.5</ele><time>2026-04-06T10:15:28.921Z</time></trkpt><trkpt lat="44.0630452" lon="10.9687501"><ele>677.0</ele><time>2026-04-06T10:15:29.917Z</time></trkpt><trkpt lat="44.0629525" lon="10.9685661"><ele>677.0</ele><time>2026-04-06T10:15:30.911Z</time></trkpt><trkpt lat="44.0628421" lon="10.9684386"><ele>677.0</ele><time>2026-04-06T10:15:31.913Z</time></trkpt><trkpt lat="44.0627228" lon="10.9682903"><ele>677.0</ele><time>2026-04-06T10:15:32.921Z</time></trkpt><trkpt lat="44.0626421" lon="10.9681319"><ele>677.0</ele><time>2026-04-06T10:15:33.909Z</time></trkpt><trkpt lat="44.0625661" lon="10.9679575"><ele>673.3333333333333</ele><time>2026-04-06T10:15:34.909Z</time></trkpt><trkpt lat="44.0624729" lon="10.9677451"><ele>669.6666666666666</ele><time>2026-04-06T10:15:35.915Z</time></trkpt><trkpt lat="44.0623367" lon="10.9675471"><ele>666.0</ele><time>2026-04-06T10:15:36.913Z</time></trkpt><trkpt lat="44.0622262" lon="10.967343"><ele>668.3333333333334</ele><time>2026-04-06T10:15:37.917Z</time></trkpt><trkpt lat="44.0621275" lon="10.96713"><ele>670.6666666666667</ele><time>2026-04-06T10:15:38.915Z</time></trkpt><trkpt lat="44.0620069" lon="10.966913"><ele>673.0</ele><time>2026-04-06T10:15:39.916Z</time></trkpt><trkpt lat="44.0618999" lon="10.9666535"><ele>673.0</ele><time>2026-04-06T10:15:40.913Z</time></trkpt><trkpt lat="44.0617916" lon="10.9664286"><ele>673.0</ele><time>2026-04-06T10:15:41.923Z</time></trkpt><trkpt lat="44.0616654" lon="10.9662083"><ele>673.0</ele><time>2026-04-06T10:15:42.912Z</time></trkpt><trkpt lat="44.0615257" lon="10.9659494"><ele>680.0</ele><time>2026-04-06T10:15:43.912Z</time></trkpt><trkpt lat="44.0614035" lon="10.9657289"><ele>687.0</ele><time>2026-04-06T10:15:44.92Z</time></trkpt><trkpt lat="44.0613305" lon="10.9656099"><ele>694.0</ele><time>2026-04-06T10:15:45.926Z</time></trkpt><trkpt lat="44.0612126" lon="10.9655196"><ele>701.0</ele><time>2026-04-06T10:15:46.913Z</time></trkpt><trkpt lat="44.061095" lon="10.9654171"><ele>701.0</ele><time>2026-04-06T10:15:47.919Z</time></trkpt><trkpt lat="44.0610037" lon="10.9652884"><ele>701.0</ele><time>2026-04-06T10:15:48.914Z</time></trkpt><trkpt lat="44.0609206" lon="10.9651266"><ele>701.0</ele><time>2026-04-06T10:15:49.919Z</time></trkpt><trkpt lat="44.0608407" lon="10.9649708"><ele>701.0</ele><time>2026-04-06T10:15:50.912Z</time></trkpt><trkpt lat="44.0607491" lon="10.9648164"><ele>708.6666666666666</ele><time>2026-04-06T10:15:51.914Z</time></trkpt><trkpt lat="44.0606617" lon="10.9646392"><ele>716.3333333333334</ele><time>2026-04-06T10:15:52.915Z</time></trkpt><trkpt lat="44.0605582" lon="10.9644588"><ele>724.0</ele><time>2026-04-06T10:15:53.922Z</time></trkpt><trkpt lat="44.0604679" lon="10.9642492"><ele>718.6666666666667</ele><time>2026-04-06T10:15:54.917Z</time></trkpt><trkpt lat="44.0603677" lon="10.9640496"><ele>713.3333333333334</ele><time>2026-04-06T10:15:55.913Z</time></trkpt><trkpt lat="44.0603073" lon="10.9638569"><ele>708.0</ele><time>2026-04-06T10:15:56.913Z</time></trkpt><trkpt lat="44.060251" lon="10.9636661"><ele>708.0</ele><time>2026-04-06T10:15:57.911Z</time></trkpt><trkpt lat="44.0601957" lon="10.9635107"><ele>708.0</ele><time>2026-04-06T10:15:58.914Z</time></trkpt><trkpt lat="44.0601532" lon="10.9633487"><ele>708.0</ele><time>2026-04-06T10:15:59.912Z</time></trkpt><trkpt lat="44.0601086" lon="10.9632087"><ele>708.0</ele><time>2026-04-06T10:16:00.921Z</time></trkpt><trkpt lat="44.0600776" lon="10.9630584"><ele>709.8333333333334</ele><time>2026-04-06T10:16:01.915Z</time></trkpt><trkpt lat="44.0600599" lon="10.9629389"><ele>711.6666666666666</ele><time>2026-04-06T10:16:02.919Z</time></trkpt><trkpt lat="44.060062" lon="10.9628283"><ele>713.5</ele><time>2026-04-06T10:16:03.913Z</time></trkpt><trkpt lat="44.060047" lon="10.9627391"><ele>715.3333333333333</ele><time>2026-04-06T10:16:04.915Z</time></trkpt><trkpt lat="44.0600139" lon="10.9626624"><ele>717.1666666666666</ele><time>2026-04-06T10:16:07.914Z</time></trkpt><trkpt lat="44.059945" lon="10.9626856"><ele>719.0</ele><time>2026-04-06T10:18:01.92Z</time></trkpt><trkpt lat="44.0597416" lon="10.9624864"><ele>712.6</ele><time>2026-04-06T10:18:11.91Z</time></trkpt><trkpt lat="44.0596612" lon="10.9623766"><ele>706.2</ele><time>2026-04-06T10:18:12.912Z</time></trkpt><trkpt lat="44.0595482" lon="10.9623186"><ele>699.8000000000001</ele><time>2026-04-06T10:18:13.912Z</time></trkpt><trkpt lat="44.0594359" lon="10.9622965"><ele>693.4000000000001</ele><time>2026-04-06T10:18:14.914Z</time></trkpt><trkpt lat="44.059346" lon="10.962247"><ele>687.0</ele><time>2026-04-06T10:18:15.913Z</time></trkpt><trkpt lat="44.059234" lon="10.9622796"><ele>687.0</ele><time>2026-04-06T10:18:16.917Z</time></trkpt><trkpt lat="44.0591225" lon="10.9622912"><ele>687.0</ele><time>2026-04-06T10:18:17.91Z</time></trkpt><trkpt lat="44.0590107" lon="10.9622617"><ele>687.0</ele><time>2026-04-06T10:18:18.911Z</time></trkpt><trkpt lat="44.0588948" lon="10.9622152"><ele>687.0</ele><time>2026-04-06T10:18:19.918Z</time></trkpt><trkpt lat="44.0587813" lon="10.9620975"><ele>689.3333333333334</ele><time>2026-04-06T10:18:20.912Z</time></trkpt><trkpt lat="44.0586845" lon="10.9619366"><ele>691.6666666666667</ele><time>2026-04-06T10:18:21.913Z</time></trkpt><trkpt lat="44.0586294" lon="10.9617535"><ele>694.0</ele><time>2026-04-06T10:18:22.911Z</time></trkpt><trkpt lat="44.0585603" lon="10.9615513"><ele>694.0</ele><time>2026-04-06T10:18:23.914Z</time></trkpt><trkpt lat="44.0584861" lon="10.9613597"><ele>694.0</ele><time>2026-04-06T10:18:24.913Z</time></trkpt><trkpt lat="44.0584109" lon="10.9612043"><ele>694.0</ele><time>2026-04-06T10:18:25.912Z</time></trkpt><trkpt lat="44.058311" lon="10.9610267"><ele>699.6666666666667</ele><time>2026-04-06T10:18:26.913Z</time></trkpt><trkpt lat="44.0582052" lon="10.9608644"><ele>705.3333333333334</ele><time>2026-04-06T10:18:27.917Z</time></trkpt><trkpt lat="44.0581006" lon="10.9607257"><ele>711.0</ele><time>2026-04-06T10:18:28.916Z</time></trkpt><trkpt lat="44.0579596" lon="10.960614"><ele>711.0</ele><time>2026-04-06T10:18:29.932Z</time></trkpt><trkpt lat="44.0578232" lon="10.9605647"><ele>711.0</ele><time>2026-04-06T10:18:30.913Z</time></trkpt><trkpt lat="44.0577082" lon="10.9604919"><ele>711.0</ele><time>2026-04-06T10:18:31.913Z</time></trkpt><trkpt lat="44.0575646" lon="10.9604536"><ele>711.0</ele><time>2026-04-06T10:18:32.912Z</time></trkpt><trkpt lat="44.0574245" lon="10.9603733"><ele>715.6666666666666</ele><time>2026-04-06T10:18:33.915Z</time></trkpt><trkpt lat="44.0573038" lon="10.9602552"><ele>720.3333333333333</ele><time>2026-04-06T10:18:34.914Z</time></trkpt><trkpt lat="44.0571567" lon="10.9601334"><ele>725.0</ele><time>2026-04-06T10:18:35.915Z</time></trkpt><trkpt lat="44.0570149" lon="10.9599956"><ele>725.0</ele><time>2026-04-06T10:18:36.925Z</time></trkpt><trkpt lat="44.0568717" lon="10.9598525"><ele>725.0</ele><time>2026-04-06T10:18:37.913Z</time></trkpt><trkpt lat="44.0567409" lon="10.9597145"><ele>725.0</ele><time>2026-04-06T10:18:38.912Z</time></trkpt><trkpt lat="44.0566119" lon="10.9595661"><ele>729.0</ele><time>2026-04-06T10:18:39.91Z</time></trkpt><trkpt lat="44.0564927" lon="10.9594274"><ele>733.0</ele><time>2026-04-06T10:18:40.921Z</time></trkpt><trkpt lat="44.0563962" lon="10.9592671"><ele>737.0</ele><time>2026-04-06T10:18:41.914Z</time></trkpt><trkpt lat="44.0563119" lon="10.959075"><ele>737.0</ele><time>2026-04-06T10:18:42.914Z</time></trkpt><trkpt lat="44.0562687" lon="10.9588607"><ele>737.0</ele><time>2026-04-06T10:18:43.913Z</time></trkpt><trkpt lat="44.0562317" lon="10.9586294"><ele>737.0</ele><time>2026-04-06T10:18:44.91Z</time></trkpt><trkpt lat="44.056168" lon="10.9584308"><ele>731.3333333333333</ele><time>2026-04-06T10:18:45.908Z</time></trkpt><trkpt lat="44.0560823" lon="10.958254"><ele>725.6666666666666</ele><time>2026-04-06T10:18:46.912Z</time></trkpt><trkpt lat="44.0559604" lon="10.9581064"><ele>720.0</ele><time>2026-04-06T10:18:47.914Z</time></trkpt><trkpt lat="44.0558308" lon="10.957961"><ele>721.0</ele><time>2026-04-06T10:18:48.911Z</time></trkpt><trkpt lat="44.0556492" lon="10.9578442"><ele>722.0</ele><time>2026-04-06T10:18:49.913Z</time></trkpt><trkpt lat="44.0554712" lon="10.9577917"><ele>723.0</ele><time>2026-04-06T10:18:50.912Z</time></trkpt><trkpt lat="44.0553323" lon="10.9577586"><ele>723.0</ele><time>2026-04-06T10:18:51.915Z</time></trkpt><trkpt lat="44.0551752" lon="10.9577743"><ele>723.0</ele><time>2026-04-06T10:18:52.914Z</time></trkpt><trkpt lat="44.0550389" lon="10.9577659"><ele>723.0</ele><time>2026-04-06T10:18:53.913Z</time></trkpt><trkpt lat="44.0549094" lon="10.9578182"><ele>723.0</ele><time>2026-04-06T10:18:54.919Z</time></trkpt><trkpt lat="44.0548186" lon="10.9580116"><ele>723.0</ele><time>2026-04-06T10:18:55.917Z</time></trkpt><trkpt lat="44.0547046" lon="10.9581634"><ele>723.0</ele><time>2026-04-06T10:18:56.911Z</time></trkpt><trkpt lat="44.0546238" lon="10.9583802"><ele>723.0</ele><time>2026-04-06T10:18:57.92Z</time></trkpt><trkpt lat="44.0545153" lon="10.9585496"><ele>723.0</ele><time>2026-04-06T10:18:58.912Z</time></trkpt><trkpt lat="44.0543842" lon="10.958701"><ele>723.0</ele><time>2026-04-06T10:18:59.912Z</time></trkpt><trkpt lat="44.054236" lon="10.9588018"><ele>723.0</ele><time>2026-04-06T10:19:00.916Z</time></trkpt><trkpt lat="44.0540761" lon="10.9588355"><ele>725.6666666666666</ele><time>2026-04-06T10:19:01.913Z</time></trkpt><trkpt lat="44.0539228" lon="10.9588519"><ele>728.3333333333333</ele><time>2026-04-06T10:19:02.912Z</time></trkpt><trkpt lat="44.0537645" lon="10.9588585"><ele>731.0</ele><time>2026-04-06T10:19:03.911Z</time></trkpt><trkpt lat="44.0535844" lon="10.9588491"><ele>731.0</ele><time>2026-04-06T10:19:04.917Z</time></trkpt><trkpt lat="44.0534598" lon="10.958828"><ele>731.0</ele><time>2026-04-06T10:19:05.912Z</time></trkpt><trkpt lat="44.0533082" lon="10.9587555"><ele>731.0</ele><time>2026-04-06T10:19:06.914Z</time></trkpt><trkpt lat="44.0531584" lon="10.9585591"><ele>731.3333333333333</ele><time>2026-04-06T10:19:07.911Z</time></trkpt><trkpt lat="44.0530025" lon="10.9584206"><ele>731.6666666666666</ele><time>2026-04-06T10:19:08.912Z</time></trkpt><trkpt lat="44.0528396" lon="10.9582888"><ele>732.0</ele><time>2026-04-06T10:19:09.912Z</time></trkpt><trkpt lat="44.0526781" lon="10.9581546"><ele>732.0</ele><time>2026-04-06T10:19:10.913Z</time></trkpt><trkpt lat="44.0525107" lon="10.9580315"><ele>732.0</ele><time>2026-04-06T10:19:11.913Z</time></trkpt><trkpt lat="44.0523567" lon="10.9579192"><ele>732.0</ele><time>2026-04-06T10:19:12.917Z</time></trkpt><trkpt lat="44.0522199" lon="10.9577837"><ele>733.6666666666666</ele><time>2026-04-06T10:19:13.911Z</time></trkpt><trkpt lat="44.0521056" lon="10.9576142"><ele>735.3333333333333</ele><time>2026-04-06T10:19:14.917Z</time></trkpt><trkpt lat="44.0519733" lon="10.9574669"><ele>737.0</ele><time>2026-04-06T10:19:15.92Z</time></trkpt><trkpt lat="44.0518982" lon="10.9572805"><ele>737.0</ele><time>2026-04-06T10:19:16.91Z</time></trkpt><trkpt lat="44.0518308" lon="10.9571064"><ele>737.0</ele><time>2026-04-06T10:19:17.914Z</time></trkpt><trkpt lat="44.0517516" lon="10.9569785"><ele>737.0</ele><time>2026-04-06T10:19:18.912Z</time></trkpt><trkpt lat="44.0516787" lon="10.9568834"><ele>737.0</ele><time>2026-04-06T10:19:19.915Z</time></trkpt><trkpt lat="44.0515993" lon="10.9568209"><ele>744.5</ele><time>2026-04-06T10:19:20.913Z</time></trkpt><trkpt lat="44.0515387" lon="10.9567726"><ele>752.0</ele><time>2026-04-06T10:19:21.912Z</time></trkpt><trkpt lat="44.0513676" lon="10.9568618"><ele>759.5</ele><time>2026-04-06T10:19:22.911Z</time></trkpt><trkpt lat="44.0512762" lon="10.95683"><ele>767.0</ele><time>2026-04-06T10:19:23.91Z</time></trkpt><trkpt lat="44.0511672" lon="10.9567394"><ele>759.3333333333333</ele><time>2026-04-06T10:19:24.913Z</time></trkpt><trkpt lat="44.0510508" lon="10.9566232"><ele>751.6666666666666</ele><time>2026-04-06T10:19:25.912Z</time></trkpt><trkpt lat="44.050923" lon="10.9565154"><ele>744.0</ele><time>2026-04-06T10:19:26.915Z</time></trkpt><trkpt lat="44.0507618" lon="10.9564605"><ele>744.0</ele><time>2026-04-06T10:19:27.916Z</time></trkpt><trkpt lat="44.0506005" lon="10.9564301"><ele>744.0</ele><time>2026-04-06T10:19:28.913Z</time></trkpt><trkpt lat="44.0504301" lon="10.9564252"><ele>744.0</ele><time>2026-04-06T10:19:29.913Z</time></trkpt><trkpt lat="44.0502647" lon="10.9564328"><ele>744.0</ele><time>2026-04-06T10:19:30.919Z</time></trkpt><trkpt lat="44.050068" lon="10.9564895"><ele>744.0</ele><time>2026-04-06T10:19:31.914Z</time></trkpt><trkpt lat="44.0499079" lon="10.9564903"><ele>744.0</ele><time>2026-04-06T10:19:32.915Z</time></trkpt><trkpt lat="44.0497255" lon="10.9564917"><ele>744.6666666666666</ele><time>2026-04-06T10:19:33.913Z</time></trkpt><trkpt lat="44.0495509" lon="10.9564772"><ele>745.3333333333333</ele><time>2026-04-06T10:19:34.912Z</time></trkpt><trkpt lat="44.0493778" lon="10.9564141"><ele>746.0</ele><time>2026-04-06T10:19:35.915Z</time></trkpt><trkpt lat="44.0492162" lon="10.956348"><ele>755.0</ele><time>2026-04-06T10:19:36.91Z</time></trkpt><trkpt lat="44.0490468" lon="10.9562341"><ele>764.0</ele><time>2026-04-06T10:19:37.911Z</time></trkpt><trkpt lat="44.0488888" lon="10.9561388"><ele>773.0</ele><time>2026-04-06T10:19:38.91Z</time></trkpt><trkpt lat="44.0487348" lon="10.9560205"><ele>773.0</ele><time>2026-04-06T10:19:39.912Z</time></trkpt><trkpt lat="44.048566" lon="10.9559244"><ele>773.0</ele><time>2026-04-06T10:19:40.914Z</time></trkpt><trkpt lat="44.0484008" lon="10.955796"><ele>773.0</ele><time>2026-04-06T10:19:41.915Z</time></trkpt><trkpt lat="44.0482283" lon="10.9556678"><ele>770.3333333333334</ele><time>2026-04-06T10:19:42.912Z</time></trkpt><trkpt lat="44.048048" lon="10.9555145"><ele>767.6666666666667</ele><time>2026-04-06T10:19:43.912Z</time></trkpt><trkpt lat="44.0478542" lon="10.9553904"><ele>765.0</ele><time>2026-04-06T10:19:44.916Z</time></trkpt><trkpt lat="44.0476869" lon="10.9553155"><ele>765.0</ele><time>2026-04-06T10:19:45.913Z</time></trkpt><trkpt lat="44.0474774" lon="10.9553414"><ele>765.0</ele><time>2026-04-06T10:19:46.915Z</time></trkpt><trkpt lat="44.047284" lon="10.9553744"><ele>765.0</ele><time>2026-04-06T10:19:47.912Z</time></trkpt><trkpt lat="44.0470874" lon="10.955369"><ele>770.6666666666667</ele><time>2026-04-06T10:19:48.91Z</time></trkpt><trkpt lat="44.0469078" lon="10.9553437"><ele>776.3333333333334</ele><time>2026-04-06T10:19:49.912Z</time></trkpt><trkpt lat="44.0467178" lon="10.9552918"><ele>782.0</ele><time>2026-04-06T10:19:50.915Z</time></trkpt><trkpt lat="44.0465603" lon="10.9551609"><ele>777.0</ele><time>2026-04-06T10:19:51.915Z</time></trkpt><trkpt lat="44.0463983" lon="10.9550083"><ele>772.0</ele><time>2026-04-06T10:19:52.912Z</time></trkpt><trkpt lat="44.0462458" lon="10.9548489"><ele>767.0</ele><time>2026-04-06T10:19:53.916Z</time></trkpt><trkpt lat="44.0460969" lon="10.9546911"><ele>767.0</ele><time>2026-04-06T10:19:54.914Z</time></trkpt><trkpt lat="44.0459248" lon="10.9545279"><ele>767.0</ele><time>2026-04-06T10:19:55.911Z</time></trkpt><trkpt lat="44.0457842" lon="10.9543162"><ele>767.0</ele><time>2026-04-06T10:19:56.913Z</time></trkpt><trkpt lat="44.0456096" lon="10.9541478"><ele>767.6666666666666</ele><time>2026-04-06T10:19:57.914Z</time></trkpt><trkpt lat="44.0454341" lon="10.9539928"><ele>768.3333333333333</ele><time>2026-04-06T10:19:58.912Z</time></trkpt><trkpt lat="44.0452673" lon="10.9538335"><ele>769.0</ele><time>2026-04-06T10:19:59.912Z</time></trkpt><trkpt lat="44.0450861" lon="10.9536714"><ele>766.0</ele><time>2026-04-06T10:20:00.91Z</time></trkpt><trkpt lat="44.0449126" lon="10.9535283"><ele>763.0</ele><time>2026-04-06T10:20:01.912Z</time></trkpt><trkpt lat="44.0447513" lon="10.9533755"><ele>760.0</ele><time>2026-04-06T10:20:02.916Z</time></trkpt><trkpt lat="44.0446031" lon="10.9532293"><ele>760.0</ele><time>2026-04-06T10:20:03.913Z</time></trkpt><trkpt lat="44.0444211" lon="10.9531394"><ele>760.0</ele><time>2026-04-06T10:20:04.911Z</time></trkpt><trkpt lat="44.0442811" lon="10.9530021"><ele>760.0</ele><time>2026-04-06T10:20:05.919Z</time></trkpt><trkpt lat="44.0441288" lon="10.9529135"><ele>761.0</ele><time>2026-04-06T10:20:06.913Z</time></trkpt><trkpt lat="44.0439745" lon="10.9527993"><ele>762.0</ele><time>2026-04-06T10:20:07.913Z</time></trkpt><trkpt lat="44.0438176" lon="10.9526542"><ele>763.0</ele><time>2026-04-06T10:20:08.916Z</time></trkpt><trkpt lat="44.0436398" lon="10.952514"><ele>763.3333333333334</ele><time>2026-04-06T10:20:09.911Z</time></trkpt><trkpt lat="44.043451" lon="10.9523984"><ele>763.6666666666666</ele><time>2026-04-06T10:20:10.916Z</time></trkpt><trkpt lat="44.0432437" lon="10.9523788"><ele>764.0</ele><time>2026-04-06T10:20:11.913Z</time></trkpt><trkpt lat="44.043062" lon="10.9523072"><ele>764.3333333333333</ele><time>2026-04-06T10:20:12.911Z</time></trkpt><trkpt lat="44.0428484" lon="10.9522738"><ele>764.6666666666666</ele><time>2026-04-06T10:20:13.914Z</time></trkpt><trkpt lat="44.0426459" lon="10.9522244"><ele>765.0</ele><time>2026-04-06T10:20:14.913Z</time></trkpt><trkpt lat="44.0424608" lon="10.9521664"><ele>765.0</ele><time>2026-04-06T10:20:15.914Z</time></trkpt><trkpt lat="44.0422705" lon="10.9521137"><ele>765.0</ele><time>2026-04-06T10:20:16.92Z</time></trkpt><trkpt lat="44.0420883" lon="10.9520487"><ele>765.0</ele><time>2026-04-06T10:20:17.913Z</time></trkpt><trkpt lat="44.0419227" lon="10.9519657"><ele>765.0</ele><time>2026-04-06T10:20:18.915Z</time></trkpt><trkpt lat="44.0417659" lon="10.9518641"><ele>765.0</ele><time>2026-04-06T10:20:19.911Z</time></trkpt><trkpt lat="44.0416109" lon="10.9517298"><ele>765.0</ele><time>2026-04-06T10:20:20.912Z</time></trkpt><trkpt lat="44.0414398" lon="10.9516264"><ele>767.3333333333333</ele><time>2026-04-06T10:20:21.915Z</time></trkpt><trkpt lat="44.041267" lon="10.9515117"><ele>769.6666666666666</ele><time>2026-04-06T10:20:22.912Z</time></trkpt><trkpt lat="44.0410891" lon="10.9514193"><ele>772.0</ele><time>2026-04-06T10:20:23.914Z</time></trkpt><trkpt lat="44.0409232" lon="10.9512992"><ele>781.3333333333333</ele><time>2026-04-06T10:20:24.911Z</time></trkpt><trkpt lat="44.0407454" lon="10.9512052"><ele>790.6666666666667</ele><time>2026-04-06T10:20:25.919Z</time></trkpt><trkpt lat="44.0405768" lon="10.9510955"><ele>800.0</ele><time>2026-04-06T10:20:26.912Z</time></trkpt><trkpt lat="44.0404013" lon="10.9509822"><ele>794.0</ele><time>2026-04-06T10:20:27.912Z</time></trkpt><trkpt lat="44.0402365" lon="10.9508571"><ele>788.0</ele><time>2026-04-06T10:20:28.912Z</time></trkpt><trkpt lat="44.0400676" lon="10.9507264"><ele>782.0</ele><time>2026-04-06T10:20:29.911Z</time></trkpt><trkpt lat="44.0399013" lon="10.950592"><ele>782.0</ele><time>2026-04-06T10:20:30.911Z</time></trkpt><trkpt lat="44.0397424" lon="10.9504499"><ele>782.0</ele><time>2026-04-06T10:20:31.922Z</time></trkpt><trkpt lat="44.0395811" lon="10.9503083"><ele>782.0</ele><time>2026-04-06T10:20:32.913Z</time></trkpt><trkpt lat="44.0394114" lon="10.9501764"><ele>782.0</ele><time>2026-04-06T10:20:33.912Z</time></trkpt><trkpt lat="44.0392432" lon="10.9500428"><ele>782.0</ele><time>2026-04-06T10:20:34.913Z</time></trkpt><trkpt lat="44.0390901" lon="10.9498821"><ele>782.0</ele><time>2026-04-06T10:20:35.915Z</time></trkpt><trkpt lat="44.038931" lon="10.9497285"><ele>785.0</ele><time>2026-04-06T10:20:36.913Z</time></trkpt><trkpt lat="44.0387788" lon="10.9495708"><ele>788.0</ele><time>2026-04-06T10:20:37.917Z</time></trkpt><trkpt lat="44.038624" lon="10.9494266"><ele>791.0</ele><time>2026-04-06T10:20:38.912Z</time></trkpt><trkpt lat="44.0384605" lon="10.9492724"><ele>791.0</ele><time>2026-04-06T10:20:39.917Z</time></trkpt><trkpt lat="44.0383013" lon="10.9491154"><ele>791.0</ele><time>2026-04-06T10:20:40.917Z</time></trkpt><trkpt lat="44.0381452" lon="10.9489461"><ele>791.0</ele><time>2026-04-06T10:20:41.913Z</time></trkpt><trkpt lat="44.0379843" lon="10.9488092"><ele>791.0</ele><time>2026-04-06T10:20:42.912Z</time></trkpt><trkpt lat="44.0378175" lon="10.9486784"><ele>791.0</ele><time>2026-04-06T10:20:43.932Z</time></trkpt><trkpt lat="44.0376402" lon="10.9485942"><ele>791.0</ele><time>2026-04-06T10:20:44.913Z</time></trkpt><trkpt lat="44.0374642" lon="10.9484894"><ele>794.0</ele><time>2026-04-06T10:20:45.912Z</time></trkpt><trkpt lat="44.037263" lon="10.9483978"><ele>797.0</ele><time>2026-04-06T10:20:46.919Z</time></trkpt><trkpt lat="44.0371092" lon="10.9482531"><ele>800.0</ele><time>2026-04-06T10:20:47.922Z</time></trkpt><trkpt lat="44.0369784" lon="10.948084"><ele>800.0</ele><time>2026-04-06T10:20:48.911Z</time></trkpt><trkpt lat="44.0368678" lon="10.9478951"><ele>800.0</ele><time>2026-04-06T10:20:49.917Z</time></trkpt><trkpt lat="44.0367289" lon="10.94772"><ele>800.0</ele><time>2026-04-06T10:20:50.911Z</time></trkpt><trkpt lat="44.0366066" lon="10.9475153"><ele>799.3333333333334</ele><time>2026-04-06T10:20:51.91Z</time></trkpt><trkpt lat="44.0364882" lon="10.9473077"><ele>798.6666666666667</ele><time>2026-04-06T10:20:52.915Z</time></trkpt><trkpt lat="44.0363513" lon="10.9471107"><ele>798.0</ele><time>2026-04-06T10:20:53.917Z</time></trkpt><trkpt lat="44.0362387" lon="10.9469041"><ele>795.0</ele><time>2026-04-06T10:20:54.913Z</time></trkpt><trkpt lat="44.0361323" lon="10.94668"><ele>792.0</ele><time>2026-04-06T10:20:55.927Z</time></trkpt><trkpt lat="44.0360389" lon="10.9464759"><ele>789.0</ele><time>2026-04-06T10:20:56.914Z</time></trkpt><trkpt lat="44.0359704" lon="10.9462232"><ele>789.0</ele><time>2026-04-06T10:20:57.916Z</time></trkpt><trkpt lat="44.0358891" lon="10.9459937"><ele>789.0</ele><time>2026-04-06T10:20:58.922Z</time></trkpt><trkpt lat="44.0358044" lon="10.9457608"><ele>789.0</ele><time>2026-04-06T10:20:59.921Z</time></trkpt><trkpt lat="44.0357147" lon="10.9455322"><ele>790.3333333333333</ele><time>2026-04-06T10:21:00.918Z</time></trkpt><trkpt lat="44.0356304" lon="10.9453157"><ele>791.6666666666666</ele><time>2026-04-06T10:21:01.914Z</time></trkpt><trkpt lat="44.0355268" lon="10.9450875"><ele>793.0</ele><time>2026-04-06T10:21:02.917Z</time></trkpt><trkpt lat="44.035422" lon="10.9448586"><ele>793.0</ele><time>2026-04-06T10:21:03.913Z</time></trkpt><trkpt lat="44.035317" lon="10.9446347"><ele>793.0</ele><time>2026-04-06T10:21:04.91Z</time></trkpt><trkpt lat="44.0352132" lon="10.9444233"><ele>793.0</ele><time>2026-04-06T10:21:05.913Z</time></trkpt><trkpt lat="44.0351094" lon="10.9442012"><ele>791.3333333333333</ele><time>2026-04-06T10:21:06.911Z</time></trkpt><trkpt lat="44.0350098" lon="10.9439865"><ele>789.6666666666667</ele><time>2026-04-06T10:21:07.912Z</time></trkpt><trkpt lat="44.0349099" lon="10.9437777"><ele>788.0</ele><time>2026-04-06T10:21:08.908Z</time></trkpt><trkpt lat="44.0348016" lon="10.9435708"><ele>790.0</ele><time>2026-04-06T10:21:09.913Z</time></trkpt><trkpt lat="44.0346942" lon="10.9433646"><ele>792.0</ele><time>2026-04-06T10:21:10.912Z</time></trkpt><trkpt lat="44.0345903" lon="10.9431628"><ele>794.0</ele><time>2026-04-06T10:21:11.915Z</time></trkpt><trkpt lat="44.0344585" lon="10.9429879"><ele>794.0</ele><time>2026-04-06T10:21:12.93Z</time></trkpt><trkpt lat="44.0343136" lon="10.9428212"><ele>794.0</ele><time>2026-04-06T10:21:13.923Z</time></trkpt><trkpt lat="44.0341746" lon="10.9426563"><ele>794.0</ele><time>2026-04-06T10:21:14.913Z</time></trkpt><trkpt lat="44.0340408" lon="10.9424744"><ele>803.0</ele><time>2026-04-06T10:21:15.914Z</time></trkpt><trkpt lat="44.0339243" lon="10.942272"><ele>812.0</ele><time>2026-04-06T10:21:16.908Z</time></trkpt><trkpt lat="44.0338153" lon="10.9420582"><ele>821.0</ele><time>2026-04-06T10:21:17.907Z</time></trkpt><trkpt lat="44.0337111" lon="10.9418373"><ele>813.6666666666667</ele><time>2026-04-06T10:21:18.91Z</time></trkpt><trkpt lat="44.0336081" lon="10.9416195"><ele>806.3333333333333</ele><time>2026-04-06T10:21:19.911Z</time></trkpt><trkpt lat="44.0335075" lon="10.9413978"><ele>799.0</ele><time>2026-04-06T10:21:20.924Z</time></trkpt><trkpt lat="44.0333781" lon="10.9412069"><ele>797.6666666666666</ele><time>2026-04-06T10:21:21.913Z</time></trkpt><trkpt lat="44.0332413" lon="10.9410339"><ele>796.3333333333333</ele><time>2026-04-06T10:21:22.911Z</time></trkpt><trkpt lat="44.0330898" lon="10.9408852"><ele>795.0</ele><time>2026-04-06T10:21:23.912Z</time></trkpt><trkpt lat="44.032935" lon="10.9407625"><ele>795.0</ele><time>2026-04-06T10:21:24.917Z</time></trkpt><trkpt lat="44.032749" lon="10.9406948"><ele>795.0</ele><time>2026-04-06T10:21:25.916Z</time></trkpt><trkpt lat="44.0325718" lon="10.9406255"><ele>795.0</ele><time>2026-04-06T10:21:26.914Z</time></trkpt><trkpt lat="44.0324089" lon="10.9405507"><ele>799.6666666666667</ele><time>2026-04-06T10:21:27.915Z</time></trkpt><trkpt lat="44.0322404" lon="10.9404817"><ele>804.3333333333334</ele><time>2026-04-06T10:21:28.913Z</time></trkpt><trkpt lat="44.0320767" lon="10.9404076"><ele>809.0</ele><time>2026-04-06T10:21:29.911Z</time></trkpt><trkpt lat="44.031921" lon="10.9403298"><ele>809.0</ele><time>2026-04-06T10:21:30.911Z</time></trkpt><trkpt lat="44.0317764" lon="10.9402195"><ele>809.0</ele><time>2026-04-06T10:21:31.914Z</time></trkpt><trkpt lat="44.0316298" lon="10.9400977"><ele>809.0</ele><time>2026-04-06T10:21:32.911Z</time></trkpt><trkpt lat="44.0314984" lon="10.9399292"><ele>807.3333333333334</ele><time>2026-04-06T10:21:33.911Z</time></trkpt><trkpt lat="44.0313727" lon="10.9397617"><ele>805.6666666666667</ele><time>2026-04-06T10:21:34.915Z</time></trkpt><trkpt lat="44.0312583" lon="10.9395854"><ele>804.0</ele><time>2026-04-06T10:21:35.915Z</time></trkpt><trkpt lat="44.0311452" lon="10.9394068"><ele>804.0</ele><time>2026-04-06T10:21:36.917Z</time></trkpt><trkpt lat="44.0310375" lon="10.939223"><ele>804.0</ele><time>2026-04-06T10:21:37.912Z</time></trkpt><trkpt lat="44.0259577" lon="10.9264796"><ele>792.0</ele><time>2026-04-06T10:22:27.91Z</time></trkpt><trkpt lat="44.0257958" lon="10.9264531"><ele>780.0</ele><time>2026-04-06T10:22:28.919Z</time></trkpt><trkpt lat="44.025608" lon="10.926454"><ele>768.0</ele><time>2026-04-06T10:22:29.911Z</time></trkpt><trkpt lat="44.0253735" lon="10.9265872"><ele>768.0</ele><time>2026-04-06T10:22:30.915Z</time></trkpt><trkpt lat="44.0251811" lon="10.9266906"><ele>768.0</ele><time>2026-04-06T10:22:31.924Z</time></trkpt><trkpt lat="44.0250156" lon="10.9267624"><ele>768.0</ele><time>2026-04-06T10:22:32.911Z</time></trkpt><trkpt lat="44.0248566" lon="10.9268192"><ele>774.0</ele><time>2026-04-06T10:22:33.917Z</time></trkpt><trkpt lat="44.0247078" lon="10.9268631"><ele>780.0</ele><time>2026-04-06T10:22:34.912Z</time></trkpt><trkpt lat="44.0245764" lon="10.926889"><ele>786.0</ele><time>2026-04-06T10:22:35.927Z</time></trkpt><trkpt lat="44.0244602" lon="10.9268739"><ele>792.0</ele><time>2026-04-06T10:22:36.911Z</time></trkpt><trkpt lat="44.0243428" lon="10.9268483"><ele>792.0</ele><time>2026-04-06T10:22:37.915Z</time></trkpt><trkpt lat="44.0242233" lon="10.9268042"><ele>792.0</ele><time>2026-04-06T10:22:38.91Z</time></trkpt><trkpt lat="44.0240963" lon="10.9267614"><ele>792.0</ele><time>2026-04-06T10:22:39.91Z</time></trkpt><trkpt lat="44.0239766" lon="10.9266917"><ele>792.0</ele><time>2026-04-06T10:22:40.917Z</time></trkpt><trkpt lat="44.0238553" lon="10.9266238"><ele>790.75</ele><time>2026-04-06T10:22:41.916Z</time></trkpt><trkpt lat="44.0237331" lon="10.9265423"><ele>789.5</ele><time>2026-04-06T10:22:42.924Z</time></trkpt><trkpt lat="44.0236192" lon="10.9264563"><ele>788.25</ele><time>2026-04-06T10:22:43.919Z</time></trkpt><trkpt lat="44.023495" lon="10.9263644"><ele>787.0</ele><time>2026-04-06T10:22:44.911Z</time></trkpt><trkpt lat="44.0233603" lon="10.9262425"><ele>784.6666666666666</ele><time>2026-04-06T10:22:45.912Z</time></trkpt><trkpt lat="44.0232176" lon="10.9261125"><ele>782.3333333333333</ele><time>2026-04-06T10:22:46.92Z</time></trkpt><trkpt lat="44.0230434" lon="10.9259447"><ele>780.0</ele><time>2026-04-06T10:22:47.921Z</time></trkpt><trkpt lat="44.0228439" lon="10.925747"><ele>780.0</ele><time>2026-04-06T10:22:48.92Z</time></trkpt><trkpt lat="44.0226351" lon="10.9255289"><ele>780.0</ele><time>2026-04-06T10:22:49.913Z</time></trkpt><trkpt lat="44.0224359" lon="10.9252995"><ele>779.5</ele><time>2026-04-06T10:22:50.922Z</time></trkpt><trkpt lat="44.0222384" lon="10.9250706"><ele>779.0</ele><time>2026-04-06T10:22:51.909Z</time></trkpt><trkpt lat="44.0220448" lon="10.9248352"><ele>779.0</ele><time>2026-04-06T10:22:52.916Z</time></trkpt><trkpt lat="44.0218701" lon="10.924583"><ele>779.0</ele><time>2026-04-06T10:22:53.911Z</time></trkpt><trkpt lat="44.0217068" lon="10.924354"><ele>778.5</ele><time>2026-04-06T10:22:54.913Z</time></trkpt><trkpt lat="44.0215447" lon="10.9241247"><ele>778.0</ele><time>2026-04-06T10:22:55.92Z</time></trkpt><trkpt lat="44.0213786" lon="10.9238949"><ele>778.0</ele><time>2026-04-06T10:22:56.923Z</time></trkpt><trkpt lat="44.0212252" lon="10.9236737"><ele>778.0</ele><time>2026-04-06T10:22:57.906Z</time></trkpt><trkpt lat="44.021064" lon="10.9234912"><ele>778.0</ele><time>2026-04-06T10:22:58.915Z</time></trkpt><trkpt lat="44.0209138" lon="10.9233065"><ele>775.6666666666666</ele><time>2026-04-06T10:22:59.913Z</time></trkpt><trkpt lat="44.0207532" lon="10.9231446"><ele>773.3333333333333</ele><time>2026-04-06T10:23:00.911Z</time></trkpt><trkpt lat="44.0205646" lon="10.9230297"><ele>771.0</ele><time>2026-04-06T10:23:01.924Z</time></trkpt><trkpt lat="44.0203822" lon="10.9228971"><ele>771.0</ele><time>2026-04-06T10:23:02.912Z</time></trkpt><trkpt lat="44.0201941" lon="10.9227647"><ele>771.0</ele><time>2026-04-06T10:23:03.914Z</time></trkpt><trkpt lat="44.0200032" lon="10.9226453"><ele>771.0</ele><time>2026-04-06T10:23:04.925Z</time></trkpt><trkpt lat="44.0198152" lon="10.9225133"><ele>760.6666666666666</ele><time>2026-04-06T10:23:05.913Z</time></trkpt><trkpt lat="44.0196356" lon="10.9223914"><ele>750.3333333333333</ele><time>2026-04-06T10:23:06.923Z</time></trkpt><trkpt lat="44.0194634" lon="10.9223307"><ele>740.0</ele><time>2026-04-06T10:23:07.912Z</time></trkpt><trkpt lat="44.0192715" lon="10.9223214"><ele>732.3333333333333</ele><time>2026-04-06T10:23:08.917Z</time></trkpt><trkpt lat="44.0190972" lon="10.9223047"><ele>724.6666666666666</ele><time>2026-04-06T10:23:09.913Z</time></trkpt><trkpt lat="44.0189258" lon="10.9223305"><ele>717.0</ele><time>2026-04-06T10:23:10.912Z</time></trkpt><trkpt lat="44.0187572" lon="10.9223778"><ele>717.0</ele><time>2026-04-06T10:23:11.913Z</time></trkpt><trkpt lat="44.0185829" lon="10.9224477"><ele>717.0</ele><time>2026-04-06T10:23:12.912Z</time></trkpt><trkpt lat="44.018411" lon="10.9225843"><ele>717.0</ele><time>2026-04-06T10:23:13.908Z</time></trkpt><trkpt lat="44.0182709" lon="10.9226741"><ele>713.6666666666666</ele><time>2026-04-06T10:23:14.915Z</time></trkpt><trkpt lat="44.0181336" lon="10.9227751"><ele>710.3333333333333</ele><time>2026-04-06T10:23:15.913Z</time></trkpt><trkpt lat="44.0180679" lon="10.922979"><ele>707.0</ele><time>2026-04-06T10:23:16.91Z</time></trkpt><trkpt lat="44.0179724" lon="10.9231532"><ele>707.0</ele><time>2026-04-06T10:23:17.921Z</time></trkpt><trkpt lat="44.0179192" lon="10.9233722"><ele>707.0</ele><time>2026-04-06T10:23:18.915Z</time></trkpt><trkpt lat="44.0178593" lon="10.9235504"><ele>707.0</ele><time>2026-04-06T10:23:19.911Z</time></trkpt><trkpt lat="44.0177892" lon="10.9237232"><ele>705.6666666666666</ele><time>2026-04-06T10:23:20.916Z</time></trkpt><trkpt lat="44.0177028" lon="10.9238908"><ele>704.3333333333334</ele><time>2026-04-06T10:23:21.913Z</time></trkpt><trkpt lat="44.0175853" lon="10.9240429"><ele>703.0</ele><time>2026-04-06T10:23:22.911Z</time></trkpt><trkpt lat="44.0174761" lon="10.9241902"><ele>712.6666666666667</ele><time>2026-04-06T10:23:23.912Z</time></trkpt><trkpt lat="44.0173435" lon="10.9243013"><ele>722.3333333333334</ele><time>2026-04-06T10:23:24.915Z</time></trkpt><trkpt lat="44.0172186" lon="10.9244142"><ele>732.0</ele><time>2026-04-06T10:23:25.911Z</time></trkpt><trkpt lat="44.0170845" lon="10.9245172"><ele>732.0</ele><time>2026-04-06T10:23:26.914Z</time></trkpt><trkpt lat="44.0169419" lon="10.924572"><ele>732.0</ele><time>2026-04-06T10:23:27.911Z</time></trkpt><trkpt lat="44.0167952" lon="10.9246152"><ele>732.0</ele><time>2026-04-06T10:23:28.922Z</time></trkpt><trkpt lat="44.0166358" lon="10.9246437"><ele>724.6666666666666</ele><time>2026-04-06T10:23:29.92Z</time></trkpt><trkpt lat="44.0165035" lon="10.924656"><ele>717.3333333333333</ele><time>2026-04-06T10:23:30.913Z</time></trkpt><trkpt lat="44.0163465" lon="10.9246949"><ele>710.0</ele><time>2026-04-06T10:23:31.912Z</time></trkpt><trkpt lat="44.0161664" lon="10.9247735"><ele>710.0</ele><time>2026-04-06T10:23:32.911Z</time></trkpt><trkpt lat="44.016001" lon="10.92486"><ele>710.0</ele><time>2026-04-06T10:23:33.912Z</time></trkpt><trkpt lat="44.0158315" lon="10.9249576"><ele>710.0</ele><time>2026-04-06T10:23:34.914Z</time></trkpt><trkpt lat="44.015677" lon="10.9250705"><ele>707.0</ele><time>2026-04-06T10:23:35.912Z</time></trkpt><trkpt lat="44.0155148" lon="10.925174"><ele>704.0</ele><time>2026-04-06T10:23:36.919Z</time></trkpt><trkpt lat="44.0153804" lon="10.9252882"><ele>701.0</ele><time>2026-04-06T10:23:37.918Z</time></trkpt><trkpt lat="44.0153046" lon="10.925484"><ele>701.0</ele><time>2026-04-06T10:23:38.915Z</time></trkpt><trkpt lat="44.0151913" lon="10.9256617"><ele>701.0</ele><time>2026-04-06T10:23:39.913Z</time></trkpt><trkpt lat="44.0151033" lon="10.9258838"><ele>701.0</ele><time>2026-04-06T10:23:40.92Z</time></trkpt><trkpt lat="44.0149955" lon="10.9261232"><ele>696.0</ele><time>2026-04-06T10:23:41.913Z</time></trkpt><trkpt lat="44.0148704" lon="10.9264356"><ele>691.0</ele><time>2026-04-06T10:23:42.913Z</time></trkpt><trkpt lat="44.0147516" lon="10.9266989"><ele>694.3333333333334</ele><time>2026-04-06T10:23:43.918Z</time></trkpt><trkpt lat="44.0146289" lon="10.9269384"><ele>697.6666666666666</ele><time>2026-04-06T10:23:44.912Z</time></trkpt><trkpt lat="44.0145226" lon="10.9271908"><ele>701.0</ele><time>2026-04-06T10:23:45.912Z</time></trkpt><trkpt lat="44.014411" lon="10.9274256"><ele>706.0</ele><time>2026-04-06T10:23:46.917Z</time></trkpt><trkpt lat="44.0142561" lon="10.9276034"><ele>711.0</ele><time>2026-04-06T10:23:47.912Z</time></trkpt><trkpt lat="44.0140919" lon="10.9277406"><ele>716.0</ele><time>2026-04-06T10:23:48.92Z</time></trkpt><trkpt lat="44.0139281" lon="10.9278656"><ele>716.0</ele><time>2026-04-06T10:23:49.928Z</time></trkpt><trkpt lat="44.0137718" lon="10.9279574"><ele>716.0</ele><time>2026-04-06T10:23:50.914Z</time></trkpt><trkpt lat="44.0135943" lon="10.9279894"><ele>716.0</ele><time>2026-04-06T10:23:51.915Z</time></trkpt><trkpt lat="44.0134548" lon="10.9279743"><ele>716.5</ele><time>2026-04-06T10:23:52.915Z</time></trkpt><trkpt lat="44.0131692" lon="10.9278318"><ele>717.0</ele><time>2026-04-06T10:23:53.912Z</time></trkpt><trkpt lat="44.0128547" lon="10.9277724"><ele>717.0</ele><time>2026-04-06T10:23:54.925Z</time></trkpt><trkpt lat="44.0127059" lon="10.9276922"><ele>717.0</ele><time>2026-04-06T10:23:55.921Z</time></trkpt><trkpt lat="44.0125453" lon="10.9275802"><ele>717.0</ele><time>2026-04-06T10:23:56.911Z</time></trkpt><trkpt lat="44.0124438" lon="10.9275003"><ele>711.4000000000001</ele><time>2026-04-06T10:23:57.921Z</time></trkpt><trkpt lat="44.0123817" lon="10.9274167"><ele>705.8000000000001</ele><time>2026-04-06T10:23:58.908Z</time></trkpt><trkpt lat="44.0122784" lon="10.9273746"><ele>700.2</ele><time>2026-04-06T10:23:59.908Z</time></trkpt><trkpt lat="44.0122106" lon="10.9273692"><ele>694.6</ele><time>2026-04-06T10:24:00.911Z</time></trkpt><trkpt lat="44.0120801" lon="10.9273663"><ele>689.0</ele><time>2026-04-06T10:24:02.907Z</time></trkpt><trkpt lat="44.0120308" lon="10.9272797"><ele>689.0</ele><time>2026-04-06T10:24:08.911Z</time></trkpt><trkpt lat="44.0119502" lon="10.927272"><ele>689.0</ele><time>2026-04-06T10:24:20.909Z</time></trkpt><trkpt lat="44.011863" lon="10.9272532"><ele>689.0</ele><time>2026-04-06T10:24:54.915Z</time></trkpt><trkpt lat="44.0117926" lon="10.9272461"><ele>689.0</ele><time>2026-04-06T10:24:55.917Z</time></trkpt><trkpt lat="44.0117114" lon="10.9272165"><ele>689.0</ele><time>2026-04-06T10:24:56.914Z</time></trkpt><trkpt lat="44.0116055" lon="10.9272009"><ele>689.0</ele><time>2026-04-06T10:24:57.919Z</time></trkpt><trkpt lat="44.0114286" lon="10.9271413"><ele>688.0</ele><time>2026-04-06T10:24:58.911Z</time></trkpt><trkpt lat="44.0113059" lon="10.9270545"><ele>687.0</ele><time>2026-04-06T10:24:59.913Z</time></trkpt><trkpt lat="44.011202" lon="10.9269559"><ele>686.0</ele><time>2026-04-06T10:25:00.913Z</time></trkpt><trkpt lat="44.0110577" lon="10.9267994"><ele>685.0</ele><time>2026-04-06T10:25:01.91Z</time></trkpt><trkpt lat="44.0109278" lon="10.9266583"><ele>686.0</ele><time>2026-04-06T10:25:02.91Z</time></trkpt><trkpt lat="44.0107798" lon="10.9265314"><ele>687.0</ele><time>2026-04-06T10:25:03.908Z</time></trkpt><trkpt lat="44.0106808" lon="10.9264062"><ele>688.0</ele><time>2026-04-06T10:25:04.912Z</time></trkpt><trkpt lat="44.0105638" lon="10.9262859"><ele>688.0</ele><time>2026-04-06T10:25:05.913Z</time></trkpt><trkpt lat="44.0104271" lon="10.9262254"><ele>688.0</ele><time>2026-04-06T10:25:06.912Z</time></trkpt><trkpt lat="44.010279" lon="10.9261665"><ele>688.0</ele><time>2026-04-06T10:25:07.915Z</time></trkpt><trkpt lat="44.0101267" lon="10.9261287"><ele>695.3333333333334</ele><time>2026-04-06T10:25:08.916Z</time></trkpt><trkpt lat="44.0099635" lon="10.9260696"><ele>702.6666666666666</ele><time>2026-04-06T10:25:09.917Z</time></trkpt><trkpt lat="44.0097948" lon="10.9260162"><ele>710.0</ele><time>2026-04-06T10:25:10.915Z</time></trkpt><trkpt lat="44.009629" lon="10.9259465"><ele>700.0</ele><time>2026-04-06T10:25:11.921Z</time></trkpt><trkpt lat="44.0094819" lon="10.9258569"><ele>690.0</ele><time>2026-04-06T10:25:12.912Z</time></trkpt><trkpt lat="44.0093205" lon="10.9257276"><ele>680.0</ele><time>2026-04-06T10:25:13.917Z</time></trkpt><trkpt lat="44.009167" lon="10.9255668"><ele>677.6666666666666</ele><time>2026-04-06T10:25:14.912Z</time></trkpt><trkpt lat="44.0090573" lon="10.9253833"><ele>675.3333333333334</ele><time>2026-04-06T10:25:15.912Z</time></trkpt><trkpt lat="44.0089127" lon="10.9251934"><ele>673.0</ele><time>2026-04-06T10:25:16.913Z</time></trkpt><trkpt lat="44.0087617" lon="10.9250279"><ele>673.0</ele><time>2026-04-06T10:25:17.916Z</time></trkpt><trkpt lat="44.0086286" lon="10.9248619"><ele>673.0</ele><time>2026-04-06T10:25:18.919Z</time></trkpt><trkpt lat="44.0084682" lon="10.9247503"><ele>673.0</ele><time>2026-04-06T10:25:19.911Z</time></trkpt><trkpt lat="44.0082837" lon="10.9246806"><ele>674.6666666666667</ele><time>2026-04-06T10:25:20.914Z</time></trkpt><trkpt lat="44.0080955" lon="10.9246096"><ele>676.3333333333334</ele><time>2026-04-06T10:25:21.911Z</time></trkpt><trkpt lat="44.0079108" lon="10.9245538"><ele>678.0</ele><time>2026-04-06T10:25:22.913Z</time></trkpt><trkpt lat="44.0077378" lon="10.9244644"><ele>678.0</ele><time>2026-04-06T10:25:23.91Z</time></trkpt><trkpt lat="44.0075864" lon="10.9243412"><ele>678.0</ele><time>2026-04-06T10:25:24.921Z</time></trkpt><trkpt lat="44.0074389" lon="10.9241919"><ele>678.0</ele><time>2026-04-06T10:25:25.912Z</time></trkpt><trkpt lat="44.0073056" lon="10.9240047"><ele>672.0</ele><time>2026-04-06T10:25:26.916Z</time></trkpt><trkpt lat="44.0071421" lon="10.9238632"><ele>666.0</ele><time>2026-04-06T10:25:27.919Z</time></trkpt><trkpt lat="44.0069997" lon="10.9237584"><ele>660.0</ele><time>2026-04-06T10:25:28.913Z</time></trkpt><trkpt lat="44.0068394" lon="10.9236689"><ele>660.0</ele><time>2026-04-06T10:25:29.917Z</time></trkpt><trkpt lat="44.0066744" lon="10.9235832"><ele>660.0</ele><time>2026-04-06T10:25:30.917Z</time></trkpt><trkpt lat="44.0065073" lon="10.9234907"><ele>660.0</ele><time>2026-04-06T10:25:31.914Z</time></trkpt><trkpt lat="44.0063616" lon="10.9233812"><ele>655.0</ele><time>2026-04-06T10:25:32.912Z</time></trkpt><trkpt lat="44.006224" lon="10.9232381"><ele>650.0</ele><time>2026-04-06T10:25:33.915Z</time></trkpt><trkpt lat="44.0061057" lon="10.9230998"><ele>645.0</ele><time>2026-04-06T10:25:34.911Z</time></trkpt><trkpt lat="44.006016" lon="10.9229165"><ele>645.0</ele><time>2026-04-06T10:25:35.912Z</time></trkpt><trkpt lat="44.0059126" lon="10.9227503"><ele>645.0</ele><time>2026-04-06T10:25:36.917Z</time></trkpt><trkpt lat="44.0058242" lon="10.9225828"><ele>645.0</ele><time>2026-04-06T10:25:37.914Z</time></trkpt><trkpt lat="44.0057177" lon="10.9224203"><ele>639.3333333333334</ele><time>2026-04-06T10:25:38.916Z</time></trkpt><trkpt lat="44.0056165" lon="10.9222489"><ele>633.6666666666667</ele><time>2026-04-06T10:25:39.924Z</time></trkpt><trkpt lat="44.0055232" lon="10.9220944"><ele>628.0</ele><time>2026-04-06T10:25:40.913Z</time></trkpt><trkpt lat="44.0054396" lon="10.9219151"><ele>628.0</ele><time>2026-04-06T10:25:41.913Z</time></trkpt><trkpt lat="44.0053629" lon="10.9217488"><ele>628.0</ele><time>2026-04-06T10:25:42.911Z</time></trkpt><trkpt lat="44.0052551" lon="10.9215975"><ele>628.0</ele><time>2026-04-06T10:25:43.911Z</time></trkpt><trkpt lat="44.0051713" lon="10.9214355"><ele>628.0</ele><time>2026-04-06T10:25:44.914Z</time></trkpt><trkpt lat="44.0050806" lon="10.9212872"><ele>624.0</ele><time>2026-04-06T10:25:45.914Z</time></trkpt><trkpt lat="44.0049792" lon="10.921144"><ele>620.0</ele><time>2026-04-06T10:25:46.913Z</time></trkpt><trkpt lat="44.0048879" lon="10.9210018"><ele>616.0</ele><time>2026-04-06T10:25:47.915Z</time></trkpt><trkpt lat="44.0047913" lon="10.920868"><ele>612.0</ele><time>2026-04-06T10:25:48.915Z</time></trkpt><trkpt lat="44.0046899" lon="10.9207577"><ele>612.0</ele><time>2026-04-06T10:25:49.911Z</time></trkpt><trkpt lat="44.0045941" lon="10.9206373"><ele>612.0</ele><time>2026-04-06T10:25:50.919Z</time></trkpt><trkpt lat="44.0044841" lon="10.920521"><ele>612.0</ele><time>2026-04-06T10:25:51.912Z</time></trkpt><trkpt lat="44.0043912" lon="10.920402"><ele>612.0</ele><time>2026-04-06T10:25:52.913Z</time></trkpt><trkpt lat="44.0042794" lon="10.9202864"><ele>612.0</ele><time>2026-04-06T10:25:53.914Z</time></trkpt><trkpt lat="44.0041648" lon="10.9201748"><ele>612.0</ele><time>2026-04-06T10:25:54.917Z</time></trkpt><trkpt lat="44.0040572" lon="10.9200571"><ele>612.0</ele><time>2026-04-06T10:25:55.912Z</time></trkpt><trkpt lat="44.0039402" lon="10.919978"><ele>612.0</ele><time>2026-04-06T10:25:56.921Z</time></trkpt><trkpt lat="44.0038175" lon="10.9199084"><ele>615.25</ele><time>2026-04-06T10:25:57.913Z</time></trkpt><trkpt lat="44.0036947" lon="10.919869"><ele>618.5</ele><time>2026-04-06T10:25:58.917Z</time></trkpt><trkpt lat="44.0035896" lon="10.9198778"><ele>621.75</ele><time>2026-04-06T10:25:59.91Z</time></trkpt><trkpt lat="44.0034739" lon="10.9199353"><ele>625.0</ele><time>2026-04-06T10:26:00.909Z</time></trkpt><trkpt lat="44.0033344" lon="10.9200177"><ele>621.75</ele><time>2026-04-06T10:26:01.913Z</time></trkpt><trkpt lat="44.0031889" lon="10.9200606"><ele>618.5</ele><time>2026-04-06T10:26:02.914Z</time></trkpt><trkpt lat="44.0030553" lon="10.9200965"><ele>615.25</ele><time>2026-04-06T10:26:03.912Z</time></trkpt><trkpt lat="44.0029131" lon="10.9200892"><ele>612.0</ele><time>2026-04-06T10:26:04.915Z</time></trkpt><trkpt lat="44.0027404" lon="10.9201119"><ele>612.0</ele><time>2026-04-06T10:26:05.913Z</time></trkpt><trkpt lat="44.0025565" lon="10.9200188"><ele>612.0</ele><time>2026-04-06T10:26:06.918Z</time></trkpt><trkpt lat="44.0024318" lon="10.9198717"><ele>612.0</ele><time>2026-04-06T10:26:07.921Z</time></trkpt><trkpt lat="44.0023365" lon="10.9196989"><ele>609.0</ele><time>2026-04-06T10:26:08.909Z</time></trkpt><trkpt lat="44.0022228" lon="10.919563"><ele>606.0</ele><time>2026-04-06T10:26:09.915Z</time></trkpt><trkpt lat="44.0021198" lon="10.9193968"><ele>603.0</ele><time>2026-04-06T10:26:10.91Z</time></trkpt><trkpt lat="44.0020365" lon="10.9192385"><ele>600.0</ele><time>2026-04-06T10:26:11.906Z</time></trkpt><trkpt lat="44.0019453" lon="10.9190859"><ele>600.0</ele><time>2026-04-06T10:26:12.91Z</time></trkpt><trkpt lat="44.0018747" lon="10.9189419"><ele>600.0</ele><time>2026-04-06T10:26:13.916Z</time></trkpt><trkpt lat="44.0018645" lon="10.9187386"><ele>600.0</ele><time>2026-04-06T10:26:14.927Z</time></trkpt><trkpt lat="44.0018208" lon="10.918555"><ele>600.0</ele><time>2026-04-06T10:26:15.916Z</time></trkpt><trkpt lat="44.0017681" lon="10.9183971"><ele>602.0</ele><time>2026-04-06T10:26:16.91Z</time></trkpt><trkpt lat="44.0017053" lon="10.9182392"><ele>604.0</ele><time>2026-04-06T10:26:17.909Z</time></trkpt><trkpt lat="44.0015824" lon="10.9181095"><ele>606.0</ele><time>2026-04-06T10:26:18.916Z</time></trkpt><trkpt lat="44.0014999" lon="10.9179443"><ele>608.0</ele><time>2026-04-06T10:26:19.923Z</time></trkpt><trkpt lat="44.0014288" lon="10.9177464"><ele>602.0</ele><time>2026-04-06T10:26:20.912Z</time></trkpt><trkpt lat="44.0014263" lon="10.9175"><ele>596.0</ele><time>2026-04-06T10:26:21.922Z</time></trkpt><trkpt lat="44.0014271" lon="10.9172646"><ele>590.0</ele><time>2026-04-06T10:26:22.911Z</time></trkpt><trkpt lat="44.0014541" lon="10.91704"><ele>590.0</ele><time>2026-04-06T10:26:23.914Z</time></trkpt><trkpt lat="44.0015317" lon="10.9168335"><ele>590.0</ele><time>2026-04-06T10:26:24.918Z</time></trkpt><trkpt lat="44.0016439" lon="10.9165973"><ele>590.0</ele><time>2026-04-06T10:26:25.913Z</time></trkpt><trkpt lat="44.0017844" lon="10.9164216"><ele>592.0</ele><time>2026-04-06T10:26:26.916Z</time></trkpt><trkpt lat="44.0019301" lon="10.9162716"><ele>594.0</ele><time>2026-04-06T10:26:27.914Z</time></trkpt><trkpt lat="44.0020912" lon="10.916203"><ele>596.0</ele><time>2026-04-06T10:26:28.922Z</time></trkpt><trkpt lat="44.0022797" lon="10.9161896"><ele>596.0</ele><time>2026-04-06T10:26:29.915Z</time></trkpt><trkpt lat="44.0024121" lon="10.9161218"><ele>596.0</ele><time>2026-04-06T10:26:30.911Z</time></trkpt><trkpt lat="44.0025487" lon="10.9160638"><ele>596.0</ele><time>2026-04-06T10:26:31.911Z</time></trkpt><trkpt lat="44.0026578" lon="10.9161148"><ele>596.0</ele><time>2026-04-06T10:26:32.921Z</time></trkpt><trkpt lat="44.0027387" lon="10.9160609"><ele>594.25</ele><time>2026-04-06T10:26:33.916Z</time></trkpt><trkpt lat="44.0027861" lon="10.9158839"><ele>592.5</ele><time>2026-04-06T10:26:35.916Z</time></trkpt><trkpt lat="44.0027001" lon="10.9157973"><ele>590.75</ele><time>2026-04-06T10:26:36.912Z</time></trkpt><trkpt lat="44.0026014" lon="10.9157302"><ele>589.0</ele><time>2026-04-06T10:26:37.916Z</time></trkpt><trkpt lat="44.0023734" lon="10.9158239"><ele>591.3333333333334</ele><time>2026-04-06T10:26:38.916Z</time></trkpt><trkpt lat="44.0021662" lon="10.9159673"><ele>593.6666666666666</ele><time>2026-04-06T10:26:39.914Z</time></trkpt><trkpt lat="44.0019803" lon="10.9160763"><ele>596.0</ele><time>2026-04-06T10:26:40.916Z</time></trkpt><trkpt lat="44.0017963" lon="10.9162257"><ele>590.6666666666666</ele><time>2026-04-06T10:26:41.915Z</time></trkpt><trkpt lat="44.0016124" lon="10.9163749"><ele>585.3333333333334</ele><time>2026-04-06T10:26:42.917Z</time></trkpt><trkpt lat="44.0014664" lon="10.9165126"><ele>580.0</ele><time>2026-04-06T10:26:43.913Z</time></trkpt><trkpt lat="44.0013168" lon="10.9166555"><ele>583.3333333333334</ele><time>2026-04-06T10:26:44.913Z</time></trkpt><trkpt lat="44.0011558" lon="10.9167701"><ele>586.6666666666666</ele><time>2026-04-06T10:26:45.914Z</time></trkpt><trkpt lat="44.0010028" lon="10.9169004"><ele>590.0</ele><time>2026-04-06T10:26:46.919Z</time></trkpt><trkpt lat="44.0008727" lon="10.9170279"><ele>584.3333333333333</ele><time>2026-04-06T10:26:47.911Z</time></trkpt><trkpt lat="44.0007252" lon="10.9171414"><ele>578.6666666666666</ele><time>2026-04-06T10:26:48.912Z</time></trkpt><trkpt lat="44.0005998" lon="10.9172687"><ele>573.0</ele><time>2026-04-06T10:26:49.912Z</time></trkpt><trkpt lat="44.0004548" lon="10.9173841"><ele>573.0</ele><time>2026-04-06T10:26:50.911Z</time></trkpt><trkpt lat="44.0003329" lon="10.917543"><ele>573.0</ele><time>2026-04-06T10:26:51.91Z</time></trkpt><trkpt lat="44.00019" lon="10.9176884"><ele>573.0</ele><time>2026-04-06T10:26:52.912Z</time></trkpt><trkpt lat="44.0000483" lon="10.9178441"><ele>573.25</ele><time>2026-04-06T10:26:53.911Z</time></trkpt><trkpt lat="43.9999325" lon="10.9179733"><ele>573.5</ele><time>2026-04-06T10:26:54.918Z</time></trkpt><trkpt lat="43.9998293" lon="10.918114"><ele>573.75</ele><time>2026-04-06T10:26:55.915Z</time></trkpt><trkpt lat="43.9997398" lon="10.9182395"><ele>574.0</ele><time>2026-04-06T10:26:56.911Z</time></trkpt><trkpt lat="43.99964" lon="10.9183643"><ele>568.75</ele><time>2026-04-06T10:26:57.912Z</time></trkpt><trkpt lat="43.9995533" lon="10.9184851"><ele>563.5</ele><time>2026-04-06T10:26:58.91Z</time></trkpt><trkpt lat="43.999455" lon="10.9185954"><ele>558.25</ele><time>2026-04-06T10:26:59.916Z</time></trkpt><trkpt lat="43.9993351" lon="10.9186883"><ele>553.0</ele><time>2026-04-06T10:27:00.914Z</time></trkpt><trkpt lat="43.9992047" lon="10.9187485"><ele>553.6666666666667</ele><time>2026-04-06T10:27:01.919Z</time></trkpt><trkpt lat="43.9990528" lon="10.9187759"><ele>554.3333333333334</ele><time>2026-04-06T10:27:02.915Z</time></trkpt><trkpt lat="43.9988997" lon="10.9187939"><ele>555.0</ele><time>2026-04-06T10:27:03.91Z</time></trkpt><trkpt lat="43.9987453" lon="10.9188189"><ele>555.0</ele><time>2026-04-06T10:27:04.915Z</time></trkpt><trkpt lat="43.9985969" lon="10.9188361"><ele>555.0</ele><time>2026-04-06T10:27:05.916Z</time></trkpt><trkpt lat="43.9984237" lon="10.9188386"><ele>555.0</ele><time>2026-04-06T10:27:06.918Z</time></trkpt><trkpt lat="43.9982669" lon="10.9188741"><ele>557.3333333333334</ele><time>2026-04-06T10:27:07.909Z</time></trkpt><trkpt lat="43.9981209" lon="10.9189353"><ele>559.6666666666667</ele><time>2026-04-06T10:27:08.912Z</time></trkpt><trkpt lat="43.9979744" lon="10.9190147"><ele>562.0</ele><time>2026-04-06T10:27:09.915Z</time></trkpt><trkpt lat="43.9978548" lon="10.9191677"><ele>560.25</ele><time>2026-04-06T10:27:10.917Z</time></trkpt><trkpt lat="43.9977382" lon="10.9193034"><ele>558.5</ele><time>2026-04-06T10:27:11.913Z</time></trkpt><trkpt lat="43.9976349" lon="10.919421"><ele>556.75</ele><time>2026-04-06T10:27:12.915Z</time></trkpt><trkpt lat="43.9975115" lon="10.9195168"><ele>555.0</ele><time>2026-04-06T10:27:13.912Z</time></trkpt><trkpt lat="43.9973926" lon="10.9195893"><ele>555.0</ele><time>2026-04-06T10:27:14.919Z</time></trkpt><trkpt lat="43.9972751" lon="10.9196402"><ele>555.0</ele><time>2026-04-06T10:27:15.915Z</time></trkpt><trkpt lat="43.9971125" lon="10.9196331"><ele>555.0</ele><time>2026-04-06T10:27:16.91Z</time></trkpt><trkpt lat="43.9969029" lon="10.9195521"><ele>555.0</ele><time>2026-04-06T10:27:17.91Z</time></trkpt><trkpt lat="43.9966927" lon="10.919451"><ele>555.0</ele><time>2026-04-06T10:27:18.91Z</time></trkpt><trkpt lat="43.9965445" lon="10.9193113"><ele>555.0</ele><time>2026-04-06T10:27:19.913Z</time></trkpt><trkpt lat="43.9964161" lon="10.9191653"><ele>555.0</ele><time>2026-04-06T10:27:20.917Z</time></trkpt><trkpt lat="43.996274" lon="10.9189577"><ele>555.0</ele><time>2026-04-06T10:27:21.916Z</time></trkpt><trkpt lat="43.9961628" lon="10.9187211"><ele>555.0</ele><time>2026-04-06T10:27:22.915Z</time></trkpt><trkpt lat="43.9960308" lon="10.9184443"><ele>550.3333333333334</ele><time>2026-04-06T10:27:23.912Z</time></trkpt><trkpt lat="43.995951" lon="10.918156"><ele>545.6666666666667</ele><time>2026-04-06T10:27:24.915Z</time></trkpt><trkpt lat="43.9958095" lon="10.9179461"><ele>541.0</ele><time>2026-04-06T10:27:25.912Z</time></trkpt><trkpt lat="43.9956828" lon="10.9177514"><ele>546.0</ele><time>2026-04-06T10:27:26.917Z</time></trkpt><trkpt lat="43.9955648" lon="10.9175233"><ele>551.0</ele><time>2026-04-06T10:27:27.914Z</time></trkpt><trkpt lat="43.9954218" lon="10.9173145"><ele>556.0</ele><time>2026-04-06T10:27:28.913Z</time></trkpt><trkpt lat="43.9952857" lon="10.9171002"><ele>556.0</ele><time>2026-04-06T10:27:29.915Z</time></trkpt><trkpt lat="43.9951223" lon="10.9169024"><ele>556.0</ele><time>2026-04-06T10:27:30.912Z</time></trkpt><trkpt lat="43.9949714" lon="10.9167096"><ele>556.0</ele><time>2026-04-06T10:27:31.912Z</time></trkpt><trkpt lat="43.9948033" lon="10.9165137"><ele>550.3333333333334</ele><time>2026-04-06T10:27:32.912Z</time></trkpt><trkpt lat="43.994648" lon="10.9163271"><ele>544.6666666666666</ele><time>2026-04-06T10:27:33.911Z</time></trkpt><trkpt lat="43.9944902" lon="10.9161214"><ele>539.0</ele><time>2026-04-06T10:27:34.912Z</time></trkpt><trkpt lat="43.9943399" lon="10.9159249"><ele>543.3333333333333</ele><time>2026-04-06T10:27:35.909Z</time></trkpt><trkpt lat="43.9942284" lon="10.9156978"><ele>547.6666666666666</ele><time>2026-04-06T10:27:36.915Z</time></trkpt><trkpt lat="43.9941019" lon="10.915484"><ele>552.0</ele><time>2026-04-06T10:27:37.912Z</time></trkpt><trkpt lat="43.993991" lon="10.915267"><ele>548.0</ele><time>2026-04-06T10:27:38.912Z</time></trkpt><trkpt lat="43.9938768" lon="10.9150589"><ele>544.0</ele><time>2026-04-06T10:27:39.911Z</time></trkpt><trkpt lat="43.9937616" lon="10.9148711"><ele>540.0</ele><time>2026-04-06T10:27:40.915Z</time></trkpt><trkpt lat="43.9936004" lon="10.9146948"><ele>540.0</ele><time>2026-04-06T10:27:41.914Z</time></trkpt><trkpt lat="43.9934025" lon="10.9145834"><ele>540.0</ele><time>2026-04-06T10:27:42.912Z</time></trkpt><trkpt lat="43.9932121" lon="10.9144596"><ele>540.0</ele><time>2026-04-06T10:27:43.914Z</time></trkpt><trkpt lat="43.9930339" lon="10.914314"><ele>539.3333333333334</ele><time>2026-04-06T10:27:44.922Z</time></trkpt><trkpt lat="43.9928332" lon="10.9141996"><ele>538.6666666666667</ele><time>2026-04-06T10:27:45.916Z</time></trkpt><trkpt lat="43.9926352" lon="10.9140754"><ele>538.0</ele><time>2026-04-06T10:27:46.914Z</time></trkpt><trkpt lat="43.9924418" lon="10.9139666"><ele>531.3333333333334</ele><time>2026-04-06T10:27:47.91Z</time></trkpt><trkpt lat="43.99226" lon="10.9138634"><ele>524.6666666666666</ele><time>2026-04-06T10:27:48.912Z</time></trkpt><trkpt lat="43.9920815" lon="10.9137442"><ele>518.0</ele><time>2026-04-06T10:27:49.909Z</time></trkpt><trkpt lat="43.9919115" lon="10.9136058"><ele>518.0</ele><time>2026-04-06T10:27:50.914Z</time></trkpt><trkpt lat="43.9917517" lon="10.9134496"><ele>518.0</ele><time>2026-04-06T10:27:51.915Z</time></trkpt><trkpt lat="43.9916002" lon="10.9132694"><ele>518.0</ele><time>2026-04-06T10:27:52.917Z</time></trkpt><trkpt lat="43.9914378" lon="10.9130941"><ele>518.0</ele><time>2026-04-06T10:27:53.918Z</time></trkpt><trkpt lat="43.9912871" lon="10.9129373"><ele>518.0</ele><time>2026-04-06T10:27:54.916Z</time></trkpt><trkpt lat="43.9911168" lon="10.9128049"><ele>518.0</ele><time>2026-04-06T10:27:55.921Z</time></trkpt><trkpt lat="43.9909328" lon="10.9127104"><ele>515.6666666666666</ele><time>2026-04-06T10:27:56.916Z</time></trkpt><trkpt lat="43.9907325" lon="10.9126211"><ele>513.3333333333334</ele><time>2026-04-06T10:27:57.915Z</time></trkpt><trkpt lat="43.9905164" lon="10.9125415"><ele>511.0</ele><time>2026-04-06T10:27:58.913Z</time></trkpt><trkpt lat="43.990323" lon="10.9124361"><ele>511.0</ele><time>2026-04-06T10:27:59.913Z</time></trkpt><trkpt lat="43.9901388" lon="10.9123156"><ele>511.0</ele><time>2026-04-06T10:28:00.918Z</time></trkpt><trkpt lat="43.989961" lon="10.9121715"><ele>511.0</ele><time>2026-04-06T10:28:01.911Z</time></trkpt><trkpt lat="43.9897867" lon="10.912031"><ele>508.33333333333337</ele><time>2026-04-06T10:28:02.916Z</time></trkpt><trkpt lat="43.9896283" lon="10.9118803"><ele>505.66666666666663</ele><time>2026-04-06T10:28:03.911Z</time></trkpt><trkpt lat="43.9894653" lon="10.9117126"><ele>503.0</ele><time>2026-04-06T10:28:04.912Z</time></trkpt><trkpt lat="43.9893689" lon="10.9115016"><ele>503.0</ele><time>2026-04-06T10:28:05.919Z</time></trkpt><trkpt lat="43.9892926" lon="10.9112819"><ele>503.0</ele><time>2026-04-06T10:28:06.915Z</time></trkpt><trkpt lat="43.9892206" lon="10.911052"><ele>503.0</ele><time>2026-04-06T10:28:07.911Z</time></trkpt><trkpt lat="43.9891554" lon="10.9108418"><ele>500.3333333333333</ele><time>2026-04-06T10:28:08.913Z</time></trkpt><trkpt lat="43.9890792" lon="10.9106423"><ele>497.66666666666663</ele><time>2026-04-06T10:28:09.916Z</time></trkpt><trkpt lat="43.9889986" lon="10.9104748"><ele>495.0</ele><time>2026-04-06T10:28:10.912Z</time></trkpt><trkpt lat="43.988888" lon="10.9103507"><ele>495.0</ele><time>2026-04-06T10:28:11.911Z</time></trkpt><trkpt lat="43.9887769" lon="10.9102518"><ele>495.0</ele><time>2026-04-06T10:28:12.923Z</time></trkpt><trkpt lat="43.9886631" lon="10.9102041"><ele>495.0</ele><time>2026-04-06T10:28:13.923Z</time></trkpt><trkpt lat="43.988556" lon="10.9102022"><ele>495.0</ele><time>2026-04-06T10:28:14.911Z</time></trkpt><trkpt lat="43.9884482" lon="10.9102489"><ele>495.0</ele><time>2026-04-06T10:28:15.913Z</time></trkpt><trkpt lat="43.9883534" lon="10.9103296"><ele>495.0</ele><time>2026-04-06T10:28:16.913Z</time></trkpt><trkpt lat="43.988289" lon="10.9104647"><ele>495.0</ele><time>2026-04-06T10:28:17.916Z</time></trkpt><trkpt lat="43.9882789" lon="10.9106434"><ele>495.0</ele><time>2026-04-06T10:28:18.906Z</time></trkpt><trkpt lat="43.9883004" lon="10.9109311"><ele>494.0</ele><time>2026-04-06T10:28:19.919Z</time></trkpt><trkpt lat="43.9883653" lon="10.9111961"><ele>493.0</ele><time>2026-04-06T10:28:20.909Z</time></trkpt><trkpt lat="43.9884616" lon="10.9114366"><ele>492.0</ele><time>2026-04-06T10:28:21.915Z</time></trkpt><trkpt lat="43.9885755" lon="10.9116456"><ele>486.33333333333337</ele><time>2026-04-06T10:28:22.908Z</time></trkpt><trkpt lat="43.9886704" lon="10.9118313"><ele>480.6666666666667</ele><time>2026-04-06T10:28:23.916Z</time></trkpt><trkpt lat="43.988789" lon="10.9120085"><ele>475.0</ele><time>2026-04-06T10:28:24.907Z</time></trkpt><trkpt lat="43.9888906" lon="10.9121759"><ele>475.0</ele><time>2026-04-06T10:28:25.917Z</time></trkpt><trkpt lat="43.988982" lon="10.9123427"><ele>475.0</ele><time>2026-04-06T10:28:26.915Z</time></trkpt><trkpt lat="43.9890717" lon="10.912528"><ele>475.0</ele><time>2026-04-06T10:28:27.91Z</time></trkpt><trkpt lat="43.9891479" lon="10.9127127"><ele>476.0</ele><time>2026-04-06T10:28:28.915Z</time></trkpt><trkpt lat="43.9892057" lon="10.9129023"><ele>477.0</ele><time>2026-04-06T10:28:29.909Z</time></trkpt><trkpt lat="43.9892641" lon="10.9130895"><ele>478.0</ele><time>2026-04-06T10:28:30.907Z</time></trkpt><trkpt lat="43.9893113" lon="10.9132779"><ele>479.0</ele><time>2026-04-06T10:28:31.91Z</time></trkpt><trkpt lat="43.9893283" lon="10.9134848"><ele>473.0</ele><time>2026-04-06T10:28:32.925Z</time></trkpt><trkpt lat="43.9893541" lon="10.9137027"><ele>467.0</ele><time>2026-04-06T10:28:33.909Z</time></trkpt><trkpt lat="43.9893576" lon="10.9139226"><ele>461.0</ele><time>2026-04-06T10:28:34.909Z</time></trkpt><trkpt lat="43.9893365" lon="10.9141656"><ele>454.66666666666663</ele><time>2026-04-06T10:28:35.911Z</time></trkpt><trkpt lat="43.9893257" lon="10.914415"><ele>448.33333333333337</ele><time>2026-04-06T10:28:36.924Z</time></trkpt><trkpt lat="43.9893106" lon="10.9146381"><ele>442.0</ele><time>2026-04-06T10:28:37.917Z</time></trkpt><trkpt lat="43.9892857" lon="10.9148614"><ele>435.6666666666667</ele><time>2026-04-06T10:28:38.91Z</time></trkpt><trkpt lat="43.9892685" lon="10.9150866"><ele>429.33333333333337</ele><time>2026-04-06T10:28:39.908Z</time></trkpt><trkpt lat="43.989268" lon="10.9152974"><ele>423.0</ele><time>2026-04-06T10:28:40.915Z</time></trkpt><trkpt lat="43.9892172" lon="10.9155085"><ele>423.25</ele><time>2026-04-06T10:28:41.922Z</time></trkpt><trkpt lat="43.9891652" lon="10.9156787"><ele>423.5</ele><time>2026-04-06T10:28:42.919Z</time></trkpt><trkpt lat="43.9890754" lon="10.9158517"><ele>423.75</ele><time>2026-04-06T10:28:43.911Z</time></trkpt><trkpt lat="43.9889702" lon="10.9159785"><ele>424.0</ele><time>2026-04-06T10:28:44.92Z</time></trkpt><trkpt lat="43.9888437" lon="10.9161144"><ele>424.0</ele><time>2026-04-06T10:28:45.914Z</time></trkpt><trkpt lat="43.9886781" lon="10.9161981"><ele>424.0</ele><time>2026-04-06T10:28:46.916Z</time></trkpt><trkpt lat="43.9885168" lon="10.9162565"><ele>424.0</ele><time>2026-04-06T10:28:47.911Z</time></trkpt><trkpt lat="43.9883623" lon="10.9162927"><ele>431.0</ele><time>2026-04-06T10:28:48.924Z</time></trkpt><trkpt lat="43.9880787" lon="10.9161577"><ele>438.0</ele><time>2026-04-06T10:28:49.908Z</time></trkpt><trkpt lat="43.9878371" lon="10.9159988"><ele>438.66666666666663</ele><time>2026-04-06T10:28:50.911Z</time></trkpt><trkpt lat="43.9876129" lon="10.9158731"><ele>439.3333333333333</ele><time>2026-04-06T10:28:51.911Z</time></trkpt><trkpt lat="43.9875115" lon="10.9156693"><ele>440.0</ele><time>2026-04-06T10:28:52.916Z</time></trkpt><trkpt lat="43.9874194" lon="10.9154103"><ele>440.0</ele><time>2026-04-06T10:28:53.911Z</time></trkpt><trkpt lat="43.9872869" lon="10.9152387"><ele>440.0</ele><time>2026-04-06T10:28:54.911Z</time></trkpt><trkpt lat="43.9871848" lon="10.9149474"><ele>440.0</ele><time>2026-04-06T10:28:55.907Z</time></trkpt><trkpt lat="43.9871074" lon="10.9148047"><ele>440.66666666666663</ele><time>2026-04-06T10:28:56.915Z</time></trkpt><trkpt lat="43.9871698" lon="10.9145162"><ele>441.33333333333337</ele><time>2026-04-06T10:28:57.909Z</time></trkpt><trkpt lat="43.9872033" lon="10.914295"><ele>442.0</ele><time>2026-04-06T10:28:58.918Z</time></trkpt><trkpt lat="43.9872474" lon="10.9139968"><ele>442.0</ele><time>2026-04-06T10:28:59.913Z</time></trkpt><trkpt lat="43.9873731" lon="10.913825"><ele>442.0</ele><time>2026-04-06T10:29:00.915Z</time></trkpt><trkpt lat="43.9874212" lon="10.9136384"><ele>442.0</ele><time>2026-04-06T10:29:01.914Z</time></trkpt><trkpt lat="43.9875362" lon="10.9134887"><ele>443.5</ele><time>2026-04-06T10:29:02.908Z</time></trkpt><trkpt lat="43.9878023" lon="10.9134712"><ele>445.0</ele><time>2026-04-06T10:29:03.912Z</time></trkpt><trkpt lat="43.9879768" lon="10.9133838"><ele>445.0</ele><time>2026-04-06T10:29:04.914Z</time></trkpt><trkpt lat="43.9881087" lon="10.9132729"><ele>445.0</ele><time>2026-04-06T10:29:05.91Z</time></trkpt><trkpt lat="43.9882305" lon="10.9131639"><ele>445.0</ele><time>2026-04-06T10:29:06.91Z</time></trkpt><trkpt lat="43.9882796" lon="10.9130648"><ele>445.0</ele><time>2026-04-06T10:29:07.923Z</time></trkpt><trkpt lat="43.9883125" lon="10.9129557"><ele>445.0</ele><time>2026-04-06T10:29:08.907Z</time></trkpt><trkpt lat="43.9883398" lon="10.9128385"><ele>445.0</ele><time>2026-04-06T10:29:09.913Z</time></trkpt><trkpt lat="43.9883238" lon="10.9127208"><ele>445.0</ele><time>2026-04-06T10:29:10.908Z</time></trkpt><trkpt lat="43.9883019" lon="10.9125603"><ele>445.0</ele><time>2026-04-06T10:29:11.914Z</time></trkpt><trkpt lat="43.9882173" lon="10.9124184"><ele>445.0</ele><time>2026-04-06T10:29:12.911Z</time></trkpt><trkpt lat="43.9880521" lon="10.9121582"><ele>447.33333333333337</ele><time>2026-04-06T10:29:13.92Z</time></trkpt><trkpt lat="43.9878829" lon="10.9120305"><ele>449.66666666666663</ele><time>2026-04-06T10:29:14.921Z</time></trkpt><trkpt lat="43.9877454" lon="10.9119238"><ele>452.0</ele><time>2026-04-06T10:29:15.915Z</time></trkpt><trkpt lat="43.9876402" lon="10.9117983"><ele>450.0</ele><time>2026-04-06T10:29:16.912Z</time></trkpt><trkpt lat="43.9875284" lon="10.9116857"><ele>448.0</ele><time>2026-04-06T10:29:17.914Z</time></trkpt><trkpt lat="43.9874022" lon="10.9115949"><ele>446.0</ele><time>2026-04-06T10:29:18.907Z</time></trkpt><trkpt lat="43.9872726" lon="10.9114953"><ele>444.0</ele><time>2026-04-06T10:29:19.922Z</time></trkpt><trkpt lat="43.9871573" lon="10.9113928"><ele>444.0</ele><time>2026-04-06T10:29:20.915Z</time></trkpt><trkpt lat="43.9870327" lon="10.9112992"><ele>444.0</ele><time>2026-04-06T10:29:21.908Z</time></trkpt><trkpt lat="43.9869139" lon="10.9111787"><ele>444.0</ele><time>2026-04-06T10:29:22.914Z</time></trkpt><trkpt lat="43.9867931" lon="10.911054"><ele>444.0</ele><time>2026-04-06T10:29:23.914Z</time></trkpt><trkpt lat="43.9866822" lon="10.9109162"><ele>439.25</ele><time>2026-04-06T10:29:24.915Z</time></trkpt><trkpt lat="43.986612" lon="10.9107238"><ele>434.5</ele><time>2026-04-06T10:29:25.91Z</time></trkpt><trkpt lat="43.9865526" lon="10.9105707"><ele>429.75</ele><time>2026-04-06T10:29:26.914Z</time></trkpt><trkpt lat="43.9865061" lon="10.9104144"><ele>425.0</ele><time>2026-04-06T10:29:27.914Z</time></trkpt><trkpt lat="43.9865108" lon="10.9102684"><ele>425.0</ele><time>2026-04-06T10:29:28.908Z</time></trkpt><trkpt lat="43.9865364" lon="10.9100861"><ele>425.0</ele><time>2026-04-06T10:29:29.91Z</time></trkpt><trkpt lat="43.9866098" lon="10.9099283"><ele>425.0</ele><time>2026-04-06T10:29:30.908Z</time></trkpt><trkpt lat="43.9866706" lon="10.9097788"><ele>425.0</ele><time>2026-04-06T10:29:31.914Z</time></trkpt><trkpt lat="43.9866398" lon="10.9096338"><ele>425.8</ele><time>2026-04-06T10:29:32.93Z</time></trkpt><trkpt lat="43.9866188" lon="10.9094839"><ele>426.6</ele><time>2026-04-06T10:29:34.91Z</time></trkpt><trkpt lat="43.9865708" lon="10.9094201"><ele>427.4</ele><time>2026-04-06T10:29:35.911Z</time></trkpt><trkpt lat="43.9864578" lon="10.909437"><ele>428.2</ele><time>2026-04-06T10:29:36.92Z</time></trkpt><trkpt lat="43.9863401" lon="10.9094289"><ele>429.0</ele><time>2026-04-06T10:29:37.911Z</time></trkpt><trkpt lat="43.9861903" lon="10.9094834"><ele>429.0</ele><time>2026-04-06T10:29:38.913Z</time></trkpt><trkpt lat="43.9860023" lon="10.9095786"><ele>429.0</ele><time>2026-04-06T10:29:39.915Z</time></trkpt><trkpt lat="43.985868" lon="10.9095699"><ele>429.0</ele><time>2026-04-06T10:29:40.916Z</time></trkpt><trkpt lat="43.9857302" lon="10.9094645"><ele>428.0</ele><time>2026-04-06T10:29:41.918Z</time></trkpt><trkpt lat="43.9854883" lon="10.9093721"><ele>427.0</ele><time>2026-04-06T10:29:42.915Z</time></trkpt><trkpt lat="43.9853338" lon="10.9092959"><ele>426.0</ele><time>2026-04-06T10:29:43.912Z</time></trkpt><trkpt lat="43.985164" lon="10.909227"><ele>426.0</ele><time>2026-04-06T10:29:44.916Z</time></trkpt><trkpt lat="43.9850138" lon="10.909193"><ele>426.0</ele><time>2026-04-06T10:29:45.915Z</time></trkpt><trkpt lat="43.9848827" lon="10.9091363"><ele>426.0</ele><time>2026-04-06T10:29:46.918Z</time></trkpt><trkpt lat="43.9847574" lon="10.9091353"><ele>426.0</ele><time>2026-04-06T10:29:47.913Z</time></trkpt><trkpt lat="43.9846555" lon="10.9090596"><ele>424.6</ele><time>2026-04-06T10:29:48.921Z</time></trkpt><trkpt lat="43.9845949" lon="10.908942"><ele>423.20000000000005</ele><time>2026-04-06T10:29:49.911Z</time></trkpt><trkpt lat="43.9845215" lon="10.9088414"><ele>421.79999999999995</ele><time>2026-04-06T10:29:50.918Z</time></trkpt><trkpt lat="43.9844833" lon="10.9086979"><ele>420.4</ele><time>2026-04-06T10:29:51.912Z</time></trkpt><trkpt lat="43.9844714" lon="10.9085299"><ele>419.0</ele><time>2026-04-06T10:29:52.912Z</time></trkpt><trkpt lat="43.9844995" lon="10.9083408"><ele>419.0</ele><time>2026-04-06T10:29:53.911Z</time></trkpt><trkpt lat="43.984513" lon="10.9081621"><ele>419.0</ele><time>2026-04-06T10:29:54.916Z</time></trkpt><trkpt lat="43.9845104" lon="10.907985"><ele>419.0</ele><time>2026-04-06T10:29:55.911Z</time></trkpt><trkpt lat="43.9845201" lon="10.9078057"><ele>419.0</ele><time>2026-04-06T10:29:56.913Z</time></trkpt><trkpt lat="43.9845164" lon="10.9076287"><ele>420.75</ele><time>2026-04-06T10:29:57.914Z</time></trkpt><trkpt lat="43.984526" lon="10.907452"><ele>422.5</ele><time>2026-04-06T10:29:58.911Z</time></trkpt><trkpt lat="43.9845396" lon="10.9072609"><ele>424.25</ele><time>2026-04-06T10:29:59.915Z</time></trkpt><trkpt lat="43.9845409" lon="10.907054"><ele>426.0</ele><time>2026-04-06T10:30:00.911Z</time></trkpt><trkpt lat="43.9845412" lon="10.9068599"><ele>427.4</ele><time>2026-04-06T10:30:01.911Z</time></trkpt><trkpt lat="43.9845234" lon="10.9066823"><ele>428.8</ele><time>2026-04-06T10:30:02.913Z</time></trkpt><trkpt lat="43.9845058" lon="10.9064966"><ele>430.19999999999993</ele><time>2026-04-06T10:30:03.912Z</time></trkpt><trkpt lat="43.9844803" lon="10.9063783"><ele>431.59999999999997</ele><time>2026-04-06T10:30:04.92Z</time></trkpt><trkpt lat="43.9844562" lon="10.9062786"><ele>433.0</ele><time>2026-04-06T10:30:05.916Z</time></trkpt><trkpt lat="43.9843776" lon="10.9062001"><ele>433.0</ele><time>2026-04-06T10:30:06.919Z</time></trkpt><trkpt lat="43.984234" lon="10.9061736"><ele>433.0</ele><time>2026-04-06T10:30:07.911Z</time></trkpt><trkpt lat="43.9840624" lon="10.9061436"><ele>433.0</ele><time>2026-04-06T10:30:08.91Z</time></trkpt><trkpt lat="43.9838598" lon="10.9061179"><ele>418.6666666666667</ele><time>2026-04-06T10:30:09.923Z</time></trkpt><trkpt lat="43.9836712" lon="10.9060876"><ele>404.33333333333337</ele><time>2026-04-06T10:30:10.917Z</time></trkpt><trkpt lat="43.9834856" lon="10.9060366"><ele>390.0</ele><time>2026-04-06T10:30:11.923Z</time></trkpt><trkpt lat="43.983321" lon="10.9060084"><ele>392.66666666666663</ele><time>2026-04-06T10:30:12.918Z</time></trkpt><trkpt lat="43.9831459" lon="10.9059884"><ele>395.3333333333333</ele><time>2026-04-06T10:30:13.923Z</time></trkpt><trkpt lat="43.9829947" lon="10.9059439"><ele>398.0</ele><time>2026-04-06T10:30:14.912Z</time></trkpt><trkpt lat="43.9828517" lon="10.9058957"><ele>398.0</ele><time>2026-04-06T10:30:15.91Z</time></trkpt><trkpt lat="43.9827067" lon="10.9058511"><ele>398.0</ele><time>2026-04-06T10:30:16.919Z</time></trkpt><trkpt lat="43.9825863" lon="10.9057805"><ele>398.0</ele><time>2026-04-06T10:30:17.916Z</time></trkpt><trkpt lat="43.9824754" lon="10.9056943"><ele>398.0</ele><time>2026-04-06T10:30:18.917Z</time></trkpt><trkpt lat="43.9823789" lon="10.905592"><ele>394.25</ele><time>2026-04-06T10:30:19.91Z</time></trkpt><trkpt lat="43.9823082" lon="10.9054392"><ele>390.5</ele><time>2026-04-06T10:30:20.912Z</time></trkpt><trkpt lat="43.9822511" lon="10.9052571"><ele>386.75</ele><time>2026-04-06T10:30:21.911Z</time></trkpt><trkpt lat="43.9822186" lon="10.9050781"><ele>383.0</ele><time>2026-04-06T10:30:22.918Z</time></trkpt><trkpt lat="43.9822048" lon="10.9048568"><ele>383.0</ele><time>2026-04-06T10:30:23.91Z</time></trkpt><trkpt lat="43.9821931" lon="10.9046404"><ele>383.0</ele><time>2026-04-06T10:30:24.914Z</time></trkpt><trkpt lat="43.9822035" lon="10.9044031"><ele>383.0</ele><time>2026-04-06T10:30:25.911Z</time></trkpt><trkpt lat="43.9822049" lon="10.9041709"><ele>383.33333333333337</ele><time>2026-04-06T10:30:26.914Z</time></trkpt><trkpt lat="43.982214" lon="10.9039189"><ele>383.6666666666667</ele><time>2026-04-06T10:30:27.916Z</time></trkpt><trkpt lat="43.9822224" lon="10.90366"><ele>384.0</ele><time>2026-04-06T10:30:28.92Z</time></trkpt><trkpt lat="43.9822381" lon="10.9034044"><ele>382.0</ele><time>2026-04-06T10:30:29.91Z</time></trkpt><trkpt lat="43.9822461" lon="10.9031252"><ele>380.0</ele><time>2026-04-06T10:30:30.914Z</time></trkpt><trkpt lat="43.9822662" lon="10.9028459"><ele>378.0</ele><time>2026-04-06T10:30:31.92Z</time></trkpt><trkpt lat="43.982288" lon="10.9025709"><ele>372.6666666666667</ele><time>2026-04-06T10:30:32.917Z</time></trkpt><trkpt lat="43.982312" lon="10.9023105"><ele>367.33333333333337</ele><time>2026-04-06T10:30:33.913Z</time></trkpt><trkpt lat="43.9823216" lon="10.9020331"><ele>362.0</ele><time>2026-04-06T10:30:34.911Z</time></trkpt><trkpt lat="43.9823384" lon="10.9017784"><ele>360.0</ele><time>2026-04-06T10:30:35.912Z</time></trkpt><trkpt lat="43.9823574" lon="10.901513"><ele>358.0</ele><time>2026-04-06T10:30:36.916Z</time></trkpt><trkpt lat="43.9823799" lon="10.9012719"><ele>356.0</ele><time>2026-04-06T10:30:37.91Z</time></trkpt><trkpt lat="43.9824189" lon="10.9010583"><ele>353.75</ele><time>2026-04-06T10:30:38.917Z</time></trkpt><trkpt lat="43.982413" lon="10.9008598"><ele>351.5</ele><time>2026-04-06T10:30:39.919Z</time></trkpt><trkpt lat="43.9824053" lon="10.9006724"><ele>349.25</ele><time>2026-04-06T10:30:40.911Z</time></trkpt><trkpt lat="43.982351" lon="10.9005065"><ele>347.0</ele><time>2026-04-06T10:30:41.911Z</time></trkpt><trkpt lat="43.9823037" lon="10.9003388"><ele>347.0</ele><time>2026-04-06T10:30:42.912Z</time></trkpt><trkpt lat="43.9821795" lon="10.9002315"><ele>347.0</ele><time>2026-04-06T10:30:43.917Z</time></trkpt><trkpt lat="43.9820593" lon="10.9001752"><ele>347.0</ele><time>2026-04-06T10:30:44.918Z</time></trkpt><trkpt lat="43.9819362" lon="10.9001836"><ele>347.0</ele><time>2026-04-06T10:30:45.912Z</time></trkpt><trkpt lat="43.9818046" lon="10.9002513"><ele>347.0</ele><time>2026-04-06T10:30:46.911Z</time></trkpt><trkpt lat="43.9816925" lon="10.9003159"><ele>347.0</ele><time>2026-04-06T10:30:47.914Z</time></trkpt><trkpt lat="43.9816102" lon="10.9005398"><ele>347.0</ele><time>2026-04-06T10:30:48.919Z</time></trkpt><trkpt lat="43.9815581" lon="10.9008088"><ele>343.6666666666667</ele><time>2026-04-06T10:30:49.922Z</time></trkpt><trkpt lat="43.981551" lon="10.9010962"><ele>340.3333333333333</ele><time>2026-04-06T10:30:50.91Z</time></trkpt><trkpt lat="43.9815483" lon="10.9013649"><ele>337.0</ele><time>2026-04-06T10:30:51.912Z</time></trkpt><trkpt lat="43.9815822" lon="10.9016227"><ele>337.3333333333333</ele><time>2026-04-06T10:30:52.911Z</time></trkpt><trkpt lat="43.9816406" lon="10.901864"><ele>337.6666666666667</ele><time>2026-04-06T10:30:53.911Z</time></trkpt><trkpt lat="43.9816773" lon="10.9020947"><ele>338.0</ele><time>2026-04-06T10:30:54.91Z</time></trkpt><trkpt lat="43.9816541" lon="10.9022841"><ele>338.0</ele><time>2026-04-06T10:30:55.91Z</time></trkpt><trkpt lat="43.981612" lon="10.9024611"><ele>338.0</ele><time>2026-04-06T10:30:56.919Z</time></trkpt><trkpt lat="43.9815318" lon="10.902643"><ele>338.0</ele><time>2026-04-06T10:30:57.911Z</time></trkpt><trkpt lat="43.9813879" lon="10.9028105"><ele>341.0</ele><time>2026-04-06T10:30:58.909Z</time></trkpt><trkpt lat="43.9812665" lon="10.9029939"><ele>344.0</ele><time>2026-04-06T10:30:59.916Z</time></trkpt><trkpt lat="43.981109" lon="10.9031438"><ele>347.0</ele><time>2026-04-06T10:31:00.923Z</time></trkpt><trkpt lat="43.980986" lon="10.9033242"><ele>348.0</ele><time>2026-04-06T10:31:01.909Z</time></trkpt><trkpt lat="43.9808914" lon="10.9035142"><ele>349.0</ele><time>2026-04-06T10:31:02.909Z</time></trkpt><trkpt lat="43.980816" lon="10.9037249"><ele>350.0</ele><time>2026-04-06T10:31:03.913Z</time></trkpt><trkpt lat="43.9808106" lon="10.903973"><ele>341.6666666666667</ele><time>2026-04-06T10:31:04.922Z</time></trkpt><trkpt lat="43.9807955" lon="10.9041997"><ele>333.3333333333333</ele><time>2026-04-06T10:31:05.911Z</time></trkpt><trkpt lat="43.980764" lon="10.9044399"><ele>325.0</ele><time>2026-04-06T10:31:06.911Z</time></trkpt><trkpt lat="43.980736" lon="10.9046809"><ele>325.0</ele><time>2026-04-06T10:31:07.913Z</time></trkpt><trkpt lat="43.9807083" lon="10.9049299"><ele>325.0</ele><time>2026-04-06T10:31:08.915Z</time></trkpt><trkpt lat="43.9806657" lon="10.9051835"><ele>325.0</ele><time>2026-04-06T10:31:09.919Z</time></trkpt><trkpt lat="43.9806454" lon="10.9053958"><ele>325.25</ele><time>2026-04-06T10:31:10.916Z</time></trkpt><trkpt lat="43.9806247" lon="10.9056337"><ele>325.5</ele><time>2026-04-06T10:31:11.913Z</time></trkpt><trkpt lat="43.9805929" lon="10.9057739"><ele>325.75</ele><time>2026-04-06T10:31:12.911Z</time></trkpt><trkpt lat="43.98059" lon="10.905941"><ele>326.0</ele><time>2026-04-06T10:31:13.912Z</time></trkpt><trkpt lat="43.9805243" lon="10.906057"><ele>326.0</ele><time>2026-04-06T10:31:14.912Z</time></trkpt><trkpt lat="43.9804418" lon="10.906123"><ele>326.0</ele><time>2026-04-06T10:31:15.911Z</time></trkpt><trkpt lat="43.9803519" lon="10.9061588"><ele>326.0</ele><time>2026-04-06T10:31:16.919Z</time></trkpt><trkpt lat="43.9802743" lon="10.9060659"><ele>326.0</ele><time>2026-04-06T10:31:17.911Z</time></trkpt><trkpt lat="43.9801967" lon="10.9060182"><ele>326.0</ele><time>2026-04-06T10:31:18.915Z</time></trkpt><trkpt lat="43.9801774" lon="10.9058429"><ele>326.0</ele><time>2026-04-06T10:31:19.912Z</time></trkpt><trkpt lat="43.9801414" lon="10.9056905"><ele>326.0</ele><time>2026-04-06T10:31:20.914Z</time></trkpt><trkpt lat="43.9801365" lon="10.9054786"><ele>326.0</ele><time>2026-04-06T10:31:21.915Z</time></trkpt><trkpt lat="43.9801283" lon="10.9052821"><ele>326.0</ele><time>2026-04-06T10:31:22.915Z</time></trkpt><trkpt lat="43.9801738" lon="10.9050393"><ele>325.6666666666667</ele><time>2026-04-06T10:31:23.912Z</time></trkpt><trkpt lat="43.9801869" lon="10.9048029"><ele>325.3333333333333</ele><time>2026-04-06T10:31:24.912Z</time></trkpt><trkpt lat="43.9802514" lon="10.9045506"><ele>325.0</ele><time>2026-04-06T10:31:25.912Z</time></trkpt><trkpt lat="43.9802825" lon="10.9043278"><ele>323.66666666666663</ele><time>2026-04-06T10:31:26.917Z</time></trkpt><trkpt lat="43.9802656" lon="10.9040791"><ele>322.3333333333333</ele><time>2026-04-06T10:31:27.911Z</time></trkpt><trkpt lat="43.9802484" lon="10.9038707"><ele>321.0</ele><time>2026-04-06T10:31:28.912Z</time></trkpt><trkpt lat="43.9801898" lon="10.9036577"><ele>321.0</ele><time>2026-04-06T10:31:29.911Z</time></trkpt><trkpt lat="43.9801392" lon="10.903432"><ele>321.0</ele><time>2026-04-06T10:31:30.913Z</time></trkpt><trkpt lat="43.9801059" lon="10.9032215"><ele>321.0</ele><time>2026-04-06T10:31:31.913Z</time></trkpt><trkpt lat="43.9800828" lon="10.9029962"><ele>320.6666666666667</ele><time>2026-04-06T10:31:32.909Z</time></trkpt><trkpt lat="43.9801267" lon="10.9028115"><ele>320.33333333333337</ele><time>2026-04-06T10:31:33.918Z</time></trkpt><trkpt lat="43.9801797" lon="10.9026171"><ele>320.0</ele><time>2026-04-06T10:31:34.911Z</time></trkpt><trkpt lat="43.9802367" lon="10.9024065"><ele>317.6666666666667</ele><time>2026-04-06T10:31:35.915Z</time></trkpt><trkpt lat="43.9802821" lon="10.9021788"><ele>315.3333333333333</ele><time>2026-04-06T10:31:36.912Z</time></trkpt><trkpt lat="43.9803097" lon="10.9019684"><ele>313.0</ele><time>2026-04-06T10:31:37.916Z</time></trkpt><trkpt lat="43.9802973" lon="10.9017446"><ele>312.0</ele><time>2026-04-06T10:31:38.912Z</time></trkpt><trkpt lat="43.9802719" lon="10.9015148"><ele>311.0</ele><time>2026-04-06T10:31:39.914Z</time></trkpt><trkpt lat="43.9802371" lon="10.9012869"><ele>310.0</ele><time>2026-04-06T10:31:40.914Z</time></trkpt><trkpt lat="43.9802157" lon="10.9010655"><ele>310.3333333333333</ele><time>2026-04-06T10:31:41.914Z</time></trkpt><trkpt lat="43.9801965" lon="10.9008328"><ele>310.6666666666667</ele><time>2026-04-06T10:31:42.91Z</time></trkpt><trkpt lat="43.9802001" lon="10.9006065"><ele>311.0</ele><time>2026-04-06T10:31:43.911Z</time></trkpt><trkpt lat="43.9802146" lon="10.9003817"><ele>311.0</ele><time>2026-04-06T10:31:44.915Z</time></trkpt><trkpt lat="43.9802321" lon="10.9001718"><ele>311.0</ele><time>2026-04-06T10:31:45.913Z</time></trkpt><trkpt lat="43.9802591" lon="10.8999851"><ele>311.0</ele><time>2026-04-06T10:31:46.916Z</time></trkpt><trkpt lat="43.9802448" lon="10.8998275"><ele>311.0</ele><time>2026-04-06T10:31:47.91Z</time></trkpt><trkpt lat="43.9802262" lon="10.8996876"><ele>310.2</ele><time>2026-04-06T10:31:48.911Z</time></trkpt><trkpt lat="43.9802099" lon="10.8995749"><ele>309.40000000000003</ele><time>2026-04-06T10:31:49.921Z</time></trkpt><trkpt lat="43.9801659" lon="10.8994996"><ele>308.6</ele><time>2026-04-06T10:31:50.913Z</time></trkpt><trkpt lat="43.980097" lon="10.8995009"><ele>307.8</ele><time>2026-04-06T10:31:51.91Z</time></trkpt><trkpt lat="43.9799913" lon="10.899537"><ele>307.0</ele><time>2026-04-06T10:31:52.922Z</time></trkpt><trkpt lat="43.9798814" lon="10.8996852"><ele>296.5</ele><time>2026-04-06T10:31:53.907Z</time></trkpt><trkpt lat="43.979817" lon="10.8998605"><ele>286.0</ele><time>2026-04-06T10:31:54.915Z</time></trkpt><trkpt lat="43.9797682" lon="10.9002963"><ele>286.0</ele><time>2026-04-06T10:31:55.919Z</time></trkpt><trkpt lat="43.9797168" lon="10.9005563"><ele>286.0</ele><time>2026-04-06T10:31:56.914Z</time></trkpt><trkpt lat="43.979715" lon="10.9008189"><ele>286.0</ele><time>2026-04-06T10:31:57.913Z</time></trkpt><trkpt lat="43.9797348" lon="10.9010329"><ele>286.25</ele><time>2026-04-06T10:31:58.911Z</time></trkpt><trkpt lat="43.9797415" lon="10.901266"><ele>286.5</ele><time>2026-04-06T10:31:59.912Z</time></trkpt><trkpt lat="43.9796996" lon="10.901454"><ele>286.75</ele><time>2026-04-06T10:32:00.919Z</time></trkpt><trkpt lat="43.9796653" lon="10.9016225"><ele>287.0</ele><time>2026-04-06T10:32:01.911Z</time></trkpt><trkpt lat="43.9795463" lon="10.9017612"><ele>288.6666666666667</ele><time>2026-04-06T10:32:02.911Z</time></trkpt><trkpt lat="43.9794531" lon="10.9018987"><ele>290.3333333333333</ele><time>2026-04-06T10:32:03.911Z</time></trkpt><trkpt lat="43.9793159" lon="10.9020261"><ele>292.0</ele><time>2026-04-06T10:32:04.91Z</time></trkpt><trkpt lat="43.9791604" lon="10.9021325"><ele>287.0</ele><time>2026-04-06T10:32:05.924Z</time></trkpt><trkpt lat="43.9789328" lon="10.9021263"><ele>282.0</ele><time>2026-04-06T10:32:06.914Z</time></trkpt><trkpt lat="43.9787466" lon="10.9021767"><ele>277.0</ele><time>2026-04-06T10:32:07.916Z</time></trkpt><trkpt lat="43.9785674" lon="10.9021921"><ele>277.0</ele><time>2026-04-06T10:32:08.91Z</time></trkpt><trkpt lat="43.9783951" lon="10.9022111"><ele>277.0</ele><time>2026-04-06T10:32:09.918Z</time></trkpt><trkpt lat="43.978225" lon="10.9022382"><ele>277.0</ele><time>2026-04-06T10:32:10.91Z</time></trkpt><trkpt lat="43.9780643" lon="10.902249"><ele>272.66666666666663</ele><time>2026-04-06T10:32:11.921Z</time></trkpt><trkpt lat="43.9778984" lon="10.9022713"><ele>268.3333333333333</ele><time>2026-04-06T10:32:12.912Z</time></trkpt><trkpt lat="43.9777327" lon="10.902259"><ele>264.0</ele><time>2026-04-06T10:32:13.914Z</time></trkpt><trkpt lat="43.9775562" lon="10.902252"><ele>261.6666666666667</ele><time>2026-04-06T10:32:14.916Z</time></trkpt><trkpt lat="43.9773677" lon="10.902232"><ele>259.33333333333337</ele><time>2026-04-06T10:32:15.913Z</time></trkpt><trkpt lat="43.9771823" lon="10.9022196"><ele>257.0</ele><time>2026-04-06T10:32:16.91Z</time></trkpt><trkpt lat="43.977" lon="10.9022163"><ele>257.0</ele><time>2026-04-06T10:32:17.912Z</time></trkpt><trkpt lat="43.9768151" lon="10.9022261"><ele>257.0</ele><time>2026-04-06T10:32:18.911Z</time></trkpt><trkpt lat="43.9766405" lon="10.9022384"><ele>257.0</ele><time>2026-04-06T10:32:19.913Z</time></trkpt><trkpt lat="43.9764642" lon="10.9022764"><ele>256.0</ele><time>2026-04-06T10:32:20.911Z</time></trkpt><trkpt lat="43.9762869" lon="10.902312"><ele>255.0</ele><time>2026-04-06T10:32:21.924Z</time></trkpt><trkpt lat="43.9761289" lon="10.9023897"><ele>254.0</ele><time>2026-04-06T10:32:22.913Z</time></trkpt><trkpt lat="43.9759923" lon="10.9024615"><ele>254.0</ele><time>2026-04-06T10:32:23.912Z</time></trkpt><trkpt lat="43.9758424" lon="10.9025094"><ele>254.0</ele><time>2026-04-06T10:32:24.914Z</time></trkpt><trkpt lat="43.9756951" lon="10.9025045"><ele>254.0</ele><time>2026-04-06T10:32:25.912Z</time></trkpt><trkpt lat="43.9755534" lon="10.9024616"><ele>254.0</ele><time>2026-04-06T10:32:26.914Z</time></trkpt><trkpt lat="43.9753886" lon="10.9024234"><ele>254.0</ele><time>2026-04-06T10:32:27.912Z</time></trkpt><trkpt lat="43.9752133" lon="10.9023415"><ele>254.0</ele><time>2026-04-06T10:32:28.916Z</time></trkpt><trkpt lat="43.9750841" lon="10.9022765"><ele>254.0</ele><time>2026-04-06T10:32:29.911Z</time></trkpt><trkpt lat="43.9749422" lon="10.9022272"><ele>250.5</ele><time>2026-04-06T10:32:30.913Z</time></trkpt><trkpt lat="43.9748123" lon="10.9021708"><ele>247.0</ele><time>2026-04-06T10:32:31.911Z</time></trkpt><trkpt lat="43.97468" lon="10.9021455"><ele>243.5</ele><time>2026-04-06T10:32:32.919Z</time></trkpt><trkpt lat="43.9745639" lon="10.9021732"><ele>240.0</ele><time>2026-04-06T10:32:33.911Z</time></trkpt><trkpt lat="43.9744389" lon="10.9022591"><ele>240.0</ele><time>2026-04-06T10:32:34.913Z</time></trkpt><trkpt lat="43.9743388" lon="10.9023046"><ele>240.0</ele><time>2026-04-06T10:32:35.919Z</time></trkpt><trkpt lat="43.9742036" lon="10.9023579"><ele>240.0</ele><time>2026-04-06T10:32:36.911Z</time></trkpt><trkpt lat="43.9740771" lon="10.9023873"><ele>240.0</ele><time>2026-04-06T10:32:37.911Z</time></trkpt><trkpt lat="43.9739479" lon="10.9023893"><ele>239.4</ele><time>2026-04-06T10:32:38.914Z</time></trkpt><trkpt lat="43.9738285" lon="10.9023664"><ele>238.8</ele><time>2026-04-06T10:32:39.911Z</time></trkpt><trkpt lat="43.9737171" lon="10.9023693"><ele>238.2</ele><time>2026-04-06T10:32:40.913Z</time></trkpt><trkpt lat="43.9736117" lon="10.902374"><ele>237.6</ele><time>2026-04-06T10:32:41.919Z</time></trkpt><trkpt lat="43.97352" lon="10.9024205"><ele>237.0</ele><time>2026-04-06T10:32:42.912Z</time></trkpt><trkpt lat="43.9734335" lon="10.902487"><ele>234.0</ele><time>2026-04-06T10:32:43.919Z</time></trkpt><trkpt lat="43.9733549" lon="10.9025889"><ele>231.0</ele><time>2026-04-06T10:32:44.915Z</time></trkpt><trkpt lat="43.9732806" lon="10.9027149"><ele>228.0</ele><time>2026-04-06T10:32:45.912Z</time></trkpt><trkpt lat="43.9732272" lon="10.9028556"><ele>225.0</ele><time>2026-04-06T10:32:46.913Z</time></trkpt><trkpt lat="43.9731737" lon="10.9030229"><ele>225.0</ele><time>2026-04-06T10:32:47.923Z</time></trkpt><trkpt lat="43.9731201" lon="10.9031706"><ele>225.0</ele><time>2026-04-06T10:32:48.911Z</time></trkpt><trkpt lat="43.9730725" lon="10.9033294"><ele>225.0</ele><time>2026-04-06T10:32:49.915Z</time></trkpt><trkpt lat="43.9730206" lon="10.9034875"><ele>225.0</ele><time>2026-04-06T10:32:50.911Z</time></trkpt><trkpt lat="43.9729618" lon="10.9036482"><ele>223.5</ele><time>2026-04-06T10:32:51.915Z</time></trkpt><trkpt lat="43.97289" lon="10.9038132"><ele>222.0</ele><time>2026-04-06T10:32:52.911Z</time></trkpt><trkpt lat="43.9728066" lon="10.9039651"><ele>220.5</ele><time>2026-04-06T10:32:53.914Z</time></trkpt><trkpt lat="43.9727001" lon="10.9040667"><ele>219.0</ele><time>2026-04-06T10:32:54.915Z</time></trkpt><trkpt lat="43.9725802" lon="10.9041344"><ele>219.25</ele><time>2026-04-06T10:32:55.912Z</time></trkpt><trkpt lat="43.9724401" lon="10.9041682"><ele>219.5</ele><time>2026-04-06T10:32:56.911Z</time></trkpt><trkpt lat="43.9722937" lon="10.9041649"><ele>219.75</ele><time>2026-04-06T10:32:57.916Z</time></trkpt><trkpt lat="43.9721494" lon="10.9041291"><ele>220.0</ele><time>2026-04-06T10:32:58.911Z</time></trkpt><trkpt lat="43.9719932" lon="10.9040856"><ele>220.0</ele><time>2026-04-06T10:32:59.91Z</time></trkpt><trkpt lat="43.9717929" lon="10.9040374"><ele>220.0</ele><time>2026-04-06T10:33:00.914Z</time></trkpt><trkpt lat="43.9715888" lon="10.9039693"><ele>220.0</ele><time>2026-04-06T10:33:01.915Z</time></trkpt><trkpt lat="43.9713651" lon="10.9038913"><ele>216.0</ele><time>2026-04-06T10:33:02.9Z</time></trkpt><trkpt lat="43.9711148" lon="10.9037854"><ele>212.0</ele><time>2026-04-06T10:33:03.912Z</time></trkpt><trkpt lat="43.9708608" lon="10.9037084"><ele>208.5</ele><time>2026-04-06T10:33:04.915Z</time></trkpt><trkpt lat="43.9706085" lon="10.9036235"><ele>205.0</ele><time>2026-04-06T10:33:05.913Z</time></trkpt><trkpt lat="43.9703596" lon="10.9035339"><ele>205.0</ele><time>2026-04-06T10:33:06.909Z</time></trkpt><trkpt lat="43.9701349" lon="10.9034552"><ele>205.0</ele><time>2026-04-06T10:33:07.916Z</time></trkpt><trkpt lat="43.9699039" lon="10.9033808"><ele>204.66666666666666</ele><time>2026-04-06T10:33:08.914Z</time></trkpt><trkpt lat="43.9697057" lon="10.9033531"><ele>204.33333333333331</ele><time>2026-04-06T10:33:09.91Z</time></trkpt><trkpt lat="43.9695095" lon="10.9033739"><ele>204.0</ele><time>2026-04-06T10:33:10.914Z</time></trkpt><trkpt lat="43.969306" lon="10.9034079"><ele>200.66666666666669</ele><time>2026-04-06T10:33:11.915Z</time></trkpt><trkpt lat="43.9691214" lon="10.903445"><ele>197.33333333333334</ele><time>2026-04-06T10:33:12.924Z</time></trkpt><trkpt lat="43.9689285" lon="10.9035484"><ele>194.0</ele><time>2026-04-06T10:33:13.91Z</time></trkpt><trkpt lat="43.9687353" lon="10.903695"><ele>194.0</ele><time>2026-04-06T10:33:14.911Z</time></trkpt><trkpt lat="43.9685619" lon="10.9038825"><ele>194.0</ele><time>2026-04-06T10:33:15.923Z</time></trkpt><trkpt lat="43.9683958" lon="10.9040736"><ele>194.0</ele><time>2026-04-06T10:33:16.914Z</time></trkpt><trkpt lat="43.9682448" lon="10.9042695"><ele>194.0</ele><time>2026-04-06T10:33:17.912Z</time></trkpt><trkpt lat="43.968113" lon="10.9044841"><ele>194.0</ele><time>2026-04-06T10:33:18.912Z</time></trkpt><trkpt lat="43.968007" lon="10.9046932"><ele>194.0</ele><time>2026-04-06T10:33:19.914Z</time></trkpt><trkpt lat="43.9679609" lon="10.9050231"><ele>191.33333333333334</ele><time>2026-04-06T10:33:20.914Z</time></trkpt><trkpt lat="43.9678997" lon="10.9053067"><ele>188.66666666666669</ele><time>2026-04-06T10:33:21.913Z</time></trkpt><trkpt lat="43.9678327" lon="10.9055684"><ele>186.0</ele><time>2026-04-06T10:33:22.913Z</time></trkpt><trkpt lat="43.967744" lon="10.9057923"><ele>186.75</ele><time>2026-04-06T10:33:23.912Z</time></trkpt><trkpt lat="43.9676906" lon="10.9060004"><ele>187.5</ele><time>2026-04-06T10:33:24.912Z</time></trkpt><trkpt lat="43.9676244" lon="10.906181"><ele>188.25</ele><time>2026-04-06T10:33:25.914Z</time></trkpt><trkpt lat="43.9675562" lon="10.9063424"><ele>189.0</ele><time>2026-04-06T10:33:26.911Z</time></trkpt><trkpt lat="43.9674611" lon="10.9064292"><ele>189.0</ele><time>2026-04-06T10:33:27.92Z</time></trkpt><trkpt lat="43.9673529" lon="10.9065199"><ele>189.0</ele><time>2026-04-06T10:33:28.914Z</time></trkpt><trkpt lat="43.9672229" lon="10.9065646"><ele>189.0</ele><time>2026-04-06T10:33:29.913Z</time></trkpt><trkpt lat="43.9670648" lon="10.9065576"><ele>189.0</ele><time>2026-04-06T10:33:30.914Z</time></trkpt><trkpt lat="43.9668939" lon="10.9064102"><ele>189.0</ele><time>2026-04-06T10:33:31.911Z</time></trkpt><trkpt lat="43.9667451" lon="10.9061834"><ele>189.0</ele><time>2026-04-06T10:33:32.92Z</time></trkpt><trkpt lat="43.9665888" lon="10.9060579"><ele>189.0</ele><time>2026-04-06T10:33:33.905Z</time></trkpt><trkpt lat="43.9664476" lon="10.9059949"><ele>187.0</ele><time>2026-04-06T10:33:34.91Z</time></trkpt><trkpt lat="43.9662984" lon="10.9059595"><ele>185.0</ele><time>2026-04-06T10:33:35.914Z</time></trkpt><trkpt lat="43.9661556" lon="10.9059397"><ele>183.0</ele><time>2026-04-06T10:33:36.92Z</time></trkpt><trkpt lat="43.9660496" lon="10.905965"><ele>181.0</ele><time>2026-04-06T10:33:37.911Z</time></trkpt><trkpt lat="43.9658916" lon="10.9061365"><ele>180.0</ele><time>2026-04-06T10:33:38.916Z</time></trkpt><trkpt lat="43.9657947" lon="10.9062833"><ele>179.0</ele><time>2026-04-06T10:33:39.913Z</time></trkpt><trkpt lat="43.9656712" lon="10.9064138"><ele>178.0</ele><time>2026-04-06T10:33:40.915Z</time></trkpt><trkpt lat="43.965526" lon="10.9065004"><ele>178.0</ele><time>2026-04-06T10:33:41.918Z</time></trkpt><trkpt lat="43.965373" lon="10.9065808"><ele>178.0</ele><time>2026-04-06T10:33:42.916Z</time></trkpt><trkpt lat="43.9652102" lon="10.9066373"><ele>178.0</ele><time>2026-04-06T10:33:43.915Z</time></trkpt><trkpt lat="43.965052" lon="10.906667"><ele>177.33333333333334</ele><time>2026-04-06T10:33:44.918Z</time></trkpt><trkpt lat="43.9649088" lon="10.9066571"><ele>176.66666666666666</ele><time>2026-04-06T10:33:45.91Z</time></trkpt><trkpt lat="43.9647621" lon="10.9066268"><ele>176.0</ele><time>2026-04-06T10:33:46.926Z</time></trkpt><trkpt lat="43.9645388" lon="10.9064112"><ele>176.0</ele><time>2026-04-06T10:33:47.916Z</time></trkpt><trkpt lat="43.9643358" lon="10.9061422"><ele>176.0</ele><time>2026-04-06T10:33:48.912Z</time></trkpt><trkpt lat="43.9642345" lon="10.9059246"><ele>175.0</ele><time>2026-04-06T10:33:49.919Z</time></trkpt><trkpt lat="43.9640763" lon="10.9057435"><ele>174.0</ele><time>2026-04-06T10:33:50.913Z</time></trkpt><trkpt lat="43.96388" lon="10.9056011"><ele>173.0</ele><time>2026-04-06T10:33:51.924Z</time></trkpt><trkpt lat="43.96373" lon="10.9054469"><ele>173.0</ele><time>2026-04-06T10:33:52.918Z</time></trkpt><trkpt lat="43.9635892" lon="10.9053011"><ele>173.0</ele><time>2026-04-06T10:33:53.929Z</time></trkpt><trkpt lat="43.9634612" lon="10.9051765"><ele>173.0</ele><time>2026-04-06T10:33:54.916Z</time></trkpt><trkpt lat="43.9633519" lon="10.9050439"><ele>170.5</ele><time>2026-04-06T10:33:55.914Z</time></trkpt><trkpt lat="43.963275" lon="10.904891"><ele>168.0</ele><time>2026-04-06T10:33:56.92Z</time></trkpt><trkpt lat="43.9632223" lon="10.9047245"><ele>165.5</ele><time>2026-04-06T10:33:57.906Z</time></trkpt><trkpt lat="43.9632226" lon="10.9045647"><ele>163.0</ele><time>2026-04-06T10:33:58.918Z</time></trkpt><trkpt lat="43.9632252" lon="10.9043814"><ele>162.33333333333334</ele><time>2026-04-06T10:33:59.911Z</time></trkpt><trkpt lat="43.9632656" lon="10.904172"><ele>161.66666666666666</ele><time>2026-04-06T10:34:00.91Z</time></trkpt><trkpt lat="43.9633241" lon="10.9039375"><ele>161.0</ele><time>2026-04-06T10:34:01.923Z</time></trkpt><trkpt lat="43.9633983" lon="10.903702"><ele>163.66666666666666</ele><time>2026-04-06T10:34:02.914Z</time></trkpt><trkpt lat="43.9634253" lon="10.9034632"><ele>166.33333333333334</ele><time>2026-04-06T10:34:03.911Z</time></trkpt><trkpt lat="43.9634404" lon="10.9032515"><ele>169.0</ele><time>2026-04-06T10:34:04.907Z</time></trkpt><trkpt lat="43.9633954" lon="10.903018"><ele>166.75</ele><time>2026-04-06T10:34:05.913Z</time></trkpt><trkpt lat="43.963352" lon="10.9028566"><ele>164.5</ele><time>2026-04-06T10:34:06.907Z</time></trkpt><trkpt lat="43.9633152" lon="10.9027238"><ele>162.25</ele><time>2026-04-06T10:34:07.913Z</time></trkpt><trkpt lat="43.9632564" lon="10.9025988"><ele>160.0</ele><time>2026-04-06T10:34:08.911Z</time></trkpt><trkpt lat="43.9631517" lon="10.9024682"><ele>160.0</ele><time>2026-04-06T10:34:09.914Z</time></trkpt><trkpt lat="43.9630303" lon="10.9023584"><ele>160.0</ele><time>2026-04-06T10:34:10.91Z</time></trkpt><trkpt lat="43.9628473" lon="10.902285"><ele>160.0</ele><time>2026-04-06T10:34:11.907Z</time></trkpt><trkpt lat="43.9626705" lon="10.9022361"><ele>155.33333333333334</ele><time>2026-04-06T10:34:12.912Z</time></trkpt><trkpt lat="43.9625104" lon="10.9021949"><ele>150.66666666666666</ele><time>2026-04-06T10:34:13.907Z</time></trkpt><trkpt lat="43.9623582" lon="10.9021464"><ele>146.0</ele><time>2026-04-06T10:34:14.907Z</time></trkpt><trkpt lat="43.9622001" lon="10.9021288"><ele>146.0</ele><time>2026-04-06T10:34:15.915Z</time></trkpt><trkpt lat="43.9620485" lon="10.9021315"><ele>146.0</ele><time>2026-04-06T10:34:16.914Z</time></trkpt><trkpt lat="43.9618869" lon="10.9021313"><ele>146.0</ele><time>2026-04-06T10:34:17.921Z</time></trkpt><trkpt lat="43.9617413" lon="10.9021095"><ele>144.25</ele><time>2026-04-06T10:34:18.911Z</time></trkpt><trkpt lat="43.9615982" lon="10.9021049"><ele>142.5</ele><time>2026-04-06T10:34:19.91Z</time></trkpt><trkpt lat="43.9614439" lon="10.9020894"><ele>140.75</ele><time>2026-04-06T10:34:20.916Z</time></trkpt><trkpt lat="43.9613023" lon="10.9020818"><ele>139.0</ele><time>2026-04-06T10:34:21.905Z</time></trkpt><trkpt lat="43.9611628" lon="10.9020575"><ele>139.0</ele><time>2026-04-06T10:34:22.911Z</time></trkpt><trkpt lat="43.9610251" lon="10.9020405"><ele>139.0</ele><time>2026-04-06T10:34:23.909Z</time></trkpt><trkpt lat="43.9608913" lon="10.90204"><ele>139.0</ele><time>2026-04-06T10:34:24.911Z</time></trkpt><trkpt lat="43.9607506" lon="10.9020525"><ele>139.0</ele><time>2026-04-06T10:34:25.908Z</time></trkpt><trkpt lat="43.9605995" lon="10.9020441"><ele>137.5</ele><time>2026-04-06T10:34:26.91Z</time></trkpt><trkpt lat="43.9604553" lon="10.9020283"><ele>136.0</ele><time>2026-04-06T10:34:27.908Z</time></trkpt><trkpt lat="43.960319" lon="10.9020376"><ele>134.5</ele><time>2026-04-06T10:34:28.906Z</time></trkpt><trkpt lat="43.960182" lon="10.9020422"><ele>133.0</ele><time>2026-04-06T10:34:29.914Z</time></trkpt><trkpt lat="43.9600452" lon="10.9020178"><ele>132.0</ele><time>2026-04-06T10:34:30.912Z</time></trkpt><trkpt lat="43.9599166" lon="10.9019974"><ele>131.0</ele><time>2026-04-06T10:34:31.912Z</time></trkpt><trkpt lat="43.9597815" lon="10.9019954"><ele>130.0</ele><time>2026-04-06T10:34:32.912Z</time></trkpt><trkpt lat="43.9596558" lon="10.9019717"><ele>129.0</ele><time>2026-04-06T10:34:33.915Z</time></trkpt><trkpt lat="43.9595258" lon="10.9019544"><ele>129.0</ele><time>2026-04-06T10:34:34.915Z</time></trkpt><trkpt lat="43.9594002" lon="10.9019488"><ele>129.0</ele><time>2026-04-06T10:34:35.915Z</time></trkpt><trkpt lat="43.9592778" lon="10.9019191"><ele>129.0</ele><time>2026-04-06T10:34:36.915Z</time></trkpt><trkpt lat="43.9591519" lon="10.9019111"><ele>129.0</ele><time>2026-04-06T10:34:37.918Z</time></trkpt><trkpt lat="43.9590281" lon="10.9018835"><ele>127.0</ele><time>2026-04-06T10:34:38.911Z</time></trkpt><trkpt lat="43.9589152" lon="10.9018395"><ele>125.0</ele><time>2026-04-06T10:34:39.909Z</time></trkpt><trkpt lat="43.9588068" lon="10.9018645"><ele>123.0</ele><time>2026-04-06T10:34:40.908Z</time></trkpt><trkpt lat="43.9587013" lon="10.9018591"><ele>121.0</ele><time>2026-04-06T10:34:41.912Z</time></trkpt><trkpt lat="43.9586166" lon="10.901839"><ele>119.0</ele><time>2026-04-06T10:34:42.909Z</time></trkpt><trkpt lat="43.9585405" lon="10.9017954"><ele>119.6</ele><time>2026-04-06T10:34:43.914Z</time></trkpt><trkpt lat="43.9584817" lon="10.9016921"><ele>120.2</ele><time>2026-04-06T10:34:44.917Z</time></trkpt><trkpt lat="43.9584335" lon="10.9016036"><ele>120.79999999999998</ele><time>2026-04-06T10:34:45.913Z</time></trkpt><trkpt lat="43.9583927" lon="10.9014717"><ele>121.39999999999999</ele><time>2026-04-06T10:34:46.912Z</time></trkpt><trkpt lat="43.9583465" lon="10.9013386"><ele>122.0</ele><time>2026-04-06T10:34:47.924Z</time></trkpt><trkpt lat="43.9582979" lon="10.9012103"><ele>122.0</ele><time>2026-04-06T10:34:48.912Z</time></trkpt><trkpt lat="43.9582475" lon="10.901073"><ele>122.0</ele><time>2026-04-06T10:34:49.918Z</time></trkpt><trkpt lat="43.9581889" lon="10.9009378"><ele>122.0</ele><time>2026-04-06T10:34:50.916Z</time></trkpt><trkpt lat="43.9581288" lon="10.900787"><ele>122.0</ele><time>2026-04-06T10:34:51.914Z</time></trkpt><trkpt lat="43.9580663" lon="10.9006342"><ele>122.0</ele><time>2026-04-06T10:34:52.912Z</time></trkpt><trkpt lat="43.9580057" lon="10.9004626"><ele>122.0</ele><time>2026-04-06T10:34:53.923Z</time></trkpt><trkpt lat="43.9579434" lon="10.900286"><ele>122.0</ele><time>2026-04-06T10:34:54.908Z</time></trkpt><trkpt lat="43.9578506" lon="10.9001188"><ele>122.0</ele><time>2026-04-06T10:34:55.907Z</time></trkpt><trkpt lat="43.9577508" lon="10.8999518"><ele>122.66666666666666</ele><time>2026-04-06T10:34:56.907Z</time></trkpt><trkpt lat="43.9576459" lon="10.8997695"><ele>123.33333333333334</ele><time>2026-04-06T10:34:57.915Z</time></trkpt><trkpt lat="43.9575365" lon="10.8995951"><ele>124.0</ele><time>2026-04-06T10:34:58.906Z</time></trkpt><trkpt lat="43.9574493" lon="10.8994207"><ele>120.0</ele><time>2026-04-06T10:34:59.913Z</time></trkpt><trkpt lat="43.9573363" lon="10.8992814"><ele>116.0</ele><time>2026-04-06T10:35:00.916Z</time></trkpt><trkpt lat="43.9572162" lon="10.899149"><ele>112.0</ele><time>2026-04-06T10:35:01.911Z</time></trkpt><trkpt lat="43.9570731" lon="10.8990502"><ele>112.0</ele><time>2026-04-06T10:35:02.912Z</time></trkpt><trkpt lat="43.9569419" lon="10.8989318"><ele>112.0</ele><time>2026-04-06T10:35:03.913Z</time></trkpt><trkpt lat="43.9568004" lon="10.8988262"><ele>112.0</ele><time>2026-04-06T10:35:04.914Z</time></trkpt><trkpt lat="43.9566565" lon="10.8987288"><ele>111.0</ele><time>2026-04-06T10:35:05.913Z</time></trkpt><trkpt lat="43.9564956" lon="10.8986454"><ele>110.0</ele><time>2026-04-06T10:35:06.915Z</time></trkpt><trkpt lat="43.9563301" lon="10.8985772"><ele>109.0</ele><time>2026-04-06T10:35:07.909Z</time></trkpt><trkpt lat="43.9561571" lon="10.898507"><ele>109.0</ele><time>2026-04-06T10:35:08.917Z</time></trkpt><trkpt lat="43.9559857" lon="10.8984422"><ele>109.0</ele><time>2026-04-06T10:35:09.911Z</time></trkpt><trkpt lat="43.9558089" lon="10.8983855"><ele>109.0</ele><time>2026-04-06T10:35:10.912Z</time></trkpt><trkpt lat="43.9556349" lon="10.8983222"><ele>106.33333333333334</ele><time>2026-04-06T10:35:11.92Z</time></trkpt><trkpt lat="43.9554619" lon="10.8982669"><ele>103.66666666666666</ele><time>2026-04-06T10:35:12.913Z</time></trkpt><trkpt lat="43.9552852" lon="10.8982024"><ele>101.0</ele><time>2026-04-06T10:35:13.915Z</time></trkpt><trkpt lat="43.9551032" lon="10.8981286"><ele>101.66666666666666</ele><time>2026-04-06T10:35:14.912Z</time></trkpt><trkpt lat="43.9549155" lon="10.8980657"><ele>102.33333333333334</ele><time>2026-04-06T10:35:15.913Z</time></trkpt><trkpt lat="43.9547346" lon="10.8979951"><ele>103.0</ele><time>2026-04-06T10:35:16.909Z</time></trkpt><trkpt lat="43.9545483" lon="10.8979265"><ele>103.0</ele><time>2026-04-06T10:35:17.911Z</time></trkpt><trkpt lat="43.9543631" lon="10.8978628"><ele>103.0</ele><time>2026-04-06T10:35:18.909Z</time></trkpt><trkpt lat="43.9541774" lon="10.8977846"><ele>103.0</ele><time>2026-04-06T10:35:19.913Z</time></trkpt><trkpt lat="43.9539968" lon="10.8977263"><ele>102.33333333333334</ele><time>2026-04-06T10:35:20.911Z</time></trkpt><trkpt lat="43.9538075" lon="10.8976703"><ele>101.66666666666666</ele><time>2026-04-06T10:35:21.91Z</time></trkpt><trkpt lat="43.9536218" lon="10.8976071"><ele>101.0</ele><time>2026-04-06T10:35:22.914Z</time></trkpt><trkpt lat="43.9534311" lon="10.8975579"><ele>100.0</ele><time>2026-04-06T10:35:23.915Z</time></trkpt><trkpt lat="43.953252" lon="10.8974948"><ele>99.0</ele><time>2026-04-06T10:35:24.921Z</time></trkpt><trkpt lat="43.9530693" lon="10.8974316"><ele>98.0</ele><time>2026-04-06T10:35:25.912Z</time></trkpt><trkpt lat="43.952874" lon="10.8973765"><ele>98.0</ele><time>2026-04-06T10:35:26.913Z</time></trkpt><trkpt lat="43.9526846" lon="10.8973231"><ele>98.0</ele><time>2026-04-06T10:35:27.911Z</time></trkpt><trkpt lat="43.9525028" lon="10.8972587"><ele>98.0</ele><time>2026-04-06T10:35:28.911Z</time></trkpt><trkpt lat="43.9523093" lon="10.8972024"><ele>98.33333333333333</ele><time>2026-04-06T10:35:29.911Z</time></trkpt><trkpt lat="43.9521165" lon="10.8971458"><ele>98.66666666666666</ele><time>2026-04-06T10:35:30.909Z</time></trkpt><trkpt lat="43.9519297" lon="10.8970824"><ele>99.0</ele><time>2026-04-06T10:35:31.915Z</time></trkpt><trkpt lat="43.9517395" lon="10.8970248"><ele>98.33333333333334</ele><time>2026-04-06T10:35:32.909Z</time></trkpt><trkpt lat="43.9515537" lon="10.8969639"><ele>97.66666666666667</ele><time>2026-04-06T10:35:33.927Z</time></trkpt><trkpt lat="43.9513591" lon="10.8969073"><ele>97.0</ele><time>2026-04-06T10:35:34.91Z</time></trkpt><trkpt lat="43.9511649" lon="10.8968489"><ele>97.0</ele><time>2026-04-06T10:35:35.915Z</time></trkpt><trkpt lat="43.9509713" lon="10.8967929"><ele>97.0</ele><time>2026-04-06T10:35:36.914Z</time></trkpt><trkpt lat="43.950775" lon="10.8967406"><ele>97.0</ele><time>2026-04-06T10:35:37.914Z</time></trkpt><trkpt lat="43.9505835" lon="10.8966778"><ele>96.33333333333334</ele><time>2026-04-06T10:35:38.912Z</time></trkpt><trkpt lat="43.9503916" lon="10.8966091"><ele>95.66666666666667</ele><time>2026-04-06T10:35:39.912Z</time></trkpt><trkpt lat="43.9502063" lon="10.8965489"><ele>95.0</ele><time>2026-04-06T10:35:40.913Z</time></trkpt><trkpt lat="43.9500108" lon="10.896493"><ele>95.0</ele><time>2026-04-06T10:35:41.911Z</time></trkpt><trkpt lat="43.9498222" lon="10.8964368"><ele>95.0</ele><time>2026-04-06T10:35:42.912Z</time></trkpt><trkpt lat="43.9496332" lon="10.8963875"><ele>95.0</ele><time>2026-04-06T10:35:43.915Z</time></trkpt><trkpt lat="43.9494531" lon="10.8963344"><ele>95.0</ele><time>2026-04-06T10:35:44.914Z</time></trkpt><trkpt lat="43.9492802" lon="10.8962711"><ele>95.0</ele><time>2026-04-06T10:35:45.912Z</time></trkpt><trkpt lat="43.9491123" lon="10.8962138"><ele>95.0</ele><time>2026-04-06T10:35:46.909Z</time></trkpt><trkpt lat="43.9489552" lon="10.8961512"><ele>94.75</ele><time>2026-04-06T10:35:47.914Z</time></trkpt><trkpt lat="43.9488055" lon="10.8960998"><ele>94.5</ele><time>2026-04-06T10:35:48.912Z</time></trkpt><trkpt lat="43.9486584" lon="10.8960518"><ele>94.25</ele><time>2026-04-06T10:35:49.913Z</time></trkpt><trkpt lat="43.9485263" lon="10.8960018"><ele>94.0</ele><time>2026-04-06T10:35:50.91Z</time></trkpt><trkpt lat="43.9484039" lon="10.8959571"><ele>93.4</ele><time>2026-04-06T10:35:51.91Z</time></trkpt><trkpt lat="43.9482944" lon="10.8959107"><ele>92.80000000000001</ele><time>2026-04-06T10:35:52.91Z</time></trkpt><trkpt lat="43.9481984" lon="10.8958773"><ele>92.19999999999999</ele><time>2026-04-06T10:35:53.913Z</time></trkpt><trkpt lat="43.9481103" lon="10.8958341"><ele>91.6</ele><time>2026-04-06T10:35:54.915Z</time></trkpt><trkpt lat="43.9480336" lon="10.8957791"><ele>91.0</ele><time>2026-04-06T10:35:55.911Z</time></trkpt><trkpt lat="43.9479706" lon="10.895718"><ele>91.0</ele><time>2026-04-06T10:35:56.913Z</time></trkpt><trkpt lat="43.9478787" lon="10.8956508"><ele>91.0</ele><time>2026-04-06T10:35:58.91Z</time></trkpt><trkpt lat="43.9478077" lon="10.895631"><ele>91.0</ele><time>2026-04-06T10:36:00.918Z</time></trkpt><trkpt lat="43.9476495" lon="10.8956463"><ele>91.0</ele><time>2026-04-06T10:39:43.911Z</time></trkpt><trkpt lat="43.9475728" lon="10.895651"><ele>91.0</ele><time>2026-04-06T10:39:44.923Z</time></trkpt><trkpt lat="43.947472" lon="10.89559"><ele>90.8</ele><time>2026-04-06T10:39:46.908Z</time></trkpt><trkpt lat="43.947386" lon="10.8956024"><ele>90.6</ele><time>2026-04-06T10:39:47.916Z</time></trkpt><trkpt lat="43.9472759" lon="10.8955573"><ele>90.4</ele><time>2026-04-06T10:39:48.914Z</time></trkpt><trkpt lat="43.9471463" lon="10.8955232"><ele>90.2</ele><time>2026-04-06T10:39:49.918Z</time></trkpt><trkpt lat="43.9470358" lon="10.8954907"><ele>90.0</ele><time>2026-04-06T10:39:50.914Z</time></trkpt><trkpt lat="43.9469063" lon="10.8954635"><ele>90.0</ele><time>2026-04-06T10:39:51.916Z</time></trkpt><trkpt lat="43.9467932" lon="10.8954032"><ele>90.0</ele><time>2026-04-06T10:39:52.919Z</time></trkpt><trkpt lat="43.9466357" lon="10.8953845"><ele>90.0</ele><time>2026-04-06T10:39:53.914Z</time></trkpt><trkpt lat="43.9465038" lon="10.8953191"><ele>90.0</ele><time>2026-04-06T10:39:54.914Z</time></trkpt><trkpt lat="43.9463515" lon="10.8952784"><ele>89.66666666666667</ele><time>2026-04-06T10:39:55.919Z</time></trkpt><trkpt lat="43.9461894" lon="10.8952223"><ele>89.33333333333334</ele><time>2026-04-06T10:39:56.913Z</time></trkpt><trkpt lat="43.9460256" lon="10.895167"><ele>89.0</ele><time>2026-04-06T10:39:57.923Z</time></trkpt><trkpt lat="43.9458569" lon="10.8951065"><ele>88.33333333333334</ele><time>2026-04-06T10:39:58.911Z</time></trkpt><trkpt lat="43.9456747" lon="10.8950616"><ele>87.66666666666667</ele><time>2026-04-06T10:39:59.913Z</time></trkpt><trkpt lat="43.9454941" lon="10.8950121"><ele>87.0</ele><time>2026-04-06T10:40:00.913Z</time></trkpt><trkpt lat="43.945305" lon="10.8949712"><ele>87.0</ele><time>2026-04-06T10:40:01.914Z</time></trkpt><trkpt lat="43.9451318" lon="10.8949188"><ele>87.0</ele><time>2026-04-06T10:40:02.915Z</time></trkpt><trkpt lat="43.9449472" lon="10.894864"><ele>87.0</ele><time>2026-04-06T10:40:03.912Z</time></trkpt><trkpt lat="43.9447638" lon="10.8948136"><ele>86.0</ele><time>2026-04-06T10:40:04.911Z</time></trkpt><trkpt lat="43.9445845" lon="10.8947787"><ele>85.0</ele><time>2026-04-06T10:40:05.914Z</time></trkpt><trkpt lat="43.9444189" lon="10.8947352"><ele>84.0</ele><time>2026-04-06T10:40:06.92Z</time></trkpt><trkpt lat="43.9442441" lon="10.8946991"><ele>84.33333333333333</ele><time>2026-04-06T10:40:07.912Z</time></trkpt><trkpt lat="43.9440564" lon="10.8946392"><ele>84.66666666666666</ele><time>2026-04-06T10:40:08.912Z</time></trkpt><trkpt lat="43.9438619" lon="10.8945637"><ele>85.0</ele><time>2026-04-06T10:40:09.913Z</time></trkpt><trkpt lat="43.943668" lon="10.8945105"><ele>85.0</ele><time>2026-04-06T10:40:10.924Z</time></trkpt><trkpt lat="43.9434551" lon="10.8944677"><ele>85.0</ele><time>2026-04-06T10:40:11.918Z</time></trkpt><trkpt lat="43.9432487" lon="10.8944181"><ele>85.0</ele><time>2026-04-06T10:40:12.919Z</time></trkpt><trkpt lat="43.9430648" lon="10.8943518"><ele>85.0</ele><time>2026-04-06T10:40:13.912Z</time></trkpt><trkpt lat="43.9428889" lon="10.8942934"><ele>85.0</ele><time>2026-04-06T10:40:14.913Z</time></trkpt><trkpt lat="43.9427243" lon="10.8942419"><ele>85.0</ele><time>2026-04-06T10:40:15.922Z</time></trkpt><trkpt lat="43.9425548" lon="10.8941769"><ele>85.0</ele><time>2026-04-06T10:40:16.911Z</time></trkpt><trkpt lat="43.9423921" lon="10.8941118"><ele>85.0</ele><time>2026-04-06T10:40:17.92Z</time></trkpt><trkpt lat="43.9422355" lon="10.8940429"><ele>85.0</ele><time>2026-04-06T10:40:18.915Z</time></trkpt><trkpt lat="43.9420965" lon="10.8939547"><ele>85.0</ele><time>2026-04-06T10:40:19.917Z</time></trkpt><trkpt lat="43.9419526" lon="10.8938609"><ele>85.0</ele><time>2026-04-06T10:40:20.91Z</time></trkpt><trkpt lat="43.9418119" lon="10.8937484"><ele>85.0</ele><time>2026-04-06T10:40:21.92Z</time></trkpt><trkpt lat="43.9416744" lon="10.8936334"><ele>84.33333333333333</ele><time>2026-04-06T10:40:22.911Z</time></trkpt><trkpt lat="43.9415484" lon="10.893524"><ele>83.66666666666667</ele><time>2026-04-06T10:40:23.911Z</time></trkpt><trkpt lat="43.9414049" lon="10.8934223"><ele>83.0</ele><time>2026-04-06T10:40:24.917Z</time></trkpt><trkpt lat="43.9412534" lon="10.8933438"><ele>82.66666666666667</ele><time>2026-04-06T10:40:25.918Z</time></trkpt><trkpt lat="43.9410844" lon="10.893259"><ele>82.33333333333333</ele><time>2026-04-06T10:40:26.915Z</time></trkpt><trkpt lat="43.9409074" lon="10.8931987"><ele>82.0</ele><time>2026-04-06T10:40:27.92Z</time></trkpt><trkpt lat="43.9407231" lon="10.8931489"><ele>82.0</ele><time>2026-04-06T10:40:28.911Z</time></trkpt><trkpt lat="43.9405295" lon="10.8931321"><ele>82.0</ele><time>2026-04-06T10:40:29.92Z</time></trkpt><trkpt lat="43.9403315" lon="10.8931216"><ele>82.0</ele><time>2026-04-06T10:40:30.911Z</time></trkpt><trkpt lat="43.9401391" lon="10.8931126"><ele>82.0</ele><time>2026-04-06T10:40:31.914Z</time></trkpt><trkpt lat="43.9399197" lon="10.8931446"><ele>82.0</ele><time>2026-04-06T10:40:32.915Z</time></trkpt><trkpt lat="43.9397126" lon="10.8931806"><ele>82.0</ele><time>2026-04-06T10:40:33.911Z</time></trkpt><trkpt lat="43.9395101" lon="10.8932156"><ele>82.0</ele><time>2026-04-06T10:40:34.918Z</time></trkpt><trkpt lat="43.9392944" lon="10.8932891"><ele>82.0</ele><time>2026-04-06T10:40:35.921Z</time></trkpt><trkpt lat="43.9391202" lon="10.8932906"><ele>82.0</ele><time>2026-04-06T10:40:36.911Z</time></trkpt><trkpt lat="43.938946" lon="10.8932804"><ele>82.0</ele><time>2026-04-06T10:40:37.916Z</time></trkpt><trkpt lat="43.9387678" lon="10.8932856"><ele>82.0</ele><time>2026-04-06T10:40:38.912Z</time></trkpt><trkpt lat="43.9385902" lon="10.8932872"><ele>82.0</ele><time>2026-04-06T10:40:39.912Z</time></trkpt><trkpt lat="43.9384216" lon="10.8932878"><ele>81.33333333333333</ele><time>2026-04-06T10:40:40.912Z</time></trkpt><trkpt lat="43.9382436" lon="10.8932922"><ele>80.66666666666667</ele><time>2026-04-06T10:40:41.913Z</time></trkpt><trkpt lat="43.9380682" lon="10.8932915"><ele>80.0</ele><time>2026-04-06T10:40:42.914Z</time></trkpt><trkpt lat="43.9378942" lon="10.8932913"><ele>80.0</ele><time>2026-04-06T10:40:43.913Z</time></trkpt><trkpt lat="43.9377168" lon="10.8933026"><ele>80.0</ele><time>2026-04-06T10:40:44.917Z</time></trkpt><trkpt lat="43.9375383" lon="10.8932998"><ele>80.0</ele><time>2026-04-06T10:40:45.912Z</time></trkpt><trkpt lat="43.9373582" lon="10.8933048"><ele>79.66666666666667</ele><time>2026-04-06T10:40:46.913Z</time></trkpt><trkpt lat="43.9371787" lon="10.8933033"><ele>79.33333333333333</ele><time>2026-04-06T10:40:47.912Z</time></trkpt><trkpt lat="43.9370067" lon="10.8933066"><ele>79.0</ele><time>2026-04-06T10:40:48.911Z</time></trkpt><trkpt lat="43.9368352" lon="10.8932998"><ele>78.0</ele><time>2026-04-06T10:40:49.913Z</time></trkpt><trkpt lat="43.9366625" lon="10.8932972"><ele>77.0</ele><time>2026-04-06T10:40:50.915Z</time></trkpt><trkpt lat="43.9364817" lon="10.8933016"><ele>76.0</ele><time>2026-04-06T10:40:51.915Z</time></trkpt><trkpt lat="43.9363067" lon="10.8932949"><ele>76.0</ele><time>2026-04-06T10:40:52.913Z</time></trkpt><trkpt lat="43.9361378" lon="10.8932875"><ele>76.0</ele><time>2026-04-06T10:40:53.91Z</time></trkpt><trkpt lat="43.9359661" lon="10.8932868"><ele>76.0</ele><time>2026-04-06T10:40:54.914Z</time></trkpt><trkpt lat="43.9357951" lon="10.8932804"><ele>75.66666666666666</ele><time>2026-04-06T10:40:55.912Z</time></trkpt><trkpt lat="43.9356339" lon="10.8932724"><ele>75.33333333333333</ele><time>2026-04-06T10:40:56.918Z</time></trkpt><trkpt lat="43.9354672" lon="10.8932713"><ele>75.0</ele><time>2026-04-06T10:40:57.915Z</time></trkpt><trkpt lat="43.9353009" lon="10.8932784"><ele>75.0</ele><time>2026-04-06T10:40:58.91Z</time></trkpt><trkpt lat="43.9351351" lon="10.8932699"><ele>75.0</ele><time>2026-04-06T10:40:59.915Z</time></trkpt><trkpt lat="43.9349684" lon="10.8932839"><ele>75.0</ele><time>2026-04-06T10:41:00.91Z</time></trkpt><trkpt lat="43.9348062" lon="10.8932748"><ele>74.66666666666667</ele><time>2026-04-06T10:41:01.911Z</time></trkpt><trkpt lat="43.9346459" lon="10.8932796"><ele>74.33333333333334</ele><time>2026-04-06T10:41:02.92Z</time></trkpt><trkpt lat="43.9344836" lon="10.8932787"><ele>74.0</ele><time>2026-04-06T10:41:03.915Z</time></trkpt><trkpt lat="43.9343166" lon="10.8932751"><ele>74.66666666666667</ele><time>2026-04-06T10:41:04.917Z</time></trkpt><trkpt lat="43.9341596" lon="10.8932767"><ele>75.33333333333333</ele><time>2026-04-06T10:41:05.906Z</time></trkpt><trkpt lat="43.9339921" lon="10.8932792"><ele>76.0</ele><time>2026-04-06T10:41:06.91Z</time></trkpt><trkpt lat="43.9338328" lon="10.89327"><ele>76.0</ele><time>2026-04-06T10:41:07.922Z</time></trkpt><trkpt lat="43.9336697" lon="10.8932767"><ele>76.0</ele><time>2026-04-06T10:41:08.909Z</time></trkpt><trkpt lat="43.9335106" lon="10.8932636"><ele>76.0</ele><time>2026-04-06T10:41:09.922Z</time></trkpt><trkpt lat="43.9333488" lon="10.8932712"><ele>75.0</ele><time>2026-04-06T10:41:10.912Z</time></trkpt><trkpt lat="43.9331948" lon="10.8932681"><ele>74.0</ele><time>2026-04-06T10:41:11.922Z</time></trkpt><trkpt lat="43.9330379" lon="10.8932756"><ele>73.0</ele><time>2026-04-06T10:41:12.911Z</time></trkpt><trkpt lat="43.9328725" lon="10.8932799"><ele>73.0</ele><time>2026-04-06T10:41:13.911Z</time></trkpt><trkpt lat="43.9327117" lon="10.8932811"><ele>73.0</ele><time>2026-04-06T10:41:14.91Z</time></trkpt><trkpt lat="43.9325566" lon="10.8932814"><ele>73.0</ele><time>2026-04-06T10:41:15.911Z</time></trkpt><trkpt lat="43.9323884" lon="10.8932791"><ele>72.66666666666666</ele><time>2026-04-06T10:41:16.915Z</time></trkpt><trkpt lat="43.932223" lon="10.8932849"><ele>72.33333333333333</ele><time>2026-04-06T10:41:17.912Z</time></trkpt><trkpt lat="43.9320474" lon="10.8932787"><ele>72.0</ele><time>2026-04-06T10:41:18.914Z</time></trkpt><trkpt lat="43.931872" lon="10.8932748"><ele>72.0</ele><time>2026-04-06T10:41:19.911Z</time></trkpt><trkpt lat="43.931702" lon="10.8932798"><ele>72.0</ele><time>2026-04-06T10:41:20.916Z</time></trkpt><trkpt lat="43.9315301" lon="10.8932845"><ele>72.0</ele><time>2026-04-06T10:41:21.913Z</time></trkpt><trkpt lat="43.9313584" lon="10.8932805"><ele>72.0</ele><time>2026-04-06T10:41:22.91Z</time></trkpt><trkpt lat="43.9311886" lon="10.8932865"><ele>72.0</ele><time>2026-04-06T10:41:23.911Z</time></trkpt><trkpt lat="43.9310148" lon="10.8932775"><ele>72.0</ele><time>2026-04-06T10:41:24.911Z</time></trkpt><trkpt lat="43.9308374" lon="10.8932733"><ele>71.66666666666667</ele><time>2026-04-06T10:41:25.913Z</time></trkpt><trkpt lat="43.9306679" lon="10.8932723"><ele>71.33333333333334</ele><time>2026-04-06T10:41:26.911Z</time></trkpt><trkpt lat="43.9304932" lon="10.8932818"><ele>71.0</ele><time>2026-04-06T10:41:27.911Z</time></trkpt><trkpt lat="43.9303198" lon="10.8932638"><ele>71.0</ele><time>2026-04-06T10:41:28.913Z</time></trkpt><trkpt lat="43.9301563" lon="10.893283"><ele>71.0</ele><time>2026-04-06T10:41:29.91Z</time></trkpt><trkpt lat="43.9299953" lon="10.893275"><ele>71.0</ele><time>2026-04-06T10:41:30.912Z</time></trkpt><trkpt lat="43.9298245" lon="10.8932506"><ele>70.66666666666667</ele><time>2026-04-06T10:41:31.909Z</time></trkpt><trkpt lat="43.9296539" lon="10.8932571"><ele>70.33333333333333</ele><time>2026-04-06T10:41:32.898Z</time></trkpt><trkpt lat="43.9294832" lon="10.8932769"><ele>70.0</ele><time>2026-04-06T10:41:33.914Z</time></trkpt><trkpt lat="43.929305" lon="10.8932984"><ele>69.66666666666666</ele><time>2026-04-06T10:41:34.91Z</time></trkpt><trkpt lat="43.9291382" lon="10.8933137"><ele>69.33333333333333</ele><time>2026-04-06T10:41:35.916Z</time></trkpt><trkpt lat="43.9289663" lon="10.893339"><ele>69.0</ele><time>2026-04-06T10:41:36.911Z</time></trkpt><trkpt lat="43.9287945" lon="10.893358"><ele>69.0</ele><time>2026-04-06T10:41:37.911Z</time></trkpt><trkpt lat="43.928614" lon="10.8934113"><ele>69.0</ele><time>2026-04-06T10:41:38.911Z</time></trkpt><trkpt lat="43.928438" lon="10.8934803"><ele>69.0</ele><time>2026-04-06T10:41:39.91Z</time></trkpt><trkpt lat="43.9282625" lon="10.8935569"><ele>68.66666666666667</ele><time>2026-04-06T10:41:40.911Z</time></trkpt><trkpt lat="43.9280812" lon="10.8936573"><ele>68.33333333333334</ele><time>2026-04-06T10:41:41.915Z</time></trkpt><trkpt lat="43.9279104" lon="10.8937465"><ele>68.0</ele><time>2026-04-06T10:41:42.909Z</time></trkpt><trkpt lat="43.9277359" lon="10.8938459"><ele>68.0</ele><time>2026-04-06T10:41:43.915Z</time></trkpt><trkpt lat="43.9275592" lon="10.8939651"><ele>68.0</ele><time>2026-04-06T10:41:44.911Z</time></trkpt><trkpt lat="43.9273898" lon="10.894085"><ele>68.0</ele><time>2026-04-06T10:41:45.909Z</time></trkpt><trkpt lat="43.9272262" lon="10.8942057"><ele>67.66666666666667</ele><time>2026-04-06T10:41:46.915Z</time></trkpt><trkpt lat="43.9270746" lon="10.8943439"><ele>67.33333333333333</ele><time>2026-04-06T10:41:47.92Z</time></trkpt><trkpt lat="43.9269187" lon="10.8944952"><ele>67.0</ele><time>2026-04-06T10:41:48.912Z</time></trkpt><trkpt lat="43.9267692" lon="10.8946379"><ele>67.33333333333333</ele><time>2026-04-06T10:41:49.91Z</time></trkpt><trkpt lat="43.9266103" lon="10.8947788"><ele>67.66666666666667</ele><time>2026-04-06T10:41:50.916Z</time></trkpt><trkpt lat="43.926465" lon="10.8949563"><ele>68.0</ele><time>2026-04-06T10:41:51.915Z</time></trkpt><trkpt lat="43.926326" lon="10.8951034"><ele>67.0</ele><time>2026-04-06T10:41:52.911Z</time></trkpt><trkpt lat="43.9261879" lon="10.895244"><ele>66.0</ele><time>2026-04-06T10:41:53.91Z</time></trkpt><trkpt lat="43.9260563" lon="10.8953678"><ele>65.0</ele><time>2026-04-06T10:41:54.906Z</time></trkpt><trkpt lat="43.925936" lon="10.8954957"><ele>65.75</ele><time>2026-04-06T10:41:55.91Z</time></trkpt><trkpt lat="43.9258216" lon="10.8956245"><ele>66.5</ele><time>2026-04-06T10:41:56.916Z</time></trkpt><trkpt lat="43.925709" lon="10.8957411"><ele>67.25</ele><time>2026-04-06T10:41:57.917Z</time></trkpt><trkpt lat="43.9256021" lon="10.8958342"><ele>68.0</ele><time>2026-04-06T10:41:58.912Z</time></trkpt><trkpt lat="43.9255064" lon="10.8959425"><ele>68.0</ele><time>2026-04-06T10:41:59.917Z</time></trkpt><trkpt lat="43.9254156" lon="10.8960341"><ele>68.0</ele><time>2026-04-06T10:42:00.911Z</time></trkpt><trkpt lat="43.9253348" lon="10.8961333"><ele>68.0</ele><time>2026-04-06T10:42:01.908Z</time></trkpt><trkpt lat="43.9252265" lon="10.8962251"><ele>68.0</ele><time>2026-04-06T10:42:02.907Z</time></trkpt><trkpt lat="43.9251109" lon="10.8963295"><ele>67.75</ele><time>2026-04-06T10:42:03.917Z</time></trkpt><trkpt lat="43.9250044" lon="10.8964106"><ele>67.5</ele><time>2026-04-06T10:42:04.909Z</time></trkpt><trkpt lat="43.924898" lon="10.8965337"><ele>67.25</ele><time>2026-04-06T10:42:05.914Z</time></trkpt><trkpt lat="43.9247798" lon="10.8966473"><ele>67.0</ele><time>2026-04-06T10:42:06.92Z</time></trkpt><trkpt lat="43.9246613" lon="10.896755"><ele>66.66666666666666</ele><time>2026-04-06T10:42:07.913Z</time></trkpt><trkpt lat="43.9245371" lon="10.8968763"><ele>66.33333333333333</ele><time>2026-04-06T10:42:08.91Z</time></trkpt><trkpt lat="43.9244149" lon="10.8969959"><ele>66.0</ele><time>2026-04-06T10:42:09.909Z</time></trkpt><trkpt lat="43.9242839" lon="10.8971385"><ele>66.33333333333333</ele><time>2026-04-06T10:42:10.924Z</time></trkpt><trkpt lat="43.924145" lon="10.897275"><ele>66.66666666666666</ele><time>2026-04-06T10:42:11.908Z</time></trkpt><trkpt lat="43.9240162" lon="10.8974054"><ele>67.0</ele><time>2026-04-06T10:42:12.906Z</time></trkpt><trkpt lat="43.9238763" lon="10.8975644"><ele>66.66666666666666</ele><time>2026-04-06T10:42:13.912Z</time></trkpt><trkpt lat="43.9237335" lon="10.8976927"><ele>66.33333333333333</ele><time>2026-04-06T10:42:14.912Z</time></trkpt><trkpt lat="43.923587" lon="10.8978148"><ele>66.0</ele><time>2026-04-06T10:42:15.911Z</time></trkpt><trkpt lat="43.9234118" lon="10.8979528"><ele>65.0</ele><time>2026-04-06T10:42:16.912Z</time></trkpt><trkpt lat="43.9232694" lon="10.8980986"><ele>64.0</ele><time>2026-04-06T10:42:17.906Z</time></trkpt><trkpt lat="43.923138" lon="10.8982585"><ele>63.0</ele><time>2026-04-06T10:42:18.912Z</time></trkpt><trkpt lat="43.9230014" lon="10.8984394"><ele>63.0</ele><time>2026-04-06T10:42:19.913Z</time></trkpt><trkpt lat="43.9228545" lon="10.8985679"><ele>63.0</ele><time>2026-04-06T10:42:20.911Z</time></trkpt><trkpt lat="43.9227041" lon="10.8987153"><ele>63.0</ele><time>2026-04-06T10:42:21.908Z</time></trkpt><trkpt lat="43.9225578" lon="10.8988701"><ele>63.0</ele><time>2026-04-06T10:42:22.911Z</time></trkpt><trkpt lat="43.9224183" lon="10.8990151"><ele>63.0</ele><time>2026-04-06T10:42:23.908Z</time></trkpt><trkpt lat="43.9222887" lon="10.8991617"><ele>63.0</ele><time>2026-04-06T10:42:24.914Z</time></trkpt><trkpt lat="43.922133" lon="10.8993192"><ele>62.66666666666667</ele><time>2026-04-06T10:42:25.91Z</time></trkpt><trkpt lat="43.9219869" lon="10.8994703"><ele>62.333333333333336</ele><time>2026-04-06T10:42:26.911Z</time></trkpt><trkpt lat="43.9218517" lon="10.8996328"><ele>62.0</ele><time>2026-04-06T10:42:27.918Z</time></trkpt><trkpt lat="43.921713" lon="10.8998371"><ele>62.0</ele><time>2026-04-06T10:42:28.915Z</time></trkpt><trkpt lat="43.9215939" lon="10.9000113"><ele>62.0</ele><time>2026-04-06T10:42:29.911Z</time></trkpt><trkpt lat="43.9214704" lon="10.9002111"><ele>62.0</ele><time>2026-04-06T10:42:30.913Z</time></trkpt><trkpt lat="43.9213533" lon="10.9004171"><ele>62.66666666666667</ele><time>2026-04-06T10:42:31.911Z</time></trkpt><trkpt lat="43.9212442" lon="10.9006383"><ele>63.33333333333333</ele><time>2026-04-06T10:42:32.918Z</time></trkpt><trkpt lat="43.9211459" lon="10.9008591"><ele>64.0</ele><time>2026-04-06T10:42:33.916Z</time></trkpt><trkpt lat="43.9210529" lon="10.9010743"><ele>64.33333333333333</ele><time>2026-04-06T10:42:34.91Z</time></trkpt><trkpt lat="43.9209655" lon="10.901296"><ele>64.66666666666667</ele><time>2026-04-06T10:42:35.911Z</time></trkpt><trkpt lat="43.9208941" lon="10.901536"><ele>65.0</ele><time>2026-04-06T10:42:36.91Z</time></trkpt><trkpt lat="43.9208242" lon="10.9017614"><ele>63.66666666666667</ele><time>2026-04-06T10:42:37.912Z</time></trkpt><trkpt lat="43.9207568" lon="10.9020037"><ele>62.33333333333333</ele><time>2026-04-06T10:42:38.911Z</time></trkpt><trkpt lat="43.9206893" lon="10.9022597"><ele>61.0</ele><time>2026-04-06T10:42:39.911Z</time></trkpt><trkpt lat="43.9206331" lon="10.9025037"><ele>61.33333333333333</ele><time>2026-04-06T10:42:40.921Z</time></trkpt><trkpt lat="43.92059" lon="10.9027467"><ele>61.66666666666667</ele><time>2026-04-06T10:42:41.913Z</time></trkpt><trkpt lat="43.9205595" lon="10.9029964"><ele>62.0</ele><time>2026-04-06T10:42:42.913Z</time></trkpt><trkpt lat="43.9205263" lon="10.9032502"><ele>63.0</ele><time>2026-04-06T10:42:43.911Z</time></trkpt><trkpt lat="43.9205044" lon="10.9034989"><ele>64.0</ele><time>2026-04-06T10:42:44.914Z</time></trkpt><trkpt lat="43.920484" lon="10.9037408"><ele>65.0</ele><time>2026-04-06T10:42:45.916Z</time></trkpt><trkpt lat="43.9204794" lon="10.9039767"><ele>65.0</ele><time>2026-04-06T10:42:46.911Z</time></trkpt><trkpt lat="43.9204784" lon="10.9042209"><ele>65.0</ele><time>2026-04-06T10:42:47.915Z</time></trkpt><trkpt lat="43.9204884" lon="10.9044808"><ele>65.0</ele><time>2026-04-06T10:42:48.917Z</time></trkpt><trkpt lat="43.9204953" lon="10.9047265"><ele>65.0</ele><time>2026-04-06T10:42:49.912Z</time></trkpt><trkpt lat="43.9204875" lon="10.9049748"><ele>65.0</ele><time>2026-04-06T10:42:50.913Z</time></trkpt><trkpt lat="43.9205036" lon="10.9052211"><ele>65.0</ele><time>2026-04-06T10:42:51.919Z</time></trkpt><trkpt lat="43.9205225" lon="10.9054725"><ele>65.0</ele><time>2026-04-06T10:42:52.915Z</time></trkpt><trkpt lat="43.9205332" lon="10.9057158"><ele>65.0</ele><time>2026-04-06T10:42:53.912Z</time></trkpt><trkpt lat="43.9205475" lon="10.9059614"><ele>65.0</ele><time>2026-04-06T10:42:54.911Z</time></trkpt><trkpt lat="43.9205648" lon="10.9062083"><ele>64.33333333333334</ele><time>2026-04-06T10:42:55.911Z</time></trkpt><trkpt lat="43.9205758" lon="10.9064748"><ele>63.66666666666667</ele><time>2026-04-06T10:42:56.911Z</time></trkpt><trkpt lat="43.9205862" lon="10.9067395"><ele>63.0</ele><time>2026-04-06T10:42:57.916Z</time></trkpt><trkpt lat="43.9206" lon="10.9070019"><ele>63.0</ele><time>2026-04-06T10:42:58.915Z</time></trkpt><trkpt lat="43.9206144" lon="10.9072638"><ele>63.0</ele><time>2026-04-06T10:42:59.911Z</time></trkpt><trkpt lat="43.9206283" lon="10.9075379"><ele>63.0</ele><time>2026-04-06T10:43:00.911Z</time></trkpt><trkpt lat="43.920647" lon="10.907803"><ele>63.33333333333333</ele><time>2026-04-06T10:43:01.912Z</time></trkpt><trkpt lat="43.9206592" lon="10.9080607"><ele>63.666666666666664</ele><time>2026-04-06T10:43:02.911Z</time></trkpt><trkpt lat="43.9206692" lon="10.9083286"><ele>64.0</ele><time>2026-04-06T10:43:03.912Z</time></trkpt><trkpt lat="43.9206882" lon="10.9085973"><ele>63.0</ele><time>2026-04-06T10:43:04.915Z</time></trkpt><trkpt lat="43.9207067" lon="10.9088648"><ele>62.0</ele><time>2026-04-06T10:43:05.915Z</time></trkpt><trkpt lat="43.9207255" lon="10.909135"><ele>61.0</ele><time>2026-04-06T10:43:06.908Z</time></trkpt><trkpt lat="43.9207377" lon="10.9093972"><ele>60.33333333333333</ele><time>2026-04-06T10:43:07.911Z</time></trkpt><trkpt lat="43.9207582" lon="10.9096607"><ele>59.66666666666667</ele><time>2026-04-06T10:43:08.917Z</time></trkpt><trkpt lat="43.9207794" lon="10.9099236"><ele>59.0</ele><time>2026-04-06T10:43:09.911Z</time></trkpt><trkpt lat="43.9207897" lon="10.910181"><ele>59.0</ele><time>2026-04-06T10:43:10.908Z</time></trkpt><trkpt lat="43.9208097" lon="10.910428"><ele>59.0</ele><time>2026-04-06T10:43:11.912Z</time></trkpt><trkpt lat="43.9208254" lon="10.9106653"><ele>59.0</ele><time>2026-04-06T10:43:12.915Z</time></trkpt><trkpt lat="43.920833" lon="10.9108923"><ele>59.333333333333336</ele><time>2026-04-06T10:43:13.913Z</time></trkpt><trkpt lat="43.9208399" lon="10.9111088"><ele>59.66666666666667</ele><time>2026-04-06T10:43:14.912Z</time></trkpt><trkpt lat="43.9208444" lon="10.9113166"><ele>60.0</ele><time>2026-04-06T10:43:15.912Z</time></trkpt><trkpt lat="43.9208581" lon="10.9115174"><ele>60.0</ele><time>2026-04-06T10:43:16.91Z</time></trkpt><trkpt lat="43.920868" lon="10.9117245"><ele>60.0</ele><time>2026-04-06T10:43:17.918Z</time></trkpt><trkpt lat="43.9208787" lon="10.9119311"><ele>60.0</ele><time>2026-04-06T10:43:18.911Z</time></trkpt><trkpt lat="43.9208935" lon="10.9121294"><ele>60.0</ele><time>2026-04-06T10:43:19.915Z</time></trkpt><trkpt lat="43.9209086" lon="10.9123312"><ele>60.25</ele><time>2026-04-06T10:43:20.912Z</time></trkpt><trkpt lat="43.9209406" lon="10.9125201"><ele>60.5</ele><time>2026-04-06T10:43:21.911Z</time></trkpt><trkpt lat="43.9209668" lon="10.9127182"><ele>60.75</ele><time>2026-04-06T10:43:22.91Z</time></trkpt><trkpt lat="43.9209877" lon="10.9129087"><ele>61.0</ele><time>2026-04-06T10:43:23.911Z</time></trkpt><trkpt lat="43.920998" lon="10.9130932"><ele>61.0</ele><time>2026-04-06T10:43:24.914Z</time></trkpt><trkpt lat="43.9210278" lon="10.9132822"><ele>61.0</ele><time>2026-04-06T10:43:25.911Z</time></trkpt><trkpt lat="43.9210606" lon="10.9134831"><ele>61.0</ele><time>2026-04-06T10:43:26.914Z</time></trkpt><trkpt lat="43.9211078" lon="10.9136983"><ele>60.33333333333333</ele><time>2026-04-06T10:43:27.911Z</time></trkpt><trkpt lat="43.9211358" lon="10.9139124"><ele>59.66666666666667</ele><time>2026-04-06T10:43:28.912Z</time></trkpt><trkpt lat="43.9211745" lon="10.9141351"><ele>59.0</ele><time>2026-04-06T10:43:29.915Z</time></trkpt><trkpt lat="43.9212166" lon="10.9143629"><ele>59.0</ele><time>2026-04-06T10:43:30.91Z</time></trkpt><trkpt lat="43.9212519" lon="10.9145961"><ele>59.0</ele><time>2026-04-06T10:43:31.909Z</time></trkpt><trkpt lat="43.9212816" lon="10.9148204"><ele>59.0</ele><time>2026-04-06T10:43:32.912Z</time></trkpt><trkpt lat="43.9213271" lon="10.9150506"><ele>58.66666666666667</ele><time>2026-04-06T10:43:33.914Z</time></trkpt><trkpt lat="43.9213659" lon="10.9152798"><ele>58.33333333333333</ele><time>2026-04-06T10:43:34.915Z</time></trkpt><trkpt lat="43.9214014" lon="10.9154895"><ele>58.0</ele><time>2026-04-06T10:43:35.912Z</time></trkpt><trkpt lat="43.9214373" lon="10.9156926"><ele>58.0</ele><time>2026-04-06T10:43:36.912Z</time></trkpt><trkpt lat="43.9214644" lon="10.9159021"><ele>58.0</ele><time>2026-04-06T10:43:37.91Z</time></trkpt><trkpt lat="43.9214925" lon="10.9160919"><ele>58.0</ele><time>2026-04-06T10:43:38.914Z</time></trkpt><trkpt lat="43.921515" lon="10.9162781"><ele>58.0</ele><time>2026-04-06T10:43:39.909Z</time></trkpt><trkpt lat="43.9215454" lon="10.9164574"><ele>58.0</ele><time>2026-04-06T10:43:40.915Z</time></trkpt><trkpt lat="43.9215775" lon="10.916633"><ele>58.0</ele><time>2026-04-06T10:43:41.909Z</time></trkpt><trkpt lat="43.9215938" lon="10.9168008"><ele>58.0</ele><time>2026-04-06T10:43:42.912Z</time></trkpt><trkpt lat="43.9215878" lon="10.9169446"><ele>58.0</ele><time>2026-04-06T10:43:43.909Z</time></trkpt><trkpt lat="43.9215887" lon="10.9170916"><ele>58.166666666666664</ele><time>2026-04-06T10:43:44.912Z</time></trkpt><trkpt lat="43.9215727" lon="10.9172162"><ele>58.33333333333333</ele><time>2026-04-06T10:43:45.916Z</time></trkpt><trkpt lat="43.9215314" lon="10.9173343"><ele>58.5</ele><time>2026-04-06T10:43:46.924Z</time></trkpt><trkpt lat="43.9215055" lon="10.9174363"><ele>58.66666666666667</ele><time>2026-04-06T10:43:47.91Z</time></trkpt><trkpt lat="43.9214695" lon="10.9175326"><ele>58.833333333333336</ele><time>2026-04-06T10:43:48.916Z</time></trkpt><trkpt lat="43.9214162" lon="10.9176263"><ele>59.0</ele><time>2026-04-06T10:43:49.916Z</time></trkpt><trkpt lat="43.9213746" lon="10.917739"><ele>58.50000000000001</ele><time>2026-04-06T10:43:50.914Z</time></trkpt><trkpt lat="43.9213424" lon="10.9178431"><ele>58.0</ele><time>2026-04-06T10:43:51.914Z</time></trkpt><trkpt lat="43.9212999" lon="10.9179616"><ele>57.5</ele><time>2026-04-06T10:43:52.912Z</time></trkpt><trkpt lat="43.9212477" lon="10.9180739"><ele>57.0</ele><time>2026-04-06T10:43:53.913Z</time></trkpt><trkpt lat="43.921184" lon="10.918167"><ele>56.50000000000001</ele><time>2026-04-06T10:43:54.912Z</time></trkpt><trkpt lat="43.9211336" lon="10.9182377"><ele>56.0</ele><time>2026-04-06T10:43:55.914Z</time></trkpt><trkpt lat="43.9210567" lon="10.9182827"><ele>56.0</ele><time>2026-04-06T10:43:56.912Z</time></trkpt><trkpt lat="43.9209794" lon="10.9182958"><ele>55.99999999999999</ele><time>2026-04-06T10:43:57.915Z</time></trkpt><trkpt lat="43.9208772" lon="10.9183151"><ele>55.99999999999999</ele><time>2026-04-06T10:43:58.909Z</time></trkpt><trkpt lat="43.9207637" lon="10.9183429"><ele>56.0</ele><time>2026-04-06T10:43:59.91Z</time></trkpt><trkpt lat="43.9206348" lon="10.9183375"><ele>56.0</ele><time>2026-04-06T10:44:00.912Z</time></trkpt><trkpt lat="43.9204985" lon="10.9183515"><ele>55.75</ele><time>2026-04-06T10:44:01.913Z</time></trkpt><trkpt lat="43.9203603" lon="10.9183779"><ele>55.5</ele><time>2026-04-06T10:44:02.913Z</time></trkpt><trkpt lat="43.9202247" lon="10.9183961"><ele>55.25</ele><time>2026-04-06T10:44:03.916Z</time></trkpt><trkpt lat="43.9200814" lon="10.9184054"><ele>55.0</ele><time>2026-04-06T10:44:04.916Z</time></trkpt><trkpt lat="43.9199357" lon="10.9183917"><ele>55.0</ele><time>2026-04-06T10:44:05.912Z</time></trkpt><trkpt lat="43.9197868" lon="10.9183893"><ele>55.0</ele><time>2026-04-06T10:44:06.912Z</time></trkpt><trkpt lat="43.9196377" lon="10.918378"><ele>55.0</ele><time>2026-04-06T10:44:07.91Z</time></trkpt><trkpt lat="43.9194831" lon="10.9183771"><ele>55.0</ele><time>2026-04-06T10:44:08.921Z</time></trkpt><trkpt lat="43.9193434" lon="10.9183706"><ele>55.0</ele><time>2026-04-06T10:44:09.91Z</time></trkpt><trkpt lat="43.919191" lon="10.9183686"><ele>55.0</ele><time>2026-04-06T10:44:10.911Z</time></trkpt><trkpt lat="43.9190489" lon="10.9183613"><ele>55.0</ele><time>2026-04-06T10:44:11.917Z</time></trkpt><trkpt lat="43.9189017" lon="10.9183623"><ele>54.75</ele><time>2026-04-06T10:44:12.912Z</time></trkpt><trkpt lat="43.9187528" lon="10.9183617"><ele>54.5</ele><time>2026-04-06T10:44:13.917Z</time></trkpt><trkpt lat="43.9186037" lon="10.9183707"><ele>54.25</ele><time>2026-04-06T10:44:14.908Z</time></trkpt><trkpt lat="43.9184629" lon="10.9183702"><ele>54.0</ele><time>2026-04-06T10:44:15.911Z</time></trkpt><trkpt lat="43.9183184" lon="10.9183679"><ele>54.0</ele><time>2026-04-06T10:44:16.919Z</time></trkpt><trkpt lat="43.9181614" lon="10.918375"><ele>54.0</ele><time>2026-04-06T10:44:17.915Z</time></trkpt><trkpt lat="43.9180102" lon="10.9183607"><ele>54.0</ele><time>2026-04-06T10:44:18.91Z</time></trkpt><trkpt lat="43.9178606" lon="10.9183536"><ele>54.0</ele><time>2026-04-06T10:44:19.913Z</time></trkpt><trkpt lat="43.9177144" lon="10.9183682"><ele>54.0</ele><time>2026-04-06T10:44:20.913Z</time></trkpt><trkpt lat="43.9175669" lon="10.9183698"><ele>54.0</ele><time>2026-04-06T10:44:21.911Z</time></trkpt><trkpt lat="43.9174127" lon="10.9183746"><ele>54.0</ele><time>2026-04-06T10:44:22.913Z</time></trkpt><trkpt lat="43.9172558" lon="10.9183754"><ele>53.0</ele><time>2026-04-06T10:44:23.912Z</time></trkpt><trkpt lat="43.9171026" lon="10.9183896"><ele>52.0</ele><time>2026-04-06T10:44:24.909Z</time></trkpt><trkpt lat="43.9169462" lon="10.9183946"><ele>51.0</ele><time>2026-04-06T10:44:25.912Z</time></trkpt><trkpt lat="43.9167913" lon="10.9184009"><ele>52.0</ele><time>2026-04-06T10:44:26.912Z</time></trkpt><trkpt lat="43.9166438" lon="10.918412"><ele>53.0</ele><time>2026-04-06T10:44:27.912Z</time></trkpt><trkpt lat="43.9164917" lon="10.9183975"><ele>54.0</ele><time>2026-04-06T10:44:28.914Z</time></trkpt><trkpt lat="43.9163407" lon="10.9184001"><ele>54.0</ele><time>2026-04-06T10:44:29.91Z</time></trkpt><trkpt lat="43.9161888" lon="10.9184093"><ele>54.0</ele><time>2026-04-06T10:44:30.91Z</time></trkpt><trkpt lat="43.916044" lon="10.9184157"><ele>54.0</ele><time>2026-04-06T10:44:31.913Z</time></trkpt><trkpt lat="43.9158975" lon="10.9184209"><ele>54.0</ele><time>2026-04-06T10:44:32.913Z</time></trkpt><trkpt lat="43.9157585" lon="10.9184177"><ele>53.5</ele><time>2026-04-06T10:44:33.911Z</time></trkpt><trkpt lat="43.9156348" lon="10.9184172"><ele>53.0</ele><time>2026-04-06T10:44:34.911Z</time></trkpt><trkpt lat="43.9155158" lon="10.9184239"><ele>52.5</ele><time>2026-04-06T10:44:35.914Z</time></trkpt><trkpt lat="43.9154121" lon="10.9184235"><ele>52.0</ele><time>2026-04-06T10:44:36.913Z</time></trkpt><trkpt lat="43.9152999" lon="10.9184219"><ele>52.0</ele><time>2026-04-06T10:44:37.911Z</time></trkpt><trkpt lat="43.9151856" lon="10.9184177"><ele>52.0</ele><time>2026-04-06T10:44:38.91Z</time></trkpt><trkpt lat="43.9150612" lon="10.9184241"><ele>52.0</ele><time>2026-04-06T10:44:39.913Z</time></trkpt><trkpt lat="43.9149291" lon="10.9184322"><ele>52.0</ele><time>2026-04-06T10:44:40.91Z</time></trkpt><trkpt lat="43.9147939" lon="10.9184361"><ele>52.0</ele><time>2026-04-06T10:44:41.916Z</time></trkpt><trkpt lat="43.9146561" lon="10.9184357"><ele>52.0</ele><time>2026-04-06T10:44:42.912Z</time></trkpt><trkpt lat="43.9145154" lon="10.9184445"><ele>52.0</ele><time>2026-04-06T10:44:43.917Z</time></trkpt><trkpt lat="43.9143827" lon="10.9184468"><ele>52.0</ele><time>2026-04-06T10:44:44.91Z</time></trkpt><trkpt lat="43.9142549" lon="10.9184689"><ele>52.0</ele><time>2026-04-06T10:44:45.914Z</time></trkpt><trkpt lat="43.9141123" lon="10.9184809"><ele>52.0</ele><time>2026-04-06T10:44:46.912Z</time></trkpt><trkpt lat="43.9139697" lon="10.918478"><ele>52.0</ele><time>2026-04-06T10:44:47.91Z</time></trkpt><trkpt lat="43.9138355" lon="10.918464"><ele>52.0</ele><time>2026-04-06T10:44:48.91Z</time></trkpt><trkpt lat="43.9137019" lon="10.9184838"><ele>52.0</ele><time>2026-04-06T10:44:49.911Z</time></trkpt><trkpt lat="43.9135643" lon="10.918468"><ele>52.0</ele><time>2026-04-06T10:44:50.911Z</time></trkpt><trkpt lat="43.9134338" lon="10.9184618"><ele>52.0</ele><time>2026-04-06T10:44:51.914Z</time></trkpt><trkpt lat="43.9132999" lon="10.9184888"><ele>52.0</ele><time>2026-04-06T10:44:52.91Z</time></trkpt><trkpt lat="43.9131708" lon="10.9184928"><ele>52.2</ele><time>2026-04-06T10:44:53.914Z</time></trkpt><trkpt lat="43.9130505" lon="10.9184941"><ele>52.400000000000006</ele><time>2026-04-06T10:44:54.909Z</time></trkpt><trkpt lat="43.9129344" lon="10.9184838"><ele>52.599999999999994</ele><time>2026-04-06T10:44:55.914Z</time></trkpt><trkpt lat="43.9128597" lon="10.9184512"><ele>52.8</ele><time>2026-04-06T10:44:56.91Z</time></trkpt><trkpt lat="43.9127952" lon="10.9184926"><ele>53.0</ele><time>2026-04-06T10:44:57.919Z</time></trkpt><trkpt lat="43.9127109" lon="10.9186142"><ele>53.0</ele><time>2026-04-06T10:44:59.914Z</time></trkpt><trkpt lat="43.9127104" lon="10.918739"><ele>53.0</ele><time>2026-04-06T10:45:00.91Z</time></trkpt><trkpt lat="43.9126962" lon="10.9188703"><ele>53.0</ele><time>2026-04-06T10:45:01.91Z</time></trkpt><trkpt lat="43.9126981" lon="10.9190046"><ele>53.0</ele><time>2026-04-06T10:45:02.914Z</time></trkpt><trkpt lat="43.9126967" lon="10.9191691"><ele>53.0</ele><time>2026-04-06T10:45:03.914Z</time></trkpt><trkpt lat="43.9126905" lon="10.9193198"><ele>53.25</ele><time>2026-04-06T10:45:04.914Z</time></trkpt><trkpt lat="43.9126761" lon="10.9195033"><ele>53.5</ele><time>2026-04-06T10:45:05.91Z</time></trkpt><trkpt lat="43.9126306" lon="10.9196849"><ele>53.75</ele><time>2026-04-06T10:45:06.91Z</time></trkpt><trkpt lat="43.9125826" lon="10.9198596"><ele>54.0</ele><time>2026-04-06T10:45:07.914Z</time></trkpt><trkpt lat="43.9124895" lon="10.9199963"><ele>53.5</ele><time>2026-04-06T10:45:08.911Z</time></trkpt><trkpt lat="43.9124132" lon="10.92014"><ele>53.0</ele><time>2026-04-06T10:45:09.915Z</time></trkpt><trkpt lat="43.9123033" lon="10.9203065"><ele>52.5</ele><time>2026-04-06T10:45:10.91Z</time></trkpt><trkpt lat="43.9122166" lon="10.9204145"><ele>52.0</ele><time>2026-04-06T10:45:11.911Z</time></trkpt><trkpt lat="43.9121212" lon="10.9205561"><ele>52.0</ele><time>2026-04-06T10:45:12.912Z</time></trkpt><trkpt lat="43.9119566" lon="10.9207153"><ele>52.0</ele><time>2026-04-06T10:45:13.912Z</time></trkpt><trkpt lat="43.9118108" lon="10.9208291"><ele>52.0</ele><time>2026-04-06T10:45:14.914Z</time></trkpt><trkpt lat="43.9116556" lon="10.9209321"><ele>52.0</ele><time>2026-04-06T10:45:15.921Z</time></trkpt><trkpt lat="43.9114971" lon="10.9210219"><ele>52.0</ele><time>2026-04-06T10:45:16.913Z</time></trkpt><trkpt lat="43.9113468" lon="10.9210743"><ele>52.0</ele><time>2026-04-06T10:45:17.911Z</time></trkpt><trkpt lat="43.9112005" lon="10.9211311"><ele>52.0</ele><time>2026-04-06T10:45:18.913Z</time></trkpt><trkpt lat="43.9110694" lon="10.9211643"><ele>52.0</ele><time>2026-04-06T10:45:19.914Z</time></trkpt><trkpt lat="43.9109487" lon="10.9211355"><ele>52.0</ele><time>2026-04-06T10:45:20.923Z</time></trkpt><trkpt lat="43.9108059" lon="10.9211566"><ele>52.0</ele><time>2026-04-06T10:45:21.915Z</time></trkpt><trkpt lat="43.9106591" lon="10.9211723"><ele>53.0</ele><time>2026-04-06T10:45:22.913Z</time></trkpt><trkpt lat="43.9105102" lon="10.9211771"><ele>54.0</ele><time>2026-04-06T10:45:23.913Z</time></trkpt><trkpt lat="43.9103495" lon="10.9211569"><ele>55.0</ele><time>2026-04-06T10:45:24.912Z</time></trkpt><trkpt lat="43.9101887" lon="10.9211315"><ele>54.0</ele><time>2026-04-06T10:45:25.922Z</time></trkpt><trkpt lat="43.9100214" lon="10.92111"><ele>53.0</ele><time>2026-04-06T10:45:26.916Z</time></trkpt><trkpt lat="43.9098532" lon="10.9210856"><ele>52.0</ele><time>2026-04-06T10:45:27.913Z</time></trkpt><trkpt lat="43.9096676" lon="10.9210532"><ele>52.0</ele><time>2026-04-06T10:45:28.915Z</time></trkpt><trkpt lat="43.9094905" lon="10.9210166"><ele>52.0</ele><time>2026-04-06T10:45:29.911Z</time></trkpt><trkpt lat="43.909309" lon="10.9209869"><ele>52.0</ele><time>2026-04-06T10:45:30.914Z</time></trkpt><trkpt lat="43.9091283" lon="10.920956"><ele>52.33333333333333</ele><time>2026-04-06T10:45:31.912Z</time></trkpt><trkpt lat="43.9089501" lon="10.9209239"><ele>52.66666666666667</ele><time>2026-04-06T10:45:32.911Z</time></trkpt><trkpt lat="43.9087686" lon="10.9208952"><ele>53.0</ele><time>2026-04-06T10:45:33.924Z</time></trkpt><trkpt lat="43.9085971" lon="10.9208553"><ele>53.333333333333336</ele><time>2026-04-06T10:45:34.911Z</time></trkpt><trkpt lat="43.9084245" lon="10.9208172"><ele>53.66666666666667</ele><time>2026-04-06T10:45:35.912Z</time></trkpt><trkpt lat="43.9082457" lon="10.9207921"><ele>54.0</ele><time>2026-04-06T10:45:36.916Z</time></trkpt><trkpt lat="43.9080737" lon="10.9207708"><ele>54.0</ele><time>2026-04-06T10:45:37.91Z</time></trkpt><trkpt lat="43.9079107" lon="10.9207382"><ele>54.0</ele><time>2026-04-06T10:45:38.912Z</time></trkpt><trkpt lat="43.907747" lon="10.9206932"><ele>54.0</ele><time>2026-04-06T10:45:39.909Z</time></trkpt><trkpt lat="43.9075802" lon="10.920674"><ele>54.0</ele><time>2026-04-06T10:45:40.912Z</time></trkpt><trkpt lat="43.9074136" lon="10.9206476"><ele>54.0</ele><time>2026-04-06T10:45:41.907Z</time></trkpt><trkpt lat="43.9072415" lon="10.9206129"><ele>54.0</ele><time>2026-04-06T10:45:42.909Z</time></trkpt><trkpt lat="43.9070638" lon="10.9205829"><ele>54.0</ele><time>2026-04-06T10:45:43.911Z</time></trkpt><trkpt lat="43.9068819" lon="10.9205434"><ele>54.0</ele><time>2026-04-06T10:45:44.911Z</time></trkpt><trkpt lat="43.9066967" lon="10.9205235"><ele>54.0</ele><time>2026-04-06T10:45:45.91Z</time></trkpt><trkpt lat="43.9065159" lon="10.9204826"><ele>53.33333333333333</ele><time>2026-04-06T10:45:46.911Z</time></trkpt><trkpt lat="43.9063346" lon="10.920432"><ele>52.666666666666664</ele><time>2026-04-06T10:45:47.915Z</time></trkpt><trkpt lat="43.9061317" lon="10.9204055"><ele>52.0</ele><time>2026-04-06T10:45:48.918Z</time></trkpt><trkpt lat="43.9059406" lon="10.9203788"><ele>52.0</ele><time>2026-04-06T10:45:49.911Z</time></trkpt><trkpt lat="43.9057385" lon="10.9203549"><ele>52.0</ele><time>2026-04-06T10:45:50.914Z</time></trkpt><trkpt lat="43.9055401" lon="10.9203232"><ele>52.0</ele><time>2026-04-06T10:45:51.908Z</time></trkpt><trkpt lat="43.9053306" lon="10.9203049"><ele>52.0</ele><time>2026-04-06T10:45:52.911Z</time></trkpt><trkpt lat="43.9051293" lon="10.9202895"><ele>52.0</ele><time>2026-04-06T10:45:53.912Z</time></trkpt><trkpt lat="43.9049233" lon="10.9202943"><ele>52.0</ele><time>2026-04-06T10:45:54.912Z</time></trkpt><trkpt lat="43.9047219" lon="10.9203014"><ele>51.666666666666664</ele><time>2026-04-06T10:45:55.915Z</time></trkpt><trkpt lat="43.9045288" lon="10.920299"><ele>51.33333333333333</ele><time>2026-04-06T10:45:56.911Z</time></trkpt><trkpt lat="43.9043346" lon="10.9203017"><ele>51.0</ele><time>2026-04-06T10:45:57.913Z</time></trkpt><trkpt lat="43.9041439" lon="10.9202974"><ele>51.0</ele><time>2026-04-06T10:45:58.914Z</time></trkpt><trkpt lat="43.9039483" lon="10.920308"><ele>51.0</ele><time>2026-04-06T10:45:59.914Z</time></trkpt><trkpt lat="43.9037556" lon="10.9203045"><ele>51.0</ele><time>2026-04-06T10:46:00.911Z</time></trkpt><trkpt lat="43.9035676" lon="10.9202963"><ele>50.33333333333333</ele><time>2026-04-06T10:46:01.91Z</time></trkpt><trkpt lat="43.9033822" lon="10.9203081"><ele>49.666666666666664</ele><time>2026-04-06T10:46:02.913Z</time></trkpt><trkpt lat="43.9032014" lon="10.9203076"><ele>49.0</ele><time>2026-04-06T10:46:03.912Z</time></trkpt><trkpt lat="43.903012" lon="10.9203237"><ele>49.0</ele><time>2026-04-06T10:46:04.912Z</time></trkpt><trkpt lat="43.9028287" lon="10.9203287"><ele>49.0</ele><time>2026-04-06T10:46:05.908Z</time></trkpt><trkpt lat="43.902648" lon="10.9203219"><ele>49.0</ele><time>2026-04-06T10:46:06.908Z</time></trkpt><trkpt lat="43.9024754" lon="10.9203248"><ele>49.33333333333333</ele><time>2026-04-06T10:46:07.91Z</time></trkpt><trkpt lat="43.9022954" lon="10.920331"><ele>49.66666666666667</ele><time>2026-04-06T10:46:08.914Z</time></trkpt><trkpt lat="43.902125" lon="10.9203435"><ele>50.0</ele><time>2026-04-06T10:46:09.909Z</time></trkpt><trkpt lat="43.901962" lon="10.9203361"><ele>50.0</ele><time>2026-04-06T10:46:10.911Z</time></trkpt><trkpt lat="43.9017984" lon="10.920314"><ele>50.0</ele><time>2026-04-06T10:46:11.91Z</time></trkpt><trkpt lat="43.9016467" lon="10.9202774"><ele>50.0</ele><time>2026-04-06T10:46:12.913Z</time></trkpt><trkpt lat="43.9015192" lon="10.9202431"><ele>50.0</ele><time>2026-04-06T10:46:13.912Z</time></trkpt><trkpt lat="43.9014133" lon="10.9201879"><ele>50.0</ele><time>2026-04-06T10:46:14.913Z</time></trkpt><trkpt lat="43.9013199" lon="10.9201289"><ele>50.0</ele><time>2026-04-06T10:46:15.913Z</time></trkpt><trkpt lat="43.901237" lon="10.9200642"><ele>50.0</ele><time>2026-04-06T10:46:16.91Z</time></trkpt><trkpt lat="43.9011815" lon="10.9199974"><ele>50.0</ele><time>2026-04-06T10:46:17.91Z</time></trkpt><trkpt lat="43.9011226" lon="10.9198516"><ele>50.0</ele><time>2026-04-06T10:46:18.912Z</time></trkpt><trkpt lat="43.9010583" lon="10.9197574"><ele>49.833333333333336</ele><time>2026-04-06T10:46:19.914Z</time></trkpt><trkpt lat="43.9009772" lon="10.9196897"><ele>49.66666666666667</ele><time>2026-04-06T10:46:20.908Z</time></trkpt><trkpt lat="43.9009007" lon="10.9196504"><ele>49.5</ele><time>2026-04-06T10:46:21.911Z</time></trkpt><trkpt lat="43.9008301" lon="10.919651"><ele>49.33333333333333</ele><time>2026-04-06T10:46:22.912Z</time></trkpt><trkpt lat="43.9007647" lon="10.9197383"><ele>49.166666666666664</ele><time>2026-04-06T10:46:23.912Z</time></trkpt><trkpt lat="43.9007044" lon="10.9198552"><ele>49.0</ele><time>2026-04-06T10:46:24.927Z</time></trkpt><trkpt lat="43.9006339" lon="10.9199713"><ele>48.75</ele><time>2026-04-06T10:46:25.91Z</time></trkpt><trkpt lat="43.9005649" lon="10.9200696"><ele>48.5</ele><time>2026-04-06T10:46:26.912Z</time></trkpt><trkpt lat="43.9004735" lon="10.920182"><ele>48.25</ele><time>2026-04-06T10:46:27.911Z</time></trkpt><trkpt lat="43.900342" lon="10.9202291"><ele>48.0</ele><time>2026-04-06T10:46:28.914Z</time></trkpt><trkpt lat="43.9002073" lon="10.9202692"><ele>48.0</ele><time>2026-04-06T10:46:29.912Z</time></trkpt><trkpt lat="43.9000577" lon="10.9203187"><ele>48.0</ele><time>2026-04-06T10:46:30.909Z</time></trkpt><trkpt lat="43.8998871" lon="10.9203833"><ele>48.0</ele><time>2026-04-06T10:46:31.913Z</time></trkpt><trkpt lat="43.8997457" lon="10.9204059"><ele>48.0</ele><time>2026-04-06T10:46:32.912Z</time></trkpt><trkpt lat="43.8995863" lon="10.9204295"><ele>48.0</ele><time>2026-04-06T10:46:33.921Z</time></trkpt><trkpt lat="43.8994267" lon="10.9204685"><ele>48.0</ele><time>2026-04-06T10:46:34.914Z</time></trkpt><trkpt lat="43.8992569" lon="10.9204801"><ele>48.66666666666667</ele><time>2026-04-06T10:46:35.911Z</time></trkpt><trkpt lat="43.8990824" lon="10.9204989"><ele>49.333333333333336</ele><time>2026-04-06T10:46:36.91Z</time></trkpt><trkpt lat="43.8989183" lon="10.9204711"><ele>50.0</ele><time>2026-04-06T10:46:37.918Z</time></trkpt><trkpt lat="43.8987438" lon="10.9204619"><ele>50.0</ele><time>2026-04-06T10:46:38.912Z</time></trkpt><trkpt lat="43.898567" lon="10.9204474"><ele>50.0</ele><time>2026-04-06T10:46:39.914Z</time></trkpt><trkpt lat="43.8983916" lon="10.9204368"><ele>50.0</ele><time>2026-04-06T10:46:40.912Z</time></trkpt><trkpt lat="43.8982092" lon="10.9204252"><ele>50.0</ele><time>2026-04-06T10:46:41.913Z</time></trkpt><trkpt lat="43.8980256" lon="10.9204215"><ele>50.0</ele><time>2026-04-06T10:46:42.916Z</time></trkpt><trkpt lat="43.8978441" lon="10.920413"><ele>50.0</ele><time>2026-04-06T10:46:43.913Z</time></trkpt><trkpt lat="43.8976581" lon="10.9204184"><ele>49.66666666666667</ele><time>2026-04-06T10:46:44.911Z</time></trkpt><trkpt lat="43.897469" lon="10.9204002"><ele>49.33333333333333</ele><time>2026-04-06T10:46:45.914Z</time></trkpt><trkpt lat="43.8972915" lon="10.9203756"><ele>49.0</ele><time>2026-04-06T10:46:46.916Z</time></trkpt><trkpt lat="43.8971147" lon="10.9203442"><ele>49.0</ele><time>2026-04-06T10:46:47.914Z</time></trkpt><trkpt lat="43.8969331" lon="10.9203185"><ele>49.0</ele><time>2026-04-06T10:46:48.91Z</time></trkpt><trkpt lat="43.8967532" lon="10.920289"><ele>49.0</ele><time>2026-04-06T10:46:49.916Z</time></trkpt><trkpt lat="43.8965655" lon="10.9202629"><ele>48.666666666666664</ele><time>2026-04-06T10:46:50.913Z</time></trkpt><trkpt lat="43.896385" lon="10.9202509"><ele>48.33333333333333</ele><time>2026-04-06T10:46:51.913Z</time></trkpt><trkpt lat="43.8962227" lon="10.9202121"><ele>48.0</ele><time>2026-04-06T10:46:52.916Z</time></trkpt><trkpt lat="43.8960551" lon="10.9201804"><ele>48.0</ele><time>2026-04-06T10:46:53.915Z</time></trkpt><trkpt lat="43.8958923" lon="10.9201383"><ele>48.0</ele><time>2026-04-06T10:46:54.914Z</time></trkpt><trkpt lat="43.8957242" lon="10.92012"><ele>48.0</ele><time>2026-04-06T10:46:55.92Z</time></trkpt><trkpt lat="43.8955573" lon="10.9200799"><ele>48.0</ele><time>2026-04-06T10:46:56.917Z</time></trkpt><trkpt lat="43.895378" lon="10.9200578"><ele>48.0</ele><time>2026-04-06T10:46:57.912Z</time></trkpt><trkpt lat="43.8951978" lon="10.9200494"><ele>48.0</ele><time>2026-04-06T10:46:58.915Z</time></trkpt><trkpt lat="43.8950163" lon="10.9200251"><ele>48.0</ele><time>2026-04-06T10:46:59.91Z</time></trkpt><trkpt lat="43.8948437" lon="10.9199806"><ele>48.0</ele><time>2026-04-06T10:47:00.912Z</time></trkpt><trkpt lat="43.8946721" lon="10.9199426"><ele>48.0</ele><time>2026-04-06T10:47:01.917Z</time></trkpt><trkpt lat="43.8945051" lon="10.919888"><ele>48.0</ele><time>2026-04-06T10:47:02.913Z</time></trkpt><trkpt lat="43.8943297" lon="10.9198431"><ele>48.0</ele><time>2026-04-06T10:47:03.911Z</time></trkpt><trkpt lat="43.8941612" lon="10.9197814"><ele>48.0</ele><time>2026-04-06T10:47:04.912Z</time></trkpt><trkpt lat="43.8939893" lon="10.9197247"><ele>48.33333333333333</ele><time>2026-04-06T10:47:05.914Z</time></trkpt><trkpt lat="43.8938158" lon="10.9196682"><ele>48.666666666666664</ele><time>2026-04-06T10:47:06.912Z</time></trkpt><trkpt lat="43.8936532" lon="10.9195942"><ele>49.0</ele><time>2026-04-06T10:47:07.911Z</time></trkpt><trkpt lat="43.893479" lon="10.9195382"><ele>49.0</ele><time>2026-04-06T10:47:08.913Z</time></trkpt><trkpt lat="43.8933" lon="10.9194953"><ele>49.0</ele><time>2026-04-06T10:47:09.918Z</time></trkpt><trkpt lat="43.8931214" lon="10.919446"><ele>49.0</ele><time>2026-04-06T10:47:10.912Z</time></trkpt><trkpt lat="43.892954" lon="10.9193935"><ele>49.0</ele><time>2026-04-06T10:47:11.912Z</time></trkpt><trkpt lat="43.8927829" lon="10.9193515"><ele>49.0</ele><time>2026-04-06T10:47:12.911Z</time></trkpt><trkpt lat="43.8926183" lon="10.9192916"><ele>49.0</ele><time>2026-04-06T10:47:13.913Z</time></trkpt><trkpt lat="43.8924494" lon="10.9192615"><ele>49.0</ele><time>2026-04-06T10:47:14.912Z</time></trkpt><trkpt lat="43.8922815" lon="10.9192226"><ele>49.0</ele><time>2026-04-06T10:47:15.913Z</time></trkpt><trkpt lat="43.8921179" lon="10.9191856"><ele>49.0</ele><time>2026-04-06T10:47:16.91Z</time></trkpt><trkpt lat="43.891962" lon="10.9191526"><ele>49.0</ele><time>2026-04-06T10:47:17.912Z</time></trkpt><trkpt lat="43.8918044" lon="10.9191121"><ele>49.0</ele><time>2026-04-06T10:47:18.91Z</time></trkpt><trkpt lat="43.8916399" lon="10.9190764"><ele>49.0</ele><time>2026-04-06T10:47:19.912Z</time></trkpt><trkpt lat="43.8914743" lon="10.9190433"><ele>49.33333333333333</ele><time>2026-04-06T10:47:20.911Z</time></trkpt><trkpt lat="43.8913166" lon="10.9190132"><ele>49.66666666666667</ele><time>2026-04-06T10:47:21.911Z</time></trkpt><trkpt lat="43.8911415" lon="10.9190011"><ele>50.0</ele><time>2026-04-06T10:47:22.912Z</time></trkpt><trkpt lat="43.8909677" lon="10.9189984"><ele>49.66666666666667</ele><time>2026-04-06T10:47:23.911Z</time></trkpt><trkpt lat="43.8907867" lon="10.9190181"><ele>49.33333333333333</ele><time>2026-04-06T10:47:24.91Z</time></trkpt><trkpt lat="43.8906126" lon="10.9190418"><ele>49.0</ele><time>2026-04-06T10:47:25.913Z</time></trkpt><trkpt lat="43.8904294" lon="10.9190819"><ele>49.0</ele><time>2026-04-06T10:47:26.911Z</time></trkpt><trkpt lat="43.8902448" lon="10.9191402"><ele>49.0</ele><time>2026-04-06T10:47:27.906Z</time></trkpt><trkpt lat="43.8900479" lon="10.9192051"><ele>49.0</ele><time>2026-04-06T10:47:28.907Z</time></trkpt><trkpt lat="43.889869" lon="10.9192337"><ele>48.33333333333333</ele><time>2026-04-06T10:47:29.919Z</time></trkpt><trkpt lat="43.8896765" lon="10.919292"><ele>47.666666666666664</ele><time>2026-04-06T10:47:30.909Z</time></trkpt><trkpt lat="43.8894845" lon="10.9193657"><ele>47.0</ele><time>2026-04-06T10:47:31.91Z</time></trkpt><trkpt lat="43.8893004" lon="10.9194515"><ele>47.33333333333333</ele><time>2026-04-06T10:47:32.915Z</time></trkpt><trkpt lat="43.8891316" lon="10.9194937"><ele>47.666666666666664</ele><time>2026-04-06T10:47:33.911Z</time></trkpt><trkpt lat="43.8889741" lon="10.9194945"><ele>48.0</ele><time>2026-04-06T10:47:34.908Z</time></trkpt><trkpt lat="43.888799" lon="10.9195328"><ele>48.0</ele><time>2026-04-06T10:47:35.908Z</time></trkpt><trkpt lat="43.888628" lon="10.9195848"><ele>48.0</ele><time>2026-04-06T10:47:36.911Z</time></trkpt><trkpt lat="43.8884491" lon="10.9196389"><ele>48.0</ele><time>2026-04-06T10:47:37.908Z</time></trkpt><trkpt lat="43.888276" lon="10.9196664"><ele>47.666666666666664</ele><time>2026-04-06T10:47:38.914Z</time></trkpt><trkpt lat="43.8880921" lon="10.9196951"><ele>47.33333333333333</ele><time>2026-04-06T10:47:39.916Z</time></trkpt><trkpt lat="43.8879104" lon="10.9197247"><ele>47.0</ele><time>2026-04-06T10:47:40.907Z</time></trkpt><trkpt lat="43.8877289" lon="10.9197489"><ele>46.666666666666664</ele><time>2026-04-06T10:47:41.912Z</time></trkpt><trkpt lat="43.8875499" lon="10.9197413"><ele>46.333333333333336</ele><time>2026-04-06T10:47:42.91Z</time></trkpt><trkpt lat="43.8873634" lon="10.9197337"><ele>46.0</ele><time>2026-04-06T10:47:43.907Z</time></trkpt><trkpt lat="43.887195" lon="10.9197134"><ele>46.0</ele><time>2026-04-06T10:47:44.91Z</time></trkpt><trkpt lat="43.8870103" lon="10.919737"><ele>46.0</ele><time>2026-04-06T10:47:45.911Z</time></trkpt><trkpt lat="43.8868287" lon="10.9197182"><ele>46.0</ele><time>2026-04-06T10:47:46.912Z</time></trkpt><trkpt lat="43.886668" lon="10.9196531"><ele>46.333333333333336</ele><time>2026-04-06T10:47:47.91Z</time></trkpt><trkpt lat="43.8864775" lon="10.919627"><ele>46.666666666666664</ele><time>2026-04-06T10:47:48.913Z</time></trkpt><trkpt lat="43.8862962" lon="10.9195821"><ele>47.0</ele><time>2026-04-06T10:47:49.913Z</time></trkpt><trkpt lat="43.8861079" lon="10.9195794"><ele>47.0</ele><time>2026-04-06T10:47:50.913Z</time></trkpt><trkpt lat="43.8859343" lon="10.919536"><ele>47.0</ele><time>2026-04-06T10:47:51.912Z</time></trkpt><trkpt lat="43.8857544" lon="10.9195123"><ele>47.0</ele><time>2026-04-06T10:47:52.914Z</time></trkpt><trkpt lat="43.8855688" lon="10.919482"><ele>47.0</ele><time>2026-04-06T10:47:53.911Z</time></trkpt><trkpt lat="43.8853801" lon="10.9194405"><ele>47.0</ele><time>2026-04-06T10:47:54.914Z</time></trkpt><trkpt lat="43.8852067" lon="10.9193979"><ele>47.0</ele><time>2026-04-06T10:47:55.909Z</time></trkpt><trkpt lat="43.8850255" lon="10.9193412"><ele>47.0</ele><time>2026-04-06T10:47:56.913Z</time></trkpt><trkpt lat="43.8848444" lon="10.9192859"><ele>47.0</ele><time>2026-04-06T10:47:57.91Z</time></trkpt><trkpt lat="43.8846737" lon="10.919228"><ele>47.0</ele><time>2026-04-06T10:47:58.913Z</time></trkpt><trkpt lat="43.8845085" lon="10.9191636"><ele>47.0</ele><time>2026-04-06T10:47:59.908Z</time></trkpt><trkpt lat="43.8843418" lon="10.9190846"><ele>47.0</ele><time>2026-04-06T10:48:00.909Z</time></trkpt><trkpt lat="43.8841799" lon="10.9190136"><ele>47.0</ele><time>2026-04-06T10:48:01.911Z</time></trkpt><trkpt lat="43.8840175" lon="10.9189398"><ele>47.0</ele><time>2026-04-06T10:48:02.911Z</time></trkpt><trkpt lat="43.8838515" lon="10.9188524"><ele>47.0</ele><time>2026-04-06T10:48:03.912Z</time></trkpt><trkpt lat="43.8836854" lon="10.9187769"><ele>47.0</ele><time>2026-04-06T10:48:04.912Z</time></trkpt><trkpt lat="43.8835249" lon="10.918706"><ele>47.0</ele><time>2026-04-06T10:48:05.911Z</time></trkpt><trkpt lat="43.8833631" lon="10.9186561"><ele>47.0</ele><time>2026-04-06T10:48:06.911Z</time></trkpt><trkpt lat="43.8832122" lon="10.9186039"><ele>47.0</ele><time>2026-04-06T10:48:07.911Z</time></trkpt><trkpt lat="43.8830862" lon="10.9185675"><ele>47.0</ele><time>2026-04-06T10:48:08.91Z</time></trkpt><trkpt lat="43.8829808" lon="10.9185428"><ele>47.0</ele><time>2026-04-06T10:48:09.913Z</time></trkpt><trkpt lat="43.8828851" lon="10.9185006"><ele>47.0</ele><time>2026-04-06T10:48:10.911Z</time></trkpt><trkpt lat="43.8828151" lon="10.9184635"><ele>47.0</ele><time>2026-04-06T10:48:11.913Z</time></trkpt><trkpt lat="43.8827508" lon="10.9184196"><ele>47.0</ele><time>2026-04-06T10:48:12.913Z</time></trkpt><trkpt lat="43.8826966" lon="10.9183407"><ele>47.0</ele><time>2026-04-06T10:48:13.913Z</time></trkpt><trkpt lat="43.8826565" lon="10.9182302"><ele>47.0</ele><time>2026-04-06T10:48:14.91Z</time></trkpt><trkpt lat="43.8826001" lon="10.9181251"><ele>47.0</ele><time>2026-04-06T10:48:15.919Z</time></trkpt><trkpt lat="43.8825106" lon="10.9180455"><ele>47.0</ele><time>2026-04-06T10:48:16.913Z</time></trkpt><trkpt lat="43.8824101" lon="10.9180014"><ele>47.0</ele><time>2026-04-06T10:48:17.913Z</time></trkpt><trkpt lat="43.8823211" lon="10.9180018"><ele>47.0</ele><time>2026-04-06T10:48:18.915Z</time></trkpt><trkpt lat="43.8822342" lon="10.9180077"><ele>47.2</ele><time>2026-04-06T10:48:19.91Z</time></trkpt><trkpt lat="43.8821809" lon="10.9181052"><ele>47.400000000000006</ele><time>2026-04-06T10:48:20.909Z</time></trkpt><trkpt lat="43.8821267" lon="10.9181925"><ele>47.599999999999994</ele><time>2026-04-06T10:48:21.914Z</time></trkpt><trkpt lat="43.8821055" lon="10.9182874"><ele>47.8</ele><time>2026-04-06T10:48:22.91Z</time></trkpt><trkpt lat="43.8820613" lon="10.9184943"><ele>48.0</ele><time>2026-04-06T10:48:23.915Z</time></trkpt><trkpt lat="43.8820234" lon="10.9186792"><ele>48.25</ele><time>2026-04-06T10:48:24.914Z</time></trkpt><trkpt lat="43.8819856" lon="10.9188641"><ele>48.5</ele><time>2026-04-06T10:48:25.91Z</time></trkpt><trkpt lat="43.8819222" lon="10.9190583"><ele>48.75</ele><time>2026-04-06T10:48:26.914Z</time></trkpt><trkpt lat="43.8818574" lon="10.9192431"><ele>49.0</ele><time>2026-04-06T10:48:27.913Z</time></trkpt><trkpt lat="43.8817846" lon="10.9194409"><ele>48.666666666666664</ele><time>2026-04-06T10:48:28.92Z</time></trkpt><trkpt lat="43.8817043" lon="10.9196405"><ele>48.33333333333333</ele><time>2026-04-06T10:48:29.92Z</time></trkpt><trkpt lat="43.8816283" lon="10.9198404"><ele>48.0</ele><time>2026-04-06T10:48:30.916Z</time></trkpt><trkpt lat="43.8815458" lon="10.9200498"><ele>48.0</ele><time>2026-04-06T10:48:31.915Z</time></trkpt><trkpt lat="43.8814612" lon="10.92028"><ele>48.0</ele><time>2026-04-06T10:48:32.916Z</time></trkpt><trkpt lat="43.8813885" lon="10.9204908"><ele>48.0</ele><time>2026-04-06T10:48:33.911Z</time></trkpt><trkpt lat="43.881283" lon="10.9207168"><ele>48.0</ele><time>2026-04-06T10:48:34.911Z</time></trkpt><trkpt lat="43.8811818" lon="10.9209473"><ele>48.0</ele><time>2026-04-06T10:48:35.92Z</time></trkpt><trkpt lat="43.8811018" lon="10.9211948"><ele>48.0</ele><time>2026-04-06T10:48:36.911Z</time></trkpt><trkpt lat="43.8810145" lon="10.921447"><ele>48.0</ele><time>2026-04-06T10:48:37.91Z</time></trkpt><trkpt lat="43.8809331" lon="10.9216868"><ele>48.0</ele><time>2026-04-06T10:48:38.911Z</time></trkpt><trkpt lat="43.8808622" lon="10.9219012"><ele>48.0</ele><time>2026-04-06T10:48:39.911Z</time></trkpt><trkpt lat="43.880779" lon="10.9221162"><ele>48.0</ele><time>2026-04-06T10:48:40.911Z</time></trkpt><trkpt lat="43.8806967" lon="10.9223408"><ele>48.0</ele><time>2026-04-06T10:48:41.913Z</time></trkpt><trkpt lat="43.8806033" lon="10.9225596"><ele>48.0</ele><time>2026-04-06T10:48:42.915Z</time></trkpt><trkpt lat="43.8805123" lon="10.9227734"><ele>48.0</ele><time>2026-04-06T10:48:43.905Z</time></trkpt><trkpt lat="43.8804361" lon="10.9229797"><ele>48.0</ele><time>2026-04-06T10:48:44.911Z</time></trkpt><trkpt lat="43.8803514" lon="10.9231925"><ele>48.0</ele><time>2026-04-06T10:48:45.912Z</time></trkpt><trkpt lat="43.8802695" lon="10.9233987"><ele>48.0</ele><time>2026-04-06T10:48:46.911Z</time></trkpt><trkpt lat="43.8801732" lon="10.9236034"><ele>48.0</ele><time>2026-04-06T10:48:47.906Z</time></trkpt><trkpt lat="43.8800803" lon="10.9238141"><ele>48.0</ele><time>2026-04-06T10:48:48.908Z</time></trkpt><trkpt lat="43.8799787" lon="10.9240098"><ele>48.0</ele><time>2026-04-06T10:48:49.907Z</time></trkpt><trkpt lat="43.8798725" lon="10.9241944"><ele>48.0</ele><time>2026-04-06T10:48:50.907Z</time></trkpt><trkpt lat="43.879759" lon="10.9243877"><ele>48.0</ele><time>2026-04-06T10:48:51.906Z</time></trkpt><trkpt lat="43.8796446" lon="10.924565"><ele>48.0</ele><time>2026-04-06T10:48:52.912Z</time></trkpt><trkpt lat="43.8795306" lon="10.9247565"><ele>48.0</ele><time>2026-04-06T10:48:53.906Z</time></trkpt><trkpt lat="43.8794201" lon="10.9249457"><ele>48.0</ele><time>2026-04-06T10:48:54.92Z</time></trkpt><trkpt lat="43.8793198" lon="10.9251266"><ele>49.33333333333333</ele><time>2026-04-06T10:48:55.906Z</time></trkpt><trkpt lat="43.8792089" lon="10.925322"><ele>50.666666666666664</ele><time>2026-04-06T10:48:56.909Z</time></trkpt><trkpt lat="43.8791064" lon="10.9255132"><ele>52.0</ele><time>2026-04-06T10:48:57.905Z</time></trkpt><trkpt lat="43.8790054" lon="10.9256846"><ele>52.0</ele><time>2026-04-06T10:48:58.909Z</time></trkpt><trkpt lat="43.8788963" lon="10.925874"><ele>52.0</ele><time>2026-04-06T10:48:59.921Z</time></trkpt><trkpt lat="43.8787738" lon="10.9260673"><ele>52.0</ele><time>2026-04-06T10:49:00.905Z</time></trkpt><trkpt lat="43.8786569" lon="10.9262611"><ele>52.0</ele><time>2026-04-06T10:49:01.911Z</time></trkpt><trkpt lat="43.8785325" lon="10.9264747"><ele>52.0</ele><time>2026-04-06T10:49:02.908Z</time></trkpt><trkpt lat="43.8784178" lon="10.9266752"><ele>52.0</ele><time>2026-04-06T10:49:03.904Z</time></trkpt><trkpt lat="43.8783146" lon="10.9268615"><ele>50.666666666666664</ele><time>2026-04-06T10:49:04.91Z</time></trkpt><trkpt lat="43.878214" lon="10.9270364"><ele>49.33333333333333</ele><time>2026-04-06T10:49:05.905Z</time></trkpt><trkpt lat="43.8780978" lon="10.9272162"><ele>48.0</ele><time>2026-04-06T10:49:06.911Z</time></trkpt><trkpt lat="43.8779815" lon="10.9273931"><ele>47.666666666666664</ele><time>2026-04-06T10:49:07.908Z</time></trkpt><trkpt lat="43.8778607" lon="10.9275704"><ele>47.33333333333333</ele><time>2026-04-06T10:49:08.908Z</time></trkpt><trkpt lat="43.8777357" lon="10.927748"><ele>47.0</ele><time>2026-04-06T10:49:09.909Z</time></trkpt><trkpt lat="43.8776025" lon="10.9279139"><ele>47.0</ele><time>2026-04-06T10:49:10.908Z</time></trkpt><trkpt lat="43.8774646" lon="10.9280728"><ele>47.0</ele><time>2026-04-06T10:49:11.915Z</time></trkpt><trkpt lat="43.8773256" lon="10.9282371"><ele>47.0</ele><time>2026-04-06T10:49:12.911Z</time></trkpt><trkpt lat="43.8771891" lon="10.9283838"><ele>47.0</ele><time>2026-04-06T10:49:13.912Z</time></trkpt><trkpt lat="43.8770545" lon="10.9284841"><ele>47.0</ele><time>2026-04-06T10:49:14.914Z</time></trkpt><trkpt lat="43.8769175" lon="10.9286179"><ele>47.0</ele><time>2026-04-06T10:49:15.908Z</time></trkpt><trkpt lat="43.8767802" lon="10.9287082"><ele>47.0</ele><time>2026-04-06T10:49:16.92Z</time></trkpt><trkpt lat="43.8766291" lon="10.9288535"><ele>47.0</ele><time>2026-04-06T10:49:17.91Z</time></trkpt><trkpt lat="43.8764791" lon="10.9289597"><ele>47.0</ele><time>2026-04-06T10:49:18.907Z</time></trkpt><trkpt lat="43.876331" lon="10.9290541"><ele>47.0</ele><time>2026-04-06T10:49:19.912Z</time></trkpt><trkpt lat="43.876174" lon="10.9291645"><ele>47.0</ele><time>2026-04-06T10:49:20.906Z</time></trkpt><trkpt lat="43.8760263" lon="10.9292653"><ele>47.0</ele><time>2026-04-06T10:49:21.913Z</time></trkpt><trkpt lat="43.8758651" lon="10.9293501"><ele>47.33333333333333</ele><time>2026-04-06T10:49:22.913Z</time></trkpt><trkpt lat="43.8756946" lon="10.9294316"><ele>47.666666666666664</ele><time>2026-04-06T10:49:23.91Z</time></trkpt><trkpt lat="43.8755456" lon="10.9294558"><ele>48.0</ele><time>2026-04-06T10:49:24.92Z</time></trkpt><trkpt lat="43.8753994" lon="10.9294896"><ele>48.0</ele><time>2026-04-06T10:49:25.91Z</time></trkpt><trkpt lat="43.8752378" lon="10.929528"><ele>48.0</ele><time>2026-04-06T10:49:26.914Z</time></trkpt><trkpt lat="43.8750665" lon="10.9295897"><ele>48.0</ele><time>2026-04-06T10:49:27.911Z</time></trkpt><trkpt lat="43.8749118" lon="10.9296159"><ele>48.33333333333333</ele><time>2026-04-06T10:49:28.917Z</time></trkpt><trkpt lat="43.8747439" lon="10.9296407"><ele>48.666666666666664</ele><time>2026-04-06T10:49:29.911Z</time></trkpt><trkpt lat="43.8745724" lon="10.9296739"><ele>49.0</ele><time>2026-04-06T10:49:30.923Z</time></trkpt><trkpt lat="43.874404" lon="10.9296866"><ele>48.666666666666664</ele><time>2026-04-06T10:49:31.91Z</time></trkpt><trkpt lat="43.8742329" lon="10.9297008"><ele>48.33333333333333</ele><time>2026-04-06T10:49:32.918Z</time></trkpt><trkpt lat="43.8740632" lon="10.9297203"><ele>48.0</ele><time>2026-04-06T10:49:33.911Z</time></trkpt><trkpt lat="43.873894" lon="10.9297454"><ele>48.0</ele><time>2026-04-06T10:49:34.914Z</time></trkpt><trkpt lat="43.8737283" lon="10.9297527"><ele>48.0</ele><time>2026-04-06T10:49:35.911Z</time></trkpt><trkpt lat="43.8735581" lon="10.9297785"><ele>48.0</ele><time>2026-04-06T10:49:36.91Z</time></trkpt><trkpt lat="43.8733859" lon="10.9297974"><ele>48.0</ele><time>2026-04-06T10:49:37.915Z</time></trkpt><trkpt lat="43.873209" lon="10.9298166"><ele>48.0</ele><time>2026-04-06T10:49:38.913Z</time></trkpt><trkpt lat="43.8730421" lon="10.9298272"><ele>48.0</ele><time>2026-04-06T10:49:39.92Z</time></trkpt><trkpt lat="43.8728615" lon="10.9298463"><ele>48.0</ele><time>2026-04-06T10:49:40.919Z</time></trkpt><trkpt lat="43.872684" lon="10.9298609"><ele>48.0</ele><time>2026-04-06T10:49:41.906Z</time></trkpt><trkpt lat="43.8725084" lon="10.9298686"><ele>48.0</ele><time>2026-04-06T10:49:42.909Z</time></trkpt><trkpt lat="43.8723329" lon="10.9298753"><ele>48.33333333333333</ele><time>2026-04-06T10:49:43.91Z</time></trkpt><trkpt lat="43.8721568" lon="10.9298909"><ele>48.666666666666664</ele><time>2026-04-06T10:49:44.912Z</time></trkpt><trkpt lat="43.8719816" lon="10.9298977"><ele>49.0</ele><time>2026-04-06T10:49:45.906Z</time></trkpt><trkpt lat="43.8718033" lon="10.9299161"><ele>49.33333333333333</ele><time>2026-04-06T10:49:46.909Z</time></trkpt><trkpt lat="43.8716321" lon="10.9299351"><ele>49.66666666666667</ele><time>2026-04-06T10:49:47.907Z</time></trkpt><trkpt lat="43.871455" lon="10.9299517"><ele>50.0</ele><time>2026-04-06T10:49:48.916Z</time></trkpt><trkpt lat="43.8712822" lon="10.9299571"><ele>50.0</ele><time>2026-04-06T10:49:49.906Z</time></trkpt><trkpt lat="43.8711113" lon="10.9299402"><ele>50.0</ele><time>2026-04-06T10:49:50.907Z</time></trkpt><trkpt lat="43.8709464" lon="10.9299477"><ele>50.0</ele><time>2026-04-06T10:49:51.908Z</time></trkpt><trkpt lat="43.8707791" lon="10.9299519"><ele>50.0</ele><time>2026-04-06T10:49:52.905Z</time></trkpt><trkpt lat="43.8706343" lon="10.9299291"><ele>50.0</ele><time>2026-04-06T10:49:53.907Z</time></trkpt><trkpt lat="43.8704909" lon="10.929904"><ele>50.0</ele><time>2026-04-06T10:49:54.921Z</time></trkpt><trkpt lat="43.8703594" lon="10.9298844"><ele>50.0</ele><time>2026-04-06T10:49:55.91Z</time></trkpt><trkpt lat="43.8702503" lon="10.9298516"><ele>50.0</ele><time>2026-04-06T10:49:56.909Z</time></trkpt><trkpt lat="43.8701414" lon="10.9298306"><ele>50.0</ele><time>2026-04-06T10:49:57.902Z</time></trkpt><trkpt lat="43.8700488" lon="10.929795"><ele>50.0</ele><time>2026-04-06T10:49:58.908Z</time></trkpt><trkpt lat="43.8699765" lon="10.9297385"><ele>50.0</ele><time>2026-04-06T10:49:59.906Z</time></trkpt><trkpt lat="43.8699045" lon="10.9296791"><ele>50.0</ele><time>2026-04-06T10:50:00.905Z</time></trkpt><trkpt lat="43.8698287" lon="10.9296344"><ele>50.4</ele><time>2026-04-06T10:50:01.907Z</time></trkpt><trkpt lat="43.8697549" lon="10.9296023"><ele>50.8</ele><time>2026-04-06T10:50:02.91Z</time></trkpt><trkpt lat="43.8696727" lon="10.9296037"><ele>51.2</ele><time>2026-04-06T10:50:03.909Z</time></trkpt><trkpt lat="43.8695377" lon="10.9295812"><ele>51.6</ele><time>2026-04-06T10:50:04.907Z</time></trkpt><trkpt lat="43.8694372" lon="10.9295414"><ele>52.0</ele><time>2026-04-06T10:50:05.917Z</time></trkpt><trkpt lat="43.8693351" lon="10.9294699"><ele>52.0</ele><time>2026-04-06T10:50:06.912Z</time></trkpt><trkpt lat="43.8692205" lon="10.9293905"><ele>52.0</ele><time>2026-04-06T10:50:07.909Z</time></trkpt><trkpt lat="43.8691058" lon="10.9292934"><ele>52.0</ele><time>2026-04-06T10:50:08.916Z</time></trkpt><trkpt lat="43.8689822" lon="10.9292147"><ele>52.0</ele><time>2026-04-06T10:50:09.912Z</time></trkpt><trkpt lat="43.8688725" lon="10.9291038"><ele>52.0</ele><time>2026-04-06T10:50:10.911Z</time></trkpt><trkpt lat="43.8687625" lon="10.9289816"><ele>52.0</ele><time>2026-04-06T10:50:11.913Z</time></trkpt><trkpt lat="43.8686464" lon="10.9288544"><ele>52.0</ele><time>2026-04-06T10:50:12.91Z</time></trkpt><trkpt lat="43.8685351" lon="10.9287007"><ele>52.0</ele><time>2026-04-06T10:50:13.905Z</time></trkpt><trkpt lat="43.8684378" lon="10.9285327"><ele>52.0</ele><time>2026-04-06T10:50:14.908Z</time></trkpt><trkpt lat="43.8683295" lon="10.9283597"><ele>52.0</ele><time>2026-04-06T10:50:15.91Z</time></trkpt><trkpt lat="43.8682156" lon="10.9281868"><ele>52.0</ele><time>2026-04-06T10:50:16.915Z</time></trkpt><trkpt lat="43.8680859" lon="10.9280267"><ele>52.0</ele><time>2026-04-06T10:50:17.909Z</time></trkpt><trkpt lat="43.8679745" lon="10.9278626"><ele>52.0</ele><time>2026-04-06T10:50:18.911Z</time></trkpt><trkpt lat="43.8678491" lon="10.9276996"><ele>52.0</ele><time>2026-04-06T10:50:19.913Z</time></trkpt><trkpt lat="43.8676947" lon="10.9275421"><ele>53.666666666666664</ele><time>2026-04-06T10:50:20.911Z</time></trkpt><trkpt lat="43.8675725" lon="10.9273524"><ele>55.33333333333333</ele><time>2026-04-06T10:50:21.913Z</time></trkpt><trkpt lat="43.8674341" lon="10.9271691"><ele>57.0</ele><time>2026-04-06T10:50:22.909Z</time></trkpt><trkpt lat="43.8672993" lon="10.9269945"><ele>57.0</ele><time>2026-04-06T10:50:23.911Z</time></trkpt><trkpt lat="43.8671741" lon="10.9268116"><ele>57.0</ele><time>2026-04-06T10:50:24.909Z</time></trkpt><trkpt lat="43.8670404" lon="10.9266361"><ele>57.0</ele><time>2026-04-06T10:50:25.912Z</time></trkpt><trkpt lat="43.866915" lon="10.9264538"><ele>56.66666666666667</ele><time>2026-04-06T10:50:26.91Z</time></trkpt><trkpt lat="43.8667917" lon="10.9262712"><ele>56.333333333333336</ele><time>2026-04-06T10:50:27.909Z</time></trkpt><trkpt lat="43.8666713" lon="10.926094"><ele>56.0</ele><time>2026-04-06T10:50:28.908Z</time></trkpt><trkpt lat="43.8665539" lon="10.925903"><ele>58.0</ele><time>2026-04-06T10:50:29.914Z</time></trkpt><trkpt lat="43.866431" lon="10.9257366"><ele>60.0</ele><time>2026-04-06T10:50:30.91Z</time></trkpt><trkpt lat="43.8663035" lon="10.9255695"><ele>62.0</ele><time>2026-04-06T10:50:31.912Z</time></trkpt><trkpt lat="43.866177" lon="10.9254006"><ele>62.0</ele><time>2026-04-06T10:50:32.911Z</time></trkpt><trkpt lat="43.8660604" lon="10.9252329"><ele>62.0</ele><time>2026-04-06T10:50:33.911Z</time></trkpt><trkpt lat="43.865938" lon="10.9250584"><ele>62.0</ele><time>2026-04-06T10:50:34.908Z</time></trkpt><trkpt lat="43.8658104" lon="10.9248818"><ele>62.0</ele><time>2026-04-06T10:50:35.91Z</time></trkpt><trkpt lat="43.8656898" lon="10.9247182"><ele>62.0</ele><time>2026-04-06T10:50:36.908Z</time></trkpt><trkpt lat="43.8655656" lon="10.9245451"><ele>62.0</ele><time>2026-04-06T10:50:37.906Z</time></trkpt><trkpt lat="43.8654635" lon="10.9243783"><ele>63.66666666666667</ele><time>2026-04-06T10:50:38.908Z</time></trkpt><trkpt lat="43.8653578" lon="10.924192"><ele>65.33333333333333</ele><time>2026-04-06T10:50:39.914Z</time></trkpt><trkpt lat="43.8652197" lon="10.9240315"><ele>67.0</ele><time>2026-04-06T10:50:40.912Z</time></trkpt><trkpt lat="43.8651196" lon="10.9238361"><ele>66.66666666666666</ele><time>2026-04-06T10:50:41.912Z</time></trkpt><trkpt lat="43.8650176" lon="10.9236432"><ele>66.33333333333333</ele><time>2026-04-06T10:50:42.908Z</time></trkpt><trkpt lat="43.8649055" lon="10.9234497"><ele>66.0</ele><time>2026-04-06T10:50:43.909Z</time></trkpt><trkpt lat="43.8648234" lon="10.9232497"><ele>67.66666666666667</ele><time>2026-04-06T10:50:44.908Z</time></trkpt><trkpt lat="43.8647328" lon="10.9230471"><ele>69.33333333333334</ele><time>2026-04-06T10:50:45.91Z</time></trkpt><trkpt lat="43.8646627" lon="10.9228358"><ele>71.0</ele><time>2026-04-06T10:50:46.912Z</time></trkpt><trkpt lat="43.864576" lon="10.9226265"><ele>74.0</ele><time>2026-04-06T10:50:47.911Z</time></trkpt><trkpt lat="43.8644753" lon="10.9224334"><ele>77.0</ele><time>2026-04-06T10:50:48.913Z</time></trkpt><trkpt lat="43.864387" lon="10.9222201"><ele>80.0</ele><time>2026-04-06T10:50:49.916Z</time></trkpt><trkpt lat="43.8643165" lon="10.9220221"><ele>79.0</ele><time>2026-04-06T10:50:50.916Z</time></trkpt><trkpt lat="43.8642313" lon="10.9218126"><ele>78.0</ele><time>2026-04-06T10:50:51.911Z</time></trkpt><trkpt lat="43.8641459" lon="10.9216185"><ele>77.0</ele><time>2026-04-06T10:50:52.909Z</time></trkpt><trkpt lat="43.8640359" lon="10.9214446"><ele>77.0</ele><time>2026-04-06T10:50:53.914Z</time></trkpt><trkpt lat="43.8638962" lon="10.9212945"><ele>77.0</ele><time>2026-04-06T10:50:54.91Z</time></trkpt><trkpt lat="43.8637542" lon="10.9211523"><ele>77.0</ele><time>2026-04-06T10:50:55.913Z</time></trkpt><trkpt lat="43.8636062" lon="10.9210201"><ele>77.0</ele><time>2026-04-06T10:50:56.913Z</time></trkpt><trkpt lat="43.8634505" lon="10.9209058"><ele>77.0</ele><time>2026-04-06T10:50:57.908Z</time></trkpt><trkpt lat="43.8632827" lon="10.9207755"><ele>77.0</ele><time>2026-04-06T10:50:58.906Z</time></trkpt><trkpt lat="43.8630615" lon="10.9206724"><ele>77.66666666666667</ele><time>2026-04-06T10:50:59.907Z</time></trkpt><trkpt lat="43.8628771" lon="10.9205629"><ele>78.33333333333333</ele><time>2026-04-06T10:51:00.907Z</time></trkpt><trkpt lat="43.8627095" lon="10.9204586"><ele>79.0</ele><time>2026-04-06T10:51:01.907Z</time></trkpt><trkpt lat="43.8625324" lon="10.9203623"><ele>79.0</ele><time>2026-04-06T10:51:02.908Z</time></trkpt><trkpt lat="43.8623752" lon="10.9202729"><ele>79.0</ele><time>2026-04-06T10:51:03.909Z</time></trkpt><trkpt lat="43.8622157" lon="10.9201969"><ele>79.0</ele><time>2026-04-06T10:51:04.914Z</time></trkpt><trkpt lat="43.862076" lon="10.9201338"><ele>79.0</ele><time>2026-04-06T10:51:05.91Z</time></trkpt><trkpt lat="43.8619305" lon="10.9201257"><ele>79.0</ele><time>2026-04-06T10:51:06.907Z</time></trkpt><trkpt lat="43.8617887" lon="10.9201327"><ele>79.0</ele><time>2026-04-06T10:51:07.908Z</time></trkpt><trkpt lat="43.8616787" lon="10.920188"><ele>79.0</ele><time>2026-04-06T10:51:08.915Z</time></trkpt><trkpt lat="43.8615958" lon="10.9203094"><ele>80.75</ele><time>2026-04-06T10:51:09.916Z</time></trkpt><trkpt lat="43.8615277" lon="10.920446"><ele>82.5</ele><time>2026-04-06T10:51:10.921Z</time></trkpt><trkpt lat="43.8614869" lon="10.9205751"><ele>84.25</ele><time>2026-04-06T10:51:11.911Z</time></trkpt><trkpt lat="43.8614679" lon="10.9206642"><ele>86.0</ele><time>2026-04-06T10:51:12.904Z</time></trkpt><trkpt lat="43.8615148" lon="10.9209131"><ele>84.33333333333334</ele><time>2026-04-06T10:51:13.908Z</time></trkpt><trkpt lat="43.8616522" lon="10.9211409"><ele>82.66666666666667</ele><time>2026-04-06T10:51:14.917Z</time></trkpt><trkpt lat="43.8617623" lon="10.9213524"><ele>81.0</ele><time>2026-04-06T10:51:15.908Z</time></trkpt><trkpt lat="43.8619" lon="10.921592"><ele>85.66666666666667</ele><time>2026-04-06T10:51:16.913Z</time></trkpt><trkpt lat="43.8620336" lon="10.9217978"><ele>90.33333333333334</ele><time>2026-04-06T10:51:17.909Z</time></trkpt><trkpt lat="43.8621492" lon="10.9220357"><ele>95.0</ele><time>2026-04-06T10:51:18.912Z</time></trkpt><trkpt lat="43.8622648" lon="10.9222669"><ele>95.0</ele><time>2026-04-06T10:51:19.913Z</time></trkpt><trkpt lat="43.8623941" lon="10.9224659"><ele>95.0</ele><time>2026-04-06T10:51:20.915Z</time></trkpt><trkpt lat="43.8624835" lon="10.9226469"><ele>95.0</ele><time>2026-04-06T10:51:21.909Z</time></trkpt><trkpt lat="43.8625561" lon="10.9228092"><ele>93.4</ele><time>2026-04-06T10:51:22.903Z</time></trkpt><trkpt lat="43.8626226" lon="10.9229569"><ele>91.8</ele><time>2026-04-06T10:51:23.906Z</time></trkpt><trkpt lat="43.8626829" lon="10.923102"><ele>90.19999999999999</ele><time>2026-04-06T10:51:24.91Z</time></trkpt><trkpt lat="43.8626777" lon="10.9232493"><ele>88.6</ele><time>2026-04-06T10:51:25.912Z</time></trkpt><trkpt lat="43.8626638" lon="10.9233516"><ele>87.0</ele><time>2026-04-06T10:51:26.913Z</time></trkpt><trkpt lat="43.8626295" lon="10.9234711"><ele>88.5</ele><time>2026-04-06T10:51:27.915Z</time></trkpt><trkpt lat="43.8625424" lon="10.9235532"><ele>90.0</ele><time>2026-04-06T10:51:28.913Z</time></trkpt><trkpt lat="43.8624659" lon="10.9236384"><ele>91.5</ele><time>2026-04-06T10:51:29.908Z</time></trkpt><trkpt lat="43.8623269" lon="10.9237116"><ele>93.0</ele><time>2026-04-06T10:51:30.913Z</time></trkpt><trkpt lat="43.8622217" lon="10.923788"><ele>93.0</ele><time>2026-04-06T10:51:31.912Z</time></trkpt><trkpt lat="43.8620583" lon="10.9237944"><ele>93.0</ele><time>2026-04-06T10:51:32.911Z</time></trkpt><trkpt lat="43.8619085" lon="10.9238209"><ele>93.0</ele><time>2026-04-06T10:51:33.919Z</time></trkpt><trkpt lat="43.8617039" lon="10.9236922"><ele>92.0</ele><time>2026-04-06T10:51:34.906Z</time></trkpt><trkpt lat="43.8615422" lon="10.923539"><ele>91.0</ele><time>2026-04-06T10:51:35.906Z</time></trkpt><trkpt lat="43.8614319" lon="10.9233107"><ele>90.0</ele><time>2026-04-06T10:51:36.909Z</time></trkpt><trkpt lat="43.8613268" lon="10.9231686"><ele>94.66666666666666</ele><time>2026-04-06T10:51:37.906Z</time></trkpt><trkpt lat="43.8613119" lon="10.9229104"><ele>99.33333333333333</ele><time>2026-04-06T10:51:38.91Z</time></trkpt><trkpt lat="43.8612051" lon="10.9227358"><ele>104.0</ele><time>2026-04-06T10:51:39.907Z</time></trkpt><trkpt lat="43.8610774" lon="10.9225869"><ele>104.33333333333333</ele><time>2026-04-06T10:51:40.908Z</time></trkpt><trkpt lat="43.8609313" lon="10.9224234"><ele>104.66666666666666</ele><time>2026-04-06T10:51:41.91Z</time></trkpt><trkpt lat="43.8607581" lon="10.92223"><ele>105.0</ele><time>2026-04-06T10:51:42.929Z</time></trkpt><trkpt lat="43.8605872" lon="10.9220838"><ele>105.0</ele><time>2026-04-06T10:51:43.903Z</time></trkpt><trkpt lat="43.8604282" lon="10.9219577"><ele>105.0</ele><time>2026-04-06T10:51:44.911Z</time></trkpt><trkpt lat="43.8602821" lon="10.9218409"><ele>105.0</ele><time>2026-04-06T10:51:45.906Z</time></trkpt><trkpt lat="43.8601862" lon="10.9216942"><ele>107.33333333333334</ele><time>2026-04-06T10:51:46.908Z</time></trkpt><trkpt lat="43.8600946" lon="10.9215221"><ele>109.66666666666667</ele><time>2026-04-06T10:51:47.906Z</time></trkpt><trkpt lat="43.8600855" lon="10.9212766"><ele>112.0</ele><time>2026-04-06T10:51:48.912Z</time></trkpt><trkpt lat="43.8600188" lon="10.921077"><ele>114.75</ele><time>2026-04-06T10:51:49.912Z</time></trkpt><trkpt lat="43.859941" lon="10.9208958"><ele>117.5</ele><time>2026-04-06T10:51:50.909Z</time></trkpt><trkpt lat="43.8598522" lon="10.9207742"><ele>120.25</ele><time>2026-04-06T10:51:51.908Z</time></trkpt><trkpt lat="43.8597687" lon="10.920658"><ele>123.0</ele><time>2026-04-06T10:51:52.917Z</time></trkpt><trkpt lat="43.8596281" lon="10.9205777"><ele>123.0</ele><time>2026-04-06T10:51:53.909Z</time></trkpt><trkpt lat="43.8594458" lon="10.9205564"><ele>123.0</ele><time>2026-04-06T10:51:54.909Z</time></trkpt><trkpt lat="43.8592833" lon="10.9205223"><ele>123.0</ele><time>2026-04-06T10:51:55.912Z</time></trkpt><trkpt lat="43.8591527" lon="10.920424"><ele>121.66666666666666</ele><time>2026-04-06T10:51:56.914Z</time></trkpt><trkpt lat="43.859046" lon="10.9202977"><ele>120.33333333333333</ele><time>2026-04-06T10:51:57.908Z</time></trkpt><trkpt lat="43.8589122" lon="10.9201574"><ele>119.0</ele><time>2026-04-06T10:51:58.904Z</time></trkpt><trkpt lat="43.8588339" lon="10.919904"><ele>123.0</ele><time>2026-04-06T10:51:59.904Z</time></trkpt><trkpt lat="43.8587472" lon="10.9197308"><ele>127.0</ele><time>2026-04-06T10:52:00.912Z</time></trkpt><trkpt lat="43.8586453" lon="10.9195524"><ele>131.0</ele><time>2026-04-06T10:52:01.91Z</time></trkpt><trkpt lat="43.8585234" lon="10.9194108"><ele>132.25</ele><time>2026-04-06T10:52:02.911Z</time></trkpt><trkpt lat="43.8584073" lon="10.9192993"><ele>133.5</ele><time>2026-04-06T10:52:03.91Z</time></trkpt><trkpt lat="43.8582915" lon="10.919217"><ele>134.75</ele><time>2026-04-06T10:52:04.914Z</time></trkpt><trkpt lat="43.8581577" lon="10.9191762"><ele>136.0</ele><time>2026-04-06T10:52:05.907Z</time></trkpt><trkpt lat="43.8580765" lon="10.9191206"><ele>136.0</ele><time>2026-04-06T10:52:06.907Z</time></trkpt><trkpt lat="43.8580181" lon="10.9190035"><ele>136.0</ele><time>2026-04-06T10:52:07.905Z</time></trkpt><trkpt lat="43.8579779" lon="10.9188647"><ele>136.0</ele><time>2026-04-06T10:52:08.91Z</time></trkpt><trkpt lat="43.8579566" lon="10.9187161"><ele>136.0</ele><time>2026-04-06T10:52:09.906Z</time></trkpt><trkpt lat="43.8579847" lon="10.9185292"><ele>138.0</ele><time>2026-04-06T10:52:10.903Z</time></trkpt><trkpt lat="43.8580247" lon="10.9183247"><ele>140.0</ele><time>2026-04-06T10:52:11.906Z</time></trkpt><trkpt lat="43.8580289" lon="10.9181329"><ele>142.0</ele><time>2026-04-06T10:52:12.905Z</time></trkpt><trkpt lat="43.8580073" lon="10.9179396"><ele>144.0</ele><time>2026-04-06T10:52:13.91Z</time></trkpt><trkpt lat="43.8579688" lon="10.917719"><ele>142.66666666666666</ele><time>2026-04-06T10:52:14.917Z</time></trkpt><trkpt lat="43.8579166" lon="10.9175219"><ele>141.33333333333331</ele><time>2026-04-06T10:52:15.923Z</time></trkpt><trkpt lat="43.8578328" lon="10.9173284"><ele>140.0</ele><time>2026-04-06T10:52:16.91Z</time></trkpt><trkpt lat="43.8577403" lon="10.9171658"><ele>138.66666666666666</ele><time>2026-04-06T10:52:17.906Z</time></trkpt><trkpt lat="43.8575778" lon="10.9169862"><ele>137.33333333333334</ele><time>2026-04-06T10:52:18.908Z</time></trkpt><trkpt lat="43.85745" lon="10.9168096"><ele>136.0</ele><time>2026-04-06T10:52:19.904Z</time></trkpt><trkpt lat="43.8573782" lon="10.9166481"><ele>138.0</ele><time>2026-04-06T10:52:20.915Z</time></trkpt><trkpt lat="43.8573691" lon="10.9164582"><ele>140.0</ele><time>2026-04-06T10:52:21.912Z</time></trkpt><trkpt lat="43.8573451" lon="10.9162411"><ele>142.0</ele><time>2026-04-06T10:52:22.911Z</time></trkpt><trkpt lat="43.8573032" lon="10.916056"><ele>144.0</ele><time>2026-04-06T10:52:23.928Z</time></trkpt><trkpt lat="43.8573002" lon="10.9158006"><ele>145.0</ele><time>2026-04-06T10:52:24.914Z</time></trkpt><trkpt lat="43.8572775" lon="10.9155953"><ele>146.0</ele><time>2026-04-06T10:52:25.906Z</time></trkpt><trkpt lat="43.8572229" lon="10.9154271"><ele>147.0</ele><time>2026-04-06T10:52:26.91Z</time></trkpt><trkpt lat="43.8571048" lon="10.9152863"><ele>148.0</ele><time>2026-04-06T10:52:27.908Z</time></trkpt><trkpt lat="43.8570151" lon="10.9151832"><ele>148.0</ele><time>2026-04-06T10:52:28.905Z</time></trkpt><trkpt lat="43.8569087" lon="10.9150815"><ele>148.0</ele><time>2026-04-06T10:52:29.908Z</time></trkpt><trkpt lat="43.8568004" lon="10.9150082"><ele>148.0</ele><time>2026-04-06T10:52:30.914Z</time></trkpt><trkpt lat="43.8566388" lon="10.914966"><ele>148.0</ele><time>2026-04-06T10:52:31.907Z</time></trkpt><trkpt lat="43.8564425" lon="10.9149378"><ele>148.0</ele><time>2026-04-06T10:52:32.908Z</time></trkpt><trkpt lat="43.856202" lon="10.9149563"><ele>148.0</ele><time>2026-04-06T10:52:33.911Z</time></trkpt><trkpt lat="43.8560276" lon="10.9149919"><ele>148.0</ele><time>2026-04-06T10:52:34.908Z</time></trkpt><trkpt lat="43.8558647" lon="10.914955"><ele>150.5</ele><time>2026-04-06T10:52:35.902Z</time></trkpt><trkpt lat="43.8557383" lon="10.9150105"><ele>153.0</ele><time>2026-04-06T10:52:36.908Z</time></trkpt><trkpt lat="43.8556036" lon="10.9149362"><ele>155.5</ele><time>2026-04-06T10:52:37.909Z</time></trkpt><trkpt lat="43.8555251" lon="10.9148294"><ele>158.0</ele><time>2026-04-06T10:52:38.912Z</time></trkpt><trkpt lat="43.8554614" lon="10.9146822"><ele>158.0</ele><time>2026-04-06T10:52:39.91Z</time></trkpt><trkpt lat="43.8553823" lon="10.9145239"><ele>158.0</ele><time>2026-04-06T10:52:40.914Z</time></trkpt><trkpt lat="43.8552976" lon="10.9143754"><ele>158.0</ele><time>2026-04-06T10:52:41.918Z</time></trkpt><trkpt lat="43.85522" lon="10.9141647"><ele>158.0</ele><time>2026-04-06T10:52:42.902Z</time></trkpt><trkpt lat="43.8551705" lon="10.9139602"><ele>157.75</ele><time>2026-04-06T10:52:43.906Z</time></trkpt><trkpt lat="43.8551185" lon="10.9137723"><ele>157.5</ele><time>2026-04-06T10:52:44.91Z</time></trkpt><trkpt lat="43.8550469" lon="10.9135919"><ele>157.25</ele><time>2026-04-06T10:52:45.908Z</time></trkpt><trkpt lat="43.8549965" lon="10.9134463"><ele>157.0</ele><time>2026-04-06T10:52:46.908Z</time></trkpt><trkpt lat="43.8548819" lon="10.9132971"><ele>158.0</ele><time>2026-04-06T10:52:47.91Z</time></trkpt><trkpt lat="43.8547938" lon="10.9131585"><ele>159.0</ele><time>2026-04-06T10:52:48.908Z</time></trkpt><trkpt lat="43.8546186" lon="10.9130164"><ele>160.0</ele><time>2026-04-06T10:52:49.907Z</time></trkpt><trkpt lat="43.8543816" lon="10.9128767"><ele>161.0</ele><time>2026-04-06T10:52:50.908Z</time></trkpt><trkpt lat="43.8541644" lon="10.9127255"><ele>162.0</ele><time>2026-04-06T10:52:51.91Z</time></trkpt><trkpt lat="43.8539703" lon="10.9125703"><ele>164.0</ele><time>2026-04-06T10:52:52.905Z</time></trkpt><trkpt lat="43.8537929" lon="10.91241"><ele>166.0</ele><time>2026-04-06T10:52:53.912Z</time></trkpt><trkpt lat="43.853605" lon="10.9122714"><ele>168.0</ele><time>2026-04-06T10:52:54.906Z</time></trkpt><trkpt lat="43.8534095" lon="10.9121296"><ele>170.33333333333334</ele><time>2026-04-06T10:52:55.925Z</time></trkpt><trkpt lat="43.8532251" lon="10.9119992"><ele>172.66666666666669</ele><time>2026-04-06T10:52:56.915Z</time></trkpt><trkpt lat="43.8530404" lon="10.9118639"><ele>175.0</ele><time>2026-04-06T10:52:57.916Z</time></trkpt><trkpt lat="43.8528587" lon="10.9117336"><ele>175.66666666666669</ele><time>2026-04-06T10:52:58.905Z</time></trkpt><trkpt lat="43.8526929" lon="10.9115833"><ele>176.33333333333334</ele><time>2026-04-06T10:52:59.919Z</time></trkpt><trkpt lat="43.852527" lon="10.9114471"><ele>177.0</ele><time>2026-04-06T10:53:00.91Z</time></trkpt><trkpt lat="43.8523528" lon="10.9113132"><ele>178.66666666666666</ele><time>2026-04-06T10:53:01.911Z</time></trkpt><trkpt lat="43.8521852" lon="10.9111752"><ele>180.33333333333331</ele><time>2026-04-06T10:53:02.921Z</time></trkpt><trkpt lat="43.8520109" lon="10.9110789"><ele>182.0</ele><time>2026-04-06T10:53:03.907Z</time></trkpt><trkpt lat="43.8518363" lon="10.910969"><ele>187.25</ele><time>2026-04-06T10:53:04.907Z</time></trkpt><trkpt lat="43.8516835" lon="10.9108813"><ele>192.5</ele><time>2026-04-06T10:53:05.912Z</time></trkpt><trkpt lat="43.8515561" lon="10.9107806"><ele>197.75</ele><time>2026-04-06T10:53:06.908Z</time></trkpt><trkpt lat="43.8514323" lon="10.9107202"><ele>203.0</ele><time>2026-04-06T10:53:07.907Z</time></trkpt><trkpt lat="43.851311" lon="10.9106127"><ele>203.0</ele><time>2026-04-06T10:53:08.911Z</time></trkpt><trkpt lat="43.851214" lon="10.9105203"><ele>203.0</ele><time>2026-04-06T10:53:09.917Z</time></trkpt><trkpt lat="43.8511317" lon="10.9104818"><ele>203.0</ele><time>2026-04-06T10:53:10.907Z</time></trkpt><trkpt lat="43.8510255" lon="10.9104559"><ele>203.0</ele><time>2026-04-06T10:53:11.907Z</time></trkpt><trkpt lat="43.8509485" lon="10.9104708"><ele>203.0</ele><time>2026-04-06T10:53:12.908Z</time></trkpt><trkpt lat="43.850878" lon="10.9105185"><ele>205.25</ele><time>2026-04-06T10:53:13.907Z</time></trkpt><trkpt lat="43.8509069" lon="10.9107318"><ele>207.5</ele><time>2026-04-06T10:53:15.92Z</time></trkpt><trkpt lat="43.8509246" lon="10.9108238"><ele>209.75</ele><time>2026-04-06T10:53:16.912Z</time></trkpt><trkpt lat="43.8509981" lon="10.9110425"><ele>212.0</ele><time>2026-04-06T10:53:17.905Z</time></trkpt><trkpt lat="43.8510837" lon="10.9113903"><ele>203.66666666666669</ele><time>2026-04-06T10:53:19.937Z</time></trkpt><trkpt lat="43.8510803" lon="10.9115902"><ele>195.33333333333334</ele><time>2026-04-06T10:53:20.929Z</time></trkpt><trkpt lat="43.8510605" lon="10.911827"><ele>187.0</ele><time>2026-04-06T10:53:21.918Z</time></trkpt><trkpt lat="43.8509998" lon="10.9120486"><ele>191.75</ele><time>2026-04-06T10:53:22.905Z</time></trkpt><trkpt lat="43.8509355" lon="10.9122474"><ele>196.5</ele><time>2026-04-06T10:53:23.906Z</time></trkpt><trkpt lat="43.8508885" lon="10.9124184"><ele>201.25</ele><time>2026-04-06T10:53:24.913Z</time></trkpt><trkpt lat="43.8508576" lon="10.9125343"><ele>206.0</ele><time>2026-04-06T10:53:25.917Z</time></trkpt><trkpt lat="43.850824" lon="10.9126472"><ele>206.0</ele><time>2026-04-06T10:53:26.916Z</time></trkpt><trkpt lat="43.850786" lon="10.9127502"><ele>206.0</ele><time>2026-04-06T10:53:27.914Z</time></trkpt><trkpt lat="43.8506872" lon="10.9128726"><ele>206.0</ele><time>2026-04-06T10:53:28.912Z</time></trkpt><trkpt lat="43.8505756" lon="10.912933"><ele>206.0</ele><time>2026-04-06T10:53:29.913Z</time></trkpt><trkpt lat="43.8504874" lon="10.913026"><ele>206.0</ele><time>2026-04-06T10:53:30.917Z</time></trkpt><trkpt lat="43.8503946" lon="10.9131237"><ele>206.0</ele><time>2026-04-06T10:53:31.915Z</time></trkpt><trkpt lat="43.8503028" lon="10.913218"><ele>206.0</ele><time>2026-04-06T10:53:32.907Z</time></trkpt><trkpt lat="43.8501984" lon="10.9133146"><ele>206.0</ele><time>2026-04-06T10:53:33.916Z</time></trkpt><trkpt lat="43.8500952" lon="10.9133977"><ele>206.0</ele><time>2026-04-06T10:53:34.911Z</time></trkpt><trkpt lat="43.8499776" lon="10.9134225"><ele>206.0</ele><time>2026-04-06T10:53:35.908Z</time></trkpt><trkpt lat="43.8498819" lon="10.9135029"><ele>206.0</ele><time>2026-04-06T10:53:36.911Z</time></trkpt><trkpt lat="43.8498075" lon="10.9136137"><ele>206.0</ele><time>2026-04-06T10:53:37.912Z</time></trkpt><trkpt lat="43.8497825" lon="10.9137276"><ele>206.0</ele><time>2026-04-06T10:53:38.913Z</time></trkpt><trkpt lat="43.8497341" lon="10.9138462"><ele>206.0</ele><time>2026-04-06T10:53:39.912Z</time></trkpt><trkpt lat="43.8496793" lon="10.9139725"><ele>206.0</ele><time>2026-04-06T10:53:40.909Z</time></trkpt><trkpt lat="43.8496154" lon="10.9141076"><ele>206.0</ele><time>2026-04-06T10:53:41.923Z</time></trkpt><trkpt lat="43.8495588" lon="10.9142209"><ele>206.0</ele><time>2026-04-06T10:53:42.92Z</time></trkpt><trkpt lat="43.849478" lon="10.9143315"><ele>206.0</ele><time>2026-04-06T10:53:43.905Z</time></trkpt><trkpt lat="43.8493849" lon="10.9144794"><ele>208.0</ele><time>2026-04-06T10:53:44.917Z</time></trkpt><trkpt lat="43.849281" lon="10.9145674"><ele>210.0</ele><time>2026-04-06T10:53:45.908Z</time></trkpt><trkpt lat="43.8491822" lon="10.9146379"><ele>212.0</ele><time>2026-04-06T10:53:46.908Z</time></trkpt><trkpt lat="43.8490918" lon="10.9146908"><ele>214.0</ele><time>2026-04-06T10:53:47.92Z</time></trkpt><trkpt lat="43.8489493" lon="10.9147135"><ele>214.0</ele><time>2026-04-06T10:53:49.909Z</time></trkpt><trkpt lat="43.8488791" lon="10.9146397"><ele>213.99999999999997</ele><time>2026-04-06T10:53:50.913Z</time></trkpt><trkpt lat="43.8487708" lon="10.914535"><ele>213.99999999999997</ele><time>2026-04-06T10:53:52.911Z</time></trkpt><trkpt lat="43.8487087" lon="10.9144621"><ele>214.0</ele><time>2026-04-06T10:53:53.91Z</time></trkpt><trkpt lat="43.8486471" lon="10.9144022"><ele>214.0</ele><time>2026-04-06T10:53:54.908Z</time></trkpt><trkpt lat="43.8485842" lon="10.9143058"><ele>214.0</ele><time>2026-04-06T10:53:56.908Z</time></trkpt><trkpt lat="43.8484663" lon="10.9143305"><ele>213.99999999999997</ele><time>2026-04-06T10:53:58.91Z</time></trkpt><trkpt lat="43.8484084" lon="10.9144622"><ele>213.99999999999997</ele><time>2026-04-06T10:53:59.911Z</time></trkpt><trkpt lat="43.8483908" lon="10.9146367"><ele>214.0</ele><time>2026-04-06T10:54:01.909Z</time></trkpt><trkpt lat="43.8484143" lon="10.9147538"><ele>214.0</ele><time>2026-04-06T10:54:02.91Z</time></trkpt><trkpt lat="43.8484275" lon="10.91495"><ele>218.0</ele><time>2026-04-06T10:54:03.904Z</time></trkpt><trkpt lat="43.8484435" lon="10.9151247"><ele>222.0</ele><time>2026-04-06T10:54:04.908Z</time></trkpt><trkpt lat="43.8484623" lon="10.9152767"><ele>226.0</ele><time>2026-04-06T10:54:05.916Z</time></trkpt><trkpt lat="43.8484855" lon="10.9154215"><ele>230.0</ele><time>2026-04-06T10:54:06.911Z</time></trkpt><trkpt lat="43.8485344" lon="10.9155703"><ele>228.4</ele><time>2026-04-06T10:54:07.909Z</time></trkpt><trkpt lat="43.8485687" lon="10.9157156"><ele>226.8</ele><time>2026-04-06T10:54:08.919Z</time></trkpt><trkpt lat="43.8485451" lon="10.9158191"><ele>225.2</ele><time>2026-04-06T10:54:09.91Z</time></trkpt><trkpt lat="43.8484608" lon="10.9159641"><ele>223.6</ele><time>2026-04-06T10:54:11.909Z</time></trkpt><trkpt lat="43.848379" lon="10.9159706"><ele>222.0</ele><time>2026-04-06T10:54:12.91Z</time></trkpt><trkpt lat="43.8482653" lon="10.9159327"><ele>222.0</ele><time>2026-04-06T10:54:13.91Z</time></trkpt><trkpt lat="43.848174" lon="10.9159357"><ele>222.0</ele><time>2026-04-06T10:54:14.924Z</time></trkpt><trkpt lat="43.8480959" lon="10.9159525"><ele>222.0</ele><time>2026-04-06T10:54:15.909Z</time></trkpt><trkpt lat="43.8480122" lon="10.9159687"><ele>222.0</ele><time>2026-04-06T10:54:16.913Z</time></trkpt><trkpt lat="43.8478876" lon="10.9160839"><ele>222.0</ele><time>2026-04-06T10:54:18.91Z</time></trkpt><trkpt lat="43.8478097" lon="10.9162323"><ele>222.0</ele><time>2026-04-06T10:54:20.92Z</time></trkpt><trkpt lat="43.8478462" lon="10.9163734"><ele>222.0</ele><time>2026-04-06T10:54:21.906Z</time></trkpt><trkpt lat="43.8478693" lon="10.916543"><ele>222.0</ele><time>2026-04-06T10:54:22.911Z</time></trkpt><trkpt lat="43.8478926" lon="10.9166921"><ele>222.0</ele><time>2026-04-06T10:54:23.909Z</time></trkpt><trkpt lat="43.8479454" lon="10.9168768"><ele>223.0</ele><time>2026-04-06T10:54:24.908Z</time></trkpt><trkpt lat="43.8480059" lon="10.917096"><ele>224.0</ele><time>2026-04-06T10:54:25.909Z</time></trkpt><trkpt lat="43.8480666" lon="10.9172786"><ele>225.0</ele><time>2026-04-06T10:54:26.909Z</time></trkpt><trkpt lat="43.848112" lon="10.9174325"><ele>226.0</ele><time>2026-04-06T10:54:27.902Z</time></trkpt><trkpt lat="43.8481728" lon="10.9175322"><ele>224.8</ele><time>2026-04-06T10:54:28.922Z</time></trkpt><trkpt lat="43.8482289" lon="10.9176299"><ele>223.60000000000002</ele><time>2026-04-06T10:54:29.911Z</time></trkpt><trkpt lat="43.8482407" lon="10.9177292"><ele>222.4</ele><time>2026-04-06T10:54:30.909Z</time></trkpt><trkpt lat="43.8482491" lon="10.9179005"><ele>221.2</ele><time>2026-04-06T10:54:32.92Z</time></trkpt><trkpt lat="43.8482366" lon="10.9179979"><ele>220.0</ele><time>2026-04-06T10:54:34.913Z</time></trkpt><trkpt lat="43.8480773" lon="10.9179501"><ele>220.0</ele><time>2026-04-06T10:54:36.907Z</time></trkpt><trkpt lat="43.8480566" lon="10.9177221"><ele>220.0</ele><time>2026-04-06T10:54:37.911Z</time></trkpt><trkpt lat="43.847995" lon="10.9176054"><ele>220.0</ele><time>2026-04-06T10:54:38.91Z</time></trkpt><trkpt lat="43.8479363" lon="10.9175213"><ele>220.0</ele><time>2026-04-06T10:54:39.909Z</time></trkpt><trkpt lat="43.8478922" lon="10.9174086"><ele>220.0</ele><time>2026-04-06T10:54:40.911Z</time></trkpt><trkpt lat="43.8478208" lon="10.9172948"><ele>221.5</ele><time>2026-04-06T10:54:41.914Z</time></trkpt><trkpt lat="43.8477032" lon="10.9172222"><ele>223.0</ele><time>2026-04-06T10:54:42.912Z</time></trkpt><trkpt lat="43.8475795" lon="10.9171765"><ele>224.5</ele><time>2026-04-06T10:54:43.908Z</time></trkpt><trkpt lat="43.8474594" lon="10.9171474"><ele>226.0</ele><time>2026-04-06T10:54:44.91Z</time></trkpt><trkpt lat="43.8473053" lon="10.917124"><ele>227.66666666666666</ele><time>2026-04-06T10:54:45.912Z</time></trkpt><trkpt lat="43.8471574" lon="10.917098"><ele>229.33333333333331</ele><time>2026-04-06T10:54:46.915Z</time></trkpt><trkpt lat="43.846999" lon="10.9169318"><ele>231.0</ele><time>2026-04-06T10:54:47.91Z</time></trkpt><trkpt lat="43.8468508" lon="10.9168479"><ele>229.0</ele><time>2026-04-06T10:54:48.92Z</time></trkpt><trkpt lat="43.8466999" lon="10.9167807"><ele>227.0</ele><time>2026-04-06T10:54:49.909Z</time></trkpt><trkpt lat="43.846564" lon="10.9167522"><ele>225.0</ele><time>2026-04-06T10:54:50.91Z</time></trkpt><trkpt lat="43.8464405" lon="10.9166507"><ele>223.0</ele><time>2026-04-06T10:54:51.913Z</time></trkpt><trkpt lat="43.8463213" lon="10.916577"><ele>230.5</ele><time>2026-04-06T10:54:52.909Z</time></trkpt><trkpt lat="43.846187" lon="10.9164809"><ele>238.0</ele><time>2026-04-06T10:54:53.913Z</time></trkpt><trkpt lat="43.8461197" lon="10.9163478"><ele>245.5</ele><time>2026-04-06T10:54:54.912Z</time></trkpt><trkpt lat="43.8460525" lon="10.9161578"><ele>253.0</ele><time>2026-04-06T10:54:55.909Z</time></trkpt><trkpt lat="43.8459754" lon="10.9159607"><ele>254.0</ele><time>2026-04-06T10:54:56.912Z</time></trkpt><trkpt lat="43.8459104" lon="10.9157141"><ele>255.0</ele><time>2026-04-06T10:54:57.907Z</time></trkpt><trkpt lat="43.8458606" lon="10.9154105"><ele>256.0</ele><time>2026-04-06T10:54:58.911Z</time></trkpt><trkpt lat="43.8458481" lon="10.9151274"><ele>260.66666666666663</ele><time>2026-04-06T10:54:59.907Z</time></trkpt><trkpt lat="43.8458188" lon="10.914876"><ele>265.3333333333333</ele><time>2026-04-06T10:55:00.909Z</time></trkpt><trkpt lat="43.8457865" lon="10.9146527"><ele>270.0</ele><time>2026-04-06T10:55:01.911Z</time></trkpt><trkpt lat="43.8457444" lon="10.9144721"><ele>270.0</ele><time>2026-04-06T10:55:02.912Z</time></trkpt><trkpt lat="43.8456993" lon="10.9143351"><ele>270.0</ele><time>2026-04-06T10:55:03.912Z</time></trkpt><trkpt lat="43.8456765" lon="10.9142162"><ele>270.0</ele><time>2026-04-06T10:55:04.912Z</time></trkpt><trkpt lat="43.8456355" lon="10.914133"><ele>270.0</ele><time>2026-04-06T10:55:05.913Z</time></trkpt><trkpt lat="43.8455697" lon="10.914066"><ele>270.0</ele><time>2026-04-06T10:55:06.911Z</time></trkpt><trkpt lat="43.8455001" lon="10.9140934"><ele>270.0</ele><time>2026-04-06T10:55:08.909Z</time></trkpt><trkpt lat="43.8454576" lon="10.9141711"><ele>270.0</ele><time>2026-04-06T10:55:09.91Z</time></trkpt><trkpt lat="43.8453579" lon="10.914326"><ele>270.0</ele><time>2026-04-06T10:55:10.912Z</time></trkpt><trkpt lat="43.8452585" lon="10.9144975"><ele>270.0</ele><time>2026-04-06T10:55:11.916Z</time></trkpt><trkpt lat="43.8450187" lon="10.9148445"><ele>273.0</ele><time>2026-04-06T10:55:12.907Z</time></trkpt><trkpt lat="43.8449042" lon="10.9151126"><ele>276.0</ele><time>2026-04-06T10:55:13.913Z</time></trkpt><trkpt lat="43.8448154" lon="10.9153433"><ele>279.0</ele><time>2026-04-06T10:55:14.909Z</time></trkpt><trkpt lat="43.8447621" lon="10.9155717"><ele>279.0</ele><time>2026-04-06T10:55:15.911Z</time></trkpt><trkpt lat="43.8447796" lon="10.9157608"><ele>279.0</ele><time>2026-04-06T10:55:16.91Z</time></trkpt><trkpt lat="43.8447563" lon="10.9159029"><ele>279.0</ele><time>2026-04-06T10:55:17.911Z</time></trkpt><trkpt lat="43.8447137" lon="10.9159968"><ele>279.0</ele><time>2026-04-06T10:55:18.916Z</time></trkpt><trkpt lat="43.8446437" lon="10.9160153"><ele>279.0</ele><time>2026-04-06T10:55:19.91Z</time></trkpt><trkpt lat="43.8445777" lon="10.9160117"><ele>279.0</ele><time>2026-04-06T10:55:20.905Z</time></trkpt><trkpt lat="43.8445076" lon="10.9159939"><ele>279.0</ele><time>2026-04-06T10:55:21.909Z</time></trkpt><trkpt lat="43.844426" lon="10.9159682"><ele>279.0</ele><time>2026-04-06T10:55:22.914Z</time></trkpt><trkpt lat="43.8443318" lon="10.915901"><ele>279.0</ele><time>2026-04-06T10:55:23.911Z</time></trkpt><trkpt lat="43.8441465" lon="10.9157563"><ele>282.75</ele><time>2026-04-06T10:55:24.911Z</time></trkpt><trkpt lat="43.8440292" lon="10.9156243"><ele>286.5</ele><time>2026-04-06T10:55:25.912Z</time></trkpt><trkpt lat="43.8439301" lon="10.9155296"><ele>290.25</ele><time>2026-04-06T10:55:26.901Z</time></trkpt><trkpt lat="43.8438106" lon="10.9154434"><ele>294.0</ele><time>2026-04-06T10:55:27.905Z</time></trkpt><trkpt lat="43.8437309" lon="10.9154182"><ele>294.0</ele><time>2026-04-06T10:55:28.92Z</time></trkpt><trkpt lat="43.843656" lon="10.9154312"><ele>294.0</ele><time>2026-04-06T10:55:29.908Z</time></trkpt><trkpt lat="43.8435995" lon="10.9155282"><ele>294.0</ele><time>2026-04-06T10:55:31.91Z</time></trkpt><trkpt lat="43.8436062" lon="10.915717"><ele>294.0</ele><time>2026-04-06T10:55:32.919Z</time></trkpt><trkpt lat="43.8436571" lon="10.9159695"><ele>287.6666666666667</ele><time>2026-04-06T10:55:33.91Z</time></trkpt><trkpt lat="43.8436234" lon="10.9162136"><ele>281.33333333333337</ele><time>2026-04-06T10:55:34.907Z</time></trkpt><trkpt lat="43.8436269" lon="10.9165042"><ele>275.0</ele><time>2026-04-06T10:55:35.913Z</time></trkpt><trkpt lat="43.8436207" lon="10.916714"><ele>277.33333333333337</ele><time>2026-04-06T10:55:36.907Z</time></trkpt><trkpt lat="43.8437107" lon="10.916911"><ele>279.6666666666667</ele><time>2026-04-06T10:55:37.911Z</time></trkpt><trkpt lat="43.8438056" lon="10.9171111"><ele>282.0</ele><time>2026-04-06T10:55:38.91Z</time></trkpt><trkpt lat="43.8438723" lon="10.9173225"><ele>282.0</ele><time>2026-04-06T10:55:39.908Z</time></trkpt><trkpt lat="43.8439365" lon="10.9175238"><ele>282.0</ele><time>2026-04-06T10:55:40.908Z</time></trkpt><trkpt lat="43.8440279" lon="10.9177637"><ele>282.0</ele><time>2026-04-06T10:55:41.92Z</time></trkpt><trkpt lat="43.844103" lon="10.9179651"><ele>279.6666666666667</ele><time>2026-04-06T10:55:42.911Z</time></trkpt><trkpt lat="43.8442032" lon="10.9181696"><ele>277.33333333333337</ele><time>2026-04-06T10:55:43.912Z</time></trkpt><trkpt lat="43.8442977" lon="10.9183215"><ele>275.0</ele><time>2026-04-06T10:55:44.909Z</time></trkpt><trkpt lat="43.844377" lon="10.9184591"><ele>275.0</ele><time>2026-04-06T10:55:45.91Z</time></trkpt><trkpt lat="43.8443932" lon="10.918565"><ele>275.0</ele><time>2026-04-06T10:55:46.923Z</time></trkpt><trkpt lat="43.84442" lon="10.9186682"><ele>275.0</ele><time>2026-04-06T10:55:47.914Z</time></trkpt><trkpt lat="43.8443688" lon="10.9187426"><ele>275.0</ele><time>2026-04-06T10:55:48.916Z</time></trkpt><trkpt lat="43.8442975" lon="10.9187804"><ele>275.0</ele><time>2026-04-06T10:55:49.911Z</time></trkpt><trkpt lat="43.844227" lon="10.9188042"><ele>275.0</ele><time>2026-04-06T10:55:50.912Z</time></trkpt><trkpt lat="43.8441398" lon="10.9187941"><ele>274.33333333333337</ele><time>2026-04-06T10:55:51.909Z</time></trkpt><trkpt lat="43.8440124" lon="10.9187805"><ele>273.6666666666667</ele><time>2026-04-06T10:55:52.912Z</time></trkpt><trkpt lat="43.8438339" lon="10.9186477"><ele>273.0</ele><time>2026-04-06T10:55:53.916Z</time></trkpt><trkpt lat="43.8436804" lon="10.9184556"><ele>279.0</ele><time>2026-04-06T10:55:54.911Z</time></trkpt><trkpt lat="43.8435323" lon="10.9183371"><ele>285.0</ele><time>2026-04-06T10:55:55.912Z</time></trkpt><trkpt lat="43.8433383" lon="10.9182628"><ele>291.0</ele><time>2026-04-06T10:55:56.915Z</time></trkpt><trkpt lat="43.8431471" lon="10.9181914"><ele>292.0</ele><time>2026-04-06T10:55:57.907Z</time></trkpt><trkpt lat="43.8429558" lon="10.9181369"><ele>293.0</ele><time>2026-04-06T10:55:58.915Z</time></trkpt><trkpt lat="43.842727" lon="10.9180951"><ele>294.0</ele><time>2026-04-06T10:55:59.909Z</time></trkpt><trkpt lat="43.8425258" lon="10.9180407"><ele>297.6666666666667</ele><time>2026-04-06T10:56:00.918Z</time></trkpt><trkpt lat="43.8423381" lon="10.9180103"><ele>301.33333333333337</ele><time>2026-04-06T10:56:01.905Z</time></trkpt><trkpt lat="43.8421685" lon="10.91795"><ele>305.0</ele><time>2026-04-06T10:56:02.905Z</time></trkpt><trkpt lat="43.842007" lon="10.9179239"><ele>305.0</ele><time>2026-04-06T10:56:03.915Z</time></trkpt><trkpt lat="43.8418776" lon="10.9179804"><ele>305.0</ele><time>2026-04-06T10:56:04.909Z</time></trkpt><trkpt lat="43.8418235" lon="10.9180597"><ele>305.0</ele><time>2026-04-06T10:56:06.908Z</time></trkpt><trkpt lat="43.8418233" lon="10.9182243"><ele>305.0</ele><time>2026-04-06T10:56:07.908Z</time></trkpt><trkpt lat="43.8418922" lon="10.9183621"><ele>304.75</ele><time>2026-04-06T10:56:08.908Z</time></trkpt><trkpt lat="43.8419243" lon="10.9184984"><ele>304.5</ele><time>2026-04-06T10:56:09.908Z</time></trkpt><trkpt lat="43.8419617" lon="10.9186718"><ele>304.25</ele><time>2026-04-06T10:56:10.909Z</time></trkpt><trkpt lat="43.8420139" lon="10.9188583"><ele>304.0</ele><time>2026-04-06T10:56:11.913Z</time></trkpt><trkpt lat="43.8420697" lon="10.919018"><ele>304.0</ele><time>2026-04-06T10:56:12.909Z</time></trkpt><trkpt lat="43.8421779" lon="10.9191969"><ele>304.0</ele><time>2026-04-06T10:56:13.919Z</time></trkpt><trkpt lat="43.842292" lon="10.9193687"><ele>304.0</ele><time>2026-04-06T10:56:14.908Z</time></trkpt><trkpt lat="43.8423819" lon="10.9195385"><ele>305.2</ele><time>2026-04-06T10:56:15.91Z</time></trkpt><trkpt lat="43.8424953" lon="10.9196605"><ele>306.4</ele><time>2026-04-06T10:56:16.914Z</time></trkpt><trkpt lat="43.8425714" lon="10.9197543"><ele>307.6</ele><time>2026-04-06T10:56:17.909Z</time></trkpt><trkpt lat="43.8425912" lon="10.9198605"><ele>308.8</ele><time>2026-04-06T10:56:18.917Z</time></trkpt><trkpt lat="43.8426173" lon="10.919963"><ele>310.0</ele><time>2026-04-06T10:56:19.909Z</time></trkpt><trkpt lat="43.8426156" lon="10.9200859"><ele>310.0</ele><time>2026-04-06T10:56:21.911Z</time></trkpt><trkpt lat="43.8425188" lon="10.9200456"><ele>310.0</ele><time>2026-04-06T10:56:22.917Z</time></trkpt><trkpt lat="43.8422693" lon="10.9198945"><ele>310.0</ele><time>2026-04-06T10:56:24.911Z</time></trkpt><trkpt lat="43.8421541" lon="10.9197828"><ele>310.0</ele><time>2026-04-06T10:56:25.907Z</time></trkpt><trkpt lat="43.8420115" lon="10.9196488"><ele>310.0</ele><time>2026-04-06T10:56:26.906Z</time></trkpt><trkpt lat="43.8418542" lon="10.9195281"><ele>310.0</ele><time>2026-04-06T10:56:27.915Z</time></trkpt><trkpt lat="43.8416971" lon="10.9194116"><ele>310.0</ele><time>2026-04-06T10:56:28.913Z</time></trkpt><trkpt lat="43.8415265" lon="10.9193022"><ele>310.0</ele><time>2026-04-06T10:56:29.914Z</time></trkpt><trkpt lat="43.8413587" lon="10.9191917"><ele>310.0</ele><time>2026-04-06T10:56:30.905Z</time></trkpt><trkpt lat="43.8411945" lon="10.9190941"><ele>315.3333333333333</ele><time>2026-04-06T10:56:31.91Z</time></trkpt><trkpt lat="43.8410337" lon="10.9190451"><ele>320.6666666666667</ele><time>2026-04-06T10:56:32.919Z</time></trkpt><trkpt lat="43.8408663" lon="10.9189994"><ele>326.0</ele><time>2026-04-06T10:56:33.903Z</time></trkpt><trkpt lat="43.8406915" lon="10.918947"><ele>326.0</ele><time>2026-04-06T10:56:34.903Z</time></trkpt><trkpt lat="43.8405467" lon="10.9188975"><ele>326.0</ele><time>2026-04-06T10:56:35.906Z</time></trkpt><trkpt lat="43.8404088" lon="10.9188348"><ele>326.0</ele><time>2026-04-06T10:56:36.907Z</time></trkpt><trkpt lat="43.8403024" lon="10.9187691"><ele>326.0</ele><time>2026-04-06T10:56:37.904Z</time></trkpt><trkpt lat="43.8401956" lon="10.9187003"><ele>327.0</ele><time>2026-04-06T10:56:38.907Z</time></trkpt><trkpt lat="43.8401112" lon="10.9186733"><ele>328.0</ele><time>2026-04-06T10:56:39.91Z</time></trkpt><trkpt lat="43.8400352" lon="10.9186692"><ele>329.0</ele><time>2026-04-06T10:56:40.914Z</time></trkpt><trkpt lat="43.8399649" lon="10.9186887"><ele>330.0</ele><time>2026-04-06T10:56:41.911Z</time></trkpt><trkpt lat="43.839884" lon="10.91876"><ele>331.0</ele><time>2026-04-06T10:56:42.909Z</time></trkpt><trkpt lat="43.8398058" lon="10.9189139"><ele>331.0</ele><time>2026-04-06T10:56:44.906Z</time></trkpt><trkpt lat="43.8397663" lon="10.9190258"><ele>331.0</ele><time>2026-04-06T10:56:45.911Z</time></trkpt><trkpt lat="43.8397119" lon="10.9191467"><ele>331.0</ele><time>2026-04-06T10:56:46.909Z</time></trkpt><trkpt lat="43.8396604" lon="10.9192536"><ele>331.0</ele><time>2026-04-06T10:56:47.92Z</time></trkpt><trkpt lat="43.8396078" lon="10.9193592"><ele>331.0</ele><time>2026-04-06T10:56:48.919Z</time></trkpt><trkpt lat="43.8395325" lon="10.9194404"><ele>331.57142857142856</ele><time>2026-04-06T10:56:49.915Z</time></trkpt><trkpt lat="43.8394611" lon="10.9194675"><ele>332.1428571428571</ele><time>2026-04-06T10:56:50.917Z</time></trkpt><trkpt lat="43.8393967" lon="10.9195176"><ele>332.71428571428567</ele><time>2026-04-06T10:56:51.908Z</time></trkpt><trkpt lat="43.8393264" lon="10.9195472"><ele>333.2857142857143</ele><time>2026-04-06T10:56:52.91Z</time></trkpt><trkpt lat="43.8392603" lon="10.9195585"><ele>333.85714285714283</ele><time>2026-04-06T10:56:53.917Z</time></trkpt><trkpt lat="43.8391841" lon="10.9195773"><ele>334.4285714285714</ele><time>2026-04-06T10:56:54.906Z</time></trkpt><trkpt lat="43.8391092" lon="10.9195899"><ele>335.0</ele><time>2026-04-06T10:56:55.919Z</time></trkpt><trkpt lat="43.8389637" lon="10.9195965"><ele>340.0</ele><time>2026-04-06T10:56:57.911Z</time></trkpt><trkpt lat="43.8388326" lon="10.9195702"><ele>345.0</ele><time>2026-04-06T10:56:58.934Z</time></trkpt><trkpt lat="43.8387294" lon="10.9195606"><ele>350.0</ele><time>2026-04-06T10:56:59.913Z</time></trkpt><trkpt lat="43.8385802" lon="10.9195348"><ele>355.0</ele><time>2026-04-06T10:57:00.909Z</time></trkpt><trkpt lat="43.8384164" lon="10.9194891"><ele>357.75</ele><time>2026-04-06T10:57:01.902Z</time></trkpt><trkpt lat="43.8383102" lon="10.9194827"><ele>360.5</ele><time>2026-04-06T10:57:02.909Z</time></trkpt><trkpt lat="43.8381546" lon="10.919481"><ele>363.25</ele><time>2026-04-06T10:57:03.915Z</time></trkpt><trkpt lat="43.8381176" lon="10.9193788"><ele>366.0</ele><time>2026-04-06T10:57:04.907Z</time></trkpt><trkpt lat="43.8379722" lon="10.9193068"><ele>366.0</ele><time>2026-04-06T10:57:06.918Z</time></trkpt><trkpt lat="43.8378615" lon="10.9192652"><ele>366.0</ele><time>2026-04-06T10:57:07.913Z</time></trkpt><trkpt lat="43.837821" lon="10.9190925"><ele>366.0</ele><time>2026-04-06T10:57:09.909Z</time></trkpt><trkpt lat="43.837724" lon="10.9190581"><ele>366.0</ele><time>2026-04-06T10:57:10.91Z</time></trkpt><trkpt lat="43.8375939" lon="10.9191048"><ele>368.75</ele><time>2026-04-06T10:57:11.909Z</time></trkpt><trkpt lat="43.8374224" lon="10.9191719"><ele>371.5</ele><time>2026-04-06T10:57:12.917Z</time></trkpt><trkpt lat="43.8373449" lon="10.9191657"><ele>374.25</ele><time>2026-04-06T10:57:13.915Z</time></trkpt><trkpt lat="43.8372166" lon="10.9192065"><ele>377.0</ele><time>2026-04-06T10:57:14.911Z</time></trkpt><trkpt lat="43.8371539" lon="10.9192376"><ele>377.0</ele><time>2026-04-06T10:57:15.909Z</time></trkpt><trkpt lat="43.8370773" lon="10.919272"><ele>377.0</ele><time>2026-04-06T10:57:16.909Z</time></trkpt><trkpt lat="43.8369696" lon="10.9193428"><ele>377.0</ele><time>2026-04-06T10:57:17.91Z</time></trkpt><trkpt lat="43.8368465" lon="10.91934"><ele>377.0</ele><time>2026-04-06T10:57:19.911Z</time></trkpt><trkpt lat="43.8367822" lon="10.919319"><ele>377.0</ele><time>2026-04-06T10:57:20.913Z</time></trkpt><trkpt lat="43.836673" lon="10.9192364"><ele>371.83333333333337</ele><time>2026-04-06T10:57:22.914Z</time></trkpt><trkpt lat="43.8366022" lon="10.9191894"><ele>366.6666666666667</ele><time>2026-04-06T10:57:23.907Z</time></trkpt><trkpt lat="43.8365346" lon="10.919143"><ele>361.5</ele><time>2026-04-06T10:57:24.907Z</time></trkpt><trkpt lat="43.8364735" lon="10.9190921"><ele>356.3333333333333</ele><time>2026-04-06T10:57:25.908Z</time></trkpt><trkpt lat="43.836378" lon="10.9190942"><ele>351.16666666666663</ele><time>2026-04-06T10:57:26.909Z</time></trkpt><trkpt lat="43.8362848" lon="10.9191025"><ele>346.0</ele><time>2026-04-06T10:57:27.904Z</time></trkpt><trkpt lat="43.8362017" lon="10.9190959"><ele>346.0</ele><time>2026-04-06T10:57:28.904Z</time></trkpt><trkpt lat="43.8361157" lon="10.9190995"><ele>346.0</ele><time>2026-04-06T10:57:29.908Z</time></trkpt><trkpt lat="43.8360366" lon="10.9190861"><ele>346.0</ele><time>2026-04-06T10:57:30.908Z</time></trkpt><trkpt lat="43.8359582" lon="10.9190313"><ele>346.0</ele><time>2026-04-06T10:57:33.913Z</time></trkpt><trkpt lat="43.8358818" lon="10.9189914"><ele>346.0</ele><time>2026-04-06T10:57:35.917Z</time></trkpt><trkpt lat="43.8358015" lon="10.9189111"><ele>346.0</ele><time>2026-04-06T10:57:37.911Z</time></trkpt><trkpt lat="43.8357369" lon="10.9188427"><ele>347.0</ele><time>2026-04-06T10:57:39.907Z</time></trkpt><trkpt lat="43.8356713" lon="10.9187672"><ele>348.0</ele><time>2026-04-06T10:57:41.909Z</time></trkpt><trkpt lat="43.8356073" lon="10.9187106"><ele>349.0</ele><time>2026-04-06T10:57:43.908Z</time></trkpt><trkpt lat="43.835563" lon="10.9186356"><ele>350.0</ele><time>2026-04-06T10:57:49.908Z</time></trkpt><trkpt lat="43.8354982" lon="10.918597"><ele>351.0</ele><time>2026-04-06T10:58:01.911Z</time></trkpt><trkpt lat="43.8354254" lon="10.9186122"><ele>352.0</ele><time>2026-04-06T10:58:11.909Z</time></trkpt><trkpt lat="43.8353818" lon="10.9186846"><ele>353.0</ele><time>2026-04-06T10:58:17.916Z</time></trkpt><trkpt lat="43.8353728" lon="10.9187757"><ele>353.0</ele><time>2026-04-06T10:58:29.91Z</time></trkpt><trkpt lat="43.8352109" lon="10.9188312"><ele>353.0</ele><time>2026-04-06T10:59:04.91Z</time></trkpt><trkpt lat="43.8351131" lon="10.9188796"><ele>353.0</ele><time>2026-04-06T10:59:05.908Z</time></trkpt><trkpt lat="43.8350197" lon="10.9189476"><ele>353.0</ele><time>2026-04-06T10:59:06.904Z</time></trkpt><trkpt lat="43.8349348" lon="10.9189939"><ele>352.59999999999997</ele><time>2026-04-06T10:59:07.909Z</time></trkpt><trkpt lat="43.8348522" lon="10.9190604"><ele>352.2</ele><time>2026-04-06T10:59:08.912Z</time></trkpt><trkpt lat="43.8347813" lon="10.9191348"><ele>351.8</ele><time>2026-04-06T10:59:09.911Z</time></trkpt><trkpt lat="43.8346898" lon="10.9192034"><ele>351.4</ele><time>2026-04-06T10:59:10.91Z</time></trkpt><trkpt lat="43.8345993" lon="10.9192875"><ele>351.0</ele><time>2026-04-06T10:59:11.914Z</time></trkpt><trkpt lat="43.8345478" lon="10.9193804"><ele>353.8</ele><time>2026-04-06T10:59:12.911Z</time></trkpt><trkpt lat="43.834499" lon="10.9195245"><ele>356.6</ele><time>2026-04-06T10:59:13.918Z</time></trkpt><trkpt lat="43.834447" lon="10.919657"><ele>359.4</ele><time>2026-04-06T10:59:14.914Z</time></trkpt><trkpt lat="43.8344347" lon="10.9197909"><ele>362.2</ele><time>2026-04-06T10:59:15.909Z</time></trkpt><trkpt lat="43.8344287" lon="10.9199338"><ele>365.0</ele><time>2026-04-06T10:59:16.908Z</time></trkpt><trkpt lat="43.8344175" lon="10.9200545"><ele>363.5</ele><time>2026-04-06T10:59:17.915Z</time></trkpt><trkpt lat="43.8344457" lon="10.9201724"><ele>362.0</ele><time>2026-04-06T10:59:18.91Z</time></trkpt><trkpt lat="43.834492" lon="10.9203106"><ele>360.5</ele><time>2026-04-06T10:59:19.911Z</time></trkpt><trkpt lat="43.834572" lon="10.920467"><ele>359.0</ele><time>2026-04-06T10:59:20.909Z</time></trkpt><trkpt lat="43.8346541" lon="10.9206203"><ele>359.0</ele><time>2026-04-06T10:59:21.91Z</time></trkpt><trkpt lat="43.8346975" lon="10.9207746"><ele>359.0</ele><time>2026-04-06T10:59:22.907Z</time></trkpt><trkpt lat="43.834783" lon="10.9209211"><ele>359.0</ele><time>2026-04-06T10:59:23.908Z</time></trkpt><trkpt lat="43.8348646" lon="10.9210947"><ele>359.0</ele><time>2026-04-06T10:59:24.908Z</time></trkpt><trkpt lat="43.8349395" lon="10.9212612"><ele>359.5</ele><time>2026-04-06T10:59:25.912Z</time></trkpt><trkpt lat="43.8350286" lon="10.921426"><ele>360.0</ele><time>2026-04-06T10:59:26.91Z</time></trkpt><trkpt lat="43.8351232" lon="10.9216053"><ele>360.5</ele><time>2026-04-06T10:59:27.912Z</time></trkpt><trkpt lat="43.8351998" lon="10.9217638"><ele>361.0</ele><time>2026-04-06T10:59:28.909Z</time></trkpt><trkpt lat="43.8352685" lon="10.9219253"><ele>361.0</ele><time>2026-04-06T10:59:29.912Z</time></trkpt><trkpt lat="43.8353337" lon="10.9220845"><ele>361.0</ele><time>2026-04-06T10:59:30.909Z</time></trkpt><trkpt lat="43.8353945" lon="10.922254"><ele>361.0</ele><time>2026-04-06T10:59:31.913Z</time></trkpt><trkpt lat="43.835443" lon="10.9224402"><ele>361.0</ele><time>2026-04-06T10:59:32.913Z</time></trkpt><trkpt lat="43.835473" lon="10.9226261"><ele>359.25</ele><time>2026-04-06T10:59:33.908Z</time></trkpt><trkpt lat="43.835485" lon="10.9227978"><ele>357.5</ele><time>2026-04-06T10:59:34.914Z</time></trkpt><trkpt lat="43.8355203" lon="10.9229675"><ele>355.75</ele><time>2026-04-06T10:59:35.91Z</time></trkpt><trkpt lat="43.8355709" lon="10.9230973"><ele>354.0</ele><time>2026-04-06T10:59:36.911Z</time></trkpt><trkpt lat="43.8356605" lon="10.923218"><ele>354.0</ele><time>2026-04-06T10:59:37.914Z</time></trkpt><trkpt lat="43.8357751" lon="10.9233319"><ele>354.0</ele><time>2026-04-06T10:59:38.909Z</time></trkpt><trkpt lat="43.8359003" lon="10.9234298"><ele>354.0</ele><time>2026-04-06T10:59:39.91Z</time></trkpt><trkpt lat="43.8360479" lon="10.9235264"><ele>354.0</ele><time>2026-04-06T10:59:40.909Z</time></trkpt><trkpt lat="43.8362386" lon="10.9236114"><ele>354.3333333333333</ele><time>2026-04-06T10:59:41.908Z</time></trkpt><trkpt lat="43.8364026" lon="10.9236796"><ele>354.66666666666663</ele><time>2026-04-06T10:59:42.91Z</time></trkpt><trkpt lat="43.8365293" lon="10.9237586"><ele>355.0</ele><time>2026-04-06T10:59:43.91Z</time></trkpt><trkpt lat="43.836666" lon="10.9238436"><ele>355.0</ele><time>2026-04-06T10:59:44.911Z</time></trkpt><trkpt lat="43.836769" lon="10.923939"><ele>355.0</ele><time>2026-04-06T10:59:45.909Z</time></trkpt><trkpt lat="43.836805" lon="10.924017"><ele>355.0</ele><time>2026-04-06T10:59:46.907Z</time></trkpt><trkpt lat="43.836787" lon="10.9241699"><ele>355.0</ele><time>2026-04-06T10:59:47.91Z</time></trkpt><trkpt lat="43.8368122" lon="10.9243318"><ele>355.0</ele><time>2026-04-06T10:59:48.906Z</time></trkpt><trkpt lat="43.8368325" lon="10.9245161"><ele>356.75</ele><time>2026-04-06T10:59:49.909Z</time></trkpt><trkpt lat="43.8368062" lon="10.9247116"><ele>358.5</ele><time>2026-04-06T10:59:50.913Z</time></trkpt><trkpt lat="43.8368137" lon="10.9248873"><ele>360.25</ele><time>2026-04-06T10:59:51.926Z</time></trkpt><trkpt lat="43.8368198" lon="10.9250534"><ele>362.0</ele><time>2026-04-06T10:59:52.911Z</time></trkpt><trkpt lat="43.8368626" lon="10.9252077"><ele>362.0</ele><time>2026-04-06T10:59:53.915Z</time></trkpt><trkpt lat="43.8368865" lon="10.9253761"><ele>362.0</ele><time>2026-04-06T10:59:54.922Z</time></trkpt><trkpt lat="43.83697" lon="10.9255247"><ele>362.0</ele><time>2026-04-06T10:59:55.912Z</time></trkpt><trkpt lat="43.8370289" lon="10.925679"><ele>362.0</ele><time>2026-04-06T10:59:56.91Z</time></trkpt><trkpt lat="43.8371073" lon="10.9258153"><ele>364.6</ele><time>2026-04-06T10:59:57.908Z</time></trkpt><trkpt lat="43.8371572" lon="10.9259455"><ele>367.20000000000005</ele><time>2026-04-06T10:59:58.914Z</time></trkpt><trkpt lat="43.8372027" lon="10.9260898"><ele>369.8</ele><time>2026-04-06T10:59:59.909Z</time></trkpt><trkpt lat="43.8371923" lon="10.9262398"><ele>372.4</ele><time>2026-04-06T11:00:00.909Z</time></trkpt><trkpt lat="43.8371557" lon="10.9263768"><ele>375.0</ele><time>2026-04-06T11:00:01.907Z</time></trkpt><trkpt lat="43.8370933" lon="10.9264965"><ele>375.0</ele><time>2026-04-06T11:00:02.911Z</time></trkpt><trkpt lat="43.837031" lon="10.9266055"><ele>375.0</ele><time>2026-04-06T11:00:03.913Z</time></trkpt><trkpt lat="43.8369514" lon="10.9267531"><ele>375.0</ele><time>2026-04-06T11:00:04.909Z</time></trkpt><trkpt lat="43.8368281" lon="10.9268898"><ele>375.0</ele><time>2026-04-06T11:00:05.914Z</time></trkpt><trkpt lat="43.8366752" lon="10.9269807"><ele>375.0</ele><time>2026-04-06T11:00:06.914Z</time></trkpt><trkpt lat="43.8365729" lon="10.9270848"><ele>375.0</ele><time>2026-04-06T11:00:07.909Z</time></trkpt><trkpt lat="43.836467" lon="10.9271855"><ele>375.0</ele><time>2026-04-06T11:00:08.91Z</time></trkpt><trkpt lat="43.8363747" lon="10.9272764"><ele>375.0</ele><time>2026-04-06T11:00:09.911Z</time></trkpt><trkpt lat="43.8363023" lon="10.9273678"><ele>375.0</ele><time>2026-04-06T11:00:10.909Z</time></trkpt><trkpt lat="43.8361999" lon="10.9273649"><ele>375.0</ele><time>2026-04-06T11:00:12.911Z</time></trkpt><trkpt lat="43.836112" lon="10.9273455"><ele>375.0</ele><time>2026-04-06T11:00:13.913Z</time></trkpt><trkpt lat="43.8360221" lon="10.9272508"><ele>375.0</ele><time>2026-04-06T11:00:14.916Z</time></trkpt><trkpt lat="43.835968" lon="10.9271559"><ele>375.0</ele><time>2026-04-06T11:00:15.917Z</time></trkpt><trkpt lat="43.8358766" lon="10.927018"><ele>375.0</ele><time>2026-04-06T11:00:16.907Z</time></trkpt><trkpt lat="43.8357823" lon="10.9268731"><ele>375.0</ele><time>2026-04-06T11:00:17.914Z</time></trkpt><trkpt lat="43.8356981" lon="10.9267106"><ele>375.0</ele><time>2026-04-06T11:00:18.908Z</time></trkpt><trkpt lat="43.8356029" lon="10.9266234"><ele>375.0</ele><time>2026-04-06T11:00:19.911Z</time></trkpt><trkpt lat="43.8354803" lon="10.9265286"><ele>368.3333333333333</ele><time>2026-04-06T11:00:20.908Z</time></trkpt><trkpt lat="43.8353811" lon="10.9264474"><ele>361.66666666666663</ele><time>2026-04-06T11:00:21.903Z</time></trkpt><trkpt lat="43.8351717" lon="10.926489"><ele>355.0</ele><time>2026-04-06T11:00:22.911Z</time></trkpt><trkpt lat="43.8350135" lon="10.926447"><ele>355.0</ele><time>2026-04-06T11:00:23.909Z</time></trkpt><trkpt lat="43.8348464" lon="10.9264441"><ele>355.0</ele><time>2026-04-06T11:00:24.91Z</time></trkpt><trkpt lat="43.8346364" lon="10.9264959"><ele>355.0</ele><time>2026-04-06T11:00:25.916Z</time></trkpt><trkpt lat="43.8344797" lon="10.9265001"><ele>355.0</ele><time>2026-04-06T11:00:26.915Z</time></trkpt><trkpt lat="43.834343" lon="10.9265"><ele>355.0</ele><time>2026-04-06T11:00:27.907Z</time></trkpt><trkpt lat="43.8342156" lon="10.926501"><ele>355.0</ele><time>2026-04-06T11:00:28.907Z</time></trkpt><trkpt lat="43.834135" lon="10.9265112"><ele>355.0</ele><time>2026-04-06T11:00:29.909Z</time></trkpt><trkpt lat="43.8340712" lon="10.9266607"><ele>353.2</ele><time>2026-04-06T11:00:31.909Z</time></trkpt><trkpt lat="43.8340874" lon="10.9267783"><ele>351.4</ele><time>2026-04-06T11:00:32.911Z</time></trkpt><trkpt lat="43.8340981" lon="10.9268711"><ele>349.6</ele><time>2026-04-06T11:00:33.918Z</time></trkpt><trkpt lat="43.8341436" lon="10.9270151"><ele>347.8</ele><time>2026-04-06T11:00:34.909Z</time></trkpt><trkpt lat="43.8341742" lon="10.927159"><ele>346.0</ele><time>2026-04-06T11:00:35.908Z</time></trkpt><trkpt lat="43.8342352" lon="10.9272954"><ele>346.0</ele><time>2026-04-06T11:00:36.906Z</time></trkpt><trkpt lat="43.8342716" lon="10.9274505"><ele>346.0</ele><time>2026-04-06T11:00:37.909Z</time></trkpt><trkpt lat="43.8343003" lon="10.9276298"><ele>346.0</ele><time>2026-04-06T11:00:38.911Z</time></trkpt><trkpt lat="43.8343048" lon="10.9278292"><ele>346.0</ele><time>2026-04-06T11:00:39.911Z</time></trkpt><trkpt lat="43.8342889" lon="10.9280201"><ele>345.5</ele><time>2026-04-06T11:00:40.911Z</time></trkpt><trkpt lat="43.8342677" lon="10.928224"><ele>345.0</ele><time>2026-04-06T11:00:41.909Z</time></trkpt><trkpt lat="43.8342657" lon="10.9284247"><ele>344.5</ele><time>2026-04-06T11:00:42.92Z</time></trkpt><trkpt lat="43.8342468" lon="10.9285807"><ele>344.0</ele><time>2026-04-06T11:00:43.909Z</time></trkpt><trkpt lat="43.8343156" lon="10.9287727"><ele>353.0</ele><time>2026-04-06T11:00:44.907Z</time></trkpt><trkpt lat="43.8343213" lon="10.9289628"><ele>362.0</ele><time>2026-04-06T11:00:45.909Z</time></trkpt><trkpt lat="43.8343349" lon="10.929125"><ele>371.0</ele><time>2026-04-06T11:00:46.909Z</time></trkpt><trkpt lat="43.8343408" lon="10.9293089"><ele>380.0</ele><time>2026-04-06T11:00:47.908Z</time></trkpt><trkpt lat="43.8343298" lon="10.9294374"><ele>377.0</ele><time>2026-04-06T11:00:48.909Z</time></trkpt><trkpt lat="43.8342935" lon="10.9295553"><ele>374.0</ele><time>2026-04-06T11:00:49.909Z</time></trkpt><trkpt lat="43.8341596" lon="10.9295612"><ele>371.0</ele><time>2026-04-06T11:00:50.91Z</time></trkpt><trkpt lat="43.8340403" lon="10.9295675"><ele>368.0</ele><time>2026-04-06T11:00:51.911Z</time></trkpt><trkpt lat="43.833935" lon="10.9295874"><ele>368.0</ele><time>2026-04-06T11:00:52.912Z</time></trkpt><trkpt lat="43.833852" lon="10.9296243"><ele>368.0</ele><time>2026-04-06T11:00:53.911Z</time></trkpt><trkpt lat="43.8337736" lon="10.9296749"><ele>368.0</ele><time>2026-04-06T11:00:54.91Z</time></trkpt><trkpt lat="43.8337153" lon="10.9297845"><ele>368.0</ele><time>2026-04-06T11:00:55.908Z</time></trkpt><trkpt lat="43.8336758" lon="10.929978"><ele>368.0</ele><time>2026-04-06T11:00:56.918Z</time></trkpt><trkpt lat="43.8336296" lon="10.9300968"><ele>368.1666666666667</ele><time>2026-04-06T11:00:57.909Z</time></trkpt><trkpt lat="43.8335798" lon="10.9301888"><ele>368.33333333333337</ele><time>2026-04-06T11:00:58.917Z</time></trkpt><trkpt lat="43.8335161" lon="10.9302611"><ele>368.5</ele><time>2026-04-06T11:01:00.907Z</time></trkpt><trkpt lat="43.8334309" lon="10.9302226"><ele>368.6666666666667</ele><time>2026-04-06T11:01:01.911Z</time></trkpt><trkpt lat="43.8333615" lon="10.9301882"><ele>368.8333333333333</ele><time>2026-04-06T11:01:02.912Z</time></trkpt><trkpt lat="43.8333436" lon="10.9301027"><ele>369.0</ele><time>2026-04-06T11:01:03.912Z</time></trkpt><trkpt lat="43.8333065" lon="10.9299864"><ele>366.25</ele><time>2026-04-06T11:01:05.907Z</time></trkpt><trkpt lat="43.8331894" lon="10.929843"><ele>363.5</ele><time>2026-04-06T11:01:06.911Z</time></trkpt><trkpt lat="43.8330269" lon="10.92966"><ele>360.75</ele><time>2026-04-06T11:01:08.907Z</time></trkpt><trkpt lat="43.8329672" lon="10.9295829"><ele>358.0</ele><time>2026-04-06T11:01:09.911Z</time></trkpt><trkpt lat="43.8329053" lon="10.9295395"><ele>358.0</ele><time>2026-04-06T11:01:10.913Z</time></trkpt><trkpt lat="43.8328438" lon="10.9294856"><ele>358.0</ele><time>2026-04-06T11:01:11.908Z</time></trkpt><trkpt lat="43.8327123" lon="10.9293653"><ele>358.0</ele><time>2026-04-06T11:01:12.907Z</time></trkpt><trkpt lat="43.8325839" lon="10.9291261"><ele>358.0</ele><time>2026-04-06T11:01:13.907Z</time></trkpt><trkpt lat="43.8323764" lon="10.9290086"><ele>360.3333333333333</ele><time>2026-04-06T11:01:14.909Z</time></trkpt><trkpt lat="43.8322283" lon="10.928875"><ele>362.6666666666667</ele><time>2026-04-06T11:01:15.908Z</time></trkpt><trkpt lat="43.8320876" lon="10.9287301"><ele>365.0</ele><time>2026-04-06T11:01:16.914Z</time></trkpt><trkpt lat="43.8320324" lon="10.9285517"><ele>356.6666666666667</ele><time>2026-04-06T11:01:17.911Z</time></trkpt><trkpt lat="43.8319654" lon="10.9283304"><ele>348.3333333333333</ele><time>2026-04-06T11:01:18.907Z</time></trkpt><trkpt lat="43.8318956" lon="10.9281388"><ele>340.0</ele><time>2026-04-06T11:01:19.905Z</time></trkpt><trkpt lat="43.8318276" lon="10.9279344"><ele>340.0</ele><time>2026-04-06T11:01:20.91Z</time></trkpt><trkpt lat="43.8317566" lon="10.9277504"><ele>340.0</ele><time>2026-04-06T11:01:21.91Z</time></trkpt><trkpt lat="43.8316689" lon="10.9275441"><ele>340.0</ele><time>2026-04-06T11:01:22.908Z</time></trkpt><trkpt lat="43.8315857" lon="10.9273895"><ele>340.0</ele><time>2026-04-06T11:01:23.912Z</time></trkpt><trkpt lat="43.8314572" lon="10.9272861"><ele>340.0</ele><time>2026-04-06T11:01:24.907Z</time></trkpt><trkpt lat="43.831362" lon="10.9271663"><ele>340.0</ele><time>2026-04-06T11:01:25.912Z</time></trkpt><trkpt lat="43.831192" lon="10.9270616"><ele>340.0</ele><time>2026-04-06T11:01:26.914Z</time></trkpt><trkpt lat="43.831038" lon="10.9270529"><ele>340.0</ele><time>2026-04-06T11:01:27.91Z</time></trkpt><trkpt lat="43.8308783" lon="10.9269637"><ele>340.0</ele><time>2026-04-06T11:01:28.907Z</time></trkpt><trkpt lat="43.8307467" lon="10.9268318"><ele>336.0</ele><time>2026-04-06T11:01:29.913Z</time></trkpt><trkpt lat="43.8306105" lon="10.9266785"><ele>332.0</ele><time>2026-04-06T11:01:30.914Z</time></trkpt><trkpt lat="43.8304712" lon="10.9265012"><ele>328.0</ele><time>2026-04-06T11:01:31.909Z</time></trkpt><trkpt lat="43.8303279" lon="10.9263064"><ele>328.0</ele><time>2026-04-06T11:01:32.911Z</time></trkpt><trkpt lat="43.8302141" lon="10.9261165"><ele>328.0</ele><time>2026-04-06T11:01:33.912Z</time></trkpt><trkpt lat="43.8301239" lon="10.9259425"><ele>328.0</ele><time>2026-04-06T11:01:34.915Z</time></trkpt><trkpt lat="43.8300708" lon="10.925839"><ele>328.0</ele><time>2026-04-06T11:01:35.909Z</time></trkpt><trkpt lat="43.8299429" lon="10.9256781"><ele>327.0</ele><time>2026-04-06T11:01:36.908Z</time></trkpt><trkpt lat="43.8298791" lon="10.9256354"><ele>326.0</ele><time>2026-04-06T11:01:37.912Z</time></trkpt><trkpt lat="43.8297877" lon="10.9254841"><ele>325.0</ele><time>2026-04-06T11:01:38.916Z</time></trkpt><trkpt lat="43.8296918" lon="10.9253931"><ele>324.0</ele><time>2026-04-06T11:01:39.916Z</time></trkpt><trkpt lat="43.8295826" lon="10.9253685"><ele>323.0</ele><time>2026-04-06T11:01:40.913Z</time></trkpt><trkpt lat="43.8294297" lon="10.9252684"><ele>320.6666666666667</ele><time>2026-04-06T11:01:41.912Z</time></trkpt><trkpt lat="43.8292833" lon="10.9251537"><ele>318.3333333333333</ele><time>2026-04-06T11:01:42.908Z</time></trkpt><trkpt lat="43.8291117" lon="10.9250273"><ele>316.0</ele><time>2026-04-06T11:01:43.912Z</time></trkpt><trkpt lat="43.8289576" lon="10.9249095"><ele>316.0</ele><time>2026-04-06T11:01:44.908Z</time></trkpt><trkpt lat="43.8288359" lon="10.9247934"><ele>316.0</ele><time>2026-04-06T11:01:45.91Z</time></trkpt><trkpt lat="43.8286576" lon="10.9247171"><ele>316.0</ele><time>2026-04-06T11:01:46.908Z</time></trkpt><trkpt lat="43.8285336" lon="10.9245715"><ele>313.0</ele><time>2026-04-06T11:01:47.914Z</time></trkpt><trkpt lat="43.8283874" lon="10.924413"><ele>310.0</ele><time>2026-04-06T11:01:48.915Z</time></trkpt><trkpt lat="43.8283256" lon="10.9242586"><ele>307.0</ele><time>2026-04-06T11:01:49.911Z</time></trkpt><trkpt lat="43.8282207" lon="10.9241178"><ele>307.0</ele><time>2026-04-06T11:01:50.91Z</time></trkpt><trkpt lat="43.8281187" lon="10.9239777"><ele>307.0</ele><time>2026-04-06T11:01:51.911Z</time></trkpt><trkpt lat="43.8280441" lon="10.9238527"><ele>307.0</ele><time>2026-04-06T11:01:52.91Z</time></trkpt><trkpt lat="43.8279166" lon="10.9237221"><ele>307.0</ele><time>2026-04-06T11:01:53.91Z</time></trkpt><trkpt lat="43.8278025" lon="10.9236704"><ele>307.0</ele><time>2026-04-06T11:01:54.908Z</time></trkpt><trkpt lat="43.827697" lon="10.9236201"><ele>307.0</ele><time>2026-04-06T11:01:55.91Z</time></trkpt><trkpt lat="43.8276041" lon="10.9236345"><ele>307.0</ele><time>2026-04-06T11:01:56.91Z</time></trkpt><trkpt lat="43.827519" lon="10.9237105"><ele>307.0</ele><time>2026-04-06T11:01:57.91Z</time></trkpt><trkpt lat="43.8274439" lon="10.9237618"><ele>307.0</ele><time>2026-04-06T11:01:58.908Z</time></trkpt><trkpt lat="43.8274623" lon="10.9239536"><ele>307.75</ele><time>2026-04-06T11:01:59.912Z</time></trkpt><trkpt lat="43.8274395" lon="10.9240796"><ele>308.5</ele><time>2026-04-06T11:02:00.914Z</time></trkpt><trkpt lat="43.8275099" lon="10.9243161"><ele>309.25</ele><time>2026-04-06T11:02:01.911Z</time></trkpt><trkpt lat="43.8275283" lon="10.9245367"><ele>310.0</ele><time>2026-04-06T11:02:02.911Z</time></trkpt><trkpt lat="43.8275445" lon="10.9247162"><ele>310.6</ele><time>2026-04-06T11:02:03.908Z</time></trkpt><trkpt lat="43.8275602" lon="10.9248877"><ele>311.2</ele><time>2026-04-06T11:02:04.907Z</time></trkpt><trkpt lat="43.8275346" lon="10.9250355"><ele>311.8</ele><time>2026-04-06T11:02:05.914Z</time></trkpt><trkpt lat="43.8275095" lon="10.9251709"><ele>312.4</ele><time>2026-04-06T11:02:06.909Z</time></trkpt><trkpt lat="43.8274521" lon="10.9253031"><ele>313.0</ele><time>2026-04-06T11:02:07.91Z</time></trkpt><trkpt lat="43.8273408" lon="10.9253973"><ele>313.0</ele><time>2026-04-06T11:02:08.912Z</time></trkpt><trkpt lat="43.8272647" lon="10.9254768"><ele>313.0</ele><time>2026-04-06T11:02:09.911Z</time></trkpt><trkpt lat="43.8271894" lon="10.9255814"><ele>313.0</ele><time>2026-04-06T11:02:10.91Z</time></trkpt><trkpt lat="43.827163" lon="10.9256858"><ele>313.0</ele><time>2026-04-06T11:02:11.914Z</time></trkpt><trkpt lat="43.8272099" lon="10.9258202"><ele>313.0</ele><time>2026-04-06T11:02:12.912Z</time></trkpt><trkpt lat="43.8272614" lon="10.9259069"><ele>310.75</ele><time>2026-04-06T11:02:13.916Z</time></trkpt><trkpt lat="43.8273714" lon="10.9259915"><ele>308.5</ele><time>2026-04-06T11:02:14.909Z</time></trkpt><trkpt lat="43.8274691" lon="10.926096"><ele>306.25</ele><time>2026-04-06T11:02:15.908Z</time></trkpt><trkpt lat="43.8275332" lon="10.9262204"><ele>304.0</ele><time>2026-04-06T11:02:16.915Z</time></trkpt><trkpt lat="43.8275837" lon="10.9263621"><ele>304.0</ele><time>2026-04-06T11:02:17.908Z</time></trkpt><trkpt lat="43.8276131" lon="10.9265088"><ele>304.0</ele><time>2026-04-06T11:02:18.907Z</time></trkpt><trkpt lat="43.8275635" lon="10.9266349"><ele>304.0</ele><time>2026-04-06T11:02:19.919Z</time></trkpt><trkpt lat="43.8275928" lon="10.9267528"><ele>304.0</ele><time>2026-04-06T11:02:20.913Z</time></trkpt><trkpt lat="43.8276227" lon="10.9268448"><ele>304.0</ele><time>2026-04-06T11:02:21.906Z</time></trkpt><trkpt lat="43.8276607" lon="10.9269246"><ele>304.0</ele><time>2026-04-06T11:02:22.91Z</time></trkpt><trkpt lat="43.8277186" lon="10.9269928"><ele>306.0</ele><time>2026-04-06T11:02:23.91Z</time></trkpt><trkpt lat="43.8277642" lon="10.9270772"><ele>308.0</ele><time>2026-04-06T11:02:24.909Z</time></trkpt><trkpt lat="43.8278044" lon="10.9271949"><ele>310.0</ele><time>2026-04-06T11:02:25.913Z</time></trkpt><trkpt lat="43.8278326" lon="10.9272872"><ele>312.0</ele><time>2026-04-06T11:02:26.909Z</time></trkpt><trkpt lat="43.8278552" lon="10.9273945"><ele>314.0</ele><time>2026-04-06T11:02:27.919Z</time></trkpt><trkpt lat="43.8278043" lon="10.9274984"><ele>316.0</ele><time>2026-04-06T11:02:28.919Z</time></trkpt><trkpt lat="43.8278126" lon="10.9276161"><ele>316.0</ele><time>2026-04-06T11:02:29.907Z</time></trkpt><trkpt lat="43.8278105" lon="10.9277343"><ele>316.0</ele><time>2026-04-06T11:02:30.911Z</time></trkpt><trkpt lat="43.8278206" lon="10.9278677"><ele>316.0</ele><time>2026-04-06T11:02:31.908Z</time></trkpt><trkpt lat="43.8278368" lon="10.9279698"><ele>316.0</ele><time>2026-04-06T11:02:32.912Z</time></trkpt><trkpt lat="43.827901" lon="10.9280673"><ele>316.0</ele><time>2026-04-06T11:02:33.91Z</time></trkpt><trkpt lat="43.8280071" lon="10.9282132"><ele>316.0</ele><time>2026-04-06T11:02:35.922Z</time></trkpt><trkpt lat="43.8281127" lon="10.9283185"><ele>316.0</ele><time>2026-04-06T11:02:37.901Z</time></trkpt><trkpt lat="43.8281535" lon="10.9283872"><ele>316.0</ele><time>2026-04-06T11:02:38.916Z</time></trkpt><trkpt lat="43.8281659" lon="10.9285368"><ele>316.0</ele><time>2026-04-06T11:02:40.912Z</time></trkpt><trkpt lat="43.82815" lon="10.928679"><ele>316.0</ele><time>2026-04-06T11:02:42.907Z</time></trkpt><trkpt lat="43.8280978" lon="10.9287601"><ele>316.8</ele><time>2026-04-06T11:02:44.905Z</time></trkpt><trkpt lat="43.8279976" lon="10.9287804"><ele>317.6</ele><time>2026-04-06T11:02:46.914Z</time></trkpt><trkpt lat="43.8279228" lon="10.9288038"><ele>318.4</ele><time>2026-04-06T11:02:47.999Z</time></trkpt><trkpt lat="43.8277803" lon="10.9288292"><ele>319.2</ele><time>2026-04-06T11:02:48.908Z</time></trkpt><trkpt lat="43.8276876" lon="10.928807"><ele>320.0</ele><time>2026-04-06T11:02:49.919Z</time></trkpt><trkpt lat="43.8275329" lon="10.9287001"><ele>320.0</ele><time>2026-04-06T11:02:50.907Z</time></trkpt><trkpt lat="43.8274324" lon="10.9286237"><ele>320.0</ele><time>2026-04-06T11:02:51.907Z</time></trkpt><trkpt lat="43.8273269" lon="10.9285553"><ele>320.0</ele><time>2026-04-06T11:02:52.909Z</time></trkpt><trkpt lat="43.8271952" lon="10.9284555"><ele>320.0</ele><time>2026-04-06T11:02:53.909Z</time></trkpt><trkpt lat="43.8270986" lon="10.9283398"><ele>315.75</ele><time>2026-04-06T11:02:54.919Z</time></trkpt><trkpt lat="43.8269907" lon="10.9282631"><ele>311.5</ele><time>2026-04-06T11:02:55.905Z</time></trkpt><trkpt lat="43.8268712" lon="10.9282042"><ele>307.25</ele><time>2026-04-06T11:02:56.905Z</time></trkpt><trkpt lat="43.8267827" lon="10.9281012"><ele>303.0</ele><time>2026-04-06T11:02:57.91Z</time></trkpt><trkpt lat="43.8266541" lon="10.9280342"><ele>303.0</ele><time>2026-04-06T11:02:58.907Z</time></trkpt><trkpt lat="43.8265257" lon="10.9279966"><ele>303.0</ele><time>2026-04-06T11:02:59.912Z</time></trkpt><trkpt lat="43.8264193" lon="10.9279443"><ele>303.0</ele><time>2026-04-06T11:03:00.912Z</time></trkpt><trkpt lat="43.8263203" lon="10.9278782"><ele>303.0</ele><time>2026-04-06T11:03:01.909Z</time></trkpt><trkpt lat="43.8262249" lon="10.9278688"><ele>303.0</ele><time>2026-04-06T11:03:02.908Z</time></trkpt><trkpt lat="43.826156" lon="10.9279153"><ele>303.0</ele><time>2026-04-06T11:03:03.909Z</time></trkpt><trkpt lat="43.8260705" lon="10.9280142"><ele>303.0</ele><time>2026-04-06T11:03:04.911Z</time></trkpt><trkpt lat="43.8260341" lon="10.9281498"><ele>303.0</ele><time>2026-04-06T11:03:05.911Z</time></trkpt><trkpt lat="43.826026" lon="10.9282766"><ele>303.0</ele><time>2026-04-06T11:03:06.923Z</time></trkpt><trkpt lat="43.8260059" lon="10.9284059"><ele>305.0</ele><time>2026-04-06T11:03:07.911Z</time></trkpt><trkpt lat="43.8260442" lon="10.9285658"><ele>307.0</ele><time>2026-04-06T11:03:08.921Z</time></trkpt><trkpt lat="43.8260542" lon="10.9287651"><ele>309.0</ele><time>2026-04-06T11:03:09.909Z</time></trkpt><trkpt lat="43.8260705" lon="10.928936"><ele>311.0</ele><time>2026-04-06T11:03:10.908Z</time></trkpt><trkpt lat="43.8260909" lon="10.9291231"><ele>311.40000000000003</ele><time>2026-04-06T11:03:11.911Z</time></trkpt><trkpt lat="43.8261078" lon="10.9293066"><ele>311.8</ele><time>2026-04-06T11:03:12.906Z</time></trkpt><trkpt lat="43.8261505" lon="10.9294463"><ele>312.20000000000005</ele><time>2026-04-06T11:03:13.909Z</time></trkpt><trkpt lat="43.8261478" lon="10.9295886"><ele>312.6</ele><time>2026-04-06T11:03:14.908Z</time></trkpt><trkpt lat="43.8261325" lon="10.9297225"><ele>313.0</ele><time>2026-04-06T11:03:15.912Z</time></trkpt><trkpt lat="43.8260928" lon="10.9298146"><ele>313.0</ele><time>2026-04-06T11:03:16.91Z</time></trkpt><trkpt lat="43.826042" lon="10.9298952"><ele>313.0</ele><time>2026-04-06T11:03:17.918Z</time></trkpt><trkpt lat="43.8259576" lon="10.9299676"><ele>313.0</ele><time>2026-04-06T11:03:19.906Z</time></trkpt><trkpt lat="43.8258542" lon="10.9299524"><ele>313.0</ele><time>2026-04-06T11:03:20.917Z</time></trkpt><trkpt lat="43.8257646" lon="10.9299249"><ele>313.0</ele><time>2026-04-06T11:03:21.91Z</time></trkpt><trkpt lat="43.8257114" lon="10.9298481"><ele>313.0</ele><time>2026-04-06T11:03:22.909Z</time></trkpt><trkpt lat="43.8256592" lon="10.9297558"><ele>310.0</ele><time>2026-04-06T11:03:23.91Z</time></trkpt><trkpt lat="43.8256119" lon="10.9296805"><ele>307.0</ele><time>2026-04-06T11:03:24.915Z</time></trkpt><trkpt lat="43.8255484" lon="10.9295812"><ele>304.0</ele><time>2026-04-06T11:03:25.916Z</time></trkpt><trkpt lat="43.8254545" lon="10.9294553"><ele>301.0</ele><time>2026-04-06T11:03:26.909Z</time></trkpt><trkpt lat="43.8253724" lon="10.9293239"><ele>298.0</ele><time>2026-04-06T11:03:27.91Z</time></trkpt><trkpt lat="43.8252669" lon="10.9291374"><ele>301.75</ele><time>2026-04-06T11:03:28.91Z</time></trkpt><trkpt lat="43.8251201" lon="10.928912"><ele>305.5</ele><time>2026-04-06T11:03:29.911Z</time></trkpt><trkpt lat="43.8250818" lon="10.9288136"><ele>309.25</ele><time>2026-04-06T11:03:30.913Z</time></trkpt><trkpt lat="43.8250072" lon="10.9286656"><ele>313.0</ele><time>2026-04-06T11:03:31.911Z</time></trkpt><trkpt lat="43.8249602" lon="10.9285844"><ele>313.0</ele><time>2026-04-06T11:03:32.91Z</time></trkpt><trkpt lat="43.8248667" lon="10.9284307"><ele>313.0</ele><time>2026-04-06T11:03:33.914Z</time></trkpt><trkpt lat="43.824801" lon="10.9283435"><ele>313.0</ele><time>2026-04-06T11:03:34.909Z</time></trkpt><trkpt lat="43.8247245" lon="10.9282428"><ele>313.0</ele><time>2026-04-06T11:03:35.911Z</time></trkpt><trkpt lat="43.8246468" lon="10.928098"><ele>311.8333333333333</ele><time>2026-04-06T11:03:37.911Z</time></trkpt><trkpt lat="43.8245962" lon="10.9280239"><ele>310.66666666666663</ele><time>2026-04-06T11:03:38.913Z</time></trkpt><trkpt lat="43.824517" lon="10.92795"><ele>309.5</ele><time>2026-04-06T11:03:39.918Z</time></trkpt><trkpt lat="43.8244393" lon="10.9279282"><ele>308.3333333333333</ele><time>2026-04-06T11:03:40.907Z</time></trkpt><trkpt lat="43.824353" lon="10.9279736"><ele>307.1666666666667</ele><time>2026-04-06T11:03:41.909Z</time></trkpt><trkpt lat="43.8242882" lon="10.9280119"><ele>306.0</ele><time>2026-04-06T11:03:42.909Z</time></trkpt><trkpt lat="43.8242289" lon="10.9280585"><ele>306.0</ele><time>2026-04-06T11:03:43.91Z</time></trkpt><trkpt lat="43.824155" lon="10.9280406"><ele>306.0</ele><time>2026-04-06T11:03:44.91Z</time></trkpt><trkpt lat="43.8240458" lon="10.9279539"><ele>306.0</ele><time>2026-04-06T11:03:46.915Z</time></trkpt><trkpt lat="43.8240051" lon="10.9278413"><ele>306.0</ele><time>2026-04-06T11:03:47.907Z</time></trkpt><trkpt lat="43.8239447" lon="10.9277067"><ele>306.0</ele><time>2026-04-06T11:03:48.91Z</time></trkpt><trkpt lat="43.823894" lon="10.9275676"><ele>302.8</ele><time>2026-04-06T11:03:49.917Z</time></trkpt><trkpt lat="43.8238515" lon="10.9274179"><ele>299.6</ele><time>2026-04-06T11:03:50.908Z</time></trkpt><trkpt lat="43.8238389" lon="10.9272849"><ele>296.4</ele><time>2026-04-06T11:03:51.916Z</time></trkpt><trkpt lat="43.8238084" lon="10.9271412"><ele>293.2</ele><time>2026-04-06T11:03:52.908Z</time></trkpt><trkpt lat="43.8237654" lon="10.9269958"><ele>290.0</ele><time>2026-04-06T11:03:53.909Z</time></trkpt><trkpt lat="43.8237298" lon="10.9268906"><ele>290.0</ele><time>2026-04-06T11:03:54.918Z</time></trkpt><trkpt lat="43.8236391" lon="10.9267482"><ele>290.0</ele><time>2026-04-06T11:03:55.91Z</time></trkpt><trkpt lat="43.8235543" lon="10.9266003"><ele>290.0</ele><time>2026-04-06T11:03:56.905Z</time></trkpt><trkpt lat="43.823521" lon="10.9264977"><ele>290.0</ele><time>2026-04-06T11:03:57.912Z</time></trkpt><trkpt lat="43.8234924" lon="10.9264097"><ele>290.0</ele><time>2026-04-06T11:03:58.909Z</time></trkpt><trkpt lat="43.823426" lon="10.9262791"><ele>288.8</ele><time>2026-04-06T11:03:59.929Z</time></trkpt><trkpt lat="43.8233695" lon="10.9261694"><ele>287.6</ele><time>2026-04-06T11:04:00.915Z</time></trkpt><trkpt lat="43.8232865" lon="10.9260812"><ele>286.4</ele><time>2026-04-06T11:04:01.91Z</time></trkpt><trkpt lat="43.8232053" lon="10.9259672"><ele>285.2</ele><time>2026-04-06T11:04:02.903Z</time></trkpt><trkpt lat="43.8231481" lon="10.9258446"><ele>284.0</ele><time>2026-04-06T11:04:03.907Z</time></trkpt><trkpt lat="43.8231018" lon="10.9257396"><ele>284.0</ele><time>2026-04-06T11:04:04.904Z</time></trkpt><trkpt lat="43.8230336" lon="10.9256292"><ele>284.0</ele><time>2026-04-06T11:04:05.917Z</time></trkpt><trkpt lat="43.8229818" lon="10.9255158"><ele>284.0</ele><time>2026-04-06T11:04:06.914Z</time></trkpt><trkpt lat="43.8229226" lon="10.9254028"><ele>284.0</ele><time>2026-04-06T11:04:07.905Z</time></trkpt><trkpt lat="43.8228639" lon="10.9253498"><ele>284.0</ele><time>2026-04-06T11:04:08.902Z</time></trkpt><trkpt lat="43.8228205" lon="10.9252566"><ele>284.0</ele><time>2026-04-06T11:04:09.909Z</time></trkpt><trkpt lat="43.8227363" lon="10.9251456"><ele>284.0</ele><time>2026-04-06T11:04:11.908Z</time></trkpt><trkpt lat="43.8226379" lon="10.9250823"><ele>284.0</ele><time>2026-04-06T11:04:12.908Z</time></trkpt><trkpt lat="43.8224838" lon="10.9250604"><ele>284.0</ele><time>2026-04-06T11:04:13.909Z</time></trkpt><trkpt lat="43.8223709" lon="10.925069"><ele>288.25</ele><time>2026-04-06T11:04:14.909Z</time></trkpt><trkpt lat="43.8222616" lon="10.9251096"><ele>292.5</ele><time>2026-04-06T11:04:15.906Z</time></trkpt><trkpt lat="43.8221317" lon="10.9251675"><ele>296.75</ele><time>2026-04-06T11:04:16.911Z</time></trkpt><trkpt lat="43.8220267" lon="10.9251916"><ele>301.0</ele><time>2026-04-06T11:04:17.902Z</time></trkpt><trkpt lat="43.8219308" lon="10.9252101"><ele>301.0</ele><time>2026-04-06T11:04:18.909Z</time></trkpt><trkpt lat="43.8218379" lon="10.9252588"><ele>301.0</ele><time>2026-04-06T11:04:19.911Z</time></trkpt><trkpt lat="43.8217512" lon="10.9253212"><ele>301.0</ele><time>2026-04-06T11:04:20.913Z</time></trkpt><trkpt lat="43.8217069" lon="10.9254296"><ele>301.0</ele><time>2026-04-06T11:04:21.915Z</time></trkpt><trkpt lat="43.8216423" lon="10.9255299"><ele>301.0</ele><time>2026-04-06T11:04:22.911Z</time></trkpt><trkpt lat="43.8216161" lon="10.9256336"><ele>298.40000000000003</ele><time>2026-04-06T11:04:23.913Z</time></trkpt><trkpt lat="43.821593" lon="10.9257696"><ele>295.8</ele><time>2026-04-06T11:04:24.91Z</time></trkpt><trkpt lat="43.8215942" lon="10.9259285"><ele>293.20000000000005</ele><time>2026-04-06T11:04:25.905Z</time></trkpt><trkpt lat="43.821588" lon="10.9260614"><ele>290.6</ele><time>2026-04-06T11:04:26.909Z</time></trkpt><trkpt lat="43.8215959" lon="10.9261892"><ele>288.0</ele><time>2026-04-06T11:04:27.908Z</time></trkpt><trkpt lat="43.8216161" lon="10.9263212"><ele>287.4</ele><time>2026-04-06T11:04:28.909Z</time></trkpt><trkpt lat="43.8216669" lon="10.926434"><ele>286.8</ele><time>2026-04-06T11:04:29.908Z</time></trkpt><trkpt lat="43.821746" lon="10.9265515"><ele>286.2</ele><time>2026-04-06T11:04:30.91Z</time></trkpt><trkpt lat="43.8218074" lon="10.9266392"><ele>285.6</ele><time>2026-04-06T11:04:31.909Z</time></trkpt><trkpt lat="43.8218738" lon="10.9267298"><ele>285.0</ele><time>2026-04-06T11:04:32.912Z</time></trkpt><trkpt lat="43.8219418" lon="10.9268243"><ele>290.2</ele><time>2026-04-06T11:04:33.916Z</time></trkpt><trkpt lat="43.8219939" lon="10.9268961"><ele>295.4</ele><time>2026-04-06T11:04:34.915Z</time></trkpt><trkpt lat="43.8220513" lon="10.9269693"><ele>300.6</ele><time>2026-04-06T11:04:35.913Z</time></trkpt><trkpt lat="43.8220924" lon="10.9270899"><ele>305.8</ele><time>2026-04-06T11:04:37.912Z</time></trkpt><trkpt lat="43.8221167" lon="10.9272744"><ele>311.0</ele><time>2026-04-06T11:04:39.911Z</time></trkpt><trkpt lat="43.8220995" lon="10.9273651"><ele>311.0</ele><time>2026-04-06T11:04:40.918Z</time></trkpt><trkpt lat="43.8220312" lon="10.9274538"><ele>311.0</ele><time>2026-04-06T11:04:41.908Z</time></trkpt><trkpt lat="43.8219502" lon="10.9275442"><ele>311.0</ele><time>2026-04-06T11:04:42.94Z</time></trkpt><trkpt lat="43.8218105" lon="10.9275561"><ele>311.0</ele><time>2026-04-06T11:04:43.909Z</time></trkpt><trkpt lat="43.8217175" lon="10.9276045"><ele>311.0</ele><time>2026-04-06T11:04:44.912Z</time></trkpt><trkpt lat="43.8215999" lon="10.9276365"><ele>310.0</ele><time>2026-04-06T11:04:45.913Z</time></trkpt><trkpt lat="43.8214907" lon="10.9275963"><ele>309.0</ele><time>2026-04-06T11:04:46.913Z</time></trkpt><trkpt lat="43.8214013" lon="10.9276228"><ele>308.0</ele><time>2026-04-06T11:04:47.908Z</time></trkpt><trkpt lat="43.8213258" lon="10.9276742"><ele>307.0</ele><time>2026-04-06T11:04:48.908Z</time></trkpt><trkpt lat="43.8212735" lon="10.9278468"><ele>306.0</ele><time>2026-04-06T11:04:50.91Z</time></trkpt><trkpt lat="43.8212807" lon="10.9279996"><ele>306.0</ele><time>2026-04-06T11:04:51.913Z</time></trkpt><trkpt lat="43.8212805" lon="10.9281235"><ele>306.0</ele><time>2026-04-06T11:04:52.907Z</time></trkpt><trkpt lat="43.8212898" lon="10.9282306"><ele>306.0</ele><time>2026-04-06T11:04:53.906Z</time></trkpt><trkpt lat="43.8212965" lon="10.9283182"><ele>306.0</ele><time>2026-04-06T11:04:54.924Z</time></trkpt><trkpt lat="43.8212958" lon="10.9284354"><ele>306.0</ele><time>2026-04-06T11:04:55.904Z</time></trkpt><trkpt lat="43.8212837" lon="10.9285368"><ele>306.0</ele><time>2026-04-06T11:04:56.91Z</time></trkpt><trkpt lat="43.8212248" lon="10.9285886"><ele>305.0</ele><time>2026-04-06T11:04:57.913Z</time></trkpt><trkpt lat="43.8211346" lon="10.9285819"><ele>304.0</ele><time>2026-04-06T11:04:59.91Z</time></trkpt><trkpt lat="43.8210515" lon="10.9285531"><ele>303.0</ele><time>2026-04-06T11:05:01.907Z</time></trkpt><trkpt lat="43.8209921" lon="10.9284842"><ele>302.0</ele><time>2026-04-06T11:05:03.92Z</time></trkpt><trkpt lat="43.8209068" lon="10.9284345"><ele>301.0</ele><time>2026-04-06T11:05:05.912Z</time></trkpt><trkpt lat="43.8208276" lon="10.9283211"><ele>301.0</ele><time>2026-04-06T11:05:07.907Z</time></trkpt><trkpt lat="43.8207972" lon="10.9281237"><ele>301.0</ele><time>2026-04-06T11:05:08.906Z</time></trkpt><trkpt lat="43.8207876" lon="10.927957"><ele>301.0</ele><time>2026-04-06T11:05:09.909Z</time></trkpt><trkpt lat="43.8205453" lon="10.9276302"><ele>291.5</ele><time>2026-04-06T11:05:10.908Z</time></trkpt><trkpt lat="43.8203715" lon="10.9273709"><ele>282.0</ele><time>2026-04-06T11:05:11.908Z</time></trkpt><trkpt lat="43.8202564" lon="10.9270679"><ele>286.0</ele><time>2026-04-06T11:05:12.904Z</time></trkpt><trkpt lat="43.8200938" lon="10.9266793"><ele>290.0</ele><time>2026-04-06T11:05:13.903Z</time></trkpt><trkpt lat="43.819966" lon="10.9264442"><ele>290.0</ele><time>2026-04-06T11:05:14.911Z</time></trkpt><trkpt lat="43.8198445" lon="10.92624"><ele>290.0</ele><time>2026-04-06T11:05:15.909Z</time></trkpt><trkpt lat="43.8197159" lon="10.9260338"><ele>290.0</ele><time>2026-04-06T11:05:16.908Z</time></trkpt><trkpt lat="43.8196055" lon="10.9258986"><ele>291.0</ele><time>2026-04-06T11:05:17.91Z</time></trkpt><trkpt lat="43.8195071" lon="10.9257339"><ele>292.0</ele><time>2026-04-06T11:05:18.91Z</time></trkpt><trkpt lat="43.8194773" lon="10.9255513"><ele>293.0</ele><time>2026-04-06T11:05:19.908Z</time></trkpt><trkpt lat="43.8193986" lon="10.925391"><ele>294.0</ele><time>2026-04-06T11:05:20.907Z</time></trkpt><trkpt lat="43.8192998" lon="10.9252832"><ele>294.0</ele><time>2026-04-06T11:05:21.908Z</time></trkpt><trkpt lat="43.8192104" lon="10.925296"><ele>294.0</ele><time>2026-04-06T11:05:22.908Z</time></trkpt><trkpt lat="43.8191276" lon="10.9252533"><ele>294.0</ele><time>2026-04-06T11:05:23.912Z</time></trkpt><trkpt lat="43.8190354" lon="10.9252686"><ele>294.0</ele><time>2026-04-06T11:05:24.907Z</time></trkpt><trkpt lat="43.8188824" lon="10.9253846"><ele>294.0</ele><time>2026-04-06T11:05:25.915Z</time></trkpt><trkpt lat="43.818786" lon="10.9254342"><ele>294.0</ele><time>2026-04-06T11:05:26.914Z</time></trkpt><trkpt lat="43.8186672" lon="10.9255073"><ele>294.0</ele><time>2026-04-06T11:05:27.913Z</time></trkpt><trkpt lat="43.8185709" lon="10.9255542"><ele>294.0</ele><time>2026-04-06T11:05:28.912Z</time></trkpt><trkpt lat="43.818478" lon="10.925573"><ele>294.0</ele><time>2026-04-06T11:05:29.906Z</time></trkpt><trkpt lat="43.8183834" lon="10.9255816"><ele>294.0</ele><time>2026-04-06T11:05:30.911Z</time></trkpt><trkpt lat="43.8182995" lon="10.9255758"><ele>293.0</ele><time>2026-04-06T11:05:31.914Z</time></trkpt><trkpt lat="43.8182181" lon="10.9256197"><ele>292.0</ele><time>2026-04-06T11:05:32.905Z</time></trkpt><trkpt lat="43.8181447" lon="10.9256596"><ele>291.0</ele><time>2026-04-06T11:05:33.908Z</time></trkpt><trkpt lat="43.8181383" lon="10.9257824"><ele>290.0</ele><time>2026-04-06T11:05:34.908Z</time></trkpt><trkpt lat="43.8181104" lon="10.9258944"><ele>289.0</ele><time>2026-04-06T11:05:35.91Z</time></trkpt><trkpt lat="43.8180997" lon="10.9260219"><ele>288.0</ele><time>2026-04-06T11:05:36.909Z</time></trkpt><trkpt lat="43.818083" lon="10.9261793"><ele>288.0</ele><time>2026-04-06T11:05:37.908Z</time></trkpt><trkpt lat="43.818088" lon="10.9263323"><ele>288.0</ele><time>2026-04-06T11:05:38.908Z</time></trkpt><trkpt lat="43.8181033" lon="10.9264661"><ele>288.0</ele><time>2026-04-06T11:05:39.916Z</time></trkpt><trkpt lat="43.8181752" lon="10.9266121"><ele>288.0</ele><time>2026-04-06T11:05:40.909Z</time></trkpt><trkpt lat="43.8182248" lon="10.926758"><ele>289.4</ele><time>2026-04-06T11:05:41.914Z</time></trkpt><trkpt lat="43.8182589" lon="10.9268858"><ele>290.8</ele><time>2026-04-06T11:05:42.925Z</time></trkpt><trkpt lat="43.8182898" lon="10.9269864"><ele>292.2</ele><time>2026-04-06T11:05:43.907Z</time></trkpt><trkpt lat="43.8182889" lon="10.9270937"><ele>293.6</ele><time>2026-04-06T11:05:44.91Z</time></trkpt><trkpt lat="43.8182581" lon="10.9272572"><ele>295.0</ele><time>2026-04-06T11:05:46.907Z</time></trkpt><trkpt lat="43.8182195" lon="10.9273559"><ele>295.0</ele><time>2026-04-06T11:05:48.913Z</time></trkpt><trkpt lat="43.8181137" lon="10.9273822"><ele>295.0</ele><time>2026-04-06T11:05:49.91Z</time></trkpt><trkpt lat="43.8179876" lon="10.92739"><ele>295.0</ele><time>2026-04-06T11:05:50.915Z</time></trkpt><trkpt lat="43.8178451" lon="10.9273914"><ele>295.0</ele><time>2026-04-06T11:05:51.91Z</time></trkpt><trkpt lat="43.8177627" lon="10.9273083"><ele>294.75</ele><time>2026-04-06T11:05:52.912Z</time></trkpt><trkpt lat="43.8176344" lon="10.9272868"><ele>294.5</ele><time>2026-04-06T11:05:53.914Z</time></trkpt><trkpt lat="43.81753" lon="10.9272311"><ele>294.25</ele><time>2026-04-06T11:05:54.908Z</time></trkpt><trkpt lat="43.8174498" lon="10.9271375"><ele>294.0</ele><time>2026-04-06T11:05:55.911Z</time></trkpt><trkpt lat="43.8173566" lon="10.9270165"><ele>294.0</ele><time>2026-04-06T11:05:56.91Z</time></trkpt><trkpt lat="43.8172884" lon="10.9269964"><ele>294.0</ele><time>2026-04-06T11:05:57.91Z</time></trkpt><trkpt lat="43.8171815" lon="10.9269793"><ele>294.0</ele><time>2026-04-06T11:05:58.909Z</time></trkpt><trkpt lat="43.8170452" lon="10.9269269"><ele>294.0</ele><time>2026-04-06T11:05:59.915Z</time></trkpt><trkpt lat="43.8169853" lon="10.9268845"><ele>294.0</ele><time>2026-04-06T11:06:00.909Z</time></trkpt><trkpt lat="43.8168581" lon="10.9268045"><ele>294.2</ele><time>2026-04-06T11:06:01.911Z</time></trkpt><trkpt lat="43.8167754" lon="10.9267096"><ele>294.4</ele><time>2026-04-06T11:06:02.951Z</time></trkpt><trkpt lat="43.8166754" lon="10.9266527"><ele>294.6</ele><time>2026-04-06T11:06:03.912Z</time></trkpt><trkpt lat="43.8165739" lon="10.9266477"><ele>294.8</ele><time>2026-04-06T11:06:04.912Z</time></trkpt><trkpt lat="43.8164848" lon="10.9267216"><ele>295.0</ele><time>2026-04-06T11:06:05.906Z</time></trkpt><trkpt lat="43.8163728" lon="10.9267871"><ele>295.0</ele><time>2026-04-06T11:06:06.91Z</time></trkpt><trkpt lat="43.8162568" lon="10.9268298"><ele>295.0</ele><time>2026-04-06T11:06:07.907Z</time></trkpt><trkpt lat="43.8161714" lon="10.9268354"><ele>295.0</ele><time>2026-04-06T11:06:08.907Z</time></trkpt><trkpt lat="43.8160786" lon="10.9267817"><ele>295.0</ele><time>2026-04-06T11:06:09.906Z</time></trkpt><trkpt lat="43.8159859" lon="10.9267413"><ele>295.0</ele><time>2026-04-06T11:06:10.908Z</time></trkpt><trkpt lat="43.8158956" lon="10.9267127"><ele>290.8</ele><time>2026-04-06T11:06:11.909Z</time></trkpt><trkpt lat="43.8157931" lon="10.9266686"><ele>286.6</ele><time>2026-04-06T11:06:12.913Z</time></trkpt><trkpt lat="43.815739" lon="10.9266144"><ele>282.4</ele><time>2026-04-06T11:06:13.91Z</time></trkpt><trkpt lat="43.8156637" lon="10.9265965"><ele>278.2</ele><time>2026-04-06T11:06:15.908Z</time></trkpt><trkpt lat="43.8156127" lon="10.92672"><ele>274.0</ele><time>2026-04-06T11:06:16.91Z</time></trkpt><trkpt lat="43.8155629" lon="10.9268799"><ele>274.0</ele><time>2026-04-06T11:06:17.915Z</time></trkpt><trkpt lat="43.8155383" lon="10.9270108"><ele>274.0</ele><time>2026-04-06T11:06:18.912Z</time></trkpt><trkpt lat="43.8155032" lon="10.9271581"><ele>274.0</ele><time>2026-04-06T11:06:19.92Z</time></trkpt><trkpt lat="43.815494" lon="10.9273202"><ele>274.0</ele><time>2026-04-06T11:06:20.91Z</time></trkpt><trkpt lat="43.8155255" lon="10.9274398"><ele>274.0</ele><time>2026-04-06T11:06:21.913Z</time></trkpt><trkpt lat="43.8155436" lon="10.9275797"><ele>271.59999999999997</ele><time>2026-04-06T11:06:22.909Z</time></trkpt><trkpt lat="43.8155656" lon="10.9276971"><ele>269.2</ele><time>2026-04-06T11:06:23.907Z</time></trkpt><trkpt lat="43.8156309" lon="10.9278098"><ele>266.79999999999995</ele><time>2026-04-06T11:06:24.924Z</time></trkpt><trkpt lat="43.815687" lon="10.9279299"><ele>264.4</ele><time>2026-04-06T11:06:25.91Z</time></trkpt><trkpt lat="43.81574" lon="10.9280693"><ele>262.0</ele><time>2026-04-06T11:06:26.919Z</time></trkpt><trkpt lat="43.8157803" lon="10.9281966"><ele>262.0</ele><time>2026-04-06T11:06:27.908Z</time></trkpt><trkpt lat="43.815849" lon="10.9282917"><ele>262.0</ele><time>2026-04-06T11:06:28.907Z</time></trkpt><trkpt lat="43.8159374" lon="10.9283879"><ele>262.0</ele><time>2026-04-06T11:06:29.911Z</time></trkpt><trkpt lat="43.816021" lon="10.9284857"><ele>262.0</ele><time>2026-04-06T11:06:30.91Z</time></trkpt><trkpt lat="43.8160836" lon="10.9285746"><ele>262.0</ele><time>2026-04-06T11:06:31.91Z</time></trkpt><trkpt lat="43.8161343" lon="10.9286833"><ele>263.2</ele><time>2026-04-06T11:06:32.909Z</time></trkpt><trkpt lat="43.8162041" lon="10.9287903"><ele>264.4</ele><time>2026-04-06T11:06:33.912Z</time></trkpt><trkpt lat="43.81626" lon="10.9289011"><ele>265.6</ele><time>2026-04-06T11:06:34.926Z</time></trkpt><trkpt lat="43.8163112" lon="10.9290407"><ele>266.8</ele><time>2026-04-06T11:06:35.911Z</time></trkpt><trkpt lat="43.8163558" lon="10.9291747"><ele>268.0</ele><time>2026-04-06T11:06:36.902Z</time></trkpt><trkpt lat="43.8164068" lon="10.9293142"><ele>268.0</ele><time>2026-04-06T11:06:37.907Z</time></trkpt><trkpt lat="43.8164652" lon="10.9294574"><ele>268.0</ele><time>2026-04-06T11:06:38.904Z</time></trkpt><trkpt lat="43.8165109" lon="10.9296006"><ele>268.0</ele><time>2026-04-06T11:06:39.916Z</time></trkpt><trkpt lat="43.8165662" lon="10.929726"><ele>268.0</ele><time>2026-04-06T11:06:40.922Z</time></trkpt><trkpt lat="43.8166303" lon="10.9298655"><ele>268.0</ele><time>2026-04-06T11:06:41.906Z</time></trkpt><trkpt lat="43.8166965" lon="10.9299839"><ele>268.0</ele><time>2026-04-06T11:06:42.902Z</time></trkpt><trkpt lat="43.8166782" lon="10.930108"><ele>268.0</ele><time>2026-04-06T11:06:43.909Z</time></trkpt><trkpt lat="43.8166497" lon="10.9302855"><ele>268.0</ele><time>2026-04-06T11:06:45.914Z</time></trkpt><trkpt lat="43.8166263" lon="10.9303686"><ele>268.0</ele><time>2026-04-06T11:06:46.91Z</time></trkpt><trkpt lat="43.8165438" lon="10.9304161"><ele>270.25</ele><time>2026-04-06T11:06:48.906Z</time></trkpt><trkpt lat="43.8164047" lon="10.9304312"><ele>272.5</ele><time>2026-04-06T11:06:50.909Z</time></trkpt><trkpt lat="43.8163034" lon="10.930449"><ele>274.75</ele><time>2026-04-06T11:06:51.906Z</time></trkpt><trkpt lat="43.8161451" lon="10.9304486"><ele>277.0</ele><time>2026-04-06T11:06:52.913Z</time></trkpt><trkpt lat="43.8160187" lon="10.9303435"><ele>283.66666666666663</ele><time>2026-04-06T11:06:54.908Z</time></trkpt><trkpt lat="43.815849" lon="10.9302938"><ele>290.3333333333333</ele><time>2026-04-06T11:06:55.908Z</time></trkpt><trkpt lat="43.8157527" lon="10.9302082"><ele>297.0</ele><time>2026-04-06T11:06:56.911Z</time></trkpt><trkpt lat="43.8155946" lon="10.9301108"><ele>290.0</ele><time>2026-04-06T11:06:57.91Z</time></trkpt><trkpt lat="43.8155155" lon="10.9300108"><ele>283.0</ele><time>2026-04-06T11:06:58.91Z</time></trkpt><trkpt lat="43.8154459" lon="10.9298894"><ele>276.0</ele><time>2026-04-06T11:06:59.907Z</time></trkpt><trkpt lat="43.81536" lon="10.9297955"><ele>269.0</ele><time>2026-04-06T11:07:00.907Z</time></trkpt><trkpt lat="43.8152982" lon="10.9297269"><ele>262.0</ele><time>2026-04-06T11:07:01.91Z</time></trkpt><trkpt lat="43.8152233" lon="10.929687"><ele>265.16666666666663</ele><time>2026-04-06T11:07:02.909Z</time></trkpt><trkpt lat="43.815152" lon="10.9296446"><ele>268.3333333333333</ele><time>2026-04-06T11:07:03.912Z</time></trkpt><trkpt lat="43.815088" lon="10.9296578"><ele>271.5</ele><time>2026-04-06T11:07:04.91Z</time></trkpt><trkpt lat="43.8150217" lon="10.9296555"><ele>274.6666666666667</ele><time>2026-04-06T11:07:05.915Z</time></trkpt><trkpt lat="43.8149354" lon="10.9296363"><ele>277.83333333333337</ele><time>2026-04-06T11:07:06.912Z</time></trkpt><trkpt lat="43.8148458" lon="10.9295847"><ele>281.0</ele><time>2026-04-06T11:07:07.91Z</time></trkpt><trkpt lat="43.8147729" lon="10.9295214"><ele>281.0</ele><time>2026-04-06T11:07:08.908Z</time></trkpt><trkpt lat="43.8146895" lon="10.9294599"><ele>281.0</ele><time>2026-04-06T11:07:09.907Z</time></trkpt><trkpt lat="43.8146214" lon="10.9293796"><ele>281.0</ele><time>2026-04-06T11:07:10.907Z</time></trkpt><trkpt lat="43.814506" lon="10.9293166"><ele>281.0</ele><time>2026-04-06T11:07:11.91Z</time></trkpt><trkpt lat="43.8143904" lon="10.9292688"><ele>281.0</ele><time>2026-04-06T11:07:12.907Z</time></trkpt><trkpt lat="43.814295" lon="10.9291827"><ele>277.75</ele><time>2026-04-06T11:07:13.911Z</time></trkpt><trkpt lat="43.8142322" lon="10.9290685"><ele>274.5</ele><time>2026-04-06T11:07:14.914Z</time></trkpt><trkpt lat="43.8141355" lon="10.9289783"><ele>271.25</ele><time>2026-04-06T11:07:15.914Z</time></trkpt><trkpt lat="43.8140297" lon="10.9288687"><ele>268.0</ele><time>2026-04-06T11:07:16.91Z</time></trkpt><trkpt lat="43.8139155" lon="10.9287981"><ele>268.0</ele><time>2026-04-06T11:07:17.905Z</time></trkpt><trkpt lat="43.8138427" lon="10.9287225"><ele>268.0</ele><time>2026-04-06T11:07:18.911Z</time></trkpt><trkpt lat="43.8137685" lon="10.928602"><ele>268.0</ele><time>2026-04-06T11:07:19.915Z</time></trkpt><trkpt lat="43.8137107" lon="10.9284708"><ele>268.0</ele><time>2026-04-06T11:07:20.91Z</time></trkpt><trkpt lat="43.8136433" lon="10.9283732"><ele>268.0</ele><time>2026-04-06T11:07:21.907Z</time></trkpt><trkpt lat="43.8135725" lon="10.9282167"><ele>268.0</ele><time>2026-04-06T11:07:22.91Z</time></trkpt><trkpt lat="43.8134824" lon="10.9280339"><ele>268.0</ele><time>2026-04-06T11:07:23.908Z</time></trkpt><trkpt lat="43.8134236" lon="10.9279027"><ele>268.0</ele><time>2026-04-06T11:07:24.909Z</time></trkpt><trkpt lat="43.8133399" lon="10.9277285"><ele>268.0</ele><time>2026-04-06T11:07:25.905Z</time></trkpt><trkpt lat="43.8132705" lon="10.9275542"><ele>263.0</ele><time>2026-04-06T11:07:26.909Z</time></trkpt><trkpt lat="43.8131912" lon="10.9273939"><ele>258.0</ele><time>2026-04-06T11:07:27.907Z</time></trkpt><trkpt lat="43.8131098" lon="10.9272408"><ele>253.0</ele><time>2026-04-06T11:07:28.906Z</time></trkpt><trkpt lat="43.8130208" lon="10.9270472"><ele>248.0</ele><time>2026-04-06T11:07:29.905Z</time></trkpt><trkpt lat="43.812921" lon="10.9268761"><ele>248.66666666666669</ele><time>2026-04-06T11:07:30.911Z</time></trkpt><trkpt lat="43.8127986" lon="10.9266877"><ele>249.33333333333331</ele><time>2026-04-06T11:07:31.909Z</time></trkpt><trkpt lat="43.8126711" lon="10.9265206"><ele>250.0</ele><time>2026-04-06T11:07:32.906Z</time></trkpt><trkpt lat="43.8125449" lon="10.9264468"><ele>250.0</ele><time>2026-04-06T11:07:33.91Z</time></trkpt><trkpt lat="43.8124361" lon="10.9263422"><ele>250.0</ele><time>2026-04-06T11:07:34.909Z</time></trkpt><trkpt lat="43.812358" lon="10.9262044"><ele>250.0</ele><time>2026-04-06T11:07:35.908Z</time></trkpt><trkpt lat="43.8122804" lon="10.9260927"><ele>250.0</ele><time>2026-04-06T11:07:36.907Z</time></trkpt><trkpt lat="43.8122092" lon="10.9259769"><ele>250.0</ele><time>2026-04-06T11:07:37.911Z</time></trkpt><trkpt lat="43.8121169" lon="10.9259575"><ele>250.0</ele><time>2026-04-06T11:07:38.908Z</time></trkpt><trkpt lat="43.8120128" lon="10.9259907"><ele>250.0</ele><time>2026-04-06T11:07:39.912Z</time></trkpt><trkpt lat="43.8119011" lon="10.9261137"><ele>250.0</ele><time>2026-04-06T11:07:40.907Z</time></trkpt><trkpt lat="43.8117872" lon="10.9261974"><ele>251.5</ele><time>2026-04-06T11:07:41.904Z</time></trkpt><trkpt lat="43.81166" lon="10.9262497"><ele>253.0</ele><time>2026-04-06T11:07:42.914Z</time></trkpt><trkpt lat="43.8115317" lon="10.9262795"><ele>254.5</ele><time>2026-04-06T11:07:43.916Z</time></trkpt><trkpt lat="43.8114184" lon="10.9262676"><ele>256.0</ele><time>2026-04-06T11:07:44.912Z</time></trkpt><trkpt lat="43.8113281" lon="10.9262124"><ele>256.0</ele><time>2026-04-06T11:07:45.917Z</time></trkpt><trkpt lat="43.8112292" lon="10.9261671"><ele>256.0</ele><time>2026-04-06T11:07:46.911Z</time></trkpt><trkpt lat="43.8111663" lon="10.9260813"><ele>256.0</ele><time>2026-04-06T11:07:47.913Z</time></trkpt><trkpt lat="43.8110686" lon="10.9260244"><ele>256.0</ele><time>2026-04-06T11:07:48.909Z</time></trkpt><trkpt lat="43.8109734" lon="10.9259758"><ele>256.0</ele><time>2026-04-06T11:07:49.917Z</time></trkpt><trkpt lat="43.8108893" lon="10.925951"><ele>255.0</ele><time>2026-04-06T11:07:50.912Z</time></trkpt><trkpt lat="43.8107691" lon="10.9261331"><ele>254.0</ele><time>2026-04-06T11:07:53.904Z</time></trkpt><trkpt lat="43.8106768" lon="10.9262918"><ele>253.0</ele><time>2026-04-06T11:07:54.909Z</time></trkpt><trkpt lat="43.8106019" lon="10.9264071"><ele>252.0</ele><time>2026-04-06T11:07:55.907Z</time></trkpt><trkpt lat="43.8105249" lon="10.9265682"><ele>252.0</ele><time>2026-04-06T11:07:56.905Z</time></trkpt><trkpt lat="43.8104291" lon="10.9267198"><ele>252.0</ele><time>2026-04-06T11:07:57.912Z</time></trkpt><trkpt lat="43.8103448" lon="10.9268553"><ele>252.0</ele><time>2026-04-06T11:07:58.907Z</time></trkpt><trkpt lat="43.8102425" lon="10.9269732"><ele>252.0</ele><time>2026-04-06T11:07:59.905Z</time></trkpt><trkpt lat="43.8101642" lon="10.9270936"><ele>250.0</ele><time>2026-04-06T11:08:00.907Z</time></trkpt><trkpt lat="43.8101377" lon="10.9272479"><ele>248.0</ele><time>2026-04-06T11:08:01.902Z</time></trkpt><trkpt lat="43.8101314" lon="10.9274399"><ele>246.0</ele><time>2026-04-06T11:08:02.907Z</time></trkpt><trkpt lat="43.8100973" lon="10.9276141"><ele>244.0</ele><time>2026-04-06T11:08:03.902Z</time></trkpt><trkpt lat="43.8100595" lon="10.9277978"><ele>244.0</ele><time>2026-04-06T11:08:04.902Z</time></trkpt><trkpt lat="43.8100302" lon="10.9279801"><ele>243.99999999999997</ele><time>2026-04-06T11:08:05.924Z</time></trkpt><trkpt lat="43.8100041" lon="10.9281247"><ele>243.99999999999997</ele><time>2026-04-06T11:08:06.913Z</time></trkpt><trkpt lat="43.810027" lon="10.9282679"><ele>244.0</ele><time>2026-04-06T11:08:07.915Z</time></trkpt><trkpt lat="43.8100393" lon="10.9283912"><ele>244.0</ele><time>2026-04-06T11:08:08.908Z</time></trkpt><trkpt lat="43.8100393" lon="10.9285122"><ele>246.2</ele><time>2026-04-06T11:08:09.908Z</time></trkpt><trkpt lat="43.809973" lon="10.9286281"><ele>248.39999999999998</ele><time>2026-04-06T11:08:11.906Z</time></trkpt><trkpt lat="43.8099051" lon="10.9286554"><ele>250.6</ele><time>2026-04-06T11:08:12.911Z</time></trkpt><trkpt lat="43.8097845" lon="10.9286466"><ele>252.8</ele><time>2026-04-06T11:08:13.903Z</time></trkpt><trkpt lat="43.8096698" lon="10.9286239"><ele>255.0</ele><time>2026-04-06T11:08:14.904Z</time></trkpt><trkpt lat="43.8095453" lon="10.9285978"><ele>255.0</ele><time>2026-04-06T11:08:15.905Z</time></trkpt><trkpt lat="43.8094236" lon="10.9286152"><ele>255.0</ele><time>2026-04-06T11:08:16.908Z</time></trkpt><trkpt lat="43.8093008" lon="10.9286407"><ele>255.0</ele><time>2026-04-06T11:08:17.905Z</time></trkpt><trkpt lat="43.809197" lon="10.9286439"><ele>255.0</ele><time>2026-04-06T11:08:18.905Z</time></trkpt><trkpt lat="43.8090589" lon="10.9286541"><ele>252.25</ele><time>2026-04-06T11:08:19.904Z</time></trkpt><trkpt lat="43.8089218" lon="10.9286011"><ele>249.5</ele><time>2026-04-06T11:08:20.905Z</time></trkpt><trkpt lat="43.8087927" lon="10.9285757"><ele>246.75</ele><time>2026-04-06T11:08:21.904Z</time></trkpt><trkpt lat="43.80868" lon="10.9285533"><ele>244.0</ele><time>2026-04-06T11:08:22.903Z</time></trkpt><trkpt lat="43.8085819" lon="10.9285484"><ele>244.0</ele><time>2026-04-06T11:08:23.906Z</time></trkpt><trkpt lat="43.8085026" lon="10.9285646"><ele>243.99999999999997</ele><time>2026-04-06T11:08:24.916Z</time></trkpt><trkpt lat="43.8084647" lon="10.9286614"><ele>243.99999999999997</ele><time>2026-04-06T11:08:25.917Z</time></trkpt><trkpt lat="43.8084198" lon="10.9287693"><ele>244.0</ele><time>2026-04-06T11:08:27.908Z</time></trkpt><trkpt lat="43.808428" lon="10.928892"><ele>244.0</ele><time>2026-04-06T11:08:28.91Z</time></trkpt><trkpt lat="43.8084708" lon="10.9290677"><ele>243.25</ele><time>2026-04-06T11:08:29.909Z</time></trkpt><trkpt lat="43.8085089" lon="10.9292461"><ele>242.5</ele><time>2026-04-06T11:08:30.909Z</time></trkpt><trkpt lat="43.8085507" lon="10.9294153"><ele>241.75</ele><time>2026-04-06T11:08:31.911Z</time></trkpt><trkpt lat="43.8085799" lon="10.9295957"><ele>241.0</ele><time>2026-04-06T11:08:32.907Z</time></trkpt><trkpt lat="43.808669" lon="10.9297493"><ele>241.0</ele><time>2026-04-06T11:08:33.913Z</time></trkpt><trkpt lat="43.8087458" lon="10.9299223"><ele>241.0</ele><time>2026-04-06T11:08:34.909Z</time></trkpt><trkpt lat="43.808811" lon="10.9300788"><ele>241.0</ele><time>2026-04-06T11:08:35.907Z</time></trkpt><trkpt lat="43.8088483" lon="10.9301993"><ele>241.0</ele><time>2026-04-06T11:08:36.908Z</time></trkpt><trkpt lat="43.8088668" lon="10.9303188"><ele>240.0</ele><time>2026-04-06T11:08:37.913Z</time></trkpt><trkpt lat="43.8088383" lon="10.9304278"><ele>239.00000000000003</ele><time>2026-04-06T11:08:38.909Z</time></trkpt><trkpt lat="43.8087803" lon="10.9305663"><ele>238.00000000000003</ele><time>2026-04-06T11:08:40.907Z</time></trkpt><trkpt lat="43.8087092" lon="10.9306072"><ele>237.0</ele><time>2026-04-06T11:08:41.912Z</time></trkpt><trkpt lat="43.8085787" lon="10.9306153"><ele>236.0</ele><time>2026-04-06T11:08:42.911Z</time></trkpt><trkpt lat="43.8084737" lon="10.9306239"><ele>234.75</ele><time>2026-04-06T11:08:43.907Z</time></trkpt><trkpt lat="43.8083619" lon="10.9306356"><ele>233.5</ele><time>2026-04-06T11:08:44.909Z</time></trkpt><trkpt lat="43.8082132" lon="10.9305583"><ele>232.25</ele><time>2026-04-06T11:08:45.907Z</time></trkpt><trkpt lat="43.8080729" lon="10.9304994"><ele>231.0</ele><time>2026-04-06T11:08:46.912Z</time></trkpt><trkpt lat="43.8079467" lon="10.9303912"><ele>231.0</ele><time>2026-04-06T11:08:47.906Z</time></trkpt><trkpt lat="43.8078211" lon="10.9303384"><ele>231.0</ele><time>2026-04-06T11:08:48.915Z</time></trkpt><trkpt lat="43.8077109" lon="10.9303026"><ele>231.0</ele><time>2026-04-06T11:08:49.907Z</time></trkpt><trkpt lat="43.8075731" lon="10.930295"><ele>231.0</ele><time>2026-04-06T11:08:50.904Z</time></trkpt><trkpt lat="43.8074674" lon="10.9302596"><ele>228.5</ele><time>2026-04-06T11:08:51.906Z</time></trkpt><trkpt lat="43.807365" lon="10.930168"><ele>226.0</ele><time>2026-04-06T11:08:52.912Z</time></trkpt><trkpt lat="43.8072613" lon="10.9300965"><ele>223.5</ele><time>2026-04-06T11:08:53.91Z</time></trkpt><trkpt lat="43.8071572" lon="10.9299592"><ele>221.0</ele><time>2026-04-06T11:08:54.912Z</time></trkpt><trkpt lat="43.8070733" lon="10.9297709"><ele>220.25</ele><time>2026-04-06T11:08:55.915Z</time></trkpt><trkpt lat="43.807004" lon="10.9296316"><ele>219.5</ele><time>2026-04-06T11:08:56.909Z</time></trkpt><trkpt lat="43.8069278" lon="10.9294623"><ele>218.75</ele><time>2026-04-06T11:08:57.906Z</time></trkpt><trkpt lat="43.8068411" lon="10.9293151"><ele>218.0</ele><time>2026-04-06T11:08:58.913Z</time></trkpt><trkpt lat="43.8068005" lon="10.9291221"><ele>216.0</ele><time>2026-04-06T11:08:59.904Z</time></trkpt><trkpt lat="43.8067346" lon="10.9289416"><ele>214.0</ele><time>2026-04-06T11:09:00.911Z</time></trkpt><trkpt lat="43.8066833" lon="10.9287553"><ele>212.0</ele><time>2026-04-06T11:09:01.91Z</time></trkpt><trkpt lat="43.8066356" lon="10.9285944"><ele>210.0</ele><time>2026-04-06T11:09:02.907Z</time></trkpt><trkpt lat="43.8066001" lon="10.9284506"><ele>208.8</ele><time>2026-04-06T11:09:03.913Z</time></trkpt><trkpt lat="43.8065579" lon="10.9283171"><ele>207.6</ele><time>2026-04-06T11:09:04.914Z</time></trkpt><trkpt lat="43.8064955" lon="10.9282095"><ele>206.39999999999998</ele><time>2026-04-06T11:09:05.915Z</time></trkpt><trkpt lat="43.8064181" lon="10.9281137"><ele>205.2</ele><time>2026-04-06T11:09:07.92Z</time></trkpt><trkpt lat="43.8063021" lon="10.9281479"><ele>204.0</ele><time>2026-04-06T11:09:08.907Z</time></trkpt><trkpt lat="43.8062077" lon="10.9281871"><ele>204.0</ele><time>2026-04-06T11:09:09.909Z</time></trkpt><trkpt lat="43.8061189" lon="10.9283884"><ele>204.0</ele><time>2026-04-06T11:09:10.909Z</time></trkpt><trkpt lat="43.8060619" lon="10.9285223"><ele>204.0</ele><time>2026-04-06T11:09:11.91Z</time></trkpt><trkpt lat="43.8060028" lon="10.9287088"><ele>204.0</ele><time>2026-04-06T11:09:12.907Z</time></trkpt><trkpt lat="43.8059549" lon="10.9288274"><ele>204.79999999999998</ele><time>2026-04-06T11:09:13.92Z</time></trkpt><trkpt lat="43.8059142" lon="10.9289336"><ele>205.6</ele><time>2026-04-06T11:09:14.91Z</time></trkpt><trkpt lat="43.8058948" lon="10.9290569"><ele>206.4</ele><time>2026-04-06T11:09:15.915Z</time></trkpt><trkpt lat="43.8058924" lon="10.929176"><ele>207.2</ele><time>2026-04-06T11:09:16.909Z</time></trkpt><trkpt lat="43.8060032" lon="10.9293085"><ele>208.0</ele><time>2026-04-06T11:09:17.906Z</time></trkpt><trkpt lat="43.8060654" lon="10.9294494"><ele>208.0</ele><time>2026-04-06T11:09:18.909Z</time></trkpt><trkpt lat="43.8061549" lon="10.9295875"><ele>208.0</ele><time>2026-04-06T11:09:19.917Z</time></trkpt><trkpt lat="43.806232" lon="10.92972"><ele>208.0</ele><time>2026-04-06T11:09:20.905Z</time></trkpt><trkpt lat="43.8062807" lon="10.9298393"><ele>208.0</ele><time>2026-04-06T11:09:21.914Z</time></trkpt><trkpt lat="43.8063319" lon="10.9299647"><ele>207.99999999999997</ele><time>2026-04-06T11:09:22.908Z</time></trkpt><trkpt lat="43.8063923" lon="10.9300517"><ele>208.0</ele><time>2026-04-06T11:09:23.908Z</time></trkpt><trkpt lat="43.8064531" lon="10.9301203"><ele>208.0</ele><time>2026-04-06T11:09:24.91Z</time></trkpt><trkpt lat="43.8064993" lon="10.9302055"><ele>208.0</ele><time>2026-04-06T11:09:25.915Z</time></trkpt><trkpt lat="43.8065448" lon="10.9302912"><ele>207.99999999999997</ele><time>2026-04-06T11:09:26.913Z</time></trkpt><trkpt lat="43.8065842" lon="10.9303746"><ele>208.0</ele><time>2026-04-06T11:09:27.911Z</time></trkpt><trkpt lat="43.8066097" lon="10.930471"><ele>204.8</ele><time>2026-04-06T11:09:28.912Z</time></trkpt><trkpt lat="43.8066468" lon="10.9305914"><ele>201.60000000000002</ele><time>2026-04-06T11:09:29.917Z</time></trkpt><trkpt lat="43.8066823" lon="10.9307238"><ele>198.39999999999998</ele><time>2026-04-06T11:09:30.931Z</time></trkpt><trkpt lat="43.8067163" lon="10.9308744"><ele>195.2</ele><time>2026-04-06T11:09:31.912Z</time></trkpt><trkpt lat="43.806764" lon="10.931044"><ele>192.0</ele><time>2026-04-06T11:09:32.909Z</time></trkpt><trkpt lat="43.8067909" lon="10.9312278"><ele>194.5</ele><time>2026-04-06T11:09:33.908Z</time></trkpt><trkpt lat="43.8068326" lon="10.9313913"><ele>197.0</ele><time>2026-04-06T11:09:34.915Z</time></trkpt><trkpt lat="43.8068755" lon="10.9315524"><ele>199.5</ele><time>2026-04-06T11:09:35.911Z</time></trkpt><trkpt lat="43.8068964" lon="10.9317136"><ele>202.0</ele><time>2026-04-06T11:09:36.908Z</time></trkpt><trkpt lat="43.8068958" lon="10.9318343"><ele>202.0</ele><time>2026-04-06T11:09:37.908Z</time></trkpt><trkpt lat="43.8069074" lon="10.9319623"><ele>202.0</ele><time>2026-04-06T11:09:38.908Z</time></trkpt><trkpt lat="43.806867" lon="10.932036"><ele>202.0</ele><time>2026-04-06T11:09:39.911Z</time></trkpt><trkpt lat="43.8068066" lon="10.9321231"><ele>202.0</ele><time>2026-04-06T11:09:40.911Z</time></trkpt><trkpt lat="43.8066564" lon="10.9321367"><ele>202.0</ele><time>2026-04-06T11:09:42.909Z</time></trkpt><trkpt lat="43.8065811" lon="10.9321254"><ele>203.0</ele><time>2026-04-06T11:09:43.916Z</time></trkpt><trkpt lat="43.8064874" lon="10.9321096"><ele>204.0</ele><time>2026-04-06T11:09:44.922Z</time></trkpt><trkpt lat="43.806384" lon="10.9320909"><ele>205.0</ele><time>2026-04-06T11:09:45.909Z</time></trkpt><trkpt lat="43.8062948" lon="10.9320048"><ele>206.0</ele><time>2026-04-06T11:09:46.911Z</time></trkpt><trkpt lat="43.8062122" lon="10.9319468"><ele>207.0</ele><time>2026-04-06T11:09:47.911Z</time></trkpt><trkpt lat="43.8061559" lon="10.931738"><ele>205.75</ele><time>2026-04-06T11:09:48.908Z</time></trkpt><trkpt lat="43.8061134" lon="10.9315431"><ele>204.5</ele><time>2026-04-06T11:09:49.912Z</time></trkpt><trkpt lat="43.8060278" lon="10.9313993"><ele>203.25</ele><time>2026-04-06T11:09:50.909Z</time></trkpt><trkpt lat="43.8059637" lon="10.9313544"><ele>202.0</ele><time>2026-04-06T11:09:51.908Z</time></trkpt><trkpt lat="43.8058705" lon="10.9312576"><ele>202.0</ele><time>2026-04-06T11:09:52.911Z</time></trkpt><trkpt lat="43.8057765" lon="10.9311718"><ele>202.0</ele><time>2026-04-06T11:09:53.908Z</time></trkpt><trkpt lat="43.8056618" lon="10.9310867"><ele>202.0</ele><time>2026-04-06T11:09:54.912Z</time></trkpt><trkpt lat="43.8055007" lon="10.9310801"><ele>202.0</ele><time>2026-04-06T11:09:55.911Z</time></trkpt><trkpt lat="43.8053658" lon="10.9310891"><ele>202.0</ele><time>2026-04-06T11:09:56.91Z</time></trkpt><trkpt lat="43.8052152" lon="10.9310936"><ele>202.0</ele><time>2026-04-06T11:09:57.91Z</time></trkpt><trkpt lat="43.8050744" lon="10.9310813"><ele>202.0</ele><time>2026-04-06T11:09:58.909Z</time></trkpt><trkpt lat="43.8049464" lon="10.9310626"><ele>202.0</ele><time>2026-04-06T11:09:59.909Z</time></trkpt><trkpt lat="43.8048239" lon="10.9310048"><ele>204.33333333333331</ele><time>2026-04-06T11:10:00.917Z</time></trkpt><trkpt lat="43.8047133" lon="10.9309412"><ele>206.66666666666669</ele><time>2026-04-06T11:10:01.914Z</time></trkpt><trkpt lat="43.8045824" lon="10.9308774"><ele>209.0</ele><time>2026-04-06T11:10:02.917Z</time></trkpt><trkpt lat="43.8043951" lon="10.9307564"><ele>203.66666666666669</ele><time>2026-04-06T11:10:03.909Z</time></trkpt><trkpt lat="43.8042451" lon="10.9306109"><ele>198.33333333333331</ele><time>2026-04-06T11:10:04.909Z</time></trkpt><trkpt lat="43.8041145" lon="10.9304478"><ele>193.0</ele><time>2026-04-06T11:10:05.911Z</time></trkpt><trkpt lat="43.8040037" lon="10.9302681"><ele>193.0</ele><time>2026-04-06T11:10:06.907Z</time></trkpt><trkpt lat="43.8038997" lon="10.9300911"><ele>193.0</ele><time>2026-04-06T11:10:07.924Z</time></trkpt><trkpt lat="43.8038126" lon="10.929907"><ele>193.0</ele><time>2026-04-06T11:10:08.914Z</time></trkpt><trkpt lat="43.8037672" lon="10.9297427"><ele>188.25</ele><time>2026-04-06T11:10:09.909Z</time></trkpt><trkpt lat="43.8037148" lon="10.9295883"><ele>183.5</ele><time>2026-04-06T11:10:10.915Z</time></trkpt><trkpt lat="43.803677" lon="10.929443"><ele>178.75</ele><time>2026-04-06T11:10:11.911Z</time></trkpt><trkpt lat="43.8036886" lon="10.9291976"><ele>174.0</ele><time>2026-04-06T11:10:12.907Z</time></trkpt><trkpt lat="43.8036609" lon="10.929046"><ele>175.0</ele><time>2026-04-06T11:10:13.907Z</time></trkpt><trkpt lat="43.803617" lon="10.9288905"><ele>176.0</ele><time>2026-04-06T11:10:14.909Z</time></trkpt><trkpt lat="43.803572" lon="10.9287872"><ele>177.0</ele><time>2026-04-06T11:10:15.915Z</time></trkpt><trkpt lat="43.8035412" lon="10.9286645"><ele>178.0</ele><time>2026-04-06T11:10:16.91Z</time></trkpt><trkpt lat="43.8034588" lon="10.9285681"><ele>179.0</ele><time>2026-04-06T11:10:17.91Z</time></trkpt><trkpt lat="43.8033425" lon="10.9285075"><ele>179.0</ele><time>2026-04-06T11:10:18.91Z</time></trkpt><trkpt lat="43.8032291" lon="10.9284481"><ele>179.0</ele><time>2026-04-06T11:10:19.908Z</time></trkpt><trkpt lat="43.8030133" lon="10.9283877"><ele>179.0</ele><time>2026-04-06T11:10:20.907Z</time></trkpt><trkpt lat="43.8028621" lon="10.9283066"><ele>176.5</ele><time>2026-04-06T11:10:21.91Z</time></trkpt><trkpt lat="43.8027023" lon="10.9282547"><ele>174.0</ele><time>2026-04-06T11:10:22.912Z</time></trkpt><trkpt lat="43.8025628" lon="10.9281881"><ele>171.5</ele><time>2026-04-06T11:10:23.918Z</time></trkpt><trkpt lat="43.8024333" lon="10.9281265"><ele>169.0</ele><time>2026-04-06T11:10:24.911Z</time></trkpt><trkpt lat="43.8023072" lon="10.9280809"><ele>169.0</ele><time>2026-04-06T11:10:25.909Z</time></trkpt><trkpt lat="43.802197" lon="10.928036"><ele>169.0</ele><time>2026-04-06T11:10:26.908Z</time></trkpt><trkpt lat="43.8020621" lon="10.9279989"><ele>169.0</ele><time>2026-04-06T11:10:27.909Z</time></trkpt><trkpt lat="43.8019426" lon="10.9279773"><ele>169.0</ele><time>2026-04-06T11:10:28.906Z</time></trkpt><trkpt lat="43.8018022" lon="10.9279651"><ele>168.0</ele><time>2026-04-06T11:10:29.912Z</time></trkpt><trkpt lat="43.8016718" lon="10.9279823"><ele>167.0</ele><time>2026-04-06T11:10:30.914Z</time></trkpt><trkpt lat="43.80157" lon="10.9279905"><ele>166.0</ele><time>2026-04-06T11:10:31.913Z</time></trkpt><trkpt lat="43.8014652" lon="10.9280566"><ele>165.0</ele><time>2026-04-06T11:10:32.916Z</time></trkpt><trkpt lat="43.8013784" lon="10.9281403"><ele>165.0</ele><time>2026-04-06T11:10:33.906Z</time></trkpt><trkpt lat="43.8013432" lon="10.9283266"><ele>165.0</ele><time>2026-04-06T11:10:34.913Z</time></trkpt><trkpt lat="43.8012888" lon="10.9284905"><ele>165.0</ele><time>2026-04-06T11:10:35.918Z</time></trkpt><trkpt lat="43.8012512" lon="10.9286527"><ele>165.0</ele><time>2026-04-06T11:10:36.913Z</time></trkpt><trkpt lat="43.8012932" lon="10.9288788"><ele>165.66666666666666</ele><time>2026-04-06T11:10:37.924Z</time></trkpt><trkpt lat="43.8013346" lon="10.9291026"><ele>166.33333333333331</ele><time>2026-04-06T11:10:38.912Z</time></trkpt><trkpt lat="43.8013479" lon="10.9293105"><ele>167.0</ele><time>2026-04-06T11:10:39.908Z</time></trkpt><trkpt lat="43.8013523" lon="10.9295229"><ele>165.33333333333331</ele><time>2026-04-06T11:10:40.916Z</time></trkpt><trkpt lat="43.8013649" lon="10.9297306"><ele>163.66666666666666</ele><time>2026-04-06T11:10:41.91Z</time></trkpt><trkpt lat="43.8013751" lon="10.9299412"><ele>162.0</ele><time>2026-04-06T11:10:42.908Z</time></trkpt><trkpt lat="43.801381" lon="10.9301602"><ele>162.0</ele><time>2026-04-06T11:10:43.906Z</time></trkpt><trkpt lat="43.801398" lon="10.9303459"><ele>162.0</ele><time>2026-04-06T11:10:44.918Z</time></trkpt><trkpt lat="43.8014064" lon="10.9305595"><ele>162.0</ele><time>2026-04-06T11:10:45.909Z</time></trkpt><trkpt lat="43.8014" lon="10.9306721"><ele>162.0</ele><time>2026-04-06T11:10:46.908Z</time></trkpt><trkpt lat="43.8013665" lon="10.9308043"><ele>161.6</ele><time>2026-04-06T11:10:47.91Z</time></trkpt><trkpt lat="43.8013367" lon="10.9309176"><ele>161.2</ele><time>2026-04-06T11:10:48.923Z</time></trkpt><trkpt lat="43.8012885" lon="10.9310049"><ele>160.8</ele><time>2026-04-06T11:10:49.907Z</time></trkpt><trkpt lat="43.801224" lon="10.9310394"><ele>160.4</ele><time>2026-04-06T11:10:50.906Z</time></trkpt><trkpt lat="43.8011239" lon="10.9310608"><ele>160.0</ele><time>2026-04-06T11:10:51.905Z</time></trkpt><trkpt lat="43.8009513" lon="10.930958"><ele>160.0</ele><time>2026-04-06T11:10:53.911Z</time></trkpt><trkpt lat="43.8008882" lon="10.9308973"><ele>160.0</ele><time>2026-04-06T11:10:54.908Z</time></trkpt><trkpt lat="43.8007909" lon="10.9308021"><ele>160.0</ele><time>2026-04-06T11:10:55.904Z</time></trkpt><trkpt lat="43.8007351" lon="10.9305216"><ele>160.0</ele><time>2026-04-06T11:10:56.911Z</time></trkpt><trkpt lat="43.8006727" lon="10.9303585"><ele>159.0</ele><time>2026-04-06T11:10:57.909Z</time></trkpt><trkpt lat="43.8005856" lon="10.9302416"><ele>158.0</ele><time>2026-04-06T11:10:58.906Z</time></trkpt><trkpt lat="43.8005047" lon="10.9301574"><ele>157.0</ele><time>2026-04-06T11:10:59.906Z</time></trkpt><trkpt lat="43.8004122" lon="10.9300591"><ele>156.0</ele><time>2026-04-06T11:11:00.91Z</time></trkpt><trkpt lat="43.8003066" lon="10.9299881"><ele>154.0</ele><time>2026-04-06T11:11:01.905Z</time></trkpt><trkpt lat="43.8002232" lon="10.9299308"><ele>152.0</ele><time>2026-04-06T11:11:02.909Z</time></trkpt><trkpt lat="43.8001583" lon="10.929904"><ele>150.0</ele><time>2026-04-06T11:11:03.903Z</time></trkpt><trkpt lat="43.800061" lon="10.9299286"><ele>148.0</ele><time>2026-04-06T11:11:04.909Z</time></trkpt><trkpt lat="43.7999435" lon="10.9300651"><ele>146.0</ele><time>2026-04-06T11:11:06.92Z</time></trkpt><trkpt lat="43.7999131" lon="10.9302289"><ele>145.75</ele><time>2026-04-06T11:11:07.915Z</time></trkpt><trkpt lat="43.7999476" lon="10.930345"><ele>145.5</ele><time>2026-04-06T11:11:08.913Z</time></trkpt><trkpt lat="43.7999516" lon="10.930549"><ele>145.25</ele><time>2026-04-06T11:11:09.921Z</time></trkpt><trkpt lat="43.8000076" lon="10.9307492"><ele>145.0</ele><time>2026-04-06T11:11:10.907Z</time></trkpt><trkpt lat="43.80005" lon="10.9309375"><ele>143.0</ele><time>2026-04-06T11:11:11.913Z</time></trkpt><trkpt lat="43.8001167" lon="10.9310948"><ele>141.0</ele><time>2026-04-06T11:11:12.919Z</time></trkpt><trkpt lat="43.8002299" lon="10.931228"><ele>139.0</ele><time>2026-04-06T11:11:13.907Z</time></trkpt><trkpt lat="43.8003232" lon="10.9313298"><ele>137.0</ele><time>2026-04-06T11:11:14.909Z</time></trkpt><trkpt lat="43.8004237" lon="10.9314945"><ele>142.5</ele><time>2026-04-06T11:11:15.907Z</time></trkpt><trkpt lat="43.8004767" lon="10.9316589"><ele>148.0</ele><time>2026-04-06T11:11:16.907Z</time></trkpt><trkpt lat="43.8004998" lon="10.9318417"><ele>153.5</ele><time>2026-04-06T11:11:17.911Z</time></trkpt><trkpt lat="43.8005182" lon="10.932043"><ele>159.0</ele><time>2026-04-06T11:11:18.905Z</time></trkpt><trkpt lat="43.8005116" lon="10.9322444"><ele>159.0</ele><time>2026-04-06T11:11:19.907Z</time></trkpt><trkpt lat="43.8004916" lon="10.932452"><ele>159.0</ele><time>2026-04-06T11:11:20.907Z</time></trkpt><trkpt lat="43.8004819" lon="10.9326511"><ele>159.0</ele><time>2026-04-06T11:11:21.901Z</time></trkpt><trkpt lat="43.8004708" lon="10.9328256"><ele>159.0</ele><time>2026-04-06T11:11:22.904Z</time></trkpt><trkpt lat="43.8004754" lon="10.9330077"><ele>158.66666666666666</ele><time>2026-04-06T11:11:23.909Z</time></trkpt><trkpt lat="43.8004538" lon="10.9331312"><ele>158.33333333333334</ele><time>2026-04-06T11:11:24.907Z</time></trkpt><trkpt lat="43.8004304" lon="10.9332523"><ele>158.0</ele><time>2026-04-06T11:11:25.91Z</time></trkpt><trkpt lat="43.8003845" lon="10.9333304"><ele>157.66666666666669</ele><time>2026-04-06T11:11:26.919Z</time></trkpt><trkpt lat="43.8003207" lon="10.9333833"><ele>157.33333333333334</ele><time>2026-04-06T11:11:27.906Z</time></trkpt><trkpt lat="43.8002187" lon="10.9333915"><ele>157.0</ele><time>2026-04-06T11:11:28.911Z</time></trkpt><trkpt lat="43.8001181" lon="10.9333706"><ele>155.79999999999998</ele><time>2026-04-06T11:11:29.912Z</time></trkpt><trkpt lat="43.8000252" lon="10.9333431"><ele>154.6</ele><time>2026-04-06T11:11:30.915Z</time></trkpt><trkpt lat="43.7999495" lon="10.9332988"><ele>153.39999999999998</ele><time>2026-04-06T11:11:31.914Z</time></trkpt><trkpt lat="43.7998832" lon="10.9331975"><ele>152.2</ele><time>2026-04-06T11:11:32.908Z</time></trkpt><trkpt lat="43.7998101" lon="10.9331051"><ele>151.0</ele><time>2026-04-06T11:11:33.909Z</time></trkpt><trkpt lat="43.7997737" lon="10.9328841"><ele>151.0</ele><time>2026-04-06T11:11:34.912Z</time></trkpt><trkpt lat="43.7997738" lon="10.9326894"><ele>151.0</ele><time>2026-04-06T11:11:35.917Z</time></trkpt><trkpt lat="43.7997474" lon="10.9325518"><ele>151.0</ele><time>2026-04-06T11:11:36.907Z</time></trkpt><trkpt lat="43.7996857" lon="10.9323784"><ele>151.0</ele><time>2026-04-06T11:11:37.907Z</time></trkpt><trkpt lat="43.799582" lon="10.932229"><ele>149.25</ele><time>2026-04-06T11:11:38.905Z</time></trkpt><trkpt lat="43.7994991" lon="10.9321517"><ele>147.5</ele><time>2026-04-06T11:11:39.909Z</time></trkpt><trkpt lat="43.7993835" lon="10.9320593"><ele>145.75</ele><time>2026-04-06T11:11:40.909Z</time></trkpt><trkpt lat="43.7992924" lon="10.9319507"><ele>144.0</ele><time>2026-04-06T11:11:41.908Z</time></trkpt><trkpt lat="43.7991423" lon="10.9317632"><ele>146.33333333333334</ele><time>2026-04-06T11:11:42.907Z</time></trkpt><trkpt lat="43.7990402" lon="10.9316304"><ele>148.66666666666669</ele><time>2026-04-06T11:11:43.913Z</time></trkpt><trkpt lat="43.7989816" lon="10.9313951"><ele>151.0</ele><time>2026-04-06T11:11:44.909Z</time></trkpt><trkpt lat="43.7990006" lon="10.9311921"><ele>151.0</ele><time>2026-04-06T11:11:45.907Z</time></trkpt><trkpt lat="43.7989491" lon="10.9309898"><ele>151.0</ele><time>2026-04-06T11:11:46.913Z</time></trkpt><trkpt lat="43.7989009" lon="10.9307709"><ele>151.0</ele><time>2026-04-06T11:11:47.908Z</time></trkpt><trkpt lat="43.7988593" lon="10.9305828"><ele>146.66666666666669</ele><time>2026-04-06T11:11:48.907Z</time></trkpt><trkpt lat="43.7987982" lon="10.9303732"><ele>142.33333333333334</ele><time>2026-04-06T11:11:49.908Z</time></trkpt><trkpt lat="43.7987968" lon="10.9301473"><ele>138.0</ele><time>2026-04-06T11:11:50.911Z</time></trkpt><trkpt lat="43.79875" lon="10.9299432"><ele>135.0</ele><time>2026-04-06T11:11:51.911Z</time></trkpt><trkpt lat="43.7986731" lon="10.9296538"><ele>132.0</ele><time>2026-04-06T11:11:52.909Z</time></trkpt><trkpt lat="43.7986133" lon="10.9294679"><ele>129.0</ele><time>2026-04-06T11:11:53.913Z</time></trkpt><trkpt lat="43.7985624" lon="10.9293582"><ele>129.33333333333334</ele><time>2026-04-06T11:11:54.907Z</time></trkpt><trkpt lat="43.7984979" lon="10.9291432"><ele>129.66666666666669</ele><time>2026-04-06T11:11:55.908Z</time></trkpt><trkpt lat="43.7984202" lon="10.928933"><ele>130.0</ele><time>2026-04-06T11:11:56.91Z</time></trkpt><trkpt lat="43.7983107" lon="10.9287878"><ele>130.0</ele><time>2026-04-06T11:11:57.913Z</time></trkpt><trkpt lat="43.7982058" lon="10.9286437"><ele>130.0</ele><time>2026-04-06T11:11:58.915Z</time></trkpt><trkpt lat="43.7980623" lon="10.9285276"><ele>130.0</ele><time>2026-04-06T11:11:59.913Z</time></trkpt><trkpt lat="43.7980062" lon="10.9284375"><ele>130.0</ele><time>2026-04-06T11:12:00.909Z</time></trkpt><trkpt lat="43.7979062" lon="10.9283124"><ele>129.0</ele><time>2026-04-06T11:12:01.908Z</time></trkpt><trkpt lat="43.7978288" lon="10.9282579"><ele>128.0</ele><time>2026-04-06T11:12:02.911Z</time></trkpt><trkpt lat="43.7977357" lon="10.9282527"><ele>127.0</ele><time>2026-04-06T11:12:03.909Z</time></trkpt><trkpt lat="43.7976517" lon="10.9282688"><ele>126.0</ele><time>2026-04-06T11:12:04.909Z</time></trkpt><trkpt lat="43.797542" lon="10.9283633"><ele>125.0</ele><time>2026-04-06T11:12:05.911Z</time></trkpt><trkpt lat="43.7974457" lon="10.9284581"><ele>125.0</ele><time>2026-04-06T11:12:06.919Z</time></trkpt><trkpt lat="43.7973632" lon="10.928529"><ele>125.0</ele><time>2026-04-06T11:12:07.907Z</time></trkpt><trkpt lat="43.7972338" lon="10.9285743"><ele>125.0</ele><time>2026-04-06T11:12:09.908Z</time></trkpt><trkpt lat="43.7971615" lon="10.9284633"><ele>125.0</ele><time>2026-04-06T11:12:10.905Z</time></trkpt><trkpt lat="43.7970768" lon="10.928418"><ele>125.0</ele><time>2026-04-06T11:12:11.905Z</time></trkpt><trkpt lat="43.7970053" lon="10.9283927"><ele>125.0</ele><time>2026-04-06T11:12:12.91Z</time></trkpt><trkpt lat="43.7968603" lon="10.928335"><ele>125.0</ele><time>2026-04-06T11:12:13.907Z</time></trkpt><trkpt lat="43.7967564" lon="10.9282899"><ele>125.0</ele><time>2026-04-06T11:12:14.908Z</time></trkpt><trkpt lat="43.7966589" lon="10.9282722"><ele>125.0</ele><time>2026-04-06T11:12:15.911Z</time></trkpt><trkpt lat="43.796546" lon="10.9282553"><ele>125.0</ele><time>2026-04-06T11:12:16.907Z</time></trkpt><trkpt lat="43.7963592" lon="10.9282722"><ele>125.0</ele><time>2026-04-06T11:12:17.906Z</time></trkpt><trkpt lat="43.7962526" lon="10.9282638"><ele>125.0</ele><time>2026-04-06T11:12:18.909Z</time></trkpt><trkpt lat="43.7961054" lon="10.9284039"><ele>126.0</ele><time>2026-04-06T11:12:19.91Z</time></trkpt><trkpt lat="43.7959763" lon="10.928499"><ele>127.0</ele><time>2026-04-06T11:12:20.908Z</time></trkpt><trkpt lat="43.795829" lon="10.9286157"><ele>128.0</ele><time>2026-04-06T11:12:21.907Z</time></trkpt><trkpt lat="43.7956937" lon="10.9286855"><ele>128.0</ele><time>2026-04-06T11:12:22.907Z</time></trkpt><trkpt lat="43.7955046" lon="10.9287934"><ele>128.0</ele><time>2026-04-06T11:12:23.912Z</time></trkpt><trkpt lat="43.7954439" lon="10.9288445"><ele>128.0</ele><time>2026-04-06T11:12:24.906Z</time></trkpt><trkpt lat="43.7953315" lon="10.9288835"><ele>128.0</ele><time>2026-04-06T11:12:25.91Z</time></trkpt><trkpt lat="43.7952126" lon="10.9288847"><ele>126.5</ele><time>2026-04-06T11:12:26.91Z</time></trkpt><trkpt lat="43.7951175" lon="10.9288662"><ele>125.0</ele><time>2026-04-06T11:12:27.907Z</time></trkpt><trkpt lat="43.7950124" lon="10.9288169"><ele>123.5</ele><time>2026-04-06T11:12:28.912Z</time></trkpt><trkpt lat="43.7949118" lon="10.9287311"><ele>122.0</ele><time>2026-04-06T11:12:29.91Z</time></trkpt><trkpt lat="43.7947927" lon="10.9286663"><ele>122.0</ele><time>2026-04-06T11:12:30.907Z</time></trkpt><trkpt lat="43.7946937" lon="10.9286116"><ele>122.0</ele><time>2026-04-06T11:12:31.909Z</time></trkpt><trkpt lat="43.794581" lon="10.928529"><ele>122.0</ele><time>2026-04-06T11:12:32.91Z</time></trkpt><trkpt lat="43.7944624" lon="10.9284431"><ele>122.0</ele><time>2026-04-06T11:12:33.906Z</time></trkpt><trkpt lat="43.7943411" lon="10.9284015"><ele>120.25</ele><time>2026-04-06T11:12:34.912Z</time></trkpt><trkpt lat="43.7942281" lon="10.9283588"><ele>118.5</ele><time>2026-04-06T11:12:35.908Z</time></trkpt><trkpt lat="43.7941303" lon="10.9283485"><ele>116.75</ele><time>2026-04-06T11:12:36.907Z</time></trkpt><trkpt lat="43.7939829" lon="10.928344"><ele>115.0</ele><time>2026-04-06T11:12:37.912Z</time></trkpt><trkpt lat="43.793821" lon="10.9284083"><ele>113.75</ele><time>2026-04-06T11:12:38.916Z</time></trkpt><trkpt lat="43.7937048" lon="10.9283932"><ele>112.5</ele><time>2026-04-06T11:12:39.908Z</time></trkpt><trkpt lat="43.7935705" lon="10.9284336"><ele>111.25</ele><time>2026-04-06T11:12:40.916Z</time></trkpt><trkpt lat="43.793445" lon="10.9284467"><ele>110.0</ele><time>2026-04-06T11:12:41.911Z</time></trkpt><trkpt lat="43.7932967" lon="10.9284755"><ele>108.5</ele><time>2026-04-06T11:12:42.907Z</time></trkpt><trkpt lat="43.7931653" lon="10.9284752"><ele>107.0</ele><time>2026-04-06T11:12:43.909Z</time></trkpt><trkpt lat="43.7930343" lon="10.9284625"><ele>105.5</ele><time>2026-04-06T11:12:44.908Z</time></trkpt><trkpt lat="43.7929048" lon="10.9284294"><ele>104.0</ele><time>2026-04-06T11:12:45.908Z</time></trkpt><trkpt lat="43.792777" lon="10.9284294"><ele>103.0</ele><time>2026-04-06T11:12:46.913Z</time></trkpt><trkpt lat="43.792665" lon="10.928462"><ele>102.0</ele><time>2026-04-06T11:12:47.905Z</time></trkpt><trkpt lat="43.7925804" lon="10.9284794"><ele>101.0</ele><time>2026-04-06T11:12:48.906Z</time></trkpt><trkpt lat="43.7924385" lon="10.9286162"><ele>100.0</ele><time>2026-04-06T11:12:49.92Z</time></trkpt><trkpt lat="43.7923141" lon="10.9287265"><ele>100.0</ele><time>2026-04-06T11:12:50.938Z</time></trkpt><trkpt lat="43.7922041" lon="10.9287994"><ele>100.0</ele><time>2026-04-06T11:12:51.906Z</time></trkpt><trkpt lat="43.7920548" lon="10.9288643"><ele>100.0</ele><time>2026-04-06T11:12:52.908Z</time></trkpt><trkpt lat="43.7919174" lon="10.9289051"><ele>100.0</ele><time>2026-04-06T11:12:53.904Z</time></trkpt><trkpt lat="43.7917856" lon="10.9289603"><ele>100.0</ele><time>2026-04-06T11:12:54.906Z</time></trkpt><trkpt lat="43.7916554" lon="10.9289756"><ele>100.0</ele><time>2026-04-06T11:12:55.925Z</time></trkpt><trkpt lat="43.7915203" lon="10.9289721"><ele>100.0</ele><time>2026-04-06T11:12:56.91Z</time></trkpt><trkpt lat="43.7913895" lon="10.9290031"><ele>100.0</ele><time>2026-04-06T11:12:57.911Z</time></trkpt><trkpt lat="43.7912492" lon="10.9290627"><ele>100.0</ele><time>2026-04-06T11:12:58.91Z</time></trkpt><trkpt lat="43.7911157" lon="10.929111"><ele>100.0</ele><time>2026-04-06T11:12:59.907Z</time></trkpt><trkpt lat="43.7909831" lon="10.9291273"><ele>100.0</ele><time>2026-04-06T11:13:00.91Z</time></trkpt><trkpt lat="43.7908609" lon="10.9291527"><ele>100.0</ele><time>2026-04-06T11:13:01.917Z</time></trkpt><trkpt lat="43.7907553" lon="10.9291624"><ele>99.25</ele><time>2026-04-06T11:13:02.909Z</time></trkpt><trkpt lat="43.7906729" lon="10.9291709"><ele>98.5</ele><time>2026-04-06T11:13:03.909Z</time></trkpt><trkpt lat="43.7905865" lon="10.9291726"><ele>97.75</ele><time>2026-04-06T11:13:04.912Z</time></trkpt><trkpt lat="43.7904831" lon="10.9291321"><ele>97.0</ele><time>2026-04-06T11:13:06.907Z</time></trkpt><trkpt lat="43.790302" lon="10.9290845"><ele>97.0</ele><time>2026-04-06T11:14:25.906Z</time></trkpt><trkpt lat="43.7902374" lon="10.929052"><ele>97.0</ele><time>2026-04-06T11:14:26.919Z</time></trkpt><trkpt lat="43.7901254" lon="10.9290186"><ele>97.0</ele><time>2026-04-06T11:14:28.905Z</time></trkpt><trkpt lat="43.7900139" lon="10.9290143"><ele>97.0</ele><time>2026-04-06T11:14:30.901Z</time></trkpt><trkpt lat="43.7899459" lon="10.9290042"><ele>97.0</ele><time>2026-04-06T11:14:31.902Z</time></trkpt><trkpt lat="43.7898145" lon="10.9289667"><ele>96.16666666666667</ele><time>2026-04-06T11:14:33.906Z</time></trkpt><trkpt lat="43.789752" lon="10.9289485"><ele>95.33333333333334</ele><time>2026-04-06T11:14:34.91Z</time></trkpt><trkpt lat="43.7896337" lon="10.9288987"><ele>94.5</ele><time>2026-04-06T11:14:36.907Z</time></trkpt><trkpt lat="43.7895683" lon="10.9288895"><ele>93.66666666666667</ele><time>2026-04-06T11:14:37.91Z</time></trkpt><trkpt lat="43.7894975" lon="10.9289375"><ele>92.83333333333334</ele><time>2026-04-06T11:14:38.908Z</time></trkpt><trkpt lat="43.7894185" lon="10.9289074"><ele>92.0</ele><time>2026-04-06T11:14:39.919Z</time></trkpt><trkpt lat="43.7892898" lon="10.9288596"><ele>91.0</ele><time>2026-04-06T11:14:41.906Z</time></trkpt><trkpt lat="43.7892388" lon="10.9287904"><ele>90.0</ele><time>2026-04-06T11:14:42.912Z</time></trkpt><trkpt lat="43.7891565" lon="10.9286906"><ele>89.0</ele><time>2026-04-06T11:14:44.909Z</time></trkpt><trkpt lat="43.789113" lon="10.928612"><ele>88.0</ele><time>2026-04-06T11:14:45.908Z</time></trkpt><trkpt lat="43.7890428" lon="10.9285197"><ele>87.0</ele><time>2026-04-06T11:14:47.91Z</time></trkpt><trkpt lat="43.7889902" lon="10.9284338"><ele>86.0</ele><time>2026-04-06T11:14:49.906Z</time></trkpt><trkpt lat="43.7889408" lon="10.9283642"><ele>86.0</ele><time>2026-04-06T11:14:51.907Z</time></trkpt><trkpt lat="43.7888593" lon="10.9282377"><ele>86.0</ele><time>2026-04-06T11:14:53.906Z</time></trkpt><trkpt lat="43.7888123" lon="10.9281746"><ele>86.0</ele><time>2026-04-06T11:14:54.907Z</time></trkpt><trkpt lat="43.7887911" lon="10.9280775"><ele>86.0</ele><time>2026-04-06T11:14:55.913Z</time></trkpt><trkpt lat="43.788733" lon="10.9280053"><ele>86.0</ele><time>2026-04-06T11:14:56.908Z</time></trkpt><trkpt lat="43.7886791" lon="10.9279358"><ele>86.0</ele><time>2026-04-06T11:14:57.911Z</time></trkpt><trkpt lat="43.7886406" lon="10.9278509"><ele>86.0</ele><time>2026-04-06T11:14:58.911Z</time></trkpt><trkpt lat="43.7885951" lon="10.9277702"><ele>86.0</ele><time>2026-04-06T11:14:59.91Z</time></trkpt><trkpt lat="43.7885094" lon="10.9276479"><ele>86.0</ele><time>2026-04-06T11:15:01.91Z</time></trkpt><trkpt lat="43.7884686" lon="10.9275813"><ele>86.0</ele><time>2026-04-06T11:15:02.907Z</time></trkpt><trkpt lat="43.7884231" lon="10.9275077"><ele>86.0</ele><time>2026-04-06T11:15:03.908Z</time></trkpt><trkpt lat="43.7883771" lon="10.9274394"><ele>86.0</ele><time>2026-04-06T11:15:04.912Z</time></trkpt><trkpt lat="43.7883312" lon="10.9273574"><ele>86.8</ele><time>2026-04-06T11:15:05.907Z</time></trkpt><trkpt lat="43.7882804" lon="10.9272766"><ele>87.6</ele><time>2026-04-06T11:15:06.911Z</time></trkpt><trkpt lat="43.7881802" lon="10.9271329"><ele>88.4</ele><time>2026-04-06T11:15:08.906Z</time></trkpt><trkpt lat="43.7881269" lon="10.9270705"><ele>89.2</ele><time>2026-04-06T11:15:09.912Z</time></trkpt><trkpt lat="43.7880651" lon="10.9269995"><ele>90.0</ele><time>2026-04-06T11:15:10.909Z</time></trkpt><trkpt lat="43.7879743" lon="10.9268793"><ele>90.0</ele><time>2026-04-06T11:15:12.908Z</time></trkpt><trkpt lat="43.787902" lon="10.9268532"><ele>90.0</ele><time>2026-04-06T11:15:13.91Z</time></trkpt><trkpt lat="43.787797" lon="10.9267884"><ele>90.0</ele><time>2026-04-06T11:15:15.907Z</time></trkpt><trkpt lat="43.7876942" lon="10.9267294"><ele>90.0</ele><time>2026-04-06T11:15:17.916Z</time></trkpt><trkpt lat="43.787622" lon="10.926658"><ele>90.0</ele><time>2026-04-06T11:15:19.907Z</time></trkpt><trkpt lat="43.7875592" lon="10.9265974"><ele>89.5</ele><time>2026-04-06T11:15:21.905Z</time></trkpt><trkpt lat="43.7874823" lon="10.9265777"><ele>89.0</ele><time>2026-04-06T11:15:28.902Z</time></trkpt><trkpt lat="43.7873985" lon="10.9265381"><ele>88.5</ele><time>2026-04-06T11:15:31.906Z</time></trkpt><trkpt lat="43.7873317" lon="10.9265078"><ele>88.0</ele><time>2026-04-06T11:15:34.907Z</time></trkpt><trkpt lat="43.7872458" lon="10.926467"><ele>87.5</ele><time>2026-04-06T11:15:37.907Z</time></trkpt><trkpt lat="43.7871818" lon="10.9264432"><ele>87.0</ele><time>2026-04-06T11:15:39.907Z</time></trkpt><trkpt lat="43.7871008" lon="10.9264234"><ele>87.0</ele><time>2026-04-06T11:15:42.921Z</time></trkpt><trkpt lat="43.7870378" lon="10.9264533"><ele>87.0</ele><time>2026-04-06T11:15:52.901Z</time></trkpt><trkpt lat="43.7869608" lon="10.9264632"><ele>87.0</ele><time>2026-04-06T11:16:29.908Z</time></trkpt><trkpt lat="43.786877" lon="10.9264599"><ele>87.0</ele><time>2026-04-06T11:16:31.909Z</time></trkpt><trkpt lat="43.7868075" lon="10.9264391"><ele>87.0</ele><time>2026-04-06T11:16:35.908Z</time></trkpt><trkpt lat="43.7867463" lon="10.9264682"><ele>87.0</ele><time>2026-04-06T11:16:37.915Z</time></trkpt><trkpt lat="43.7866654" lon="10.9264847"><ele>87.0</ele><time>2026-04-06T11:16:39.906Z</time></trkpt><trkpt lat="43.7865925" lon="10.9265815"><ele>87.16666666666667</ele><time>2026-04-06T11:16:41.904Z</time></trkpt><trkpt lat="43.7865599" lon="10.9266582"><ele>87.33333333333333</ele><time>2026-04-06T11:16:42.906Z</time></trkpt><trkpt lat="43.7864908" lon="10.9266956"><ele>87.5</ele><time>2026-04-06T11:16:43.916Z</time></trkpt><trkpt lat="43.7864299" lon="10.926822"><ele>87.66666666666666</ele><time>2026-04-06T11:16:45.905Z</time></trkpt><trkpt lat="43.7864512" lon="10.9269173"><ele>87.83333333333333</ele><time>2026-04-06T11:16:46.91Z</time></trkpt><trkpt lat="43.7864463" lon="10.9270162"><ele>88.0</ele><time>2026-04-06T11:16:49.905Z</time></trkpt><trkpt lat="43.7865615" lon="10.9271353"><ele>88.25</ele><time>2026-04-06T11:16:51.905Z</time></trkpt><trkpt lat="43.7866436" lon="10.9271947"><ele>88.5</ele><time>2026-04-06T11:16:52.91Z</time></trkpt><trkpt lat="43.7867817" lon="10.9272592"><ele>88.75</ele><time>2026-04-06T11:16:53.911Z</time></trkpt><trkpt lat="43.7869177" lon="10.9273776"><ele>89.0</ele><time>2026-04-06T11:16:54.91Z</time></trkpt><trkpt lat="43.7870296" lon="10.927471"><ele>83.33333333333334</ele><time>2026-04-06T11:16:55.909Z</time></trkpt><trkpt lat="43.7871671" lon="10.9275619"><ele>77.66666666666667</ele><time>2026-04-06T11:16:56.912Z</time></trkpt><trkpt lat="43.7873179" lon="10.927626"><ele>72.0</ele><time>2026-04-06T11:16:57.909Z</time></trkpt><trkpt lat="43.7874473" lon="10.9277552"><ele>72.0</ele><time>2026-04-06T11:16:58.919Z</time></trkpt><trkpt lat="43.7876068" lon="10.92783"><ele>72.0</ele><time>2026-04-06T11:16:59.909Z</time></trkpt><trkpt lat="43.7877369" lon="10.9279183"><ele>72.0</ele><time>2026-04-06T11:17:00.913Z</time></trkpt><trkpt lat="43.7878618" lon="10.9280086"><ele>74.5</ele><time>2026-04-06T11:17:01.906Z</time></trkpt><trkpt lat="43.7879879" lon="10.9280857"><ele>77.0</ele><time>2026-04-06T11:17:02.905Z</time></trkpt><trkpt lat="43.7881134" lon="10.928152"><ele>79.5</ele><time>2026-04-06T11:17:03.908Z</time></trkpt><trkpt lat="43.7882155" lon="10.9281988"><ele>82.0</ele><time>2026-04-06T11:17:04.906Z</time></trkpt><trkpt lat="43.7883301" lon="10.9282403"><ele>82.0</ele><time>2026-04-06T11:17:05.913Z</time></trkpt><trkpt lat="43.7884433" lon="10.9282757"><ele>82.0</ele><time>2026-04-06T11:17:06.912Z</time></trkpt><trkpt lat="43.7885361" lon="10.928313"><ele>82.0</ele><time>2026-04-06T11:17:07.903Z</time></trkpt><trkpt lat="43.7886387" lon="10.9283499"><ele>82.0</ele><time>2026-04-06T11:17:08.903Z</time></trkpt><trkpt lat="43.7887392" lon="10.9283264"><ele>82.0</ele><time>2026-04-06T11:17:09.904Z</time></trkpt><trkpt lat="43.7888104" lon="10.9283549"><ele>82.66666666666666</ele><time>2026-04-06T11:17:10.911Z</time></trkpt><trkpt lat="43.788904" lon="10.9283729"><ele>83.33333333333333</ele><time>2026-04-06T11:17:12.912Z</time></trkpt><trkpt lat="43.7888858" lon="10.9282491"><ele>84.0</ele><time>2026-04-06T11:17:14.914Z</time></trkpt><trkpt lat="43.7888265" lon="10.9281722"><ele>84.66666666666667</ele><time>2026-04-06T11:17:15.92Z</time></trkpt><trkpt lat="43.7887845" lon="10.9280972"><ele>85.33333333333334</ele><time>2026-04-06T11:17:17.9Z</time></trkpt><trkpt lat="43.7887124" lon="10.9279968"><ele>86.0</ele><time>2026-04-06T11:17:19.911Z</time></trkpt><trkpt lat="43.788642" lon="10.9278943"><ele>86.0</ele><time>2026-04-06T11:17:21.908Z</time></trkpt><trkpt lat="43.7885842" lon="10.9278338"><ele>86.0</ele><time>2026-04-06T11:17:24.909Z</time></trkpt><trkpt lat="43.7885438" lon="10.9277645"><ele>86.0</ele><time>2026-04-06T11:17:26.91Z</time></trkpt><trkpt lat="43.788502" lon="10.9276802"><ele>86.0</ele><time>2026-04-06T11:17:28.91Z</time></trkpt><trkpt lat="43.7884389" lon="10.9275773"><ele>86.0</ele><time>2026-04-06T11:17:30.911Z</time></trkpt><trkpt lat="43.7883524" lon="10.927474"><ele>86.0</ele><time>2026-04-06T11:17:32.914Z</time></trkpt><trkpt lat="43.7882832" lon="10.9273692"><ele>86.8</ele><time>2026-04-06T11:17:34.908Z</time></trkpt><trkpt lat="43.7882022" lon="10.9272448"><ele>87.6</ele><time>2026-04-06T11:17:36.912Z</time></trkpt><trkpt lat="43.7881688" lon="10.9271646"><ele>88.4</ele><time>2026-04-06T11:17:37.908Z</time></trkpt><trkpt lat="43.7881013" lon="10.9270323"><ele>89.2</ele><time>2026-04-06T11:17:39.913Z</time></trkpt><trkpt lat="43.7880288" lon="10.9269628"><ele>90.0</ele><time>2026-04-06T11:17:42.913Z</time></trkpt><trkpt lat="43.7879639" lon="10.9269103"><ele>90.0</ele><time>2026-04-06T11:17:44.912Z</time></trkpt><trkpt lat="43.7878914" lon="10.9268306"><ele>90.0</ele><time>2026-04-06T11:17:46.908Z</time></trkpt><trkpt lat="43.7878163" lon="10.9267728"><ele>90.0</ele><time>2026-04-06T11:17:48.911Z</time></trkpt><trkpt lat="43.7877473" lon="10.9267324"><ele>90.0</ele><time>2026-04-06T11:17:50.908Z</time></trkpt><trkpt lat="43.7877027" lon="10.9266704"><ele>90.0</ele><time>2026-04-06T11:17:52.905Z</time></trkpt><trkpt lat="43.787626" lon="10.9266195"><ele>90.0</ele><time>2026-04-06T11:17:55.905Z</time></trkpt><trkpt lat="43.7875317" lon="10.9266013"><ele>89.5</ele><time>2026-04-06T11:18:35.912Z</time></trkpt><trkpt lat="43.7874547" lon="10.9265888"><ele>89.0</ele><time>2026-04-06T11:18:37.904Z</time></trkpt><trkpt lat="43.7873821" lon="10.9265653"><ele>88.5</ele><time>2026-04-06T11:18:40.914Z</time></trkpt><trkpt lat="43.7873022" lon="10.9265261"><ele>88.0</ele><time>2026-04-06T11:18:44.904Z</time></trkpt><trkpt lat="43.7871997" lon="10.9264647"><ele>87.5</ele><time>2026-04-06T11:18:46.909Z</time></trkpt><trkpt lat="43.7871149" lon="10.9264322"><ele>87.0</ele><time>2026-04-06T11:18:48.907Z</time></trkpt><trkpt lat="43.7870395" lon="10.9264407"><ele>87.0</ele><time>2026-04-06T11:18:50.905Z</time></trkpt><trkpt lat="43.7868913" lon="10.926493"><ele>87.0</ele><time>2026-04-06T11:18:52.913Z</time></trkpt><trkpt lat="43.7868308" lon="10.9265247"><ele>87.0</ele><time>2026-04-06T11:18:53.913Z</time></trkpt><trkpt lat="43.786721" lon="10.9265503"><ele>87.0</ele><time>2026-04-06T11:18:55.917Z</time></trkpt><trkpt lat="43.7866703" lon="10.9266072"><ele>87.0</ele><time>2026-04-06T11:18:56.904Z</time></trkpt><trkpt lat="43.7866067" lon="10.9266795"><ele>85.33333333333333</ele><time>2026-04-06T11:18:57.906Z</time></trkpt><trkpt lat="43.7865531" lon="10.9267584"><ele>83.66666666666667</ele><time>2026-04-06T11:18:58.906Z</time></trkpt><trkpt lat="43.7864882" lon="10.9267812"><ele>82.0</ele><time>2026-04-06T11:18:59.902Z</time></trkpt><trkpt lat="43.7864471" lon="10.9268772"><ele>80.33333333333334</ele><time>2026-04-06T11:19:01.909Z</time></trkpt><trkpt lat="43.7863959" lon="10.9269353"><ele>78.66666666666667</ele><time>2026-04-06T11:19:04.903Z</time></trkpt><trkpt lat="43.7864226" lon="10.9270254"><ele>77.0</ele><time>2026-04-06T11:19:06.901Z</time></trkpt><trkpt lat="43.7865568" lon="10.9271314"><ele>77.0</ele><time>2026-04-06T11:19:08.909Z</time></trkpt><trkpt lat="43.7866923" lon="10.9271887"><ele>77.0</ele><time>2026-04-06T11:19:09.916Z</time></trkpt><trkpt lat="43.7868613" lon="10.9272967"><ele>77.0</ele><time>2026-04-06T11:19:10.903Z</time></trkpt><trkpt lat="43.7869751" lon="10.9273943"><ele>75.33333333333334</ele><time>2026-04-06T11:19:11.904Z</time></trkpt><trkpt lat="43.7871194" lon="10.927532"><ele>73.66666666666667</ele><time>2026-04-06T11:19:12.914Z</time></trkpt><trkpt lat="43.7872751" lon="10.9276375"><ele>72.0</ele><time>2026-04-06T11:19:13.901Z</time></trkpt><trkpt lat="43.7874204" lon="10.927734"><ele>72.0</ele><time>2026-04-06T11:19:14.906Z</time></trkpt><trkpt lat="43.7875289" lon="10.9278194"><ele>72.0</ele><time>2026-04-06T11:19:15.905Z</time></trkpt><trkpt lat="43.7876486" lon="10.9278925"><ele>72.0</ele><time>2026-04-06T11:19:16.908Z</time></trkpt><trkpt lat="43.7877957" lon="10.927968"><ele>72.0</ele><time>2026-04-06T11:19:17.903Z</time></trkpt><trkpt lat="43.787926" lon="10.9280406"><ele>74.5</ele><time>2026-04-06T11:19:18.906Z</time></trkpt><trkpt lat="43.788038" lon="10.928123"><ele>77.0</ele><time>2026-04-06T11:19:19.913Z</time></trkpt><trkpt lat="43.7881423" lon="10.9281871"><ele>79.5</ele><time>2026-04-06T11:19:20.909Z</time></trkpt><trkpt lat="43.7882682" lon="10.9282265"><ele>82.0</ele><time>2026-04-06T11:19:21.91Z</time></trkpt><trkpt lat="43.788388" lon="10.9282588"><ele>82.8</ele><time>2026-04-06T11:19:22.914Z</time></trkpt><trkpt lat="43.7885182" lon="10.9282873"><ele>83.6</ele><time>2026-04-06T11:19:23.906Z</time></trkpt><trkpt lat="43.788634" lon="10.9282979"><ele>84.39999999999999</ele><time>2026-04-06T11:19:24.9Z</time></trkpt><trkpt lat="43.7887071" lon="10.9283071"><ele>85.19999999999999</ele><time>2026-04-06T11:19:25.917Z</time></trkpt><trkpt lat="43.7887889" lon="10.9283441"><ele>86.0</ele><time>2026-04-06T11:19:27.911Z</time></trkpt><trkpt lat="43.7888449" lon="10.9282918"><ele>86.0</ele><time>2026-04-06T11:19:30.905Z</time></trkpt><trkpt lat="43.78881" lon="10.9281929"><ele>86.0</ele><time>2026-04-06T11:19:31.909Z</time></trkpt><trkpt lat="43.7887798" lon="10.9280694"><ele>86.0</ele><time>2026-04-06T11:19:33.91Z</time></trkpt><trkpt lat="43.7887175" lon="10.9279755"><ele>86.0</ele><time>2026-04-06T11:19:34.91Z</time></trkpt><trkpt lat="43.788664" lon="10.9279058"><ele>86.0</ele><time>2026-04-06T11:19:35.902Z</time></trkpt><trkpt lat="43.7886247" lon="10.9278098"><ele>86.0</ele><time>2026-04-06T11:19:37.905Z</time></trkpt><trkpt lat="43.7885882" lon="10.927711"><ele>86.0</ele><time>2026-04-06T11:19:39.904Z</time></trkpt></trkseg><trkseg><trkpt lat="43.7886933" lon="10.9277934"><ele>86.0</ele><time>2026-04-06T12:32:38.761Z</time></trkpt><trkpt lat="43.788609" lon="10.9276919"><ele>86.0</ele><time>2026-04-06T12:34:38.759Z</time></trkpt><trkpt lat="43.7885292" lon="10.927547"><ele>86.0</ele><time>2026-04-06T12:34:40.764Z</time></trkpt><trkpt lat="43.7884671" lon="10.9274823"><ele>86.0</ele><time>2026-04-06T12:34:41.749Z</time></trkpt><trkpt lat="43.7883444" lon="10.9273047"><ele>86.66666666666667</ele><time>2026-04-06T12:34:43.759Z</time></trkpt><trkpt lat="43.7882898" lon="10.9272104"><ele>87.33333333333334</ele><time>2026-04-06T12:34:44.754Z</time></trkpt><trkpt lat="43.7882387" lon="10.9271369"><ele>88.0</ele><time>2026-04-06T12:34:45.752Z</time></trkpt><trkpt lat="43.7881839" lon="10.9270148"><ele>88.66666666666667</ele><time>2026-04-06T12:34:47.751Z</time></trkpt><trkpt lat="43.7881019" lon="10.9269347"><ele>89.33333333333333</ele><time>2026-04-06T12:34:49.756Z</time></trkpt><trkpt lat="43.788031" lon="10.9268795"><ele>90.0</ele><time>2026-04-06T12:34:51.754Z</time></trkpt><trkpt lat="43.7879217" lon="10.9268286"><ele>90.0</ele><time>2026-04-06T12:34:53.755Z</time></trkpt><trkpt lat="43.7878277" lon="10.9267922"><ele>90.0</ele><time>2026-04-06T12:34:55.758Z</time></trkpt><trkpt lat="43.7877482" lon="10.9267621"><ele>90.0</ele><time>2026-04-06T12:34:57.764Z</time></trkpt><trkpt lat="43.7876452" lon="10.9267362"><ele>90.0</ele><time>2026-04-06T12:34:59.761Z</time></trkpt><trkpt lat="43.7875776" lon="10.9267091"><ele>90.0</ele><time>2026-04-06T12:35:00.755Z</time></trkpt><trkpt lat="43.78751" lon="10.9266511"><ele>90.0</ele><time>2026-04-06T12:35:05.755Z</time></trkpt><trkpt lat="43.7874187" lon="10.9266311"><ele>89.4</ele><time>2026-04-06T12:35:08.753Z</time></trkpt><trkpt lat="43.7873514" lon="10.9265869"><ele>88.8</ele><time>2026-04-06T12:35:10.758Z</time></trkpt><trkpt lat="43.7872868" lon="10.9265568"><ele>88.19999999999999</ele><time>2026-04-06T12:35:12.761Z</time></trkpt><trkpt lat="43.787173" lon="10.9265241"><ele>87.6</ele><time>2026-04-06T12:35:14.76Z</time></trkpt><trkpt lat="43.7870529" lon="10.9265086"><ele>87.0</ele><time>2026-04-06T12:35:16.749Z</time></trkpt><trkpt lat="43.7869658" lon="10.9264964"><ele>87.0</ele><time>2026-04-06T12:35:18.767Z</time></trkpt><trkpt lat="43.7868577" lon="10.9265007"><ele>87.0</ele><time>2026-04-06T12:35:20.754Z</time></trkpt><trkpt lat="43.7867571" lon="10.9265129"><ele>87.0</ele><time>2026-04-06T12:35:22.757Z</time></trkpt><trkpt lat="43.7866838" lon="10.9265667"><ele>87.0</ele><time>2026-04-06T12:35:24.764Z</time></trkpt><trkpt lat="43.7866432" lon="10.9266357"><ele>87.0</ele><time>2026-04-06T12:35:25.761Z</time></trkpt><trkpt lat="43.7865509" lon="10.9267502"><ele>85.0</ele><time>2026-04-06T12:35:27.763Z</time></trkpt><trkpt lat="43.7864887" lon="10.92687"><ele>83.0</ele><time>2026-04-06T12:35:29.75Z</time></trkpt><trkpt lat="43.786437" lon="10.9269795"><ele>81.0</ele><time>2026-04-06T12:35:31.768Z</time></trkpt><trkpt lat="43.7863645" lon="10.9270136"><ele>79.0</ele><time>2026-04-06T12:35:33.756Z</time></trkpt><trkpt lat="43.7862584" lon="10.9269996"><ele>77.0</ele><time>2026-04-06T12:35:35.751Z</time></trkpt><trkpt lat="43.7861692" lon="10.9269057"><ele>77.0</ele><time>2026-04-06T12:35:37.765Z</time></trkpt><trkpt lat="43.7861121" lon="10.926858"><ele>77.0</ele><time>2026-04-06T12:35:38.766Z</time></trkpt><trkpt lat="43.7860554" lon="10.9268013"><ele>77.0</ele><time>2026-04-06T12:35:39.759Z</time></trkpt><trkpt lat="43.7860158" lon="10.9266808"><ele>77.0</ele><time>2026-04-06T12:35:40.752Z</time></trkpt><trkpt lat="43.7859613" lon="10.926617"><ele>77.0</ele><time>2026-04-06T12:35:41.758Z</time></trkpt><trkpt lat="43.7859101" lon="10.9265128"><ele>77.0</ele><time>2026-04-06T12:35:42.761Z</time></trkpt><trkpt lat="43.7858613" lon="10.9264173"><ele>77.33333333333334</ele><time>2026-04-06T12:35:43.749Z</time></trkpt><trkpt lat="43.7858153" lon="10.9263203"><ele>77.66666666666667</ele><time>2026-04-06T12:35:44.752Z</time></trkpt><trkpt lat="43.7857698" lon="10.9262193"><ele>78.0</ele><time>2026-04-06T12:35:45.761Z</time></trkpt><trkpt lat="43.7857238" lon="10.9261236"><ele>78.33333333333333</ele><time>2026-04-06T12:35:46.75Z</time></trkpt><trkpt lat="43.7856739" lon="10.9260019"><ele>78.66666666666666</ele><time>2026-04-06T12:35:47.752Z</time></trkpt><trkpt lat="43.7856165" lon="10.9258989"><ele>79.0</ele><time>2026-04-06T12:35:48.748Z</time></trkpt><trkpt lat="43.7855644" lon="10.9257723"><ele>79.0</ele><time>2026-04-06T12:35:49.754Z</time></trkpt><trkpt lat="43.7855218" lon="10.9256753"><ele>79.0</ele><time>2026-04-06T12:35:50.762Z</time></trkpt><trkpt lat="43.7854578" lon="10.9255924"><ele>79.0</ele><time>2026-04-06T12:35:51.752Z</time></trkpt><trkpt lat="43.7854179" lon="10.9255007"><ele>79.0</ele><time>2026-04-06T12:35:52.764Z</time></trkpt><trkpt lat="43.7853532" lon="10.92545"><ele>79.0</ele><time>2026-04-06T12:35:53.753Z</time></trkpt><trkpt lat="43.7853139" lon="10.9253806"><ele>79.0</ele><time>2026-04-06T12:35:54.759Z</time></trkpt><trkpt lat="43.785249" lon="10.925239"><ele>77.83333333333333</ele><time>2026-04-06T12:35:56.751Z</time></trkpt><trkpt lat="43.7851512" lon="10.9251319"><ele>76.66666666666666</ele><time>2026-04-06T12:35:58.762Z</time></trkpt><trkpt lat="43.785055" lon="10.9250251"><ele>75.5</ele><time>2026-04-06T12:36:00.751Z</time></trkpt><trkpt lat="43.7849961" lon="10.924974"><ele>74.33333333333333</ele><time>2026-04-06T12:36:01.752Z</time></trkpt><trkpt lat="43.7849314" lon="10.9249675"><ele>73.16666666666667</ele><time>2026-04-06T12:36:02.749Z</time></trkpt><trkpt lat="43.784877" lon="10.9249184"><ele>72.0</ele><time>2026-04-06T12:36:03.747Z</time></trkpt><trkpt lat="43.7848254" lon="10.9247995"><ele>72.0</ele><time>2026-04-06T12:36:05.755Z</time></trkpt><trkpt lat="43.7847027" lon="10.9247479"><ele>72.0</ele><time>2026-04-06T12:36:07.754Z</time></trkpt><trkpt lat="43.7846217" lon="10.9247036"><ele>72.0</ele><time>2026-04-06T12:36:09.751Z</time></trkpt><trkpt lat="43.784546" lon="10.9246682"><ele>72.0</ele><time>2026-04-06T12:36:11.76Z</time></trkpt><trkpt lat="43.7844509" lon="10.9246041"><ele>72.0</ele><time>2026-04-06T12:37:04.751Z</time></trkpt><trkpt lat="43.7844035" lon="10.9244889"><ele>72.0</ele><time>2026-04-06T12:37:06.752Z</time></trkpt><trkpt lat="43.7844229" lon="10.9243839"><ele>72.0</ele><time>2026-04-06T12:37:08.76Z</time></trkpt><trkpt lat="43.7844622" lon="10.9242953"><ele>72.0</ele><time>2026-04-06T12:37:10.758Z</time></trkpt><trkpt lat="43.7844919" lon="10.9242097"><ele>72.0</ele><time>2026-04-06T12:37:12.755Z</time></trkpt><trkpt lat="43.7845572" lon="10.9240622"><ele>72.0</ele><time>2026-04-06T12:37:13.759Z</time></trkpt><trkpt lat="43.7846008" lon="10.9239593"><ele>72.0</ele><time>2026-04-06T12:37:14.756Z</time></trkpt><trkpt lat="43.7846647" lon="10.923844"><ele>71.0</ele><time>2026-04-06T12:37:15.755Z</time></trkpt><trkpt lat="43.7846934" lon="10.9236689"><ele>70.0</ele><time>2026-04-06T12:37:16.75Z</time></trkpt><trkpt lat="43.7847845" lon="10.9236944"><ele>69.0</ele><time>2026-04-06T12:37:17.752Z</time></trkpt><trkpt lat="43.7848458" lon="10.9236565"><ele>68.0</ele><time>2026-04-06T12:37:18.754Z</time></trkpt><trkpt lat="43.7849437" lon="10.9236404"><ele>67.0</ele><time>2026-04-06T12:37:19.759Z</time></trkpt><trkpt lat="43.7850018" lon="10.9235934"><ele>67.0</ele><time>2026-04-06T12:37:20.765Z</time></trkpt><trkpt lat="43.7850561" lon="10.9235241"><ele>67.0</ele><time>2026-04-06T12:37:21.757Z</time></trkpt><trkpt lat="43.7851301" lon="10.923491"><ele>67.0</ele><time>2026-04-06T12:37:22.751Z</time></trkpt><trkpt lat="43.7852038" lon="10.9234422"><ele>67.0</ele><time>2026-04-06T12:37:23.753Z</time></trkpt><trkpt lat="43.7852679" lon="10.9233963"><ele>67.0</ele><time>2026-04-06T12:37:24.757Z</time></trkpt><trkpt lat="43.7853334" lon="10.9233313"><ele>67.0</ele><time>2026-04-06T12:37:25.757Z</time></trkpt><trkpt lat="43.785366" lon="10.9232464"><ele>64.4</ele><time>2026-04-06T12:37:26.758Z</time></trkpt><trkpt lat="43.785446" lon="10.9231821"><ele>61.800000000000004</ele><time>2026-04-06T12:37:27.751Z</time></trkpt><trkpt lat="43.7855171" lon="10.9230963"><ele>59.2</ele><time>2026-04-06T12:37:28.753Z</time></trkpt><trkpt lat="43.7855947" lon="10.923019"><ele>56.6</ele><time>2026-04-06T12:37:29.752Z</time></trkpt><trkpt lat="43.7856743" lon="10.9229339"><ele>54.0</ele><time>2026-04-06T12:37:30.755Z</time></trkpt><trkpt lat="43.7857455" lon="10.9228656"><ele>54.0</ele><time>2026-04-06T12:37:31.751Z</time></trkpt><trkpt lat="43.7858245" lon="10.9227756"><ele>54.00000000000001</ele><time>2026-04-06T12:37:32.757Z</time></trkpt><trkpt lat="43.7858942" lon="10.9226722"><ele>54.00000000000001</ele><time>2026-04-06T12:37:33.757Z</time></trkpt><trkpt lat="43.7859879" lon="10.922596"><ele>54.0</ele><time>2026-04-06T12:37:34.749Z</time></trkpt><trkpt lat="43.7860763" lon="10.9225159"><ele>54.0</ele><time>2026-04-06T12:37:35.752Z</time></trkpt><trkpt lat="43.7861548" lon="10.9224183"><ele>56.0</ele><time>2026-04-06T12:37:36.757Z</time></trkpt><trkpt lat="43.786237" lon="10.9223279"><ele>58.00000000000001</ele><time>2026-04-06T12:37:37.759Z</time></trkpt><trkpt lat="43.7863164" lon="10.9222169"><ele>60.00000000000001</ele><time>2026-04-06T12:37:38.76Z</time></trkpt><trkpt lat="43.7864027" lon="10.9221306"><ele>62.0</ele><time>2026-04-06T12:37:39.755Z</time></trkpt><trkpt lat="43.7864764" lon="10.9220268"><ele>64.0</ele><time>2026-04-06T12:37:40.755Z</time></trkpt><trkpt lat="43.7865694" lon="10.921937"><ele>64.0</ele><time>2026-04-06T12:37:41.779Z</time></trkpt><trkpt lat="43.7866604" lon="10.9218244"><ele>64.0</ele><time>2026-04-06T12:37:42.754Z</time></trkpt><trkpt lat="43.786751" lon="10.9217103"><ele>64.0</ele><time>2026-04-06T12:37:43.757Z</time></trkpt><trkpt lat="43.7868273" lon="10.9216157"><ele>64.0</ele><time>2026-04-06T12:37:44.75Z</time></trkpt><trkpt lat="43.7868982" lon="10.9214523"><ele>65.25</ele><time>2026-04-06T12:37:45.754Z</time></trkpt><trkpt lat="43.7869471" lon="10.9212961"><ele>66.5</ele><time>2026-04-06T12:37:46.768Z</time></trkpt><trkpt lat="43.7870023" lon="10.921138"><ele>67.75</ele><time>2026-04-06T12:37:47.75Z</time></trkpt><trkpt lat="43.787051" lon="10.9209826"><ele>69.0</ele><time>2026-04-06T12:37:48.758Z</time></trkpt><trkpt lat="43.7870939" lon="10.9208321"><ele>69.0</ele><time>2026-04-06T12:37:49.755Z</time></trkpt><trkpt lat="43.7871249" lon="10.9207134"><ele>69.0</ele><time>2026-04-06T12:37:50.752Z</time></trkpt><trkpt lat="43.787162" lon="10.9205538"><ele>69.0</ele><time>2026-04-06T12:37:51.766Z</time></trkpt><trkpt lat="43.7872007" lon="10.9204437"><ele>69.0</ele><time>2026-04-06T12:37:52.776Z</time></trkpt><trkpt lat="43.7872423" lon="10.9203147"><ele>69.0</ele><time>2026-04-06T12:37:53.756Z</time></trkpt><trkpt lat="43.7872858" lon="10.9202184"><ele>69.0</ele><time>2026-04-06T12:37:54.755Z</time></trkpt><trkpt lat="43.7873188" lon="10.9200682"><ele>69.0</ele><time>2026-04-06T12:37:55.761Z</time></trkpt><trkpt lat="43.7873666" lon="10.9199388"><ele>69.0</ele><time>2026-04-06T12:37:56.755Z</time></trkpt><trkpt lat="43.7874078" lon="10.9198018"><ele>69.0</ele><time>2026-04-06T12:37:57.749Z</time></trkpt><trkpt lat="43.7874636" lon="10.9196526"><ele>69.0</ele><time>2026-04-06T12:37:58.756Z</time></trkpt><trkpt lat="43.7875107" lon="10.9194936"><ele>68.0</ele><time>2026-04-06T12:37:59.754Z</time></trkpt><trkpt lat="43.7875582" lon="10.9193735"><ele>67.0</ele><time>2026-04-06T12:38:00.753Z</time></trkpt><trkpt lat="43.7875978" lon="10.9192388"><ele>66.0</ele><time>2026-04-06T12:38:01.752Z</time></trkpt><trkpt lat="43.7876476" lon="10.9190776"><ele>65.0</ele><time>2026-04-06T12:38:02.765Z</time></trkpt><trkpt lat="43.7876987" lon="10.9188849"><ele>63.5</ele><time>2026-04-06T12:38:03.749Z</time></trkpt><trkpt lat="43.7877548" lon="10.9187399"><ele>62.0</ele><time>2026-04-06T12:38:04.756Z</time></trkpt><trkpt lat="43.7878036" lon="10.9185718"><ele>60.5</ele><time>2026-04-06T12:38:05.755Z</time></trkpt><trkpt lat="43.787861" lon="10.91837"><ele>59.0</ele><time>2026-04-06T12:38:06.758Z</time></trkpt><trkpt lat="43.7879212" lon="10.9181712"><ele>57.333333333333336</ele><time>2026-04-06T12:38:07.752Z</time></trkpt><trkpt lat="43.7880016" lon="10.9179451"><ele>55.66666666666667</ele><time>2026-04-06T12:38:08.751Z</time></trkpt><trkpt lat="43.7880512" lon="10.9177358"><ele>54.0</ele><time>2026-04-06T12:38:09.756Z</time></trkpt><trkpt lat="43.7881109" lon="10.9175605"><ele>52.75</ele><time>2026-04-06T12:38:10.751Z</time></trkpt><trkpt lat="43.7881598" lon="10.9174066"><ele>51.5</ele><time>2026-04-06T12:38:11.751Z</time></trkpt><trkpt lat="43.7882132" lon="10.9172123"><ele>50.25</ele><time>2026-04-06T12:38:12.761Z</time></trkpt><trkpt lat="43.7882468" lon="10.9170448"><ele>49.0</ele><time>2026-04-06T12:38:13.752Z</time></trkpt><trkpt lat="43.7883075" lon="10.9168477"><ele>48.75</ele><time>2026-04-06T12:38:14.755Z</time></trkpt><trkpt lat="43.7883548" lon="10.9166603"><ele>48.5</ele><time>2026-04-06T12:38:15.751Z</time></trkpt><trkpt lat="43.7884038" lon="10.9164791"><ele>48.25</ele><time>2026-04-06T12:38:16.757Z</time></trkpt><trkpt lat="43.788461" lon="10.9163111"><ele>48.0</ele><time>2026-04-06T12:38:17.754Z</time></trkpt><trkpt lat="43.7885297" lon="10.9161343"><ele>47.5</ele><time>2026-04-06T12:38:18.757Z</time></trkpt><trkpt lat="43.7885905" lon="10.9159845"><ele>47.0</ele><time>2026-04-06T12:38:19.76Z</time></trkpt><trkpt lat="43.7886651" lon="10.9158394"><ele>46.5</ele><time>2026-04-06T12:38:20.759Z</time></trkpt><trkpt lat="43.7887478" lon="10.9156969"><ele>46.0</ele><time>2026-04-06T12:38:21.753Z</time></trkpt><trkpt lat="43.7888308" lon="10.9155564"><ele>46.0</ele><time>2026-04-06T12:38:22.767Z</time></trkpt><trkpt lat="43.7889119" lon="10.9154465"><ele>46.0</ele><time>2026-04-06T12:38:23.748Z</time></trkpt><trkpt lat="43.7889941" lon="10.9153585"><ele>46.0</ele><time>2026-04-06T12:38:24.772Z</time></trkpt><trkpt lat="43.7890818" lon="10.9152452"><ele>46.0</ele><time>2026-04-06T12:38:25.752Z</time></trkpt><trkpt lat="43.789172" lon="10.9151775"><ele>46.0</ele><time>2026-04-06T12:38:26.753Z</time></trkpt><trkpt lat="43.7892542" lon="10.9150903"><ele>46.599999999999994</ele><time>2026-04-06T12:38:27.749Z</time></trkpt><trkpt lat="43.7893375" lon="10.9149835"><ele>47.2</ele><time>2026-04-06T12:38:28.751Z</time></trkpt><trkpt lat="43.7894179" lon="10.9149158"><ele>47.8</ele><time>2026-04-06T12:38:29.756Z</time></trkpt><trkpt lat="43.7895017" lon="10.91483"><ele>48.400000000000006</ele><time>2026-04-06T12:38:30.75Z</time></trkpt><trkpt lat="43.7895921" lon="10.9147436"><ele>49.0</ele><time>2026-04-06T12:38:31.762Z</time></trkpt><trkpt lat="43.7896762" lon="10.9146493"><ele>50.75</ele><time>2026-04-06T12:38:32.751Z</time></trkpt><trkpt lat="43.7897672" lon="10.9145582"><ele>52.5</ele><time>2026-04-06T12:38:33.756Z</time></trkpt><trkpt lat="43.7898526" lon="10.9144365"><ele>54.25</ele><time>2026-04-06T12:38:34.761Z</time></trkpt><trkpt lat="43.7899421" lon="10.9143259"><ele>56.0</ele><time>2026-04-06T12:38:35.758Z</time></trkpt><trkpt lat="43.7900358" lon="10.9142111"><ele>57.25</ele><time>2026-04-06T12:38:52.813Z</time></trkpt><trkpt lat="43.7901446" lon="10.9141126"><ele>58.5</ele><time>2026-04-06T12:38:53.82Z</time></trkpt><trkpt lat="43.7902586" lon="10.9139932"><ele>59.75</ele><time>2026-04-06T12:38:54.817Z</time></trkpt><trkpt lat="43.7903657" lon="10.913856"><ele>61.0</ele><time>2026-04-06T12:38:55.808Z</time></trkpt><trkpt lat="43.7904785" lon="10.913727"><ele>62.0</ele><time>2026-04-06T12:38:56.803Z</time></trkpt><trkpt lat="43.7905905" lon="10.9135995"><ele>63.0</ele><time>2026-04-06T12:38:57.811Z</time></trkpt><trkpt lat="43.790708" lon="10.9134594"><ele>64.0</ele><time>2026-04-06T12:38:58.802Z</time></trkpt><trkpt lat="43.7908267" lon="10.9133111"><ele>62.33333333333333</ele><time>2026-04-06T12:38:59.802Z</time></trkpt><trkpt lat="43.790955" lon="10.9131949"><ele>60.66666666666667</ele><time>2026-04-06T12:39:00.813Z</time></trkpt><trkpt lat="43.7910919" lon="10.9130579"><ele>59.0</ele><time>2026-04-06T12:39:01.913Z</time></trkpt><trkpt lat="43.7913382" lon="10.9128262"><ele>59.0</ele><time>2026-04-06T12:39:03.801Z</time></trkpt><trkpt lat="43.7914573" lon="10.9127018"><ele>59.0</ele><time>2026-04-06T12:39:04.804Z</time></trkpt><trkpt lat="43.7915844" lon="10.9125875"><ele>59.0</ele><time>2026-04-06T12:39:05.806Z</time></trkpt><trkpt lat="43.7916951" lon="10.9124428"><ele>58.5</ele><time>2026-04-06T12:39:06.806Z</time></trkpt><trkpt lat="43.791812" lon="10.9123116"><ele>58.0</ele><time>2026-04-06T12:39:07.801Z</time></trkpt><trkpt lat="43.7919325" lon="10.9121858"><ele>57.5</ele><time>2026-04-06T12:39:08.809Z</time></trkpt><trkpt lat="43.7920411" lon="10.9120546"><ele>57.0</ele><time>2026-04-06T12:39:09.817Z</time></trkpt><trkpt lat="43.7921649" lon="10.9119016"><ele>56.66666666666667</ele><time>2026-04-06T12:39:10.811Z</time></trkpt><trkpt lat="43.7922793" lon="10.9117209"><ele>56.333333333333336</ele><time>2026-04-06T12:39:11.802Z</time></trkpt><trkpt lat="43.7924145" lon="10.9115707"><ele>56.0</ele><time>2026-04-06T12:39:12.801Z</time></trkpt><trkpt lat="43.7925514" lon="10.911446"><ele>57.66666666666667</ele><time>2026-04-06T12:39:13.812Z</time></trkpt><trkpt lat="43.7926776" lon="10.9112861"><ele>59.33333333333333</ele><time>2026-04-06T12:39:14.839Z</time></trkpt><trkpt lat="43.7928056" lon="10.9111486"><ele>61.0</ele><time>2026-04-06T12:39:15.804Z</time></trkpt><trkpt lat="43.7929353" lon="10.9109856"><ele>58.666666666666664</ele><time>2026-04-06T12:39:16.87Z</time></trkpt><trkpt lat="43.7930521" lon="10.9108144"><ele>56.33333333333333</ele><time>2026-04-06T12:39:17.802Z</time></trkpt><trkpt lat="43.7931887" lon="10.910655"><ele>54.0</ele><time>2026-04-06T12:39:18.805Z</time></trkpt><trkpt lat="43.7933242" lon="10.9105243"><ele>54.0</ele><time>2026-04-06T12:39:19.818Z</time></trkpt><trkpt lat="43.7934511" lon="10.9103515"><ele>54.0</ele><time>2026-04-06T12:39:20.813Z</time></trkpt><trkpt lat="43.7935492" lon="10.9101912"><ele>54.0</ele><time>2026-04-06T12:39:21.815Z</time></trkpt><trkpt lat="43.7936328" lon="10.9099556"><ele>53.33333333333333</ele><time>2026-04-06T12:39:22.824Z</time></trkpt><trkpt lat="43.7936977" lon="10.9097366"><ele>52.666666666666664</ele><time>2026-04-06T12:39:23.801Z</time></trkpt><trkpt lat="43.7937265" lon="10.9095166"><ele>52.0</ele><time>2026-04-06T12:39:24.805Z</time></trkpt><trkpt lat="43.7937278" lon="10.9092653"><ele>51.0</ele><time>2026-04-06T12:39:25.807Z</time></trkpt><trkpt lat="43.7937177" lon="10.9090152"><ele>50.0</ele><time>2026-04-06T12:39:26.803Z</time></trkpt><trkpt lat="43.7937144" lon="10.9087731"><ele>49.0</ele><time>2026-04-06T12:39:27.816Z</time></trkpt><trkpt lat="43.7937194" lon="10.9085446"><ele>48.33333333333333</ele><time>2026-04-06T12:39:28.81Z</time></trkpt><trkpt lat="43.7937269" lon="10.9083197"><ele>47.666666666666664</ele><time>2026-04-06T12:39:29.817Z</time></trkpt><trkpt lat="43.7937504" lon="10.9081086"><ele>47.0</ele><time>2026-04-06T12:39:30.81Z</time></trkpt><trkpt lat="43.7937911" lon="10.9078541"><ele>47.0</ele><time>2026-04-06T12:39:31.806Z</time></trkpt><trkpt lat="43.7938886" lon="10.9076233"><ele>47.0</ele><time>2026-04-06T12:39:32.81Z</time></trkpt><trkpt lat="43.7939505" lon="10.9074169"><ele>47.0</ele><time>2026-04-06T12:39:33.814Z</time></trkpt><trkpt lat="43.7940349" lon="10.9071854"><ele>45.33333333333333</ele><time>2026-04-06T12:39:34.812Z</time></trkpt><trkpt lat="43.7941308" lon="10.9070009"><ele>43.666666666666664</ele><time>2026-04-06T12:39:35.817Z</time></trkpt><trkpt lat="43.7942179" lon="10.9068805"><ele>42.0</ele><time>2026-04-06T12:39:36.817Z</time></trkpt><trkpt lat="43.7943049" lon="10.9066782"><ele>43.333333333333336</ele><time>2026-04-06T12:39:37.818Z</time></trkpt><trkpt lat="43.7944258" lon="10.9065841"><ele>44.66666666666667</ele><time>2026-04-06T12:39:38.809Z</time></trkpt><trkpt lat="43.7945894" lon="10.906496"><ele>46.0</ele><time>2026-04-06T12:39:39.815Z</time></trkpt><trkpt lat="43.7947752" lon="10.9064714"><ele>46.0</ele><time>2026-04-06T12:39:40.811Z</time></trkpt><trkpt lat="43.7949686" lon="10.9064556"><ele>46.0</ele><time>2026-04-06T12:39:41.805Z</time></trkpt><trkpt lat="43.7951388" lon="10.9063869"><ele>46.0</ele><time>2026-04-06T12:39:42.803Z</time></trkpt><trkpt lat="43.7953024" lon="10.9063109"><ele>47.66666666666667</ele><time>2026-04-06T12:39:43.809Z</time></trkpt><trkpt lat="43.7954642" lon="10.9062536"><ele>49.333333333333336</ele><time>2026-04-06T12:39:44.816Z</time></trkpt><trkpt lat="43.7956086" lon="10.9062261"><ele>51.0</ele><time>2026-04-06T12:39:45.821Z</time></trkpt><trkpt lat="43.7957793" lon="10.9062328"><ele>51.0</ele><time>2026-04-06T12:39:46.805Z</time></trkpt><trkpt lat="43.7959415" lon="10.9062678"><ele>51.0</ele><time>2026-04-06T12:39:47.811Z</time></trkpt><trkpt lat="43.7961158" lon="10.9063208"><ele>51.0</ele><time>2026-04-06T12:39:48.812Z</time></trkpt><trkpt lat="43.7962721" lon="10.9063622"><ele>52.66666666666667</ele><time>2026-04-06T12:39:49.804Z</time></trkpt><trkpt lat="43.7964373" lon="10.9064148"><ele>54.333333333333336</ele><time>2026-04-06T12:39:50.822Z</time></trkpt><trkpt lat="43.7966074" lon="10.906464"><ele>56.0</ele><time>2026-04-06T12:39:51.808Z</time></trkpt><trkpt lat="43.7967701" lon="10.9065105"><ele>54.66666666666667</ele><time>2026-04-06T12:39:52.803Z</time></trkpt><trkpt lat="43.7969478" lon="10.9065508"><ele>53.33333333333333</ele><time>2026-04-06T12:39:53.805Z</time></trkpt><trkpt lat="43.7971005" lon="10.9065832"><ele>52.0</ele><time>2026-04-06T12:39:54.82Z</time></trkpt><trkpt lat="43.797259" lon="10.9065664"><ele>52.0</ele><time>2026-04-06T12:39:55.809Z</time></trkpt><trkpt lat="43.7974101" lon="10.9065046"><ele>52.0</ele><time>2026-04-06T12:39:56.804Z</time></trkpt><trkpt lat="43.7975384" lon="10.9064659"><ele>52.0</ele><time>2026-04-06T12:39:57.807Z</time></trkpt><trkpt lat="43.7976973" lon="10.9063276"><ele>49.33333333333333</ele><time>2026-04-06T12:39:58.816Z</time></trkpt><trkpt lat="43.7978366" lon="10.9062349"><ele>46.666666666666664</ele><time>2026-04-06T12:39:59.81Z</time></trkpt><trkpt lat="43.7979776" lon="10.90616"><ele>44.0</ele><time>2026-04-06T12:40:00.807Z</time></trkpt><trkpt lat="43.7981276" lon="10.9061012"><ele>44.0</ele><time>2026-04-06T12:40:01.806Z</time></trkpt><trkpt lat="43.7982911" lon="10.9060438"><ele>44.0</ele><time>2026-04-06T12:40:02.806Z</time></trkpt><trkpt lat="43.798406" lon="10.9059824"><ele>44.0</ele><time>2026-04-06T12:40:03.819Z</time></trkpt><trkpt lat="43.7985178" lon="10.9059082"><ele>44.0</ele><time>2026-04-06T12:40:04.819Z</time></trkpt><trkpt lat="43.7986173" lon="10.9058"><ele>45.0</ele><time>2026-04-06T12:40:05.814Z</time></trkpt><trkpt lat="43.7986952" lon="10.90568"><ele>46.0</ele><time>2026-04-06T12:40:06.808Z</time></trkpt><trkpt lat="43.7987598" lon="10.9055838"><ele>47.0</ele><time>2026-04-06T12:40:07.815Z</time></trkpt><trkpt lat="43.7987862" lon="10.9054475"><ele>48.0</ele><time>2026-04-06T12:40:08.807Z</time></trkpt><trkpt lat="43.7988109" lon="10.905226"><ele>47.75</ele><time>2026-04-06T12:40:09.814Z</time></trkpt><trkpt lat="43.7988173" lon="10.9050669"><ele>47.5</ele><time>2026-04-06T12:40:10.804Z</time></trkpt><trkpt lat="43.7988354" lon="10.9048769"><ele>47.25</ele><time>2026-04-06T12:40:11.808Z</time></trkpt><trkpt lat="43.7988482" lon="10.904699"><ele>47.0</ele><time>2026-04-06T12:40:12.805Z</time></trkpt><trkpt lat="43.7988677" lon="10.9045139"><ele>47.0</ele><time>2026-04-06T12:40:13.818Z</time></trkpt><trkpt lat="43.7989013" lon="10.904341"><ele>47.0</ele><time>2026-04-06T12:40:14.814Z</time></trkpt><trkpt lat="43.7989662" lon="10.9041766"><ele>47.0</ele><time>2026-04-06T12:40:15.807Z</time></trkpt><trkpt lat="43.799046" lon="10.9040337"><ele>47.0</ele><time>2026-04-06T12:40:16.813Z</time></trkpt><trkpt lat="43.799138" lon="10.9039074"><ele>46.0</ele><time>2026-04-06T12:40:17.811Z</time></trkpt><trkpt lat="43.7992471" lon="10.903791"><ele>45.0</ele><time>2026-04-06T12:40:18.817Z</time></trkpt><trkpt lat="43.799401" lon="10.9036264"><ele>44.0</ele><time>2026-04-06T12:40:19.809Z</time></trkpt><trkpt lat="43.7995273" lon="10.9035033"><ele>46.0</ele><time>2026-04-06T12:40:20.809Z</time></trkpt><trkpt lat="43.7996531" lon="10.9033797"><ele>48.0</ele><time>2026-04-06T12:40:21.807Z</time></trkpt><trkpt lat="43.7997751" lon="10.9032714"><ele>50.0</ele><time>2026-04-06T12:40:22.809Z</time></trkpt><trkpt lat="43.7999194" lon="10.9031584"><ele>50.0</ele><time>2026-04-06T12:40:23.806Z</time></trkpt><trkpt lat="43.8001146" lon="10.9030983"><ele>50.0</ele><time>2026-04-06T12:40:24.807Z</time></trkpt><trkpt lat="43.8002831" lon="10.9030375"><ele>50.0</ele><time>2026-04-06T12:40:25.806Z</time></trkpt><trkpt lat="43.8004183" lon="10.9029209"><ele>49.5</ele><time>2026-04-06T12:40:26.811Z</time></trkpt><trkpt lat="43.8005562" lon="10.902806"><ele>49.0</ele><time>2026-04-06T12:40:27.811Z</time></trkpt><trkpt lat="43.8006651" lon="10.9026933"><ele>48.5</ele><time>2026-04-06T12:40:28.811Z</time></trkpt><trkpt lat="43.8007764" lon="10.9025549"><ele>48.0</ele><time>2026-04-06T12:40:29.806Z</time></trkpt><trkpt lat="43.8008793" lon="10.9024181"><ele>48.0</ele><time>2026-04-06T12:40:30.813Z</time></trkpt><trkpt lat="43.8009928" lon="10.9022704"><ele>48.0</ele><time>2026-04-06T12:40:31.81Z</time></trkpt><trkpt lat="43.8010785" lon="10.9020825"><ele>48.0</ele><time>2026-04-06T12:40:32.816Z</time></trkpt><trkpt lat="43.8011697" lon="10.9019061"><ele>46.333333333333336</ele><time>2026-04-06T12:40:33.816Z</time></trkpt><trkpt lat="43.8012589" lon="10.901703"><ele>44.66666666666667</ele><time>2026-04-06T12:40:34.806Z</time></trkpt><trkpt lat="43.8013397" lon="10.901524"><ele>43.0</ele><time>2026-04-06T12:40:35.806Z</time></trkpt><trkpt lat="43.8014255" lon="10.9013226"><ele>43.0</ele><time>2026-04-06T12:40:36.808Z</time></trkpt><trkpt lat="43.8015247" lon="10.9011229"><ele>43.0</ele><time>2026-04-06T12:40:37.806Z</time></trkpt><trkpt lat="43.8016128" lon="10.9009492"><ele>43.0</ele><time>2026-04-06T12:40:38.805Z</time></trkpt><trkpt lat="43.8017052" lon="10.9007613"><ele>42.333333333333336</ele><time>2026-04-06T12:40:39.808Z</time></trkpt><trkpt lat="43.8017958" lon="10.900568"><ele>41.666666666666664</ele><time>2026-04-06T12:40:40.811Z</time></trkpt><trkpt lat="43.8018917" lon="10.9004101"><ele>41.0</ele><time>2026-04-06T12:40:41.808Z</time></trkpt><trkpt lat="43.8019962" lon="10.900251"><ele>42.33333333333333</ele><time>2026-04-06T12:40:42.807Z</time></trkpt><trkpt lat="43.8021139" lon="10.9001054"><ele>43.666666666666664</ele><time>2026-04-06T12:40:43.807Z</time></trkpt><trkpt lat="43.8022667" lon="10.899949"><ele>45.0</ele><time>2026-04-06T12:40:44.807Z</time></trkpt><trkpt lat="43.8024253" lon="10.8998144"><ele>47.0</ele><time>2026-04-06T12:40:45.814Z</time></trkpt><trkpt lat="43.8025976" lon="10.8997481"><ele>49.0</ele><time>2026-04-06T12:40:46.813Z</time></trkpt><trkpt lat="43.8027296" lon="10.899668"><ele>51.0</ele><time>2026-04-06T12:40:47.81Z</time></trkpt><trkpt lat="43.8028699" lon="10.8996067"><ele>51.0</ele><time>2026-04-06T12:40:48.808Z</time></trkpt><trkpt lat="43.8030296" lon="10.8995287"><ele>51.0</ele><time>2026-04-06T12:40:49.815Z</time></trkpt><trkpt lat="43.803185" lon="10.8994315"><ele>51.0</ele><time>2026-04-06T12:40:50.809Z</time></trkpt><trkpt lat="43.8033462" lon="10.8993766"><ele>51.0</ele><time>2026-04-06T12:40:51.806Z</time></trkpt><trkpt lat="43.8034731" lon="10.8993046"><ele>51.0</ele><time>2026-04-06T12:40:52.804Z</time></trkpt><trkpt lat="43.8036086" lon="10.8992079"><ele>51.0</ele><time>2026-04-06T12:40:53.805Z</time></trkpt><trkpt lat="43.8037482" lon="10.8990864"><ele>53.0</ele><time>2026-04-06T12:40:54.817Z</time></trkpt><trkpt lat="43.8039014" lon="10.8990137"><ele>55.0</ele><time>2026-04-06T12:40:55.814Z</time></trkpt><trkpt lat="43.8040196" lon="10.8989075"><ele>57.0</ele><time>2026-04-06T12:40:56.818Z</time></trkpt><trkpt lat="43.8041717" lon="10.8988308"><ele>57.0</ele><time>2026-04-06T12:40:57.806Z</time></trkpt><trkpt lat="43.8043114" lon="10.8987831"><ele>57.0</ele><time>2026-04-06T12:40:58.804Z</time></trkpt><trkpt lat="43.8044175" lon="10.8987129"><ele>57.0</ele><time>2026-04-06T12:40:59.806Z</time></trkpt><trkpt lat="43.8045247" lon="10.8986641"><ele>57.0</ele><time>2026-04-06T12:41:00.816Z</time></trkpt><trkpt lat="43.804627" lon="10.898623"><ele>56.6</ele><time>2026-04-06T12:41:01.81Z</time></trkpt><trkpt lat="43.8047278" lon="10.8985642"><ele>56.2</ele><time>2026-04-06T12:41:02.814Z</time></trkpt><trkpt lat="43.8048143" lon="10.8985247"><ele>55.8</ele><time>2026-04-06T12:41:03.81Z</time></trkpt><trkpt lat="43.8049236" lon="10.8985369"><ele>55.4</ele><time>2026-04-06T12:41:04.809Z</time></trkpt><trkpt lat="43.8050231" lon="10.8985229"><ele>55.0</ele><time>2026-04-06T12:41:05.811Z</time></trkpt><trkpt lat="43.8051083" lon="10.8985255"><ele>55.0</ele><time>2026-04-06T12:41:06.812Z</time></trkpt><trkpt lat="43.8052368" lon="10.8985186"><ele>55.0</ele><time>2026-04-06T12:41:07.81Z</time></trkpt><trkpt lat="43.8053518" lon="10.8984355"><ele>55.0</ele><time>2026-04-06T12:41:08.808Z</time></trkpt><trkpt lat="43.8054768" lon="10.8984213"><ele>55.0</ele><time>2026-04-06T12:41:09.81Z</time></trkpt><trkpt lat="43.8055995" lon="10.8984029"><ele>56.25</ele><time>2026-04-06T12:41:10.804Z</time></trkpt><trkpt lat="43.8057106" lon="10.8983828"><ele>57.5</ele><time>2026-04-06T12:41:11.806Z</time></trkpt><trkpt lat="43.805829" lon="10.8983498"><ele>58.75</ele><time>2026-04-06T12:41:12.809Z</time></trkpt><trkpt lat="43.8059519" lon="10.8983163"><ele>60.0</ele><time>2026-04-06T12:41:13.806Z</time></trkpt><trkpt lat="43.8060728" lon="10.8982359"><ele>60.5</ele><time>2026-04-06T12:41:14.812Z</time></trkpt><trkpt lat="43.8061795" lon="10.8981313"><ele>61.0</ele><time>2026-04-06T12:41:15.813Z</time></trkpt><trkpt lat="43.8062872" lon="10.8980581"><ele>61.5</ele><time>2026-04-06T12:41:16.804Z</time></trkpt><trkpt lat="43.8063879" lon="10.8979776"><ele>62.0</ele><time>2026-04-06T12:41:17.806Z</time></trkpt><trkpt lat="43.806492" lon="10.8979044"><ele>62.0</ele><time>2026-04-06T12:41:18.817Z</time></trkpt><trkpt lat="43.8065897" lon="10.897838"><ele>62.0</ele><time>2026-04-06T12:41:19.805Z</time></trkpt><trkpt lat="43.8066793" lon="10.8977752"><ele>62.0</ele><time>2026-04-06T12:41:20.812Z</time></trkpt><trkpt lat="43.8067455" lon="10.8976683"><ele>62.0</ele><time>2026-04-06T12:41:21.818Z</time></trkpt><trkpt lat="43.8068334" lon="10.8975941"><ele>62.0</ele><time>2026-04-06T12:41:22.813Z</time></trkpt><trkpt lat="43.8069217" lon="10.8975624"><ele>61.6</ele><time>2026-04-06T12:41:23.806Z</time></trkpt><trkpt lat="43.8070167" lon="10.8975711"><ele>61.2</ele><time>2026-04-06T12:41:24.81Z</time></trkpt><trkpt lat="43.8070954" lon="10.8975168"><ele>60.8</ele><time>2026-04-06T12:41:25.809Z</time></trkpt><trkpt lat="43.8071744" lon="10.8974664"><ele>60.4</ele><time>2026-04-06T12:41:26.804Z</time></trkpt><trkpt lat="43.8072641" lon="10.8974252"><ele>60.0</ele><time>2026-04-06T12:41:27.808Z</time></trkpt><trkpt lat="43.8073566" lon="10.8973351"><ele>60.0</ele><time>2026-04-06T12:41:28.809Z</time></trkpt><trkpt lat="43.8074533" lon="10.897264"><ele>60.0</ele><time>2026-04-06T12:41:29.806Z</time></trkpt><trkpt lat="43.8075475" lon="10.8972086"><ele>60.0</ele><time>2026-04-06T12:41:30.813Z</time></trkpt><trkpt lat="43.8076401" lon="10.8971126"><ele>60.0</ele><time>2026-04-06T12:41:31.814Z</time></trkpt><trkpt lat="43.8077306" lon="10.8970421"><ele>60.0</ele><time>2026-04-06T12:41:32.813Z</time></trkpt><trkpt lat="43.8078345" lon="10.8969461"><ele>59.0</ele><time>2026-04-06T12:41:33.808Z</time></trkpt><trkpt lat="43.8079343" lon="10.8968632"><ele>58.0</ele><time>2026-04-06T12:41:34.812Z</time></trkpt><trkpt lat="43.8080359" lon="10.8967746"><ele>57.0</ele><time>2026-04-06T12:41:35.811Z</time></trkpt><trkpt lat="43.8081319" lon="10.8966972"><ele>56.0</ele><time>2026-04-06T12:41:36.807Z</time></trkpt><trkpt lat="43.8082373" lon="10.8966065"><ele>55.0</ele><time>2026-04-06T12:41:37.814Z</time></trkpt><trkpt lat="43.808324" lon="10.8964877"><ele>54.0</ele><time>2026-04-06T12:41:38.809Z</time></trkpt><trkpt lat="43.8084097" lon="10.8963664"><ele>53.0</ele><time>2026-04-06T12:41:39.81Z</time></trkpt><trkpt lat="43.8084878" lon="10.8962359"><ele>52.0</ele><time>2026-04-06T12:41:40.806Z</time></trkpt><trkpt lat="43.8085664" lon="10.896119"><ele>51.25</ele><time>2026-04-06T12:41:41.81Z</time></trkpt><trkpt lat="43.8086371" lon="10.8959945"><ele>50.5</ele><time>2026-04-06T12:41:42.804Z</time></trkpt><trkpt lat="43.8087096" lon="10.8958519"><ele>49.75</ele><time>2026-04-06T12:41:43.81Z</time></trkpt><trkpt lat="43.8087814" lon="10.8957107"><ele>49.0</ele><time>2026-04-06T12:41:44.81Z</time></trkpt><trkpt lat="43.8088578" lon="10.8955628"><ele>48.5</ele><time>2026-04-06T12:41:45.81Z</time></trkpt><trkpt lat="43.808932" lon="10.8954012"><ele>48.0</ele><time>2026-04-06T12:41:46.815Z</time></trkpt><trkpt lat="43.8090027" lon="10.8952348"><ele>47.5</ele><time>2026-04-06T12:41:47.808Z</time></trkpt><trkpt lat="43.8090743" lon="10.895079"><ele>47.0</ele><time>2026-04-06T12:41:48.809Z</time></trkpt><trkpt lat="43.8091472" lon="10.8949188"><ele>47.0</ele><time>2026-04-06T12:41:49.814Z</time></trkpt><trkpt lat="43.8092263" lon="10.8947555"><ele>47.0</ele><time>2026-04-06T12:41:50.807Z</time></trkpt><trkpt lat="43.8093041" lon="10.8946006"><ele>47.0</ele><time>2026-04-06T12:41:51.832Z</time></trkpt><trkpt lat="43.8093687" lon="10.8944442"><ele>47.0</ele><time>2026-04-06T12:41:52.813Z</time></trkpt><trkpt lat="43.8094392" lon="10.8942781"><ele>47.0</ele><time>2026-04-06T12:41:53.818Z</time></trkpt><trkpt lat="43.8095011" lon="10.8941195"><ele>47.0</ele><time>2026-04-06T12:41:54.801Z</time></trkpt><trkpt lat="43.8095735" lon="10.8939695"><ele>47.0</ele><time>2026-04-06T12:41:55.812Z</time></trkpt><trkpt lat="43.809637" lon="10.8938198"><ele>47.0</ele><time>2026-04-06T12:41:56.815Z</time></trkpt><trkpt lat="43.8097016" lon="10.8937056"><ele>47.0</ele><time>2026-04-06T12:41:57.821Z</time></trkpt><trkpt lat="43.8097871" lon="10.8935624"><ele>47.0</ele><time>2026-04-06T12:41:58.807Z</time></trkpt><trkpt lat="43.8098627" lon="10.8934156"><ele>47.0</ele><time>2026-04-06T12:41:59.816Z</time></trkpt><trkpt lat="43.8099245" lon="10.8932457"><ele>47.0</ele><time>2026-04-06T12:42:00.804Z</time></trkpt><trkpt lat="43.8099961" lon="10.8931014"><ele>47.0</ele><time>2026-04-06T12:42:01.807Z</time></trkpt><trkpt lat="43.8100726" lon="10.8929632"><ele>47.0</ele><time>2026-04-06T12:42:02.809Z</time></trkpt><trkpt lat="43.8101448" lon="10.8928209"><ele>47.0</ele><time>2026-04-06T12:42:03.813Z</time></trkpt><trkpt lat="43.8102146" lon="10.8926925"><ele>47.0</ele><time>2026-04-06T12:42:04.81Z</time></trkpt><trkpt lat="43.8102703" lon="10.8925429"><ele>47.5</ele><time>2026-04-06T12:42:05.814Z</time></trkpt><trkpt lat="43.8103362" lon="10.8923892"><ele>48.0</ele><time>2026-04-06T12:42:06.817Z</time></trkpt><trkpt lat="43.8104193" lon="10.8922601"><ele>48.5</ele><time>2026-04-06T12:42:07.808Z</time></trkpt><trkpt lat="43.8104896" lon="10.892119"><ele>49.0</ele><time>2026-04-06T12:42:08.808Z</time></trkpt><trkpt lat="43.8105524" lon="10.8919975"><ele>48.99999999999999</ele><time>2026-04-06T12:42:09.809Z</time></trkpt><trkpt lat="43.8106041" lon="10.8918879"><ele>49.0</ele><time>2026-04-06T12:42:10.814Z</time></trkpt><trkpt lat="43.8106519" lon="10.8917748"><ele>49.0</ele><time>2026-04-06T12:42:11.815Z</time></trkpt><trkpt lat="43.8107122" lon="10.891691"><ele>49.0</ele><time>2026-04-06T12:42:12.813Z</time></trkpt><trkpt lat="43.8107792" lon="10.8916409"><ele>48.99999999999999</ele><time>2026-04-06T12:42:14.801Z</time></trkpt><trkpt lat="43.8108413" lon="10.8916265"><ele>49.0</ele><time>2026-04-06T12:42:15.809Z</time></trkpt><trkpt lat="43.8109594" lon="10.8917188"><ele>50.2</ele><time>2026-04-06T12:42:17.812Z</time></trkpt><trkpt lat="43.8110287" lon="10.8917969"><ele>51.400000000000006</ele><time>2026-04-06T12:42:18.81Z</time></trkpt><trkpt lat="43.8111005" lon="10.891883"><ele>52.6</ele><time>2026-04-06T12:42:19.811Z</time></trkpt><trkpt lat="43.8111625" lon="10.89199"><ele>53.8</ele><time>2026-04-06T12:42:20.805Z</time></trkpt><trkpt lat="43.8112518" lon="10.8920377"><ele>55.0</ele><time>2026-04-06T12:42:21.808Z</time></trkpt><trkpt lat="43.811365" lon="10.892112"><ele>55.0</ele><time>2026-04-06T12:42:23.801Z</time></trkpt><trkpt lat="43.8114769" lon="10.8921025"><ele>55.0</ele><time>2026-04-06T12:42:25.806Z</time></trkpt><trkpt lat="43.811537" lon="10.8920212"><ele>55.0</ele><time>2026-04-06T12:42:27.807Z</time></trkpt><trkpt lat="43.8115982" lon="10.8919503"><ele>55.0</ele><time>2026-04-06T12:42:29.806Z</time></trkpt><trkpt lat="43.8116465" lon="10.8918408"><ele>55.0</ele><time>2026-04-06T12:42:31.806Z</time></trkpt><trkpt lat="43.811712" lon="10.8917473"><ele>55.4</ele><time>2026-04-06T12:42:33.81Z</time></trkpt><trkpt lat="43.8117813" lon="10.891616"><ele>55.8</ele><time>2026-04-06T12:42:35.818Z</time></trkpt><trkpt lat="43.8118316" lon="10.8915372"><ele>56.2</ele><time>2026-04-06T12:42:37.808Z</time></trkpt><trkpt lat="43.8118375" lon="10.891423"><ele>56.6</ele><time>2026-04-06T12:42:40.807Z</time></trkpt><trkpt lat="43.8117994" lon="10.8913309"><ele>57.0</ele><time>2026-04-06T12:42:42.809Z</time></trkpt><trkpt lat="43.8117093" lon="10.891213"><ele>57.0</ele><time>2026-04-06T12:42:44.81Z</time></trkpt><trkpt lat="43.8116535" lon="10.891141"><ele>57.0</ele><time>2026-04-06T12:42:45.805Z</time></trkpt><trkpt lat="43.8116047" lon="10.8910147"><ele>57.0</ele><time>2026-04-06T12:42:46.809Z</time></trkpt><trkpt lat="43.8115421" lon="10.8909522"><ele>57.0</ele><time>2026-04-06T12:42:47.81Z</time></trkpt><trkpt lat="43.8114885" lon="10.8908698"><ele>57.0</ele><time>2026-04-06T12:42:48.806Z</time></trkpt><trkpt lat="43.8114403" lon="10.8907981"><ele>57.0</ele><time>2026-04-06T12:42:49.807Z</time></trkpt><trkpt lat="43.8113896" lon="10.8907306"><ele>56.833333333333336</ele><time>2026-04-06T12:42:50.806Z</time></trkpt><trkpt lat="43.8113448" lon="10.89066"><ele>56.66666666666667</ele><time>2026-04-06T12:42:51.806Z</time></trkpt><trkpt lat="43.8112952" lon="10.8906007"><ele>56.5</ele><time>2026-04-06T12:42:52.81Z</time></trkpt><trkpt lat="43.8112599" lon="10.8905268"><ele>56.333333333333336</ele><time>2026-04-06T12:42:53.804Z</time></trkpt><trkpt lat="43.8112075" lon="10.8904709"><ele>56.16666666666667</ele><time>2026-04-06T12:42:54.813Z</time></trkpt><trkpt lat="43.8111132" lon="10.8903769"><ele>56.0</ele><time>2026-04-06T12:42:56.805Z</time></trkpt><trkpt lat="43.8110577" lon="10.8902727"><ele>56.0</ele><time>2026-04-06T12:42:58.81Z</time></trkpt><trkpt lat="43.8110223" lon="10.8901378"><ele>55.99999999999999</ele><time>2026-04-06T12:43:00.808Z</time></trkpt><trkpt lat="43.8110126" lon="10.8899849"><ele>55.99999999999999</ele><time>2026-04-06T12:43:02.812Z</time></trkpt><trkpt lat="43.8110241" lon="10.8898172"><ele>56.0</ele><time>2026-04-06T12:43:04.809Z</time></trkpt><trkpt lat="43.811043" lon="10.8896744"><ele>56.0</ele><time>2026-04-06T12:43:06.808Z</time></trkpt><trkpt lat="43.8110661" lon="10.8895871"><ele>56.0</ele><time>2026-04-06T12:43:08.804Z</time></trkpt><trkpt lat="43.8110975" lon="10.8894194"><ele>55.99999999999999</ele><time>2026-04-06T12:43:11.807Z</time></trkpt><trkpt lat="43.8111062" lon="10.889309"><ele>55.99999999999999</ele><time>2026-04-06T12:43:12.818Z</time></trkpt><trkpt lat="43.8111125" lon="10.8892038"><ele>56.0</ele><time>2026-04-06T12:43:13.808Z</time></trkpt><trkpt lat="43.811107" lon="10.8890726"><ele>56.0</ele><time>2026-04-06T12:43:14.808Z</time></trkpt><trkpt lat="43.8111219" lon="10.8889536"><ele>56.199999999999996</ele><time>2026-04-06T12:43:15.81Z</time></trkpt><trkpt lat="43.8111438" lon="10.8888265"><ele>56.39999999999999</ele><time>2026-04-06T12:43:16.818Z</time></trkpt><trkpt lat="43.8111462" lon="10.8886962"><ele>56.6</ele><time>2026-04-06T12:43:17.804Z</time></trkpt><trkpt lat="43.8111568" lon="10.8885469"><ele>56.8</ele><time>2026-04-06T12:43:18.82Z</time></trkpt><trkpt lat="43.8111581" lon="10.8884021"><ele>57.0</ele><time>2026-04-06T12:43:19.802Z</time></trkpt><trkpt lat="43.8111844" lon="10.8882438"><ele>57.0</ele><time>2026-04-06T12:43:20.816Z</time></trkpt><trkpt lat="43.8111958" lon="10.8880737"><ele>57.0</ele><time>2026-04-06T12:43:21.808Z</time></trkpt><trkpt lat="43.8112111" lon="10.8879178"><ele>57.0</ele><time>2026-04-06T12:43:22.811Z</time></trkpt><trkpt lat="43.8112235" lon="10.88775"><ele>57.0</ele><time>2026-04-06T12:43:23.815Z</time></trkpt><trkpt lat="43.8112325" lon="10.8876101"><ele>56.400000000000006</ele><time>2026-04-06T12:43:24.806Z</time></trkpt><trkpt lat="43.8112295" lon="10.8874766"><ele>55.800000000000004</ele><time>2026-04-06T12:43:25.807Z</time></trkpt><trkpt lat="43.8112496" lon="10.8873301"><ele>55.2</ele><time>2026-04-06T12:43:26.806Z</time></trkpt><trkpt lat="43.8112929" lon="10.8871826"><ele>54.6</ele><time>2026-04-06T12:43:27.814Z</time></trkpt><trkpt lat="43.811339" lon="10.8870596"><ele>54.0</ele><time>2026-04-06T12:43:28.804Z</time></trkpt><trkpt lat="43.8114098" lon="10.8869517"><ele>54.0</ele><time>2026-04-06T12:43:29.809Z</time></trkpt><trkpt lat="43.8114883" lon="10.8868609"><ele>54.00000000000001</ele><time>2026-04-06T12:43:30.813Z</time></trkpt><trkpt lat="43.8115578" lon="10.8867875"><ele>54.00000000000001</ele><time>2026-04-06T12:43:31.813Z</time></trkpt><trkpt lat="43.8116285" lon="10.8866914"><ele>54.0</ele><time>2026-04-06T12:43:32.811Z</time></trkpt><trkpt lat="43.8116648" lon="10.8866079"><ele>54.0</ele><time>2026-04-06T12:43:33.811Z</time></trkpt><trkpt lat="43.8116964" lon="10.8864684"><ele>52.6</ele><time>2026-04-06T12:43:35.814Z</time></trkpt><trkpt lat="43.8116661" lon="10.8863907"><ele>51.2</ele><time>2026-04-06T12:43:36.807Z</time></trkpt><trkpt lat="43.8116343" lon="10.8862161"><ele>49.800000000000004</ele><time>2026-04-06T12:43:37.804Z</time></trkpt><trkpt lat="43.8116199" lon="10.8860606"><ele>48.400000000000006</ele><time>2026-04-06T12:43:38.802Z</time></trkpt><trkpt lat="43.8116032" lon="10.8859176"><ele>47.0</ele><time>2026-04-06T12:43:39.808Z</time></trkpt><trkpt lat="43.811624" lon="10.8857689"><ele>45.2</ele><time>2026-04-06T12:43:40.825Z</time></trkpt><trkpt lat="43.8116411" lon="10.8856281"><ele>43.400000000000006</ele><time>2026-04-06T12:43:41.805Z</time></trkpt><trkpt lat="43.8116604" lon="10.8854723"><ele>41.599999999999994</ele><time>2026-04-06T12:43:42.809Z</time></trkpt><trkpt lat="43.8116878" lon="10.8853237"><ele>39.8</ele><time>2026-04-06T12:43:43.803Z</time></trkpt><trkpt lat="43.8117182" lon="10.8851805"><ele>38.0</ele><time>2026-04-06T12:43:44.802Z</time></trkpt><trkpt lat="43.8117593" lon="10.8850398"><ele>38.199999999999996</ele><time>2026-04-06T12:43:45.808Z</time></trkpt><trkpt lat="43.8118279" lon="10.8849181"><ele>38.4</ele><time>2026-04-06T12:43:46.807Z</time></trkpt><trkpt lat="43.8118815" lon="10.8848012"><ele>38.599999999999994</ele><time>2026-04-06T12:43:47.809Z</time></trkpt><trkpt lat="43.8119521" lon="10.8846894"><ele>38.8</ele><time>2026-04-06T12:43:48.808Z</time></trkpt><trkpt lat="43.8120372" lon="10.8845849"><ele>39.0</ele><time>2026-04-06T12:43:49.806Z</time></trkpt><trkpt lat="43.8121108" lon="10.8844702"><ele>39.0</ele><time>2026-04-06T12:43:50.814Z</time></trkpt><trkpt lat="43.8121607" lon="10.8843376"><ele>39.0</ele><time>2026-04-06T12:43:51.809Z</time></trkpt><trkpt lat="43.8122047" lon="10.8841949"><ele>39.0</ele><time>2026-04-06T12:43:52.825Z</time></trkpt><trkpt lat="43.8121945" lon="10.8840203"><ele>39.0</ele><time>2026-04-06T12:43:53.802Z</time></trkpt><trkpt lat="43.8121982" lon="10.8838702"><ele>39.0</ele><time>2026-04-06T12:43:54.805Z</time></trkpt><trkpt lat="43.8122054" lon="10.8837064"><ele>39.0</ele><time>2026-04-06T12:43:55.809Z</time></trkpt><trkpt lat="43.8121998" lon="10.8835321"><ele>39.0</ele><time>2026-04-06T12:43:56.823Z</time></trkpt><trkpt lat="43.8121992" lon="10.8833539"><ele>39.0</ele><time>2026-04-06T12:43:57.803Z</time></trkpt><trkpt lat="43.812199" lon="10.8831748"><ele>39.0</ele><time>2026-04-06T12:43:58.818Z</time></trkpt><trkpt lat="43.8122005" lon="10.8829823"><ele>39.0</ele><time>2026-04-06T12:43:59.806Z</time></trkpt><trkpt lat="43.8122043" lon="10.8827986"><ele>39.0</ele><time>2026-04-06T12:44:00.803Z</time></trkpt><trkpt lat="43.8122022" lon="10.8825933"><ele>39.0</ele><time>2026-04-06T12:44:01.818Z</time></trkpt><trkpt lat="43.8121938" lon="10.8823807"><ele>39.0</ele><time>2026-04-06T12:44:02.809Z</time></trkpt><trkpt lat="43.8121939" lon="10.8821971"><ele>39.0</ele><time>2026-04-06T12:44:03.811Z</time></trkpt><trkpt lat="43.8121837" lon="10.8820127"><ele>39.0</ele><time>2026-04-06T12:44:04.807Z</time></trkpt><trkpt lat="43.8121768" lon="10.8818344"><ele>39.0</ele><time>2026-04-06T12:44:05.804Z</time></trkpt><trkpt lat="43.8121669" lon="10.8816525"><ele>39.5</ele><time>2026-04-06T12:44:06.806Z</time></trkpt><trkpt lat="43.8121488" lon="10.8814732"><ele>40.0</ele><time>2026-04-06T12:44:07.809Z</time></trkpt><trkpt lat="43.8121117" lon="10.8812858"><ele>40.5</ele><time>2026-04-06T12:44:08.807Z</time></trkpt><trkpt lat="43.8120737" lon="10.8811071"><ele>41.0</ele><time>2026-04-06T12:44:09.814Z</time></trkpt><trkpt lat="43.8120433" lon="10.8809336"><ele>41.75</ele><time>2026-04-06T12:44:10.807Z</time></trkpt><trkpt lat="43.8119799" lon="10.880766"><ele>42.5</ele><time>2026-04-06T12:44:11.809Z</time></trkpt><trkpt lat="43.8119199" lon="10.880609"><ele>43.25</ele><time>2026-04-06T12:44:12.818Z</time></trkpt><trkpt lat="43.8118492" lon="10.8804586"><ele>44.0</ele><time>2026-04-06T12:44:13.81Z</time></trkpt><trkpt lat="43.8118009" lon="10.8802931"><ele>43.2</ele><time>2026-04-06T12:44:14.806Z</time></trkpt><trkpt lat="43.8117594" lon="10.8801331"><ele>42.400000000000006</ele><time>2026-04-06T12:44:15.81Z</time></trkpt><trkpt lat="43.8117767" lon="10.8800207"><ele>41.6</ele><time>2026-04-06T12:44:16.81Z</time></trkpt><trkpt lat="43.8117533" lon="10.8798673"><ele>40.8</ele><time>2026-04-06T12:44:17.812Z</time></trkpt><trkpt lat="43.8117653" lon="10.8796929"><ele>40.0</ele><time>2026-04-06T12:44:18.807Z</time></trkpt><trkpt lat="43.8117304" lon="10.8795285"><ele>40.0</ele><time>2026-04-06T12:44:19.811Z</time></trkpt><trkpt lat="43.8117372" lon="10.8793465"><ele>40.0</ele><time>2026-04-06T12:44:20.816Z</time></trkpt><trkpt lat="43.8117522" lon="10.8791514"><ele>40.0</ele><time>2026-04-06T12:44:21.803Z</time></trkpt><trkpt lat="43.8117755" lon="10.8789592"><ele>40.0</ele><time>2026-04-06T12:44:22.799Z</time></trkpt><trkpt lat="43.8118146" lon="10.87877"><ele>40.5</ele><time>2026-04-06T12:44:23.805Z</time></trkpt><trkpt lat="43.8118322" lon="10.8785568"><ele>41.0</ele><time>2026-04-06T12:44:24.802Z</time></trkpt><trkpt lat="43.8118452" lon="10.8783608"><ele>41.5</ele><time>2026-04-06T12:44:25.81Z</time></trkpt><trkpt lat="43.8118664" lon="10.8781794"><ele>42.0</ele><time>2026-04-06T12:44:26.803Z</time></trkpt><trkpt lat="43.8119026" lon="10.8779975"><ele>42.0</ele><time>2026-04-06T12:44:27.804Z</time></trkpt><trkpt lat="43.8119275" lon="10.8778197"><ele>42.0</ele><time>2026-04-06T12:44:28.808Z</time></trkpt><trkpt lat="43.8119573" lon="10.8776509"><ele>42.0</ele><time>2026-04-06T12:44:29.813Z</time></trkpt><trkpt lat="43.8119828" lon="10.8774791"><ele>42.0</ele><time>2026-04-06T12:44:30.807Z</time></trkpt><trkpt lat="43.8120314" lon="10.8773054"><ele>42.0</ele><time>2026-04-06T12:44:31.807Z</time></trkpt><trkpt lat="43.8120475" lon="10.8771418"><ele>42.0</ele><time>2026-04-06T12:44:32.806Z</time></trkpt><trkpt lat="43.8120688" lon="10.8769488"><ele>42.0</ele><time>2026-04-06T12:44:33.809Z</time></trkpt><trkpt lat="43.8120797" lon="10.8767914"><ele>42.0</ele><time>2026-04-06T12:44:34.81Z</time></trkpt><trkpt lat="43.8120773" lon="10.8766376"><ele>42.0</ele><time>2026-04-06T12:44:35.807Z</time></trkpt><trkpt lat="43.8120829" lon="10.8764612"><ele>42.0</ele><time>2026-04-06T12:44:36.806Z</time></trkpt><trkpt lat="43.8120959" lon="10.8763095"><ele>42.0</ele><time>2026-04-06T12:44:37.805Z</time></trkpt><trkpt lat="43.8121105" lon="10.8761541"><ele>42.0</ele><time>2026-04-06T12:44:38.808Z</time></trkpt><trkpt lat="43.8121506" lon="10.8760019"><ele>42.25</ele><time>2026-04-06T12:44:39.807Z</time></trkpt><trkpt lat="43.8121763" lon="10.8758499"><ele>42.5</ele><time>2026-04-06T12:44:40.805Z</time></trkpt><trkpt lat="43.8122227" lon="10.8756889"><ele>42.75</ele><time>2026-04-06T12:44:41.807Z</time></trkpt><trkpt lat="43.8122506" lon="10.8755199"><ele>43.0</ele><time>2026-04-06T12:44:42.806Z</time></trkpt><trkpt lat="43.8122634" lon="10.87535"><ele>43.0</ele><time>2026-04-06T12:44:43.806Z</time></trkpt><trkpt lat="43.8122504" lon="10.8751639"><ele>43.0</ele><time>2026-04-06T12:44:44.805Z</time></trkpt><trkpt lat="43.812208" lon="10.8749949"><ele>43.0</ele><time>2026-04-06T12:44:45.813Z</time></trkpt><trkpt lat="43.81218" lon="10.8748264"><ele>43.0</ele><time>2026-04-06T12:44:46.805Z</time></trkpt><trkpt lat="43.812153" lon="10.8746277"><ele>43.25</ele><time>2026-04-06T12:44:47.805Z</time></trkpt><trkpt lat="43.8121171" lon="10.8744508"><ele>43.5</ele><time>2026-04-06T12:44:48.806Z</time></trkpt><trkpt lat="43.8120777" lon="10.8742572"><ele>43.75</ele><time>2026-04-06T12:44:49.808Z</time></trkpt><trkpt lat="43.8120251" lon="10.8740746"><ele>44.0</ele><time>2026-04-06T12:44:50.805Z</time></trkpt><trkpt lat="43.8119667" lon="10.8739046"><ele>44.0</ele><time>2026-04-06T12:44:51.807Z</time></trkpt><trkpt lat="43.8119118" lon="10.8737411"><ele>44.0</ele><time>2026-04-06T12:44:52.807Z</time></trkpt><trkpt lat="43.8118514" lon="10.873578"><ele>44.0</ele><time>2026-04-06T12:44:53.81Z</time></trkpt><trkpt lat="43.8118002" lon="10.8734173"><ele>44.0</ele><time>2026-04-06T12:44:54.811Z</time></trkpt><trkpt lat="43.8117517" lon="10.8732672"><ele>42.25</ele><time>2026-04-06T12:44:55.811Z</time></trkpt><trkpt lat="43.8117087" lon="10.8731089"><ele>40.5</ele><time>2026-04-06T12:44:56.807Z</time></trkpt><trkpt lat="43.8116741" lon="10.8729393"><ele>38.75</ele><time>2026-04-06T12:44:57.809Z</time></trkpt><trkpt lat="43.8116419" lon="10.8727457"><ele>37.0</ele><time>2026-04-06T12:44:58.813Z</time></trkpt><trkpt lat="43.8116235" lon="10.8725546"><ele>37.0</ele><time>2026-04-06T12:44:59.81Z</time></trkpt><trkpt lat="43.811602" lon="10.8723626"><ele>37.0</ele><time>2026-04-06T12:45:00.813Z</time></trkpt><trkpt lat="43.811575" lon="10.8721685"><ele>37.0</ele><time>2026-04-06T12:45:01.809Z</time></trkpt><trkpt lat="43.8115564" lon="10.8719741"><ele>37.0</ele><time>2026-04-06T12:45:02.807Z</time></trkpt><trkpt lat="43.8115426" lon="10.8717815"><ele>36.25</ele><time>2026-04-06T12:45:03.806Z</time></trkpt><trkpt lat="43.8115292" lon="10.8715863"><ele>35.5</ele><time>2026-04-06T12:45:04.809Z</time></trkpt><trkpt lat="43.8115048" lon="10.8713964"><ele>34.75</ele><time>2026-04-06T12:45:05.818Z</time></trkpt><trkpt lat="43.8114835" lon="10.8712082"><ele>34.0</ele><time>2026-04-06T12:45:06.802Z</time></trkpt><trkpt lat="43.8114635" lon="10.8710215"><ele>34.0</ele><time>2026-04-06T12:45:07.814Z</time></trkpt><trkpt lat="43.811452" lon="10.8708304"><ele>34.0</ele><time>2026-04-06T12:45:08.807Z</time></trkpt><trkpt lat="43.8114599" lon="10.8706524"><ele>34.0</ele><time>2026-04-06T12:45:09.805Z</time></trkpt><trkpt lat="43.811509" lon="10.8705153"><ele>34.0</ele><time>2026-04-06T12:45:10.804Z</time></trkpt><trkpt lat="43.8115567" lon="10.8703784"><ele>34.0</ele><time>2026-04-06T12:45:11.806Z</time></trkpt><trkpt lat="43.8116129" lon="10.8702142"><ele>34.0</ele><time>2026-04-06T12:45:12.813Z</time></trkpt><trkpt lat="43.8116778" lon="10.8700403"><ele>34.0</ele><time>2026-04-06T12:45:13.827Z</time></trkpt><trkpt lat="43.8117461" lon="10.8698515"><ele>34.0</ele><time>2026-04-06T12:45:14.805Z</time></trkpt><trkpt lat="43.8117973" lon="10.8696789"><ele>33.333333333333336</ele><time>2026-04-06T12:45:15.807Z</time></trkpt><trkpt lat="43.8118438" lon="10.8695475"><ele>32.66666666666667</ele><time>2026-04-06T12:45:16.802Z</time></trkpt><trkpt lat="43.8118648" lon="10.8694466"><ele>32.0</ele><time>2026-04-06T12:45:17.81Z</time></trkpt><trkpt lat="43.8118541" lon="10.8693302"><ele>31.333333333333336</ele><time>2026-04-06T12:45:18.801Z</time></trkpt><trkpt lat="43.811854" lon="10.8692326"><ele>30.666666666666668</ele><time>2026-04-06T12:45:19.813Z</time></trkpt><trkpt lat="43.8118238" lon="10.869123"><ele>30.0</ele><time>2026-04-06T12:45:20.813Z</time></trkpt><trkpt lat="43.8117969" lon="10.8690272"><ele>30.0</ele><time>2026-04-06T12:45:21.806Z</time></trkpt><trkpt lat="43.8117734" lon="10.8689378"><ele>30.0</ele><time>2026-04-06T12:45:22.803Z</time></trkpt><trkpt lat="43.8117812" lon="10.8687896"><ele>30.0</ele><time>2026-04-06T12:45:23.801Z</time></trkpt><trkpt lat="43.8118091" lon="10.8686548"><ele>30.0</ele><time>2026-04-06T12:45:24.805Z</time></trkpt><trkpt lat="43.8118348" lon="10.8685211"><ele>30.0</ele><time>2026-04-06T12:45:25.805Z</time></trkpt><trkpt lat="43.8118534" lon="10.8684092"><ele>29.833333333333332</ele><time>2026-04-06T12:45:26.809Z</time></trkpt><trkpt lat="43.8118519" lon="10.8682947"><ele>29.666666666666664</ele><time>2026-04-06T12:45:27.805Z</time></trkpt><trkpt lat="43.8118538" lon="10.8681764"><ele>29.5</ele><time>2026-04-06T12:45:28.812Z</time></trkpt><trkpt lat="43.8118333" lon="10.8680746"><ele>29.333333333333332</ele><time>2026-04-06T12:45:29.818Z</time></trkpt><trkpt lat="43.811813" lon="10.8679459"><ele>29.166666666666664</ele><time>2026-04-06T12:45:30.804Z</time></trkpt><trkpt lat="43.8117834" lon="10.8678105"><ele>29.0</ele><time>2026-04-06T12:45:31.799Z</time></trkpt><trkpt lat="43.811765" lon="10.8676533"><ele>29.0</ele><time>2026-04-06T12:45:32.812Z</time></trkpt><trkpt lat="43.8117551" lon="10.8674887"><ele>29.0</ele><time>2026-04-06T12:45:33.806Z</time></trkpt><trkpt lat="43.811757" lon="10.8673159"><ele>29.0</ele><time>2026-04-06T12:45:34.813Z</time></trkpt><trkpt lat="43.8117374" lon="10.8671394"><ele>29.0</ele><time>2026-04-06T12:45:35.803Z</time></trkpt><trkpt lat="43.8116953" lon="10.8669714"><ele>29.0</ele><time>2026-04-06T12:45:36.804Z</time></trkpt><trkpt lat="43.8116677" lon="10.8667957"><ele>29.0</ele><time>2026-04-06T12:45:37.807Z</time></trkpt><trkpt lat="43.8116255" lon="10.8666234"><ele>29.0</ele><time>2026-04-06T12:45:38.804Z</time></trkpt><trkpt lat="43.8115843" lon="10.8664632"><ele>29.0</ele><time>2026-04-06T12:45:39.808Z</time></trkpt><trkpt lat="43.8115528" lon="10.8663165"><ele>28.666666666666664</ele><time>2026-04-06T12:45:40.806Z</time></trkpt><trkpt lat="43.811534" lon="10.8661931"><ele>28.333333333333332</ele><time>2026-04-06T12:45:41.806Z</time></trkpt><trkpt lat="43.8115183" lon="10.8660662"><ele>28.0</ele><time>2026-04-06T12:45:42.809Z</time></trkpt><trkpt lat="43.8115198" lon="10.8659549"><ele>27.666666666666664</ele><time>2026-04-06T12:45:43.811Z</time></trkpt><trkpt lat="43.8115382" lon="10.865845"><ele>27.333333333333332</ele><time>2026-04-06T12:45:44.808Z</time></trkpt><trkpt lat="43.8115675" lon="10.8657439"><ele>27.0</ele><time>2026-04-06T12:45:45.803Z</time></trkpt><trkpt lat="43.8116047" lon="10.8656474"><ele>26.8</ele><time>2026-04-06T12:45:46.805Z</time></trkpt><trkpt lat="43.8116233" lon="10.8655485"><ele>26.6</ele><time>2026-04-06T12:45:47.815Z</time></trkpt><trkpt lat="43.81168" lon="10.8654339"><ele>26.400000000000002</ele><time>2026-04-06T12:45:48.806Z</time></trkpt><trkpt lat="43.8117123" lon="10.8653324"><ele>26.200000000000003</ele><time>2026-04-06T12:45:49.804Z</time></trkpt><trkpt lat="43.8118101" lon="10.8651617"><ele>26.0</ele><time>2026-04-06T12:45:50.809Z</time></trkpt><trkpt lat="43.8118999" lon="10.8650389"><ele>26.0</ele><time>2026-04-06T12:45:51.83Z</time></trkpt><trkpt lat="43.8119798" lon="10.8648888"><ele>26.0</ele><time>2026-04-06T12:45:52.815Z</time></trkpt><trkpt lat="43.8120734" lon="10.8647644"><ele>26.0</ele><time>2026-04-06T12:45:53.807Z</time></trkpt><trkpt lat="43.8121529" lon="10.8646016"><ele>26.0</ele><time>2026-04-06T12:45:54.803Z</time></trkpt><trkpt lat="43.8122519" lon="10.8644907"><ele>26.0</ele><time>2026-04-06T12:45:55.821Z</time></trkpt><trkpt lat="43.8123373" lon="10.8643637"><ele>26.0</ele><time>2026-04-06T12:45:56.808Z</time></trkpt><trkpt lat="43.8124235" lon="10.8642287"><ele>26.0</ele><time>2026-04-06T12:45:57.827Z</time></trkpt><trkpt lat="43.8125206" lon="10.8641051"><ele>26.0</ele><time>2026-04-06T12:45:58.809Z</time></trkpt><trkpt lat="43.8126023" lon="10.8639782"><ele>25.5</ele><time>2026-04-06T12:45:59.809Z</time></trkpt><trkpt lat="43.8126919" lon="10.8638579"><ele>25.0</ele><time>2026-04-06T12:46:00.809Z</time></trkpt><trkpt lat="43.8127732" lon="10.8637167"><ele>24.5</ele><time>2026-04-06T12:46:01.817Z</time></trkpt><trkpt lat="43.8128717" lon="10.8635963"><ele>24.0</ele><time>2026-04-06T12:46:02.804Z</time></trkpt><trkpt lat="43.8129366" lon="10.8634651"><ele>24.0</ele><time>2026-04-06T12:46:03.806Z</time></trkpt><trkpt lat="43.8130515" lon="10.8633386"><ele>24.0</ele><time>2026-04-06T12:46:04.821Z</time></trkpt><trkpt lat="43.8131212" lon="10.8631833"><ele>24.0</ele><time>2026-04-06T12:46:05.8Z</time></trkpt><trkpt lat="43.8132038" lon="10.8630363"><ele>24.0</ele><time>2026-04-06T12:46:06.801Z</time></trkpt><trkpt lat="43.8132735" lon="10.862882"><ele>24.0</ele><time>2026-04-06T12:46:07.808Z</time></trkpt><trkpt lat="43.8133475" lon="10.8627167"><ele>24.0</ele><time>2026-04-06T12:46:08.821Z</time></trkpt><trkpt lat="43.8134129" lon="10.8625421"><ele>24.0</ele><time>2026-04-06T12:46:09.803Z</time></trkpt><trkpt lat="43.8134752" lon="10.8623782"><ele>24.0</ele><time>2026-04-06T12:46:10.804Z</time></trkpt><trkpt lat="43.8135361" lon="10.8621986"><ele>24.0</ele><time>2026-04-06T12:46:11.815Z</time></trkpt><trkpt lat="43.8135873" lon="10.8620674"><ele>24.0</ele><time>2026-04-06T12:46:12.803Z</time></trkpt><trkpt lat="43.8136524" lon="10.8619722"><ele>24.0</ele><time>2026-04-06T12:46:13.808Z</time></trkpt><trkpt lat="43.8137441" lon="10.8618317"><ele>24.0</ele><time>2026-04-06T12:46:14.8Z</time></trkpt><trkpt lat="43.8138451" lon="10.8617206"><ele>23.75</ele><time>2026-04-06T12:46:15.823Z</time></trkpt><trkpt lat="43.81396" lon="10.8616195"><ele>23.5</ele><time>2026-04-06T12:46:16.8Z</time></trkpt><trkpt lat="43.8140903" lon="10.8614943"><ele>23.25</ele><time>2026-04-06T12:46:17.804Z</time></trkpt><trkpt lat="43.8141919" lon="10.861415"><ele>23.0</ele><time>2026-04-06T12:46:18.801Z</time></trkpt><trkpt lat="43.81427" lon="10.8612839"><ele>23.4</ele><time>2026-04-06T12:46:19.801Z</time></trkpt><trkpt lat="43.814351" lon="10.8611992"><ele>23.799999999999997</ele><time>2026-04-06T12:46:20.807Z</time></trkpt><trkpt lat="43.8144417" lon="10.8611181"><ele>24.2</ele><time>2026-04-06T12:46:21.817Z</time></trkpt><trkpt lat="43.8145215" lon="10.8610795"><ele>24.6</ele><time>2026-04-06T12:46:22.806Z</time></trkpt><trkpt lat="43.8145906" lon="10.8610136"><ele>25.0</ele><time>2026-04-06T12:46:23.805Z</time></trkpt><trkpt lat="43.8147191" lon="10.8610172"><ele>25.000000000000004</ele><time>2026-04-06T12:46:25.805Z</time></trkpt><trkpt lat="43.8147906" lon="10.8610033"><ele>25.0</ele><time>2026-04-06T12:46:26.811Z</time></trkpt><trkpt lat="43.8148569" lon="10.860985"><ele>25.0</ele><time>2026-04-06T12:46:27.826Z</time></trkpt><trkpt lat="43.8149122" lon="10.8608965"><ele>25.0</ele><time>2026-04-06T12:46:29.815Z</time></trkpt><trkpt lat="43.8148892" lon="10.8607584"><ele>25.000000000000004</ele><time>2026-04-06T12:46:31.81Z</time></trkpt><trkpt lat="43.8147925" lon="10.8606705"><ele>25.0</ele><time>2026-04-06T12:46:33.806Z</time></trkpt><trkpt lat="43.8147317" lon="10.8606139"><ele>25.0</ele><time>2026-04-06T12:46:34.815Z</time></trkpt><trkpt lat="43.8146662" lon="10.8605396"><ele>25.0</ele><time>2026-04-06T12:46:35.806Z</time></trkpt><trkpt lat="43.8146009" lon="10.8604307"><ele>25.0</ele><time>2026-04-06T12:46:36.817Z</time></trkpt><trkpt lat="43.814551" lon="10.860261"><ele>25.0</ele><time>2026-04-06T12:46:37.811Z</time></trkpt><trkpt lat="43.8144972" lon="10.8601194"><ele>25.0</ele><time>2026-04-06T12:46:38.806Z</time></trkpt><trkpt lat="43.8144309" lon="10.8599145"><ele>24.75</ele><time>2026-04-06T12:46:39.803Z</time></trkpt><trkpt lat="43.8143556" lon="10.8597527"><ele>24.5</ele><time>2026-04-06T12:46:40.801Z</time></trkpt><trkpt lat="43.8142993" lon="10.8595469"><ele>24.25</ele><time>2026-04-06T12:46:41.806Z</time></trkpt><trkpt lat="43.8142561" lon="10.8594193"><ele>24.0</ele><time>2026-04-06T12:46:42.826Z</time></trkpt><trkpt lat="43.8142171" lon="10.8591229"><ele>23.666666666666668</ele><time>2026-04-06T12:46:43.8Z</time></trkpt><trkpt lat="43.8141809" lon="10.8589023"><ele>23.333333333333336</ele><time>2026-04-06T12:46:44.81Z</time></trkpt><trkpt lat="43.8141637" lon="10.858662"><ele>23.0</ele><time>2026-04-06T12:46:45.811Z</time></trkpt><trkpt lat="43.8141394" lon="10.8584402"><ele>23.0</ele><time>2026-04-06T12:46:46.814Z</time></trkpt><trkpt lat="43.8141304" lon="10.8582303"><ele>23.0</ele><time>2026-04-06T12:46:47.807Z</time></trkpt><trkpt lat="43.8141173" lon="10.8579898"><ele>23.0</ele><time>2026-04-06T12:46:48.804Z</time></trkpt><trkpt lat="43.8140994" lon="10.8577597"><ele>22.666666666666668</ele><time>2026-04-06T12:46:49.813Z</time></trkpt><trkpt lat="43.8140822" lon="10.8575267"><ele>22.333333333333332</ele><time>2026-04-06T12:46:50.814Z</time></trkpt><trkpt lat="43.8140704" lon="10.8572936"><ele>22.0</ele><time>2026-04-06T12:46:51.807Z</time></trkpt><trkpt lat="43.8140334" lon="10.8570762"><ele>22.0</ele><time>2026-04-06T12:46:52.805Z</time></trkpt><trkpt lat="43.8139778" lon="10.8568557"><ele>22.0</ele><time>2026-04-06T12:46:53.805Z</time></trkpt><trkpt lat="43.813916" lon="10.8566418"><ele>22.0</ele><time>2026-04-06T12:46:54.817Z</time></trkpt><trkpt lat="43.8138484" lon="10.8564181"><ele>21.666666666666664</ele><time>2026-04-06T12:46:55.817Z</time></trkpt><trkpt lat="43.8137849" lon="10.8562051"><ele>21.333333333333332</ele><time>2026-04-06T12:46:56.807Z</time></trkpt><trkpt lat="43.8137148" lon="10.8559853"><ele>21.0</ele><time>2026-04-06T12:46:57.81Z</time></trkpt><trkpt lat="43.8136359" lon="10.8557702"><ele>21.0</ele><time>2026-04-06T12:46:58.804Z</time></trkpt><trkpt lat="43.8135664" lon="10.8555547"><ele>21.0</ele><time>2026-04-06T12:46:59.812Z</time></trkpt><trkpt lat="43.8134893" lon="10.8553309"><ele>21.0</ele><time>2026-04-06T12:47:00.805Z</time></trkpt><trkpt lat="43.8134227" lon="10.8550979"><ele>20.666666666666668</ele><time>2026-04-06T12:47:01.804Z</time></trkpt><trkpt lat="43.8133605" lon="10.8548649"><ele>20.333333333333336</ele><time>2026-04-06T12:47:02.806Z</time></trkpt><trkpt lat="43.8133234" lon="10.8546292"><ele>20.0</ele><time>2026-04-06T12:47:03.803Z</time></trkpt><trkpt lat="43.8132909" lon="10.8543889"><ele>20.666666666666668</ele><time>2026-04-06T12:47:04.811Z</time></trkpt><trkpt lat="43.8132627" lon="10.8541363"><ele>21.333333333333332</ele><time>2026-04-06T12:47:05.815Z</time></trkpt><trkpt lat="43.813264" lon="10.85389"><ele>22.0</ele><time>2026-04-06T12:47:06.829Z</time></trkpt><trkpt lat="43.8132805" lon="10.8536369"><ele>21.666666666666664</ele><time>2026-04-06T12:47:07.81Z</time></trkpt><trkpt lat="43.8133019" lon="10.8533912"><ele>21.333333333333332</ele><time>2026-04-06T12:47:08.808Z</time></trkpt><trkpt lat="43.8133248" lon="10.8531451"><ele>21.0</ele><time>2026-04-06T12:47:09.807Z</time></trkpt><trkpt lat="43.8133796" lon="10.8529097"><ele>21.0</ele><time>2026-04-06T12:47:10.817Z</time></trkpt><trkpt lat="43.8134511" lon="10.8526895"><ele>21.0</ele><time>2026-04-06T12:47:11.806Z</time></trkpt><trkpt lat="43.813516" lon="10.8524707"><ele>21.0</ele><time>2026-04-06T12:47:12.809Z</time></trkpt><trkpt lat="43.8135958" lon="10.8522575"><ele>20.666666666666668</ele><time>2026-04-06T12:47:13.808Z</time></trkpt><trkpt lat="43.8136863" lon="10.8520483"><ele>20.333333333333336</ele><time>2026-04-06T12:47:14.806Z</time></trkpt><trkpt lat="43.8137711" lon="10.8518444"><ele>20.0</ele><time>2026-04-06T12:47:15.805Z</time></trkpt><trkpt lat="43.8138602" lon="10.8516562"><ele>20.0</ele><time>2026-04-06T12:47:16.808Z</time></trkpt><trkpt lat="43.8139328" lon="10.8515226"><ele>20.0</ele><time>2026-04-06T12:47:17.83Z</time></trkpt><trkpt lat="43.8140008" lon="10.8513783"><ele>20.0</ele><time>2026-04-06T12:47:18.805Z</time></trkpt><trkpt lat="43.8140703" lon="10.8512243"><ele>20.0</ele><time>2026-04-06T12:47:19.806Z</time></trkpt><trkpt lat="43.8141812" lon="10.8511249"><ele>20.0</ele><time>2026-04-06T12:47:21.802Z</time></trkpt><trkpt lat="43.8142348" lon="10.8510511"><ele>20.0</ele><time>2026-04-06T12:47:22.805Z</time></trkpt><trkpt lat="43.8142867" lon="10.8509846"><ele>20.0</ele><time>2026-04-06T12:47:23.813Z</time></trkpt><trkpt lat="43.8143436" lon="10.8508454"><ele>20.0</ele><time>2026-04-06T12:47:25.807Z</time></trkpt><trkpt lat="43.8143447" lon="10.8507111"><ele>20.0</ele><time>2026-04-06T12:47:27.819Z</time></trkpt><trkpt lat="43.8141935" lon="10.8506466"><ele>20.0</ele><time>2026-04-06T12:47:29.806Z</time></trkpt><trkpt lat="43.814095" lon="10.8506426"><ele>20.0</ele><time>2026-04-06T12:47:30.806Z</time></trkpt><trkpt lat="43.8140035" lon="10.8506061"><ele>20.0</ele><time>2026-04-06T12:47:31.81Z</time></trkpt><trkpt lat="43.8138859" lon="10.8505632"><ele>20.0</ele><time>2026-04-06T12:47:32.806Z</time></trkpt><trkpt lat="43.8137655" lon="10.8505044"><ele>20.0</ele><time>2026-04-06T12:47:33.81Z</time></trkpt><trkpt lat="43.8136291" lon="10.8504254"><ele>20.0</ele><time>2026-04-06T12:47:34.804Z</time></trkpt><trkpt lat="43.8135115" lon="10.8503496"><ele>20.0</ele><time>2026-04-06T12:47:35.806Z</time></trkpt><trkpt lat="43.8133904" lon="10.8502788"><ele>20.0</ele><time>2026-04-06T12:47:36.808Z</time></trkpt><trkpt lat="43.8132666" lon="10.8502156"><ele>20.0</ele><time>2026-04-06T12:47:37.804Z</time></trkpt><trkpt lat="43.8131386" lon="10.8501542"><ele>20.0</ele><time>2026-04-06T12:47:38.806Z</time></trkpt><trkpt lat="43.813004" lon="10.8500781"><ele>20.0</ele><time>2026-04-06T12:47:39.805Z</time></trkpt><trkpt lat="43.8128759" lon="10.8499897"><ele>20.0</ele><time>2026-04-06T12:47:40.808Z</time></trkpt><trkpt lat="43.8127359" lon="10.8499074"><ele>20.0</ele><time>2026-04-06T12:47:41.816Z</time></trkpt><trkpt lat="43.8125853" lon="10.8498265"><ele>19.333333333333336</ele><time>2026-04-06T12:47:42.802Z</time></trkpt><trkpt lat="43.81243" lon="10.8497407"><ele>18.666666666666668</ele><time>2026-04-06T12:47:43.805Z</time></trkpt><trkpt lat="43.8122767" lon="10.8496522"><ele>18.0</ele><time>2026-04-06T12:47:44.808Z</time></trkpt><trkpt lat="43.8121301" lon="10.8495726"><ele>18.0</ele><time>2026-04-06T12:47:45.802Z</time></trkpt><trkpt lat="43.8119841" lon="10.8494794"><ele>18.0</ele><time>2026-04-06T12:47:46.804Z</time></trkpt><trkpt lat="43.8118302" lon="10.8494026"><ele>18.0</ele><time>2026-04-06T12:47:47.804Z</time></trkpt><trkpt lat="43.8116682" lon="10.8493171"><ele>18.0</ele><time>2026-04-06T12:47:48.813Z</time></trkpt><trkpt lat="43.8115035" lon="10.8492303"><ele>18.0</ele><time>2026-04-06T12:47:49.81Z</time></trkpt><trkpt lat="43.8113464" lon="10.8491425"><ele>18.0</ele><time>2026-04-06T12:47:50.806Z</time></trkpt><trkpt lat="43.8111915" lon="10.8490532"><ele>18.0</ele><time>2026-04-06T12:47:51.806Z</time></trkpt><trkpt lat="43.8110233" lon="10.8489693"><ele>18.0</ele><time>2026-04-06T12:47:52.803Z</time></trkpt><trkpt lat="43.8108593" lon="10.8488732"><ele>18.0</ele><time>2026-04-06T12:47:53.809Z</time></trkpt><trkpt lat="43.8107034" lon="10.8487865"><ele>17.666666666666668</ele><time>2026-04-06T12:47:54.814Z</time></trkpt><trkpt lat="43.8105519" lon="10.8486855"><ele>17.333333333333336</ele><time>2026-04-06T12:47:55.807Z</time></trkpt><trkpt lat="43.8104105" lon="10.8486069"><ele>17.0</ele><time>2026-04-06T12:47:56.803Z</time></trkpt><trkpt lat="43.8102578" lon="10.8485221"><ele>17.5</ele><time>2026-04-06T12:47:57.803Z</time></trkpt><trkpt lat="43.8101275" lon="10.8484411"><ele>18.0</ele><time>2026-04-06T12:47:58.806Z</time></trkpt><trkpt lat="43.8099909" lon="10.8483745"><ele>18.5</ele><time>2026-04-06T12:47:59.804Z</time></trkpt><trkpt lat="43.8098601" lon="10.8483095"><ele>19.0</ele><time>2026-04-06T12:48:00.806Z</time></trkpt><trkpt lat="43.8097353" lon="10.8482463"><ele>19.0</ele><time>2026-04-06T12:48:01.802Z</time></trkpt><trkpt lat="43.8096214" lon="10.848188"><ele>19.0</ele><time>2026-04-06T12:48:02.806Z</time></trkpt><trkpt lat="43.8095257" lon="10.8481351"><ele>19.0</ele><time>2026-04-06T12:48:03.805Z</time></trkpt><trkpt lat="43.8094433" lon="10.8480829"><ele>19.0</ele><time>2026-04-06T12:48:04.803Z</time></trkpt><trkpt lat="43.8093787" lon="10.8480324"><ele>19.0</ele><time>2026-04-06T12:48:05.813Z</time></trkpt><trkpt lat="43.8093337" lon="10.8479661"><ele>19.0</ele><time>2026-04-06T12:48:06.804Z</time></trkpt><trkpt lat="43.8092964" lon="10.8478351"><ele>19.0</ele><time>2026-04-06T12:48:08.804Z</time></trkpt><trkpt lat="43.809297" lon="10.8477261"><ele>19.0</ele><time>2026-04-06T12:48:10.814Z</time></trkpt><trkpt lat="43.809314" lon="10.8476058"><ele>19.0</ele><time>2026-04-06T12:48:12.807Z</time></trkpt><trkpt lat="43.8093716" lon="10.8474749"><ele>19.0</ele><time>2026-04-06T12:48:13.805Z</time></trkpt><trkpt lat="43.8094181" lon="10.8473577"><ele>19.25</ele><time>2026-04-06T12:48:14.809Z</time></trkpt><trkpt lat="43.8094592" lon="10.8472405"><ele>19.5</ele><time>2026-04-06T12:48:15.805Z</time></trkpt><trkpt lat="43.8095015" lon="10.8471111"><ele>19.75</ele><time>2026-04-06T12:48:16.805Z</time></trkpt><trkpt lat="43.8095488" lon="10.8469456"><ele>20.0</ele><time>2026-04-06T12:48:17.809Z</time></trkpt><trkpt lat="43.8095979" lon="10.8467779"><ele>20.5</ele><time>2026-04-06T12:48:18.804Z</time></trkpt><trkpt lat="43.8096449" lon="10.846602"><ele>21.0</ele><time>2026-04-06T12:48:19.806Z</time></trkpt><trkpt lat="43.8096975" lon="10.8464267"><ele>21.5</ele><time>2026-04-06T12:48:20.804Z</time></trkpt><trkpt lat="43.8097501" lon="10.8462482"><ele>22.0</ele><time>2026-04-06T12:48:21.813Z</time></trkpt><trkpt lat="43.8097908" lon="10.8460637"><ele>21.75</ele><time>2026-04-06T12:48:22.806Z</time></trkpt><trkpt lat="43.8098429" lon="10.8458815"><ele>21.5</ele><time>2026-04-06T12:48:23.804Z</time></trkpt><trkpt lat="43.8098929" lon="10.8457064"><ele>21.25</ele><time>2026-04-06T12:48:24.806Z</time></trkpt><trkpt lat="43.8099335" lon="10.8455007"><ele>21.0</ele><time>2026-04-06T12:48:25.806Z</time></trkpt><trkpt lat="43.8099777" lon="10.8452891"><ele>20.666666666666668</ele><time>2026-04-06T12:48:26.806Z</time></trkpt><trkpt lat="43.8100219" lon="10.8450886"><ele>20.333333333333336</ele><time>2026-04-06T12:48:27.803Z</time></trkpt><trkpt lat="43.8100723" lon="10.844895"><ele>20.0</ele><time>2026-04-06T12:48:28.803Z</time></trkpt><trkpt lat="43.8101281" lon="10.8446961"><ele>20.0</ele><time>2026-04-06T12:48:29.804Z</time></trkpt><trkpt lat="43.8101851" lon="10.8445123"><ele>20.0</ele><time>2026-04-06T12:48:30.812Z</time></trkpt><trkpt lat="43.8102647" lon="10.8443606"><ele>20.0</ele><time>2026-04-06T12:48:31.802Z</time></trkpt><trkpt lat="43.8103573" lon="10.8442056"><ele>20.0</ele><time>2026-04-06T12:48:32.816Z</time></trkpt><trkpt lat="43.8104631" lon="10.8440438"><ele>20.0</ele><time>2026-04-06T12:48:33.82Z</time></trkpt><trkpt lat="43.8106005" lon="10.8439192"><ele>20.0</ele><time>2026-04-06T12:48:34.805Z</time></trkpt><trkpt lat="43.8107306" lon="10.8437987"><ele>20.0</ele><time>2026-04-06T12:48:35.812Z</time></trkpt><trkpt lat="43.8108656" lon="10.8436637"><ele>20.0</ele><time>2026-04-06T12:48:36.805Z</time></trkpt><trkpt lat="43.8110175" lon="10.8435595"><ele>20.0</ele><time>2026-04-06T12:48:37.805Z</time></trkpt><trkpt lat="43.8111522" lon="10.8434386"><ele>20.0</ele><time>2026-04-06T12:48:38.806Z</time></trkpt><trkpt lat="43.8112772" lon="10.8432922"><ele>20.5</ele><time>2026-04-06T12:48:39.808Z</time></trkpt><trkpt lat="43.8114012" lon="10.8431764"><ele>21.0</ele><time>2026-04-06T12:48:40.811Z</time></trkpt><trkpt lat="43.811527" lon="10.843075"><ele>21.5</ele><time>2026-04-06T12:48:41.81Z</time></trkpt><trkpt lat="43.8116641" lon="10.8429941"><ele>22.0</ele><time>2026-04-06T12:48:42.806Z</time></trkpt><trkpt lat="43.8118207" lon="10.8429558"><ele>22.0</ele><time>2026-04-06T12:48:43.806Z</time></trkpt><trkpt lat="43.8119777" lon="10.8429521"><ele>22.0</ele><time>2026-04-06T12:48:44.808Z</time></trkpt><trkpt lat="43.812122" lon="10.8429272"><ele>22.0</ele><time>2026-04-06T12:48:45.804Z</time></trkpt><trkpt lat="43.8122951" lon="10.8429304"><ele>22.0</ele><time>2026-04-06T12:48:46.807Z</time></trkpt><trkpt lat="43.812444" lon="10.8429194"><ele>22.0</ele><time>2026-04-06T12:48:47.809Z</time></trkpt><trkpt lat="43.8125929" lon="10.8429367"><ele>22.0</ele><time>2026-04-06T12:48:48.806Z</time></trkpt><trkpt lat="43.8127305" lon="10.8429561"><ele>22.0</ele><time>2026-04-06T12:48:49.804Z</time></trkpt><trkpt lat="43.8128632" lon="10.842951"><ele>22.5</ele><time>2026-04-06T12:48:50.811Z</time></trkpt><trkpt lat="43.8130036" lon="10.8429591"><ele>23.0</ele><time>2026-04-06T12:48:51.806Z</time></trkpt><trkpt lat="43.813134" lon="10.8429642"><ele>23.5</ele><time>2026-04-06T12:48:52.804Z</time></trkpt><trkpt lat="43.8132721" lon="10.8429437"><ele>24.0</ele><time>2026-04-06T12:48:53.809Z</time></trkpt><trkpt lat="43.8134148" lon="10.8429267"><ele>24.75</ele><time>2026-04-06T12:48:54.808Z</time></trkpt><trkpt lat="43.8135369" lon="10.8429143"><ele>25.5</ele><time>2026-04-06T12:48:55.813Z</time></trkpt><trkpt lat="43.8136602" lon="10.8428956"><ele>26.25</ele><time>2026-04-06T12:48:56.808Z</time></trkpt><trkpt lat="43.8137801" lon="10.8428752"><ele>27.0</ele><time>2026-04-06T12:48:57.812Z</time></trkpt><trkpt lat="43.8138964" lon="10.8428507"><ele>27.0</ele><time>2026-04-06T12:48:58.809Z</time></trkpt><trkpt lat="43.814007" lon="10.8428363"><ele>27.0</ele><time>2026-04-06T12:48:59.806Z</time></trkpt><trkpt lat="43.814127" lon="10.8427969"><ele>27.0</ele><time>2026-04-06T12:49:00.804Z</time></trkpt><trkpt lat="43.8142444" lon="10.8427664"><ele>27.0</ele><time>2026-04-06T12:49:01.805Z</time></trkpt><trkpt lat="43.8143654" lon="10.8427386"><ele>27.0</ele><time>2026-04-06T12:49:02.807Z</time></trkpt><trkpt lat="43.8144935" lon="10.8427029"><ele>27.0</ele><time>2026-04-06T12:49:03.813Z</time></trkpt><trkpt lat="43.8146156" lon="10.8426591"><ele>27.0</ele><time>2026-04-06T12:49:04.815Z</time></trkpt><trkpt lat="43.814743" lon="10.8426196"><ele>27.0</ele><time>2026-04-06T12:49:05.803Z</time></trkpt><trkpt lat="43.8148793" lon="10.8425704"><ele>27.0</ele><time>2026-04-06T12:49:06.807Z</time></trkpt><trkpt lat="43.8150085" lon="10.8425371"><ele>27.0</ele><time>2026-04-06T12:49:07.807Z</time></trkpt><trkpt lat="43.8151379" lon="10.8424956"><ele>27.0</ele><time>2026-04-06T12:49:08.805Z</time></trkpt><trkpt lat="43.8152629" lon="10.842453"><ele>27.0</ele><time>2026-04-06T12:49:09.811Z</time></trkpt><trkpt lat="43.8153776" lon="10.8424031"><ele>27.0</ele><time>2026-04-06T12:49:10.802Z</time></trkpt><trkpt lat="43.8154871" lon="10.8423447"><ele>27.0</ele><time>2026-04-06T12:49:11.808Z</time></trkpt><trkpt lat="43.8155973" lon="10.8422617"><ele>27.0</ele><time>2026-04-06T12:49:12.813Z</time></trkpt><trkpt lat="43.8156889" lon="10.8421695"><ele>27.0</ele><time>2026-04-06T12:49:13.809Z</time></trkpt><trkpt lat="43.8157811" lon="10.8420668"><ele>27.0</ele><time>2026-04-06T12:49:14.809Z</time></trkpt><trkpt lat="43.8158681" lon="10.8419667"><ele>27.0</ele><time>2026-04-06T12:49:15.811Z</time></trkpt><trkpt lat="43.815965" lon="10.841862"><ele>27.0</ele><time>2026-04-06T12:49:16.801Z</time></trkpt><trkpt lat="43.8160587" lon="10.8417463"><ele>27.0</ele><time>2026-04-06T12:49:17.803Z</time></trkpt><trkpt lat="43.8161536" lon="10.8416359"><ele>26.0</ele><time>2026-04-06T12:49:18.807Z</time></trkpt><trkpt lat="43.8162532" lon="10.8415318"><ele>25.0</ele><time>2026-04-06T12:49:19.804Z</time></trkpt><trkpt lat="43.816357" lon="10.8414347"><ele>24.0</ele><time>2026-04-06T12:49:20.814Z</time></trkpt><trkpt lat="43.8164681" lon="10.841358"><ele>23.0</ele><time>2026-04-06T12:49:21.805Z</time></trkpt><trkpt lat="43.8165721" lon="10.8412709"><ele>23.0</ele><time>2026-04-06T12:49:22.811Z</time></trkpt><trkpt lat="43.8166812" lon="10.8412153"><ele>23.0</ele><time>2026-04-06T12:49:23.805Z</time></trkpt><trkpt lat="43.8167806" lon="10.8411479"><ele>23.0</ele><time>2026-04-06T12:49:24.814Z</time></trkpt><trkpt lat="43.8168766" lon="10.8410908"><ele>23.0</ele><time>2026-04-06T12:49:25.814Z</time></trkpt><trkpt lat="43.8169877" lon="10.841051"><ele>23.0</ele><time>2026-04-06T12:49:26.808Z</time></trkpt><trkpt lat="43.8170869" lon="10.8410327"><ele>22.799999999999997</ele><time>2026-04-06T12:49:27.804Z</time></trkpt><trkpt lat="43.8171829" lon="10.8409923"><ele>22.6</ele><time>2026-04-06T12:49:28.818Z</time></trkpt><trkpt lat="43.8172873" lon="10.8409598"><ele>22.4</ele><time>2026-04-06T12:49:29.805Z</time></trkpt><trkpt lat="43.8173917" lon="10.8409395"><ele>22.200000000000003</ele><time>2026-04-06T12:49:30.81Z</time></trkpt><trkpt lat="43.8174951" lon="10.8409236"><ele>22.0</ele><time>2026-04-06T12:49:31.803Z</time></trkpt><trkpt lat="43.8175967" lon="10.8409273"><ele>22.0</ele><time>2026-04-06T12:49:32.805Z</time></trkpt><trkpt lat="43.8177018" lon="10.8409118"><ele>22.0</ele><time>2026-04-06T12:49:33.803Z</time></trkpt><trkpt lat="43.817817" lon="10.8408999"><ele>22.0</ele><time>2026-04-06T12:49:34.815Z</time></trkpt><trkpt lat="43.8179349" lon="10.8408794"><ele>22.0</ele><time>2026-04-06T12:49:35.808Z</time></trkpt><trkpt lat="43.8180448" lon="10.8408321"><ele>22.0</ele><time>2026-04-06T12:49:36.816Z</time></trkpt><trkpt lat="43.818166" lon="10.8408014"><ele>22.0</ele><time>2026-04-06T12:49:37.806Z</time></trkpt><trkpt lat="43.818291" lon="10.840763"><ele>22.0</ele><time>2026-04-06T12:49:38.802Z</time></trkpt><trkpt lat="43.818436" lon="10.8407428"><ele>22.0</ele><time>2026-04-06T12:49:39.804Z</time></trkpt><trkpt lat="43.8185749" lon="10.8407068"><ele>22.25</ele><time>2026-04-06T12:49:40.807Z</time></trkpt><trkpt lat="43.8187146" lon="10.840688"><ele>22.5</ele><time>2026-04-06T12:49:41.81Z</time></trkpt><trkpt lat="43.8188541" lon="10.8406787"><ele>22.75</ele><time>2026-04-06T12:49:42.805Z</time></trkpt><trkpt lat="43.8190097" lon="10.8406854"><ele>23.0</ele><time>2026-04-06T12:49:43.805Z</time></trkpt><trkpt lat="43.8191504" lon="10.8406817"><ele>23.0</ele><time>2026-04-06T12:49:44.807Z</time></trkpt><trkpt lat="43.8192848" lon="10.8406847"><ele>23.0</ele><time>2026-04-06T12:49:45.807Z</time></trkpt><trkpt lat="43.8194173" lon="10.8406911"><ele>23.0</ele><time>2026-04-06T12:49:46.805Z</time></trkpt><trkpt lat="43.8195421" lon="10.8406956"><ele>23.0</ele><time>2026-04-06T12:49:47.811Z</time></trkpt><trkpt lat="43.8196662" lon="10.8406999"><ele>23.25</ele><time>2026-04-06T12:49:48.804Z</time></trkpt><trkpt lat="43.8198013" lon="10.8407222"><ele>23.5</ele><time>2026-04-06T12:49:49.802Z</time></trkpt><trkpt lat="43.8199384" lon="10.840725"><ele>23.75</ele><time>2026-04-06T12:49:50.806Z</time></trkpt><trkpt lat="43.8200834" lon="10.8407171"><ele>24.0</ele><time>2026-04-06T12:49:51.804Z</time></trkpt><trkpt lat="43.8202228" lon="10.8406629"><ele>24.25</ele><time>2026-04-06T12:49:52.808Z</time></trkpt><trkpt lat="43.8203648" lon="10.8406107"><ele>24.5</ele><time>2026-04-06T12:49:53.804Z</time></trkpt><trkpt lat="43.8205008" lon="10.8405551"><ele>24.75</ele><time>2026-04-06T12:49:54.807Z</time></trkpt><trkpt lat="43.8206346" lon="10.8405017"><ele>25.0</ele><time>2026-04-06T12:49:55.808Z</time></trkpt><trkpt lat="43.8207712" lon="10.8404459"><ele>25.0</ele><time>2026-04-06T12:49:56.805Z</time></trkpt><trkpt lat="43.820913" lon="10.8403878"><ele>25.0</ele><time>2026-04-06T12:49:57.808Z</time></trkpt><trkpt lat="43.8210591" lon="10.8403245"><ele>25.0</ele><time>2026-04-06T12:49:58.804Z</time></trkpt><trkpt lat="43.8212056" lon="10.8402663"><ele>25.0</ele><time>2026-04-06T12:49:59.805Z</time></trkpt><trkpt lat="43.8213495" lon="10.8402139"><ele>25.0</ele><time>2026-04-06T12:50:00.807Z</time></trkpt><trkpt lat="43.8214991" lon="10.8401451"><ele>25.0</ele><time>2026-04-06T12:50:01.805Z</time></trkpt><trkpt lat="43.8216564" lon="10.8401029"><ele>24.666666666666668</ele><time>2026-04-06T12:50:02.807Z</time></trkpt><trkpt lat="43.8218066" lon="10.8400504"><ele>24.333333333333336</ele><time>2026-04-06T12:50:03.809Z</time></trkpt><trkpt lat="43.8219556" lon="10.8399844"><ele>24.0</ele><time>2026-04-06T12:50:04.813Z</time></trkpt><trkpt lat="43.8221004" lon="10.8399272"><ele>24.5</ele><time>2026-04-06T12:50:05.814Z</time></trkpt><trkpt lat="43.8222417" lon="10.8398716"><ele>25.0</ele><time>2026-04-06T12:50:06.808Z</time></trkpt><trkpt lat="43.8223805" lon="10.8398273"><ele>25.5</ele><time>2026-04-06T12:50:07.805Z</time></trkpt><trkpt lat="43.8225041" lon="10.839772"><ele>26.0</ele><time>2026-04-06T12:50:08.807Z</time></trkpt><trkpt lat="43.8226217" lon="10.8397242"><ele>26.75</ele><time>2026-04-06T12:50:09.805Z</time></trkpt><trkpt lat="43.822733" lon="10.8396796"><ele>27.5</ele><time>2026-04-06T12:50:10.807Z</time></trkpt><trkpt lat="43.8228366" lon="10.8396369"><ele>28.25</ele><time>2026-04-06T12:50:11.805Z</time></trkpt><trkpt lat="43.8229407" lon="10.8395885"><ele>29.0</ele><time>2026-04-06T12:50:12.807Z</time></trkpt><trkpt lat="43.8230527" lon="10.8395404"><ele>29.0</ele><time>2026-04-06T12:50:13.806Z</time></trkpt><trkpt lat="43.8231636" lon="10.8394849"><ele>29.0</ele><time>2026-04-06T12:50:14.804Z</time></trkpt><trkpt lat="43.8232716" lon="10.8394339"><ele>29.0</ele><time>2026-04-06T12:50:15.807Z</time></trkpt><trkpt lat="43.8233776" lon="10.8393687"><ele>29.0</ele><time>2026-04-06T12:50:16.817Z</time></trkpt><trkpt lat="43.8234825" lon="10.8393052"><ele>28.0</ele><time>2026-04-06T12:50:17.804Z</time></trkpt><trkpt lat="43.8235924" lon="10.8392431"><ele>27.0</ele><time>2026-04-06T12:50:18.807Z</time></trkpt><trkpt lat="43.8237073" lon="10.8391735"><ele>26.0</ele><time>2026-04-06T12:50:19.821Z</time></trkpt><trkpt lat="43.8238286" lon="10.8391052"><ele>25.0</ele><time>2026-04-06T12:50:20.808Z</time></trkpt><trkpt lat="43.8239477" lon="10.8390319"><ele>25.0</ele><time>2026-04-06T12:50:21.816Z</time></trkpt><trkpt lat="43.8240731" lon="10.8389511"><ele>25.0</ele><time>2026-04-06T12:50:22.806Z</time></trkpt><trkpt lat="43.8242047" lon="10.838869"><ele>25.0</ele><time>2026-04-06T12:50:23.807Z</time></trkpt><trkpt lat="43.8243368" lon="10.8387881"><ele>25.0</ele><time>2026-04-06T12:50:24.808Z</time></trkpt><trkpt lat="43.8244684" lon="10.8387002"><ele>23.333333333333336</ele><time>2026-04-06T12:50:25.805Z</time></trkpt><trkpt lat="43.8246028" lon="10.8386112"><ele>21.666666666666668</ele><time>2026-04-06T12:50:26.806Z</time></trkpt><trkpt lat="43.8247394" lon="10.8385232"><ele>20.0</ele><time>2026-04-06T12:50:27.805Z</time></trkpt><trkpt lat="43.8248826" lon="10.8384429"><ele>19.666666666666668</ele><time>2026-04-06T12:50:28.804Z</time></trkpt><trkpt lat="43.8250201" lon="10.8383601"><ele>19.333333333333332</ele><time>2026-04-06T12:50:29.805Z</time></trkpt><trkpt lat="43.8251544" lon="10.8382598"><ele>19.0</ele><time>2026-04-06T12:50:30.803Z</time></trkpt><trkpt lat="43.8252913" lon="10.838181"><ele>18.333333333333332</ele><time>2026-04-06T12:50:31.814Z</time></trkpt><trkpt lat="43.8254287" lon="10.838085"><ele>17.666666666666668</ele><time>2026-04-06T12:50:32.805Z</time></trkpt><trkpt lat="43.8255745" lon="10.8380198"><ele>17.0</ele><time>2026-04-06T12:50:33.808Z</time></trkpt><trkpt lat="43.8257121" lon="10.8379443"><ele>17.0</ele><time>2026-04-06T12:50:34.804Z</time></trkpt><trkpt lat="43.8258485" lon="10.8378694"><ele>17.0</ele><time>2026-04-06T12:50:35.816Z</time></trkpt><trkpt lat="43.8259908" lon="10.8377886"><ele>17.0</ele><time>2026-04-06T12:50:36.812Z</time></trkpt><trkpt lat="43.8261152" lon="10.8377037"><ele>17.0</ele><time>2026-04-06T12:50:37.805Z</time></trkpt><trkpt lat="43.8262495" lon="10.8376263"><ele>17.25</ele><time>2026-04-06T12:50:38.805Z</time></trkpt><trkpt lat="43.8263842" lon="10.8375465"><ele>17.5</ele><time>2026-04-06T12:50:39.803Z</time></trkpt><trkpt lat="43.8265206" lon="10.8374712"><ele>17.75</ele><time>2026-04-06T12:50:40.807Z</time></trkpt><trkpt lat="43.8266553" lon="10.8373898"><ele>18.0</ele><time>2026-04-06T12:50:41.811Z</time></trkpt><trkpt lat="43.8267901" lon="10.8373148"><ele>17.75</ele><time>2026-04-06T12:50:42.809Z</time></trkpt><trkpt lat="43.8269275" lon="10.8372399"><ele>17.5</ele><time>2026-04-06T12:50:43.804Z</time></trkpt><trkpt lat="43.8270637" lon="10.8371602"><ele>17.25</ele><time>2026-04-06T12:50:44.805Z</time></trkpt><trkpt lat="43.8271948" lon="10.8370793"><ele>17.0</ele><time>2026-04-06T12:50:45.804Z</time></trkpt><trkpt lat="43.8273202" lon="10.8370053"><ele>17.0</ele><time>2026-04-06T12:50:46.804Z</time></trkpt><trkpt lat="43.8274382" lon="10.83692"><ele>17.0</ele><time>2026-04-06T12:50:47.808Z</time></trkpt><trkpt lat="43.8275427" lon="10.8368379"><ele>17.0</ele><time>2026-04-06T12:50:48.811Z</time></trkpt><trkpt lat="43.8276328" lon="10.8367734"><ele>17.0</ele><time>2026-04-06T12:50:49.808Z</time></trkpt><trkpt lat="43.8277302" lon="10.8367"><ele>17.4</ele><time>2026-04-06T12:50:50.818Z</time></trkpt><trkpt lat="43.8278207" lon="10.836665"><ele>17.799999999999997</ele><time>2026-04-06T12:50:51.803Z</time></trkpt><trkpt lat="43.8278977" lon="10.8366264"><ele>18.2</ele><time>2026-04-06T12:50:52.803Z</time></trkpt><trkpt lat="43.8279663" lon="10.8365733"><ele>18.599999999999998</ele><time>2026-04-06T12:50:53.804Z</time></trkpt><trkpt lat="43.8280166" lon="10.8364343"><ele>19.0</ele><time>2026-04-06T12:50:55.803Z</time></trkpt><trkpt lat="43.8279955" lon="10.8362919"><ele>19.0</ele><time>2026-04-06T12:50:56.806Z</time></trkpt><trkpt lat="43.8279938" lon="10.8361674"><ele>19.0</ele><time>2026-04-06T12:50:57.807Z</time></trkpt><trkpt lat="43.8279955" lon="10.8360319"><ele>19.0</ele><time>2026-04-06T12:50:58.812Z</time></trkpt><trkpt lat="43.8280089" lon="10.8358924"><ele>19.0</ele><time>2026-04-06T12:50:59.808Z</time></trkpt><trkpt lat="43.8280303" lon="10.8357434"><ele>19.0</ele><time>2026-04-06T12:51:00.806Z</time></trkpt><trkpt lat="43.8280553" lon="10.8356156"><ele>18.8</ele><time>2026-04-06T12:51:01.805Z</time></trkpt><trkpt lat="43.8280765" lon="10.835488"><ele>18.599999999999998</ele><time>2026-04-06T12:51:02.802Z</time></trkpt><trkpt lat="43.8281005" lon="10.8353531"><ele>18.4</ele><time>2026-04-06T12:51:03.805Z</time></trkpt><trkpt lat="43.8281258" lon="10.8352226"><ele>18.2</ele><time>2026-04-06T12:51:04.815Z</time></trkpt><trkpt lat="43.82815" lon="10.835069"><ele>18.0</ele><time>2026-04-06T12:51:05.804Z</time></trkpt><trkpt lat="43.8281768" lon="10.834898"><ele>18.0</ele><time>2026-04-06T12:51:06.804Z</time></trkpt><trkpt lat="43.8282066" lon="10.8347341"><ele>18.0</ele><time>2026-04-06T12:51:07.809Z</time></trkpt><trkpt lat="43.8282336" lon="10.8345718"><ele>18.0</ele><time>2026-04-06T12:51:08.804Z</time></trkpt><trkpt lat="43.8282618" lon="10.8343986"><ele>18.0</ele><time>2026-04-06T12:51:09.806Z</time></trkpt><trkpt lat="43.8282982" lon="10.8342266"><ele>17.75</ele><time>2026-04-06T12:51:10.811Z</time></trkpt><trkpt lat="43.8283381" lon="10.8340373"><ele>17.5</ele><time>2026-04-06T12:51:11.805Z</time></trkpt><trkpt lat="43.8283788" lon="10.8338459"><ele>17.25</ele><time>2026-04-06T12:51:12.805Z</time></trkpt><trkpt lat="43.8284195" lon="10.8336521"><ele>17.0</ele><time>2026-04-06T12:51:13.81Z</time></trkpt><trkpt lat="43.8284626" lon="10.8334507"><ele>17.0</ele><time>2026-04-06T12:51:14.808Z</time></trkpt><trkpt lat="43.8285099" lon="10.8332462"><ele>17.0</ele><time>2026-04-06T12:51:15.81Z</time></trkpt><trkpt lat="43.8285622" lon="10.8330386"><ele>17.0</ele><time>2026-04-06T12:51:16.802Z</time></trkpt><trkpt lat="43.8286084" lon="10.8328289"><ele>17.0</ele><time>2026-04-06T12:51:17.803Z</time></trkpt><trkpt lat="43.828667" lon="10.8326105"><ele>17.0</ele><time>2026-04-06T12:51:18.802Z</time></trkpt><trkpt lat="43.8287311" lon="10.832389"><ele>17.0</ele><time>2026-04-06T12:51:19.802Z</time></trkpt><trkpt lat="43.8287902" lon="10.8321728"><ele>17.0</ele><time>2026-04-06T12:51:20.806Z</time></trkpt><trkpt lat="43.8288559" lon="10.8319574"><ele>17.0</ele><time>2026-04-06T12:51:21.793Z</time></trkpt><trkpt lat="43.8289367" lon="10.8317279"><ele>17.0</ele><time>2026-04-06T12:51:22.81Z</time></trkpt><trkpt lat="43.8290208" lon="10.831507"><ele>16.333333333333336</ele><time>2026-04-06T12:51:23.809Z</time></trkpt><trkpt lat="43.8291125" lon="10.8312792"><ele>15.666666666666668</ele><time>2026-04-06T12:51:24.804Z</time></trkpt><trkpt lat="43.8291925" lon="10.8310339"><ele>15.0</ele><time>2026-04-06T12:51:25.804Z</time></trkpt><trkpt lat="43.8292775" lon="10.8307984"><ele>15.0</ele><time>2026-04-06T12:51:26.811Z</time></trkpt><trkpt lat="43.8293972" lon="10.8305963"><ele>15.0</ele><time>2026-04-06T12:51:27.809Z</time></trkpt><trkpt lat="43.8295186" lon="10.8303778"><ele>15.0</ele><time>2026-04-06T12:51:28.807Z</time></trkpt><trkpt lat="43.8296475" lon="10.8301907"><ele>15.333333333333332</ele><time>2026-04-06T12:51:29.815Z</time></trkpt><trkpt lat="43.8297639" lon="10.8299669"><ele>15.666666666666666</ele><time>2026-04-06T12:51:30.819Z</time></trkpt><trkpt lat="43.8298791" lon="10.8297463"><ele>16.0</ele><time>2026-04-06T12:51:31.814Z</time></trkpt><trkpt lat="43.8300166" lon="10.8295571"><ele>16.0</ele><time>2026-04-06T12:51:32.804Z</time></trkpt><trkpt lat="43.8301446" lon="10.8293752"><ele>16.0</ele><time>2026-04-06T12:51:33.803Z</time></trkpt><trkpt lat="43.8302753" lon="10.8292305"><ele>16.0</ele><time>2026-04-06T12:51:34.806Z</time></trkpt><trkpt lat="43.8303849" lon="10.829049"><ele>16.0</ele><time>2026-04-06T12:51:35.804Z</time></trkpt><trkpt lat="43.830511" lon="10.8289554"><ele>16.0</ele><time>2026-04-06T12:51:36.802Z</time></trkpt><trkpt lat="43.8306144" lon="10.8288154"><ele>16.0</ele><time>2026-04-06T12:51:37.81Z</time></trkpt><trkpt lat="43.8307212" lon="10.8287197"><ele>16.0</ele><time>2026-04-06T12:51:38.808Z</time></trkpt><trkpt lat="43.8308178" lon="10.8286094"><ele>16.0</ele><time>2026-04-06T12:51:39.802Z</time></trkpt><trkpt lat="43.8308924" lon="10.8285177"><ele>16.0</ele><time>2026-04-06T12:51:40.806Z</time></trkpt><trkpt lat="43.8309731" lon="10.8284409"><ele>16.0</ele><time>2026-04-06T12:51:41.808Z</time></trkpt><trkpt lat="43.8310623" lon="10.828382"><ele>16.0</ele><time>2026-04-06T12:51:42.813Z</time></trkpt><trkpt lat="43.8311512" lon="10.8283334"><ele>16.0</ele><time>2026-04-06T12:51:43.805Z</time></trkpt><trkpt lat="43.8312584" lon="10.8282887"><ele>16.5</ele><time>2026-04-06T12:51:44.804Z</time></trkpt><trkpt lat="43.8313782" lon="10.8282584"><ele>17.0</ele><time>2026-04-06T12:51:45.804Z</time></trkpt><trkpt lat="43.8314877" lon="10.8281868"><ele>17.5</ele><time>2026-04-06T12:51:46.813Z</time></trkpt><trkpt lat="43.8316454" lon="10.8281298"><ele>18.0</ele><time>2026-04-06T12:51:47.81Z</time></trkpt><trkpt lat="43.8317938" lon="10.8280662"><ele>17.0</ele><time>2026-04-06T12:51:48.799Z</time></trkpt><trkpt lat="43.8319518" lon="10.828008"><ele>16.0</ele><time>2026-04-06T12:51:49.802Z</time></trkpt><trkpt lat="43.8321164" lon="10.8279576"><ele>15.0</ele><time>2026-04-06T12:51:50.803Z</time></trkpt><trkpt lat="43.832279" lon="10.8278975"><ele>15.0</ele><time>2026-04-06T12:51:51.807Z</time></trkpt><trkpt lat="43.8324528" lon="10.827831"><ele>15.0</ele><time>2026-04-06T12:51:52.803Z</time></trkpt><trkpt lat="43.8326302" lon="10.8277695"><ele>15.0</ele><time>2026-04-06T12:51:53.813Z</time></trkpt><trkpt lat="43.8328128" lon="10.8277158"><ele>15.333333333333332</ele><time>2026-04-06T12:51:54.811Z</time></trkpt><trkpt lat="43.8329982" lon="10.8276484"><ele>15.666666666666666</ele><time>2026-04-06T12:51:55.803Z</time></trkpt><trkpt lat="43.8331784" lon="10.8275689"><ele>16.0</ele><time>2026-04-06T12:51:56.808Z</time></trkpt><trkpt lat="43.8333628" lon="10.82749"><ele>16.0</ele><time>2026-04-06T12:51:57.808Z</time></trkpt><trkpt lat="43.8335488" lon="10.8273844"><ele>16.0</ele><time>2026-04-06T12:51:58.807Z</time></trkpt><trkpt lat="43.8337382" lon="10.827267"><ele>16.0</ele><time>2026-04-06T12:51:59.805Z</time></trkpt><trkpt lat="43.8339242" lon="10.8271615"><ele>16.0</ele><time>2026-04-06T12:52:00.807Z</time></trkpt><trkpt lat="43.8340979" lon="10.827051"><ele>16.0</ele><time>2026-04-06T12:52:01.807Z</time></trkpt><trkpt lat="43.8342814" lon="10.8269364"><ele>16.0</ele><time>2026-04-06T12:52:02.805Z</time></trkpt><trkpt lat="43.8344611" lon="10.8268026"><ele>16.333333333333332</ele><time>2026-04-06T12:52:03.807Z</time></trkpt><trkpt lat="43.834635" lon="10.8266686"><ele>16.666666666666668</ele><time>2026-04-06T12:52:04.805Z</time></trkpt><trkpt lat="43.8348091" lon="10.8265279"><ele>17.0</ele><time>2026-04-06T12:52:05.806Z</time></trkpt><trkpt lat="43.8349758" lon="10.8263909"><ele>17.0</ele><time>2026-04-06T12:52:06.804Z</time></trkpt><trkpt lat="43.835146" lon="10.8262421"><ele>17.0</ele><time>2026-04-06T12:52:07.803Z</time></trkpt><trkpt lat="43.8352982" lon="10.8260617"><ele>17.0</ele><time>2026-04-06T12:52:08.812Z</time></trkpt><trkpt lat="43.8354565" lon="10.8258964"><ele>17.0</ele><time>2026-04-06T12:52:09.809Z</time></trkpt><trkpt lat="43.8356069" lon="10.8257019"><ele>17.0</ele><time>2026-04-06T12:52:10.805Z</time></trkpt><trkpt lat="43.8357662" lon="10.8255207"><ele>17.0</ele><time>2026-04-06T12:52:11.806Z</time></trkpt><trkpt lat="43.8359184" lon="10.8253343"><ele>17.0</ele><time>2026-04-06T12:52:12.804Z</time></trkpt><trkpt lat="43.8360632" lon="10.8251448"><ele>17.0</ele><time>2026-04-06T12:52:13.814Z</time></trkpt><trkpt lat="43.8362024" lon="10.8249485"><ele>17.0</ele><time>2026-04-06T12:52:14.803Z</time></trkpt><trkpt lat="43.8363358" lon="10.824754"><ele>17.0</ele><time>2026-04-06T12:52:15.804Z</time></trkpt><trkpt lat="43.8364669" lon="10.8245678"><ele>17.0</ele><time>2026-04-06T12:52:16.807Z</time></trkpt><trkpt lat="43.8365995" lon="10.824349"><ele>17.0</ele><time>2026-04-06T12:52:17.804Z</time></trkpt><trkpt lat="43.8367261" lon="10.8241358"><ele>17.0</ele><time>2026-04-06T12:52:18.812Z</time></trkpt><trkpt lat="43.836856" lon="10.8239089"><ele>17.0</ele><time>2026-04-06T12:52:19.804Z</time></trkpt><trkpt lat="43.836977" lon="10.8236646"><ele>17.0</ele><time>2026-04-06T12:52:20.802Z</time></trkpt><trkpt lat="43.8371119" lon="10.8234561"><ele>17.0</ele><time>2026-04-06T12:52:21.802Z</time></trkpt><trkpt lat="43.8372488" lon="10.8232466"><ele>17.0</ele><time>2026-04-06T12:52:22.805Z</time></trkpt><trkpt lat="43.8373928" lon="10.8230242"><ele>17.0</ele><time>2026-04-06T12:52:23.813Z</time></trkpt><trkpt lat="43.8375293" lon="10.8228104"><ele>17.0</ele><time>2026-04-06T12:52:24.81Z</time></trkpt><trkpt lat="43.8376824" lon="10.8226678"><ele>17.0</ele><time>2026-04-06T12:52:25.809Z</time></trkpt><trkpt lat="43.8378161" lon="10.8224887"><ele>17.0</ele><time>2026-04-06T12:52:26.808Z</time></trkpt><trkpt lat="43.8379467" lon="10.8223324"><ele>17.0</ele><time>2026-04-06T12:52:27.802Z</time></trkpt><trkpt lat="43.8380737" lon="10.8221803"><ele>17.0</ele><time>2026-04-06T12:52:28.81Z</time></trkpt><trkpt lat="43.8382034" lon="10.8220185"><ele>17.0</ele><time>2026-04-06T12:52:29.81Z</time></trkpt><trkpt lat="43.8383181" lon="10.8218812"><ele>17.0</ele><time>2026-04-06T12:52:30.81Z</time></trkpt><trkpt lat="43.8384284" lon="10.8217731"><ele>17.0</ele><time>2026-04-06T12:52:31.802Z</time></trkpt><trkpt lat="43.8385208" lon="10.8216825"><ele>17.0</ele><time>2026-04-06T12:52:32.807Z</time></trkpt><trkpt lat="43.8385913" lon="10.8216157"><ele>17.0</ele><time>2026-04-06T12:52:33.816Z</time></trkpt><trkpt lat="43.8386605" lon="10.8215652"><ele>17.0</ele><time>2026-04-06T12:52:34.801Z</time></trkpt><trkpt lat="43.838733" lon="10.8215362"><ele>17.0</ele><time>2026-04-06T12:52:35.806Z</time></trkpt><trkpt lat="43.8388075" lon="10.8215014"><ele>17.0</ele><time>2026-04-06T12:52:36.804Z</time></trkpt><trkpt lat="43.8388769" lon="10.8214697"><ele>17.0</ele><time>2026-04-06T12:52:37.809Z</time></trkpt><trkpt lat="43.8389349" lon="10.8213304"><ele>17.0</ele><time>2026-04-06T12:52:38.805Z</time></trkpt><trkpt lat="43.8390122" lon="10.8212254"><ele>17.0</ele><time>2026-04-06T12:52:39.813Z</time></trkpt><trkpt lat="43.8391023" lon="10.8211082"><ele>17.0</ele><time>2026-04-06T12:52:40.811Z</time></trkpt><trkpt lat="43.8392166" lon="10.8210012"><ele>17.0</ele><time>2026-04-06T12:52:41.808Z</time></trkpt><trkpt lat="43.8393323" lon="10.8208953"><ele>17.0</ele><time>2026-04-06T12:52:42.822Z</time></trkpt><trkpt lat="43.8394472" lon="10.8207911"><ele>17.0</ele><time>2026-04-06T12:52:43.809Z</time></trkpt><trkpt lat="43.8395736" lon="10.8206754"><ele>17.333333333333336</ele><time>2026-04-06T12:52:44.805Z</time></trkpt><trkpt lat="43.8397008" lon="10.8205608"><ele>17.666666666666668</ele><time>2026-04-06T12:52:45.811Z</time></trkpt><trkpt lat="43.8398422" lon="10.8204639"><ele>18.0</ele><time>2026-04-06T12:52:46.803Z</time></trkpt><trkpt lat="43.8399737" lon="10.8203483"><ele>18.0</ele><time>2026-04-06T12:52:47.804Z</time></trkpt><trkpt lat="43.8401188" lon="10.8202267"><ele>18.0</ele><time>2026-04-06T12:52:48.808Z</time></trkpt><trkpt lat="43.8402534" lon="10.8200736"><ele>18.0</ele><time>2026-04-06T12:52:49.806Z</time></trkpt><trkpt lat="43.8403919" lon="10.8199316"><ele>17.666666666666668</ele><time>2026-04-06T12:52:50.809Z</time></trkpt><trkpt lat="43.8405491" lon="10.8198174"><ele>17.333333333333336</ele><time>2026-04-06T12:52:51.808Z</time></trkpt><trkpt lat="43.8407065" lon="10.8196968"><ele>17.0</ele><time>2026-04-06T12:52:52.804Z</time></trkpt><trkpt lat="43.8408618" lon="10.8195547"><ele>16.666666666666668</ele><time>2026-04-06T12:52:53.817Z</time></trkpt><trkpt lat="43.841009" lon="10.819423"><ele>16.333333333333332</ele><time>2026-04-06T12:52:54.806Z</time></trkpt><trkpt lat="43.841161" lon="10.8192847"><ele>16.0</ele><time>2026-04-06T12:52:55.814Z</time></trkpt><trkpt lat="43.8413112" lon="10.819142"><ele>15.666666666666666</ele><time>2026-04-06T12:52:56.807Z</time></trkpt><trkpt lat="43.8414705" lon="10.8189909"><ele>15.333333333333332</ele><time>2026-04-06T12:52:57.812Z</time></trkpt><trkpt lat="43.8416254" lon="10.8188429"><ele>15.0</ele><time>2026-04-06T12:52:58.803Z</time></trkpt><trkpt lat="43.8417776" lon="10.8186977"><ele>14.666666666666668</ele><time>2026-04-06T12:52:59.807Z</time></trkpt><trkpt lat="43.8419406" lon="10.8185581"><ele>14.333333333333334</ele><time>2026-04-06T12:53:00.806Z</time></trkpt><trkpt lat="43.8420988" lon="10.8184158"><ele>14.0</ele><time>2026-04-06T12:53:01.805Z</time></trkpt><trkpt lat="43.8422507" lon="10.8182736"><ele>14.0</ele><time>2026-04-06T12:53:02.809Z</time></trkpt><trkpt lat="43.8424031" lon="10.8181341"><ele>14.0</ele><time>2026-04-06T12:53:03.804Z</time></trkpt><trkpt lat="43.8425589" lon="10.8179926"><ele>14.0</ele><time>2026-04-06T12:53:04.804Z</time></trkpt><trkpt lat="43.8427088" lon="10.8178674"><ele>14.333333333333334</ele><time>2026-04-06T12:53:05.809Z</time></trkpt><trkpt lat="43.8428659" lon="10.8177279"><ele>14.666666666666668</ele><time>2026-04-06T12:53:06.805Z</time></trkpt><trkpt lat="43.8430021" lon="10.8175736"><ele>15.0</ele><time>2026-04-06T12:53:07.803Z</time></trkpt><trkpt lat="43.8431661" lon="10.8174303"><ele>15.0</ele><time>2026-04-06T12:53:08.812Z</time></trkpt><trkpt lat="43.8433133" lon="10.817284"><ele>15.0</ele><time>2026-04-06T12:53:09.804Z</time></trkpt><trkpt lat="43.843454" lon="10.8171123"><ele>15.0</ele><time>2026-04-06T12:53:10.813Z</time></trkpt><trkpt lat="43.8436089" lon="10.8169923"><ele>15.333333333333332</ele><time>2026-04-06T12:53:11.804Z</time></trkpt><trkpt lat="43.8437595" lon="10.8168405"><ele>15.666666666666666</ele><time>2026-04-06T12:53:12.811Z</time></trkpt><trkpt lat="43.8438883" lon="10.8166786"><ele>16.0</ele><time>2026-04-06T12:53:13.813Z</time></trkpt><trkpt lat="43.8440297" lon="10.8165114"><ele>16.0</ele><time>2026-04-06T12:53:14.808Z</time></trkpt><trkpt lat="43.8441617" lon="10.8163247"><ele>16.0</ele><time>2026-04-06T12:53:15.804Z</time></trkpt><trkpt lat="43.8442729" lon="10.816135"><ele>16.0</ele><time>2026-04-06T12:53:16.806Z</time></trkpt><trkpt lat="43.8444012" lon="10.8159528"><ele>16.0</ele><time>2026-04-06T12:53:17.812Z</time></trkpt><trkpt lat="43.8445302" lon="10.81575"><ele>16.0</ele><time>2026-04-06T12:53:18.805Z</time></trkpt><trkpt lat="43.8446421" lon="10.8155548"><ele>16.0</ele><time>2026-04-06T12:53:19.806Z</time></trkpt><trkpt lat="43.844749" lon="10.8153629"><ele>16.0</ele><time>2026-04-06T12:53:20.813Z</time></trkpt><trkpt lat="43.844862" lon="10.8151771"><ele>16.0</ele><time>2026-04-06T12:53:21.801Z</time></trkpt><trkpt lat="43.844972" lon="10.8149992"><ele>16.0</ele><time>2026-04-06T12:53:22.814Z</time></trkpt><trkpt lat="43.845083" lon="10.8148216"><ele>15.333333333333332</ele><time>2026-04-06T12:53:23.803Z</time></trkpt><trkpt lat="43.8451966" lon="10.8146644"><ele>14.666666666666668</ele><time>2026-04-06T12:53:24.807Z</time></trkpt><trkpt lat="43.845311" lon="10.8144987"><ele>14.0</ele><time>2026-04-06T12:53:25.809Z</time></trkpt><trkpt lat="43.8454214" lon="10.8143137"><ele>14.0</ele><time>2026-04-06T12:53:26.804Z</time></trkpt><trkpt lat="43.8455281" lon="10.8141292"><ele>14.0</ele><time>2026-04-06T12:53:27.805Z</time></trkpt><trkpt lat="43.8456355" lon="10.8139531"><ele>14.0</ele><time>2026-04-06T12:53:28.811Z</time></trkpt><trkpt lat="43.8457479" lon="10.8137775"><ele>14.0</ele><time>2026-04-06T12:53:29.812Z</time></trkpt><trkpt lat="43.8458693" lon="10.8136179"><ele>14.0</ele><time>2026-04-06T12:53:30.81Z</time></trkpt><trkpt lat="43.8459862" lon="10.8134524"><ele>14.0</ele><time>2026-04-06T12:53:31.806Z</time></trkpt><trkpt lat="43.8461113" lon="10.8132898"><ele>14.333333333333334</ele><time>2026-04-06T12:53:32.805Z</time></trkpt><trkpt lat="43.8462389" lon="10.81313"><ele>14.666666666666668</ele><time>2026-04-06T12:53:33.808Z</time></trkpt><trkpt lat="43.8463616" lon="10.8129675"><ele>15.0</ele><time>2026-04-06T12:53:34.805Z</time></trkpt><trkpt lat="43.8464913" lon="10.8127953"><ele>15.333333333333332</ele><time>2026-04-06T12:53:35.805Z</time></trkpt><trkpt lat="43.8466252" lon="10.8126389"><ele>15.666666666666666</ele><time>2026-04-06T12:53:36.806Z</time></trkpt><trkpt lat="43.846751" lon="10.8124743"><ele>16.0</ele><time>2026-04-06T12:53:37.807Z</time></trkpt><trkpt lat="43.8468868" lon="10.8123227"><ele>16.0</ele><time>2026-04-06T12:53:38.805Z</time></trkpt><trkpt lat="43.8470238" lon="10.8121678"><ele>16.0</ele><time>2026-04-06T12:53:39.803Z</time></trkpt><trkpt lat="43.8471622" lon="10.812013"><ele>16.0</ele><time>2026-04-06T12:53:40.814Z</time></trkpt><trkpt lat="43.8472936" lon="10.8118546"><ele>16.0</ele><time>2026-04-06T12:53:41.806Z</time></trkpt><trkpt lat="43.8474297" lon="10.8117074"><ele>16.0</ele><time>2026-04-06T12:53:42.808Z</time></trkpt><trkpt lat="43.8475641" lon="10.811535"><ele>16.0</ele><time>2026-04-06T12:53:43.804Z</time></trkpt><trkpt lat="43.8476964" lon="10.8113579"><ele>16.333333333333332</ele><time>2026-04-06T12:53:44.807Z</time></trkpt><trkpt lat="43.8478248" lon="10.8111736"><ele>16.666666666666668</ele><time>2026-04-06T12:53:45.803Z</time></trkpt><trkpt lat="43.8479525" lon="10.810995"><ele>17.0</ele><time>2026-04-06T12:53:46.809Z</time></trkpt><trkpt lat="43.8481072" lon="10.8108732"><ele>17.0</ele><time>2026-04-06T12:53:47.809Z</time></trkpt><trkpt lat="43.8482416" lon="10.8106989"><ele>17.0</ele><time>2026-04-06T12:53:48.816Z</time></trkpt><trkpt lat="43.8483729" lon="10.810531"><ele>17.0</ele><time>2026-04-06T12:53:49.804Z</time></trkpt><trkpt lat="43.8484979" lon="10.8103353"><ele>17.0</ele><time>2026-04-06T12:53:50.806Z</time></trkpt><trkpt lat="43.8486313" lon="10.8101682"><ele>17.0</ele><time>2026-04-06T12:53:51.804Z</time></trkpt><trkpt lat="43.8487543" lon="10.8099664"><ele>17.0</ele><time>2026-04-06T12:53:52.808Z</time></trkpt><trkpt lat="43.8488757" lon="10.809767"><ele>17.0</ele><time>2026-04-06T12:53:53.824Z</time></trkpt><trkpt lat="43.848989" lon="10.8095595"><ele>17.0</ele><time>2026-04-06T12:53:54.817Z</time></trkpt><trkpt lat="43.8491006" lon="10.809368"><ele>17.0</ele><time>2026-04-06T12:53:55.807Z</time></trkpt><trkpt lat="43.8492065" lon="10.809196"><ele>17.0</ele><time>2026-04-06T12:53:56.811Z</time></trkpt><trkpt lat="43.8493049" lon="10.8090266"><ele>17.0</ele><time>2026-04-06T12:53:57.805Z</time></trkpt><trkpt lat="43.8493918" lon="10.8088371"><ele>17.0</ele><time>2026-04-06T12:53:58.806Z</time></trkpt><trkpt lat="43.8494814" lon="10.8086626"><ele>17.0</ele><time>2026-04-06T12:53:59.806Z</time></trkpt><trkpt lat="43.8495786" lon="10.8085406"><ele>17.0</ele><time>2026-04-06T12:54:00.804Z</time></trkpt><trkpt lat="43.8496807" lon="10.8084083"><ele>17.0</ele><time>2026-04-06T12:54:01.811Z</time></trkpt><trkpt lat="43.8497614" lon="10.8082509"><ele>17.0</ele><time>2026-04-06T12:54:02.809Z</time></trkpt><trkpt lat="43.8498484" lon="10.8081327"><ele>17.0</ele><time>2026-04-06T12:54:03.82Z</time></trkpt><trkpt lat="43.8499329" lon="10.8080048"><ele>17.0</ele><time>2026-04-06T12:54:04.817Z</time></trkpt><trkpt lat="43.8500178" lon="10.8078798"><ele>17.0</ele><time>2026-04-06T12:54:05.815Z</time></trkpt><trkpt lat="43.8500966" lon="10.8077652"><ele>17.0</ele><time>2026-04-06T12:54:06.797Z</time></trkpt><trkpt lat="43.8501666" lon="10.8076793"><ele>16.8</ele><time>2026-04-06T12:54:07.807Z</time></trkpt><trkpt lat="43.8502409" lon="10.8076064"><ele>16.6</ele><time>2026-04-06T12:54:08.822Z</time></trkpt><trkpt lat="43.8503209" lon="10.8075476"><ele>16.400000000000002</ele><time>2026-04-06T12:54:09.819Z</time></trkpt><trkpt lat="43.8504006" lon="10.8074819"><ele>16.2</ele><time>2026-04-06T12:54:10.817Z</time></trkpt><trkpt lat="43.8504933" lon="10.8073899"><ele>16.0</ele><time>2026-04-06T12:54:11.803Z</time></trkpt><trkpt lat="43.8505965" lon="10.8073238"><ele>16.0</ele><time>2026-04-06T12:54:12.808Z</time></trkpt><trkpt lat="43.8507171" lon="10.8072598"><ele>16.0</ele><time>2026-04-06T12:54:13.798Z</time></trkpt><trkpt lat="43.8508493" lon="10.8072181"><ele>16.0</ele><time>2026-04-06T12:54:14.807Z</time></trkpt><trkpt lat="43.8510172" lon="10.8071636"><ele>16.0</ele><time>2026-04-06T12:54:15.803Z</time></trkpt><trkpt lat="43.8511603" lon="10.807127"><ele>16.0</ele><time>2026-04-06T12:54:16.804Z</time></trkpt><trkpt lat="43.8513076" lon="10.8071128"><ele>16.0</ele><time>2026-04-06T12:54:17.806Z</time></trkpt><trkpt lat="43.8514592" lon="10.8070601"><ele>16.0</ele><time>2026-04-06T12:54:18.805Z</time></trkpt><trkpt lat="43.8516112" lon="10.8070065"><ele>16.0</ele><time>2026-04-06T12:54:19.805Z</time></trkpt><trkpt lat="43.8517652" lon="10.8069391"><ele>16.0</ele><time>2026-04-06T12:54:20.817Z</time></trkpt><trkpt lat="43.8519202" lon="10.8068858"><ele>16.0</ele><time>2026-04-06T12:54:21.801Z</time></trkpt><trkpt lat="43.8520765" lon="10.8068143"><ele>15.666666666666666</ele><time>2026-04-06T12:54:22.798Z</time></trkpt><trkpt lat="43.8522355" lon="10.8067313"><ele>15.333333333333332</ele><time>2026-04-06T12:54:23.804Z</time></trkpt><trkpt lat="43.8523958" lon="10.8066708"><ele>15.0</ele><time>2026-04-06T12:54:24.8Z</time></trkpt><trkpt lat="43.8525685" lon="10.8066079"><ele>15.333333333333332</ele><time>2026-04-06T12:54:25.807Z</time></trkpt><trkpt lat="43.8527453" lon="10.8065154"><ele>15.666666666666666</ele><time>2026-04-06T12:54:26.801Z</time></trkpt><trkpt lat="43.8529192" lon="10.8064547"><ele>16.0</ele><time>2026-04-06T12:54:27.821Z</time></trkpt><trkpt lat="43.8530948" lon="10.8063821"><ele>16.0</ele><time>2026-04-06T12:54:28.805Z</time></trkpt><trkpt lat="43.8532655" lon="10.8063423"><ele>16.0</ele><time>2026-04-06T12:54:29.812Z</time></trkpt><trkpt lat="43.8534268" lon="10.8062978"><ele>16.0</ele><time>2026-04-06T12:54:30.808Z</time></trkpt><trkpt lat="43.8536003" lon="10.8062429"><ele>15.666666666666666</ele><time>2026-04-06T12:54:31.804Z</time></trkpt><trkpt lat="43.8537675" lon="10.8061826"><ele>15.333333333333332</ele><time>2026-04-06T12:54:32.801Z</time></trkpt><trkpt lat="43.8539432" lon="10.8061142"><ele>15.0</ele><time>2026-04-06T12:54:33.803Z</time></trkpt><trkpt lat="43.8541165" lon="10.806065"><ele>15.0</ele><time>2026-04-06T12:54:34.829Z</time></trkpt><trkpt lat="43.8542873" lon="10.8060103"><ele>15.0</ele><time>2026-04-06T12:54:35.814Z</time></trkpt><trkpt lat="43.8544706" lon="10.8059467"><ele>15.0</ele><time>2026-04-06T12:54:36.804Z</time></trkpt><trkpt lat="43.8546473" lon="10.8058864"><ele>14.666666666666668</ele><time>2026-04-06T12:54:37.804Z</time></trkpt><trkpt lat="43.8548169" lon="10.8058402"><ele>14.333333333333334</ele><time>2026-04-06T12:54:38.807Z</time></trkpt><trkpt lat="43.8549882" lon="10.8057742"><ele>14.0</ele><time>2026-04-06T12:54:39.8Z</time></trkpt><trkpt lat="43.855151" lon="10.8057047"><ele>14.0</ele><time>2026-04-06T12:54:40.805Z</time></trkpt><trkpt lat="43.8552934" lon="10.8056583"><ele>14.0</ele><time>2026-04-06T12:54:41.814Z</time></trkpt><trkpt lat="43.8554204" lon="10.805595"><ele>14.0</ele><time>2026-04-06T12:54:42.813Z</time></trkpt><trkpt lat="43.8555289" lon="10.8055361"><ele>14.0</ele><time>2026-04-06T12:54:43.816Z</time></trkpt><trkpt lat="43.8556065" lon="10.8054545"><ele>14.0</ele><time>2026-04-06T12:54:44.803Z</time></trkpt><trkpt lat="43.8556671" lon="10.8053426"><ele>13.999999999999998</ele><time>2026-04-06T12:54:45.805Z</time></trkpt><trkpt lat="43.8557071" lon="10.8052168"><ele>13.999999999999998</ele><time>2026-04-06T12:54:46.814Z</time></trkpt><trkpt lat="43.8557245" lon="10.8050672"><ele>14.0</ele><time>2026-04-06T12:54:47.804Z</time></trkpt><trkpt lat="43.855707" lon="10.8049114"><ele>14.0</ele><time>2026-04-06T12:54:48.807Z</time></trkpt><trkpt lat="43.8557001" lon="10.8048013"><ele>14.166666666666668</ele><time>2026-04-06T12:54:49.801Z</time></trkpt><trkpt lat="43.8557092" lon="10.8046938"><ele>14.333333333333334</ele><time>2026-04-06T12:54:50.799Z</time></trkpt><trkpt lat="43.8557217" lon="10.8045833"><ele>14.5</ele><time>2026-04-06T12:54:51.804Z</time></trkpt><trkpt lat="43.855731" lon="10.8044783"><ele>14.666666666666668</ele><time>2026-04-06T12:54:52.807Z</time></trkpt><trkpt lat="43.8557305" lon="10.8043615"><ele>14.833333333333334</ele><time>2026-04-06T12:54:53.8Z</time></trkpt><trkpt lat="43.8557217" lon="10.8042325"><ele>15.0</ele><time>2026-04-06T12:54:54.802Z</time></trkpt><trkpt lat="43.8557327" lon="10.8040789"><ele>15.25</ele><time>2026-04-06T12:54:55.804Z</time></trkpt><trkpt lat="43.8557491" lon="10.8039239"><ele>15.5</ele><time>2026-04-06T12:54:56.803Z</time></trkpt><trkpt lat="43.8557731" lon="10.8037504"><ele>15.75</ele><time>2026-04-06T12:54:57.806Z</time></trkpt><trkpt lat="43.8558144" lon="10.8035635"><ele>16.0</ele><time>2026-04-06T12:54:58.807Z</time></trkpt><trkpt lat="43.8558715" lon="10.8033916"><ele>16.0</ele><time>2026-04-06T12:54:59.805Z</time></trkpt><trkpt lat="43.8559239" lon="10.8032294"><ele>16.0</ele><time>2026-04-06T12:55:00.806Z</time></trkpt><trkpt lat="43.8559953" lon="10.8031089"><ele>16.0</ele><time>2026-04-06T12:55:01.81Z</time></trkpt><trkpt lat="43.8560688" lon="10.8029737"><ele>16.0</ele><time>2026-04-06T12:55:02.805Z</time></trkpt><trkpt lat="43.8561502" lon="10.8028326"><ele>16.0</ele><time>2026-04-06T12:55:03.804Z</time></trkpt><trkpt lat="43.8562706" lon="10.8028143"><ele>16.0</ele><time>2026-04-06T12:55:04.803Z</time></trkpt><trkpt lat="43.8563799" lon="10.8027496"><ele>16.0</ele><time>2026-04-06T12:55:05.797Z</time></trkpt><trkpt lat="43.8565109" lon="10.802696"><ele>16.0</ele><time>2026-04-06T12:55:06.806Z</time></trkpt><trkpt lat="43.8566607" lon="10.8026629"><ele>16.0</ele><time>2026-04-06T12:55:07.8Z</time></trkpt><trkpt lat="43.8568047" lon="10.8026325"><ele>16.0</ele><time>2026-04-06T12:55:08.804Z</time></trkpt><trkpt lat="43.8569712" lon="10.8026203"><ele>16.0</ele><time>2026-04-06T12:55:09.806Z</time></trkpt><trkpt lat="43.8571434" lon="10.8026705"><ele>16.0</ele><time>2026-04-06T12:55:10.806Z</time></trkpt><trkpt lat="43.8573079" lon="10.8026958"><ele>16.0</ele><time>2026-04-06T12:55:11.799Z</time></trkpt><trkpt lat="43.8574686" lon="10.8026943"><ele>16.0</ele><time>2026-04-06T12:55:12.806Z</time></trkpt><trkpt lat="43.8576371" lon="10.8027008"><ele>16.333333333333332</ele><time>2026-04-06T12:55:13.807Z</time></trkpt><trkpt lat="43.857816" lon="10.8027143"><ele>16.666666666666668</ele><time>2026-04-06T12:55:14.801Z</time></trkpt><trkpt lat="43.8579829" lon="10.8027412"><ele>17.0</ele><time>2026-04-06T12:55:15.799Z</time></trkpt><trkpt lat="43.8581413" lon="10.8027559"><ele>17.0</ele><time>2026-04-06T12:55:16.803Z</time></trkpt><trkpt lat="43.8582968" lon="10.8027531"><ele>17.0</ele><time>2026-04-06T12:55:17.803Z</time></trkpt><trkpt lat="43.8584386" lon="10.802758"><ele>17.0</ele><time>2026-04-06T12:55:18.809Z</time></trkpt><trkpt lat="43.8585753" lon="10.8027749"><ele>17.0</ele><time>2026-04-06T12:55:19.804Z</time></trkpt><trkpt lat="43.8587078" lon="10.8027817"><ele>17.0</ele><time>2026-04-06T12:55:20.801Z</time></trkpt><trkpt lat="43.8588285" lon="10.8027862"><ele>17.0</ele><time>2026-04-06T12:55:21.804Z</time></trkpt><trkpt lat="43.8589382" lon="10.80279"><ele>17.0</ele><time>2026-04-06T12:55:22.81Z</time></trkpt><trkpt lat="43.8590475" lon="10.8028186"><ele>17.0</ele><time>2026-04-06T12:55:23.811Z</time></trkpt><trkpt lat="43.8591422" lon="10.8028389"><ele>17.0</ele><time>2026-04-06T12:55:24.802Z</time></trkpt><trkpt lat="43.8592141" lon="10.8028766"><ele>17.0</ele><time>2026-04-06T12:55:25.807Z</time></trkpt><trkpt lat="43.8592756" lon="10.8029322"><ele>17.0</ele><time>2026-04-06T12:55:26.803Z</time></trkpt><trkpt lat="43.8593465" lon="10.8029902"><ele>17.0</ele><time>2026-04-06T12:55:27.801Z</time></trkpt><trkpt lat="43.8594241" lon="10.8030486"><ele>17.0</ele><time>2026-04-06T12:55:28.802Z</time></trkpt><trkpt lat="43.8594935" lon="10.803125"><ele>17.0</ele><time>2026-04-06T12:55:29.806Z</time></trkpt><trkpt lat="43.8595601" lon="10.8031944"><ele>17.0</ele><time>2026-04-06T12:55:30.804Z</time></trkpt><trkpt lat="43.8596137" lon="10.8032636"><ele>17.0</ele><time>2026-04-06T12:55:31.807Z</time></trkpt><trkpt lat="43.8596712" lon="10.8033189"><ele>17.0</ele><time>2026-04-06T12:55:32.804Z</time></trkpt><trkpt lat="43.8597311" lon="10.8033551"><ele>17.0</ele><time>2026-04-06T12:55:33.811Z</time></trkpt><trkpt lat="43.8597979" lon="10.803389"><ele>17.0</ele><time>2026-04-06T12:55:34.802Z</time></trkpt><trkpt lat="43.8598724" lon="10.8034241"><ele>17.0</ele><time>2026-04-06T12:55:35.801Z</time></trkpt><trkpt lat="43.8599567" lon="10.8034493"><ele>17.0</ele><time>2026-04-06T12:55:36.804Z</time></trkpt><trkpt lat="43.8600497" lon="10.8034745"><ele>16.8</ele><time>2026-04-06T12:55:37.806Z</time></trkpt><trkpt lat="43.86015" lon="10.8035092"><ele>16.6</ele><time>2026-04-06T12:55:38.802Z</time></trkpt><trkpt lat="43.8602587" lon="10.8035479"><ele>16.400000000000002</ele><time>2026-04-06T12:55:39.809Z</time></trkpt><trkpt lat="43.8603692" lon="10.8035819"><ele>16.2</ele><time>2026-04-06T12:55:40.801Z</time></trkpt><trkpt lat="43.8604709" lon="10.8036233"><ele>16.0</ele><time>2026-04-06T12:55:41.82Z</time></trkpt><trkpt lat="43.860578" lon="10.8036643"><ele>16.0</ele><time>2026-04-06T12:55:42.819Z</time></trkpt><trkpt lat="43.8606855" lon="10.8037019"><ele>16.0</ele><time>2026-04-06T12:55:43.803Z</time></trkpt><trkpt lat="43.8607892" lon="10.8037419"><ele>16.0</ele><time>2026-04-06T12:55:44.809Z</time></trkpt><trkpt lat="43.8608978" lon="10.8037942"><ele>16.0</ele><time>2026-04-06T12:55:45.809Z</time></trkpt><trkpt lat="43.8609988" lon="10.8038321"><ele>16.0</ele><time>2026-04-06T12:55:46.812Z</time></trkpt><trkpt lat="43.8610986" lon="10.8038791"><ele>15.8</ele><time>2026-04-06T12:55:47.802Z</time></trkpt><trkpt lat="43.8612044" lon="10.8039222"><ele>15.600000000000001</ele><time>2026-04-06T12:55:48.817Z</time></trkpt><trkpt lat="43.8613031" lon="10.8039659"><ele>15.4</ele><time>2026-04-06T12:55:49.801Z</time></trkpt><trkpt lat="43.8614054" lon="10.8040019"><ele>15.2</ele><time>2026-04-06T12:55:50.808Z</time></trkpt><trkpt lat="43.8615009" lon="10.8040455"><ele>15.0</ele><time>2026-04-06T12:55:51.805Z</time></trkpt><trkpt lat="43.8615976" lon="10.8040879"><ele>15.0</ele><time>2026-04-06T12:55:52.804Z</time></trkpt><trkpt lat="43.8616988" lon="10.8041247"><ele>15.0</ele><time>2026-04-06T12:55:53.81Z</time></trkpt><trkpt lat="43.8617962" lon="10.8041738"><ele>15.0</ele><time>2026-04-06T12:55:54.803Z</time></trkpt><trkpt lat="43.8618984" lon="10.8042171"><ele>15.0</ele><time>2026-04-06T12:55:55.804Z</time></trkpt><trkpt lat="43.8619959" lon="10.8042469"><ele>15.0</ele><time>2026-04-06T12:55:56.81Z</time></trkpt><trkpt lat="43.8621031" lon="10.8042869"><ele>15.25</ele><time>2026-04-06T12:55:57.816Z</time></trkpt><trkpt lat="43.8622108" lon="10.8043237"><ele>15.5</ele><time>2026-04-06T12:55:58.803Z</time></trkpt><trkpt lat="43.8623261" lon="10.8043501"><ele>15.75</ele><time>2026-04-06T12:55:59.806Z</time></trkpt><trkpt lat="43.8624501" lon="10.8043954"><ele>16.0</ele><time>2026-04-06T12:56:00.8Z</time></trkpt><trkpt lat="43.8625726" lon="10.8044363"><ele>16.0</ele><time>2026-04-06T12:56:01.81Z</time></trkpt><trkpt lat="43.862682" lon="10.8044697"><ele>16.0</ele><time>2026-04-06T12:56:02.805Z</time></trkpt><trkpt lat="43.8627904" lon="10.8045175"><ele>16.0</ele><time>2026-04-06T12:56:03.81Z</time></trkpt><trkpt lat="43.8629134" lon="10.8045705"><ele>16.0</ele><time>2026-04-06T12:56:04.803Z</time></trkpt><trkpt lat="43.8630344" lon="10.8046025"><ele>16.0</ele><time>2026-04-06T12:56:05.801Z</time></trkpt><trkpt lat="43.8631517" lon="10.8046367"><ele>16.0</ele><time>2026-04-06T12:56:06.804Z</time></trkpt><trkpt lat="43.8632819" lon="10.8046825"><ele>16.0</ele><time>2026-04-06T12:56:07.805Z</time></trkpt><trkpt lat="43.8634126" lon="10.8047343"><ele>16.0</ele><time>2026-04-06T12:56:08.807Z</time></trkpt><trkpt lat="43.8635447" lon="10.8047694"><ele>16.25</ele><time>2026-04-06T12:56:09.8Z</time></trkpt><trkpt lat="43.8636876" lon="10.8048246"><ele>16.5</ele><time>2026-04-06T12:56:10.805Z</time></trkpt><trkpt lat="43.8638307" lon="10.8048796"><ele>16.75</ele><time>2026-04-06T12:56:11.813Z</time></trkpt><trkpt lat="43.8639757" lon="10.8049227"><ele>17.0</ele><time>2026-04-06T12:56:12.8Z</time></trkpt><trkpt lat="43.8641183" lon="10.804956"><ele>17.0</ele><time>2026-04-06T12:56:13.804Z</time></trkpt><trkpt lat="43.864261" lon="10.8050001"><ele>17.0</ele><time>2026-04-06T12:56:14.802Z</time></trkpt><trkpt lat="43.8644037" lon="10.8050527"><ele>17.0</ele><time>2026-04-06T12:56:15.813Z</time></trkpt><trkpt lat="43.8645523" lon="10.8050961"><ele>17.0</ele><time>2026-04-06T12:56:16.801Z</time></trkpt><trkpt lat="43.8646925" lon="10.8051473"><ele>17.0</ele><time>2026-04-06T12:56:17.802Z</time></trkpt><trkpt lat="43.864847" lon="10.8051891"><ele>17.0</ele><time>2026-04-06T12:56:18.804Z</time></trkpt><trkpt lat="43.8649885" lon="10.80523"><ele>17.0</ele><time>2026-04-06T12:56:19.807Z</time></trkpt><trkpt lat="43.8651242" lon="10.8052674"><ele>17.0</ele><time>2026-04-06T12:56:20.803Z</time></trkpt><trkpt lat="43.8652542" lon="10.8052988"><ele>17.0</ele><time>2026-04-06T12:56:21.803Z</time></trkpt><trkpt lat="43.8653782" lon="10.8053339"><ele>17.0</ele><time>2026-04-06T12:56:22.803Z</time></trkpt><trkpt lat="43.8654946" lon="10.8053555"><ele>17.0</ele><time>2026-04-06T12:56:23.803Z</time></trkpt><trkpt lat="43.8656093" lon="10.8053771"><ele>17.0</ele><time>2026-04-06T12:56:24.805Z</time></trkpt><trkpt lat="43.8657083" lon="10.8054049"><ele>17.0</ele><time>2026-04-06T12:56:25.807Z</time></trkpt><trkpt lat="43.8657889" lon="10.8054278"><ele>17.0</ele><time>2026-04-06T12:56:26.806Z</time></trkpt><trkpt lat="43.8658701" lon="10.8054481"><ele>17.0</ele><time>2026-04-06T12:56:27.803Z</time></trkpt><trkpt lat="43.8659467" lon="10.8054723"><ele>17.0</ele><time>2026-04-06T12:56:28.806Z</time></trkpt><trkpt lat="43.8660204" lon="10.8054949"><ele>17.0</ele><time>2026-04-06T12:56:29.81Z</time></trkpt><trkpt lat="43.8660949" lon="10.8055217"><ele>17.0</ele><time>2026-04-06T12:56:30.806Z</time></trkpt><trkpt lat="43.8661672" lon="10.8055382"><ele>17.166666666666668</ele><time>2026-04-06T12:56:31.807Z</time></trkpt><trkpt lat="43.8662341" lon="10.8055604"><ele>17.333333333333336</ele><time>2026-04-06T12:56:32.804Z</time></trkpt><trkpt lat="43.8662954" lon="10.8055862"><ele>17.5</ele><time>2026-04-06T12:56:33.804Z</time></trkpt><trkpt lat="43.8663477" lon="10.8056376"><ele>17.666666666666668</ele><time>2026-04-06T12:56:34.809Z</time></trkpt><trkpt lat="43.8664336" lon="10.8057312"><ele>17.833333333333332</ele><time>2026-04-06T12:56:36.805Z</time></trkpt><trkpt lat="43.8665188" lon="10.8057567"><ele>18.0</ele><time>2026-04-06T12:56:38.802Z</time></trkpt><trkpt lat="43.8665851" lon="10.8056761"><ele>18.0</ele><time>2026-04-06T12:56:40.803Z</time></trkpt><trkpt lat="43.8666132" lon="10.8055578"><ele>18.0</ele><time>2026-04-06T12:56:42.822Z</time></trkpt><trkpt lat="43.866633" lon="10.8054263"><ele>18.0</ele><time>2026-04-06T12:56:44.802Z</time></trkpt><trkpt lat="43.8666566" lon="10.8052897"><ele>18.0</ele><time>2026-04-06T12:56:46.803Z</time></trkpt><trkpt lat="43.8667034" lon="10.8051618"><ele>18.0</ele><time>2026-04-06T12:56:48.805Z</time></trkpt><trkpt lat="43.8667371" lon="10.8049931"><ele>18.0</ele><time>2026-04-06T12:56:50.802Z</time></trkpt><trkpt lat="43.8667553" lon="10.8048802"><ele>18.0</ele><time>2026-04-06T12:56:51.805Z</time></trkpt><trkpt lat="43.8667567" lon="10.804776"><ele>18.0</ele><time>2026-04-06T12:56:52.811Z</time></trkpt><trkpt lat="43.8667789" lon="10.804671"><ele>18.0</ele><time>2026-04-06T12:56:53.804Z</time></trkpt><trkpt lat="43.866785" lon="10.8045285"><ele>18.0</ele><time>2026-04-06T12:56:54.803Z</time></trkpt><trkpt lat="43.8668404" lon="10.804348"><ele>18.0</ele><time>2026-04-06T12:56:55.803Z</time></trkpt><trkpt lat="43.8668567" lon="10.8041827"><ele>18.0</ele><time>2026-04-06T12:56:56.804Z</time></trkpt><trkpt lat="43.8668715" lon="10.8040116"><ele>18.0</ele><time>2026-04-06T12:56:57.806Z</time></trkpt><trkpt lat="43.8668925" lon="10.8038328"><ele>18.0</ele><time>2026-04-06T12:56:58.804Z</time></trkpt><trkpt lat="43.8669177" lon="10.803645"><ele>17.666666666666668</ele><time>2026-04-06T12:56:59.807Z</time></trkpt><trkpt lat="43.8669399" lon="10.8034337"><ele>17.333333333333336</ele><time>2026-04-06T12:57:00.803Z</time></trkpt><trkpt lat="43.8669594" lon="10.8032334"><ele>17.0</ele><time>2026-04-06T12:57:01.812Z</time></trkpt><trkpt lat="43.8669875" lon="10.8030161"><ele>17.0</ele><time>2026-04-06T12:57:02.806Z</time></trkpt><trkpt lat="43.8670109" lon="10.8027941"><ele>17.0</ele><time>2026-04-06T12:57:03.809Z</time></trkpt><trkpt lat="43.8670304" lon="10.8025787"><ele>17.0</ele><time>2026-04-06T12:57:04.801Z</time></trkpt><trkpt lat="43.8670625" lon="10.8023602"><ele>17.0</ele><time>2026-04-06T12:57:05.805Z</time></trkpt><trkpt lat="43.8670955" lon="10.8021465"><ele>17.0</ele><time>2026-04-06T12:57:06.805Z</time></trkpt><trkpt lat="43.8671153" lon="10.8019461"><ele>17.0</ele><time>2026-04-06T12:57:07.809Z</time></trkpt><trkpt lat="43.867133" lon="10.8017497"><ele>17.0</ele><time>2026-04-06T12:57:08.804Z</time></trkpt><trkpt lat="43.8671615" lon="10.8015396"><ele>17.0</ele><time>2026-04-06T12:57:09.802Z</time></trkpt><trkpt lat="43.8671921" lon="10.8013317"><ele>17.0</ele><time>2026-04-06T12:57:10.806Z</time></trkpt><trkpt lat="43.8672119" lon="10.8011477"><ele>17.0</ele><time>2026-04-06T12:57:11.815Z</time></trkpt><trkpt lat="43.8672465" lon="10.8009388"><ele>17.0</ele><time>2026-04-06T12:57:12.813Z</time></trkpt><trkpt lat="43.8672612" lon="10.8007585"><ele>17.0</ele><time>2026-04-06T12:57:13.803Z</time></trkpt><trkpt lat="43.8672786" lon="10.8005634"><ele>17.0</ele><time>2026-04-06T12:57:14.8Z</time></trkpt><trkpt lat="43.8673053" lon="10.8003613"><ele>17.0</ele><time>2026-04-06T12:57:15.803Z</time></trkpt><trkpt lat="43.8673298" lon="10.8001664"><ele>17.0</ele><time>2026-04-06T12:57:16.806Z</time></trkpt><trkpt lat="43.8673597" lon="10.7999603"><ele>16.666666666666668</ele><time>2026-04-06T12:57:17.809Z</time></trkpt><trkpt lat="43.8673797" lon="10.7997416"><ele>16.333333333333332</ele><time>2026-04-06T12:57:18.805Z</time></trkpt><trkpt lat="43.8674159" lon="10.799523"><ele>16.0</ele><time>2026-04-06T12:57:19.805Z</time></trkpt><trkpt lat="43.8674436" lon="10.7993132"><ele>16.5</ele><time>2026-04-06T12:57:20.805Z</time></trkpt><trkpt lat="43.8674607" lon="10.7991287"><ele>17.0</ele><time>2026-04-06T12:57:21.806Z</time></trkpt><trkpt lat="43.8674702" lon="10.7989363"><ele>17.5</ele><time>2026-04-06T12:57:22.813Z</time></trkpt><trkpt lat="43.8674752" lon="10.7988035"><ele>18.0</ele><time>2026-04-06T12:57:23.798Z</time></trkpt><trkpt lat="43.8674855" lon="10.7986577"><ele>18.0</ele><time>2026-04-06T12:57:24.804Z</time></trkpt><trkpt lat="43.8674952" lon="10.7985376"><ele>18.0</ele><time>2026-04-06T12:57:25.805Z</time></trkpt><trkpt lat="43.8675023" lon="10.7984195"><ele>18.0</ele><time>2026-04-06T12:57:26.807Z</time></trkpt><trkpt lat="43.8675247" lon="10.7982697"><ele>18.0</ele><time>2026-04-06T12:57:28.81Z</time></trkpt><trkpt lat="43.8675437" lon="10.7981599"><ele>18.0</ele><time>2026-04-06T12:57:30.802Z</time></trkpt><trkpt lat="43.8676074" lon="10.7981229"><ele>18.0</ele><time>2026-04-06T12:57:34.806Z</time></trkpt><trkpt lat="43.8676939" lon="10.7981345"><ele>18.166666666666668</ele><time>2026-04-06T12:57:35.801Z</time></trkpt><trkpt lat="43.8677854" lon="10.7981403"><ele>18.333333333333332</ele><time>2026-04-06T12:57:36.806Z</time></trkpt><trkpt lat="43.8678676" lon="10.7981422"><ele>18.5</ele><time>2026-04-06T12:57:37.804Z</time></trkpt><trkpt lat="43.867954" lon="10.7981315"><ele>18.666666666666664</ele><time>2026-04-06T12:57:38.804Z</time></trkpt><trkpt lat="43.8680302" lon="10.7981198"><ele>18.833333333333332</ele><time>2026-04-06T12:57:39.805Z</time></trkpt><trkpt lat="43.8681071" lon="10.7981354"><ele>19.0</ele><time>2026-04-06T12:57:40.808Z</time></trkpt><trkpt lat="43.8682046" lon="10.7981293"><ele>19.0</ele><time>2026-04-06T12:57:42.815Z</time></trkpt><trkpt lat="43.8682785" lon="10.7981571"><ele>19.0</ele><time>2026-04-06T12:57:44.802Z</time></trkpt><trkpt lat="43.868382" lon="10.7981684"><ele>19.0</ele><time>2026-04-06T12:57:47.807Z</time></trkpt><trkpt lat="43.8684725" lon="10.7981865"><ele>19.0</ele><time>2026-04-06T12:57:50.811Z</time></trkpt><trkpt lat="43.8685893" lon="10.7982101"><ele>19.0</ele><time>2026-04-06T12:57:52.805Z</time></trkpt><trkpt lat="43.8686659" lon="10.798225"><ele>19.0</ele><time>2026-04-06T12:57:53.805Z</time></trkpt><trkpt lat="43.8687651" lon="10.7982408"><ele>19.0</ele><time>2026-04-06T12:57:54.801Z</time></trkpt><trkpt lat="43.8688601" lon="10.7982615"><ele>19.0</ele><time>2026-04-06T12:57:55.802Z</time></trkpt><trkpt lat="43.8689557" lon="10.7982833"><ele>19.0</ele><time>2026-04-06T12:57:56.807Z</time></trkpt><trkpt lat="43.8690579" lon="10.7983179"><ele>19.0</ele><time>2026-04-06T12:57:57.815Z</time></trkpt><trkpt lat="43.8691622" lon="10.7983515"><ele>19.0</ele><time>2026-04-06T12:57:58.804Z</time></trkpt><trkpt lat="43.8692741" lon="10.7984086"><ele>19.0</ele><time>2026-04-06T12:57:59.801Z</time></trkpt><trkpt lat="43.8693895" lon="10.7984628"><ele>19.0</ele><time>2026-04-06T12:58:00.803Z</time></trkpt><trkpt lat="43.8695056" lon="10.7985146"><ele>19.0</ele><time>2026-04-06T12:58:01.82Z</time></trkpt><trkpt lat="43.869624" lon="10.7985626"><ele>19.25</ele><time>2026-04-06T12:58:02.809Z</time></trkpt><trkpt lat="43.8697473" lon="10.7985842"><ele>19.5</ele><time>2026-04-06T12:58:03.81Z</time></trkpt><trkpt lat="43.8698762" lon="10.7986"><ele>19.75</ele><time>2026-04-06T12:58:04.806Z</time></trkpt><trkpt lat="43.8699997" lon="10.7986041"><ele>20.0</ele><time>2026-04-06T12:58:05.805Z</time></trkpt><trkpt lat="43.8701328" lon="10.7986183"><ele>20.25</ele><time>2026-04-06T12:58:06.81Z</time></trkpt><trkpt lat="43.8702688" lon="10.7986172"><ele>20.5</ele><time>2026-04-06T12:58:07.805Z</time></trkpt><trkpt lat="43.8704023" lon="10.7986224"><ele>20.75</ele><time>2026-04-06T12:58:08.804Z</time></trkpt><trkpt lat="43.8705298" lon="10.7986315"><ele>21.0</ele><time>2026-04-06T12:58:09.809Z</time></trkpt><trkpt lat="43.8706511" lon="10.7986688"><ele>21.0</ele><time>2026-04-06T12:58:10.8Z</time></trkpt><trkpt lat="43.870778" lon="10.7987036"><ele>21.0</ele><time>2026-04-06T12:58:11.805Z</time></trkpt><trkpt lat="43.8709024" lon="10.7987515"><ele>21.0</ele><time>2026-04-06T12:58:12.805Z</time></trkpt><trkpt lat="43.8710275" lon="10.7988135"><ele>21.0</ele><time>2026-04-06T12:58:13.804Z</time></trkpt><trkpt lat="43.8711439" lon="10.7988595"><ele>21.0</ele><time>2026-04-06T12:58:14.805Z</time></trkpt><trkpt lat="43.8712653" lon="10.7988981"><ele>21.0</ele><time>2026-04-06T12:58:15.805Z</time></trkpt><trkpt lat="43.8713861" lon="10.7989547"><ele>21.0</ele><time>2026-04-06T12:58:16.807Z</time></trkpt><trkpt lat="43.8714971" lon="10.7990068"><ele>21.0</ele><time>2026-04-06T12:58:17.805Z</time></trkpt><trkpt lat="43.8716149" lon="10.7990583"><ele>21.0</ele><time>2026-04-06T12:58:18.804Z</time></trkpt><trkpt lat="43.8717338" lon="10.7991151"><ele>21.0</ele><time>2026-04-06T12:58:19.81Z</time></trkpt><trkpt lat="43.8718542" lon="10.7991632"><ele>21.0</ele><time>2026-04-06T12:58:20.805Z</time></trkpt><trkpt lat="43.8719763" lon="10.7992069"><ele>21.0</ele><time>2026-04-06T12:58:21.81Z</time></trkpt><trkpt lat="43.8720979" lon="10.7992509"><ele>20.75</ele><time>2026-04-06T12:58:22.798Z</time></trkpt><trkpt lat="43.8722515" lon="10.7992914"><ele>20.5</ele><time>2026-04-06T12:58:23.804Z</time></trkpt><trkpt lat="43.8723939" lon="10.7993095"><ele>20.25</ele><time>2026-04-06T12:58:24.813Z</time></trkpt><trkpt lat="43.872525" lon="10.7993357"><ele>20.0</ele><time>2026-04-06T12:58:25.796Z</time></trkpt><trkpt lat="43.8726754" lon="10.7993448"><ele>20.0</ele><time>2026-04-06T12:58:26.807Z</time></trkpt><trkpt lat="43.872802" lon="10.7993622"><ele>20.0</ele><time>2026-04-06T12:58:27.806Z</time></trkpt><trkpt lat="43.8729326" lon="10.7993872"><ele>20.0</ele><time>2026-04-06T12:58:28.802Z</time></trkpt><trkpt lat="43.8730419" lon="10.7994011"><ele>20.0</ele><time>2026-04-06T12:58:29.799Z</time></trkpt><trkpt lat="43.8731396" lon="10.7994313"><ele>20.0</ele><time>2026-04-06T12:58:30.829Z</time></trkpt><trkpt lat="43.8732217" lon="10.7994685"><ele>20.0</ele><time>2026-04-06T12:58:31.807Z</time></trkpt><trkpt lat="43.8733" lon="10.7995045"><ele>20.0</ele><time>2026-04-06T12:58:32.811Z</time></trkpt><trkpt lat="43.8733666" lon="10.7995396"><ele>20.0</ele><time>2026-04-06T12:58:33.805Z</time></trkpt><trkpt lat="43.8734301" lon="10.7995667"><ele>20.0</ele><time>2026-04-06T12:58:34.819Z</time></trkpt><trkpt lat="43.873495" lon="10.7996011"><ele>20.0</ele><time>2026-04-06T12:58:35.819Z</time></trkpt><trkpt lat="43.8735647" lon="10.7996281"><ele>20.0</ele><time>2026-04-06T12:58:36.805Z</time></trkpt><trkpt lat="43.8736306" lon="10.7996613"><ele>20.142857142857142</ele><time>2026-04-06T12:58:37.809Z</time></trkpt><trkpt lat="43.873694" lon="10.7996946"><ele>20.285714285714285</ele><time>2026-04-06T12:58:38.804Z</time></trkpt><trkpt lat="43.8737583" lon="10.7997522"><ele>20.42857142857143</ele><time>2026-04-06T12:58:39.804Z</time></trkpt><trkpt lat="43.873817" lon="10.7998"><ele>20.57142857142857</ele><time>2026-04-06T12:58:40.805Z</time></trkpt><trkpt lat="43.873882" lon="10.7998441"><ele>20.714285714285715</ele><time>2026-04-06T12:58:41.804Z</time></trkpt><trkpt lat="43.8739437" lon="10.7998787"><ele>20.857142857142858</ele><time>2026-04-06T12:58:42.804Z</time></trkpt><trkpt lat="43.8740049" lon="10.7999121"><ele>21.0</ele><time>2026-04-06T12:58:43.81Z</time></trkpt><trkpt lat="43.8740727" lon="10.7999452"><ele>21.0</ele><time>2026-04-06T12:58:44.814Z</time></trkpt><trkpt lat="43.8741395" lon="10.799978"><ele>21.0</ele><time>2026-04-06T12:58:45.802Z</time></trkpt><trkpt lat="43.8742138" lon="10.8000105"><ele>21.0</ele><time>2026-04-06T12:58:46.807Z</time></trkpt><trkpt lat="43.8742871" lon="10.8000383"><ele>21.0</ele><time>2026-04-06T12:58:47.807Z</time></trkpt><trkpt lat="43.8743649" lon="10.8000795"><ele>21.0</ele><time>2026-04-06T12:58:48.806Z</time></trkpt><trkpt lat="43.8744428" lon="10.8001211"><ele>21.0</ele><time>2026-04-06T12:58:49.803Z</time></trkpt><trkpt lat="43.8745251" lon="10.8001754"><ele>21.166666666666668</ele><time>2026-04-06T12:58:50.804Z</time></trkpt><trkpt lat="43.8746021" lon="10.8002329"><ele>21.333333333333332</ele><time>2026-04-06T12:58:51.801Z</time></trkpt><trkpt lat="43.8746789" lon="10.8002864"><ele>21.5</ele><time>2026-04-06T12:58:52.807Z</time></trkpt><trkpt lat="43.8747496" lon="10.8003371"><ele>21.666666666666664</ele><time>2026-04-06T12:58:53.803Z</time></trkpt><trkpt lat="43.8748176" lon="10.800392"><ele>21.833333333333332</ele><time>2026-04-06T12:58:54.802Z</time></trkpt><trkpt lat="43.8749157" lon="10.8004686"><ele>22.0</ele><time>2026-04-06T12:58:56.806Z</time></trkpt><trkpt lat="43.874977" lon="10.8005231"><ele>22.0</ele><time>2026-04-06T12:58:58.801Z</time></trkpt><trkpt lat="43.8750594" lon="10.8005775"><ele>22.0</ele><time>2026-04-06T12:59:01.806Z</time></trkpt><trkpt lat="43.875162" lon="10.800509"><ele>22.0</ele><time>2026-04-06T12:59:03.803Z</time></trkpt><trkpt lat="43.875263" lon="10.800405"><ele>22.0</ele><time>2026-04-06T12:59:05.801Z</time></trkpt><trkpt lat="43.8753411" lon="10.8003511"><ele>22.0</ele><time>2026-04-06T12:59:06.806Z</time></trkpt><trkpt lat="43.8754385" lon="10.8002829"><ele>22.0</ele><time>2026-04-06T12:59:07.804Z</time></trkpt><trkpt lat="43.8755383" lon="10.8002029"><ele>22.0</ele><time>2026-04-06T12:59:08.806Z</time></trkpt><trkpt lat="43.8756493" lon="10.8001256"><ele>22.0</ele><time>2026-04-06T12:59:09.804Z</time></trkpt><trkpt lat="43.8757629" lon="10.8000433"><ele>22.0</ele><time>2026-04-06T12:59:10.808Z</time></trkpt><trkpt lat="43.8758818" lon="10.7999747"><ele>22.0</ele><time>2026-04-06T12:59:11.806Z</time></trkpt><trkpt lat="43.8760036" lon="10.7998779"><ele>22.0</ele><time>2026-04-06T12:59:12.805Z</time></trkpt><trkpt lat="43.8761357" lon="10.7997994"><ele>22.0</ele><time>2026-04-06T12:59:13.801Z</time></trkpt><trkpt lat="43.8762699" lon="10.7996974"><ele>22.0</ele><time>2026-04-06T12:59:14.812Z</time></trkpt><trkpt lat="43.8764004" lon="10.7996211"><ele>22.0</ele><time>2026-04-06T12:59:15.81Z</time></trkpt><trkpt lat="43.8765289" lon="10.7995417"><ele>22.0</ele><time>2026-04-06T12:59:16.802Z</time></trkpt><trkpt lat="43.8766498" lon="10.7994793"><ele>22.0</ele><time>2026-04-06T12:59:17.803Z</time></trkpt><trkpt lat="43.876755" lon="10.799422"><ele>22.0</ele><time>2026-04-06T12:59:18.808Z</time></trkpt><trkpt lat="43.8768153" lon="10.7993251"><ele>21.8</ele><time>2026-04-06T12:59:19.815Z</time></trkpt><trkpt lat="43.8769036" lon="10.7992272"><ele>21.6</ele><time>2026-04-06T12:59:20.803Z</time></trkpt><trkpt lat="43.8769995" lon="10.7991229"><ele>21.400000000000002</ele><time>2026-04-06T12:59:21.805Z</time></trkpt><trkpt lat="43.8770494" lon="10.7990246"><ele>21.200000000000003</ele><time>2026-04-06T12:59:22.81Z</time></trkpt><trkpt lat="43.8771003" lon="10.7989237"><ele>21.0</ele><time>2026-04-06T12:59:23.802Z</time></trkpt><trkpt lat="43.8771696" lon="10.7988464"><ele>21.0</ele><time>2026-04-06T12:59:24.802Z</time></trkpt><trkpt lat="43.8772251" lon="10.7987644"><ele>21.0</ele><time>2026-04-06T12:59:25.805Z</time></trkpt><trkpt lat="43.8772884" lon="10.798696"><ele>21.0</ele><time>2026-04-06T12:59:26.805Z</time></trkpt><trkpt lat="43.8773467" lon="10.7986491"><ele>21.0</ele><time>2026-04-06T12:59:27.813Z</time></trkpt><trkpt lat="43.8774094" lon="10.7986149"><ele>21.0</ele><time>2026-04-06T12:59:28.806Z</time></trkpt><trkpt lat="43.8774777" lon="10.7985979"><ele>21.0</ele><time>2026-04-06T12:59:29.801Z</time></trkpt><trkpt lat="43.877553" lon="10.798567"><ele>21.0</ele><time>2026-04-06T12:59:30.802Z</time></trkpt><trkpt lat="43.8776462" lon="10.7985383"><ele>21.25</ele><time>2026-04-06T12:59:31.805Z</time></trkpt><trkpt lat="43.8777466" lon="10.7984983"><ele>21.5</ele><time>2026-04-06T12:59:32.81Z</time></trkpt><trkpt lat="43.8778597" lon="10.7984506"><ele>21.75</ele><time>2026-04-06T12:59:33.804Z</time></trkpt><trkpt lat="43.8779754" lon="10.7984202"><ele>22.0</ele><time>2026-04-06T12:59:34.806Z</time></trkpt><trkpt lat="43.8781132" lon="10.7983977"><ele>22.0</ele><time>2026-04-06T12:59:35.804Z</time></trkpt><trkpt lat="43.8782428" lon="10.7983632"><ele>22.0</ele><time>2026-04-06T12:59:36.805Z</time></trkpt><trkpt lat="43.8783785" lon="10.7983498"><ele>22.0</ele><time>2026-04-06T12:59:37.803Z</time></trkpt><trkpt lat="43.8785088" lon="10.7983487"><ele>22.0</ele><time>2026-04-06T12:59:38.812Z</time></trkpt><trkpt lat="43.8786432" lon="10.7983424"><ele>22.75</ele><time>2026-04-06T12:59:39.803Z</time></trkpt><trkpt lat="43.8787768" lon="10.7983361"><ele>23.5</ele><time>2026-04-06T12:59:40.8Z</time></trkpt><trkpt lat="43.8789068" lon="10.7983463"><ele>24.25</ele><time>2026-04-06T12:59:41.804Z</time></trkpt><trkpt lat="43.8790215" lon="10.798384"><ele>25.0</ele><time>2026-04-06T12:59:42.808Z</time></trkpt><trkpt lat="43.8791269" lon="10.7984548"><ele>24.75</ele><time>2026-04-06T12:59:43.813Z</time></trkpt><trkpt lat="43.8792178" lon="10.7985467"><ele>24.5</ele><time>2026-04-06T12:59:44.804Z</time></trkpt><trkpt lat="43.879301" lon="10.7986825"><ele>24.25</ele><time>2026-04-06T12:59:45.811Z</time></trkpt><trkpt lat="43.8793761" lon="10.798818"><ele>24.0</ele><time>2026-04-06T12:59:46.803Z</time></trkpt><trkpt lat="43.8794404" lon="10.7989801"><ele>24.5</ele><time>2026-04-06T12:59:47.814Z</time></trkpt><trkpt lat="43.879486" lon="10.7991571"><ele>25.0</ele><time>2026-04-06T12:59:48.804Z</time></trkpt><trkpt lat="43.8795298" lon="10.7993285"><ele>25.5</ele><time>2026-04-06T12:59:49.806Z</time></trkpt><trkpt lat="43.8795876" lon="10.7994998"><ele>26.0</ele><time>2026-04-06T12:59:50.801Z</time></trkpt><trkpt lat="43.879639" lon="10.7996629"><ele>26.0</ele><time>2026-04-06T12:59:51.803Z</time></trkpt><trkpt lat="43.8797026" lon="10.7998239"><ele>26.0</ele><time>2026-04-06T12:59:52.803Z</time></trkpt><trkpt lat="43.8797849" lon="10.7999518"><ele>26.0</ele><time>2026-04-06T12:59:53.803Z</time></trkpt><trkpt lat="43.879915" lon="10.8000024"><ele>26.0</ele><time>2026-04-06T12:59:54.807Z</time></trkpt><trkpt lat="43.8800224" lon="10.8000438"><ele>26.5</ele><time>2026-04-06T12:59:55.804Z</time></trkpt><trkpt lat="43.8801435" lon="10.8000472"><ele>27.0</ele><time>2026-04-06T12:59:56.806Z</time></trkpt><trkpt lat="43.880255" lon="10.8000333"><ele>27.5</ele><time>2026-04-06T12:59:57.807Z</time></trkpt><trkpt lat="43.8803689" lon="10.8000038"><ele>28.0</ele><time>2026-04-06T12:59:58.811Z</time></trkpt><trkpt lat="43.8804798" lon="10.7999228"><ele>28.0</ele><time>2026-04-06T12:59:59.805Z</time></trkpt><trkpt lat="43.88058" lon="10.7998592"><ele>27.999999999999996</ele><time>2026-04-06T13:00:00.803Z</time></trkpt><trkpt lat="43.8806809" lon="10.799789"><ele>27.999999999999996</ele><time>2026-04-06T13:00:01.804Z</time></trkpt><trkpt lat="43.8807814" lon="10.7997311"><ele>28.0</ele><time>2026-04-06T13:00:02.808Z</time></trkpt><trkpt lat="43.8808628" lon="10.7996849"><ele>28.0</ele><time>2026-04-06T13:00:03.802Z</time></trkpt><trkpt lat="43.8809366" lon="10.7996367"><ele>28.2</ele><time>2026-04-06T13:00:04.814Z</time></trkpt><trkpt lat="43.8810252" lon="10.7996072"><ele>28.4</ele><time>2026-04-06T13:00:06.802Z</time></trkpt><trkpt lat="43.8811102" lon="10.7995959"><ele>28.599999999999998</ele><time>2026-04-06T13:00:08.804Z</time></trkpt><trkpt lat="43.8811912" lon="10.7996644"><ele>28.799999999999997</ele><time>2026-04-06T13:00:10.805Z</time></trkpt><trkpt lat="43.8812531" lon="10.7998183"><ele>29.0</ele><time>2026-04-06T13:00:12.806Z</time></trkpt><trkpt lat="43.8812745" lon="10.7999039"><ele>29.0</ele><time>2026-04-06T13:00:13.802Z</time></trkpt><trkpt lat="43.8813093" lon="10.8000278"><ele>29.0</ele><time>2026-04-06T13:00:15.811Z</time></trkpt><trkpt lat="43.8814199" lon="10.7999904"><ele>29.0</ele><time>2026-04-06T13:00:18.802Z</time></trkpt><trkpt lat="43.8814748" lon="10.7999469"><ele>29.0</ele><time>2026-04-06T13:00:19.804Z</time></trkpt><trkpt lat="43.8816126" lon="10.7998864"><ele>29.0</ele><time>2026-04-06T13:00:21.815Z</time></trkpt><trkpt lat="43.8817005" lon="10.7998872"><ele>29.6</ele><time>2026-04-06T13:00:22.802Z</time></trkpt><trkpt lat="43.8817915" lon="10.7999112"><ele>30.2</ele><time>2026-04-06T13:00:23.813Z</time></trkpt><trkpt lat="43.8818898" lon="10.7999172"><ele>30.800000000000004</ele><time>2026-04-06T13:00:24.806Z</time></trkpt><trkpt lat="43.8819929" lon="10.7999168"><ele>31.400000000000002</ele><time>2026-04-06T13:00:25.809Z</time></trkpt><trkpt lat="43.8821003" lon="10.7999289"><ele>32.0</ele><time>2026-04-06T13:00:26.824Z</time></trkpt><trkpt lat="43.8822104" lon="10.7999319"><ele>31.999999999999996</ele><time>2026-04-06T13:00:27.803Z</time></trkpt><trkpt lat="43.8822953" lon="10.7999402"><ele>32.0</ele><time>2026-04-06T13:00:28.807Z</time></trkpt><trkpt lat="43.8823955" lon="10.7999493"><ele>32.0</ele><time>2026-04-06T13:00:29.804Z</time></trkpt><trkpt lat="43.8824833" lon="10.7999602"><ele>32.0</ele><time>2026-04-06T13:00:30.803Z</time></trkpt><trkpt lat="43.8825565" lon="10.7999616"><ele>31.999999999999996</ele><time>2026-04-06T13:00:31.796Z</time></trkpt><trkpt lat="43.882639" lon="10.7999628"><ele>32.0</ele><time>2026-04-06T13:00:32.8Z</time></trkpt><trkpt lat="43.8827203" lon="10.7999654"><ele>32.2</ele><time>2026-04-06T13:00:33.816Z</time></trkpt><trkpt lat="43.8828044" lon="10.799987"><ele>32.400000000000006</ele><time>2026-04-06T13:00:34.806Z</time></trkpt><trkpt lat="43.8828915" lon="10.8000189"><ele>32.599999999999994</ele><time>2026-04-06T13:00:35.814Z</time></trkpt><trkpt lat="43.8829988" lon="10.8000536"><ele>32.8</ele><time>2026-04-06T13:00:36.795Z</time></trkpt><trkpt lat="43.8831098" lon="10.8000679"><ele>33.0</ele><time>2026-04-06T13:00:37.804Z</time></trkpt><trkpt lat="43.8832262" lon="10.8000987"><ele>33.0</ele><time>2026-04-06T13:00:38.808Z</time></trkpt><trkpt lat="43.8833321" lon="10.8001004"><ele>33.0</ele><time>2026-04-06T13:00:39.8Z</time></trkpt><trkpt lat="43.8834155" lon="10.8001075"><ele>33.0</ele><time>2026-04-06T13:00:40.811Z</time></trkpt><trkpt lat="43.8834966" lon="10.8001315"><ele>33.0</ele><time>2026-04-06T13:00:41.805Z</time></trkpt><trkpt lat="43.8836111" lon="10.8001272"><ele>33.0</ele><time>2026-04-06T13:00:43.808Z</time></trkpt><trkpt lat="43.8836878" lon="10.8001182"><ele>33.333333333333336</ele><time>2026-04-06T13:00:45.803Z</time></trkpt><trkpt lat="43.8837571" lon="10.7999946"><ele>33.66666666666667</ele><time>2026-04-06T13:00:47.803Z</time></trkpt><trkpt lat="43.8837908" lon="10.799824"><ele>34.0</ele><time>2026-04-06T13:00:49.82Z</time></trkpt><trkpt lat="43.8838583" lon="10.7995384"><ele>34.0</ele><time>2026-04-06T13:00:51.807Z</time></trkpt><trkpt lat="43.8838772" lon="10.7994307"><ele>34.0</ele><time>2026-04-06T13:00:52.804Z</time></trkpt><trkpt lat="43.8838993" lon="10.7992972"><ele>34.0</ele><time>2026-04-06T13:00:53.805Z</time></trkpt><trkpt lat="43.8839093" lon="10.7991658"><ele>34.0</ele><time>2026-04-06T13:00:54.804Z</time></trkpt><trkpt lat="43.8839243" lon="10.799044"><ele>34.0</ele><time>2026-04-06T13:00:55.814Z</time></trkpt><trkpt lat="43.8839445" lon="10.7989509"><ele>34.0</ele><time>2026-04-06T13:00:56.814Z</time></trkpt><trkpt lat="43.8839413" lon="10.7988612"><ele>34.16666666666667</ele><time>2026-04-06T13:00:57.805Z</time></trkpt><trkpt lat="43.8839273" lon="10.7987406"><ele>34.333333333333336</ele><time>2026-04-06T13:00:58.803Z</time></trkpt><trkpt lat="43.8839103" lon="10.7986527"><ele>34.5</ele><time>2026-04-06T13:00:59.808Z</time></trkpt><trkpt lat="43.8838964" lon="10.7985275"><ele>34.666666666666664</ele><time>2026-04-06T13:01:01.809Z</time></trkpt><trkpt lat="43.8839343" lon="10.7984159"><ele>34.83333333333333</ele><time>2026-04-06T13:01:08.811Z</time></trkpt><trkpt lat="43.8839983" lon="10.7983579"><ele>35.0</ele><time>2026-04-06T13:01:09.806Z</time></trkpt><trkpt lat="43.8840596" lon="10.798331"><ele>35.8</ele><time>2026-04-06T13:01:10.804Z</time></trkpt><trkpt lat="43.8841684" lon="10.7982876"><ele>36.6</ele><time>2026-04-06T13:01:12.806Z</time></trkpt><trkpt lat="43.8842502" lon="10.798252"><ele>37.4</ele><time>2026-04-06T13:01:14.809Z</time></trkpt><trkpt lat="43.8843344" lon="10.7982048"><ele>38.2</ele><time>2026-04-06T13:01:16.808Z</time></trkpt><trkpt lat="43.8844314" lon="10.7981528"><ele>39.0</ele><time>2026-04-06T13:01:18.81Z</time></trkpt><trkpt lat="43.8844927" lon="10.7981314"><ele>40.0</ele><time>2026-04-06T13:01:19.813Z</time></trkpt><trkpt lat="43.8845654" lon="10.7980922"><ele>41.0</ele><time>2026-04-06T13:01:20.811Z</time></trkpt><trkpt lat="43.8846408" lon="10.7980483"><ele>42.0</ele><time>2026-04-06T13:01:21.809Z</time></trkpt><trkpt lat="43.8847087" lon="10.7980151"><ele>43.0</ele><time>2026-04-06T13:01:22.812Z</time></trkpt><trkpt lat="43.8847999" lon="10.7980048"><ele>44.0</ele><time>2026-04-06T13:01:29.803Z</time></trkpt><trkpt lat="43.8848838" lon="10.7979882"><ele>45.0</ele><time>2026-04-06T13:01:36.804Z</time></trkpt><trkpt lat="43.8850622" lon="10.7980844"><ele>44.8</ele><time>2026-04-06T13:01:38.818Z</time></trkpt><trkpt lat="43.8851687" lon="10.798136"><ele>44.6</ele><time>2026-04-06T13:01:39.803Z</time></trkpt><trkpt lat="43.8852512" lon="10.7981604"><ele>44.400000000000006</ele><time>2026-04-06T13:01:40.802Z</time></trkpt><trkpt lat="43.8853308" lon="10.7981713"><ele>44.2</ele><time>2026-04-06T13:01:41.804Z</time></trkpt><trkpt lat="43.8854266" lon="10.7981766"><ele>44.0</ele><time>2026-04-06T13:01:42.805Z</time></trkpt><trkpt lat="43.8855099" lon="10.7981945"><ele>44.0</ele><time>2026-04-06T13:01:43.808Z</time></trkpt><trkpt lat="43.8856113" lon="10.798206"><ele>44.0</ele><time>2026-04-06T13:01:44.806Z</time></trkpt><trkpt lat="43.8857112" lon="10.7982211"><ele>44.0</ele><time>2026-04-06T13:01:45.806Z</time></trkpt><trkpt lat="43.8858185" lon="10.7982457"><ele>44.0</ele><time>2026-04-06T13:01:46.812Z</time></trkpt><trkpt lat="43.885921" lon="10.798255"><ele>44.0</ele><time>2026-04-06T13:01:47.807Z</time></trkpt><trkpt lat="43.886041" lon="10.7982512"><ele>43.75</ele><time>2026-04-06T13:01:48.803Z</time></trkpt><trkpt lat="43.8861753" lon="10.7982497"><ele>43.5</ele><time>2026-04-06T13:01:49.809Z</time></trkpt><trkpt lat="43.8862961" lon="10.7982321"><ele>43.25</ele><time>2026-04-06T13:01:50.81Z</time></trkpt><trkpt lat="43.8864069" lon="10.7982451"><ele>43.0</ele><time>2026-04-06T13:01:51.809Z</time></trkpt><trkpt lat="43.8865302" lon="10.7982451"><ele>43.0</ele><time>2026-04-06T13:01:52.806Z</time></trkpt><trkpt lat="43.8866435" lon="10.7982138"><ele>43.0</ele><time>2026-04-06T13:01:53.81Z</time></trkpt><trkpt lat="43.8867584" lon="10.798185"><ele>43.0</ele><time>2026-04-06T13:01:54.803Z</time></trkpt><trkpt lat="43.8868664" lon="10.7981811"><ele>43.0</ele><time>2026-04-06T13:01:55.802Z</time></trkpt><trkpt lat="43.8869744" lon="10.7981735"><ele>43.0</ele><time>2026-04-06T13:01:56.803Z</time></trkpt><trkpt lat="43.8870559" lon="10.7981888"><ele>43.5</ele><time>2026-04-06T13:01:57.803Z</time></trkpt><trkpt lat="43.8871494" lon="10.7982161"><ele>44.0</ele><time>2026-04-06T13:01:58.806Z</time></trkpt><trkpt lat="43.8872388" lon="10.7982498"><ele>44.5</ele><time>2026-04-06T13:01:59.806Z</time></trkpt><trkpt lat="43.8873134" lon="10.7982773"><ele>45.0</ele><time>2026-04-06T13:02:00.804Z</time></trkpt><trkpt lat="43.8873955" lon="10.798313"><ele>45.5</ele><time>2026-04-06T13:02:01.802Z</time></trkpt><trkpt lat="43.8874641" lon="10.7983395"><ele>46.0</ele><time>2026-04-06T13:02:02.805Z</time></trkpt><trkpt lat="43.8875521" lon="10.7983639"><ele>46.599999999999994</ele><time>2026-04-06T13:02:03.802Z</time></trkpt><trkpt lat="43.8876381" lon="10.7983636"><ele>47.2</ele><time>2026-04-06T13:02:04.803Z</time></trkpt><trkpt lat="43.8877343" lon="10.7983654"><ele>47.8</ele><time>2026-04-06T13:02:05.801Z</time></trkpt><trkpt lat="43.8878244" lon="10.7983642"><ele>48.400000000000006</ele><time>2026-04-06T13:02:06.805Z</time></trkpt><trkpt lat="43.8879197" lon="10.798368"><ele>49.0</ele><time>2026-04-06T13:02:07.808Z</time></trkpt><trkpt lat="43.8880166" lon="10.7983662"><ele>49.0</ele><time>2026-04-06T13:02:08.811Z</time></trkpt><trkpt lat="43.8881137" lon="10.7983674"><ele>49.0</ele><time>2026-04-06T13:02:09.862Z</time></trkpt><trkpt lat="43.8882168" lon="10.79839"><ele>49.0</ele><time>2026-04-06T13:02:10.803Z</time></trkpt><trkpt lat="43.8883117" lon="10.7984046"><ele>49.0</ele><time>2026-04-06T13:02:11.812Z</time></trkpt><trkpt lat="43.8884065" lon="10.7984222"><ele>49.0</ele><time>2026-04-06T13:02:12.804Z</time></trkpt><trkpt lat="43.888508" lon="10.7984412"><ele>50.0</ele><time>2026-04-06T13:02:13.806Z</time></trkpt><trkpt lat="43.8886081" lon="10.7984467"><ele>51.0</ele><time>2026-04-06T13:02:14.805Z</time></trkpt><trkpt lat="43.8887067" lon="10.7984536"><ele>52.00000000000001</ele><time>2026-04-06T13:02:15.808Z</time></trkpt><trkpt lat="43.8887988" lon="10.7984424"><ele>53.0</ele><time>2026-04-06T13:02:16.808Z</time></trkpt><trkpt lat="43.888885" lon="10.7984219"><ele>54.0</ele><time>2026-04-06T13:02:17.811Z</time></trkpt><trkpt lat="43.88897" lon="10.7984084"><ele>54.0</ele><time>2026-04-06T13:02:18.802Z</time></trkpt><trkpt lat="43.8890414" lon="10.7984064"><ele>54.0</ele><time>2026-04-06T13:02:19.811Z</time></trkpt><trkpt lat="43.8891472" lon="10.7983927"><ele>54.0</ele><time>2026-04-06T13:02:21.805Z</time></trkpt><trkpt lat="43.8892437" lon="10.7983615"><ele>54.0</ele><time>2026-04-06T13:02:23.811Z</time></trkpt><trkpt lat="43.88931" lon="10.798345"><ele>54.0</ele><time>2026-04-06T13:02:24.807Z</time></trkpt><trkpt lat="43.8893784" lon="10.7983209"><ele>54.0</ele><time>2026-04-06T13:02:25.816Z</time></trkpt><trkpt lat="43.8894491" lon="10.7983048"><ele>54.800000000000004</ele><time>2026-04-06T13:02:26.8Z</time></trkpt><trkpt lat="43.8895223" lon="10.7982708"><ele>55.60000000000001</ele><time>2026-04-06T13:02:27.802Z</time></trkpt><trkpt lat="43.889606" lon="10.7982446"><ele>56.4</ele><time>2026-04-06T13:02:28.802Z</time></trkpt><trkpt lat="43.8897105" lon="10.7982063"><ele>57.2</ele><time>2026-04-06T13:02:29.806Z</time></trkpt><trkpt lat="43.8898147" lon="10.798183"><ele>58.0</ele><time>2026-04-06T13:02:30.814Z</time></trkpt><trkpt lat="43.889918" lon="10.7981288"><ele>57.99999999999999</ele><time>2026-04-06T13:02:31.815Z</time></trkpt><trkpt lat="43.890008" lon="10.7981031"><ele>58.0</ele><time>2026-04-06T13:02:32.818Z</time></trkpt><trkpt lat="43.8900882" lon="10.7981039"><ele>58.0</ele><time>2026-04-06T13:02:33.801Z</time></trkpt><trkpt lat="43.890159" lon="10.7980986"><ele>58.0</ele><time>2026-04-06T13:02:34.799Z</time></trkpt><trkpt lat="43.8902316" lon="10.798137"><ele>57.99999999999999</ele><time>2026-04-06T13:02:35.805Z</time></trkpt><trkpt lat="43.8903219" lon="10.7982246"><ele>58.0</ele><time>2026-04-06T13:02:36.814Z</time></trkpt><trkpt lat="43.890387" lon="10.7983043"><ele>58.0</ele><time>2026-04-06T13:02:37.817Z</time></trkpt><trkpt lat="43.8904462" lon="10.798413"><ele>58.0</ele><time>2026-04-06T13:02:38.808Z</time></trkpt><trkpt lat="43.8904991" lon="10.7984832"><ele>58.0</ele><time>2026-04-06T13:02:39.813Z</time></trkpt><trkpt lat="43.89061" lon="10.7985139"><ele>58.0</ele><time>2026-04-06T13:02:41.808Z</time></trkpt><trkpt lat="43.8907017" lon="10.7984753"><ele>58.0</ele><time>2026-04-06T13:02:43.815Z</time></trkpt><trkpt lat="43.890804" lon="10.7984171"><ele>59.0</ele><time>2026-04-06T13:02:45.803Z</time></trkpt><trkpt lat="43.8909221" lon="10.7982954"><ele>60.0</ele><time>2026-04-06T13:02:46.803Z</time></trkpt><trkpt lat="43.8910127" lon="10.7981945"><ele>61.0</ele><time>2026-04-06T13:02:47.802Z</time></trkpt><trkpt lat="43.8911031" lon="10.7981414"><ele>62.0</ele><time>2026-04-06T13:02:48.805Z</time></trkpt><trkpt lat="43.8911939" lon="10.7980623"><ele>62.0</ele><time>2026-04-06T13:02:49.804Z</time></trkpt><trkpt lat="43.8912803" lon="10.7979749"><ele>62.0</ele><time>2026-04-06T13:02:50.807Z</time></trkpt><trkpt lat="43.8913656" lon="10.7978862"><ele>62.0</ele><time>2026-04-06T13:02:51.804Z</time></trkpt><trkpt lat="43.8914536" lon="10.7977506"><ele>62.0</ele><time>2026-04-06T13:02:52.803Z</time></trkpt><trkpt lat="43.8915449" lon="10.7976406"><ele>64.5</ele><time>2026-04-06T13:02:53.809Z</time></trkpt><trkpt lat="43.8916445" lon="10.7975259"><ele>67.0</ele><time>2026-04-06T13:02:54.808Z</time></trkpt><trkpt lat="43.8917478" lon="10.7974538"><ele>69.5</ele><time>2026-04-06T13:02:55.816Z</time></trkpt><trkpt lat="43.8918465" lon="10.7973655"><ele>72.0</ele><time>2026-04-06T13:02:56.806Z</time></trkpt><trkpt lat="43.8919516" lon="10.7973008"><ele>72.25</ele><time>2026-04-06T13:02:57.815Z</time></trkpt><trkpt lat="43.8920617" lon="10.7972359"><ele>72.5</ele><time>2026-04-06T13:02:58.807Z</time></trkpt><trkpt lat="43.8921572" lon="10.7971455"><ele>72.75</ele><time>2026-04-06T13:02:59.801Z</time></trkpt><trkpt lat="43.8922608" lon="10.7970702"><ele>73.0</ele><time>2026-04-06T13:03:00.81Z</time></trkpt><trkpt lat="43.8923575" lon="10.79695"><ele>73.0</ele><time>2026-04-06T13:03:01.804Z</time></trkpt><trkpt lat="43.8924305" lon="10.7968515"><ele>73.0</ele><time>2026-04-06T13:03:02.796Z</time></trkpt><trkpt lat="43.8925171" lon="10.7967849"><ele>73.0</ele><time>2026-04-06T13:03:04.801Z</time></trkpt><trkpt lat="43.892642" lon="10.7967943"><ele>73.0</ele><time>2026-04-06T13:03:06.804Z</time></trkpt><trkpt lat="43.8927228" lon="10.7969178"><ele>73.0</ele><time>2026-04-06T13:03:08.805Z</time></trkpt><trkpt lat="43.8927949" lon="10.7969909"><ele>75.16666666666666</ele><time>2026-04-06T13:03:09.805Z</time></trkpt><trkpt lat="43.8928725" lon="10.7970425"><ele>77.33333333333333</ele><time>2026-04-06T13:03:10.806Z</time></trkpt><trkpt lat="43.8929322" lon="10.7970772"><ele>79.5</ele><time>2026-04-06T13:03:11.797Z</time></trkpt><trkpt lat="43.8930265" lon="10.7970967"><ele>81.66666666666667</ele><time>2026-04-06T13:03:12.801Z</time></trkpt><trkpt lat="43.8931202" lon="10.7971347"><ele>83.83333333333334</ele><time>2026-04-06T13:03:13.806Z</time></trkpt><trkpt lat="43.8932024" lon="10.7971714"><ele>86.0</ele><time>2026-04-06T13:03:14.806Z</time></trkpt><trkpt lat="43.8932849" lon="10.7972311"><ele>86.0</ele><time>2026-04-06T13:03:15.809Z</time></trkpt><trkpt lat="43.893373" lon="10.7972815"><ele>86.0</ele><time>2026-04-06T13:03:16.802Z</time></trkpt><trkpt lat="43.8934642" lon="10.7973318"><ele>86.0</ele><time>2026-04-06T13:03:17.805Z</time></trkpt><trkpt lat="43.8935546" lon="10.7973717"><ele>86.0</ele><time>2026-04-06T13:03:18.803Z</time></trkpt><trkpt lat="43.8936506" lon="10.7974145"><ele>86.0</ele><time>2026-04-06T13:03:19.802Z</time></trkpt><trkpt lat="43.8937449" lon="10.7974571"><ele>87.8</ele><time>2026-04-06T13:03:20.804Z</time></trkpt><trkpt lat="43.8938257" lon="10.7974897"><ele>89.6</ele><time>2026-04-06T13:03:21.809Z</time></trkpt><trkpt lat="43.8938881" lon="10.7975182"><ele>91.4</ele><time>2026-04-06T13:03:22.807Z</time></trkpt><trkpt lat="43.8939934" lon="10.7975385"><ele>93.2</ele><time>2026-04-06T13:03:24.801Z</time></trkpt><trkpt lat="43.8940833" lon="10.7975347"><ele>95.0</ele><time>2026-04-06T13:03:26.813Z</time></trkpt><trkpt lat="43.894164" lon="10.7974272"><ele>95.0</ele><time>2026-04-06T13:03:28.81Z</time></trkpt><trkpt lat="43.8942018" lon="10.7973536"><ele>95.0</ele><time>2026-04-06T13:03:29.808Z</time></trkpt><trkpt lat="43.8942327" lon="10.7972585"><ele>95.0</ele><time>2026-04-06T13:03:30.806Z</time></trkpt><trkpt lat="43.894235" lon="10.7971594"><ele>95.0</ele><time>2026-04-06T13:03:31.808Z</time></trkpt><trkpt lat="43.8942407" lon="10.7970563"><ele>95.0</ele><time>2026-04-06T13:03:32.807Z</time></trkpt><trkpt lat="43.894257" lon="10.7969635"><ele>95.0</ele><time>2026-04-06T13:03:33.797Z</time></trkpt><trkpt lat="43.894289" lon="10.7968306"><ele>97.2</ele><time>2026-04-06T13:03:34.794Z</time></trkpt><trkpt lat="43.8943114" lon="10.7967044"><ele>99.4</ele><time>2026-04-06T13:03:35.805Z</time></trkpt><trkpt lat="43.8943306" lon="10.796547"><ele>101.6</ele><time>2026-04-06T13:03:36.827Z</time></trkpt><trkpt lat="43.8943423" lon="10.7964195"><ele>103.8</ele><time>2026-04-06T13:03:37.809Z</time></trkpt><trkpt lat="43.8943645" lon="10.7962942"><ele>106.0</ele><time>2026-04-06T13:03:38.803Z</time></trkpt><trkpt lat="43.8943758" lon="10.7961791"><ele>106.00000000000001</ele><time>2026-04-06T13:03:39.805Z</time></trkpt><trkpt lat="43.8944591" lon="10.7960897"><ele>106.0</ele><time>2026-04-06T13:03:41.82Z</time></trkpt><trkpt lat="43.8945064" lon="10.7960312"><ele>106.0</ele><time>2026-04-06T13:03:42.799Z</time></trkpt><trkpt lat="43.8945839" lon="10.7959946"><ele>106.0</ele><time>2026-04-06T13:03:43.801Z</time></trkpt><trkpt lat="43.8946737" lon="10.7959472"><ele>106.00000000000001</ele><time>2026-04-06T13:03:44.798Z</time></trkpt><trkpt lat="43.8947624" lon="10.7959324"><ele>106.0</ele><time>2026-04-06T13:03:45.818Z</time></trkpt><trkpt lat="43.8948552" lon="10.7958775"><ele>109.16666666666667</ele><time>2026-04-06T13:03:46.801Z</time></trkpt><trkpt lat="43.8949337" lon="10.7958568"><ele>112.33333333333334</ele><time>2026-04-06T13:03:47.803Z</time></trkpt><trkpt lat="43.895013" lon="10.7958118"><ele>115.5</ele><time>2026-04-06T13:03:48.801Z</time></trkpt><trkpt lat="43.895075" lon="10.7957469"><ele>118.66666666666666</ele><time>2026-04-06T13:03:49.814Z</time></trkpt><trkpt lat="43.8951537" lon="10.7957004"><ele>121.83333333333333</ele><time>2026-04-06T13:03:50.806Z</time></trkpt><trkpt lat="43.895216" lon="10.7956599"><ele>125.0</ele><time>2026-04-06T13:03:51.803Z</time></trkpt><trkpt lat="43.8952824" lon="10.7956208"><ele>127.8</ele><time>2026-04-06T13:03:52.804Z</time></trkpt><trkpt lat="43.8953658" lon="10.7956121"><ele>130.6</ele><time>2026-04-06T13:03:53.8Z</time></trkpt><trkpt lat="43.8954492" lon="10.7955202"><ele>133.4</ele><time>2026-04-06T13:03:54.819Z</time></trkpt><trkpt lat="43.8955434" lon="10.7954882"><ele>136.2</ele><time>2026-04-06T13:03:55.803Z</time></trkpt><trkpt lat="43.8956275" lon="10.795461"><ele>139.0</ele><time>2026-04-06T13:03:56.805Z</time></trkpt><trkpt lat="43.8957511" lon="10.7954009"><ele>139.0</ele><time>2026-04-06T13:03:57.808Z</time></trkpt><trkpt lat="43.8958443" lon="10.7953514"><ele>139.0</ele><time>2026-04-06T13:03:58.801Z</time></trkpt><trkpt lat="43.8959352" lon="10.7953229"><ele>139.0</ele><time>2026-04-06T13:03:59.803Z</time></trkpt><trkpt lat="43.8960167" lon="10.7952955"><ele>139.0</ele><time>2026-04-06T13:04:00.806Z</time></trkpt><trkpt lat="43.8961368" lon="10.7952694"><ele>139.0</ele><time>2026-04-06T13:04:02.814Z</time></trkpt><trkpt lat="43.8962115" lon="10.7951524"><ele>141.0</ele><time>2026-04-06T13:04:04.805Z</time></trkpt><trkpt lat="43.8962246" lon="10.7950657"><ele>143.0</ele><time>2026-04-06T13:04:05.805Z</time></trkpt><trkpt lat="43.8962632" lon="10.794952"><ele>145.0</ele><time>2026-04-06T13:04:07.803Z</time></trkpt><trkpt lat="43.8963224" lon="10.7949039"><ele>147.0</ele><time>2026-04-06T13:04:08.809Z</time></trkpt><trkpt lat="43.8964181" lon="10.7948295"><ele>149.0</ele><time>2026-04-06T13:04:10.805Z</time></trkpt><trkpt lat="43.8964662" lon="10.7947693"><ele>151.0</ele><time>2026-04-06T13:04:11.803Z</time></trkpt><trkpt lat="43.8965187" lon="10.7947102"><ele>151.0</ele><time>2026-04-06T13:04:12.809Z</time></trkpt><trkpt lat="43.8965862" lon="10.7946349"><ele>151.0</ele><time>2026-04-06T13:04:13.803Z</time></trkpt><trkpt lat="43.8966662" lon="10.7945696"><ele>151.0</ele><time>2026-04-06T13:04:14.806Z</time></trkpt><trkpt lat="43.8967682" lon="10.7945395"><ele>151.0</ele><time>2026-04-06T13:04:15.806Z</time></trkpt><trkpt lat="43.8968533" lon="10.7944644"><ele>151.0</ele><time>2026-04-06T13:04:16.806Z</time></trkpt><trkpt lat="43.8969196" lon="10.7943919"><ele>151.83333333333334</ele><time>2026-04-06T13:04:17.814Z</time></trkpt><trkpt lat="43.896989" lon="10.7943289"><ele>152.66666666666669</ele><time>2026-04-06T13:04:18.804Z</time></trkpt><trkpt lat="43.8970708" lon="10.794309"><ele>153.5</ele><time>2026-04-06T13:04:19.805Z</time></trkpt><trkpt lat="43.8971541" lon="10.7943017"><ele>154.33333333333334</ele><time>2026-04-06T13:04:20.813Z</time></trkpt><trkpt lat="43.8972074" lon="10.7942468"><ele>155.16666666666666</ele><time>2026-04-06T13:04:21.804Z</time></trkpt><trkpt lat="43.8972717" lon="10.7941347"><ele>156.0</ele><time>2026-04-06T13:04:23.803Z</time></trkpt><trkpt lat="43.8972861" lon="10.7939873"><ele>156.0</ele><time>2026-04-06T13:04:25.806Z</time></trkpt><trkpt lat="43.8972762" lon="10.7938819"><ele>156.0</ele><time>2026-04-06T13:04:26.802Z</time></trkpt><trkpt lat="43.8972416" lon="10.7937063"><ele>156.0</ele><time>2026-04-06T13:04:28.795Z</time></trkpt><trkpt lat="43.8973058" lon="10.7935889"><ele>156.0</ele><time>2026-04-06T13:04:30.819Z</time></trkpt><trkpt lat="43.897399" lon="10.7934651"><ele>156.0</ele><time>2026-04-06T13:04:32.801Z</time></trkpt><trkpt lat="43.8974558" lon="10.7933984"><ele>157.33333333333334</ele><time>2026-04-06T13:04:33.799Z</time></trkpt><trkpt lat="43.8975087" lon="10.7933361"><ele>158.66666666666666</ele><time>2026-04-06T13:04:34.809Z</time></trkpt><trkpt lat="43.8975742" lon="10.7932784"><ele>160.0</ele><time>2026-04-06T13:04:35.807Z</time></trkpt><trkpt lat="43.8976322" lon="10.7932046"><ele>161.33333333333331</ele><time>2026-04-06T13:04:36.792Z</time></trkpt><trkpt lat="43.8976898" lon="10.793119"><ele>162.66666666666666</ele><time>2026-04-06T13:04:37.808Z</time></trkpt><trkpt lat="43.8977335" lon="10.7930321"><ele>164.0</ele><time>2026-04-06T13:04:38.805Z</time></trkpt><trkpt lat="43.8978189" lon="10.7929517"><ele>164.0</ele><time>2026-04-06T13:04:39.799Z</time></trkpt><trkpt lat="43.8978792" lon="10.7928555"><ele>164.0</ele><time>2026-04-06T13:04:40.796Z</time></trkpt><trkpt lat="43.8979423" lon="10.7927706"><ele>164.0</ele><time>2026-04-06T13:04:41.8Z</time></trkpt><trkpt lat="43.8980229" lon="10.7926927"><ele>164.0</ele><time>2026-04-06T13:04:42.804Z</time></trkpt><trkpt lat="43.8980845" lon="10.7926003"><ele>164.0</ele><time>2026-04-06T13:04:43.806Z</time></trkpt><trkpt lat="43.898146" lon="10.7925151"><ele>167.2</ele><time>2026-04-06T13:04:44.798Z</time></trkpt><trkpt lat="43.8981988" lon="10.7924541"><ele>170.39999999999998</ele><time>2026-04-06T13:04:45.802Z</time></trkpt><trkpt lat="43.8982266" lon="10.7923646"><ele>173.6</ele><time>2026-04-06T13:04:46.8Z</time></trkpt><trkpt lat="43.8982694" lon="10.7922808"><ele>176.8</ele><time>2026-04-06T13:04:47.814Z</time></trkpt><trkpt lat="43.8983297" lon="10.7921239"><ele>180.0</ele><time>2026-04-06T13:04:49.806Z</time></trkpt><trkpt lat="43.8983633" lon="10.7919697"><ele>180.0</ele><time>2026-04-06T13:04:51.8Z</time></trkpt><trkpt lat="43.8983724" lon="10.791881"><ele>180.0</ele><time>2026-04-06T13:04:52.806Z</time></trkpt><trkpt lat="43.8984056" lon="10.7917916"><ele>180.0</ele><time>2026-04-06T13:04:53.797Z</time></trkpt><trkpt lat="43.8984541" lon="10.79172"><ele>180.0</ele><time>2026-04-06T13:04:54.799Z</time></trkpt><trkpt lat="43.8984743" lon="10.7916272"><ele>180.0</ele><time>2026-04-06T13:04:55.807Z</time></trkpt><trkpt lat="43.8985205" lon="10.7914511"><ele>180.0</ele><time>2026-04-06T13:04:57.818Z</time></trkpt><trkpt lat="43.8985588" lon="10.7913762"><ele>180.33333333333334</ele><time>2026-04-06T13:04:58.804Z</time></trkpt><trkpt lat="43.898604" lon="10.7912933"><ele>180.66666666666666</ele><time>2026-04-06T13:04:59.814Z</time></trkpt><trkpt lat="43.8986367" lon="10.7911998"><ele>181.0</ele><time>2026-04-06T13:05:00.802Z</time></trkpt><trkpt lat="43.8986824" lon="10.7911274"><ele>181.33333333333331</ele><time>2026-04-06T13:05:01.805Z</time></trkpt><trkpt lat="43.8987794" lon="10.7909705"><ele>181.66666666666666</ele><time>2026-04-06T13:05:03.808Z</time></trkpt><trkpt lat="43.8988331" lon="10.790913"><ele>182.0</ele><time>2026-04-06T13:05:04.804Z</time></trkpt><trkpt lat="43.8988514" lon="10.7908293"><ele>184.5</ele><time>2026-04-06T13:05:05.803Z</time></trkpt><trkpt lat="43.8989159" lon="10.7906737"><ele>187.0</ele><time>2026-04-06T13:05:07.818Z</time></trkpt><trkpt lat="43.898962" lon="10.790571"><ele>189.5</ele><time>2026-04-06T13:05:08.802Z</time></trkpt><trkpt lat="43.8989883" lon="10.7904807"><ele>192.0</ele><time>2026-04-06T13:05:09.838Z</time></trkpt><trkpt lat="43.8990354" lon="10.7904087"><ele>194.50000000000003</ele><time>2026-04-06T13:05:10.801Z</time></trkpt><trkpt lat="43.8990963" lon="10.7903382"><ele>197.0</ele><time>2026-04-06T13:05:11.805Z</time></trkpt><trkpt lat="43.8991934" lon="10.7902696"><ele>196.25</ele><time>2026-04-06T13:05:13.802Z</time></trkpt><trkpt lat="43.8993031" lon="10.7902835"><ele>195.5</ele><time>2026-04-06T13:05:15.802Z</time></trkpt><trkpt lat="43.8993748" lon="10.7902666"><ele>194.75</ele><time>2026-04-06T13:05:17.8Z</time></trkpt><trkpt lat="43.8995944" lon="10.7902379"><ele>194.0</ele><time>2026-04-06T13:05:26.81Z</time></trkpt><trkpt lat="43.8996889" lon="10.7902164"><ele>196.2</ele><time>2026-04-06T13:05:28.805Z</time></trkpt><trkpt lat="43.8997712" lon="10.7901169"><ele>198.39999999999998</ele><time>2026-04-06T13:05:30.802Z</time></trkpt><trkpt lat="43.8998485" lon="10.790008"><ele>200.6</ele><time>2026-04-06T13:05:32.803Z</time></trkpt><trkpt lat="43.8999275" lon="10.7899088"><ele>202.8</ele><time>2026-04-06T13:05:34.809Z</time></trkpt><trkpt lat="43.900027" lon="10.7898375"><ele>205.0</ele><time>2026-04-06T13:05:36.808Z</time></trkpt><trkpt lat="43.9001154" lon="10.7898073"><ele>205.0</ele><time>2026-04-06T13:05:38.801Z</time></trkpt><trkpt lat="43.9001898" lon="10.7897728"><ele>205.0</ele><time>2026-04-06T13:05:41.809Z</time></trkpt><trkpt lat="43.9004139" lon="10.7896473"><ele>205.0</ele><time>2026-04-06T13:05:53.795Z</time></trkpt><trkpt lat="43.9004777" lon="10.7896355"><ele>205.0</ele><time>2026-04-06T13:05:54.831Z</time></trkpt><trkpt lat="43.9005856" lon="10.7895954"><ele>205.0</ele><time>2026-04-06T13:05:56.809Z</time></trkpt><trkpt lat="43.9007047" lon="10.7895435"><ele>205.0</ele><time>2026-04-06T13:05:58.808Z</time></trkpt><trkpt lat="43.9007629" lon="10.7895088"><ele>205.0</ele><time>2026-04-06T13:05:59.806Z</time></trkpt><trkpt lat="43.9008914" lon="10.7894916"><ele>205.0</ele><time>2026-04-06T13:06:01.812Z</time></trkpt><trkpt lat="43.9009612" lon="10.7894678"><ele>205.0</ele><time>2026-04-06T13:06:02.803Z</time></trkpt><trkpt lat="43.901062" lon="10.789452"><ele>206.2</ele><time>2026-04-06T13:06:03.812Z</time></trkpt><trkpt lat="43.9011545" lon="10.7894239"><ele>207.4</ele><time>2026-04-06T13:06:04.803Z</time></trkpt><trkpt lat="43.9012277" lon="10.7893834"><ele>208.60000000000002</ele><time>2026-04-06T13:06:05.806Z</time></trkpt><trkpt lat="43.9013173" lon="10.7893337"><ele>209.8</ele><time>2026-04-06T13:06:06.802Z</time></trkpt><trkpt lat="43.9014082" lon="10.7892858"><ele>211.0</ele><time>2026-04-06T13:06:07.806Z</time></trkpt><trkpt lat="43.9014912" lon="10.7892413"><ele>210.99999999999997</ele><time>2026-04-06T13:06:08.805Z</time></trkpt><trkpt lat="43.9015608" lon="10.7892003"><ele>211.0</ele><time>2026-04-06T13:06:09.806Z</time></trkpt><trkpt lat="43.9016286" lon="10.7891583"><ele>211.0</ele><time>2026-04-06T13:06:10.802Z</time></trkpt><trkpt lat="43.9017002" lon="10.7891141"><ele>211.0</ele><time>2026-04-06T13:06:11.801Z</time></trkpt><trkpt lat="43.9017707" lon="10.7890599"><ele>210.99999999999997</ele><time>2026-04-06T13:06:12.82Z</time></trkpt><trkpt lat="43.9018488" lon="10.7890041"><ele>211.0</ele><time>2026-04-06T13:06:13.803Z</time></trkpt><trkpt lat="43.9019349" lon="10.7889663"><ele>212.33333333333331</ele><time>2026-04-06T13:06:14.802Z</time></trkpt><trkpt lat="43.9020272" lon="10.7889178"><ele>213.66666666666666</ele><time>2026-04-06T13:06:15.803Z</time></trkpt><trkpt lat="43.9021091" lon="10.7888892"><ele>215.0</ele><time>2026-04-06T13:06:16.813Z</time></trkpt><trkpt lat="43.9021887" lon="10.788844"><ele>216.33333333333331</ele><time>2026-04-06T13:06:17.801Z</time></trkpt><trkpt lat="43.9022641" lon="10.7887884"><ele>217.66666666666666</ele><time>2026-04-06T13:06:18.807Z</time></trkpt><trkpt lat="43.9023367" lon="10.788754"><ele>219.0</ele><time>2026-04-06T13:06:19.802Z</time></trkpt><trkpt lat="43.9024184" lon="10.7887093"><ele>219.0</ele><time>2026-04-06T13:06:20.801Z</time></trkpt><trkpt lat="43.9024928" lon="10.7886629"><ele>218.99999999999997</ele><time>2026-04-06T13:06:21.805Z</time></trkpt><trkpt lat="43.9025717" lon="10.7886121"><ele>218.99999999999997</ele><time>2026-04-06T13:06:22.802Z</time></trkpt><trkpt lat="43.9026464" lon="10.7885674"><ele>219.0</ele><time>2026-04-06T13:06:23.805Z</time></trkpt><trkpt lat="43.9027082" lon="10.7885319"><ele>219.0</ele><time>2026-04-06T13:06:24.803Z</time></trkpt><trkpt lat="43.902822" lon="10.7884363"><ele>217.6</ele><time>2026-04-06T13:06:26.8Z</time></trkpt><trkpt lat="43.9028712" lon="10.7883776"><ele>216.2</ele><time>2026-04-06T13:06:27.8Z</time></trkpt><trkpt lat="43.9029505" lon="10.7882759"><ele>214.79999999999998</ele><time>2026-04-06T13:06:29.812Z</time></trkpt><trkpt lat="43.9030281" lon="10.7881685"><ele>213.39999999999998</ele><time>2026-04-06T13:06:31.805Z</time></trkpt><trkpt lat="43.9030875" lon="10.7880891"><ele>212.0</ele><time>2026-04-06T13:06:33.805Z</time></trkpt><trkpt lat="43.9032365" lon="10.7877919"><ele>212.0</ele><time>2026-04-06T13:06:42.821Z</time></trkpt><trkpt lat="43.9032847" lon="10.7876816"><ele>212.0</ele><time>2026-04-06T13:06:43.81Z</time></trkpt><trkpt lat="43.903342" lon="10.7875514"><ele>212.0</ele><time>2026-04-06T13:06:45.797Z</time></trkpt><trkpt lat="43.9033862" lon="10.7873021"><ele>212.0</ele><time>2026-04-06T13:06:47.81Z</time></trkpt><trkpt lat="43.9033889" lon="10.787186"><ele>211.8</ele><time>2026-04-06T13:06:48.805Z</time></trkpt><trkpt lat="43.9034069" lon="10.787069"><ele>211.6</ele><time>2026-04-06T13:06:49.803Z</time></trkpt><trkpt lat="43.9033971" lon="10.7868984"><ele>211.4</ele><time>2026-04-06T13:06:50.81Z</time></trkpt><trkpt lat="43.9034038" lon="10.786776"><ele>211.20000000000002</ele><time>2026-04-06T13:06:51.8Z</time></trkpt><trkpt lat="43.9034385" lon="10.7866688"><ele>211.0</ele><time>2026-04-06T13:06:52.806Z</time></trkpt><trkpt lat="43.9034324" lon="10.7865636"><ele>212.16666666666666</ele><time>2026-04-06T13:06:53.804Z</time></trkpt><trkpt lat="43.9034366" lon="10.7864186"><ele>213.33333333333331</ele><time>2026-04-06T13:06:54.801Z</time></trkpt><trkpt lat="43.9034539" lon="10.7863036"><ele>214.5</ele><time>2026-04-06T13:06:55.799Z</time></trkpt><trkpt lat="43.9034536" lon="10.786181"><ele>215.66666666666669</ele><time>2026-04-06T13:06:56.801Z</time></trkpt><trkpt lat="43.9034472" lon="10.7860644"><ele>216.83333333333334</ele><time>2026-04-06T13:06:57.808Z</time></trkpt><trkpt lat="43.9034558" lon="10.785945"><ele>218.0</ele><time>2026-04-06T13:06:58.802Z</time></trkpt><trkpt lat="43.9034423" lon="10.7858203"><ele>219.16666666666669</ele><time>2026-04-06T13:06:59.816Z</time></trkpt><trkpt lat="43.9034267" lon="10.7856838"><ele>220.33333333333334</ele><time>2026-04-06T13:07:00.802Z</time></trkpt><trkpt lat="43.9033872" lon="10.7855703"><ele>221.5</ele><time>2026-04-06T13:07:01.802Z</time></trkpt><trkpt lat="43.9033745" lon="10.7854492"><ele>222.66666666666669</ele><time>2026-04-06T13:07:02.803Z</time></trkpt><trkpt lat="43.9033488" lon="10.7853426"><ele>223.83333333333334</ele><time>2026-04-06T13:07:03.8Z</time></trkpt><trkpt lat="43.9033106" lon="10.7852372"><ele>225.0</ele><time>2026-04-06T13:07:04.81Z</time></trkpt><trkpt lat="43.903264" lon="10.7851293"><ele>222.0</ele><time>2026-04-06T13:07:05.805Z</time></trkpt><trkpt lat="43.9032294" lon="10.7850349"><ele>219.0</ele><time>2026-04-06T13:07:06.8Z</time></trkpt><trkpt lat="43.9031878" lon="10.7849495"><ele>216.0</ele><time>2026-04-06T13:07:07.809Z</time></trkpt><trkpt lat="43.9031201" lon="10.7848825"><ele>213.0</ele><time>2026-04-06T13:07:08.813Z</time></trkpt><trkpt lat="43.9030558" lon="10.7848127"><ele>210.0</ele><time>2026-04-06T13:07:09.807Z</time></trkpt><trkpt lat="43.9030126" lon="10.7847083"><ele>207.0</ele><time>2026-04-06T13:07:10.797Z</time></trkpt><trkpt lat="43.902931" lon="10.7845878"><ele>207.0</ele><time>2026-04-06T13:07:11.806Z</time></trkpt><trkpt lat="43.9028679" lon="10.784507"><ele>207.0</ele><time>2026-04-06T13:07:12.803Z</time></trkpt><trkpt lat="43.902821" lon="10.7843707"><ele>207.0</ele><time>2026-04-06T13:07:13.803Z</time></trkpt><trkpt lat="43.9027646" lon="10.7842561"><ele>207.0</ele><time>2026-04-06T13:07:14.795Z</time></trkpt><trkpt lat="43.9026948" lon="10.7840134"><ele>207.5</ele><time>2026-04-06T13:07:16.796Z</time></trkpt><trkpt lat="43.9026593" lon="10.7839319"><ele>208.0</ele><time>2026-04-06T13:07:17.808Z</time></trkpt><trkpt lat="43.90262" lon="10.7837727"><ele>208.5</ele><time>2026-04-06T13:07:18.804Z</time></trkpt><trkpt lat="43.9026062" lon="10.7836559"><ele>209.0</ele><time>2026-04-06T13:07:19.793Z</time></trkpt><trkpt lat="43.9026165" lon="10.783538"><ele>209.5</ele><time>2026-04-06T13:07:20.799Z</time></trkpt><trkpt lat="43.9026566" lon="10.7834301"><ele>210.0</ele><time>2026-04-06T13:07:21.812Z</time></trkpt><trkpt lat="43.9026805" lon="10.7833317"><ele>208.0</ele><time>2026-04-06T13:07:22.807Z</time></trkpt><trkpt lat="43.9027232" lon="10.7832319"><ele>206.0</ele><time>2026-04-06T13:07:23.802Z</time></trkpt><trkpt lat="43.902786" lon="10.7831268"><ele>204.0</ele><time>2026-04-06T13:07:24.803Z</time></trkpt><trkpt lat="43.9028491" lon="10.7830182"><ele>202.0</ele><time>2026-04-06T13:07:25.806Z</time></trkpt><trkpt lat="43.9029012" lon="10.7828777"><ele>200.0</ele><time>2026-04-06T13:07:26.794Z</time></trkpt><trkpt lat="43.902956" lon="10.7827711"><ele>198.6</ele><time>2026-04-06T13:07:27.803Z</time></trkpt><trkpt lat="43.9030264" lon="10.7826713"><ele>197.2</ele><time>2026-04-06T13:07:28.8Z</time></trkpt><trkpt lat="43.9030616" lon="10.7825455"><ele>195.8</ele><time>2026-04-06T13:07:29.81Z</time></trkpt><trkpt lat="43.9030929" lon="10.7824328"><ele>194.4</ele><time>2026-04-06T13:07:30.81Z</time></trkpt><trkpt lat="43.9031139" lon="10.7822769"><ele>193.0</ele><time>2026-04-06T13:07:31.805Z</time></trkpt><trkpt lat="43.9031484" lon="10.7821403"><ele>193.0</ele><time>2026-04-06T13:07:32.81Z</time></trkpt><trkpt lat="43.9031189" lon="10.781992"><ele>193.0</ele><time>2026-04-06T13:07:33.799Z</time></trkpt><trkpt lat="43.9030922" lon="10.7819103"><ele>193.0</ele><time>2026-04-06T13:07:34.802Z</time></trkpt><trkpt lat="43.9029979" lon="10.7816824"><ele>193.0</ele><time>2026-04-06T13:07:36.8Z</time></trkpt><trkpt lat="43.9029374" lon="10.7815965"><ele>193.83333333333331</ele><time>2026-04-06T13:07:37.814Z</time></trkpt><trkpt lat="43.9028755" lon="10.7814956"><ele>194.66666666666666</ele><time>2026-04-06T13:07:38.794Z</time></trkpt><trkpt lat="43.9028086" lon="10.7813982"><ele>195.5</ele><time>2026-04-06T13:07:39.805Z</time></trkpt><trkpt lat="43.9027762" lon="10.7813091"><ele>196.33333333333331</ele><time>2026-04-06T13:07:40.802Z</time></trkpt><trkpt lat="43.9027536" lon="10.7811776"><ele>197.16666666666666</ele><time>2026-04-06T13:07:41.795Z</time></trkpt><trkpt lat="43.9027476" lon="10.7810656"><ele>198.0</ele><time>2026-04-06T13:07:42.805Z</time></trkpt><trkpt lat="43.902718" lon="10.7809698"><ele>198.8</ele><time>2026-04-06T13:07:43.801Z</time></trkpt><trkpt lat="43.9026919" lon="10.7808447"><ele>199.60000000000002</ele><time>2026-04-06T13:07:44.801Z</time></trkpt><trkpt lat="43.9026675" lon="10.7807582"><ele>200.39999999999998</ele><time>2026-04-06T13:07:45.801Z</time></trkpt><trkpt lat="43.9025472" lon="10.780538"><ele>201.2</ele><time>2026-04-06T13:07:47.806Z</time></trkpt><trkpt lat="43.9025024" lon="10.7804538"><ele>202.0</ele><time>2026-04-06T13:07:48.804Z</time></trkpt><trkpt lat="43.9024591" lon="10.7803518"><ele>196.99999999999997</ele><time>2026-04-06T13:07:50.801Z</time></trkpt><trkpt lat="43.9024413" lon="10.7802324"><ele>192.0</ele><time>2026-04-06T13:08:50.796Z</time></trkpt><trkpt lat="43.9023853" lon="10.780145"><ele>187.0</ele><time>2026-04-06T13:08:52.803Z</time></trkpt><trkpt lat="43.9023434" lon="10.7800645"><ele>182.0</ele><time>2026-04-06T13:08:54.806Z</time></trkpt><trkpt lat="43.902316" lon="10.7799644"><ele>177.0</ele><time>2026-04-06T13:08:57.802Z</time></trkpt><trkpt lat="43.9022805" lon="10.7798906"><ele>172.0</ele><time>2026-04-06T13:09:02.798Z</time></trkpt><trkpt lat="43.9023108" lon="10.780014"><ele>172.0</ele><time>2026-04-06T13:09:16.804Z</time></trkpt><trkpt lat="43.9023416" lon="10.7801042"><ele>172.0</ele><time>2026-04-06T13:09:17.804Z</time></trkpt><trkpt lat="43.9023964" lon="10.7802212"><ele>172.0</ele><time>2026-04-06T13:09:19.801Z</time></trkpt><trkpt lat="43.9024338" lon="10.780325"><ele>172.0</ele><time>2026-04-06T13:09:21.802Z</time></trkpt><trkpt lat="43.9025049" lon="10.780405"><ele>172.0</ele><time>2026-04-06T13:09:23.802Z</time></trkpt><trkpt lat="43.9025401" lon="10.7804796"><ele>172.0</ele><time>2026-04-06T13:09:25.798Z</time></trkpt><trkpt lat="43.9025876" lon="10.7807472"><ele>178.5</ele><time>2026-04-06T13:09:52.8Z</time></trkpt><trkpt lat="43.9026155" lon="10.7809416"><ele>185.0</ele><time>2026-04-06T13:09:53.802Z</time></trkpt><trkpt lat="43.9026606" lon="10.7811235"><ele>191.5</ele><time>2026-04-06T13:09:54.799Z</time></trkpt><trkpt lat="43.9027595" lon="10.7812785"><ele>198.0</ele><time>2026-04-06T13:09:55.803Z</time></trkpt><trkpt lat="43.902859" lon="10.7814309"><ele>198.0</ele><time>2026-04-06T13:09:56.799Z</time></trkpt><trkpt lat="43.9029654" lon="10.781591"><ele>198.0</ele><time>2026-04-06T13:09:57.799Z</time></trkpt><trkpt lat="43.9030404" lon="10.781707"><ele>198.0</ele><time>2026-04-06T13:09:58.8Z</time></trkpt><trkpt lat="43.9031308" lon="10.78183"><ele>198.0</ele><time>2026-04-06T13:09:59.802Z</time></trkpt><trkpt lat="43.9031596" lon="10.7819751"><ele>196.75</ele><time>2026-04-06T13:10:00.806Z</time></trkpt><trkpt lat="43.9031667" lon="10.7821575"><ele>195.5</ele><time>2026-04-06T13:10:01.8Z</time></trkpt><trkpt lat="43.9031418" lon="10.782321"><ele>194.25</ele><time>2026-04-06T13:10:02.81Z</time></trkpt><trkpt lat="43.9031243" lon="10.7824806"><ele>193.0</ele><time>2026-04-06T13:10:03.799Z</time></trkpt><trkpt lat="43.9030878" lon="10.7826331"><ele>194.75</ele><time>2026-04-06T13:10:04.798Z</time></trkpt><trkpt lat="43.9030056" lon="10.7827705"><ele>196.5</ele><time>2026-04-06T13:10:05.806Z</time></trkpt><trkpt lat="43.9029116" lon="10.7829166"><ele>198.25</ele><time>2026-04-06T13:10:06.798Z</time></trkpt><trkpt lat="43.9028334" lon="10.783068"><ele>200.0</ele><time>2026-04-06T13:10:07.807Z</time></trkpt><trkpt lat="43.9027736" lon="10.7832118"><ele>200.0</ele><time>2026-04-06T13:10:08.792Z</time></trkpt><trkpt lat="43.9026882" lon="10.7833121"><ele>200.0</ele><time>2026-04-06T13:10:09.801Z</time></trkpt><trkpt lat="43.9026351" lon="10.783429"><ele>200.0</ele><time>2026-04-06T13:10:10.801Z</time></trkpt><trkpt lat="43.9025783" lon="10.7835553"><ele>200.0</ele><time>2026-04-06T13:10:11.804Z</time></trkpt><trkpt lat="43.9025504" lon="10.7836758"><ele>200.0</ele><time>2026-04-06T13:10:12.8Z</time></trkpt><trkpt lat="43.9025731" lon="10.7838262"><ele>201.75</ele><time>2026-04-06T13:10:13.801Z</time></trkpt><trkpt lat="43.9026074" lon="10.7839684"><ele>203.5</ele><time>2026-04-06T13:10:14.804Z</time></trkpt><trkpt lat="43.9026403" lon="10.7841337"><ele>205.25</ele><time>2026-04-06T13:10:15.8Z</time></trkpt><trkpt lat="43.9027246" lon="10.7842723"><ele>207.0</ele><time>2026-04-06T13:10:16.805Z</time></trkpt><trkpt lat="43.9027914" lon="10.7844002"><ele>207.0</ele><time>2026-04-06T13:10:17.803Z</time></trkpt><trkpt lat="43.9028452" lon="10.7845166"><ele>207.0</ele><time>2026-04-06T13:10:18.797Z</time></trkpt><trkpt lat="43.9028993" lon="10.7846233"><ele>207.0</ele><time>2026-04-06T13:10:19.795Z</time></trkpt><trkpt lat="43.902961" lon="10.7847318"><ele>207.0</ele><time>2026-04-06T13:10:20.803Z</time></trkpt><trkpt lat="43.9030196" lon="10.7848245"><ele>207.0</ele><time>2026-04-06T13:10:21.805Z</time></trkpt><trkpt lat="43.9030724" lon="10.7849133"><ele>207.0</ele><time>2026-04-06T13:10:22.803Z</time></trkpt><trkpt lat="43.9031283" lon="10.7850084"><ele>207.0</ele><time>2026-04-06T13:10:23.799Z</time></trkpt><trkpt lat="43.9031757" lon="10.7851089"><ele>207.0</ele><time>2026-04-06T13:10:24.807Z</time></trkpt><trkpt lat="43.9032242" lon="10.785223"><ele>207.0</ele><time>2026-04-06T13:10:25.806Z</time></trkpt><trkpt lat="43.9032683" lon="10.7853336"><ele>207.0</ele><time>2026-04-06T13:10:26.8Z</time></trkpt><trkpt lat="43.9033013" lon="10.7854532"><ele>206.5</ele><time>2026-04-06T13:10:27.803Z</time></trkpt><trkpt lat="43.9033366" lon="10.7855665"><ele>206.0</ele><time>2026-04-06T13:10:28.803Z</time></trkpt><trkpt lat="43.9033608" lon="10.7856678"><ele>205.5</ele><time>2026-04-06T13:10:29.806Z</time></trkpt><trkpt lat="43.9033789" lon="10.7857723"><ele>205.0</ele><time>2026-04-06T13:10:30.803Z</time></trkpt><trkpt lat="43.903393" lon="10.785886"><ele>204.5</ele><time>2026-04-06T13:10:31.804Z</time></trkpt><trkpt lat="43.9033929" lon="10.7860026"><ele>204.0</ele><time>2026-04-06T13:10:32.804Z</time></trkpt><trkpt lat="43.9033877" lon="10.7861271"><ele>204.0</ele><time>2026-04-06T13:10:33.798Z</time></trkpt><trkpt lat="43.9033908" lon="10.7862631"><ele>204.0</ele><time>2026-04-06T13:10:34.802Z</time></trkpt><trkpt lat="43.9033944" lon="10.7864095"><ele>204.0</ele><time>2026-04-06T13:10:35.8Z</time></trkpt><trkpt lat="43.9033944" lon="10.786561"><ele>204.0</ele><time>2026-04-06T13:10:36.801Z</time></trkpt><trkpt lat="43.9033992" lon="10.7867034"><ele>204.0</ele><time>2026-04-06T13:10:37.799Z</time></trkpt><trkpt lat="43.9033996" lon="10.786838"><ele>205.16666666666666</ele><time>2026-04-06T13:10:38.803Z</time></trkpt><trkpt lat="43.9034012" lon="10.7869531"><ele>206.33333333333331</ele><time>2026-04-06T13:10:39.798Z</time></trkpt><trkpt lat="43.9034101" lon="10.7870758"><ele>207.5</ele><time>2026-04-06T13:10:40.801Z</time></trkpt><trkpt lat="43.9034026" lon="10.7871953"><ele>208.66666666666666</ele><time>2026-04-06T13:10:41.804Z</time></trkpt><trkpt lat="43.9033852" lon="10.7873098"><ele>209.83333333333331</ele><time>2026-04-06T13:10:42.806Z</time></trkpt><trkpt lat="43.903367" lon="10.787434"><ele>211.0</ele><time>2026-04-06T13:10:43.801Z</time></trkpt><trkpt lat="43.9033394" lon="10.7875534"><ele>211.0</ele><time>2026-04-06T13:10:44.799Z</time></trkpt><trkpt lat="43.9033145" lon="10.7876585"><ele>211.0</ele><time>2026-04-06T13:10:45.802Z</time></trkpt><trkpt lat="43.903276" lon="10.7877433"><ele>211.0</ele><time>2026-04-06T13:10:46.805Z</time></trkpt><trkpt lat="43.9032319" lon="10.7878097"><ele>211.0</ele><time>2026-04-06T13:10:47.8Z</time></trkpt><trkpt lat="43.9032037" lon="10.7879372"><ele>211.0</ele><time>2026-04-06T13:10:49.799Z</time></trkpt><trkpt lat="43.9032492" lon="10.7880136"><ele>211.0</ele><time>2026-04-06T13:10:51.802Z</time></trkpt><trkpt lat="43.903309" lon="10.7880436"><ele>211.0</ele><time>2026-04-06T13:10:53.799Z</time></trkpt><trkpt lat="43.9035265" lon="10.7879221"><ele>211.0</ele><time>2026-04-06T13:10:57.809Z</time></trkpt><trkpt lat="43.9036508" lon="10.7878313"><ele>211.0</ele><time>2026-04-06T13:10:59.797Z</time></trkpt><trkpt lat="43.9037234" lon="10.7877706"><ele>211.0</ele><time>2026-04-06T13:11:00.796Z</time></trkpt><trkpt lat="43.9038015" lon="10.7877137"><ele>211.0</ele><time>2026-04-06T13:11:01.802Z</time></trkpt><trkpt lat="43.9038729" lon="10.787673"><ele>211.0</ele><time>2026-04-06T13:11:02.805Z</time></trkpt><trkpt lat="43.9039618" lon="10.7875878"><ele>211.0</ele><time>2026-04-06T13:11:03.801Z</time></trkpt><trkpt lat="43.9040361" lon="10.7874906"><ele>211.0</ele><time>2026-04-06T13:11:04.803Z</time></trkpt><trkpt lat="43.904106" lon="10.7873598"><ele>211.0</ele><time>2026-04-06T13:11:05.801Z</time></trkpt><trkpt lat="43.9041718" lon="10.7872417"><ele>211.0</ele><time>2026-04-06T13:11:06.799Z</time></trkpt><trkpt lat="43.9042092" lon="10.7871033"><ele>211.0</ele><time>2026-04-06T13:11:07.8Z</time></trkpt><trkpt lat="43.9042013" lon="10.7869357"><ele>212.75</ele><time>2026-04-06T13:11:08.799Z</time></trkpt><trkpt lat="43.9041963" lon="10.7867691"><ele>214.5</ele><time>2026-04-06T13:11:09.8Z</time></trkpt><trkpt lat="43.9041743" lon="10.7866314"><ele>216.25</ele><time>2026-04-06T13:11:10.801Z</time></trkpt><trkpt lat="43.9041716" lon="10.786381"><ele>218.0</ele><time>2026-04-06T13:11:11.802Z</time></trkpt><trkpt lat="43.9041548" lon="10.7861653"><ele>220.33333333333334</ele><time>2026-04-06T13:11:12.807Z</time></trkpt><trkpt lat="43.9041323" lon="10.7859446"><ele>222.66666666666669</ele><time>2026-04-06T13:11:13.8Z</time></trkpt><trkpt lat="43.9041025" lon="10.7857275"><ele>225.0</ele><time>2026-04-06T13:11:14.802Z</time></trkpt><trkpt lat="43.9040628" lon="10.7855332"><ele>225.0</ele><time>2026-04-06T13:11:15.796Z</time></trkpt><trkpt lat="43.9040084" lon="10.7853648"><ele>225.0</ele><time>2026-04-06T13:11:16.8Z</time></trkpt><trkpt lat="43.9039825" lon="10.7852013"><ele>225.0</ele><time>2026-04-06T13:11:17.798Z</time></trkpt><trkpt lat="43.9039484" lon="10.7850539"><ele>225.0</ele><time>2026-04-06T13:11:18.802Z</time></trkpt><trkpt lat="43.9039178" lon="10.7849365"><ele>226.83333333333334</ele><time>2026-04-06T13:11:19.799Z</time></trkpt><trkpt lat="43.9038898" lon="10.7848336"><ele>228.66666666666669</ele><time>2026-04-06T13:11:20.808Z</time></trkpt><trkpt lat="43.903872" lon="10.784712"><ele>230.5</ele><time>2026-04-06T13:11:21.806Z</time></trkpt><trkpt lat="43.9039002" lon="10.7846181"><ele>232.33333333333334</ele><time>2026-04-06T13:11:22.798Z</time></trkpt><trkpt lat="43.9039029" lon="10.7844909"><ele>234.16666666666669</ele><time>2026-04-06T13:11:23.8Z</time></trkpt><trkpt lat="43.9039481" lon="10.7843948"><ele>236.0</ele><time>2026-04-06T13:11:24.801Z</time></trkpt><trkpt lat="43.9040374" lon="10.7843216"><ele>236.0</ele><time>2026-04-06T13:11:25.807Z</time></trkpt><trkpt lat="43.9041183" lon="10.7842584"><ele>236.00000000000003</ele><time>2026-04-06T13:11:26.811Z</time></trkpt><trkpt lat="43.9042065" lon="10.7841667"><ele>236.00000000000003</ele><time>2026-04-06T13:11:27.806Z</time></trkpt><trkpt lat="43.9042836" lon="10.7840761"><ele>236.0</ele><time>2026-04-06T13:11:28.795Z</time></trkpt><trkpt lat="43.9043693" lon="10.7839773"><ele>236.0</ele><time>2026-04-06T13:11:29.808Z</time></trkpt><trkpt lat="43.904448" lon="10.783855"><ele>240.25</ele><time>2026-04-06T13:11:30.802Z</time></trkpt><trkpt lat="43.9045033" lon="10.7837167"><ele>244.5</ele><time>2026-04-06T13:11:31.798Z</time></trkpt><trkpt lat="43.9045523" lon="10.783562"><ele>248.75</ele><time>2026-04-06T13:11:32.803Z</time></trkpt><trkpt lat="43.9045936" lon="10.7834033"><ele>253.0</ele><time>2026-04-06T13:11:33.801Z</time></trkpt><trkpt lat="43.9046458" lon="10.7832473"><ele>253.0</ele><time>2026-04-06T13:11:34.807Z</time></trkpt><trkpt lat="43.9047029" lon="10.7830968"><ele>253.0</ele><time>2026-04-06T13:11:35.814Z</time></trkpt><trkpt lat="43.9047599" lon="10.7829603"><ele>253.0</ele><time>2026-04-06T13:11:36.799Z</time></trkpt><trkpt lat="43.9048335" lon="10.7828408"><ele>253.0</ele><time>2026-04-06T13:11:37.802Z</time></trkpt><trkpt lat="43.9048901" lon="10.7827271"><ele>253.0</ele><time>2026-04-06T13:11:38.801Z</time></trkpt><trkpt lat="43.9049402" lon="10.7826351"><ele>251.60000000000002</ele><time>2026-04-06T13:11:39.803Z</time></trkpt><trkpt lat="43.9049894" lon="10.7825473"><ele>250.20000000000002</ele><time>2026-04-06T13:11:40.801Z</time></trkpt><trkpt lat="43.9050305" lon="10.7824741"><ele>248.8</ele><time>2026-04-06T13:11:41.799Z</time></trkpt><trkpt lat="43.9051008" lon="10.7823564"><ele>247.4</ele><time>2026-04-06T13:11:43.801Z</time></trkpt><trkpt lat="43.9051211" lon="10.7821238"><ele>246.0</ele><time>2026-04-06T13:12:41.799Z</time></trkpt><trkpt lat="43.9051181" lon="10.7819951"><ele>246.5</ele><time>2026-04-06T13:12:42.809Z</time></trkpt><trkpt lat="43.9051004" lon="10.7818977"><ele>247.0</ele><time>2026-04-06T13:12:43.793Z</time></trkpt><trkpt lat="43.9050753" lon="10.7818073"><ele>247.5</ele><time>2026-04-06T13:12:44.805Z</time></trkpt><trkpt lat="43.9050506" lon="10.7816807"><ele>248.0</ele><time>2026-04-06T13:12:45.809Z</time></trkpt><trkpt lat="43.905009" lon="10.7815721"><ele>248.5</ele><time>2026-04-06T13:12:46.799Z</time></trkpt><trkpt lat="43.9049886" lon="10.7814788"><ele>249.0</ele><time>2026-04-06T13:12:47.796Z</time></trkpt><trkpt lat="43.9049897" lon="10.7813784"><ele>249.0</ele><time>2026-04-06T13:12:48.794Z</time></trkpt><trkpt lat="43.9049947" lon="10.7812524"><ele>249.0</ele><time>2026-04-06T13:12:49.8Z</time></trkpt><trkpt lat="43.9050092" lon="10.7811603"><ele>249.0</ele><time>2026-04-06T13:12:50.798Z</time></trkpt><trkpt lat="43.9050551" lon="10.7810375"><ele>249.0</ele><time>2026-04-06T13:12:51.804Z</time></trkpt><trkpt lat="43.9050999" lon="10.7809401"><ele>249.0</ele><time>2026-04-06T13:12:52.798Z</time></trkpt><trkpt lat="43.905162" lon="10.7808419"><ele>249.0</ele><time>2026-04-06T13:12:53.802Z</time></trkpt><trkpt lat="43.9052352" lon="10.7807454"><ele>250.33333333333334</ele><time>2026-04-06T13:12:54.798Z</time></trkpt><trkpt lat="43.9053048" lon="10.7806619"><ele>251.66666666666669</ele><time>2026-04-06T13:12:55.799Z</time></trkpt><trkpt lat="43.9053699" lon="10.7805988"><ele>253.0</ele><time>2026-04-06T13:12:56.805Z</time></trkpt><trkpt lat="43.9054421" lon="10.7805398"><ele>254.33333333333334</ele><time>2026-04-06T13:12:57.801Z</time></trkpt><trkpt lat="43.9055147" lon="10.7804961"><ele>255.66666666666669</ele><time>2026-04-06T13:12:58.798Z</time></trkpt><trkpt lat="43.9055903" lon="10.7804576"><ele>257.0</ele><time>2026-04-06T13:12:59.812Z</time></trkpt><trkpt lat="43.9056508" lon="10.7805276"><ele>257.0</ele><time>2026-04-06T13:13:00.801Z</time></trkpt><trkpt lat="43.9057131" lon="10.7805658"><ele>257.0</ele><time>2026-04-06T13:13:01.8Z</time></trkpt><trkpt lat="43.9057443" lon="10.7806866"><ele>257.0</ele><time>2026-04-06T13:13:02.801Z</time></trkpt><trkpt lat="43.9057768" lon="10.7808029"><ele>257.0</ele><time>2026-04-06T13:13:03.801Z</time></trkpt><trkpt lat="43.9057916" lon="10.780918"><ele>257.0</ele><time>2026-04-06T13:13:04.798Z</time></trkpt><trkpt lat="43.9057739" lon="10.7810266"><ele>257.0</ele><time>2026-04-06T13:13:05.799Z</time></trkpt><trkpt lat="43.9057568" lon="10.7811653"><ele>259.4</ele><time>2026-04-06T13:13:06.802Z</time></trkpt><trkpt lat="43.9057004" lon="10.7812447"><ele>261.79999999999995</ele><time>2026-04-06T13:13:07.806Z</time></trkpt><trkpt lat="43.9055297" lon="10.7812385"><ele>264.2</ele><time>2026-04-06T13:13:08.797Z</time></trkpt><trkpt lat="43.9054552" lon="10.7812879"><ele>266.59999999999997</ele><time>2026-04-06T13:13:09.798Z</time></trkpt><trkpt lat="43.9053929" lon="10.7813666"><ele>269.0</ele><time>2026-04-06T13:13:10.809Z</time></trkpt><trkpt lat="43.9053317" lon="10.7814272"><ele>269.0</ele><time>2026-04-06T13:13:11.799Z</time></trkpt><trkpt lat="43.9053112" lon="10.7815493"><ele>269.0</ele><time>2026-04-06T13:13:12.816Z</time></trkpt><trkpt lat="43.9052667" lon="10.7816245"><ele>269.0</ele><time>2026-04-06T13:13:13.802Z</time></trkpt><trkpt lat="43.9053114" lon="10.7817183"><ele>269.0</ele><time>2026-04-06T13:13:14.8Z</time></trkpt><trkpt lat="43.9053275" lon="10.7818081"><ele>269.0</ele><time>2026-04-06T13:13:15.8Z</time></trkpt><trkpt lat="43.9054596" lon="10.7818321"><ele>269.0</ele><time>2026-04-06T13:13:16.798Z</time></trkpt><trkpt lat="43.9055392" lon="10.7818384"><ele>269.0</ele><time>2026-04-06T13:13:17.81Z</time></trkpt><trkpt lat="43.9056222" lon="10.7818146"><ele>269.0</ele><time>2026-04-06T13:13:18.803Z</time></trkpt><trkpt lat="43.9056863" lon="10.7817381"><ele>269.0</ele><time>2026-04-06T13:13:19.803Z</time></trkpt><trkpt lat="43.9057434" lon="10.7816176"><ele>269.0</ele><time>2026-04-06T13:13:20.803Z</time></trkpt><trkpt lat="43.9057876" lon="10.7815082"><ele>269.0</ele><time>2026-04-06T13:13:21.803Z</time></trkpt><trkpt lat="43.9058106" lon="10.7813772"><ele>269.0</ele><time>2026-04-06T13:13:22.796Z</time></trkpt><trkpt lat="43.9058381" lon="10.7812532"><ele>269.0</ele><time>2026-04-06T13:13:23.794Z</time></trkpt><trkpt lat="43.9058912" lon="10.7811553"><ele>269.0</ele><time>2026-04-06T13:13:24.806Z</time></trkpt><trkpt lat="43.905954" lon="10.7810969"><ele>269.0</ele><time>2026-04-06T13:13:25.803Z</time></trkpt><trkpt lat="43.9060195" lon="10.7810298"><ele>269.0</ele><time>2026-04-06T13:13:26.798Z</time></trkpt><trkpt lat="43.9060803" lon="10.7809831"><ele>269.0</ele><time>2026-04-06T13:13:27.805Z</time></trkpt><trkpt lat="43.9061723" lon="10.7809617"><ele>269.25</ele><time>2026-04-06T13:13:28.793Z</time></trkpt><trkpt lat="43.9062985" lon="10.7809964"><ele>269.5</ele><time>2026-04-06T13:13:29.802Z</time></trkpt><trkpt lat="43.9064115" lon="10.7809887"><ele>269.75</ele><time>2026-04-06T13:13:30.798Z</time></trkpt><trkpt lat="43.9065235" lon="10.7809717"><ele>270.0</ele><time>2026-04-06T13:13:31.798Z</time></trkpt><trkpt lat="43.9066481" lon="10.7809338"><ele>271.5</ele><time>2026-04-06T13:13:32.801Z</time></trkpt><trkpt lat="43.9067771" lon="10.7809135"><ele>273.0</ele><time>2026-04-06T13:13:33.798Z</time></trkpt><trkpt lat="43.9069092" lon="10.7808958"><ele>274.5</ele><time>2026-04-06T13:13:34.799Z</time></trkpt><trkpt lat="43.9070254" lon="10.7808613"><ele>276.0</ele><time>2026-04-06T13:13:35.802Z</time></trkpt><trkpt lat="43.907144" lon="10.7808539"><ele>276.0</ele><time>2026-04-06T13:13:36.799Z</time></trkpt><trkpt lat="43.9072568" lon="10.7808769"><ele>276.0</ele><time>2026-04-06T13:13:37.8Z</time></trkpt><trkpt lat="43.9073705" lon="10.780908"><ele>276.0</ele><time>2026-04-06T13:13:38.803Z</time></trkpt><trkpt lat="43.9074825" lon="10.7809653"><ele>276.0</ele><time>2026-04-06T13:13:39.798Z</time></trkpt><trkpt lat="43.9075802" lon="10.7810225"><ele>277.8</ele><time>2026-04-06T13:13:40.802Z</time></trkpt><trkpt lat="43.9076853" lon="10.7811081"><ele>279.6</ele><time>2026-04-06T13:13:41.803Z</time></trkpt><trkpt lat="43.9077838" lon="10.7811857"><ele>281.4</ele><time>2026-04-06T13:13:42.802Z</time></trkpt><trkpt lat="43.9078678" lon="10.7812298"><ele>283.2</ele><time>2026-04-06T13:13:43.809Z</time></trkpt><trkpt lat="43.9079615" lon="10.7812909"><ele>285.0</ele><time>2026-04-06T13:13:44.796Z</time></trkpt><trkpt lat="43.9080442" lon="10.781329"><ele>285.0</ele><time>2026-04-06T13:13:45.798Z</time></trkpt><trkpt lat="43.9081556" lon="10.7812939"><ele>285.0</ele><time>2026-04-06T13:13:47.803Z</time></trkpt><trkpt lat="43.9082" lon="10.7811699"><ele>285.0</ele><time>2026-04-06T13:13:48.798Z</time></trkpt><trkpt lat="43.9082261" lon="10.7810689"><ele>285.0</ele><time>2026-04-06T13:13:49.81Z</time></trkpt><trkpt lat="43.9082168" lon="10.7809404"><ele>285.0</ele><time>2026-04-06T13:13:50.797Z</time></trkpt><trkpt lat="43.908166" lon="10.780805"><ele>284.6</ele><time>2026-04-06T13:13:51.796Z</time></trkpt><trkpt lat="43.9081413" lon="10.7806878"><ele>284.2</ele><time>2026-04-06T13:13:52.802Z</time></trkpt><trkpt lat="43.9081036" lon="10.7805789"><ele>283.8</ele><time>2026-04-06T13:13:53.81Z</time></trkpt><trkpt lat="43.908059" lon="10.780469"><ele>283.4</ele><time>2026-04-06T13:13:54.801Z</time></trkpt><trkpt lat="43.9080085" lon="10.7803749"><ele>283.0</ele><time>2026-04-06T13:13:55.8Z</time></trkpt><trkpt lat="43.907955" lon="10.7802584"><ele>286.0</ele><time>2026-04-06T13:13:56.799Z</time></trkpt><trkpt lat="43.9079031" lon="10.7801269"><ele>289.0</ele><time>2026-04-06T13:13:57.805Z</time></trkpt><trkpt lat="43.9078588" lon="10.7799727"><ele>292.0</ele><time>2026-04-06T13:13:58.799Z</time></trkpt><trkpt lat="43.9077998" lon="10.7798215"><ele>295.0</ele><time>2026-04-06T13:13:59.801Z</time></trkpt><trkpt lat="43.9077329" lon="10.7796552"><ele>295.0</ele><time>2026-04-06T13:14:00.799Z</time></trkpt><trkpt lat="43.9076585" lon="10.7794992"><ele>295.0</ele><time>2026-04-06T13:14:01.805Z</time></trkpt><trkpt lat="43.9075722" lon="10.779364"><ele>295.0</ele><time>2026-04-06T13:14:02.809Z</time></trkpt><trkpt lat="43.907506" lon="10.7791868"><ele>295.0</ele><time>2026-04-06T13:14:03.797Z</time></trkpt><trkpt lat="43.9074306" lon="10.7790515"><ele>294.25</ele><time>2026-04-06T13:14:04.801Z</time></trkpt><trkpt lat="43.9073669" lon="10.778907"><ele>293.5</ele><time>2026-04-06T13:14:05.797Z</time></trkpt><trkpt lat="43.9072804" lon="10.7787304"><ele>292.75</ele><time>2026-04-06T13:14:06.801Z</time></trkpt><trkpt lat="43.9072377" lon="10.778566"><ele>292.0</ele><time>2026-04-06T13:14:07.801Z</time></trkpt><trkpt lat="43.9072301" lon="10.7784104"><ele>296.4</ele><time>2026-04-06T13:14:08.797Z</time></trkpt><trkpt lat="43.9071672" lon="10.7783528"><ele>300.79999999999995</ele><time>2026-04-06T13:14:09.798Z</time></trkpt><trkpt lat="43.90712" lon="10.778239"><ele>305.2</ele><time>2026-04-06T13:14:10.806Z</time></trkpt><trkpt lat="43.9070548" lon="10.7781723"><ele>309.59999999999997</ele><time>2026-04-06T13:14:11.802Z</time></trkpt><trkpt lat="43.906962" lon="10.7780992"><ele>314.0</ele><time>2026-04-06T13:14:12.798Z</time></trkpt><trkpt lat="43.9068646" lon="10.7780308"><ele>314.0</ele><time>2026-04-06T13:14:13.795Z</time></trkpt><trkpt lat="43.9067642" lon="10.7779741"><ele>314.0</ele><time>2026-04-06T13:14:14.8Z</time></trkpt><trkpt lat="43.9066503" lon="10.7779017"><ele>314.0</ele><time>2026-04-06T13:14:15.801Z</time></trkpt><trkpt lat="43.9065423" lon="10.7777761"><ele>314.0</ele><time>2026-04-06T13:14:16.801Z</time></trkpt><trkpt lat="43.9064374" lon="10.7776908"><ele>314.2</ele><time>2026-04-06T13:14:17.797Z</time></trkpt><trkpt lat="43.9063353" lon="10.7775852"><ele>314.4</ele><time>2026-04-06T13:14:18.797Z</time></trkpt><trkpt lat="43.9062604" lon="10.777521"><ele>314.6</ele><time>2026-04-06T13:14:19.801Z</time></trkpt><trkpt lat="43.9062213" lon="10.777438"><ele>314.8</ele><time>2026-04-06T13:14:20.799Z</time></trkpt><trkpt lat="43.9062129" lon="10.7773243"><ele>315.0</ele><time>2026-04-06T13:14:21.804Z</time></trkpt><trkpt lat="43.9062251" lon="10.7772049"><ele>315.0</ele><time>2026-04-06T13:14:22.811Z</time></trkpt><trkpt lat="43.9062445" lon="10.7770785"><ele>315.0</ele><time>2026-04-06T13:14:23.799Z</time></trkpt><trkpt lat="43.9062739" lon="10.7769529"><ele>315.0</ele><time>2026-04-06T13:14:24.799Z</time></trkpt><trkpt lat="43.9062878" lon="10.7768093"><ele>315.0</ele><time>2026-04-06T13:14:25.804Z</time></trkpt><trkpt lat="43.9062851" lon="10.7766662"><ele>315.0</ele><time>2026-04-06T13:14:26.797Z</time></trkpt><trkpt lat="43.9062615" lon="10.7765146"><ele>318.4</ele><time>2026-04-06T13:14:27.801Z</time></trkpt><trkpt lat="43.9062654" lon="10.7763679"><ele>321.8</ele><time>2026-04-06T13:14:28.799Z</time></trkpt><trkpt lat="43.9062821" lon="10.7762211"><ele>325.20000000000005</ele><time>2026-04-06T13:14:29.8Z</time></trkpt><trkpt lat="43.9062856" lon="10.7760759"><ele>328.6</ele><time>2026-04-06T13:14:30.801Z</time></trkpt><trkpt lat="43.9062636" lon="10.7759363"><ele>332.0</ele><time>2026-04-06T13:14:31.8Z</time></trkpt><trkpt lat="43.9062153" lon="10.7758368"><ele>337.5</ele><time>2026-04-06T13:14:32.798Z</time></trkpt><trkpt lat="43.9061581" lon="10.7757373"><ele>343.0</ele><time>2026-04-06T13:14:33.799Z</time></trkpt><trkpt lat="43.9060582" lon="10.77561"><ele>348.5</ele><time>2026-04-06T13:14:34.802Z</time></trkpt><trkpt lat="43.9059948" lon="10.7754521"><ele>354.0</ele><time>2026-04-06T13:14:35.798Z</time></trkpt><trkpt lat="43.9059343" lon="10.7753017"><ele>347.25</ele><time>2026-04-06T13:14:36.798Z</time></trkpt><trkpt lat="43.9058608" lon="10.7751656"><ele>340.5</ele><time>2026-04-06T13:14:37.802Z</time></trkpt><trkpt lat="43.9057793" lon="10.7750423"><ele>333.75</ele><time>2026-04-06T13:14:38.808Z</time></trkpt><trkpt lat="43.9056589" lon="10.7749464"><ele>327.0</ele><time>2026-04-06T13:14:39.805Z</time></trkpt><trkpt lat="43.9055692" lon="10.7748101"><ele>327.0</ele><time>2026-04-06T13:14:40.798Z</time></trkpt><trkpt lat="43.9054781" lon="10.7747032"><ele>327.0</ele><time>2026-04-06T13:14:41.797Z</time></trkpt><trkpt lat="43.905403" lon="10.7745584"><ele>327.0</ele><time>2026-04-06T13:14:42.797Z</time></trkpt><trkpt lat="43.9053358" lon="10.7744168"><ele>327.0</ele><time>2026-04-06T13:14:43.8Z</time></trkpt><trkpt lat="43.9052905" lon="10.7742666"><ele>332.0</ele><time>2026-04-06T13:14:44.802Z</time></trkpt><trkpt lat="43.9052574" lon="10.7740984"><ele>337.0</ele><time>2026-04-06T13:14:45.799Z</time></trkpt><trkpt lat="43.9052506" lon="10.7739126"><ele>342.0</ele><time>2026-04-06T13:14:46.8Z</time></trkpt><trkpt lat="43.905242" lon="10.7736935"><ele>347.0</ele><time>2026-04-06T13:14:47.801Z</time></trkpt><trkpt lat="43.9052208" lon="10.7735286"><ele>349.75</ele><time>2026-04-06T13:14:48.808Z</time></trkpt><trkpt lat="43.9052112" lon="10.773321"><ele>352.5</ele><time>2026-04-06T13:14:49.801Z</time></trkpt><trkpt lat="43.9051986" lon="10.7731721"><ele>355.25</ele><time>2026-04-06T13:14:50.8Z</time></trkpt><trkpt lat="43.9052037" lon="10.7730173"><ele>358.0</ele><time>2026-04-06T13:14:51.802Z</time></trkpt><trkpt lat="43.9051978" lon="10.7728822"><ele>358.0</ele><time>2026-04-06T13:14:52.8Z</time></trkpt><trkpt lat="43.905176" lon="10.7727733"><ele>358.0</ele><time>2026-04-06T13:14:53.806Z</time></trkpt><trkpt lat="43.905146" lon="10.7726585"><ele>358.0</ele><time>2026-04-06T13:14:54.799Z</time></trkpt><trkpt lat="43.9050997" lon="10.7725517"><ele>358.0</ele><time>2026-04-06T13:14:55.799Z</time></trkpt><trkpt lat="43.9050684" lon="10.7724718"><ele>358.0</ele><time>2026-04-06T13:14:56.799Z</time></trkpt><trkpt lat="43.9050245" lon="10.7723727"><ele>358.0</ele><time>2026-04-06T13:14:57.804Z</time></trkpt><trkpt lat="43.9050074" lon="10.7722084"><ele>357.0</ele><time>2026-04-06T13:14:59.799Z</time></trkpt><trkpt lat="43.9050577" lon="10.7720735"><ele>356.0</ele><time>2026-04-06T13:15:01.802Z</time></trkpt><trkpt lat="43.9051156" lon="10.7720284"><ele>355.0</ele><time>2026-04-06T13:15:02.799Z</time></trkpt><trkpt lat="43.905188" lon="10.7719876"><ele>354.0</ele><time>2026-04-06T13:15:03.798Z</time></trkpt><trkpt lat="43.9052674" lon="10.771935"><ele>353.0</ele><time>2026-04-06T13:15:04.801Z</time></trkpt><trkpt lat="43.9053429" lon="10.7718899"><ele>352.0</ele><time>2026-04-06T13:15:05.813Z</time></trkpt><trkpt lat="43.9055261" lon="10.7718138"><ele>351.75</ele><time>2026-04-06T13:15:06.801Z</time></trkpt><trkpt lat="43.9056437" lon="10.771768"><ele>351.5</ele><time>2026-04-06T13:15:07.801Z</time></trkpt><trkpt lat="43.9057426" lon="10.7717188"><ele>351.25</ele><time>2026-04-06T13:15:08.8Z</time></trkpt><trkpt lat="43.9058377" lon="10.7715941"><ele>351.0</ele><time>2026-04-06T13:15:09.798Z</time></trkpt><trkpt lat="43.9059336" lon="10.7714884"><ele>351.0</ele><time>2026-04-06T13:15:10.798Z</time></trkpt><trkpt lat="43.9060255" lon="10.7713942"><ele>351.0</ele><time>2026-04-06T13:15:11.802Z</time></trkpt><trkpt lat="43.9060987" lon="10.7713099"><ele>351.0</ele><time>2026-04-06T13:15:12.8Z</time></trkpt><trkpt lat="43.9061732" lon="10.7712498"><ele>351.0</ele><time>2026-04-06T13:15:13.793Z</time></trkpt><trkpt lat="43.9062457" lon="10.7711974"><ele>351.0</ele><time>2026-04-06T13:15:14.798Z</time></trkpt><trkpt lat="43.9063365" lon="10.7711389"><ele>351.0</ele><time>2026-04-06T13:15:15.802Z</time></trkpt><trkpt lat="43.9064496" lon="10.7711352"><ele>351.0</ele><time>2026-04-06T13:15:16.795Z</time></trkpt><trkpt lat="43.9065825" lon="10.7711947"><ele>351.0</ele><time>2026-04-06T13:15:17.801Z</time></trkpt><trkpt lat="43.906682" lon="10.7711997"><ele>351.0</ele><time>2026-04-06T13:15:18.798Z</time></trkpt><trkpt lat="43.9067705" lon="10.7711711"><ele>351.0</ele><time>2026-04-06T13:15:19.8Z</time></trkpt><trkpt lat="43.9068196" lon="10.7710814"><ele>351.6</ele><time>2026-04-06T13:15:20.795Z</time></trkpt><trkpt lat="43.9068643" lon="10.77101"><ele>352.20000000000005</ele><time>2026-04-06T13:15:21.798Z</time></trkpt><trkpt lat="43.9069029" lon="10.7709206"><ele>352.79999999999995</ele><time>2026-04-06T13:15:22.804Z</time></trkpt><trkpt lat="43.9069403" lon="10.7707908"><ele>353.4</ele><time>2026-04-06T13:15:23.8Z</time></trkpt><trkpt lat="43.9070237" lon="10.7707003"><ele>354.0</ele><time>2026-04-06T13:15:24.799Z</time></trkpt><trkpt lat="43.9071231" lon="10.7706295"><ele>354.0</ele><time>2026-04-06T13:15:25.805Z</time></trkpt><trkpt lat="43.9072237" lon="10.7705539"><ele>354.0</ele><time>2026-04-06T13:15:26.798Z</time></trkpt><trkpt lat="43.9073276" lon="10.7705208"><ele>354.0</ele><time>2026-04-06T13:15:27.795Z</time></trkpt><trkpt lat="43.9074456" lon="10.7704391"><ele>354.0</ele><time>2026-04-06T13:15:28.793Z</time></trkpt><trkpt lat="43.9075533" lon="10.7704028"><ele>357.2</ele><time>2026-04-06T13:15:29.796Z</time></trkpt><trkpt lat="43.9076727" lon="10.7704176"><ele>360.4</ele><time>2026-04-06T13:15:30.796Z</time></trkpt><trkpt lat="43.9077847" lon="10.7704359"><ele>363.6</ele><time>2026-04-06T13:15:31.799Z</time></trkpt><trkpt lat="43.9078713" lon="10.770456"><ele>366.8</ele><time>2026-04-06T13:15:32.794Z</time></trkpt><trkpt lat="43.9079545" lon="10.7704576"><ele>370.0</ele><time>2026-04-06T13:15:33.808Z</time></trkpt><trkpt lat="43.9080334" lon="10.7704271"><ele>370.0</ele><time>2026-04-06T13:15:34.797Z</time></trkpt><trkpt lat="43.9080918" lon="10.7703355"><ele>370.0</ele><time>2026-04-06T13:15:35.801Z</time></trkpt><trkpt lat="43.9081388" lon="10.7701791"><ele>370.0</ele><time>2026-04-06T13:15:36.8Z</time></trkpt><trkpt lat="43.9081715" lon="10.7700666"><ele>370.0</ele><time>2026-04-06T13:15:37.801Z</time></trkpt><trkpt lat="43.9081976" lon="10.7699166"><ele>370.0</ele><time>2026-04-06T13:15:38.808Z</time></trkpt><trkpt lat="43.9082233" lon="10.7697746"><ele>367.4</ele><time>2026-04-06T13:15:39.796Z</time></trkpt><trkpt lat="43.9082566" lon="10.7696296"><ele>364.8</ele><time>2026-04-06T13:15:40.801Z</time></trkpt><trkpt lat="43.9083085" lon="10.7695252"><ele>362.20000000000005</ele><time>2026-04-06T13:15:41.794Z</time></trkpt><trkpt lat="43.9083666" lon="10.7693971"><ele>359.6</ele><time>2026-04-06T13:15:42.798Z</time></trkpt><trkpt lat="43.9083709" lon="10.7692588"><ele>357.0</ele><time>2026-04-06T13:15:43.799Z</time></trkpt><trkpt lat="43.9083764" lon="10.7691226"><ele>356.8333333333333</ele><time>2026-04-06T13:15:44.799Z</time></trkpt><trkpt lat="43.9084119" lon="10.7690107"><ele>356.6666666666667</ele><time>2026-04-06T13:15:45.799Z</time></trkpt><trkpt lat="43.908436" lon="10.7688971"><ele>356.5</ele><time>2026-04-06T13:15:46.798Z</time></trkpt><trkpt lat="43.9084547" lon="10.7687733"><ele>356.33333333333337</ele><time>2026-04-06T13:15:47.799Z</time></trkpt><trkpt lat="43.9084861" lon="10.7686563"><ele>356.1666666666667</ele><time>2026-04-06T13:15:48.798Z</time></trkpt><trkpt lat="43.9085145" lon="10.7685596"><ele>356.0</ele><time>2026-04-06T13:15:49.797Z</time></trkpt><trkpt lat="43.9085779" lon="10.7684981"><ele>356.0</ele><time>2026-04-06T13:15:50.812Z</time></trkpt><trkpt lat="43.9086653" lon="10.7684693"><ele>356.0</ele><time>2026-04-06T13:15:51.806Z</time></trkpt><trkpt lat="43.908756" lon="10.7684657"><ele>356.0</ele><time>2026-04-06T13:15:52.799Z</time></trkpt><trkpt lat="43.9088288" lon="10.768491"><ele>356.0</ele><time>2026-04-06T13:15:53.799Z</time></trkpt><trkpt lat="43.9088988" lon="10.7685241"><ele>356.0</ele><time>2026-04-06T13:15:54.806Z</time></trkpt><trkpt lat="43.9089612" lon="10.7686016"><ele>356.0</ele><time>2026-04-06T13:15:55.8Z</time></trkpt><trkpt lat="43.9090395" lon="10.768683"><ele>358.20000000000005</ele><time>2026-04-06T13:15:56.801Z</time></trkpt><trkpt lat="43.9091086" lon="10.7687648"><ele>360.40000000000003</ele><time>2026-04-06T13:15:57.799Z</time></trkpt><trkpt lat="43.9092108" lon="10.7687989"><ele>362.6</ele><time>2026-04-06T13:15:58.805Z</time></trkpt><trkpt lat="43.9092927" lon="10.7688155"><ele>364.8</ele><time>2026-04-06T13:15:59.8Z</time></trkpt><trkpt lat="43.909383" lon="10.7688182"><ele>367.0</ele><time>2026-04-06T13:16:00.8Z</time></trkpt><trkpt lat="43.9094677" lon="10.7688064"><ele>367.40000000000003</ele><time>2026-04-06T13:16:01.798Z</time></trkpt><trkpt lat="43.909591" lon="10.7687813"><ele>367.8</ele><time>2026-04-06T13:16:02.81Z</time></trkpt><trkpt lat="43.9096712" lon="10.7687434"><ele>368.2</ele><time>2026-04-06T13:16:03.795Z</time></trkpt><trkpt lat="43.909741" lon="10.768678"><ele>368.6</ele><time>2026-04-06T13:16:04.8Z</time></trkpt><trkpt lat="43.9097909" lon="10.7685858"><ele>369.0</ele><time>2026-04-06T13:16:05.804Z</time></trkpt><trkpt lat="43.9098303" lon="10.7684787"><ele>369.0</ele><time>2026-04-06T13:16:06.805Z</time></trkpt><trkpt lat="43.9098485" lon="10.7683492"><ele>369.0</ele><time>2026-04-06T13:16:07.802Z</time></trkpt><trkpt lat="43.9098203" lon="10.7681984"><ele>369.0</ele><time>2026-04-06T13:16:08.804Z</time></trkpt><trkpt lat="43.9098232" lon="10.7680618"><ele>369.0</ele><time>2026-04-06T13:16:09.801Z</time></trkpt><trkpt lat="43.9098446" lon="10.7679394"><ele>369.0</ele><time>2026-04-06T13:16:10.804Z</time></trkpt><trkpt lat="43.9098876" lon="10.7678319"><ele>369.0</ele><time>2026-04-06T13:16:11.799Z</time></trkpt><trkpt lat="43.9099317" lon="10.7677604"><ele>369.0</ele><time>2026-04-06T13:16:12.802Z</time></trkpt><trkpt lat="43.9099927" lon="10.7676869"><ele>369.0</ele><time>2026-04-06T13:16:13.799Z</time></trkpt><trkpt lat="43.9100591" lon="10.767704"><ele>369.0</ele><time>2026-04-06T13:16:14.798Z</time></trkpt><trkpt lat="43.9101262" lon="10.7676972"><ele>369.0</ele><time>2026-04-06T13:16:15.798Z</time></trkpt><trkpt lat="43.9101907" lon="10.7677122"><ele>369.0</ele><time>2026-04-06T13:16:16.799Z</time></trkpt><trkpt lat="43.910265" lon="10.7677661"><ele>369.0</ele><time>2026-04-06T13:16:17.799Z</time></trkpt><trkpt lat="43.9103164" lon="10.7678863"><ele>371.5</ele><time>2026-04-06T13:16:18.797Z</time></trkpt><trkpt lat="43.9104048" lon="10.7679982"><ele>374.0</ele><time>2026-04-06T13:16:19.815Z</time></trkpt><trkpt lat="43.9104977" lon="10.7680898"><ele>376.5</ele><time>2026-04-06T13:16:20.827Z</time></trkpt><trkpt lat="43.9105993" lon="10.7681911"><ele>379.0</ele><time>2026-04-06T13:16:21.795Z</time></trkpt><trkpt lat="43.910685" lon="10.7682943"><ele>379.0</ele><time>2026-04-06T13:16:22.798Z</time></trkpt><trkpt lat="43.9107717" lon="10.7684097"><ele>379.0</ele><time>2026-04-06T13:16:23.797Z</time></trkpt><trkpt lat="43.910848" lon="10.7684978"><ele>379.0</ele><time>2026-04-06T13:16:24.8Z</time></trkpt><trkpt lat="43.9109212" lon="10.7685645"><ele>379.0</ele><time>2026-04-06T13:16:25.799Z</time></trkpt><trkpt lat="43.9110017" lon="10.7686079"><ele>379.0</ele><time>2026-04-06T13:16:26.803Z</time></trkpt><trkpt lat="43.9110932" lon="10.768635"><ele>382.79999999999995</ele><time>2026-04-06T13:16:27.802Z</time></trkpt><trkpt lat="43.91119" lon="10.7686285"><ele>386.59999999999997</ele><time>2026-04-06T13:16:28.8Z</time></trkpt><trkpt lat="43.9112684" lon="10.7685865"><ele>390.4</ele><time>2026-04-06T13:16:29.797Z</time></trkpt><trkpt lat="43.9113457" lon="10.7684998"><ele>394.2</ele><time>2026-04-06T13:16:30.796Z</time></trkpt><trkpt lat="43.9113987" lon="10.7683374"><ele>398.0</ele><time>2026-04-06T13:16:31.799Z</time></trkpt><trkpt lat="43.9113988" lon="10.7681755"><ele>398.0</ele><time>2026-04-06T13:16:32.805Z</time></trkpt><trkpt lat="43.9113583" lon="10.7680153"><ele>398.0</ele><time>2026-04-06T13:16:33.797Z</time></trkpt><trkpt lat="43.9113282" lon="10.7678296"><ele>398.0</ele><time>2026-04-06T13:16:34.797Z</time></trkpt><trkpt lat="43.9113304" lon="10.7676112"><ele>398.0</ele><time>2026-04-06T13:16:35.808Z</time></trkpt><trkpt lat="43.9113223" lon="10.7674044"><ele>398.75</ele><time>2026-04-06T13:16:36.802Z</time></trkpt><trkpt lat="43.9113198" lon="10.7672263"><ele>399.5</ele><time>2026-04-06T13:16:37.8Z</time></trkpt><trkpt lat="43.9113497" lon="10.7670423"><ele>400.25</ele><time>2026-04-06T13:16:38.793Z</time></trkpt><trkpt lat="43.9113335" lon="10.7668674"><ele>401.0</ele><time>2026-04-06T13:16:39.801Z</time></trkpt><trkpt lat="43.9113015" lon="10.7667148"><ele>401.75</ele><time>2026-04-06T13:16:40.797Z</time></trkpt><trkpt lat="43.911196" lon="10.7665263"><ele>402.5</ele><time>2026-04-06T13:16:41.804Z</time></trkpt><trkpt lat="43.9111171" lon="10.7663753"><ele>403.25</ele><time>2026-04-06T13:16:42.796Z</time></trkpt><trkpt lat="43.9110616" lon="10.7662061"><ele>404.0</ele><time>2026-04-06T13:16:43.797Z</time></trkpt><trkpt lat="43.910996" lon="10.7660654"><ele>402.8333333333333</ele><time>2026-04-06T13:16:44.81Z</time></trkpt><trkpt lat="43.9109411" lon="10.7659144"><ele>401.66666666666663</ele><time>2026-04-06T13:16:45.808Z</time></trkpt><trkpt lat="43.9108995" lon="10.7657827"><ele>400.5</ele><time>2026-04-06T13:16:46.794Z</time></trkpt><trkpt lat="43.910879" lon="10.7656758"><ele>399.33333333333337</ele><time>2026-04-06T13:16:47.798Z</time></trkpt><trkpt lat="43.9108859" lon="10.7655753"><ele>398.1666666666667</ele><time>2026-04-06T13:16:48.817Z</time></trkpt><trkpt lat="43.9109171" lon="10.7654961"><ele>397.0</ele><time>2026-04-06T13:16:49.802Z</time></trkpt><trkpt lat="43.9109714" lon="10.7654233"><ele>397.00000000000006</ele><time>2026-04-06T13:16:50.798Z</time></trkpt><trkpt lat="43.9110359" lon="10.7653936"><ele>397.0</ele><time>2026-04-06T13:16:51.81Z</time></trkpt><trkpt lat="43.911114" lon="10.7653809"><ele>397.0</ele><time>2026-04-06T13:16:52.812Z</time></trkpt><trkpt lat="43.9111931" lon="10.7653894"><ele>397.0</ele><time>2026-04-06T13:16:53.796Z</time></trkpt><trkpt lat="43.9112641" lon="10.7654327"><ele>397.00000000000006</ele><time>2026-04-06T13:16:54.795Z</time></trkpt><trkpt lat="43.9113661" lon="10.7655377"><ele>397.0</ele><time>2026-04-06T13:16:55.804Z</time></trkpt><trkpt lat="43.9114717" lon="10.7656611"><ele>397.0</ele><time>2026-04-06T13:16:56.795Z</time></trkpt><trkpt lat="43.9115521" lon="10.7657942"><ele>397.0</ele><time>2026-04-06T13:16:57.801Z</time></trkpt><trkpt lat="43.9116497" lon="10.7659409"><ele>397.0</ele><time>2026-04-06T13:16:58.806Z</time></trkpt><trkpt lat="43.9117442" lon="10.7660766"><ele>397.0</ele><time>2026-04-06T13:16:59.801Z</time></trkpt><trkpt lat="43.911839" lon="10.7662169"><ele>399.0</ele><time>2026-04-06T13:17:00.796Z</time></trkpt><trkpt lat="43.9119294" lon="10.7663516"><ele>401.0</ele><time>2026-04-06T13:17:01.798Z</time></trkpt><trkpt lat="43.9120213" lon="10.7664869"><ele>403.0</ele><time>2026-04-06T13:17:02.81Z</time></trkpt><trkpt lat="43.9121138" lon="10.7666179"><ele>405.0</ele><time>2026-04-06T13:17:03.799Z</time></trkpt><trkpt lat="43.9122244" lon="10.7667614"><ele>408.25</ele><time>2026-04-06T13:17:04.799Z</time></trkpt><trkpt lat="43.9123186" lon="10.7668948"><ele>411.5</ele><time>2026-04-06T13:17:05.798Z</time></trkpt><trkpt lat="43.9124086" lon="10.7670168"><ele>414.75</ele><time>2026-04-06T13:17:06.795Z</time></trkpt><trkpt lat="43.912502" lon="10.7671532"><ele>418.0</ele><time>2026-04-06T13:17:07.803Z</time></trkpt><trkpt lat="43.9125867" lon="10.7672897"><ele>418.2</ele><time>2026-04-06T13:17:08.797Z</time></trkpt><trkpt lat="43.9126547" lon="10.7674126"><ele>418.4</ele><time>2026-04-06T13:17:09.797Z</time></trkpt><trkpt lat="43.912728" lon="10.7675204"><ele>418.59999999999997</ele><time>2026-04-06T13:17:10.799Z</time></trkpt><trkpt lat="43.9127906" lon="10.7675972"><ele>418.79999999999995</ele><time>2026-04-06T13:17:11.797Z</time></trkpt><trkpt lat="43.912875" lon="10.7676382"><ele>419.0</ele><time>2026-04-06T13:17:12.798Z</time></trkpt><trkpt lat="43.9129612" lon="10.7676501"><ele>419.0</ele><time>2026-04-06T13:17:13.8Z</time></trkpt><trkpt lat="43.9130559" lon="10.7676336"><ele>419.0</ele><time>2026-04-06T13:17:14.797Z</time></trkpt><trkpt lat="43.9131591" lon="10.7675967"><ele>419.0</ele><time>2026-04-06T13:17:15.797Z</time></trkpt><trkpt lat="43.9132704" lon="10.7675613"><ele>419.0</ele><time>2026-04-06T13:17:16.804Z</time></trkpt><trkpt lat="43.9133813" lon="10.7675121"><ele>419.0</ele><time>2026-04-06T13:17:17.797Z</time></trkpt><trkpt lat="43.9135058" lon="10.767449"><ele>421.5</ele><time>2026-04-06T13:17:18.797Z</time></trkpt><trkpt lat="43.913633" lon="10.7674024"><ele>424.0</ele><time>2026-04-06T13:17:19.805Z</time></trkpt><trkpt lat="43.9137569" lon="10.7673486"><ele>426.5</ele><time>2026-04-06T13:17:20.796Z</time></trkpt><trkpt lat="43.9138927" lon="10.767291"><ele>429.0</ele><time>2026-04-06T13:17:21.805Z</time></trkpt><trkpt lat="43.9140266" lon="10.7672287"><ele>429.0</ele><time>2026-04-06T13:17:22.797Z</time></trkpt><trkpt lat="43.9141626" lon="10.7671445"><ele>429.0</ele><time>2026-04-06T13:17:23.799Z</time></trkpt><trkpt lat="43.9142986" lon="10.7670555"><ele>429.0</ele><time>2026-04-06T13:17:24.8Z</time></trkpt><trkpt lat="43.9144148" lon="10.7669237"><ele>429.0</ele><time>2026-04-06T13:17:25.8Z</time></trkpt><trkpt lat="43.914525" lon="10.7667934"><ele>426.5</ele><time>2026-04-06T13:17:26.798Z</time></trkpt><trkpt lat="43.9146338" lon="10.7666619"><ele>424.0</ele><time>2026-04-06T13:17:27.811Z</time></trkpt><trkpt lat="43.9147434" lon="10.7665798"><ele>421.5</ele><time>2026-04-06T13:17:28.805Z</time></trkpt><trkpt lat="43.9148711" lon="10.7665031"><ele>419.0</ele><time>2026-04-06T13:17:29.811Z</time></trkpt><trkpt lat="43.9149812" lon="10.7664259"><ele>417.99999999999994</ele><time>2026-04-06T13:17:30.798Z</time></trkpt><trkpt lat="43.9150939" lon="10.7664157"><ele>417.0</ele><time>2026-04-06T13:17:31.798Z</time></trkpt><trkpt lat="43.9151939" lon="10.766417"><ele>416.0</ele><time>2026-04-06T13:17:32.797Z</time></trkpt><trkpt lat="43.9152667" lon="10.766423"><ele>415.0</ele><time>2026-04-06T13:17:33.793Z</time></trkpt><trkpt lat="43.9153312" lon="10.7664734"><ele>413.99999999999994</ele><time>2026-04-06T13:17:34.798Z</time></trkpt><trkpt lat="43.9153981" lon="10.7665355"><ele>413.0</ele><time>2026-04-06T13:17:35.799Z</time></trkpt><trkpt lat="43.9154388" lon="10.7667342"><ele>417.0</ele><time>2026-04-06T13:17:36.808Z</time></trkpt><trkpt lat="43.9154518" lon="10.7668737"><ele>421.0</ele><time>2026-04-06T13:17:37.802Z</time></trkpt><trkpt lat="43.9155106" lon="10.7669576"><ele>424.99999999999994</ele><time>2026-04-06T13:17:38.794Z</time></trkpt><trkpt lat="43.9155514" lon="10.7670639"><ele>429.0</ele><time>2026-04-06T13:17:39.796Z</time></trkpt><trkpt lat="43.9156096" lon="10.7671447"><ele>433.0</ele><time>2026-04-06T13:17:40.807Z</time></trkpt><trkpt lat="43.9157231" lon="10.7671742"><ele>433.0</ele><time>2026-04-06T13:17:42.805Z</time></trkpt><trkpt lat="43.9158106" lon="10.7671921"><ele>433.0</ele><time>2026-04-06T13:17:43.795Z</time></trkpt><trkpt lat="43.915925" lon="10.7671813"><ele>433.0</ele><time>2026-04-06T13:17:44.797Z</time></trkpt><trkpt lat="43.916089" lon="10.7672357"><ele>433.0</ele><time>2026-04-06T13:17:45.799Z</time></trkpt><trkpt lat="43.9162274" lon="10.7672772"><ele>431.25</ele><time>2026-04-06T13:17:46.797Z</time></trkpt><trkpt lat="43.9163842" lon="10.7673258"><ele>429.5</ele><time>2026-04-06T13:17:47.796Z</time></trkpt><trkpt lat="43.9165166" lon="10.7673637"><ele>427.75</ele><time>2026-04-06T13:17:48.803Z</time></trkpt><trkpt lat="43.9166324" lon="10.7674357"><ele>426.0</ele><time>2026-04-06T13:17:49.797Z</time></trkpt><trkpt lat="43.9167284" lon="10.7675154"><ele>424.75</ele><time>2026-04-06T13:17:50.805Z</time></trkpt><trkpt lat="43.9168279" lon="10.767593"><ele>423.5</ele><time>2026-04-06T13:17:51.797Z</time></trkpt><trkpt lat="43.9169418" lon="10.7676254"><ele>422.25</ele><time>2026-04-06T13:17:52.797Z</time></trkpt><trkpt lat="43.9170611" lon="10.7675597"><ele>421.0</ele><time>2026-04-06T13:17:53.797Z</time></trkpt><trkpt lat="43.9171815" lon="10.7675582"><ele>421.0</ele><time>2026-04-06T13:17:54.801Z</time></trkpt><trkpt lat="43.9173233" lon="10.7675587"><ele>421.0</ele><time>2026-04-06T13:17:55.798Z</time></trkpt><trkpt lat="43.9174543" lon="10.7676363"><ele>421.0</ele><time>2026-04-06T13:17:56.799Z</time></trkpt><trkpt lat="43.9175859" lon="10.7676745"><ele>421.0</ele><time>2026-04-06T13:17:57.798Z</time></trkpt><trkpt lat="43.9177298" lon="10.7677269"><ele>422.25</ele><time>2026-04-06T13:17:58.802Z</time></trkpt><trkpt lat="43.9178503" lon="10.7676662"><ele>423.5</ele><time>2026-04-06T13:17:59.808Z</time></trkpt><trkpt lat="43.9179707" lon="10.7676685"><ele>424.75</ele><time>2026-04-06T13:18:00.795Z</time></trkpt><trkpt lat="43.9180879" lon="10.7676789"><ele>426.0</ele><time>2026-04-06T13:18:01.803Z</time></trkpt><trkpt lat="43.9182162" lon="10.767726"><ele>426.0</ele><time>2026-04-06T13:18:02.803Z</time></trkpt><trkpt lat="43.9183384" lon="10.767823"><ele>426.0</ele><time>2026-04-06T13:18:03.799Z</time></trkpt><trkpt lat="43.9184103" lon="10.767953"><ele>426.0</ele><time>2026-04-06T13:18:04.797Z</time></trkpt><trkpt lat="43.9184729" lon="10.7680881"><ele>426.0</ele><time>2026-04-06T13:18:05.798Z</time></trkpt><trkpt lat="43.9185277" lon="10.7682605"><ele>423.0</ele><time>2026-04-06T13:18:06.796Z</time></trkpt><trkpt lat="43.918559" lon="10.7684358"><ele>420.0</ele><time>2026-04-06T13:18:07.798Z</time></trkpt><trkpt lat="43.9185691" lon="10.7686171"><ele>417.0</ele><time>2026-04-06T13:18:08.801Z</time></trkpt><trkpt lat="43.9185965" lon="10.7687799"><ele>414.0</ele><time>2026-04-06T13:18:09.803Z</time></trkpt><trkpt lat="43.9186322" lon="10.7689225"><ele>414.0</ele><time>2026-04-06T13:18:10.805Z</time></trkpt><trkpt lat="43.9186971" lon="10.7690432"><ele>414.0</ele><time>2026-04-06T13:18:11.798Z</time></trkpt><trkpt lat="43.9187868" lon="10.7691441"><ele>414.0</ele><time>2026-04-06T13:18:12.797Z</time></trkpt><trkpt lat="43.9189087" lon="10.7692321"><ele>414.0</ele><time>2026-04-06T13:18:13.804Z</time></trkpt><trkpt lat="43.9190454" lon="10.7693327"><ele>415.0</ele><time>2026-04-06T13:18:14.798Z</time></trkpt><trkpt lat="43.9191807" lon="10.7694179"><ele>416.0</ele><time>2026-04-06T13:18:15.801Z</time></trkpt><trkpt lat="43.9193177" lon="10.7694928"><ele>417.0</ele><time>2026-04-06T13:18:16.802Z</time></trkpt><trkpt lat="43.9194531" lon="10.7695632"><ele>418.0</ele><time>2026-04-06T13:18:17.796Z</time></trkpt><trkpt lat="43.9195593" lon="10.76963"><ele>418.0</ele><time>2026-04-06T13:18:18.804Z</time></trkpt><trkpt lat="43.9196985" lon="10.7696655"><ele>418.0</ele><time>2026-04-06T13:18:19.796Z</time></trkpt><trkpt lat="43.9198052" lon="10.7696942"><ele>418.0</ele><time>2026-04-06T13:18:20.796Z</time></trkpt><trkpt lat="43.9199108" lon="10.7697171"><ele>418.0</ele><time>2026-04-06T13:18:21.799Z</time></trkpt><trkpt lat="43.9200014" lon="10.7697373"><ele>418.0</ele><time>2026-04-06T13:18:22.799Z</time></trkpt><trkpt lat="43.9200872" lon="10.7697446"><ele>418.33333333333337</ele><time>2026-04-06T13:18:23.797Z</time></trkpt><trkpt lat="43.9201518" lon="10.7697307"><ele>418.6666666666667</ele><time>2026-04-06T13:18:24.806Z</time></trkpt><trkpt lat="43.9202279" lon="10.7697264"><ele>419.0</ele><time>2026-04-06T13:18:25.797Z</time></trkpt><trkpt lat="43.9203063" lon="10.7697263"><ele>419.33333333333337</ele><time>2026-04-06T13:18:26.799Z</time></trkpt><trkpt lat="43.9203956" lon="10.7697252"><ele>419.6666666666667</ele><time>2026-04-06T13:18:27.801Z</time></trkpt><trkpt lat="43.9204778" lon="10.7697263"><ele>420.0</ele><time>2026-04-06T13:18:28.798Z</time></trkpt><trkpt lat="43.9205509" lon="10.7697152"><ele>420.0</ele><time>2026-04-06T13:18:29.802Z</time></trkpt><trkpt lat="43.9206228" lon="10.7697268"><ele>420.0</ele><time>2026-04-06T13:18:30.796Z</time></trkpt><trkpt lat="43.9207002" lon="10.7697586"><ele>420.0</ele><time>2026-04-06T13:18:31.797Z</time></trkpt><trkpt lat="43.9207586" lon="10.7698113"><ele>420.0</ele><time>2026-04-06T13:18:32.797Z</time></trkpt><trkpt lat="43.9208216" lon="10.769902"><ele>420.0</ele><time>2026-04-06T13:18:33.797Z</time></trkpt><trkpt lat="43.9208863" lon="10.7699967"><ele>420.0</ele><time>2026-04-06T13:18:34.81Z</time></trkpt><trkpt lat="43.9209662" lon="10.7700974"><ele>420.75</ele><time>2026-04-06T13:18:35.802Z</time></trkpt><trkpt lat="43.9210472" lon="10.7701966"><ele>421.5</ele><time>2026-04-06T13:18:36.797Z</time></trkpt><trkpt lat="43.9211349" lon="10.7703008"><ele>422.25</ele><time>2026-04-06T13:18:37.798Z</time></trkpt><trkpt lat="43.9212295" lon="10.7704132"><ele>423.0</ele><time>2026-04-06T13:18:38.799Z</time></trkpt><trkpt lat="43.9213256" lon="10.7705207"><ele>423.0</ele><time>2026-04-06T13:18:39.799Z</time></trkpt><trkpt lat="43.9214218" lon="10.7706143"><ele>423.0</ele><time>2026-04-06T13:18:40.797Z</time></trkpt><trkpt lat="43.9215199" lon="10.7707016"><ele>423.0</ele><time>2026-04-06T13:18:41.803Z</time></trkpt><trkpt lat="43.9216263" lon="10.770745"><ele>423.0</ele><time>2026-04-06T13:18:42.807Z</time></trkpt><trkpt lat="43.9217442" lon="10.7707828"><ele>425.5</ele><time>2026-04-06T13:18:43.797Z</time></trkpt><trkpt lat="43.9218644" lon="10.7708145"><ele>428.0</ele><time>2026-04-06T13:18:44.798Z</time></trkpt><trkpt lat="43.921972" lon="10.7708434"><ele>430.5</ele><time>2026-04-06T13:18:45.797Z</time></trkpt><trkpt lat="43.9220991" lon="10.7708652"><ele>433.0</ele><time>2026-04-06T13:18:46.807Z</time></trkpt><trkpt lat="43.9222249" lon="10.7708798"><ele>433.0</ele><time>2026-04-06T13:18:47.8Z</time></trkpt><trkpt lat="43.9223394" lon="10.7708865"><ele>432.99999999999994</ele><time>2026-04-06T13:18:48.802Z</time></trkpt><trkpt lat="43.9224493" lon="10.7708763"><ele>432.99999999999994</ele><time>2026-04-06T13:18:49.798Z</time></trkpt><trkpt lat="43.9225554" lon="10.7708621"><ele>433.0</ele><time>2026-04-06T13:18:50.798Z</time></trkpt><trkpt lat="43.9226174" lon="10.7708332"><ele>433.0</ele><time>2026-04-06T13:18:51.801Z</time></trkpt><trkpt lat="43.9227234" lon="10.7708851"><ele>434.50000000000006</ele><time>2026-04-06T13:18:53.798Z</time></trkpt><trkpt lat="43.9227658" lon="10.7709641"><ele>436.0</ele><time>2026-04-06T13:18:54.797Z</time></trkpt><trkpt lat="43.9228075" lon="10.7710748"><ele>437.5</ele><time>2026-04-06T13:18:55.797Z</time></trkpt><trkpt lat="43.9228487" lon="10.771185"><ele>439.0</ele><time>2026-04-06T13:18:56.79Z</time></trkpt><trkpt lat="43.922883" lon="10.7712855"><ele>440.50000000000006</ele><time>2026-04-06T13:18:57.799Z</time></trkpt><trkpt lat="43.9229371" lon="10.7713517"><ele>442.0</ele><time>2026-04-06T13:18:58.797Z</time></trkpt><trkpt lat="43.92299" lon="10.7714156"><ele>441.83333333333337</ele><time>2026-04-06T13:18:59.797Z</time></trkpt><trkpt lat="43.9230807" lon="10.7714026"><ele>441.6666666666667</ele><time>2026-04-06T13:19:00.798Z</time></trkpt><trkpt lat="43.9231662" lon="10.7713917"><ele>441.5</ele><time>2026-04-06T13:19:01.799Z</time></trkpt><trkpt lat="43.9232444" lon="10.77135"><ele>441.33333333333337</ele><time>2026-04-06T13:19:02.799Z</time></trkpt><trkpt lat="43.923336" lon="10.7712986"><ele>441.1666666666667</ele><time>2026-04-06T13:19:03.798Z</time></trkpt><trkpt lat="43.9234161" lon="10.7712959"><ele>441.0</ele><time>2026-04-06T13:19:04.81Z</time></trkpt><trkpt lat="43.9235112" lon="10.7712997"><ele>441.0</ele><time>2026-04-06T13:19:05.797Z</time></trkpt><trkpt lat="43.9235474" lon="10.7713822"><ele>441.0</ele><time>2026-04-06T13:19:06.8Z</time></trkpt><trkpt lat="43.9235674" lon="10.771466"><ele>441.0</ele><time>2026-04-06T13:19:07.796Z</time></trkpt><trkpt lat="43.92358" lon="10.7715543"><ele>441.0</ele><time>2026-04-06T13:19:08.801Z</time></trkpt><trkpt lat="43.9235902" lon="10.7716421"><ele>441.0</ele><time>2026-04-06T13:19:09.796Z</time></trkpt><trkpt lat="43.9235856" lon="10.771745"><ele>441.0</ele><time>2026-04-06T13:19:10.802Z</time></trkpt><trkpt lat="43.9235912" lon="10.7718493"><ele>441.0</ele><time>2026-04-06T13:19:11.798Z</time></trkpt><trkpt lat="43.9236166" lon="10.7719474"><ele>437.5</ele><time>2026-04-06T13:19:12.799Z</time></trkpt><trkpt lat="43.9236618" lon="10.7720451"><ele>434.0</ele><time>2026-04-06T13:19:13.8Z</time></trkpt><trkpt lat="43.923708" lon="10.7721301"><ele>430.5</ele><time>2026-04-06T13:19:14.797Z</time></trkpt><trkpt lat="43.9237813" lon="10.7721925"><ele>427.0</ele><time>2026-04-06T13:19:15.797Z</time></trkpt><trkpt lat="43.9238528" lon="10.772239"><ele>423.5</ele><time>2026-04-06T13:19:16.8Z</time></trkpt><trkpt lat="43.9239668" lon="10.772295"><ele>420.0</ele><time>2026-04-06T13:19:17.796Z</time></trkpt><trkpt lat="43.9241143" lon="10.7723335"><ele>420.0</ele><time>2026-04-06T13:19:18.797Z</time></trkpt><trkpt lat="43.9242281" lon="10.7723645"><ele>420.0</ele><time>2026-04-06T13:19:19.804Z</time></trkpt><trkpt lat="43.9243386" lon="10.7724147"><ele>420.0</ele><time>2026-04-06T13:19:20.795Z</time></trkpt><trkpt lat="43.9244512" lon="10.7724531"><ele>420.0</ele><time>2026-04-06T13:19:21.798Z</time></trkpt><trkpt lat="43.9245658" lon="10.772484"><ele>419.6</ele><time>2026-04-06T13:19:22.8Z</time></trkpt><trkpt lat="43.9246581" lon="10.7724629"><ele>419.2</ele><time>2026-04-06T13:19:23.797Z</time></trkpt><trkpt lat="43.9247337" lon="10.7724037"><ele>418.79999999999995</ele><time>2026-04-06T13:19:24.8Z</time></trkpt><trkpt lat="43.9248046" lon="10.7722984"><ele>418.4</ele><time>2026-04-06T13:19:25.797Z</time></trkpt><trkpt lat="43.9248713" lon="10.7721738"><ele>418.0</ele><time>2026-04-06T13:19:26.806Z</time></trkpt><trkpt lat="43.9249042" lon="10.7719958"><ele>416.75</ele><time>2026-04-06T13:19:27.794Z</time></trkpt><trkpt lat="43.9249495" lon="10.7718088"><ele>415.5</ele><time>2026-04-06T13:19:28.8Z</time></trkpt><trkpt lat="43.9250145" lon="10.7716225"><ele>414.25</ele><time>2026-04-06T13:19:29.805Z</time></trkpt><trkpt lat="43.9250842" lon="10.7714517"><ele>413.0</ele><time>2026-04-06T13:19:30.8Z</time></trkpt><trkpt lat="43.925156" lon="10.771293"><ele>413.0</ele><time>2026-04-06T13:19:31.804Z</time></trkpt><trkpt lat="43.9252407" lon="10.7711361"><ele>413.0</ele><time>2026-04-06T13:19:32.8Z</time></trkpt><trkpt lat="43.925338" lon="10.7709989"><ele>413.0</ele><time>2026-04-06T13:19:33.801Z</time></trkpt><trkpt lat="43.9254393" lon="10.7708642"><ele>413.0</ele><time>2026-04-06T13:19:34.797Z</time></trkpt><trkpt lat="43.9255342" lon="10.7707624"><ele>417.2</ele><time>2026-04-06T13:19:35.796Z</time></trkpt><trkpt lat="43.9256279" lon="10.7707211"><ele>421.4</ele><time>2026-04-06T13:19:36.8Z</time></trkpt><trkpt lat="43.925738" lon="10.7706888"><ele>425.59999999999997</ele><time>2026-04-06T13:19:37.797Z</time></trkpt><trkpt lat="43.9258396" lon="10.7706567"><ele>429.79999999999995</ele><time>2026-04-06T13:19:38.796Z</time></trkpt><trkpt lat="43.9259693" lon="10.7706526"><ele>434.0</ele><time>2026-04-06T13:19:39.797Z</time></trkpt><trkpt lat="43.9261466" lon="10.7707373"><ele>435.25</ele><time>2026-04-06T13:19:40.792Z</time></trkpt><trkpt lat="43.9262772" lon="10.7708508"><ele>436.5</ele><time>2026-04-06T13:19:41.796Z</time></trkpt><trkpt lat="43.9263864" lon="10.7709015"><ele>437.75</ele><time>2026-04-06T13:19:42.797Z</time></trkpt><trkpt lat="43.9265122" lon="10.7709499"><ele>439.0</ele><time>2026-04-06T13:19:43.806Z</time></trkpt><trkpt lat="43.9266357" lon="10.7709768"><ele>439.5</ele><time>2026-04-06T13:19:44.793Z</time></trkpt><trkpt lat="43.9267573" lon="10.7709925"><ele>440.0</ele><time>2026-04-06T13:19:45.804Z</time></trkpt><trkpt lat="43.9268856" lon="10.7710172"><ele>440.5</ele><time>2026-04-06T13:19:46.802Z</time></trkpt><trkpt lat="43.9270343" lon="10.7710755"><ele>441.0</ele><time>2026-04-06T13:19:47.796Z</time></trkpt><trkpt lat="43.927172" lon="10.7710909"><ele>434.0</ele><time>2026-04-06T13:19:48.804Z</time></trkpt><trkpt lat="43.9273238" lon="10.7711275"><ele>427.0</ele><time>2026-04-06T13:19:49.819Z</time></trkpt><trkpt lat="43.9274582" lon="10.7711304"><ele>420.0</ele><time>2026-04-06T13:19:50.799Z</time></trkpt><trkpt lat="43.9275879" lon="10.7711102"><ele>413.0</ele><time>2026-04-06T13:19:51.799Z</time></trkpt><trkpt lat="43.9277104" lon="10.7710928"><ele>413.0</ele><time>2026-04-06T13:19:52.797Z</time></trkpt><trkpt lat="43.9278219" lon="10.7710525"><ele>413.0</ele><time>2026-04-06T13:19:53.793Z</time></trkpt><trkpt lat="43.9279295" lon="10.7710186"><ele>413.0</ele><time>2026-04-06T13:19:54.799Z</time></trkpt><trkpt lat="43.927993" lon="10.7709448"><ele>413.0</ele><time>2026-04-06T13:19:55.821Z</time></trkpt><trkpt lat="43.9280815" lon="10.7708372"><ele>413.0</ele><time>2026-04-06T13:19:56.803Z</time></trkpt><trkpt lat="43.9281406" lon="10.770715"><ele>417.2</ele><time>2026-04-06T13:19:57.794Z</time></trkpt><trkpt lat="43.9281975" lon="10.7705727"><ele>421.4</ele><time>2026-04-06T13:19:58.8Z</time></trkpt><trkpt lat="43.9282572" lon="10.7704438"><ele>425.59999999999997</ele><time>2026-04-06T13:19:59.794Z</time></trkpt><trkpt lat="43.9283014" lon="10.7703201"><ele>429.79999999999995</ele><time>2026-04-06T13:20:00.81Z</time></trkpt><trkpt lat="43.9283575" lon="10.7702236"><ele>434.0</ele><time>2026-04-06T13:20:01.803Z</time></trkpt><trkpt lat="43.9284679" lon="10.7702415"><ele>438.25</ele><time>2026-04-06T13:20:03.796Z</time></trkpt><trkpt lat="43.9285858" lon="10.7703252"><ele>442.5</ele><time>2026-04-06T13:20:05.797Z</time></trkpt><trkpt lat="43.9286373" lon="10.7703767"><ele>446.75</ele><time>2026-04-06T13:20:06.797Z</time></trkpt><trkpt lat="43.928693" lon="10.7705348"><ele>451.0</ele><time>2026-04-06T13:20:07.796Z</time></trkpt><trkpt lat="43.9287463" lon="10.7707688"><ele>451.0</ele><time>2026-04-06T13:20:08.797Z</time></trkpt><trkpt lat="43.9287734" lon="10.7709248"><ele>451.0</ele><time>2026-04-06T13:20:09.807Z</time></trkpt><trkpt lat="43.9287867" lon="10.7710402"><ele>451.0</ele><time>2026-04-06T13:20:10.802Z</time></trkpt><trkpt lat="43.9288143" lon="10.7711559"><ele>451.0</ele><time>2026-04-06T13:20:11.802Z</time></trkpt><trkpt lat="43.9288677" lon="10.7712391"><ele>451.0</ele><time>2026-04-06T13:20:12.798Z</time></trkpt><trkpt lat="43.9289604" lon="10.7713329"><ele>446.6</ele><time>2026-04-06T13:20:13.795Z</time></trkpt><trkpt lat="43.9290671" lon="10.7714109"><ele>442.20000000000005</ele><time>2026-04-06T13:20:14.798Z</time></trkpt><trkpt lat="43.9291612" lon="10.7714756"><ele>437.79999999999995</ele><time>2026-04-06T13:20:15.797Z</time></trkpt><trkpt lat="43.9292664" lon="10.7715245"><ele>433.4</ele><time>2026-04-06T13:20:16.804Z</time></trkpt><trkpt lat="43.9293257" lon="10.7715541"><ele>429.0</ele><time>2026-04-06T13:20:17.797Z</time></trkpt><trkpt lat="43.9294273" lon="10.7715497"><ele>425.0</ele><time>2026-04-06T13:20:18.8Z</time></trkpt><trkpt lat="43.9295288" lon="10.7715095"><ele>421.0</ele><time>2026-04-06T13:20:19.796Z</time></trkpt><trkpt lat="43.9295625" lon="10.7713893"><ele>417.0</ele><time>2026-04-06T13:20:20.803Z</time></trkpt><trkpt lat="43.9296551" lon="10.7712803"><ele>413.0</ele><time>2026-04-06T13:20:21.797Z</time></trkpt><trkpt lat="43.9297455" lon="10.7711372"><ele>413.0</ele><time>2026-04-06T13:20:22.797Z</time></trkpt><trkpt lat="43.9298282" lon="10.7710305"><ele>413.0</ele><time>2026-04-06T13:20:23.796Z</time></trkpt><trkpt lat="43.929895" lon="10.7709175"><ele>413.0</ele><time>2026-04-06T13:20:24.803Z</time></trkpt><trkpt lat="43.9299264" lon="10.7707652"><ele>413.0</ele><time>2026-04-06T13:20:25.798Z</time></trkpt><trkpt lat="43.9299762" lon="10.7706476"><ele>413.0</ele><time>2026-04-06T13:20:26.797Z</time></trkpt><trkpt lat="43.9300099" lon="10.7705202"><ele>413.79999999999995</ele><time>2026-04-06T13:20:27.803Z</time></trkpt><trkpt lat="43.9300706" lon="10.7704151"><ele>414.6</ele><time>2026-04-06T13:20:28.8Z</time></trkpt><trkpt lat="43.9301409" lon="10.7703712"><ele>415.4</ele><time>2026-04-06T13:20:29.799Z</time></trkpt><trkpt lat="43.9302506" lon="10.770288"><ele>416.20000000000005</ele><time>2026-04-06T13:20:31.798Z</time></trkpt><trkpt lat="43.9303294" lon="10.7702442"><ele>417.0</ele><time>2026-04-06T13:20:32.802Z</time></trkpt><trkpt lat="43.9304032" lon="10.7701854"><ele>422.3333333333333</ele><time>2026-04-06T13:20:33.8Z</time></trkpt><trkpt lat="43.9304515" lon="10.7700691"><ele>427.66666666666663</ele><time>2026-04-06T13:20:34.798Z</time></trkpt><trkpt lat="43.9304941" lon="10.7699695"><ele>433.0</ele><time>2026-04-06T13:20:35.797Z</time></trkpt><trkpt lat="43.930542" lon="10.7698846"><ele>438.3333333333333</ele><time>2026-04-06T13:20:36.798Z</time></trkpt><trkpt lat="43.9305872" lon="10.7698069"><ele>443.66666666666663</ele><time>2026-04-06T13:20:37.796Z</time></trkpt><trkpt lat="43.930653" lon="10.7697925"><ele>449.0</ele><time>2026-04-06T13:20:38.797Z</time></trkpt><trkpt lat="43.9308141" lon="10.7698011"><ele>449.0</ele><time>2026-04-06T13:20:40.803Z</time></trkpt><trkpt lat="43.9309221" lon="10.769796"><ele>449.0</ele><time>2026-04-06T13:20:41.8Z</time></trkpt><trkpt lat="43.931003" lon="10.7697988"><ele>449.0</ele><time>2026-04-06T13:20:42.796Z</time></trkpt><trkpt lat="43.931109" lon="10.769823"><ele>449.0</ele><time>2026-04-06T13:20:43.801Z</time></trkpt><trkpt lat="43.9312132" lon="10.7698427"><ele>449.0</ele><time>2026-04-06T13:20:44.798Z</time></trkpt><trkpt lat="43.9313528" lon="10.7698416"><ele>449.0</ele><time>2026-04-06T13:20:45.801Z</time></trkpt><trkpt lat="43.9314605" lon="10.7698178"><ele>449.0</ele><time>2026-04-06T13:20:46.796Z</time></trkpt><trkpt lat="43.9315932" lon="10.7698026"><ele>449.0</ele><time>2026-04-06T13:20:47.811Z</time></trkpt><trkpt lat="43.931746" lon="10.7697881"><ele>449.0</ele><time>2026-04-06T13:20:48.805Z</time></trkpt><trkpt lat="43.931887" lon="10.7697414"><ele>449.0</ele><time>2026-04-06T13:20:49.798Z</time></trkpt><trkpt lat="43.9320247" lon="10.7696973"><ele>449.0</ele><time>2026-04-06T13:20:50.799Z</time></trkpt><trkpt lat="43.9321639" lon="10.7696498"><ele>449.0</ele><time>2026-04-06T13:20:51.798Z</time></trkpt><trkpt lat="43.9323101" lon="10.7695607"><ele>449.0</ele><time>2026-04-06T13:20:52.797Z</time></trkpt><trkpt lat="43.9324194" lon="10.7695387"><ele>450.75</ele><time>2026-04-06T13:20:53.799Z</time></trkpt><trkpt lat="43.9326107" lon="10.7694811"><ele>452.5</ele><time>2026-04-06T13:20:54.798Z</time></trkpt><trkpt lat="43.9327466" lon="10.7694497"><ele>454.25</ele><time>2026-04-06T13:20:55.797Z</time></trkpt><trkpt lat="43.932858" lon="10.7694553"><ele>456.0</ele><time>2026-04-06T13:20:56.802Z</time></trkpt><trkpt lat="43.9329354" lon="10.7694733"><ele>456.0</ele><time>2026-04-06T13:20:57.796Z</time></trkpt><trkpt lat="43.9330395" lon="10.7695058"><ele>456.0</ele><time>2026-04-06T13:20:58.798Z</time></trkpt><trkpt lat="43.9331466" lon="10.7695179"><ele>456.0</ele><time>2026-04-06T13:20:59.793Z</time></trkpt><trkpt lat="43.933234" lon="10.769533"><ele>456.0</ele><time>2026-04-06T13:21:00.793Z</time></trkpt><trkpt lat="43.9332944" lon="10.7695614"><ele>456.0</ele><time>2026-04-06T13:21:01.804Z</time></trkpt><trkpt lat="43.9334148" lon="10.7696068"><ele>456.0</ele><time>2026-04-06T13:21:03.798Z</time></trkpt><trkpt lat="43.9335369" lon="10.7696072"><ele>456.0</ele><time>2026-04-06T13:21:05.797Z</time></trkpt><trkpt lat="43.9336293" lon="10.769552"><ele>456.0</ele><time>2026-04-06T13:21:07.805Z</time></trkpt><trkpt lat="43.9336978" lon="10.7694842"><ele>456.0</ele><time>2026-04-06T13:21:08.801Z</time></trkpt><trkpt lat="43.9337584" lon="10.7694566"><ele>456.0</ele><time>2026-04-06T13:21:09.795Z</time></trkpt><trkpt lat="43.9338171" lon="10.7693835"><ele>456.0</ele><time>2026-04-06T13:21:10.801Z</time></trkpt><trkpt lat="43.9338713" lon="10.7693283"><ele>456.6666666666667</ele><time>2026-04-06T13:21:11.797Z</time></trkpt><trkpt lat="43.9339262" lon="10.7692657"><ele>457.33333333333337</ele><time>2026-04-06T13:21:12.804Z</time></trkpt><trkpt lat="43.9339761" lon="10.7692062"><ele>458.0</ele><time>2026-04-06T13:21:13.798Z</time></trkpt><trkpt lat="43.9340764" lon="10.7691179"><ele>458.6666666666667</ele><time>2026-04-06T13:21:15.799Z</time></trkpt><trkpt lat="43.9341509" lon="10.7690866"><ele>459.33333333333337</ele><time>2026-04-06T13:21:16.799Z</time></trkpt><trkpt lat="43.934222" lon="10.769039"><ele>460.0</ele><time>2026-04-06T13:21:17.798Z</time></trkpt><trkpt lat="43.9342853" lon="10.7689994"><ele>457.4</ele><time>2026-04-06T13:21:18.803Z</time></trkpt><trkpt lat="43.9343787" lon="10.7689272"><ele>454.8</ele><time>2026-04-06T13:21:20.797Z</time></trkpt><trkpt lat="43.9344354" lon="10.7688801"><ele>452.20000000000005</ele><time>2026-04-06T13:21:23.798Z</time></trkpt><trkpt lat="43.9343618" lon="10.7687299"><ele>449.6</ele><time>2026-04-06T13:21:41.804Z</time></trkpt><trkpt lat="43.9342958" lon="10.7686227"><ele>447.0</ele><time>2026-04-06T13:21:42.794Z</time></trkpt><trkpt lat="43.934258" lon="10.7685482"><ele>452.0</ele><time>2026-04-06T13:21:43.803Z</time></trkpt><trkpt lat="43.9341726" lon="10.7684507"><ele>457.00000000000006</ele><time>2026-04-06T13:21:45.796Z</time></trkpt><trkpt lat="43.9340867" lon="10.7683921"><ele>462.00000000000006</ele><time>2026-04-06T13:21:47.796Z</time></trkpt><trkpt lat="43.9339576" lon="10.7684296"><ele>467.0</ele><time>2026-04-06T13:21:49.796Z</time></trkpt><trkpt lat="43.9338785" lon="10.7684687"><ele>472.0</ele><time>2026-04-06T13:21:50.811Z</time></trkpt><trkpt lat="43.9337753" lon="10.7685218"><ele>471.20000000000005</ele><time>2026-04-06T13:21:51.809Z</time></trkpt><trkpt lat="43.9337046" lon="10.7685677"><ele>470.40000000000003</ele><time>2026-04-06T13:21:52.8Z</time></trkpt><trkpt lat="43.9336171" lon="10.7685607"><ele>469.59999999999997</ele><time>2026-04-06T13:21:53.791Z</time></trkpt><trkpt lat="43.9335266" lon="10.7685569"><ele>468.79999999999995</ele><time>2026-04-06T13:21:54.794Z</time></trkpt><trkpt lat="43.9334295" lon="10.7685571"><ele>468.0</ele><time>2026-04-06T13:21:55.798Z</time></trkpt><trkpt lat="43.9333248" lon="10.7685831"><ele>468.0</ele><time>2026-04-06T13:21:56.808Z</time></trkpt><trkpt lat="43.9332313" lon="10.7686071"><ele>468.0</ele><time>2026-04-06T13:21:57.796Z</time></trkpt><trkpt lat="43.9331435" lon="10.7686619"><ele>468.0</ele><time>2026-04-06T13:21:58.806Z</time></trkpt><trkpt lat="43.9330646" lon="10.7689405"><ele>468.0</ele><time>2026-04-06T13:22:00.798Z</time></trkpt><trkpt lat="43.9330037" lon="10.7690849"><ele>468.0</ele><time>2026-04-06T13:22:01.797Z</time></trkpt><trkpt lat="43.9329231" lon="10.7692383"><ele>467.99999999999994</ele><time>2026-04-06T13:22:03.802Z</time></trkpt><trkpt lat="43.9328561" lon="10.7692698"><ele>467.99999999999994</ele><time>2026-04-06T13:22:04.806Z</time></trkpt><trkpt lat="43.9327693" lon="10.7692766"><ele>468.0</ele><time>2026-04-06T13:22:05.798Z</time></trkpt><trkpt lat="43.9326551" lon="10.7692996"><ele>468.0</ele><time>2026-04-06T13:22:06.796Z</time></trkpt><trkpt lat="43.9325635" lon="10.7692745"><ele>473.33333333333337</ele><time>2026-04-06T13:22:07.805Z</time></trkpt><trkpt lat="43.9323342" lon="10.7692439"><ele>478.6666666666667</ele><time>2026-04-06T13:22:08.797Z</time></trkpt><trkpt lat="43.9321607" lon="10.7691867"><ele>484.0</ele><time>2026-04-06T13:22:09.806Z</time></trkpt><trkpt lat="43.9319886" lon="10.7692337"><ele>484.0</ele><time>2026-04-06T13:22:10.798Z</time></trkpt><trkpt lat="43.931829" lon="10.7692294"><ele>484.0</ele><time>2026-04-06T13:22:11.798Z</time></trkpt><trkpt lat="43.9316695" lon="10.7692233"><ele>484.0</ele><time>2026-04-06T13:22:12.8Z</time></trkpt><trkpt lat="43.9314731" lon="10.7691689"><ele>487.33333333333337</ele><time>2026-04-06T13:22:13.798Z</time></trkpt><trkpt lat="43.9312469" lon="10.7691266"><ele>490.66666666666663</ele><time>2026-04-06T13:22:14.806Z</time></trkpt><trkpt lat="43.9310441" lon="10.7690835"><ele>494.0</ele><time>2026-04-06T13:22:15.801Z</time></trkpt><trkpt lat="43.9308515" lon="10.7690621"><ele>494.3333333333333</ele><time>2026-04-06T13:22:16.799Z</time></trkpt><trkpt lat="43.9306383" lon="10.7690748"><ele>494.66666666666663</ele><time>2026-04-06T13:22:17.797Z</time></trkpt><trkpt lat="43.9304663" lon="10.769052"><ele>495.0</ele><time>2026-04-06T13:22:18.807Z</time></trkpt><trkpt lat="43.9302704" lon="10.7689708"><ele>495.0</ele><time>2026-04-06T13:22:19.798Z</time></trkpt><trkpt lat="43.9301795" lon="10.7689165"><ele>495.0</ele><time>2026-04-06T13:22:20.797Z</time></trkpt><trkpt lat="43.9300651" lon="10.7689776"><ele>495.0</ele><time>2026-04-06T13:22:21.797Z</time></trkpt><trkpt lat="43.9299491" lon="10.7690446"><ele>495.0</ele><time>2026-04-06T13:22:22.799Z</time></trkpt><trkpt lat="43.9298702" lon="10.7690089"><ele>495.0</ele><time>2026-04-06T13:22:23.797Z</time></trkpt><trkpt lat="43.9297811" lon="10.7689996"><ele>494.75</ele><time>2026-04-06T13:22:24.8Z</time></trkpt><trkpt lat="43.929671" lon="10.7689929"><ele>494.5</ele><time>2026-04-06T13:22:25.796Z</time></trkpt><trkpt lat="43.9295107" lon="10.7688884"><ele>494.25</ele><time>2026-04-06T13:22:26.797Z</time></trkpt><trkpt lat="43.9293694" lon="10.7688286"><ele>494.0</ele><time>2026-04-06T13:22:27.796Z</time></trkpt><trkpt lat="43.929224" lon="10.768765"><ele>493.0</ele><time>2026-04-06T13:22:28.797Z</time></trkpt><trkpt lat="43.9290992" lon="10.7687153"><ele>492.0</ele><time>2026-04-06T13:22:29.796Z</time></trkpt><trkpt lat="43.9289515" lon="10.7686742"><ele>491.0</ele><time>2026-04-06T13:22:30.795Z</time></trkpt><trkpt lat="43.928806" lon="10.7686496"><ele>490.0</ele><time>2026-04-06T13:22:31.795Z</time></trkpt><trkpt lat="43.9286604" lon="10.7686393"><ele>490.0</ele><time>2026-04-06T13:22:32.798Z</time></trkpt><trkpt lat="43.9284973" lon="10.7685961"><ele>490.0</ele><time>2026-04-06T13:22:33.806Z</time></trkpt><trkpt lat="43.9283366" lon="10.7685255"><ele>490.0</ele><time>2026-04-06T13:22:34.807Z</time></trkpt><trkpt lat="43.9281795" lon="10.7684831"><ele>489.2</ele><time>2026-04-06T13:22:35.798Z</time></trkpt><trkpt lat="43.9280859" lon="10.7684833"><ele>488.4</ele><time>2026-04-06T13:22:36.8Z</time></trkpt><trkpt lat="43.9280184" lon="10.7685263"><ele>487.6</ele><time>2026-04-06T13:22:37.797Z</time></trkpt><trkpt lat="43.9279351" lon="10.7686039"><ele>486.8</ele><time>2026-04-06T13:22:38.797Z</time></trkpt><trkpt lat="43.9278403" lon="10.7686967"><ele>486.0</ele><time>2026-04-06T13:22:39.798Z</time></trkpt><trkpt lat="43.9277661" lon="10.7687366"><ele>486.0</ele><time>2026-04-06T13:22:40.796Z</time></trkpt><trkpt lat="43.9276705" lon="10.7687562"><ele>486.0</ele><time>2026-04-06T13:22:41.8Z</time></trkpt><trkpt lat="43.9275596" lon="10.768791"><ele>486.0</ele><time>2026-04-06T13:22:42.8Z</time></trkpt><trkpt lat="43.927478" lon="10.7688058"><ele>486.0</ele><time>2026-04-06T13:22:43.795Z</time></trkpt><trkpt lat="43.9273649" lon="10.7687971"><ele>486.0</ele><time>2026-04-06T13:22:44.798Z</time></trkpt><trkpt lat="43.9272608" lon="10.7687481"><ele>487.0</ele><time>2026-04-06T13:22:45.795Z</time></trkpt><trkpt lat="43.9271508" lon="10.7686922"><ele>488.0</ele><time>2026-04-06T13:22:46.797Z</time></trkpt><trkpt lat="43.9270579" lon="10.7686736"><ele>489.0</ele><time>2026-04-06T13:22:47.797Z</time></trkpt><trkpt lat="43.9269592" lon="10.7686957"><ele>490.0</ele><time>2026-04-06T13:22:48.798Z</time></trkpt><trkpt lat="43.9268823" lon="10.7686904"><ele>491.0</ele><time>2026-04-06T13:22:49.8Z</time></trkpt><trkpt lat="43.9267871" lon="10.7686725"><ele>490.6</ele><time>2026-04-06T13:22:50.798Z</time></trkpt><trkpt lat="43.9267176" lon="10.7686317"><ele>490.20000000000005</ele><time>2026-04-06T13:22:51.798Z</time></trkpt><trkpt lat="43.9266337" lon="10.7685624"><ele>489.79999999999995</ele><time>2026-04-06T13:22:52.799Z</time></trkpt><trkpt lat="43.9265484" lon="10.7684906"><ele>489.4</ele><time>2026-04-06T13:22:53.8Z</time></trkpt><trkpt lat="43.9264461" lon="10.7684409"><ele>489.0</ele><time>2026-04-06T13:22:54.797Z</time></trkpt><trkpt lat="43.9263522" lon="10.7684546"><ele>493.5</ele><time>2026-04-06T13:22:55.796Z</time></trkpt><trkpt lat="43.9262462" lon="10.7684565"><ele>498.0</ele><time>2026-04-06T13:22:56.798Z</time></trkpt><trkpt lat="43.9261268" lon="10.7684918"><ele>502.5</ele><time>2026-04-06T13:22:57.803Z</time></trkpt><trkpt lat="43.9260124" lon="10.7684983"><ele>507.0</ele><time>2026-04-06T13:22:58.801Z</time></trkpt><trkpt lat="43.9258777" lon="10.7685243"><ele>503.25</ele><time>2026-04-06T13:22:59.791Z</time></trkpt><trkpt lat="43.9257381" lon="10.7685384"><ele>499.5</ele><time>2026-04-06T13:23:00.795Z</time></trkpt><trkpt lat="43.9256229" lon="10.7685281"><ele>495.75</ele><time>2026-04-06T13:23:01.797Z</time></trkpt><trkpt lat="43.9254988" lon="10.7685512"><ele>492.0</ele><time>2026-04-06T13:23:02.801Z</time></trkpt><trkpt lat="43.9253796" lon="10.7685766"><ele>492.0</ele><time>2026-04-06T13:23:03.796Z</time></trkpt><trkpt lat="43.9252712" lon="10.7685972"><ele>492.0</ele><time>2026-04-06T13:23:04.797Z</time></trkpt><trkpt lat="43.9251841" lon="10.7686273"><ele>492.0</ele><time>2026-04-06T13:23:05.797Z</time></trkpt><trkpt lat="43.9251131" lon="10.7685852"><ele>492.0</ele><time>2026-04-06T13:23:06.801Z</time></trkpt><trkpt lat="43.925054" lon="10.76851"><ele>492.0</ele><time>2026-04-06T13:23:07.803Z</time></trkpt><trkpt lat="43.9250074" lon="10.7684197"><ele>492.0</ele><time>2026-04-06T13:23:08.801Z</time></trkpt><trkpt lat="43.9250026" lon="10.7683069"><ele>493.8</ele><time>2026-04-06T13:23:09.802Z</time></trkpt><trkpt lat="43.9250184" lon="10.7681983"><ele>495.6</ele><time>2026-04-06T13:23:10.797Z</time></trkpt><trkpt lat="43.9250422" lon="10.7680811"><ele>497.40000000000003</ele><time>2026-04-06T13:23:11.797Z</time></trkpt><trkpt lat="43.9251316" lon="10.7680036"><ele>499.20000000000005</ele><time>2026-04-06T13:23:12.801Z</time></trkpt><trkpt lat="43.9252225" lon="10.7679301"><ele>501.0</ele><time>2026-04-06T13:23:13.813Z</time></trkpt><trkpt lat="43.9253127" lon="10.7678687"><ele>502.20000000000005</ele><time>2026-04-06T13:23:14.796Z</time></trkpt><trkpt lat="43.9254168" lon="10.7678279"><ele>503.40000000000003</ele><time>2026-04-06T13:23:15.825Z</time></trkpt><trkpt lat="43.9255151" lon="10.7677943"><ele>504.6</ele><time>2026-04-06T13:23:16.794Z</time></trkpt><trkpt lat="43.9256068" lon="10.7677491"><ele>505.8</ele><time>2026-04-06T13:23:17.798Z</time></trkpt><trkpt lat="43.9257195" lon="10.7677088"><ele>507.0</ele><time>2026-04-06T13:23:18.804Z</time></trkpt><trkpt lat="43.9258249" lon="10.7676884"><ele>507.5</ele><time>2026-04-06T13:23:19.822Z</time></trkpt><trkpt lat="43.9259239" lon="10.7677343"><ele>508.0</ele><time>2026-04-06T13:23:20.796Z</time></trkpt><trkpt lat="43.9260457" lon="10.7677938"><ele>508.5</ele><time>2026-04-06T13:23:21.797Z</time></trkpt><trkpt lat="43.9261611" lon="10.7678362"><ele>509.0</ele><time>2026-04-06T13:23:22.794Z</time></trkpt><trkpt lat="43.9262683" lon="10.7678799"><ele>509.0</ele><time>2026-04-06T13:23:23.793Z</time></trkpt><trkpt lat="43.9263667" lon="10.7679006"><ele>509.0</ele><time>2026-04-06T13:23:24.794Z</time></trkpt><trkpt lat="43.9264474" lon="10.7679058"><ele>509.0</ele><time>2026-04-06T13:23:25.791Z</time></trkpt><trkpt lat="43.926553" lon="10.7678002"><ele>509.0</ele><time>2026-04-06T13:23:27.792Z</time></trkpt><trkpt lat="43.9266114" lon="10.7677133"><ele>509.0</ele><time>2026-04-06T13:23:28.802Z</time></trkpt><trkpt lat="43.9266587" lon="10.7676235"><ele>509.4</ele><time>2026-04-06T13:23:29.807Z</time></trkpt><trkpt lat="43.9267189" lon="10.7675457"><ele>509.79999999999995</ele><time>2026-04-06T13:23:30.793Z</time></trkpt><trkpt lat="43.9267985" lon="10.767466"><ele>510.20000000000005</ele><time>2026-04-06T13:23:31.794Z</time></trkpt><trkpt lat="43.9268929" lon="10.7673898"><ele>510.6</ele><time>2026-04-06T13:23:32.804Z</time></trkpt><trkpt lat="43.9270199" lon="10.7673389"><ele>511.0</ele><time>2026-04-06T13:23:33.801Z</time></trkpt><trkpt lat="43.927168" lon="10.767282"><ele>515.5</ele><time>2026-04-06T13:23:34.796Z</time></trkpt><trkpt lat="43.9272814" lon="10.7672415"><ele>520.0</ele><time>2026-04-06T13:23:35.796Z</time></trkpt><trkpt lat="43.927416" lon="10.7672097"><ele>524.5</ele><time>2026-04-06T13:23:36.797Z</time></trkpt><trkpt lat="43.9275246" lon="10.7672355"><ele>529.0</ele><time>2026-04-06T13:23:37.802Z</time></trkpt><trkpt lat="43.9276081" lon="10.7672877"><ele>531.5</ele><time>2026-04-06T13:23:38.799Z</time></trkpt><trkpt lat="43.9277087" lon="10.7673475"><ele>534.0</ele><time>2026-04-06T13:23:39.795Z</time></trkpt><trkpt lat="43.9277878" lon="10.7674406"><ele>536.5</ele><time>2026-04-06T13:23:40.8Z</time></trkpt><trkpt lat="43.9278836" lon="10.7675579"><ele>539.0</ele><time>2026-04-06T13:23:41.794Z</time></trkpt><trkpt lat="43.9279803" lon="10.7676495"><ele>532.6666666666666</ele><time>2026-04-06T13:23:42.8Z</time></trkpt><trkpt lat="43.9281102" lon="10.7677636"><ele>526.3333333333334</ele><time>2026-04-06T13:23:43.798Z</time></trkpt><trkpt lat="43.928256" lon="10.7678165"><ele>520.0</ele><time>2026-04-06T13:23:44.797Z</time></trkpt><trkpt lat="43.9284976" lon="10.767821"><ele>520.0</ele><time>2026-04-06T13:23:45.797Z</time></trkpt><trkpt lat="43.9286844" lon="10.7678485"><ele>520.0</ele><time>2026-04-06T13:23:46.792Z</time></trkpt><trkpt lat="43.9288823" lon="10.7678554"><ele>520.0</ele><time>2026-04-06T13:23:47.798Z</time></trkpt><trkpt lat="43.9290523" lon="10.7679184"><ele>521.0</ele><time>2026-04-06T13:23:48.806Z</time></trkpt><trkpt lat="43.9292799" lon="10.7679589"><ele>522.0</ele><time>2026-04-06T13:23:49.8Z</time></trkpt><trkpt lat="43.9294421" lon="10.7679799"><ele>523.0</ele><time>2026-04-06T13:23:50.805Z</time></trkpt><trkpt lat="43.9296286" lon="10.767964"><ele>523.0</ele><time>2026-04-06T13:23:51.797Z</time></trkpt><trkpt lat="43.9297785" lon="10.7679449"><ele>523.0</ele><time>2026-04-06T13:23:52.808Z</time></trkpt><trkpt lat="43.9299451" lon="10.7679039"><ele>523.0</ele><time>2026-04-06T13:23:53.804Z</time></trkpt><trkpt lat="43.9301028" lon="10.7678377"><ele>525.5</ele><time>2026-04-06T13:23:54.809Z</time></trkpt><trkpt lat="43.930238" lon="10.7677592"><ele>528.0</ele><time>2026-04-06T13:23:55.806Z</time></trkpt><trkpt lat="43.9303895" lon="10.7677553"><ele>530.5</ele><time>2026-04-06T13:23:56.808Z</time></trkpt><trkpt lat="43.9305111" lon="10.7677651"><ele>533.0</ele><time>2026-04-06T13:23:57.801Z</time></trkpt><trkpt lat="43.9306359" lon="10.7677961"><ele>533.0</ele><time>2026-04-06T13:23:58.8Z</time></trkpt><trkpt lat="43.9307503" lon="10.7677995"><ele>533.0</ele><time>2026-04-06T13:23:59.799Z</time></trkpt><trkpt lat="43.9308475" lon="10.7678637"><ele>533.0</ele><time>2026-04-06T13:24:00.798Z</time></trkpt><trkpt lat="43.9309174" lon="10.7678474"><ele>533.0</ele><time>2026-04-06T13:24:01.797Z</time></trkpt><trkpt lat="43.9310668" lon="10.7678204"><ele>533.0</ele><time>2026-04-06T13:24:02.802Z</time></trkpt><trkpt lat="43.9311863" lon="10.7678584"><ele>533.8</ele><time>2026-04-06T13:24:03.798Z</time></trkpt><trkpt lat="43.9313118" lon="10.7678591"><ele>534.5999999999999</ele><time>2026-04-06T13:24:04.799Z</time></trkpt><trkpt lat="43.9314252" lon="10.7678907"><ele>535.4000000000001</ele><time>2026-04-06T13:24:05.805Z</time></trkpt><trkpt lat="43.9314878" lon="10.7679063"><ele>536.2</ele><time>2026-04-06T13:24:06.803Z</time></trkpt><trkpt lat="43.93158" lon="10.7678626"><ele>537.0</ele><time>2026-04-06T13:24:07.793Z</time></trkpt><trkpt lat="43.9316501" lon="10.7678367"><ele>537.0</ele><time>2026-04-06T13:24:08.793Z</time></trkpt><trkpt lat="43.9317122" lon="10.7677807"><ele>537.0</ele><time>2026-04-06T13:24:09.798Z</time></trkpt><trkpt lat="43.9317688" lon="10.7676792"><ele>537.0</ele><time>2026-04-06T13:24:10.793Z</time></trkpt><trkpt lat="43.9318064" lon="10.7675923"><ele>537.0</ele><time>2026-04-06T13:24:11.799Z</time></trkpt><trkpt lat="43.9318072" lon="10.7675008"><ele>537.0</ele><time>2026-04-06T13:24:12.803Z</time></trkpt><trkpt lat="43.9317875" lon="10.7674092"><ele>537.0</ele><time>2026-04-06T13:24:13.795Z</time></trkpt><trkpt lat="43.9317138" lon="10.7673083"><ele>542.0</ele><time>2026-04-06T13:24:15.796Z</time></trkpt><trkpt lat="43.9316591" lon="10.7672588"><ele>547.0</ele><time>2026-04-06T13:24:16.801Z</time></trkpt><trkpt lat="43.93159" lon="10.7672778"><ele>552.0</ele><time>2026-04-06T13:24:17.802Z</time></trkpt><trkpt lat="43.9314891" lon="10.7673372"><ele>557.0</ele><time>2026-04-06T13:24:19.796Z</time></trkpt><trkpt lat="43.9313325" lon="10.7673584"><ele>562.0</ele><time>2026-04-06T13:24:21.792Z</time></trkpt><trkpt lat="43.931203" lon="10.7673255"><ele>562.0</ele><time>2026-04-06T13:24:22.82Z</time></trkpt><trkpt lat="43.9310033" lon="10.7671994"><ele>562.0</ele><time>2026-04-06T13:24:23.79Z</time></trkpt><trkpt lat="43.9308961" lon="10.767116"><ele>562.0</ele><time>2026-04-06T13:24:24.796Z</time></trkpt><trkpt lat="43.9307968" lon="10.7670424"><ele>561.4</ele><time>2026-04-06T13:24:25.799Z</time></trkpt><trkpt lat="43.9307127" lon="10.7669856"><ele>560.8000000000001</ele><time>2026-04-06T13:24:26.797Z</time></trkpt><trkpt lat="43.9306248" lon="10.7669357"><ele>560.2</ele><time>2026-04-06T13:24:27.793Z</time></trkpt><trkpt lat="43.9305419" lon="10.766896"><ele>559.6</ele><time>2026-04-06T13:24:28.804Z</time></trkpt><trkpt lat="43.9304608" lon="10.7668264"><ele>559.0</ele><time>2026-04-06T13:24:29.801Z</time></trkpt><trkpt lat="43.93039" lon="10.7667801"><ele>561.0</ele><time>2026-04-06T13:24:30.798Z</time></trkpt><trkpt lat="43.9303093" lon="10.7667427"><ele>563.0</ele><time>2026-04-06T13:24:31.798Z</time></trkpt><trkpt lat="43.9302255" lon="10.7667621"><ele>565.0</ele><time>2026-04-06T13:24:32.796Z</time></trkpt><trkpt lat="43.9301541" lon="10.7666531"><ele>567.0</ele><time>2026-04-06T13:24:34.797Z</time></trkpt><trkpt lat="43.9300551" lon="10.7665631"><ele>569.0</ele><time>2026-04-06T13:24:36.797Z</time></trkpt><trkpt lat="43.930006" lon="10.766486"><ele>569.0</ele><time>2026-04-06T13:24:37.793Z</time></trkpt><trkpt lat="43.929977" lon="10.7663896"><ele>569.0</ele><time>2026-04-06T13:24:38.798Z</time></trkpt><trkpt lat="43.9299413" lon="10.7662841"><ele>569.0</ele><time>2026-04-06T13:24:39.797Z</time></trkpt><trkpt lat="43.9298819" lon="10.7661569"><ele>569.0</ele><time>2026-04-06T13:24:41.796Z</time></trkpt><trkpt lat="43.9298544" lon="10.7660005"><ele>569.0</ele><time>2026-04-06T13:24:43.796Z</time></trkpt><trkpt lat="43.9298818" lon="10.7658352"><ele>569.8</ele><time>2026-04-06T13:24:45.797Z</time></trkpt><trkpt lat="43.9299803" lon="10.7657112"><ele>570.5999999999999</ele><time>2026-04-06T13:24:47.799Z</time></trkpt><trkpt lat="43.9300537" lon="10.7656672"><ele>571.4</ele><time>2026-04-06T13:24:48.795Z</time></trkpt><trkpt lat="43.9301447" lon="10.7656305"><ele>572.1999999999999</ele><time>2026-04-06T13:24:49.802Z</time></trkpt><trkpt lat="43.9302356" lon="10.7655848"><ele>573.0</ele><time>2026-04-06T13:24:50.796Z</time></trkpt><trkpt lat="43.9303171" lon="10.7655475"><ele>576.4</ele><time>2026-04-06T13:24:51.796Z</time></trkpt><trkpt lat="43.9304028" lon="10.7654975"><ele>579.8</ele><time>2026-04-06T13:24:52.794Z</time></trkpt><trkpt lat="43.9304692" lon="10.7654202"><ele>583.2</ele><time>2026-04-06T13:24:53.798Z</time></trkpt><trkpt lat="43.930506" lon="10.7652438"><ele>586.6</ele><time>2026-04-06T13:24:55.79Z</time></trkpt><trkpt lat="43.9304794" lon="10.7651257"><ele>590.0</ele><time>2026-04-06T13:24:56.791Z</time></trkpt><trkpt lat="43.9304428" lon="10.7650269"><ele>590.6</ele><time>2026-04-06T13:24:57.803Z</time></trkpt><trkpt lat="43.9304146" lon="10.7649439"><ele>591.2</ele><time>2026-04-06T13:24:58.802Z</time></trkpt><trkpt lat="43.9303897" lon="10.7648574"><ele>591.8</ele><time>2026-04-06T13:24:59.798Z</time></trkpt><trkpt lat="43.9304085" lon="10.764708"><ele>592.4</ele><time>2026-04-06T13:25:01.8Z</time></trkpt><trkpt lat="43.9304509" lon="10.7645358"><ele>593.0</ele><time>2026-04-06T13:25:03.789Z</time></trkpt><trkpt lat="43.9305133" lon="10.7644471"><ele>593.5</ele><time>2026-04-06T13:25:04.79Z</time></trkpt><trkpt lat="43.9305875" lon="10.7643595"><ele>594.0</ele><time>2026-04-06T13:25:05.801Z</time></trkpt><trkpt lat="43.9306578" lon="10.7642703"><ele>594.5</ele><time>2026-04-06T13:25:06.793Z</time></trkpt><trkpt lat="43.9307024" lon="10.7641786"><ele>595.0</ele><time>2026-04-06T13:25:07.795Z</time></trkpt><trkpt lat="43.9307298" lon="10.7640788"><ele>595.5</ele><time>2026-04-06T13:25:08.829Z</time></trkpt><trkpt lat="43.930756" lon="10.7639752"><ele>596.0</ele><time>2026-04-06T13:25:09.802Z</time></trkpt><trkpt lat="43.9307635" lon="10.7638797"><ele>596.0</ele><time>2026-04-06T13:25:10.792Z</time></trkpt><trkpt lat="43.9307394" lon="10.7637392"><ele>596.0</ele><time>2026-04-06T13:25:11.796Z</time></trkpt><trkpt lat="43.9307651" lon="10.7636213"><ele>596.0</ele><time>2026-04-06T13:25:12.793Z</time></trkpt><trkpt lat="43.930783" lon="10.763519"><ele>596.0</ele><time>2026-04-06T13:25:13.804Z</time></trkpt><trkpt lat="43.9308183" lon="10.763429"><ele>596.0</ele><time>2026-04-06T13:25:14.799Z</time></trkpt><trkpt lat="43.9308992" lon="10.763319"><ele>598.6666666666666</ele><time>2026-04-06T13:25:16.793Z</time></trkpt><trkpt lat="43.9309837" lon="10.7633212"><ele>601.3333333333333</ele><time>2026-04-06T13:25:17.799Z</time></trkpt><trkpt lat="43.9310446" lon="10.7633635"><ele>604.0</ele><time>2026-04-06T13:25:18.797Z</time></trkpt><trkpt lat="43.9311115" lon="10.7634242"><ele>606.6666666666666</ele><time>2026-04-06T13:25:19.795Z</time></trkpt><trkpt lat="43.9311903" lon="10.7634907"><ele>609.3333333333334</ele><time>2026-04-06T13:25:20.795Z</time></trkpt><trkpt lat="43.9312269" lon="10.7636271"><ele>612.0</ele><time>2026-04-06T13:25:21.797Z</time></trkpt><trkpt lat="43.9312462" lon="10.7637791"><ele>612.0</ele><time>2026-04-06T13:25:22.804Z</time></trkpt><trkpt lat="43.9312503" lon="10.7639511"><ele>612.0</ele><time>2026-04-06T13:25:23.797Z</time></trkpt><trkpt lat="43.9312459" lon="10.7641232"><ele>612.0</ele><time>2026-04-06T13:25:24.796Z</time></trkpt><trkpt lat="43.9312239" lon="10.7642721"><ele>612.0</ele><time>2026-04-06T13:25:25.795Z</time></trkpt><trkpt lat="43.9312017" lon="10.764428"><ele>610.6</ele><time>2026-04-06T13:25:26.799Z</time></trkpt><trkpt lat="43.9311675" lon="10.7645655"><ele>609.2</ele><time>2026-04-06T13:25:27.801Z</time></trkpt><trkpt lat="43.9311465" lon="10.7646899"><ele>607.8</ele><time>2026-04-06T13:25:28.806Z</time></trkpt><trkpt lat="43.9311493" lon="10.7648027"><ele>606.4</ele><time>2026-04-06T13:25:29.801Z</time></trkpt><trkpt lat="43.9311384" lon="10.7649149"><ele>605.0</ele><time>2026-04-06T13:25:30.803Z</time></trkpt><trkpt lat="43.9311717" lon="10.7650405"><ele>605.0</ele><time>2026-04-06T13:25:31.794Z</time></trkpt><trkpt lat="43.9311894" lon="10.7651706"><ele>605.0</ele><time>2026-04-06T13:25:32.795Z</time></trkpt><trkpt lat="43.9312304" lon="10.765282"><ele>605.0</ele><time>2026-04-06T13:25:33.795Z</time></trkpt><trkpt lat="43.9312754" lon="10.7653831"><ele>605.0</ele><time>2026-04-06T13:25:34.796Z</time></trkpt><trkpt lat="43.9313521" lon="10.7654449"><ele>605.0</ele><time>2026-04-06T13:25:35.799Z</time></trkpt><trkpt lat="43.9314079" lon="10.765494"><ele>605.0</ele><time>2026-04-06T13:25:36.801Z</time></trkpt><trkpt lat="43.9314902" lon="10.7654884"><ele>603.6666666666666</ele><time>2026-04-06T13:25:37.795Z</time></trkpt><trkpt lat="43.9315569" lon="10.7654666"><ele>602.3333333333333</ele><time>2026-04-06T13:25:38.794Z</time></trkpt><trkpt lat="43.9316304" lon="10.7654155"><ele>601.0</ele><time>2026-04-06T13:25:39.799Z</time></trkpt><trkpt lat="43.9316799" lon="10.7653497"><ele>599.6666666666666</ele><time>2026-04-06T13:25:40.801Z</time></trkpt><trkpt lat="43.9317077" lon="10.7652709"><ele>598.3333333333334</ele><time>2026-04-06T13:25:41.796Z</time></trkpt><trkpt lat="43.9317689" lon="10.7650807"><ele>597.0</ele><time>2026-04-06T13:25:42.796Z</time></trkpt><trkpt lat="43.9318369" lon="10.7649546"><ele>597.0</ele><time>2026-04-06T13:25:43.796Z</time></trkpt><trkpt lat="43.9319143" lon="10.7647965"><ele>597.0</ele><time>2026-04-06T13:25:44.804Z</time></trkpt><trkpt lat="43.9320009" lon="10.7646449"><ele>597.0</ele><time>2026-04-06T13:25:45.797Z</time></trkpt><trkpt lat="43.9320729" lon="10.7645519"><ele>597.0</ele><time>2026-04-06T13:25:46.801Z</time></trkpt><trkpt lat="43.9321405" lon="10.764462"><ele>597.0</ele><time>2026-04-06T13:25:47.802Z</time></trkpt><trkpt lat="43.9321829" lon="10.7643841"><ele>597.0</ele><time>2026-04-06T13:25:48.798Z</time></trkpt><trkpt lat="43.9322186" lon="10.7642846"><ele>597.0</ele><time>2026-04-06T13:25:49.797Z</time></trkpt><trkpt lat="43.9322359" lon="10.7641631"><ele>597.0</ele><time>2026-04-06T13:25:50.798Z</time></trkpt><trkpt lat="43.932217" lon="10.7639898"><ele>597.0</ele><time>2026-04-06T13:25:52.799Z</time></trkpt><trkpt lat="43.9321486" lon="10.7638554"><ele>600.6</ele><time>2026-04-06T13:25:53.796Z</time></trkpt><trkpt lat="43.932075" lon="10.7637408"><ele>604.2</ele><time>2026-04-06T13:25:54.802Z</time></trkpt><trkpt lat="43.9319974" lon="10.7636323"><ele>607.8</ele><time>2026-04-06T13:25:55.802Z</time></trkpt><trkpt lat="43.9319407" lon="10.7635421"><ele>611.4</ele><time>2026-04-06T13:25:56.796Z</time></trkpt><trkpt lat="43.9319005" lon="10.7634434"><ele>615.0</ele><time>2026-04-06T13:25:57.797Z</time></trkpt><trkpt lat="43.9318691" lon="10.7633239"><ele>617.3333333333334</ele><time>2026-04-06T13:25:58.796Z</time></trkpt><trkpt lat="43.9318576" lon="10.763219"><ele>619.6666666666666</ele><time>2026-04-06T13:25:59.799Z</time></trkpt><trkpt lat="43.9318706" lon="10.7630963"><ele>622.0</ele><time>2026-04-06T13:26:00.8Z</time></trkpt><trkpt lat="43.9318984" lon="10.7629926"><ele>624.3333333333333</ele><time>2026-04-06T13:26:01.802Z</time></trkpt><trkpt lat="43.9319395" lon="10.7628804"><ele>626.6666666666666</ele><time>2026-04-06T13:26:02.797Z</time></trkpt><trkpt lat="43.9319914" lon="10.7627993"><ele>629.0</ele><time>2026-04-06T13:26:03.802Z</time></trkpt><trkpt lat="43.9320803" lon="10.7627259"><ele>629.8</ele><time>2026-04-06T13:26:04.804Z</time></trkpt><trkpt lat="43.9321434" lon="10.7626396"><ele>630.5999999999999</ele><time>2026-04-06T13:26:05.802Z</time></trkpt><trkpt lat="43.9321918" lon="10.7625633"><ele>631.4</ele><time>2026-04-06T13:26:06.801Z</time></trkpt><trkpt lat="43.9322218" lon="10.7624819"><ele>632.1999999999999</ele><time>2026-04-06T13:26:07.797Z</time></trkpt><trkpt lat="43.9322637" lon="10.7623655"><ele>633.0</ele><time>2026-04-06T13:26:08.797Z</time></trkpt><trkpt lat="43.9322594" lon="10.7621781"><ele>633.0</ele><time>2026-04-06T13:26:10.794Z</time></trkpt><trkpt lat="43.9323121" lon="10.7619813"><ele>633.0</ele><time>2026-04-06T13:26:12.807Z</time></trkpt><trkpt lat="43.9323371" lon="10.7618984"><ele>633.0</ele><time>2026-04-06T13:26:13.796Z</time></trkpt><trkpt lat="43.9324289" lon="10.7617688"><ele>633.0</ele><time>2026-04-06T13:26:15.796Z</time></trkpt><trkpt lat="43.9325018" lon="10.7617233"><ele>633.0</ele><time>2026-04-06T13:26:16.81Z</time></trkpt><trkpt lat="43.9325782" lon="10.7616989"><ele>635.5</ele><time>2026-04-06T13:26:17.798Z</time></trkpt><trkpt lat="43.9327156" lon="10.7616806"><ele>638.0</ele><time>2026-04-06T13:26:18.795Z</time></trkpt><trkpt lat="43.9328023" lon="10.7616492"><ele>640.5</ele><time>2026-04-06T13:26:19.794Z</time></trkpt><trkpt lat="43.9329473" lon="10.7616036"><ele>643.0</ele><time>2026-04-06T13:26:20.793Z</time></trkpt><trkpt lat="43.9330839" lon="10.7616058"><ele>643.0</ele><time>2026-04-06T13:26:21.813Z</time></trkpt><trkpt lat="43.933194" lon="10.761609"><ele>643.0</ele><time>2026-04-06T13:26:22.804Z</time></trkpt><trkpt lat="43.9333159" lon="10.7616207"><ele>643.0</ele><time>2026-04-06T13:26:23.794Z</time></trkpt><trkpt lat="43.9334512" lon="10.7616321"><ele>643.0</ele><time>2026-04-06T13:26:24.798Z</time></trkpt><trkpt lat="43.9335782" lon="10.761648"><ele>642.75</ele><time>2026-04-06T13:26:25.797Z</time></trkpt><trkpt lat="43.933703" lon="10.7616826"><ele>642.5</ele><time>2026-04-06T13:26:26.799Z</time></trkpt><trkpt lat="43.9338241" lon="10.7617098"><ele>642.25</ele><time>2026-04-06T13:26:27.799Z</time></trkpt><trkpt lat="43.9339154" lon="10.7617773"><ele>642.0</ele><time>2026-04-06T13:26:28.796Z</time></trkpt><trkpt lat="43.9339993" lon="10.7618626"><ele>642.0</ele><time>2026-04-06T13:26:29.802Z</time></trkpt><trkpt lat="43.9340879" lon="10.7619328"><ele>642.0</ele><time>2026-04-06T13:26:30.795Z</time></trkpt><trkpt lat="43.9341635" lon="10.7619525"><ele>642.0</ele><time>2026-04-06T13:26:31.799Z</time></trkpt><trkpt lat="43.9342508" lon="10.7619684"><ele>642.0</ele><time>2026-04-06T13:26:32.794Z</time></trkpt><trkpt lat="43.9343335" lon="10.7619631"><ele>642.0</ele><time>2026-04-06T13:26:33.801Z</time></trkpt><trkpt lat="43.9344074" lon="10.761922"><ele>642.0</ele><time>2026-04-06T13:26:34.803Z</time></trkpt><trkpt lat="43.9344896" lon="10.7618863"><ele>644.25</ele><time>2026-04-06T13:26:35.798Z</time></trkpt><trkpt lat="43.9345864" lon="10.7618382"><ele>646.5</ele><time>2026-04-06T13:26:36.794Z</time></trkpt><trkpt lat="43.9346952" lon="10.7617385"><ele>648.75</ele><time>2026-04-06T13:26:37.797Z</time></trkpt><trkpt lat="43.9347999" lon="10.7616094"><ele>651.0</ele><time>2026-04-06T13:26:38.801Z</time></trkpt><trkpt lat="43.9349211" lon="10.7615044"><ele>651.0</ele><time>2026-04-06T13:26:39.798Z</time></trkpt><trkpt lat="43.9350342" lon="10.7613809"><ele>651.0</ele><time>2026-04-06T13:26:40.794Z</time></trkpt><trkpt lat="43.9351317" lon="10.7612886"><ele>651.0</ele><time>2026-04-06T13:26:41.798Z</time></trkpt><trkpt lat="43.9352177" lon="10.7611928"><ele>651.0</ele><time>2026-04-06T13:26:42.795Z</time></trkpt><trkpt lat="43.9353172" lon="10.76113"><ele>650.8333333333334</ele><time>2026-04-06T13:26:43.798Z</time></trkpt><trkpt lat="43.9354149" lon="10.7611338"><ele>650.6666666666666</ele><time>2026-04-06T13:26:44.795Z</time></trkpt><trkpt lat="43.9355293" lon="10.7611469"><ele>650.5</ele><time>2026-04-06T13:26:46.798Z</time></trkpt><trkpt lat="43.9355981" lon="10.7611286"><ele>650.3333333333333</ele><time>2026-04-06T13:26:47.799Z</time></trkpt><trkpt lat="43.9356659" lon="10.7610774"><ele>650.1666666666666</ele><time>2026-04-06T13:26:48.808Z</time></trkpt><trkpt lat="43.9357195" lon="10.7610251"><ele>650.0</ele><time>2026-04-06T13:26:49.798Z</time></trkpt><trkpt lat="43.9357632" lon="10.7609369"><ele>650.0</ele><time>2026-04-06T13:26:50.798Z</time></trkpt><trkpt lat="43.9357936" lon="10.7608443"><ele>650.0</ele><time>2026-04-06T13:26:51.799Z</time></trkpt><trkpt lat="43.9358042" lon="10.7607414"><ele>650.0</ele><time>2026-04-06T13:26:52.794Z</time></trkpt><trkpt lat="43.9357604" lon="10.7606304"><ele>650.0</ele><time>2026-04-06T13:26:53.797Z</time></trkpt><trkpt lat="43.9356919" lon="10.7605129"><ele>650.0</ele><time>2026-04-06T13:26:54.798Z</time></trkpt><trkpt lat="43.9356261" lon="10.7603907"><ele>650.0</ele><time>2026-04-06T13:26:55.796Z</time></trkpt><trkpt lat="43.9355689" lon="10.7602682"><ele>650.0</ele><time>2026-04-06T13:26:56.798Z</time></trkpt><trkpt lat="43.9355117" lon="10.760171"><ele>650.0</ele><time>2026-04-06T13:26:57.798Z</time></trkpt><trkpt lat="43.9354704" lon="10.760073"><ele>650.0</ele><time>2026-04-06T13:26:58.798Z</time></trkpt><trkpt lat="43.9354499" lon="10.7599703"><ele>650.0</ele><time>2026-04-06T13:26:59.799Z</time></trkpt><trkpt lat="43.9354497" lon="10.759866"><ele>650.0</ele><time>2026-04-06T13:27:00.8Z</time></trkpt><trkpt lat="43.9354801" lon="10.7597725"><ele>652.0</ele><time>2026-04-06T13:27:01.802Z</time></trkpt><trkpt lat="43.9355317" lon="10.7596805"><ele>654.0</ele><time>2026-04-06T13:27:02.798Z</time></trkpt><trkpt lat="43.9355988" lon="10.7596325"><ele>656.0</ele><time>2026-04-06T13:27:03.798Z</time></trkpt><trkpt lat="43.9356824" lon="10.7596189"><ele>658.0</ele><time>2026-04-06T13:27:04.798Z</time></trkpt><trkpt lat="43.935752" lon="10.7596184"><ele>660.0</ele><time>2026-04-06T13:27:05.794Z</time></trkpt><trkpt lat="43.9358342" lon="10.7596545"><ele>662.0</ele><time>2026-04-06T13:27:06.798Z</time></trkpt><trkpt lat="43.9358861" lon="10.7597748"><ele>659.1666666666666</ele><time>2026-04-06T13:27:07.796Z</time></trkpt><trkpt lat="43.9359499" lon="10.7598421"><ele>656.3333333333333</ele><time>2026-04-06T13:27:08.796Z</time></trkpt><trkpt lat="43.9360232" lon="10.7598783"><ele>653.5</ele><time>2026-04-06T13:27:09.801Z</time></trkpt><trkpt lat="43.9361039" lon="10.7598902"><ele>650.6666666666666</ele><time>2026-04-06T13:27:10.794Z</time></trkpt><trkpt lat="43.9361726" lon="10.7598942"><ele>647.8333333333334</ele><time>2026-04-06T13:27:11.801Z</time></trkpt><trkpt lat="43.9362325" lon="10.7598092"><ele>645.0</ele><time>2026-04-06T13:27:12.798Z</time></trkpt><trkpt lat="43.936291" lon="10.7597242"><ele>645.0</ele><time>2026-04-06T13:27:13.801Z</time></trkpt><trkpt lat="43.9363505" lon="10.7596111"><ele>645.0</ele><time>2026-04-06T13:27:14.795Z</time></trkpt><trkpt lat="43.9364128" lon="10.7594548"><ele>645.0</ele><time>2026-04-06T13:27:15.807Z</time></trkpt><trkpt lat="43.9364747" lon="10.7593138"><ele>645.0</ele><time>2026-04-06T13:27:16.798Z</time></trkpt><trkpt lat="43.9365085" lon="10.7591813"><ele>648.0</ele><time>2026-04-06T13:27:17.799Z</time></trkpt><trkpt lat="43.9365557" lon="10.7590738"><ele>651.0</ele><time>2026-04-06T13:27:18.794Z</time></trkpt><trkpt lat="43.936579" lon="10.7589762"><ele>654.0</ele><time>2026-04-06T13:27:19.795Z</time></trkpt><trkpt lat="43.9365907" lon="10.758885"><ele>657.0</ele><time>2026-04-06T13:27:20.795Z</time></trkpt><trkpt lat="43.9365693" lon="10.7587702"><ele>660.0</ele><time>2026-04-06T13:27:21.8Z</time></trkpt><trkpt lat="43.9364701" lon="10.7586094"><ele>663.0</ele><time>2026-04-06T13:27:22.797Z</time></trkpt><trkpt lat="43.9364086" lon="10.7584704"><ele>666.0</ele><time>2026-04-06T13:27:23.802Z</time></trkpt><trkpt lat="43.9363616" lon="10.7583259"><ele>669.0</ele><time>2026-04-06T13:27:24.798Z</time></trkpt><trkpt lat="43.9363523" lon="10.7581742"><ele>672.0</ele><time>2026-04-06T13:27:25.798Z</time></trkpt><trkpt lat="43.9363468" lon="10.7580471"><ele>675.0</ele><time>2026-04-06T13:27:26.799Z</time></trkpt><trkpt lat="43.9363711" lon="10.7578966"><ele>675.0</ele><time>2026-04-06T13:27:27.797Z</time></trkpt><trkpt lat="43.9364031" lon="10.7577659"><ele>675.0</ele><time>2026-04-06T13:27:28.797Z</time></trkpt><trkpt lat="43.9364337" lon="10.7576441"><ele>675.0</ele><time>2026-04-06T13:27:29.797Z</time></trkpt><trkpt lat="43.9364583" lon="10.7574919"><ele>675.0</ele><time>2026-04-06T13:27:30.796Z</time></trkpt><trkpt lat="43.936523" lon="10.7573532"><ele>675.0</ele><time>2026-04-06T13:27:31.796Z</time></trkpt><trkpt lat="43.9365841" lon="10.7572106"><ele>677.2</ele><time>2026-04-06T13:27:32.796Z</time></trkpt><trkpt lat="43.9366278" lon="10.7570799"><ele>679.4</ele><time>2026-04-06T13:27:33.8Z</time></trkpt><trkpt lat="43.9366721" lon="10.7569398"><ele>681.5999999999999</ele><time>2026-04-06T13:27:34.799Z</time></trkpt><trkpt lat="43.9367094" lon="10.7568183"><ele>683.8</ele><time>2026-04-06T13:27:35.795Z</time></trkpt><trkpt lat="43.9367308" lon="10.7567009"><ele>686.0</ele><time>2026-04-06T13:27:36.798Z</time></trkpt><trkpt lat="43.9367542" lon="10.756599"><ele>687.8333333333333</ele><time>2026-04-06T13:27:37.797Z</time></trkpt><trkpt lat="43.9367898" lon="10.7565175"><ele>689.6666666666666</ele><time>2026-04-06T13:27:38.8Z</time></trkpt><trkpt lat="43.9368304" lon="10.7564395"><ele>691.5</ele><time>2026-04-06T13:27:39.794Z</time></trkpt><trkpt lat="43.9369052" lon="10.7563983"><ele>693.3333333333334</ele><time>2026-04-06T13:27:40.801Z</time></trkpt><trkpt lat="43.9369854" lon="10.7563609"><ele>695.1666666666667</ele><time>2026-04-06T13:27:41.791Z</time></trkpt><trkpt lat="43.9370741" lon="10.756341"><ele>697.0</ele><time>2026-04-06T13:27:42.799Z</time></trkpt><trkpt lat="43.9371687" lon="10.7563371"><ele>697.0</ele><time>2026-04-06T13:27:43.802Z</time></trkpt><trkpt lat="43.9372841" lon="10.7563459"><ele>697.0</ele><time>2026-04-06T13:27:44.797Z</time></trkpt><trkpt lat="43.937394" lon="10.7563609"><ele>697.0</ele><time>2026-04-06T13:27:45.796Z</time></trkpt><trkpt lat="43.9374898" lon="10.7563799"><ele>697.0</ele><time>2026-04-06T13:27:46.8Z</time></trkpt><trkpt lat="43.9375705" lon="10.7563669"><ele>697.0</ele><time>2026-04-06T13:27:47.803Z</time></trkpt><trkpt lat="43.9376702" lon="10.7563944"><ele>697.4285714285714</ele><time>2026-04-06T13:27:48.797Z</time></trkpt><trkpt lat="43.9377573" lon="10.756401"><ele>697.8571428571429</ele><time>2026-04-06T13:27:49.798Z</time></trkpt><trkpt lat="43.9378204" lon="10.7563803"><ele>698.2857142857142</ele><time>2026-04-06T13:27:50.796Z</time></trkpt><trkpt lat="43.9378747" lon="10.7563298"><ele>698.7142857142858</ele><time>2026-04-06T13:27:51.796Z</time></trkpt><trkpt lat="43.9379103" lon="10.7562552"><ele>699.1428571428571</ele><time>2026-04-06T13:27:52.797Z</time></trkpt><trkpt lat="43.9379447" lon="10.7561598"><ele>699.5714285714286</ele><time>2026-04-06T13:27:53.806Z</time></trkpt><trkpt lat="43.9379675" lon="10.7560496"><ele>700.0</ele><time>2026-04-06T13:27:54.8Z</time></trkpt><trkpt lat="43.9379987" lon="10.7559314"><ele>700.6666666666667</ele><time>2026-04-06T13:27:55.795Z</time></trkpt><trkpt lat="43.9380284" lon="10.7558211"><ele>701.3333333333334</ele><time>2026-04-06T13:27:56.799Z</time></trkpt><trkpt lat="43.9380655" lon="10.7557088"><ele>702.0</ele><time>2026-04-06T13:27:57.801Z</time></trkpt><trkpt lat="43.9381133" lon="10.7556154"><ele>702.6666666666666</ele><time>2026-04-06T13:27:58.802Z</time></trkpt><trkpt lat="43.9381701" lon="10.7555493"><ele>703.3333333333333</ele><time>2026-04-06T13:27:59.795Z</time></trkpt><trkpt lat="43.9382439" lon="10.7555519"><ele>704.0</ele><time>2026-04-06T13:28:00.798Z</time></trkpt><trkpt lat="43.9383739" lon="10.7556047"><ele>704.0</ele><time>2026-04-06T13:28:02.794Z</time></trkpt><trkpt lat="43.938431" lon="10.7556953"><ele>704.0</ele><time>2026-04-06T13:28:03.801Z</time></trkpt><trkpt lat="43.9384792" lon="10.7558077"><ele>704.0</ele><time>2026-04-06T13:28:04.796Z</time></trkpt><trkpt lat="43.9385039" lon="10.7558953"><ele>704.0</ele><time>2026-04-06T13:28:05.797Z</time></trkpt><trkpt lat="43.9385291" lon="10.7560293"><ele>704.0</ele><time>2026-04-06T13:28:07.799Z</time></trkpt><trkpt lat="43.9385956" lon="10.7561632"><ele>704.0</ele><time>2026-04-06T13:28:09.795Z</time></trkpt><trkpt lat="43.9387168" lon="10.7562308"><ele>704.0</ele><time>2026-04-06T13:28:11.802Z</time></trkpt><trkpt lat="43.938811" lon="10.7561788"><ele>704.0</ele><time>2026-04-06T13:28:13.794Z</time></trkpt><trkpt lat="43.9388832" lon="10.7560508"><ele>704.0</ele><time>2026-04-06T13:28:15.801Z</time></trkpt><trkpt lat="43.938892" lon="10.755938"><ele>704.0</ele><time>2026-04-06T13:28:16.802Z</time></trkpt><trkpt lat="43.9388918" lon="10.7558231"><ele>706.8000000000001</ele><time>2026-04-06T13:28:17.806Z</time></trkpt><trkpt lat="43.938888" lon="10.7556928"><ele>709.6</ele><time>2026-04-06T13:28:18.802Z</time></trkpt><trkpt lat="43.938874" lon="10.7555255"><ele>712.4</ele><time>2026-04-06T13:28:19.796Z</time></trkpt><trkpt lat="43.9388472" lon="10.7553835"><ele>715.2</ele><time>2026-04-06T13:28:20.793Z</time></trkpt><trkpt lat="43.9388512" lon="10.7552141"><ele>718.0</ele><time>2026-04-06T13:28:21.798Z</time></trkpt><trkpt lat="43.9388416" lon="10.7550632"><ele>718.5</ele><time>2026-04-06T13:28:22.794Z</time></trkpt><trkpt lat="43.938854" lon="10.7549314"><ele>719.0</ele><time>2026-04-06T13:28:23.795Z</time></trkpt><trkpt lat="43.9388966" lon="10.7548353"><ele>719.5</ele><time>2026-04-06T13:28:24.8Z</time></trkpt><trkpt lat="43.9389256" lon="10.7547333"><ele>720.0</ele><time>2026-04-06T13:28:25.798Z</time></trkpt><trkpt lat="43.9389761" lon="10.7546323"><ele>720.5</ele><time>2026-04-06T13:28:26.797Z</time></trkpt><trkpt lat="43.9390484" lon="10.7545621"><ele>721.0</ele><time>2026-04-06T13:28:27.798Z</time></trkpt><trkpt lat="43.9391388" lon="10.7545205"><ele>721.0</ele><time>2026-04-06T13:28:28.798Z</time></trkpt><trkpt lat="43.9392028" lon="10.7544786"><ele>721.0</ele><time>2026-04-06T13:28:29.799Z</time></trkpt><trkpt lat="43.9393164" lon="10.7544423"><ele>721.0</ele><time>2026-04-06T13:28:30.801Z</time></trkpt><trkpt lat="43.9394011" lon="10.7543844"><ele>721.0</ele><time>2026-04-06T13:28:31.802Z</time></trkpt><trkpt lat="43.9395152" lon="10.7543357"><ele>721.0</ele><time>2026-04-06T13:28:32.798Z</time></trkpt><trkpt lat="43.9396228" lon="10.7542924"><ele>722.6666666666667</ele><time>2026-04-06T13:28:33.797Z</time></trkpt><trkpt lat="43.9397059" lon="10.7542573"><ele>724.3333333333334</ele><time>2026-04-06T13:28:34.798Z</time></trkpt><trkpt lat="43.9397922" lon="10.7542562"><ele>726.0</ele><time>2026-04-06T13:28:35.799Z</time></trkpt><trkpt lat="43.9398497" lon="10.7542995"><ele>727.6666666666666</ele><time>2026-04-06T13:28:36.795Z</time></trkpt><trkpt lat="43.9399381" lon="10.7543724"><ele>729.3333333333333</ele><time>2026-04-06T13:28:38.796Z</time></trkpt><trkpt lat="43.939957" lon="10.7545035"><ele>731.0</ele><time>2026-04-06T13:28:39.802Z</time></trkpt><trkpt lat="43.9399348" lon="10.7546058"><ele>731.4</ele><time>2026-04-06T13:28:40.794Z</time></trkpt><trkpt lat="43.9398966" lon="10.7546767"><ele>731.8</ele><time>2026-04-06T13:28:41.802Z</time></trkpt><trkpt lat="43.9398407" lon="10.7547466"><ele>732.1999999999999</ele><time>2026-04-06T13:28:42.797Z</time></trkpt><trkpt lat="43.9396662" lon="10.7547912"><ele>732.5999999999999</ele><time>2026-04-06T13:28:44.795Z</time></trkpt><trkpt lat="43.9396056" lon="10.7548293"><ele>733.0</ele><time>2026-04-06T13:28:45.794Z</time></trkpt><trkpt lat="43.9395463" lon="10.754893"><ele>733.0</ele><time>2026-04-06T13:28:46.796Z</time></trkpt><trkpt lat="43.9394959" lon="10.755031"><ele>733.0</ele><time>2026-04-06T13:28:48.798Z</time></trkpt><trkpt lat="43.9394776" lon="10.7551222"><ele>733.0</ele><time>2026-04-06T13:28:49.793Z</time></trkpt><trkpt lat="43.9395109" lon="10.7552945"><ele>733.0</ele><time>2026-04-06T13:28:51.798Z</time></trkpt><trkpt lat="43.9395624" lon="10.7553684"><ele>733.0</ele><time>2026-04-06T13:28:52.799Z</time></trkpt><trkpt lat="43.9396333" lon="10.7554289"><ele>734.25</ele><time>2026-04-06T13:28:54.804Z</time></trkpt><trkpt lat="43.9397098" lon="10.7555219"><ele>735.5</ele><time>2026-04-06T13:28:55.805Z</time></trkpt><trkpt lat="43.9397742" lon="10.7555256"><ele>736.75</ele><time>2026-04-06T13:28:56.8Z</time></trkpt><trkpt lat="43.9398917" lon="10.7553374"><ele>738.0</ele><time>2026-04-06T13:28:57.792Z</time></trkpt><trkpt lat="43.9401851" lon="10.7552613"><ele>739.25</ele><time>2026-04-06T13:28:58.793Z</time></trkpt><trkpt lat="43.940323" lon="10.7551914"><ele>740.5</ele><time>2026-04-06T13:28:59.794Z</time></trkpt><trkpt lat="43.9404576" lon="10.7551107"><ele>741.75</ele><time>2026-04-06T13:29:00.795Z</time></trkpt><trkpt lat="43.9405848" lon="10.755037"><ele>743.0</ele><time>2026-04-06T13:29:01.794Z</time></trkpt><trkpt lat="43.9407226" lon="10.7550038"><ele>743.0</ele><time>2026-04-06T13:29:02.794Z</time></trkpt><trkpt lat="43.9408255" lon="10.754994"><ele>743.0</ele><time>2026-04-06T13:29:03.794Z</time></trkpt><trkpt lat="43.9409262" lon="10.754989"><ele>743.0</ele><time>2026-04-06T13:29:04.792Z</time></trkpt><trkpt lat="43.94102" lon="10.7549976"><ele>743.0</ele><time>2026-04-06T13:29:05.793Z</time></trkpt><trkpt lat="43.9410643" lon="10.7550627"><ele>743.0</ele><time>2026-04-06T13:29:06.802Z</time></trkpt><trkpt lat="43.9411064" lon="10.7551411"><ele>743.0</ele><time>2026-04-06T13:29:07.8Z</time></trkpt><trkpt lat="43.9411238" lon="10.7552302"><ele>744.4</ele><time>2026-04-06T13:29:08.795Z</time></trkpt><trkpt lat="43.9411401" lon="10.7553332"><ele>745.8</ele><time>2026-04-06T13:29:09.797Z</time></trkpt><trkpt lat="43.9411295" lon="10.7554554"><ele>747.2</ele><time>2026-04-06T13:29:10.793Z</time></trkpt><trkpt lat="43.9411054" lon="10.7555739"><ele>748.6</ele><time>2026-04-06T13:29:11.793Z</time></trkpt><trkpt lat="43.9410546" lon="10.7557173"><ele>750.0</ele><time>2026-04-06T13:29:12.79Z</time></trkpt><trkpt lat="43.9410364" lon="10.7558355"><ele>750.0</ele><time>2026-04-06T13:29:13.792Z</time></trkpt><trkpt lat="43.9410152" lon="10.7559499"><ele>750.0</ele><time>2026-04-06T13:29:14.801Z</time></trkpt><trkpt lat="43.941082" lon="10.7560865"><ele>750.0</ele><time>2026-04-06T13:29:15.79Z</time></trkpt><trkpt lat="43.941127" lon="10.756192"><ele>750.0</ele><time>2026-04-06T13:29:16.8Z</time></trkpt><trkpt lat="43.9411668" lon="10.7562702"><ele>750.0</ele><time>2026-04-06T13:29:17.797Z</time></trkpt><trkpt lat="43.9412486" lon="10.7563046"><ele>750.0</ele><time>2026-04-06T13:29:19.795Z</time></trkpt><trkpt lat="43.9413278" lon="10.7563091"><ele>750.0</ele><time>2026-04-06T13:29:20.809Z</time></trkpt><trkpt lat="43.9414203" lon="10.7562594"><ele>750.0</ele><time>2026-04-06T13:29:21.79Z</time></trkpt><trkpt lat="43.9415037" lon="10.7561625"><ele>750.0</ele><time>2026-04-06T13:29:22.798Z</time></trkpt><trkpt lat="43.9416042" lon="10.7560778"><ele>750.0</ele><time>2026-04-06T13:29:23.788Z</time></trkpt><trkpt lat="43.9416657" lon="10.7560077"><ele>750.0</ele><time>2026-04-06T13:29:24.809Z</time></trkpt><trkpt lat="43.9417433" lon="10.7559163"><ele>750.8</ele><time>2026-04-06T13:29:25.794Z</time></trkpt><trkpt lat="43.9418413" lon="10.7558184"><ele>751.6</ele><time>2026-04-06T13:29:26.796Z</time></trkpt><trkpt lat="43.9419473" lon="10.7557362"><ele>752.4000000000001</ele><time>2026-04-06T13:29:27.787Z</time></trkpt><trkpt lat="43.9420304" lon="10.7556058"><ele>753.2</ele><time>2026-04-06T13:29:28.795Z</time></trkpt><trkpt lat="43.9420943" lon="10.755539"><ele>754.0</ele><time>2026-04-06T13:29:29.801Z</time></trkpt><trkpt lat="43.9421652" lon="10.7554855"><ele>754.0</ele><time>2026-04-06T13:29:30.795Z</time></trkpt><trkpt lat="43.9422562" lon="10.7554334"><ele>754.0</ele><time>2026-04-06T13:29:31.792Z</time></trkpt><trkpt lat="43.9423382" lon="10.7553962"><ele>754.0</ele><time>2026-04-06T13:29:32.789Z</time></trkpt><trkpt lat="43.942421" lon="10.7553822"><ele>754.0</ele><time>2026-04-06T13:29:33.797Z</time></trkpt><trkpt lat="43.9425299" lon="10.7554005"><ele>754.0</ele><time>2026-04-06T13:29:34.796Z</time></trkpt><trkpt lat="43.9426196" lon="10.7554438"><ele>755.8000000000001</ele><time>2026-04-06T13:29:35.797Z</time></trkpt><trkpt lat="43.9427007" lon="10.755493"><ele>757.6</ele><time>2026-04-06T13:29:36.794Z</time></trkpt><trkpt lat="43.9427956" lon="10.7555465"><ele>759.4</ele><time>2026-04-06T13:29:37.795Z</time></trkpt><trkpt lat="43.9428797" lon="10.7555887"><ele>761.2</ele><time>2026-04-06T13:29:38.796Z</time></trkpt><trkpt lat="43.9429607" lon="10.7556647"><ele>763.0</ele><time>2026-04-06T13:29:39.796Z</time></trkpt><trkpt lat="43.943045" lon="10.7557249"><ele>763.0</ele><time>2026-04-06T13:29:40.797Z</time></trkpt><trkpt lat="43.9431233" lon="10.7557709"><ele>763.0</ele><time>2026-04-06T13:29:41.797Z</time></trkpt><trkpt lat="43.9432423" lon="10.7558452"><ele>763.0</ele><time>2026-04-06T13:29:43.795Z</time></trkpt><trkpt lat="43.9433012" lon="10.7558807"><ele>763.0</ele><time>2026-04-06T13:29:44.795Z</time></trkpt><trkpt lat="43.9433567" lon="10.7559279"><ele>763.0</ele><time>2026-04-06T13:29:45.796Z</time></trkpt><trkpt lat="43.9434131" lon="10.7559784"><ele>763.0</ele><time>2026-04-06T13:29:46.796Z</time></trkpt><trkpt lat="43.94347" lon="10.7560327"><ele>763.4</ele><time>2026-04-06T13:29:47.794Z</time></trkpt><trkpt lat="43.9435224" lon="10.7561156"><ele>763.8</ele><time>2026-04-06T13:29:48.794Z</time></trkpt><trkpt lat="43.9435645" lon="10.7561962"><ele>764.2</ele><time>2026-04-06T13:29:49.795Z</time></trkpt><trkpt lat="43.9436368" lon="10.7563111"><ele>764.6</ele><time>2026-04-06T13:29:50.796Z</time></trkpt><trkpt lat="43.9437268" lon="10.7563902"><ele>765.0</ele><time>2026-04-06T13:29:51.8Z</time></trkpt><trkpt lat="43.943801" lon="10.7564951"><ele>765.0</ele><time>2026-04-06T13:29:52.801Z</time></trkpt><trkpt lat="43.9438554" lon="10.7565842"><ele>765.0</ele><time>2026-04-06T13:29:53.793Z</time></trkpt><trkpt lat="43.9439105" lon="10.7567043"><ele>765.0</ele><time>2026-04-06T13:29:54.794Z</time></trkpt><trkpt lat="43.9439723" lon="10.7568086"><ele>765.0</ele><time>2026-04-06T13:29:55.796Z</time></trkpt><trkpt lat="43.944048" lon="10.7569184"><ele>765.0</ele><time>2026-04-06T13:29:56.796Z</time></trkpt><trkpt lat="43.9441185" lon="10.7570266"><ele>765.4</ele><time>2026-04-06T13:29:57.798Z</time></trkpt><trkpt lat="43.9441695" lon="10.7571454"><ele>765.8</ele><time>2026-04-06T13:29:58.796Z</time></trkpt><trkpt lat="43.944211" lon="10.7572701"><ele>766.2</ele><time>2026-04-06T13:29:59.794Z</time></trkpt><trkpt lat="43.9442452" lon="10.7574185"><ele>766.6</ele><time>2026-04-06T13:30:00.802Z</time></trkpt><trkpt lat="43.9442579" lon="10.7575554"><ele>767.0</ele><time>2026-04-06T13:30:01.801Z</time></trkpt><trkpt lat="43.9442474" lon="10.757688"><ele>767.0</ele><time>2026-04-06T13:30:02.796Z</time></trkpt><trkpt lat="43.9442284" lon="10.7578127"><ele>767.0</ele><time>2026-04-06T13:30:03.797Z</time></trkpt><trkpt lat="43.9441802" lon="10.7579143"><ele>767.0</ele><time>2026-04-06T13:30:04.795Z</time></trkpt><trkpt lat="43.9441428" lon="10.7580161"><ele>767.0</ele><time>2026-04-06T13:30:05.795Z</time></trkpt><trkpt lat="43.9441234" lon="10.7581045"><ele>767.0</ele><time>2026-04-06T13:30:06.796Z</time></trkpt><trkpt lat="43.9441208" lon="10.7582005"><ele>767.0</ele><time>2026-04-06T13:30:07.796Z</time></trkpt><trkpt lat="43.9441721" lon="10.7583059"><ele>768.0</ele><time>2026-04-06T13:30:08.793Z</time></trkpt><trkpt lat="43.9442133" lon="10.7583945"><ele>769.0</ele><time>2026-04-06T13:30:09.795Z</time></trkpt><trkpt lat="43.9442787" lon="10.7585131"><ele>770.0</ele><time>2026-04-06T13:30:10.794Z</time></trkpt><trkpt lat="43.9443491" lon="10.7586301"><ele>771.0</ele><time>2026-04-06T13:30:11.796Z</time></trkpt><trkpt lat="43.9444142" lon="10.7587488"><ele>772.0</ele><time>2026-04-06T13:30:12.819Z</time></trkpt><trkpt lat="43.9444948" lon="10.7588337"><ele>772.0</ele><time>2026-04-06T13:30:13.794Z</time></trkpt><trkpt lat="43.9445565" lon="10.7588705"><ele>772.0</ele><time>2026-04-06T13:30:14.795Z</time></trkpt><trkpt lat="43.9446539" lon="10.7589631"><ele>772.0</ele><time>2026-04-06T13:30:15.795Z</time></trkpt><trkpt lat="43.9447707" lon="10.7590462"><ele>772.0</ele><time>2026-04-06T13:30:16.798Z</time></trkpt><trkpt lat="43.9448484" lon="10.7591115"><ele>772.0</ele><time>2026-04-06T13:30:17.796Z</time></trkpt><trkpt lat="43.9449137" lon="10.7591668"><ele>772.0</ele><time>2026-04-06T13:30:18.796Z</time></trkpt><trkpt lat="43.9450266" lon="10.7592354"><ele>772.0</ele><time>2026-04-06T13:30:19.795Z</time></trkpt><trkpt lat="43.9451401" lon="10.7592924"><ele>772.0</ele><time>2026-04-06T13:30:20.794Z</time></trkpt><trkpt lat="43.9452328" lon="10.7593425"><ele>772.0</ele><time>2026-04-06T13:30:21.797Z</time></trkpt><trkpt lat="43.9453331" lon="10.7593904"><ele>772.0</ele><time>2026-04-06T13:30:22.796Z</time></trkpt><trkpt lat="43.9454216" lon="10.7594065"><ele>771.0</ele><time>2026-04-06T13:30:23.79Z</time></trkpt><trkpt lat="43.9455488" lon="10.7593518"><ele>770.0</ele><time>2026-04-06T13:30:24.798Z</time></trkpt><trkpt lat="43.9456663" lon="10.7593191"><ele>769.0</ele><time>2026-04-06T13:30:25.796Z</time></trkpt><trkpt lat="43.9457855" lon="10.7592555"><ele>768.0</ele><time>2026-04-06T13:30:26.795Z</time></trkpt><trkpt lat="43.9459064" lon="10.7591911"><ele>765.0</ele><time>2026-04-06T13:30:27.798Z</time></trkpt><trkpt lat="43.9460354" lon="10.759128"><ele>762.0</ele><time>2026-04-06T13:30:28.795Z</time></trkpt><trkpt lat="43.9461655" lon="10.7590724"><ele>759.0</ele><time>2026-04-06T13:30:29.794Z</time></trkpt><trkpt lat="43.9462677" lon="10.759038"><ele>756.0</ele><time>2026-04-06T13:30:30.795Z</time></trkpt><trkpt lat="43.9463779" lon="10.7589812"><ele>756.0</ele><time>2026-04-06T13:30:31.798Z</time></trkpt><trkpt lat="43.9464622" lon="10.7589315"><ele>756.0</ele><time>2026-04-06T13:30:32.792Z</time></trkpt><trkpt lat="43.9465616" lon="10.7588835"><ele>756.0</ele><time>2026-04-06T13:30:33.794Z</time></trkpt><trkpt lat="43.9466582" lon="10.7588289"><ele>756.0</ele><time>2026-04-06T13:30:34.797Z</time></trkpt><trkpt lat="43.9467689" lon="10.7587669"><ele>756.0</ele><time>2026-04-06T13:30:35.798Z</time></trkpt><trkpt lat="43.9468624" lon="10.7586814"><ele>756.0</ele><time>2026-04-06T13:30:36.793Z</time></trkpt><trkpt lat="43.9469587" lon="10.7585928"><ele>756.0</ele><time>2026-04-06T13:30:37.796Z</time></trkpt><trkpt lat="43.9470618" lon="10.7585116"><ele>756.0</ele><time>2026-04-06T13:30:38.795Z</time></trkpt><trkpt lat="43.9471514" lon="10.7584275"><ele>756.0</ele><time>2026-04-06T13:30:39.797Z</time></trkpt><trkpt lat="43.9472334" lon="10.7583238"><ele>756.0</ele><time>2026-04-06T13:30:40.796Z</time></trkpt><trkpt lat="43.9473315" lon="10.7582528"><ele>756.0</ele><time>2026-04-06T13:30:41.795Z</time></trkpt><trkpt lat="43.9474493" lon="10.7581958"><ele>756.0</ele><time>2026-04-06T13:30:42.811Z</time></trkpt><trkpt lat="43.9475877" lon="10.7581693"><ele>756.0</ele><time>2026-04-06T13:30:43.795Z</time></trkpt><trkpt lat="43.9477075" lon="10.7581373"><ele>756.0</ele><time>2026-04-06T13:30:44.798Z</time></trkpt><trkpt lat="43.9478821" lon="10.758143"><ele>756.0</ele><time>2026-04-06T13:30:45.8Z</time></trkpt><trkpt lat="43.9480112" lon="10.7581161"><ele>756.0</ele><time>2026-04-06T13:30:46.806Z</time></trkpt><trkpt lat="43.9481501" lon="10.7581322"><ele>756.0</ele><time>2026-04-06T13:30:47.793Z</time></trkpt><trkpt lat="43.948264" lon="10.7581192"><ele>756.0</ele><time>2026-04-06T13:30:48.794Z</time></trkpt><trkpt lat="43.9483755" lon="10.7580934"><ele>756.0</ele><time>2026-04-06T13:30:49.795Z</time></trkpt><trkpt lat="43.9484907" lon="10.7580925"><ele>756.0</ele><time>2026-04-06T13:30:50.797Z</time></trkpt><trkpt lat="43.948672" lon="10.7580661"><ele>756.0</ele><time>2026-04-06T13:30:52.797Z</time></trkpt><trkpt lat="43.9487072" lon="10.7581633"><ele>756.1666666666666</ele><time>2026-04-06T13:30:54.797Z</time></trkpt><trkpt lat="43.9487661" lon="10.7582207"><ele>756.3333333333334</ele><time>2026-04-06T13:30:55.792Z</time></trkpt><trkpt lat="43.9488427" lon="10.7582383"><ele>756.5</ele><time>2026-04-06T13:30:56.793Z</time></trkpt><trkpt lat="43.9489061" lon="10.7583197"><ele>756.6666666666667</ele><time>2026-04-06T13:30:58.796Z</time></trkpt><trkpt lat="43.9489305" lon="10.7584024"><ele>756.8333333333334</ele><time>2026-04-06T13:30:59.797Z</time></trkpt><trkpt lat="43.9489411" lon="10.7585011"><ele>757.0</ele><time>2026-04-06T13:31:00.799Z</time></trkpt><trkpt lat="43.9489482" lon="10.7586407"><ele>756.2</ele><time>2026-04-06T13:31:01.794Z</time></trkpt><trkpt lat="43.9489402" lon="10.7587938"><ele>755.4000000000001</ele><time>2026-04-06T13:31:02.798Z</time></trkpt><trkpt lat="43.9489494" lon="10.7589251"><ele>754.5999999999999</ele><time>2026-04-06T13:31:03.789Z</time></trkpt><trkpt lat="43.9489751" lon="10.7590506"><ele>753.8</ele><time>2026-04-06T13:31:04.794Z</time></trkpt><trkpt lat="43.9490283" lon="10.7591983"><ele>753.0</ele><time>2026-04-06T13:31:05.798Z</time></trkpt><trkpt lat="43.9491636" lon="10.7593537"><ele>757.2</ele><time>2026-04-06T13:31:06.797Z</time></trkpt><trkpt lat="43.9493037" lon="10.7593993"><ele>761.4</ele><time>2026-04-06T13:31:07.81Z</time></trkpt><trkpt lat="43.9493432" lon="10.7595127"><ele>765.6</ele><time>2026-04-06T13:31:08.797Z</time></trkpt><trkpt lat="43.9493907" lon="10.7596066"><ele>769.8000000000001</ele><time>2026-04-06T13:31:09.799Z</time></trkpt><trkpt lat="43.9494464" lon="10.7597005"><ele>774.0</ele><time>2026-04-06T13:31:10.794Z</time></trkpt><trkpt lat="43.9494356" lon="10.7598159"><ele>774.0</ele><time>2026-04-06T13:31:11.803Z</time></trkpt><trkpt lat="43.9494121" lon="10.7599003"><ele>774.0</ele><time>2026-04-06T13:31:12.793Z</time></trkpt><trkpt lat="43.9493885" lon="10.7600028"><ele>774.0</ele><time>2026-04-06T13:31:13.794Z</time></trkpt><trkpt lat="43.9493906" lon="10.7601069"><ele>774.0</ele><time>2026-04-06T13:31:14.796Z</time></trkpt><trkpt lat="43.9493853" lon="10.7602164"><ele>774.0</ele><time>2026-04-06T13:31:15.798Z</time></trkpt><trkpt lat="43.9494907" lon="10.7602996"><ele>774.0</ele><time>2026-04-06T13:31:16.794Z</time></trkpt><trkpt lat="43.9495827" lon="10.7603571"><ele>773.8000000000001</ele><time>2026-04-06T13:31:17.797Z</time></trkpt><trkpt lat="43.9495942" lon="10.7604435"><ele>773.6</ele><time>2026-04-06T13:31:18.795Z</time></trkpt><trkpt lat="43.9496558" lon="10.760544"><ele>773.4</ele><time>2026-04-06T13:31:19.797Z</time></trkpt><trkpt lat="43.9497449" lon="10.7606702"><ele>773.2</ele><time>2026-04-06T13:31:20.798Z</time></trkpt><trkpt lat="43.9497164" lon="10.760796"><ele>773.0</ele><time>2026-04-06T13:31:21.797Z</time></trkpt><trkpt lat="43.9497402" lon="10.7609529"><ele>771.8</ele><time>2026-04-06T13:31:22.795Z</time></trkpt><trkpt lat="43.9497286" lon="10.7611042"><ele>770.5999999999999</ele><time>2026-04-06T13:31:23.8Z</time></trkpt><trkpt lat="43.9496819" lon="10.7612271"><ele>769.4000000000001</ele><time>2026-04-06T13:31:24.795Z</time></trkpt><trkpt lat="43.9496582" lon="10.7613462"><ele>768.2</ele><time>2026-04-06T13:31:25.79Z</time></trkpt><trkpt lat="43.949648" lon="10.761469"><ele>767.0</ele><time>2026-04-06T13:31:26.816Z</time></trkpt><trkpt lat="43.9496579" lon="10.7615651"><ele>767.0</ele><time>2026-04-06T13:31:27.791Z</time></trkpt><trkpt lat="43.9498721" lon="10.7617952"><ele>767.0</ele><time>2026-04-06T13:31:29.796Z</time></trkpt><trkpt lat="43.9500305" lon="10.7619394"><ele>771.25</ele><time>2026-04-06T13:31:30.793Z</time></trkpt><trkpt lat="43.9501141" lon="10.762114"><ele>775.5</ele><time>2026-04-06T13:31:31.795Z</time></trkpt><trkpt lat="43.9501815" lon="10.7622685"><ele>779.75</ele><time>2026-04-06T13:31:32.797Z</time></trkpt><trkpt lat="43.9501856" lon="10.7624293"><ele>784.0</ele><time>2026-04-06T13:31:33.794Z</time></trkpt><trkpt lat="43.9502018" lon="10.7626095"><ele>779.25</ele><time>2026-04-06T13:31:34.796Z</time></trkpt><trkpt lat="43.9502127" lon="10.7627609"><ele>774.5</ele><time>2026-04-06T13:31:35.795Z</time></trkpt><trkpt lat="43.9502546" lon="10.7629016"><ele>769.75</ele><time>2026-04-06T13:31:36.8Z</time></trkpt><trkpt lat="43.9503172" lon="10.7629945"><ele>765.0</ele><time>2026-04-06T13:31:37.794Z</time></trkpt><trkpt lat="43.9504473" lon="10.7630729"><ele>765.0</ele><time>2026-04-06T13:31:38.798Z</time></trkpt><trkpt lat="43.9505697" lon="10.7631383"><ele>765.0</ele><time>2026-04-06T13:31:39.791Z</time></trkpt><trkpt lat="43.9507658" lon="10.7631555"><ele>765.0</ele><time>2026-04-06T13:31:40.802Z</time></trkpt><trkpt lat="43.9509797" lon="10.7632176"><ele>765.6666666666666</ele><time>2026-04-06T13:31:41.79Z</time></trkpt><trkpt lat="43.9511509" lon="10.7632672"><ele>766.3333333333333</ele><time>2026-04-06T13:31:42.792Z</time></trkpt><trkpt lat="43.9513325" lon="10.7633058"><ele>767.0</ele><time>2026-04-06T13:31:43.791Z</time></trkpt><trkpt lat="43.9514884" lon="10.7633348"><ele>767.0</ele><time>2026-04-06T13:31:44.799Z</time></trkpt><trkpt lat="43.9516015" lon="10.7632937"><ele>767.0</ele><time>2026-04-06T13:31:45.792Z</time></trkpt><trkpt lat="43.9517159" lon="10.7631785"><ele>767.0</ele><time>2026-04-06T13:31:46.802Z</time></trkpt><trkpt lat="43.9518195" lon="10.7630364"><ele>767.0</ele><time>2026-04-06T13:31:47.797Z</time></trkpt><trkpt lat="43.951923" lon="10.76289"><ele>765.3333333333333</ele><time>2026-04-06T13:31:48.802Z</time></trkpt><trkpt lat="43.9520469" lon="10.7626639"><ele>763.6666666666666</ele><time>2026-04-06T13:31:49.795Z</time></trkpt><trkpt lat="43.952161" lon="10.7625111"><ele>762.0</ele><time>2026-04-06T13:31:50.804Z</time></trkpt><trkpt lat="43.9522664" lon="10.7623633"><ele>762.0</ele><time>2026-04-06T13:31:51.791Z</time></trkpt><trkpt lat="43.9524131" lon="10.7622765"><ele>762.0</ele><time>2026-04-06T13:31:52.794Z</time></trkpt><trkpt lat="43.9524985" lon="10.7621904"><ele>762.0</ele><time>2026-04-06T13:31:53.792Z</time></trkpt><trkpt lat="43.9525647" lon="10.7621001"><ele>762.0</ele><time>2026-04-06T13:31:54.792Z</time></trkpt><trkpt lat="43.9526161" lon="10.7619158"><ele>765.0</ele><time>2026-04-06T13:31:55.804Z</time></trkpt><trkpt lat="43.9526253" lon="10.761744"><ele>768.0</ele><time>2026-04-06T13:31:56.796Z</time></trkpt><trkpt lat="43.9525781" lon="10.7615469"><ele>771.0</ele><time>2026-04-06T13:31:57.802Z</time></trkpt><trkpt lat="43.9525241" lon="10.7613316"><ele>774.0</ele><time>2026-04-06T13:31:58.795Z</time></trkpt><trkpt lat="43.9525774" lon="10.7611478"><ele>774.0</ele><time>2026-04-06T13:32:00.801Z</time></trkpt><trkpt lat="43.9525898" lon="10.7610475"><ele>774.0</ele><time>2026-04-06T13:32:01.8Z</time></trkpt><trkpt lat="43.9526139" lon="10.7609343"><ele>774.0</ele><time>2026-04-06T13:32:03.8Z</time></trkpt><trkpt lat="43.9527487" lon="10.7609638"><ele>774.0</ele><time>2026-04-06T13:32:06.797Z</time></trkpt><trkpt lat="43.9528061" lon="10.7610172"><ele>774.0</ele><time>2026-04-06T13:32:07.795Z</time></trkpt><trkpt lat="43.9529277" lon="10.7610986"><ele>774.0</ele><time>2026-04-06T13:32:08.793Z</time></trkpt><trkpt lat="43.953148" lon="10.7612213"><ele>774.0</ele><time>2026-04-06T13:32:09.794Z</time></trkpt><trkpt lat="43.9533373" lon="10.7613249"><ele>774.0</ele><time>2026-04-06T13:32:10.8Z</time></trkpt><trkpt lat="43.9534643" lon="10.7613492"><ele>773.0</ele><time>2026-04-06T13:32:11.792Z</time></trkpt><trkpt lat="43.95356" lon="10.7613419"><ele>772.0</ele><time>2026-04-06T13:32:12.802Z</time></trkpt><trkpt lat="43.9536377" lon="10.761304"><ele>771.0</ele><time>2026-04-06T13:32:13.8Z</time></trkpt><trkpt lat="43.9537263" lon="10.7612531"><ele>770.0</ele><time>2026-04-06T13:32:14.797Z</time></trkpt><trkpt lat="43.9537774" lon="10.7611629"><ele>769.0</ele><time>2026-04-06T13:32:15.793Z</time></trkpt><trkpt lat="43.953824" lon="10.7610152"><ele>773.0</ele><time>2026-04-06T13:32:16.794Z</time></trkpt><trkpt lat="43.9539026" lon="10.760937"><ele>777.0</ele><time>2026-04-06T13:32:17.794Z</time></trkpt><trkpt lat="43.9539848" lon="10.760835"><ele>781.0</ele><time>2026-04-06T13:32:18.794Z</time></trkpt><trkpt lat="43.9541202" lon="10.7607805"><ele>785.0</ele><time>2026-04-06T13:32:19.801Z</time></trkpt><trkpt lat="43.9542181" lon="10.7607118"><ele>785.0</ele><time>2026-04-06T13:32:20.793Z</time></trkpt><trkpt lat="43.9543118" lon="10.7606432"><ele>785.0</ele><time>2026-04-06T13:32:21.794Z</time></trkpt><trkpt lat="43.954447" lon="10.760589"><ele>785.0</ele><time>2026-04-06T13:32:22.796Z</time></trkpt><trkpt lat="43.9545501" lon="10.7605232"><ele>785.0</ele><time>2026-04-06T13:32:23.794Z</time></trkpt><trkpt lat="43.9546381" lon="10.7605076"><ele>785.0</ele><time>2026-04-06T13:32:24.802Z</time></trkpt><trkpt lat="43.9547219" lon="10.7604844"><ele>785.0</ele><time>2026-04-06T13:32:25.795Z</time></trkpt><trkpt lat="43.9548132" lon="10.7604854"><ele>785.0</ele><time>2026-04-06T13:32:26.798Z</time></trkpt><trkpt lat="43.9549204" lon="10.7605045"><ele>785.0</ele><time>2026-04-06T13:32:27.793Z</time></trkpt><trkpt lat="43.9550371" lon="10.76053"><ele>785.0</ele><time>2026-04-06T13:32:28.8Z</time></trkpt><trkpt lat="43.9551579" lon="10.7605443"><ele>785.0</ele><time>2026-04-06T13:32:29.796Z</time></trkpt><trkpt lat="43.9552741" lon="10.7605533"><ele>784.8</ele><time>2026-04-06T13:32:30.797Z</time></trkpt><trkpt lat="43.955383" lon="10.7605628"><ele>784.6</ele><time>2026-04-06T13:32:31.796Z</time></trkpt><trkpt lat="43.9554867" lon="10.7605777"><ele>784.4000000000001</ele><time>2026-04-06T13:32:32.795Z</time></trkpt><trkpt lat="43.9555984" lon="10.760605"><ele>784.2</ele><time>2026-04-06T13:32:33.802Z</time></trkpt><trkpt lat="43.9557052" lon="10.7606413"><ele>784.0</ele><time>2026-04-06T13:32:34.795Z</time></trkpt><trkpt lat="43.9558204" lon="10.7606554"><ele>783.0</ele><time>2026-04-06T13:32:35.802Z</time></trkpt><trkpt lat="43.9559268" lon="10.7606778"><ele>782.0</ele><time>2026-04-06T13:32:36.796Z</time></trkpt><trkpt lat="43.9560405" lon="10.7606761"><ele>781.0</ele><time>2026-04-06T13:32:37.793Z</time></trkpt><trkpt lat="43.956178" lon="10.7606965"><ele>780.0</ele><time>2026-04-06T13:32:38.795Z</time></trkpt><trkpt lat="43.9563021" lon="10.7607163"><ele>780.0</ele><time>2026-04-06T13:32:39.797Z</time></trkpt><trkpt lat="43.956433" lon="10.760741"><ele>780.0</ele><time>2026-04-06T13:32:40.797Z</time></trkpt><trkpt lat="43.9565505" lon="10.7607659"><ele>780.0</ele><time>2026-04-06T13:32:41.795Z</time></trkpt><trkpt lat="43.9566683" lon="10.7607984"><ele>780.0</ele><time>2026-04-06T13:32:42.798Z</time></trkpt><trkpt lat="43.9567679" lon="10.7608201"><ele>779.2</ele><time>2026-04-06T13:32:43.792Z</time></trkpt><trkpt lat="43.9568782" lon="10.7608352"><ele>778.4</ele><time>2026-04-06T13:32:44.796Z</time></trkpt><trkpt lat="43.9569693" lon="10.760853"><ele>777.5999999999999</ele><time>2026-04-06T13:32:45.798Z</time></trkpt><trkpt lat="43.9570717" lon="10.7608416"><ele>776.8</ele><time>2026-04-06T13:32:46.793Z</time></trkpt><trkpt lat="43.9571664" lon="10.7608249"><ele>776.0</ele><time>2026-04-06T13:32:47.8Z</time></trkpt><trkpt lat="43.9572634" lon="10.7608075"><ele>776.0000000000001</ele><time>2026-04-06T13:32:48.795Z</time></trkpt><trkpt lat="43.9573481" lon="10.7607665"><ele>776.0</ele><time>2026-04-06T13:32:49.795Z</time></trkpt><trkpt lat="43.9574264" lon="10.7607104"><ele>776.0</ele><time>2026-04-06T13:32:50.794Z</time></trkpt><trkpt lat="43.9575045" lon="10.7606674"><ele>776.0</ele><time>2026-04-06T13:32:51.8Z</time></trkpt><trkpt lat="43.9575901" lon="10.760626"><ele>776.0000000000001</ele><time>2026-04-06T13:32:52.797Z</time></trkpt><trkpt lat="43.9576777" lon="10.7605682"><ele>776.0</ele><time>2026-04-06T13:32:53.803Z</time></trkpt><trkpt lat="43.9577696" lon="10.760527"><ele>777.0</ele><time>2026-04-06T13:32:54.788Z</time></trkpt><trkpt lat="43.957864" lon="10.7604779"><ele>778.0</ele><time>2026-04-06T13:32:55.795Z</time></trkpt><trkpt lat="43.9579562" lon="10.7604442"><ele>779.0</ele><time>2026-04-06T13:32:56.793Z</time></trkpt><trkpt lat="43.9580452" lon="10.7604291"><ele>780.0</ele><time>2026-04-06T13:32:57.796Z</time></trkpt><trkpt lat="43.9581184" lon="10.7604494"><ele>781.0</ele><time>2026-04-06T13:32:58.799Z</time></trkpt><trkpt lat="43.9582077" lon="10.7604862"><ele>780.9999999999999</ele><time>2026-04-06T13:32:59.8Z</time></trkpt><trkpt lat="43.9582705" lon="10.7605321"><ele>781.0</ele><time>2026-04-06T13:33:00.797Z</time></trkpt><trkpt lat="43.958328" lon="10.7605997"><ele>781.0</ele><time>2026-04-06T13:33:01.8Z</time></trkpt><trkpt lat="43.9583883" lon="10.7606721"><ele>781.0</ele><time>2026-04-06T13:33:02.792Z</time></trkpt><trkpt lat="43.9584477" lon="10.7607566"><ele>780.9999999999999</ele><time>2026-04-06T13:33:03.8Z</time></trkpt><trkpt lat="43.9585062" lon="10.7608713"><ele>781.0</ele><time>2026-04-06T13:33:04.792Z</time></trkpt><trkpt lat="43.9585575" lon="10.7609717"><ele>783.25</ele><time>2026-04-06T13:33:05.799Z</time></trkpt><trkpt lat="43.958629" lon="10.7610593"><ele>785.5</ele><time>2026-04-06T13:33:06.794Z</time></trkpt><trkpt lat="43.9586924" lon="10.7611567"><ele>787.75</ele><time>2026-04-06T13:33:07.801Z</time></trkpt><trkpt lat="43.9587827" lon="10.761291"><ele>790.0</ele><time>2026-04-06T13:33:08.798Z</time></trkpt><trkpt lat="43.9588775" lon="10.7614344"><ele>790.0</ele><time>2026-04-06T13:33:09.796Z</time></trkpt><trkpt lat="43.9589693" lon="10.761571"><ele>790.0</ele><time>2026-04-06T13:33:10.795Z</time></trkpt><trkpt lat="43.9590291" lon="10.7617008"><ele>790.0</ele><time>2026-04-06T13:33:11.797Z</time></trkpt><trkpt lat="43.9590259" lon="10.7618243"><ele>790.0</ele><time>2026-04-06T13:33:12.793Z</time></trkpt><trkpt lat="43.9590557" lon="10.7619315"><ele>790.0</ele><time>2026-04-06T13:33:13.792Z</time></trkpt><trkpt lat="43.959053" lon="10.7620428"><ele>790.0</ele><time>2026-04-06T13:33:14.796Z</time></trkpt><trkpt lat="43.9590398" lon="10.7621651"><ele>790.0</ele><time>2026-04-06T13:33:15.817Z</time></trkpt><trkpt lat="43.9590444" lon="10.7622698"><ele>790.0</ele><time>2026-04-06T13:33:16.792Z</time></trkpt><trkpt lat="43.9590021" lon="10.7623639"><ele>790.0</ele><time>2026-04-06T13:33:17.796Z</time></trkpt><trkpt lat="43.9589199" lon="10.7625188"><ele>790.0</ele><time>2026-04-06T13:33:18.795Z</time></trkpt><trkpt lat="43.958894" lon="10.7626821"><ele>791.4</ele><time>2026-04-06T13:33:19.791Z</time></trkpt><trkpt lat="43.9588812" lon="10.7628234"><ele>792.8</ele><time>2026-04-06T13:33:20.793Z</time></trkpt><trkpt lat="43.9589091" lon="10.7629833"><ele>794.2</ele><time>2026-04-06T13:33:21.799Z</time></trkpt><trkpt lat="43.9589181" lon="10.7631356"><ele>795.6</ele><time>2026-04-06T13:33:22.798Z</time></trkpt><trkpt lat="43.958921" lon="10.7632812"><ele>797.0</ele><time>2026-04-06T13:33:23.791Z</time></trkpt><trkpt lat="43.9589397" lon="10.7634242"><ele>797.8</ele><time>2026-04-06T13:33:24.799Z</time></trkpt><trkpt lat="43.9589526" lon="10.7635574"><ele>798.6</ele><time>2026-04-06T13:33:25.814Z</time></trkpt><trkpt lat="43.9589563" lon="10.7637196"><ele>799.4</ele><time>2026-04-06T13:33:26.788Z</time></trkpt><trkpt lat="43.9589623" lon="10.7638843"><ele>800.1999999999999</ele><time>2026-04-06T13:33:27.795Z</time></trkpt><trkpt lat="43.9589811" lon="10.7640346"><ele>801.0</ele><time>2026-04-06T13:33:28.791Z</time></trkpt><trkpt lat="43.9589873" lon="10.7641674"><ele>801.0</ele><time>2026-04-06T13:33:29.793Z</time></trkpt><trkpt lat="43.9590135" lon="10.7642986"><ele>801.0</ele><time>2026-04-06T13:33:30.793Z</time></trkpt><trkpt lat="43.959003" lon="10.7644221"><ele>801.0</ele><time>2026-04-06T13:33:31.798Z</time></trkpt><trkpt lat="43.9589879" lon="10.764522"><ele>801.0</ele><time>2026-04-06T13:33:32.799Z</time></trkpt><trkpt lat="43.9589805" lon="10.7646234"><ele>801.0</ele><time>2026-04-06T13:33:33.797Z</time></trkpt><trkpt lat="43.9589467" lon="10.7647257"><ele>801.0</ele><time>2026-04-06T13:33:34.798Z</time></trkpt><trkpt lat="43.9589326" lon="10.7648306"><ele>800.4285714285714</ele><time>2026-04-06T13:33:35.794Z</time></trkpt><trkpt lat="43.9589181" lon="10.7649309"><ele>799.8571428571429</ele><time>2026-04-06T13:33:36.801Z</time></trkpt><trkpt lat="43.9589076" lon="10.7650248"><ele>799.2857142857142</ele><time>2026-04-06T13:33:37.794Z</time></trkpt><trkpt lat="43.9588944" lon="10.7651161"><ele>798.7142857142858</ele><time>2026-04-06T13:33:38.793Z</time></trkpt><trkpt lat="43.9588701" lon="10.7651969"><ele>798.1428571428572</ele><time>2026-04-06T13:33:39.792Z</time></trkpt><trkpt lat="43.9588444" lon="10.7652821"><ele>797.5714285714286</ele><time>2026-04-06T13:33:40.796Z</time></trkpt><trkpt lat="43.9587998" lon="10.7653527"><ele>797.0</ele><time>2026-04-06T13:33:41.802Z</time></trkpt><trkpt lat="43.9587681" lon="10.7654336"><ele>795.3333333333334</ele><time>2026-04-06T13:33:42.799Z</time></trkpt><trkpt lat="43.958727" lon="10.7655062"><ele>793.6666666666667</ele><time>2026-04-06T13:33:43.794Z</time></trkpt><trkpt lat="43.9586938" lon="10.7655813"><ele>792.0</ele><time>2026-04-06T13:33:44.79Z</time></trkpt><trkpt lat="43.9586555" lon="10.7656686"><ele>790.3333333333333</ele><time>2026-04-06T13:33:45.806Z</time></trkpt><trkpt lat="43.9585976" lon="10.7657507"><ele>788.6666666666666</ele><time>2026-04-06T13:33:46.795Z</time></trkpt><trkpt lat="43.958535" lon="10.7658543"><ele>787.0</ele><time>2026-04-06T13:33:47.792Z</time></trkpt><trkpt lat="43.9584781" lon="10.7659405"><ele>787.0</ele><time>2026-04-06T13:33:48.791Z</time></trkpt><trkpt lat="43.9584123" lon="10.7660181"><ele>787.0</ele><time>2026-04-06T13:33:49.796Z</time></trkpt><trkpt lat="43.958351" lon="10.7661766"><ele>787.0</ele><time>2026-04-06T13:33:51.801Z</time></trkpt><trkpt lat="43.95829" lon="10.7662383"><ele>787.0</ele><time>2026-04-06T13:33:52.793Z</time></trkpt><trkpt lat="43.9582538" lon="10.7663351"><ele>787.0</ele><time>2026-04-06T13:33:56.81Z</time></trkpt><trkpt lat="43.9582186" lon="10.7664646"><ele>789.1666666666666</ele><time>2026-04-06T13:34:23.793Z</time></trkpt><trkpt lat="43.9581771" lon="10.7665865"><ele>791.3333333333333</ele><time>2026-04-06T13:34:24.8Z</time></trkpt><trkpt lat="43.9581642" lon="10.7667079"><ele>793.5</ele><time>2026-04-06T13:34:25.797Z</time></trkpt><trkpt lat="43.9581536" lon="10.7668155"><ele>795.6666666666667</ele><time>2026-04-06T13:34:26.795Z</time></trkpt><trkpt lat="43.9581194" lon="10.7669359"><ele>797.8333333333334</ele><time>2026-04-06T13:34:27.794Z</time></trkpt><trkpt lat="43.9581039" lon="10.7670625"><ele>800.0</ele><time>2026-04-06T13:34:28.792Z</time></trkpt><trkpt lat="43.9580774" lon="10.7671862"><ele>800.8</ele><time>2026-04-06T13:34:29.798Z</time></trkpt><trkpt lat="43.9580535" lon="10.7673144"><ele>801.6</ele><time>2026-04-06T13:34:30.803Z</time></trkpt><trkpt lat="43.9580247" lon="10.7674344"><ele>802.4000000000001</ele><time>2026-04-06T13:34:31.792Z</time></trkpt><trkpt lat="43.9579912" lon="10.7675622"><ele>803.2</ele><time>2026-04-06T13:34:32.798Z</time></trkpt><trkpt lat="43.9579485" lon="10.7677186"><ele>804.0</ele><time>2026-04-06T13:34:33.801Z</time></trkpt><trkpt lat="43.9579093" lon="10.7678586"><ele>807.2</ele><time>2026-04-06T13:34:34.803Z</time></trkpt><trkpt lat="43.9578846" lon="10.767999"><ele>810.4000000000001</ele><time>2026-04-06T13:34:35.8Z</time></trkpt><trkpt lat="43.9578488" lon="10.7681121"><ele>813.6</ele><time>2026-04-06T13:34:36.797Z</time></trkpt><trkpt lat="43.9578203" lon="10.7682251"><ele>816.8</ele><time>2026-04-06T13:34:37.794Z</time></trkpt><trkpt lat="43.95781" lon="10.7683486"><ele>820.0</ele><time>2026-04-06T13:34:38.799Z</time></trkpt><trkpt lat="43.9577795" lon="10.7684704"><ele>822.6</ele><time>2026-04-06T13:34:39.795Z</time></trkpt><trkpt lat="43.9577502" lon="10.7686015"><ele>825.2</ele><time>2026-04-06T13:34:40.799Z</time></trkpt><trkpt lat="43.9577042" lon="10.7687725"><ele>827.8</ele><time>2026-04-06T13:34:41.792Z</time></trkpt><trkpt lat="43.9576642" lon="10.7689046"><ele>830.4</ele><time>2026-04-06T13:34:42.795Z</time></trkpt><trkpt lat="43.9576431" lon="10.7690169"><ele>833.0</ele><time>2026-04-06T13:34:43.8Z</time></trkpt><trkpt lat="43.9575862" lon="10.7691406"><ele>830.5</ele><time>2026-04-06T13:34:44.801Z</time></trkpt><trkpt lat="43.9574916" lon="10.7692779"><ele>828.0</ele><time>2026-04-06T13:34:45.804Z</time></trkpt><trkpt lat="43.9574355" lon="10.7693879"><ele>825.5</ele><time>2026-04-06T13:34:46.796Z</time></trkpt><trkpt lat="43.9573603" lon="10.7695139"><ele>823.0</ele><time>2026-04-06T13:34:47.79Z</time></trkpt><trkpt lat="43.9572875" lon="10.769618"><ele>823.0</ele><time>2026-04-06T13:34:48.792Z</time></trkpt><trkpt lat="43.957214" lon="10.7697056"><ele>823.0</ele><time>2026-04-06T13:34:49.799Z</time></trkpt><trkpt lat="43.9571686" lon="10.7698333"><ele>823.0</ele><time>2026-04-06T13:34:50.793Z</time></trkpt><trkpt lat="43.9571606" lon="10.7699583"><ele>823.0</ele><time>2026-04-06T13:34:51.797Z</time></trkpt><trkpt lat="43.9572224" lon="10.770083"><ele>823.0</ele><time>2026-04-06T13:34:52.794Z</time></trkpt><trkpt lat="43.9573561" lon="10.7702856"><ele>821.5</ele><time>2026-04-06T13:34:53.789Z</time></trkpt><trkpt lat="43.9574304" lon="10.7704643"><ele>820.0</ele><time>2026-04-06T13:34:54.795Z</time></trkpt><trkpt lat="43.9574657" lon="10.7706012"><ele>818.5</ele><time>2026-04-06T13:34:55.79Z</time></trkpt><trkpt lat="43.9575257" lon="10.7707321"><ele>817.0</ele><time>2026-04-06T13:34:56.791Z</time></trkpt><trkpt lat="43.9576168" lon="10.7708613"><ele>819.0</ele><time>2026-04-06T13:34:57.793Z</time></trkpt><trkpt lat="43.9576884" lon="10.7709683"><ele>821.0</ele><time>2026-04-06T13:34:58.793Z</time></trkpt><trkpt lat="43.95778" lon="10.7710831"><ele>823.0</ele><time>2026-04-06T13:34:59.8Z</time></trkpt><trkpt lat="43.9578733" lon="10.7711666"><ele>825.0</ele><time>2026-04-06T13:35:00.796Z</time></trkpt><trkpt lat="43.9579796" lon="10.7712191"><ele>825.0</ele><time>2026-04-06T13:35:01.793Z</time></trkpt><trkpt lat="43.9580647" lon="10.7712741"><ele>825.0</ele><time>2026-04-06T13:35:02.799Z</time></trkpt><trkpt lat="43.9581483" lon="10.7713229"><ele>825.0</ele><time>2026-04-06T13:35:03.798Z</time></trkpt><trkpt lat="43.9582718" lon="10.7713852"><ele>825.0</ele><time>2026-04-06T13:35:04.792Z</time></trkpt><trkpt lat="43.958358" lon="10.7714508"><ele>825.0</ele><time>2026-04-06T13:35:05.794Z</time></trkpt><trkpt lat="43.9584463" lon="10.7715352"><ele>824.75</ele><time>2026-04-06T13:35:06.798Z</time></trkpt><trkpt lat="43.9585349" lon="10.7716421"><ele>824.5</ele><time>2026-04-06T13:35:07.792Z</time></trkpt><trkpt lat="43.9585978" lon="10.7718327"><ele>824.25</ele><time>2026-04-06T13:35:08.797Z</time></trkpt><trkpt lat="43.9586702" lon="10.7719358"><ele>824.0</ele><time>2026-04-06T13:35:09.794Z</time></trkpt><trkpt lat="43.9588081" lon="10.7720444"><ele>826.0</ele><time>2026-04-06T13:35:10.792Z</time></trkpt><trkpt lat="43.9589321" lon="10.7721738"><ele>828.0</ele><time>2026-04-06T13:35:11.787Z</time></trkpt><trkpt lat="43.9590259" lon="10.772242"><ele>830.0</ele><time>2026-04-06T13:35:12.795Z</time></trkpt><trkpt lat="43.9591405" lon="10.7722655"><ele>832.0</ele><time>2026-04-06T13:35:13.8Z</time></trkpt><trkpt lat="43.9592539" lon="10.7722366"><ele>828.2</ele><time>2026-04-06T13:35:14.795Z</time></trkpt><trkpt lat="43.9593582" lon="10.7722284"><ele>824.4000000000001</ele><time>2026-04-06T13:35:15.795Z</time></trkpt><trkpt lat="43.9594396" lon="10.7722358"><ele>820.5999999999999</ele><time>2026-04-06T13:35:16.801Z</time></trkpt><trkpt lat="43.9595525" lon="10.7723161"><ele>816.8</ele><time>2026-04-06T13:35:17.797Z</time></trkpt><trkpt lat="43.9596108" lon="10.7723693"><ele>813.0</ele><time>2026-04-06T13:35:18.795Z</time></trkpt><trkpt lat="43.9597132" lon="10.7725343"><ele>814.0</ele><time>2026-04-06T13:35:20.803Z</time></trkpt><trkpt lat="43.9596954" lon="10.7727443"><ele>815.0</ele><time>2026-04-06T13:35:21.799Z</time></trkpt><trkpt lat="43.9596953" lon="10.772897"><ele>816.0</ele><time>2026-04-06T13:35:22.797Z</time></trkpt><trkpt lat="43.9597046" lon="10.7730307"><ele>817.0</ele><time>2026-04-06T13:35:23.8Z</time></trkpt><trkpt lat="43.9597256" lon="10.7731626"><ele>817.0</ele><time>2026-04-06T13:35:24.8Z</time></trkpt><trkpt lat="43.95973" lon="10.7733012"><ele>817.0</ele><time>2026-04-06T13:35:25.792Z</time></trkpt><trkpt lat="43.9597142" lon="10.7734256"><ele>817.0</ele><time>2026-04-06T13:35:26.799Z</time></trkpt><trkpt lat="43.9596834" lon="10.7735657"><ele>817.0</ele><time>2026-04-06T13:35:27.797Z</time></trkpt><trkpt lat="43.9596594" lon="10.7737217"><ele>817.0</ele><time>2026-04-06T13:35:28.795Z</time></trkpt><trkpt lat="43.9596283" lon="10.7738563"><ele>817.6666666666666</ele><time>2026-04-06T13:35:29.802Z</time></trkpt><trkpt lat="43.9595921" lon="10.7739962"><ele>818.3333333333333</ele><time>2026-04-06T13:35:30.798Z</time></trkpt><trkpt lat="43.9595783" lon="10.7741106"><ele>819.0</ele><time>2026-04-06T13:35:31.801Z</time></trkpt><trkpt lat="43.9595802" lon="10.7742321"><ele>819.6666666666667</ele><time>2026-04-06T13:35:32.795Z</time></trkpt><trkpt lat="43.9595871" lon="10.774327"><ele>820.3333333333334</ele><time>2026-04-06T13:35:33.801Z</time></trkpt><trkpt lat="43.959606" lon="10.7744182"><ele>821.0</ele><time>2026-04-06T13:35:34.795Z</time></trkpt><trkpt lat="43.9596718" lon="10.7745114"><ele>821.0</ele><time>2026-04-06T13:35:35.794Z</time></trkpt><trkpt lat="43.9597203" lon="10.7745761"><ele>821.0</ele><time>2026-04-06T13:35:36.795Z</time></trkpt><trkpt lat="43.9598716" lon="10.7746478"><ele>821.0</ele><time>2026-04-06T13:35:38.803Z</time></trkpt><trkpt lat="43.9599543" lon="10.7746927"><ele>821.0</ele><time>2026-04-06T13:35:39.798Z</time></trkpt><trkpt lat="43.960034" lon="10.7747283"><ele>821.0</ele><time>2026-04-06T13:35:40.793Z</time></trkpt><trkpt lat="43.9601322" lon="10.774796"><ele>823.0</ele><time>2026-04-06T13:35:42.795Z</time></trkpt><trkpt lat="43.9602226" lon="10.7748913"><ele>825.0</ele><time>2026-04-06T13:35:44.799Z</time></trkpt><trkpt lat="43.9602869" lon="10.7749812"><ele>827.0</ele><time>2026-04-06T13:35:45.799Z</time></trkpt><trkpt lat="43.9603482" lon="10.7750538"><ele>829.0</ele><time>2026-04-06T13:35:46.794Z</time></trkpt><trkpt lat="43.9603696" lon="10.7752243"><ele>831.0</ele><time>2026-04-06T13:35:48.796Z</time></trkpt><trkpt lat="43.9603728" lon="10.7753125"><ele>830.9999999999999</ele><time>2026-04-06T13:35:49.792Z</time></trkpt><trkpt lat="43.960369" lon="10.7754031"><ele>831.0</ele><time>2026-04-06T13:35:50.796Z</time></trkpt><trkpt lat="43.9603769" lon="10.7755072"><ele>831.0</ele><time>2026-04-06T13:35:51.798Z</time></trkpt><trkpt lat="43.9603781" lon="10.775611"><ele>831.0</ele><time>2026-04-06T13:35:52.797Z</time></trkpt><trkpt lat="43.9604124" lon="10.7756903"><ele>831.0</ele><time>2026-04-06T13:35:53.799Z</time></trkpt><trkpt lat="43.9604682" lon="10.7757356"><ele>830.9999999999999</ele><time>2026-04-06T13:35:54.797Z</time></trkpt><trkpt lat="43.9605376" lon="10.775809"><ele>831.0</ele><time>2026-04-06T13:35:55.794Z</time></trkpt><trkpt lat="43.9605957" lon="10.7758653"><ele>831.0</ele><time>2026-04-06T13:35:56.794Z</time></trkpt><trkpt lat="43.9606706" lon="10.7759082"><ele>831.0</ele><time>2026-04-06T13:35:57.792Z</time></trkpt><trkpt lat="43.9608752" lon="10.7759441"><ele>831.0</ele><time>2026-04-06T13:35:58.798Z</time></trkpt><trkpt lat="43.9610245" lon="10.7759631"><ele>831.0</ele><time>2026-04-06T13:35:59.793Z</time></trkpt><trkpt lat="43.9611766" lon="10.7759587"><ele>830.25</ele><time>2026-04-06T13:36:00.802Z</time></trkpt><trkpt lat="43.9613169" lon="10.7759538"><ele>829.5</ele><time>2026-04-06T13:36:01.8Z</time></trkpt><trkpt lat="43.9614535" lon="10.7760089"><ele>828.75</ele><time>2026-04-06T13:36:02.792Z</time></trkpt><trkpt lat="43.9615843" lon="10.7760812"><ele>828.0</ele><time>2026-04-06T13:36:03.793Z</time></trkpt><trkpt lat="43.9617052" lon="10.7761578"><ele>829.5</ele><time>2026-04-06T13:36:04.81Z</time></trkpt><trkpt lat="43.9617871" lon="10.776292"><ele>831.0</ele><time>2026-04-06T13:36:05.795Z</time></trkpt><trkpt lat="43.9618905" lon="10.7763914"><ele>832.5</ele><time>2026-04-06T13:36:06.794Z</time></trkpt><trkpt lat="43.9620035" lon="10.7764724"><ele>834.0</ele><time>2026-04-06T13:36:07.794Z</time></trkpt><trkpt lat="43.96213" lon="10.7765272"><ele>834.0</ele><time>2026-04-06T13:36:08.795Z</time></trkpt><trkpt lat="43.9622783" lon="10.7765369"><ele>834.0</ele><time>2026-04-06T13:36:09.796Z</time></trkpt><trkpt lat="43.9624054" lon="10.7765412"><ele>834.0</ele><time>2026-04-06T13:36:10.795Z</time></trkpt><trkpt lat="43.9625224" lon="10.7765147"><ele>834.0</ele><time>2026-04-06T13:36:11.795Z</time></trkpt><trkpt lat="43.9626608" lon="10.776449"><ele>837.0</ele><time>2026-04-06T13:36:12.796Z</time></trkpt><trkpt lat="43.9627789" lon="10.7763544"><ele>840.0</ele><time>2026-04-06T13:36:13.814Z</time></trkpt><trkpt lat="43.9628877" lon="10.7762156"><ele>843.0</ele><time>2026-04-06T13:36:14.801Z</time></trkpt><trkpt lat="43.9629861" lon="10.7761387"><ele>846.0</ele><time>2026-04-06T13:36:15.796Z</time></trkpt><trkpt lat="43.9630745" lon="10.7760874"><ele>846.0</ele><time>2026-04-06T13:36:16.797Z</time></trkpt><trkpt lat="43.963166" lon="10.7760308"><ele>846.0</ele><time>2026-04-06T13:36:17.795Z</time></trkpt><trkpt lat="43.9632418" lon="10.7759879"><ele>846.0</ele><time>2026-04-06T13:36:18.803Z</time></trkpt><trkpt lat="43.9633243" lon="10.7760029"><ele>846.0</ele><time>2026-04-06T13:36:19.791Z</time></trkpt><trkpt lat="43.9633999" lon="10.7760861"><ele>846.0</ele><time>2026-04-06T13:36:21.797Z</time></trkpt><trkpt lat="43.9634201" lon="10.7762112"><ele>846.0</ele><time>2026-04-06T13:36:22.797Z</time></trkpt><trkpt lat="43.9633921" lon="10.7764007"><ele>846.0</ele><time>2026-04-06T13:36:23.797Z</time></trkpt><trkpt lat="43.9633577" lon="10.7765777"><ele>846.0</ele><time>2026-04-06T13:36:24.794Z</time></trkpt><trkpt lat="43.9633164" lon="10.776745"><ele>846.0</ele><time>2026-04-06T13:36:25.797Z</time></trkpt><trkpt lat="43.9633089" lon="10.776911"><ele>846.3333333333333</ele><time>2026-04-06T13:36:26.792Z</time></trkpt><trkpt lat="43.9633283" lon="10.7771336"><ele>846.6666666666666</ele><time>2026-04-06T13:36:27.798Z</time></trkpt><trkpt lat="43.9633622" lon="10.7773354"><ele>847.0</ele><time>2026-04-06T13:36:28.8Z</time></trkpt><trkpt lat="43.9633324" lon="10.777531"><ele>847.25</ele><time>2026-04-06T13:36:29.796Z</time></trkpt><trkpt lat="43.9632968" lon="10.7776854"><ele>847.5</ele><time>2026-04-06T13:36:30.795Z</time></trkpt><trkpt lat="43.9632421" lon="10.777832"><ele>847.75</ele><time>2026-04-06T13:36:31.798Z</time></trkpt><trkpt lat="43.9631613" lon="10.7779585"><ele>848.0</ele><time>2026-04-06T13:36:32.8Z</time></trkpt><trkpt lat="43.9630909" lon="10.7781084"><ele>848.0</ele><time>2026-04-06T13:36:33.806Z</time></trkpt><trkpt lat="43.9630717" lon="10.7782247"><ele>848.0</ele><time>2026-04-06T13:36:34.797Z</time></trkpt><trkpt lat="43.9631201" lon="10.778407"><ele>848.0</ele><time>2026-04-06T13:36:35.797Z</time></trkpt><trkpt lat="43.9631544" lon="10.7785694"><ele>848.0</ele><time>2026-04-06T13:36:36.798Z</time></trkpt><trkpt lat="43.9631359" lon="10.7787645"><ele>847.5</ele><time>2026-04-06T13:36:37.796Z</time></trkpt><trkpt lat="43.9631394" lon="10.7789449"><ele>847.0</ele><time>2026-04-06T13:36:38.793Z</time></trkpt><trkpt lat="43.9631294" lon="10.7791106"><ele>846.5</ele><time>2026-04-06T13:36:39.794Z</time></trkpt><trkpt lat="43.9631588" lon="10.7792616"><ele>846.0</ele><time>2026-04-06T13:36:40.797Z</time></trkpt><trkpt lat="43.9631904" lon="10.7794033"><ele>846.4</ele><time>2026-04-06T13:36:41.794Z</time></trkpt><trkpt lat="43.9632256" lon="10.7795102"><ele>846.8</ele><time>2026-04-06T13:36:42.794Z</time></trkpt><trkpt lat="43.9633094" lon="10.7795914"><ele>847.1999999999999</ele><time>2026-04-06T13:36:43.796Z</time></trkpt><trkpt lat="43.963391" lon="10.779666"><ele>847.5999999999999</ele><time>2026-04-06T13:36:44.802Z</time></trkpt><trkpt lat="43.9634454" lon="10.7797365"><ele>848.0</ele><time>2026-04-06T13:36:45.796Z</time></trkpt><trkpt lat="43.9635022" lon="10.7798729"><ele>848.0</ele><time>2026-04-06T13:36:46.796Z</time></trkpt><trkpt lat="43.9635557" lon="10.7800597"><ele>848.0</ele><time>2026-04-06T13:36:47.795Z</time></trkpt><trkpt lat="43.9636116" lon="10.7802247"><ele>848.0</ele><time>2026-04-06T13:36:48.795Z</time></trkpt><trkpt lat="43.9636463" lon="10.7804027"><ele>848.0</ele><time>2026-04-06T13:36:49.798Z</time></trkpt><trkpt lat="43.9636962" lon="10.7805398"><ele>846.25</ele><time>2026-04-06T13:36:50.8Z</time></trkpt><trkpt lat="43.9637601" lon="10.7806944"><ele>844.5</ele><time>2026-04-06T13:36:51.796Z</time></trkpt><trkpt lat="43.9638402" lon="10.7807932"><ele>842.75</ele><time>2026-04-06T13:36:52.793Z</time></trkpt><trkpt lat="43.9639519" lon="10.7809179"><ele>841.0</ele><time>2026-04-06T13:36:53.799Z</time></trkpt><trkpt lat="43.9640835" lon="10.7809979"><ele>834.3333333333333</ele><time>2026-04-06T13:36:54.797Z</time></trkpt><trkpt lat="43.9642263" lon="10.7810976"><ele>827.6666666666667</ele><time>2026-04-06T13:36:55.792Z</time></trkpt><trkpt lat="43.9643694" lon="10.7811335"><ele>821.0</ele><time>2026-04-06T13:36:56.797Z</time></trkpt><trkpt lat="43.9645145" lon="10.7811283"><ele>821.0</ele><time>2026-04-06T13:36:57.794Z</time></trkpt><trkpt lat="43.9646753" lon="10.781122"><ele>821.0</ele><time>2026-04-06T13:36:58.8Z</time></trkpt><trkpt lat="43.9648706" lon="10.7810195"><ele>821.0</ele><time>2026-04-06T13:36:59.79Z</time></trkpt><trkpt lat="43.9650418" lon="10.7809603"><ele>824.6666666666667</ele><time>2026-04-06T13:37:00.802Z</time></trkpt><trkpt lat="43.9652066" lon="10.7809672"><ele>828.3333333333333</ele><time>2026-04-06T13:37:01.793Z</time></trkpt><trkpt lat="43.9654178" lon="10.7810009"><ele>832.0</ele><time>2026-04-06T13:37:02.797Z</time></trkpt><trkpt lat="43.9655778" lon="10.7810099"><ele>829.3333333333333</ele><time>2026-04-06T13:37:03.789Z</time></trkpt><trkpt lat="43.9657365" lon="10.7810482"><ele>826.6666666666667</ele><time>2026-04-06T13:37:04.795Z</time></trkpt><trkpt lat="43.9658892" lon="10.7811451"><ele>824.0</ele><time>2026-04-06T13:37:05.792Z</time></trkpt><trkpt lat="43.9660622" lon="10.7812823"><ele>832.3333333333334</ele><time>2026-04-06T13:37:06.8Z</time></trkpt><trkpt lat="43.9661643" lon="10.781392"><ele>840.6666666666667</ele><time>2026-04-06T13:37:07.794Z</time></trkpt><trkpt lat="43.9662968" lon="10.7815261"><ele>849.0</ele><time>2026-04-06T13:37:08.798Z</time></trkpt><trkpt lat="43.9664519" lon="10.781639"><ele>849.0</ele><time>2026-04-06T13:37:09.793Z</time></trkpt><trkpt lat="43.9665418" lon="10.7817571"><ele>849.0</ele><time>2026-04-06T13:37:10.794Z</time></trkpt><trkpt lat="43.9665921" lon="10.781865"><ele>849.0</ele><time>2026-04-06T13:37:11.792Z</time></trkpt><trkpt lat="43.9666817" lon="10.7819744"><ele>849.0</ele><time>2026-04-06T13:37:12.795Z</time></trkpt><trkpt lat="43.966688" lon="10.7821464"><ele>851.4000000000001</ele><time>2026-04-06T13:37:13.792Z</time></trkpt><trkpt lat="43.9667148" lon="10.7822815"><ele>853.8</ele><time>2026-04-06T13:37:14.796Z</time></trkpt><trkpt lat="43.9666996" lon="10.7824337"><ele>856.1999999999999</ele><time>2026-04-06T13:37:15.794Z</time></trkpt><trkpt lat="43.9667153" lon="10.7825505"><ele>858.5999999999999</ele><time>2026-04-06T13:37:16.794Z</time></trkpt><trkpt lat="43.9667226" lon="10.7826963"><ele>861.0</ele><time>2026-04-06T13:37:17.798Z</time></trkpt><trkpt lat="43.9667498" lon="10.7828178"><ele>861.0</ele><time>2026-04-06T13:37:18.793Z</time></trkpt><trkpt lat="43.9668255" lon="10.7829167"><ele>861.0</ele><time>2026-04-06T13:37:19.799Z</time></trkpt><trkpt lat="43.9669901" lon="10.7831042"><ele>861.0</ele><time>2026-04-06T13:37:20.795Z</time></trkpt><trkpt lat="43.9671187" lon="10.7832452"><ele>861.0</ele><time>2026-04-06T13:37:21.8Z</time></trkpt><trkpt lat="43.9672345" lon="10.7833644"><ele>861.0</ele><time>2026-04-06T13:37:22.793Z</time></trkpt><trkpt lat="43.967335" lon="10.783477"><ele>861.0</ele><time>2026-04-06T13:37:23.798Z</time></trkpt><trkpt lat="43.9674519" lon="10.7836016"><ele>861.0</ele><time>2026-04-06T13:37:24.801Z</time></trkpt><trkpt lat="43.967515" lon="10.7837179"><ele>862.75</ele><time>2026-04-06T13:37:25.796Z</time></trkpt><trkpt lat="43.9676054" lon="10.7838081"><ele>864.5</ele><time>2026-04-06T13:37:26.79Z</time></trkpt><trkpt lat="43.9676657" lon="10.7839457"><ele>866.25</ele><time>2026-04-06T13:37:27.788Z</time></trkpt><trkpt lat="43.9677085" lon="10.78411"><ele>868.0</ele><time>2026-04-06T13:37:28.807Z</time></trkpt><trkpt lat="43.9677183" lon="10.7842713"><ele>868.75</ele><time>2026-04-06T13:37:29.794Z</time></trkpt><trkpt lat="43.9677201" lon="10.784403"><ele>869.5</ele><time>2026-04-06T13:37:30.793Z</time></trkpt><trkpt lat="43.9676497" lon="10.7845658"><ele>870.25</ele><time>2026-04-06T13:37:31.798Z</time></trkpt><trkpt lat="43.9676227" lon="10.7847321"><ele>871.0</ele><time>2026-04-06T13:37:32.799Z</time></trkpt><trkpt lat="43.9676168" lon="10.784897"><ele>871.0</ele><time>2026-04-06T13:37:33.795Z</time></trkpt><trkpt lat="43.9676458" lon="10.785054"><ele>871.0</ele><time>2026-04-06T13:37:34.79Z</time></trkpt><trkpt lat="43.9676964" lon="10.7852257"><ele>871.0</ele><time>2026-04-06T13:37:35.794Z</time></trkpt><trkpt lat="43.9677365" lon="10.7854057"><ele>871.0</ele><time>2026-04-06T13:37:36.797Z</time></trkpt><trkpt lat="43.9678626" lon="10.7856883"><ele>869.6666666666666</ele><time>2026-04-06T13:37:37.797Z</time></trkpt><trkpt lat="43.9679545" lon="10.7858764"><ele>868.3333333333333</ele><time>2026-04-06T13:37:38.793Z</time></trkpt><trkpt lat="43.9680436" lon="10.7860855"><ele>867.0</ele><time>2026-04-06T13:37:39.792Z</time></trkpt><trkpt lat="43.9680794" lon="10.7862743"><ele>866.0</ele><time>2026-04-06T13:37:40.8Z</time></trkpt><trkpt lat="43.9681242" lon="10.7864628"><ele>865.0</ele><time>2026-04-06T13:37:41.795Z</time></trkpt><trkpt lat="43.9681111" lon="10.786658"><ele>864.0</ele><time>2026-04-06T13:37:42.797Z</time></trkpt><trkpt lat="43.9680897" lon="10.7868525"><ele>863.0</ele><time>2026-04-06T13:37:43.799Z</time></trkpt><trkpt lat="43.9680628" lon="10.7870596"><ele>861.6666666666667</ele><time>2026-04-06T13:37:44.797Z</time></trkpt><trkpt lat="43.9680233" lon="10.7872666"><ele>860.3333333333333</ele><time>2026-04-06T13:37:45.796Z</time></trkpt><trkpt lat="43.9679669" lon="10.7874751"><ele>859.0</ele><time>2026-04-06T13:37:46.793Z</time></trkpt><trkpt lat="43.9679214" lon="10.7876917"><ele>859.0</ele><time>2026-04-06T13:37:47.793Z</time></trkpt><trkpt lat="43.9678799" lon="10.7878991"><ele>859.0</ele><time>2026-04-06T13:37:48.796Z</time></trkpt><trkpt lat="43.9678431" lon="10.7880974"><ele>859.0</ele><time>2026-04-06T13:37:49.798Z</time></trkpt><trkpt lat="43.9677979" lon="10.7882822"><ele>859.0</ele><time>2026-04-06T13:37:50.802Z</time></trkpt><trkpt lat="43.9677463" lon="10.7884421"><ele>861.5</ele><time>2026-04-06T13:37:51.797Z</time></trkpt><trkpt lat="43.9677063" lon="10.788603"><ele>864.0</ele><time>2026-04-06T13:37:52.798Z</time></trkpt><trkpt lat="43.9676837" lon="10.7887513"><ele>866.5</ele><time>2026-04-06T13:37:53.795Z</time></trkpt><trkpt lat="43.9676635" lon="10.7889144"><ele>869.0</ele><time>2026-04-06T13:37:54.798Z</time></trkpt><trkpt lat="43.9676977" lon="10.7891046"><ele>869.0</ele><time>2026-04-06T13:37:55.797Z</time></trkpt><trkpt lat="43.9677406" lon="10.7893251"><ele>869.0</ele><time>2026-04-06T13:37:56.798Z</time></trkpt><trkpt lat="43.9677564" lon="10.7895363"><ele>869.0</ele><time>2026-04-06T13:37:57.798Z</time></trkpt><trkpt lat="43.9677929" lon="10.7897541"><ele>869.3333333333334</ele><time>2026-04-06T13:37:58.794Z</time></trkpt><trkpt lat="43.9678412" lon="10.7899823"><ele>869.6666666666667</ele><time>2026-04-06T13:37:59.805Z</time></trkpt><trkpt lat="43.9678809" lon="10.7901978"><ele>870.0</ele><time>2026-04-06T13:38:00.793Z</time></trkpt><trkpt lat="43.9678928" lon="10.7904001"><ele>870.0</ele><time>2026-04-06T13:38:01.796Z</time></trkpt><trkpt lat="43.9679305" lon="10.7905911"><ele>870.0</ele><time>2026-04-06T13:38:02.794Z</time></trkpt><trkpt lat="43.9679534" lon="10.7907734"><ele>870.0</ele><time>2026-04-06T13:38:03.795Z</time></trkpt><trkpt lat="43.9679918" lon="10.7909581"><ele>870.0</ele><time>2026-04-06T13:38:04.797Z</time></trkpt><trkpt lat="43.9680151" lon="10.7911356"><ele>869.6</ele><time>2026-04-06T13:38:05.796Z</time></trkpt><trkpt lat="43.96803" lon="10.791288"><ele>869.2</ele><time>2026-04-06T13:38:06.795Z</time></trkpt><trkpt lat="43.9680565" lon="10.79143"><ele>868.8</ele><time>2026-04-06T13:38:07.796Z</time></trkpt><trkpt lat="43.9680763" lon="10.7915653"><ele>868.4</ele><time>2026-04-06T13:38:08.797Z</time></trkpt><trkpt lat="43.9680583" lon="10.7916984"><ele>868.0</ele><time>2026-04-06T13:38:09.799Z</time></trkpt><trkpt lat="43.9680316" lon="10.7918413"><ele>868.0</ele><time>2026-04-06T13:38:10.794Z</time></trkpt><trkpt lat="43.9679962" lon="10.7919888"><ele>868.0</ele><time>2026-04-06T13:38:11.794Z</time></trkpt><trkpt lat="43.967948" lon="10.7921251"><ele>868.0</ele><time>2026-04-06T13:38:12.794Z</time></trkpt><trkpt lat="43.9678991" lon="10.7922637"><ele>868.0</ele><time>2026-04-06T13:38:13.795Z</time></trkpt><trkpt lat="43.9678495" lon="10.7924309"><ele>868.0</ele><time>2026-04-06T13:38:14.79Z</time></trkpt><trkpt lat="43.9677997" lon="10.7926024"><ele>868.0</ele><time>2026-04-06T13:38:15.798Z</time></trkpt><trkpt lat="43.9677279" lon="10.7927381"><ele>868.0</ele><time>2026-04-06T13:38:16.804Z</time></trkpt><trkpt lat="43.9676536" lon="10.7928732"><ele>868.0</ele><time>2026-04-06T13:38:17.796Z</time></trkpt><trkpt lat="43.9675798" lon="10.7930111"><ele>866.75</ele><time>2026-04-06T13:38:18.797Z</time></trkpt><trkpt lat="43.9674944" lon="10.7931308"><ele>865.5</ele><time>2026-04-06T13:38:19.798Z</time></trkpt><trkpt lat="43.9674032" lon="10.7932603"><ele>864.25</ele><time>2026-04-06T13:38:20.795Z</time></trkpt><trkpt lat="43.9673157" lon="10.7933901"><ele>863.0</ele><time>2026-04-06T13:38:21.794Z</time></trkpt><trkpt lat="43.9672495" lon="10.7935615"><ele>863.0</ele><time>2026-04-06T13:38:22.799Z</time></trkpt><trkpt lat="43.9672085" lon="10.7937657"><ele>863.0</ele><time>2026-04-06T13:38:23.794Z</time></trkpt><trkpt lat="43.9671511" lon="10.7939469"><ele>863.0</ele><time>2026-04-06T13:38:24.798Z</time></trkpt><trkpt lat="43.9671184" lon="10.7941424"><ele>863.0</ele><time>2026-04-06T13:38:25.793Z</time></trkpt><trkpt lat="43.9670931" lon="10.7943471"><ele>863.0</ele><time>2026-04-06T13:38:26.794Z</time></trkpt><trkpt lat="43.967081" lon="10.7945571"><ele>863.0</ele><time>2026-04-06T13:38:27.8Z</time></trkpt><trkpt lat="43.9670581" lon="10.7947532"><ele>863.0</ele><time>2026-04-06T13:38:28.797Z</time></trkpt><trkpt lat="43.9670615" lon="10.7949365"><ele>863.0</ele><time>2026-04-06T13:38:29.795Z</time></trkpt><trkpt lat="43.9670796" lon="10.7950827"><ele>863.75</ele><time>2026-04-06T13:38:30.796Z</time></trkpt><trkpt lat="43.9671567" lon="10.7952522"><ele>864.5</ele><time>2026-04-06T13:38:31.799Z</time></trkpt><trkpt lat="43.9672403" lon="10.7954095"><ele>865.25</ele><time>2026-04-06T13:38:32.796Z</time></trkpt><trkpt lat="43.9673248" lon="10.795523"><ele>866.0</ele><time>2026-04-06T13:38:33.799Z</time></trkpt><trkpt lat="43.9674188" lon="10.7956396"><ele>866.0</ele><time>2026-04-06T13:38:34.8Z</time></trkpt><trkpt lat="43.9675117" lon="10.7957351"><ele>866.0</ele><time>2026-04-06T13:38:35.797Z</time></trkpt><trkpt lat="43.9676077" lon="10.7958203"><ele>866.0</ele><time>2026-04-06T13:38:36.797Z</time></trkpt><trkpt lat="43.9676963" lon="10.7959228"><ele>866.0</ele><time>2026-04-06T13:38:37.794Z</time></trkpt><trkpt lat="43.9677946" lon="10.7960129"><ele>868.0</ele><time>2026-04-06T13:38:38.795Z</time></trkpt><trkpt lat="43.9678937" lon="10.7961038"><ele>870.0</ele><time>2026-04-06T13:38:39.795Z</time></trkpt><trkpt lat="43.968037" lon="10.7961974"><ele>872.0</ele><time>2026-04-06T13:38:40.798Z</time></trkpt><trkpt lat="43.9681747" lon="10.7962742"><ele>874.0</ele><time>2026-04-06T13:38:41.794Z</time></trkpt><trkpt lat="43.968316" lon="10.7963402"><ele>874.6666666666666</ele><time>2026-04-06T13:38:42.797Z</time></trkpt><trkpt lat="43.9684605" lon="10.7964139"><ele>875.3333333333333</ele><time>2026-04-06T13:38:43.799Z</time></trkpt><trkpt lat="43.9685998" lon="10.7965052"><ele>876.0</ele><time>2026-04-06T13:38:44.795Z</time></trkpt><trkpt lat="43.9687443" lon="10.7966223"><ele>876.0</ele><time>2026-04-06T13:38:45.796Z</time></trkpt><trkpt lat="43.9688489" lon="10.7967549"><ele>876.0</ele><time>2026-04-06T13:38:46.799Z</time></trkpt><trkpt lat="43.9689888" lon="10.7968925"><ele>876.0</ele><time>2026-04-06T13:38:47.792Z</time></trkpt><trkpt lat="43.969097" lon="10.7970363"><ele>876.6666666666667</ele><time>2026-04-06T13:38:48.795Z</time></trkpt><trkpt lat="43.9692179" lon="10.7971709"><ele>877.3333333333334</ele><time>2026-04-06T13:38:49.797Z</time></trkpt><trkpt lat="43.969353" lon="10.7972932"><ele>878.0</ele><time>2026-04-06T13:38:50.794Z</time></trkpt><trkpt lat="43.9694769" lon="10.797424"><ele>878.0</ele><time>2026-04-06T13:38:51.798Z</time></trkpt><trkpt lat="43.9696156" lon="10.79755"><ele>878.0</ele><time>2026-04-06T13:38:52.793Z</time></trkpt><trkpt lat="43.9697451" lon="10.7976783"><ele>878.0</ele><time>2026-04-06T13:38:53.796Z</time></trkpt><trkpt lat="43.9698728" lon="10.7978064"><ele>878.3333333333334</ele><time>2026-04-06T13:38:54.798Z</time></trkpt><trkpt lat="43.9700098" lon="10.7979354"><ele>878.6666666666667</ele><time>2026-04-06T13:38:55.793Z</time></trkpt><trkpt lat="43.970138" lon="10.7980794"><ele>879.0</ele><time>2026-04-06T13:38:56.794Z</time></trkpt><trkpt lat="43.9702726" lon="10.7982098"><ele>879.0</ele><time>2026-04-06T13:38:57.801Z</time></trkpt><trkpt lat="43.9704339" lon="10.7983526"><ele>879.0</ele><time>2026-04-06T13:38:58.796Z</time></trkpt><trkpt lat="43.9705953" lon="10.7984878"><ele>879.0</ele><time>2026-04-06T13:38:59.805Z</time></trkpt><trkpt lat="43.9707451" lon="10.7986494"><ele>881.6666666666667</ele><time>2026-04-06T13:39:00.797Z</time></trkpt><trkpt lat="43.9709017" lon="10.7987837"><ele>884.3333333333334</ele><time>2026-04-06T13:39:01.794Z</time></trkpt><trkpt lat="43.9710408" lon="10.7989356"><ele>887.0</ele><time>2026-04-06T13:39:02.799Z</time></trkpt><trkpt lat="43.9712143" lon="10.7990822"><ele>887.0</ele><time>2026-04-06T13:39:03.8Z</time></trkpt><trkpt lat="43.9713592" lon="10.7992208"><ele>887.0</ele><time>2026-04-06T13:39:04.796Z</time></trkpt><trkpt lat="43.9715043" lon="10.799366"><ele>887.0</ele><time>2026-04-06T13:39:05.795Z</time></trkpt><trkpt lat="43.9716651" lon="10.7994974"><ele>885.0</ele><time>2026-04-06T13:39:06.794Z</time></trkpt><trkpt lat="43.9718032" lon="10.7996016"><ele>883.0</ele><time>2026-04-06T13:39:07.798Z</time></trkpt><trkpt lat="43.9719416" lon="10.7996938"><ele>881.0</ele><time>2026-04-06T13:39:08.799Z</time></trkpt><trkpt lat="43.9720713" lon="10.7997719"><ele>881.0</ele><time>2026-04-06T13:39:09.805Z</time></trkpt><trkpt lat="43.9721956" lon="10.7998116"><ele>881.0</ele><time>2026-04-06T13:39:10.791Z</time></trkpt><trkpt lat="43.9723376" lon="10.7998382"><ele>881.0</ele><time>2026-04-06T13:39:11.803Z</time></trkpt><trkpt lat="43.9725219" lon="10.799805"><ele>882.6666666666667</ele><time>2026-04-06T13:39:12.803Z</time></trkpt><trkpt lat="43.9726886" lon="10.7997968"><ele>884.3333333333333</ele><time>2026-04-06T13:39:13.791Z</time></trkpt><trkpt lat="43.972835" lon="10.7997466"><ele>886.0</ele><time>2026-04-06T13:39:14.789Z</time></trkpt><trkpt lat="43.9730057" lon="10.7996647"><ele>886.0</ele><time>2026-04-06T13:39:15.79Z</time></trkpt><trkpt lat="43.9731695" lon="10.799634"><ele>886.0</ele><time>2026-04-06T13:39:16.797Z</time></trkpt><trkpt lat="43.9733256" lon="10.7996045"><ele>886.0</ele><time>2026-04-06T13:39:17.793Z</time></trkpt><trkpt lat="43.9734635" lon="10.7995957"><ele>886.25</ele><time>2026-04-06T13:39:18.787Z</time></trkpt><trkpt lat="43.9735991" lon="10.7996078"><ele>886.5</ele><time>2026-04-06T13:39:19.798Z</time></trkpt><trkpt lat="43.9737232" lon="10.7996412"><ele>886.75</ele><time>2026-04-06T13:39:20.793Z</time></trkpt><trkpt lat="43.973827" lon="10.7996405"><ele>887.0</ele><time>2026-04-06T13:39:21.796Z</time></trkpt><trkpt lat="43.9739458" lon="10.7996361"><ele>887.0</ele><time>2026-04-06T13:39:22.8Z</time></trkpt><trkpt lat="43.9740524" lon="10.7996148"><ele>887.0</ele><time>2026-04-06T13:39:23.795Z</time></trkpt><trkpt lat="43.9741247" lon="10.7995828"><ele>887.0</ele><time>2026-04-06T13:39:24.816Z</time></trkpt><trkpt lat="43.9741695" lon="10.7994781"><ele>887.0</ele><time>2026-04-06T13:39:25.794Z</time></trkpt><trkpt lat="43.9742714" lon="10.7993413"><ele>887.0</ele><time>2026-04-06T13:39:26.801Z</time></trkpt><trkpt lat="43.9743474" lon="10.79924"><ele>889.2</ele><time>2026-04-06T13:39:27.789Z</time></trkpt><trkpt lat="43.9744162" lon="10.7991471"><ele>891.4000000000001</ele><time>2026-04-06T13:39:28.797Z</time></trkpt><trkpt lat="43.9745154" lon="10.799153"><ele>893.5999999999999</ele><time>2026-04-06T13:39:29.789Z</time></trkpt><trkpt lat="43.9746094" lon="10.7991029"><ele>895.8</ele><time>2026-04-06T13:39:30.791Z</time></trkpt><trkpt lat="43.9746889" lon="10.7991102"><ele>898.0</ele><time>2026-04-06T13:39:31.796Z</time></trkpt><trkpt lat="43.9748149" lon="10.7990762"><ele>898.0</ele><time>2026-04-06T13:39:32.797Z</time></trkpt><trkpt lat="43.9748808" lon="10.7990358"><ele>898.0</ele><time>2026-04-06T13:39:33.794Z</time></trkpt><trkpt lat="43.9749692" lon="10.7990115"><ele>898.0</ele><time>2026-04-06T13:39:34.797Z</time></trkpt><trkpt lat="43.9750663" lon="10.7989427"><ele>898.0</ele><time>2026-04-06T13:39:35.796Z</time></trkpt><trkpt lat="43.9752408" lon="10.7988461"><ele>898.3333333333333</ele><time>2026-04-06T13:39:36.8Z</time></trkpt><trkpt lat="43.975382" lon="10.798739"><ele>898.6666666666667</ele><time>2026-04-06T13:39:37.794Z</time></trkpt><trkpt lat="43.9755295" lon="10.798641"><ele>899.0</ele><time>2026-04-06T13:39:38.795Z</time></trkpt><trkpt lat="43.9756899" lon="10.7985578"><ele>903.3333333333334</ele><time>2026-04-06T13:39:39.793Z</time></trkpt><trkpt lat="43.9758432" lon="10.7984709"><ele>907.6666666666667</ele><time>2026-04-06T13:39:40.801Z</time></trkpt><trkpt lat="43.9760229" lon="10.7983576"><ele>912.0</ele><time>2026-04-06T13:39:41.795Z</time></trkpt><trkpt lat="43.976184" lon="10.7982387"><ele>912.0</ele><time>2026-04-06T13:39:42.799Z</time></trkpt><trkpt lat="43.9763505" lon="10.7981459"><ele>912.0</ele><time>2026-04-06T13:39:43.8Z</time></trkpt><trkpt lat="43.9765318" lon="10.7980866"><ele>912.0</ele><time>2026-04-06T13:39:44.802Z</time></trkpt><trkpt lat="43.9767184" lon="10.7980307"><ele>912.3333333333333</ele><time>2026-04-06T13:39:45.798Z</time></trkpt><trkpt lat="43.9768899" lon="10.79798"><ele>912.6666666666666</ele><time>2026-04-06T13:39:46.801Z</time></trkpt><trkpt lat="43.9770499" lon="10.7979605"><ele>913.0</ele><time>2026-04-06T13:39:47.794Z</time></trkpt><trkpt lat="43.9771834" lon="10.7979726"><ele>913.0</ele><time>2026-04-06T13:39:48.794Z</time></trkpt><trkpt lat="43.9773415" lon="10.7980044"><ele>913.0</ele><time>2026-04-06T13:39:49.794Z</time></trkpt><trkpt lat="43.9774704" lon="10.7980446"><ele>913.0</ele><time>2026-04-06T13:39:50.801Z</time></trkpt><trkpt lat="43.9776724" lon="10.7981683"><ele>911.0</ele><time>2026-04-06T13:39:51.798Z</time></trkpt><trkpt lat="43.977841" lon="10.7982697"><ele>909.0</ele><time>2026-04-06T13:39:52.793Z</time></trkpt><trkpt lat="43.9780105" lon="10.7983646"><ele>907.0</ele><time>2026-04-06T13:39:53.794Z</time></trkpt><trkpt lat="43.9781559" lon="10.7985164"><ele>907.0</ele><time>2026-04-06T13:39:54.798Z</time></trkpt><trkpt lat="43.9783227" lon="10.798625"><ele>907.0</ele><time>2026-04-06T13:39:55.791Z</time></trkpt><trkpt lat="43.9784844" lon="10.7987577"><ele>907.0</ele><time>2026-04-06T13:39:56.794Z</time></trkpt><trkpt lat="43.9786759" lon="10.7988916"><ele>912.3333333333333</ele><time>2026-04-06T13:39:57.797Z</time></trkpt><trkpt lat="43.9788279" lon="10.7990043"><ele>917.6666666666667</ele><time>2026-04-06T13:39:58.795Z</time></trkpt><trkpt lat="43.9789859" lon="10.799044"><ele>923.0</ele><time>2026-04-06T13:39:59.803Z</time></trkpt><trkpt lat="43.9791331" lon="10.7990692"><ele>924.5</ele><time>2026-04-06T13:40:00.805Z</time></trkpt><trkpt lat="43.9792827" lon="10.7990947"><ele>926.0</ele><time>2026-04-06T13:40:01.796Z</time></trkpt><trkpt lat="43.9794226" lon="10.7991718"><ele>927.5</ele><time>2026-04-06T13:40:02.793Z</time></trkpt><trkpt lat="43.9795462" lon="10.7992839"><ele>929.0</ele><time>2026-04-06T13:40:03.805Z</time></trkpt><trkpt lat="43.9796455" lon="10.7994482"><ele>929.0</ele><time>2026-04-06T13:40:04.796Z</time></trkpt><trkpt lat="43.9797144" lon="10.7996535"><ele>929.0</ele><time>2026-04-06T13:40:05.796Z</time></trkpt><trkpt lat="43.9798021" lon="10.7998354"><ele>929.0</ele><time>2026-04-06T13:40:06.795Z</time></trkpt><trkpt lat="43.9798902" lon="10.8000052"><ele>929.0</ele><time>2026-04-06T13:40:07.796Z</time></trkpt><trkpt lat="43.9799516" lon="10.8000945"><ele>929.0000000000001</ele><time>2026-04-06T13:40:08.797Z</time></trkpt><trkpt lat="43.9800197" lon="10.80018"><ele>929.0000000000001</ele><time>2026-04-06T13:40:09.797Z</time></trkpt><trkpt lat="43.9800994" lon="10.8002304"><ele>929.0</ele><time>2026-04-06T13:40:10.796Z</time></trkpt><trkpt lat="43.9802503" lon="10.8002668"><ele>929.0</ele><time>2026-04-06T13:40:11.8Z</time></trkpt><trkpt lat="43.9803996" lon="10.8002933"><ele>929.0</ele><time>2026-04-06T13:40:12.793Z</time></trkpt><trkpt lat="43.9805215" lon="10.8002949"><ele>929.0</ele><time>2026-04-06T13:40:13.797Z</time></trkpt><trkpt lat="43.9806279" lon="10.8002612"><ele>929.0</ele><time>2026-04-06T13:40:14.79Z</time></trkpt><trkpt lat="43.9807634" lon="10.8002383"><ele>929.0</ele><time>2026-04-06T13:40:15.798Z</time></trkpt><trkpt lat="43.9808562" lon="10.80026"><ele>930.6</ele><time>2026-04-06T13:40:16.796Z</time></trkpt><trkpt lat="43.9809253" lon="10.8002894"><ele>932.2</ele><time>2026-04-06T13:40:17.806Z</time></trkpt><trkpt lat="43.9809911" lon="10.8003818"><ele>933.8000000000001</ele><time>2026-04-06T13:40:18.799Z</time></trkpt><trkpt lat="43.9810224" lon="10.8005564"><ele>935.4000000000001</ele><time>2026-04-06T13:40:19.794Z</time></trkpt><trkpt lat="43.9810956" lon="10.8006915"><ele>937.0</ele><time>2026-04-06T13:40:20.797Z</time></trkpt><trkpt lat="43.9811279" lon="10.8007706"><ele>937.0</ele><time>2026-04-06T13:40:21.793Z</time></trkpt><trkpt lat="43.981272" lon="10.8008617"><ele>937.0</ele><time>2026-04-06T13:40:23.798Z</time></trkpt><trkpt lat="43.9813544" lon="10.8008006"><ele>937.0</ele><time>2026-04-06T13:40:24.799Z</time></trkpt><trkpt lat="43.9814325" lon="10.8007511"><ele>937.0</ele><time>2026-04-06T13:40:25.798Z</time></trkpt><trkpt lat="43.9815496" lon="10.8007005"><ele>941.6666666666666</ele><time>2026-04-06T13:40:26.794Z</time></trkpt><trkpt lat="43.9817001" lon="10.800683"><ele>946.3333333333333</ele><time>2026-04-06T13:40:27.798Z</time></trkpt><trkpt lat="43.9818422" lon="10.8006805"><ele>951.0</ele><time>2026-04-06T13:40:28.792Z</time></trkpt><trkpt lat="43.9820028" lon="10.8006964"><ele>951.0</ele><time>2026-04-06T13:40:29.8Z</time></trkpt><trkpt lat="43.9821232" lon="10.8007162"><ele>951.0</ele><time>2026-04-06T13:40:30.798Z</time></trkpt><trkpt lat="43.9822742" lon="10.8008344"><ele>951.0</ele><time>2026-04-06T13:40:31.795Z</time></trkpt><trkpt lat="43.9823827" lon="10.8009241"><ele>951.0</ele><time>2026-04-06T13:40:32.799Z</time></trkpt><trkpt lat="43.9824373" lon="10.8010284"><ele>950.8</ele><time>2026-04-06T13:40:33.8Z</time></trkpt><trkpt lat="43.9825194" lon="10.8011176"><ele>950.5999999999999</ele><time>2026-04-06T13:40:34.794Z</time></trkpt><trkpt lat="43.9825936" lon="10.8012262"><ele>950.4</ele><time>2026-04-06T13:40:35.793Z</time></trkpt><trkpt lat="43.9826244" lon="10.801339"><ele>950.2</ele><time>2026-04-06T13:40:36.793Z</time></trkpt><trkpt lat="43.9826877" lon="10.801452"><ele>950.0</ele><time>2026-04-06T13:40:37.791Z</time></trkpt><trkpt lat="43.982738" lon="10.8015792"><ele>950.0000000000001</ele><time>2026-04-06T13:40:38.795Z</time></trkpt><trkpt lat="43.9827825" lon="10.8017083"><ele>950.0</ele><time>2026-04-06T13:40:39.806Z</time></trkpt><trkpt lat="43.9828257" lon="10.8018199"><ele>950.0</ele><time>2026-04-06T13:40:40.797Z</time></trkpt><trkpt lat="43.9828766" lon="10.8018813"><ele>950.0</ele><time>2026-04-06T13:40:41.798Z</time></trkpt><trkpt lat="43.9829564" lon="10.8019157"><ele>950.0000000000001</ele><time>2026-04-06T13:40:42.802Z</time></trkpt><trkpt lat="43.983037" lon="10.8019567"><ele>950.0</ele><time>2026-04-06T13:40:43.797Z</time></trkpt><trkpt lat="43.9831056" lon="10.8019627"><ele>948.0</ele><time>2026-04-06T13:40:44.801Z</time></trkpt><trkpt lat="43.9832267" lon="10.8018467"><ele>946.0</ele><time>2026-04-06T13:40:45.799Z</time></trkpt><trkpt lat="43.9833714" lon="10.8017873"><ele>944.0</ele><time>2026-04-06T13:40:46.795Z</time></trkpt><trkpt lat="43.9835178" lon="10.8017392"><ele>942.0</ele><time>2026-04-06T13:40:47.792Z</time></trkpt><trkpt lat="43.9836987" lon="10.8016689"><ele>942.0</ele><time>2026-04-06T13:40:48.797Z</time></trkpt><trkpt lat="43.9837962" lon="10.8016161"><ele>942.0</ele><time>2026-04-06T13:40:49.793Z</time></trkpt><trkpt lat="43.9839056" lon="10.8015332"><ele>942.0</ele><time>2026-04-06T13:40:50.798Z</time></trkpt><trkpt lat="43.9840025" lon="10.801456"><ele>942.0</ele><time>2026-04-06T13:40:51.796Z</time></trkpt><trkpt lat="43.9841036" lon="10.8013748"><ele>942.2</ele><time>2026-04-06T13:40:52.8Z</time></trkpt><trkpt lat="43.9841802" lon="10.8013067"><ele>942.4000000000001</ele><time>2026-04-06T13:40:53.796Z</time></trkpt><trkpt lat="43.9843077" lon="10.801211"><ele>942.5999999999999</ele><time>2026-04-06T13:40:54.797Z</time></trkpt><trkpt lat="43.9844118" lon="10.801143"><ele>942.8</ele><time>2026-04-06T13:40:55.797Z</time></trkpt><trkpt lat="43.9844617" lon="10.8010761"><ele>943.0</ele><time>2026-04-06T13:40:56.802Z</time></trkpt><trkpt lat="43.984525" lon="10.8010038"><ele>943.8333333333333</ele><time>2026-04-06T13:40:57.793Z</time></trkpt><trkpt lat="43.9845506" lon="10.8008791"><ele>944.6666666666666</ele><time>2026-04-06T13:40:58.8Z</time></trkpt><trkpt lat="43.9845925" lon="10.8007779"><ele>945.5</ele><time>2026-04-06T13:40:59.798Z</time></trkpt><trkpt lat="43.9845929" lon="10.800678"><ele>946.3333333333333</ele><time>2026-04-06T13:41:00.797Z</time></trkpt><trkpt lat="43.9845879" lon="10.8005794"><ele>947.1666666666666</ele><time>2026-04-06T13:41:01.796Z</time></trkpt><trkpt lat="43.9845739" lon="10.8004776"><ele>948.0</ele><time>2026-04-06T13:41:02.797Z</time></trkpt><trkpt lat="43.9846022" lon="10.8003798"><ele>948.0</ele><time>2026-04-06T13:41:03.797Z</time></trkpt><trkpt lat="43.9846504" lon="10.8002552"><ele>948.0</ele><time>2026-04-06T13:41:05.796Z</time></trkpt><trkpt lat="43.9847437" lon="10.8002269"><ele>948.0</ele><time>2026-04-06T13:41:07.798Z</time></trkpt><trkpt lat="43.9848297" lon="10.8002419"><ele>948.0</ele><time>2026-04-06T13:41:08.789Z</time></trkpt><trkpt lat="43.9849163" lon="10.8002919"><ele>948.0</ele><time>2026-04-06T13:41:09.794Z</time></trkpt><trkpt lat="43.9850098" lon="10.8004449"><ele>949.6666666666666</ele><time>2026-04-06T13:41:11.797Z</time></trkpt><trkpt lat="43.9850905" lon="10.8005678"><ele>951.3333333333333</ele><time>2026-04-06T13:41:13.794Z</time></trkpt><trkpt lat="43.9851532" lon="10.800617"><ele>953.0</ele><time>2026-04-06T13:41:14.795Z</time></trkpt><trkpt lat="43.9852173" lon="10.8006165"><ele>954.6666666666666</ele><time>2026-04-06T13:41:15.797Z</time></trkpt><trkpt lat="43.9852807" lon="10.8006398"><ele>956.3333333333333</ele><time>2026-04-06T13:41:16.797Z</time></trkpt><trkpt lat="43.9853801" lon="10.8006263"><ele>958.0</ele><time>2026-04-06T13:41:17.794Z</time></trkpt><trkpt lat="43.9854561" lon="10.8006126"><ele>957.9999999999999</ele><time>2026-04-06T13:41:18.794Z</time></trkpt><trkpt lat="43.9855347" lon="10.8005981"><ele>958.0</ele><time>2026-04-06T13:41:19.798Z</time></trkpt><trkpt lat="43.9856015" lon="10.8005603"><ele>958.0</ele><time>2026-04-06T13:41:20.795Z</time></trkpt><trkpt lat="43.9856663" lon="10.8005201"><ele>958.0</ele><time>2026-04-06T13:41:21.794Z</time></trkpt><trkpt lat="43.9857381" lon="10.800473"><ele>957.9999999999999</ele><time>2026-04-06T13:41:22.798Z</time></trkpt><trkpt lat="43.9857941" lon="10.8004246"><ele>958.0</ele><time>2026-04-06T13:41:23.792Z</time></trkpt><trkpt lat="43.985871" lon="10.8003611"><ele>959.0</ele><time>2026-04-06T13:41:25.795Z</time></trkpt><trkpt lat="43.9859742" lon="10.8002574"><ele>960.0</ele><time>2026-04-06T13:41:27.797Z</time></trkpt><trkpt lat="43.9860616" lon="10.8001702"><ele>961.0</ele><time>2026-04-06T13:41:28.802Z</time></trkpt><trkpt lat="43.9861442" lon="10.8001037"><ele>962.0</ele><time>2026-04-06T13:41:29.8Z</time></trkpt><trkpt lat="43.986224" lon="10.8000536"><ele>963.0</ele><time>2026-04-06T13:41:30.803Z</time></trkpt><trkpt lat="43.9863136" lon="10.8000187"><ele>963.0</ele><time>2026-04-06T13:41:31.799Z</time></trkpt><trkpt lat="43.9864097" lon="10.7999859"><ele>963.0</ele><time>2026-04-06T13:41:32.791Z</time></trkpt><trkpt lat="43.9864992" lon="10.7999845"><ele>963.0</ele><time>2026-04-06T13:41:33.797Z</time></trkpt><trkpt lat="43.9865749" lon="10.8000312"><ele>963.0</ele><time>2026-04-06T13:41:34.79Z</time></trkpt><trkpt lat="43.986663" lon="10.8000849"><ele>963.0</ele><time>2026-04-06T13:41:35.791Z</time></trkpt><trkpt lat="43.9867385" lon="10.8001447"><ele>964.75</ele><time>2026-04-06T13:41:36.794Z</time></trkpt><trkpt lat="43.9868933" lon="10.8002713"><ele>966.5</ele><time>2026-04-06T13:41:37.789Z</time></trkpt><trkpt lat="43.987019" lon="10.8002977"><ele>968.25</ele><time>2026-04-06T13:41:38.788Z</time></trkpt><trkpt lat="43.9871405" lon="10.8003847"><ele>970.0</ele><time>2026-04-06T13:41:39.795Z</time></trkpt><trkpt lat="43.9872562" lon="10.8004631"><ele>969.9999999999999</ele><time>2026-04-06T13:41:40.794Z</time></trkpt><trkpt lat="43.9873469" lon="10.8003793"><ele>970.0</ele><time>2026-04-06T13:41:42.793Z</time></trkpt><trkpt lat="43.9874008" lon="10.8003234"><ele>970.0</ele><time>2026-04-06T13:41:43.797Z</time></trkpt><trkpt lat="43.9874506" lon="10.8002553"><ele>970.0</ele><time>2026-04-06T13:41:44.797Z</time></trkpt><trkpt lat="43.987454" lon="10.8001209"><ele>969.9999999999999</ele><time>2026-04-06T13:41:45.798Z</time></trkpt><trkpt lat="43.9874245" lon="10.8000305"><ele>970.0</ele><time>2026-04-06T13:41:46.799Z</time></trkpt><trkpt lat="43.9873758" lon="10.7999524"><ele>969.1666666666666</ele><time>2026-04-06T13:41:47.791Z</time></trkpt><trkpt lat="43.9873374" lon="10.7998148"><ele>968.3333333333333</ele><time>2026-04-06T13:41:48.788Z</time></trkpt><trkpt lat="43.9873113" lon="10.7997232"><ele>967.5</ele><time>2026-04-06T13:41:49.8Z</time></trkpt><trkpt lat="43.9872927" lon="10.799608"><ele>966.6666666666667</ele><time>2026-04-06T13:41:50.79Z</time></trkpt><trkpt lat="43.9873037" lon="10.7995113"><ele>965.8333333333334</ele><time>2026-04-06T13:41:51.793Z</time></trkpt><trkpt lat="43.9873756" lon="10.7994013"><ele>965.0</ele><time>2026-04-06T13:41:52.795Z</time></trkpt><trkpt lat="43.9874165" lon="10.7992155"><ele>964.25</ele><time>2026-04-06T13:41:53.792Z</time></trkpt><trkpt lat="43.987458" lon="10.7990243"><ele>963.5</ele><time>2026-04-06T13:41:54.796Z</time></trkpt><trkpt lat="43.9875104" lon="10.7988548"><ele>962.75</ele><time>2026-04-06T13:41:55.791Z</time></trkpt><trkpt lat="43.9876176" lon="10.7987274"><ele>962.0</ele><time>2026-04-06T13:41:56.795Z</time></trkpt><trkpt lat="43.9876936" lon="10.7985992"><ele>962.0</ele><time>2026-04-06T13:41:57.791Z</time></trkpt><trkpt lat="43.9877813" lon="10.7984932"><ele>962.0</ele><time>2026-04-06T13:41:58.795Z</time></trkpt><trkpt lat="43.9878803" lon="10.7984625"><ele>962.0</ele><time>2026-04-06T13:41:59.798Z</time></trkpt><trkpt lat="43.9879945" lon="10.7984187"><ele>962.0</ele><time>2026-04-06T13:42:00.799Z</time></trkpt><trkpt lat="43.9880988" lon="10.7984774"><ele>962.0</ele><time>2026-04-06T13:42:01.796Z</time></trkpt><trkpt lat="43.9881991" lon="10.7984826"><ele>962.0</ele><time>2026-04-06T13:42:02.793Z</time></trkpt><trkpt lat="43.9883233" lon="10.7984779"><ele>962.0</ele><time>2026-04-06T13:42:03.791Z</time></trkpt><trkpt lat="43.9883975" lon="10.7984574"><ele>962.0</ele><time>2026-04-06T13:42:04.796Z</time></trkpt><trkpt lat="43.9884698" lon="10.798295"><ele>962.0</ele><time>2026-04-06T13:42:06.793Z</time></trkpt><trkpt lat="43.9884917" lon="10.7981982"><ele>962.0</ele><time>2026-04-06T13:42:07.799Z</time></trkpt><trkpt lat="43.9885116" lon="10.7979491"><ele>962.0</ele><time>2026-04-06T13:42:09.79Z</time></trkpt><trkpt lat="43.9885388" lon="10.7978252"><ele>962.0</ele><time>2026-04-06T13:42:10.797Z</time></trkpt><trkpt lat="43.9886272" lon="10.7977342"><ele>962.0</ele><time>2026-04-06T13:42:11.795Z</time></trkpt><trkpt lat="43.9886891" lon="10.7976353"><ele>962.0</ele><time>2026-04-06T13:42:12.795Z</time></trkpt><trkpt lat="43.9887716" lon="10.7975537"><ele>962.0</ele><time>2026-04-06T13:42:13.796Z</time></trkpt><trkpt lat="43.9888607" lon="10.7975243"><ele>962.0</ele><time>2026-04-06T13:42:14.8Z</time></trkpt><trkpt lat="43.988983" lon="10.7975741"><ele>962.0</ele><time>2026-04-06T13:42:15.796Z</time></trkpt><trkpt lat="43.9891007" lon="10.7976058"><ele>962.0</ele><time>2026-04-06T13:42:16.797Z</time></trkpt><trkpt lat="43.9892047" lon="10.7976023"><ele>962.0</ele><time>2026-04-06T13:42:17.796Z</time></trkpt><trkpt lat="43.9893156" lon="10.7975873"><ele>964.6666666666667</ele><time>2026-04-06T13:42:18.797Z</time></trkpt><trkpt lat="43.9893859" lon="10.7975254"><ele>967.3333333333334</ele><time>2026-04-06T13:42:19.796Z</time></trkpt><trkpt lat="43.9894256" lon="10.7974506"><ele>970.0</ele><time>2026-04-06T13:42:20.803Z</time></trkpt><trkpt lat="43.9894589" lon="10.7973655"><ele>972.6666666666667</ele><time>2026-04-06T13:42:21.794Z</time></trkpt><trkpt lat="43.989391" lon="10.7972499"><ele>975.3333333333334</ele><time>2026-04-06T13:42:22.8Z</time></trkpt><trkpt lat="43.98936" lon="10.797105"><ele>978.0</ele><time>2026-04-06T13:42:23.807Z</time></trkpt><trkpt lat="43.9893857" lon="10.7969974"><ele>978.0</ele><time>2026-04-06T13:42:24.788Z</time></trkpt><trkpt lat="43.9894719" lon="10.7969137"><ele>978.0</ele><time>2026-04-06T13:42:25.797Z</time></trkpt><trkpt lat="43.9895465" lon="10.7968441"><ele>978.0</ele><time>2026-04-06T13:42:26.81Z</time></trkpt><trkpt lat="43.9896373" lon="10.7967921"><ele>978.0</ele><time>2026-04-06T13:42:27.792Z</time></trkpt><trkpt lat="43.9897352" lon="10.7967597"><ele>978.0</ele><time>2026-04-06T13:42:28.801Z</time></trkpt><trkpt lat="43.989868" lon="10.7967629"><ele>977.25</ele><time>2026-04-06T13:42:29.798Z</time></trkpt><trkpt lat="43.9899996" lon="10.7967919"><ele>976.5</ele><time>2026-04-06T13:42:30.8Z</time></trkpt><trkpt lat="43.9901245" lon="10.7968063"><ele>975.75</ele><time>2026-04-06T13:42:31.797Z</time></trkpt><trkpt lat="43.9902236" lon="10.7967843"><ele>975.0</ele><time>2026-04-06T13:42:32.799Z</time></trkpt><trkpt lat="43.9902913" lon="10.796669"><ele>975.0</ele><time>2026-04-06T13:42:34.798Z</time></trkpt><trkpt lat="43.9903346" lon="10.7965257"><ele>975.0</ele><time>2026-04-06T13:42:35.803Z</time></trkpt><trkpt lat="43.9904518" lon="10.7963311"><ele>975.0</ele><time>2026-04-06T13:42:36.794Z</time></trkpt><trkpt lat="43.9905756" lon="10.7961536"><ele>974.5</ele><time>2026-04-06T13:42:37.797Z</time></trkpt><trkpt lat="43.9907019" lon="10.7959979"><ele>974.0</ele><time>2026-04-06T13:42:38.794Z</time></trkpt><trkpt lat="43.9908078" lon="10.7958479"><ele>973.5</ele><time>2026-04-06T13:42:39.791Z</time></trkpt><trkpt lat="43.9909065" lon="10.7957314"><ele>973.0</ele><time>2026-04-06T13:42:40.79Z</time></trkpt><trkpt lat="43.9910183" lon="10.7956427"><ele>973.0</ele><time>2026-04-06T13:42:41.794Z</time></trkpt><trkpt lat="43.9911636" lon="10.7955759"><ele>973.0</ele><time>2026-04-06T13:42:42.804Z</time></trkpt><trkpt lat="43.9913297" lon="10.7954829"><ele>973.0</ele><time>2026-04-06T13:42:43.795Z</time></trkpt><trkpt lat="43.9914806" lon="10.7953952"><ele>978.3333333333333</ele><time>2026-04-06T13:42:44.797Z</time></trkpt><trkpt lat="43.9916805" lon="10.7953206"><ele>983.6666666666667</ele><time>2026-04-06T13:42:45.792Z</time></trkpt><trkpt lat="43.9918291" lon="10.7952636"><ele>989.0</ele><time>2026-04-06T13:42:46.838Z</time></trkpt><trkpt lat="43.9919605" lon="10.7952206"><ele>983.6666666666667</ele><time>2026-04-06T13:42:47.79Z</time></trkpt><trkpt lat="43.9920885" lon="10.7951502"><ele>978.3333333333333</ele><time>2026-04-06T13:42:48.794Z</time></trkpt><trkpt lat="43.9922295" lon="10.7949643"><ele>973.0</ele><time>2026-04-06T13:42:49.806Z</time></trkpt><trkpt lat="43.9923441" lon="10.7947645"><ele>973.0</ele><time>2026-04-06T13:42:50.791Z</time></trkpt><trkpt lat="43.9924506" lon="10.7946161"><ele>973.0</ele><time>2026-04-06T13:42:51.797Z</time></trkpt><trkpt lat="43.9925735" lon="10.7945341"><ele>973.0</ele><time>2026-04-06T13:42:52.795Z</time></trkpt><trkpt lat="43.9926916" lon="10.7944443"><ele>973.0</ele><time>2026-04-06T13:42:53.802Z</time></trkpt><trkpt lat="43.9928279" lon="10.7943517"><ele>968.25</ele><time>2026-04-06T13:42:54.797Z</time></trkpt><trkpt lat="43.9929864" lon="10.7942937"><ele>963.5</ele><time>2026-04-06T13:42:55.796Z</time></trkpt><trkpt lat="43.9931348" lon="10.7942413"><ele>958.75</ele><time>2026-04-06T13:42:56.792Z</time></trkpt><trkpt lat="43.9932432" lon="10.7942347"><ele>954.0</ele><time>2026-04-06T13:42:57.803Z</time></trkpt><trkpt lat="43.9933207" lon="10.7942888"><ele>958.0</ele><time>2026-04-06T13:42:58.796Z</time></trkpt><trkpt lat="43.9934121" lon="10.7943021"><ele>962.0</ele><time>2026-04-06T13:42:59.796Z</time></trkpt><trkpt lat="43.9935585" lon="10.7944291"><ele>966.0</ele><time>2026-04-06T13:43:00.8Z</time></trkpt><trkpt lat="43.9936785" lon="10.7945715"><ele>970.0</ele><time>2026-04-06T13:43:01.788Z</time></trkpt><trkpt lat="43.9937922" lon="10.7946756"><ele>970.0</ele><time>2026-04-06T13:43:02.789Z</time></trkpt><trkpt lat="43.9939181" lon="10.7947731"><ele>970.0</ele><time>2026-04-06T13:43:03.798Z</time></trkpt><trkpt lat="43.9940459" lon="10.7948809"><ele>970.0</ele><time>2026-04-06T13:43:04.796Z</time></trkpt><trkpt lat="43.9941762" lon="10.7949379"><ele>970.0</ele><time>2026-04-06T13:43:05.794Z</time></trkpt><trkpt lat="43.9943577" lon="10.7949659"><ele>967.0</ele><time>2026-04-06T13:43:06.796Z</time></trkpt><trkpt lat="43.9945612" lon="10.795023"><ele>964.0</ele><time>2026-04-06T13:43:07.797Z</time></trkpt><trkpt lat="43.9947053" lon="10.7950184"><ele>961.0</ele><time>2026-04-06T13:43:08.799Z</time></trkpt><trkpt lat="43.994882" lon="10.7950043"><ele>958.5</ele><time>2026-04-06T13:43:09.793Z</time></trkpt><trkpt lat="43.9950482" lon="10.7950223"><ele>956.0</ele><time>2026-04-06T13:43:10.794Z</time></trkpt><trkpt lat="43.9951802" lon="10.7950436"><ele>953.5</ele><time>2026-04-06T13:43:11.793Z</time></trkpt><trkpt lat="43.9952658" lon="10.7951264"><ele>951.0</ele><time>2026-04-06T13:43:12.797Z</time></trkpt><trkpt lat="43.9953097" lon="10.7952881"><ele>951.0</ele><time>2026-04-06T13:43:13.789Z</time></trkpt><trkpt lat="43.9954068" lon="10.7953772"><ele>950.9999999999999</ele><time>2026-04-06T13:43:14.796Z</time></trkpt><trkpt lat="43.9954958" lon="10.7954978"><ele>950.9999999999999</ele><time>2026-04-06T13:43:15.793Z</time></trkpt><trkpt lat="43.9955588" lon="10.7955756"><ele>951.0</ele><time>2026-04-06T13:43:16.797Z</time></trkpt><trkpt lat="43.9955871" lon="10.7956725"><ele>951.0</ele><time>2026-04-06T13:43:17.794Z</time></trkpt><trkpt lat="43.9956262" lon="10.7958487"><ele>950.4</ele><time>2026-04-06T13:43:18.795Z</time></trkpt><trkpt lat="43.995591" lon="10.7960343"><ele>949.8</ele><time>2026-04-06T13:43:19.798Z</time></trkpt><trkpt lat="43.9956215" lon="10.7961913"><ele>949.1999999999999</ele><time>2026-04-06T13:43:20.802Z</time></trkpt><trkpt lat="43.995616" lon="10.7963017"><ele>948.5999999999999</ele><time>2026-04-06T13:43:21.794Z</time></trkpt><trkpt lat="43.9955441" lon="10.7963824"><ele>948.0</ele><time>2026-04-06T13:43:22.801Z</time></trkpt><trkpt lat="43.9954948" lon="10.7964434"><ele>948.0</ele><time>2026-04-06T13:43:23.793Z</time></trkpt><trkpt lat="43.9953273" lon="10.7965254"><ele>948.0</ele><time>2026-04-06T13:43:25.799Z</time></trkpt><trkpt lat="43.9951759" lon="10.7965834"><ele>948.0</ele><time>2026-04-06T13:43:26.801Z</time></trkpt><trkpt lat="43.9950699" lon="10.7966573"><ele>950.1666666666666</ele><time>2026-04-06T13:43:27.796Z</time></trkpt><trkpt lat="43.9949854" lon="10.7967223"><ele>952.3333333333333</ele><time>2026-04-06T13:43:28.793Z</time></trkpt><trkpt lat="43.9949333" lon="10.7967987"><ele>954.5</ele><time>2026-04-06T13:43:29.798Z</time></trkpt><trkpt lat="43.9949168" lon="10.7968917"><ele>956.6666666666666</ele><time>2026-04-06T13:43:30.796Z</time></trkpt><trkpt lat="43.9949066" lon="10.7969984"><ele>958.8333333333333</ele><time>2026-04-06T13:43:32.797Z</time></trkpt><trkpt lat="43.9949699" lon="10.7970585"><ele>961.0</ele><time>2026-04-06T13:43:35.797Z</time></trkpt><trkpt lat="43.9950466" lon="10.7970844"><ele>961.0</ele><time>2026-04-06T13:43:36.798Z</time></trkpt><trkpt lat="43.9952577" lon="10.7971996"><ele>961.0</ele><time>2026-04-06T13:43:38.798Z</time></trkpt><trkpt lat="43.9954991" lon="10.7973001"><ele>961.0</ele><time>2026-04-06T13:43:39.794Z</time></trkpt><trkpt lat="43.9957128" lon="10.7974394"><ele>961.0</ele><time>2026-04-06T13:43:40.8Z</time></trkpt><trkpt lat="43.9958648" lon="10.7975632"><ele>961.0</ele><time>2026-04-06T13:43:41.796Z</time></trkpt><trkpt lat="43.9960004" lon="10.7976956"><ele>956.75</ele><time>2026-04-06T13:43:42.797Z</time></trkpt><trkpt lat="43.9960512" lon="10.7978412"><ele>952.5</ele><time>2026-04-06T13:43:43.794Z</time></trkpt><trkpt lat="43.9960929" lon="10.7980131"><ele>948.25</ele><time>2026-04-06T13:43:44.796Z</time></trkpt><trkpt lat="43.9961362" lon="10.7982084"><ele>944.0</ele><time>2026-04-06T13:43:45.797Z</time></trkpt><trkpt lat="43.9961467" lon="10.7984123"><ele>947.0</ele><time>2026-04-06T13:43:46.798Z</time></trkpt><trkpt lat="43.9961548" lon="10.7986188"><ele>950.0</ele><time>2026-04-06T13:43:47.794Z</time></trkpt><trkpt lat="43.9961626" lon="10.7988141"><ele>953.0</ele><time>2026-04-06T13:43:48.796Z</time></trkpt><trkpt lat="43.9961747" lon="10.7990173"><ele>956.0</ele><time>2026-04-06T13:43:49.796Z</time></trkpt><trkpt lat="43.9961948" lon="10.7991891"><ele>957.5999999999999</ele><time>2026-04-06T13:43:50.797Z</time></trkpt><trkpt lat="43.9962219" lon="10.7993554"><ele>959.1999999999999</ele><time>2026-04-06T13:43:51.793Z</time></trkpt><trkpt lat="43.9962488" lon="10.7995097"><ele>960.8000000000001</ele><time>2026-04-06T13:43:52.793Z</time></trkpt><trkpt lat="43.9962854" lon="10.7996572"><ele>962.4000000000001</ele><time>2026-04-06T13:43:53.796Z</time></trkpt><trkpt lat="43.9963195" lon="10.7997724"><ele>964.0</ele><time>2026-04-06T13:43:54.796Z</time></trkpt><trkpt lat="43.996358" lon="10.7998609"><ele>964.0</ele><time>2026-04-06T13:43:55.79Z</time></trkpt><trkpt lat="43.9964066" lon="10.7999482"><ele>964.0</ele><time>2026-04-06T13:43:56.797Z</time></trkpt><trkpt lat="43.996549" lon="10.8000172"><ele>964.0</ele><time>2026-04-06T13:43:58.799Z</time></trkpt><trkpt lat="43.9966516" lon="10.8000258"><ele>964.0</ele><time>2026-04-06T13:43:59.792Z</time></trkpt><trkpt lat="43.996844" lon="10.7999365"><ele>963.25</ele><time>2026-04-06T13:44:00.798Z</time></trkpt><trkpt lat="43.9969716" lon="10.7998482"><ele>962.5</ele><time>2026-04-06T13:44:01.792Z</time></trkpt><trkpt lat="43.9970542" lon="10.7997869"><ele>961.75</ele><time>2026-04-06T13:44:02.794Z</time></trkpt><trkpt lat="43.9971802" lon="10.7996734"><ele>961.0</ele><time>2026-04-06T13:44:03.793Z</time></trkpt><trkpt lat="43.9972809" lon="10.7995836"><ele>961.0</ele><time>2026-04-06T13:44:04.798Z</time></trkpt><trkpt lat="43.9973991" lon="10.7994724"><ele>961.0</ele><time>2026-04-06T13:44:05.793Z</time></trkpt><trkpt lat="43.9975018" lon="10.7993861"><ele>961.0</ele><time>2026-04-06T13:44:06.807Z</time></trkpt><trkpt lat="43.997566" lon="10.7993156"><ele>961.0</ele><time>2026-04-06T13:44:07.796Z</time></trkpt><trkpt lat="43.9976623" lon="10.7992456"><ele>960.1999999999999</ele><time>2026-04-06T13:44:09.794Z</time></trkpt><trkpt lat="43.9977278" lon="10.7992134"><ele>959.3999999999999</ele><time>2026-04-06T13:44:10.795Z</time></trkpt><trkpt lat="43.9978692" lon="10.7992496"><ele>958.6</ele><time>2026-04-06T13:44:12.794Z</time></trkpt><trkpt lat="43.9979536" lon="10.7993201"><ele>957.8</ele><time>2026-04-06T13:44:13.798Z</time></trkpt><trkpt lat="43.9980208" lon="10.7994114"><ele>957.0</ele><time>2026-04-06T13:44:14.794Z</time></trkpt><trkpt lat="43.9980902" lon="10.7994971"><ele>957.0</ele><time>2026-04-06T13:44:15.801Z</time></trkpt><trkpt lat="43.9981729" lon="10.7995917"><ele>957.0</ele><time>2026-04-06T13:44:16.802Z</time></trkpt><trkpt lat="43.9982392" lon="10.7997025"><ele>957.0</ele><time>2026-04-06T13:44:17.799Z</time></trkpt><trkpt lat="43.9983152" lon="10.7998121"><ele>957.0</ele><time>2026-04-06T13:44:18.802Z</time></trkpt><trkpt lat="43.9983796" lon="10.7999319"><ele>957.0</ele><time>2026-04-06T13:44:19.795Z</time></trkpt><trkpt lat="43.9984312" lon="10.8001023"><ele>954.75</ele><time>2026-04-06T13:44:20.798Z</time></trkpt><trkpt lat="43.9985295" lon="10.8002774"><ele>952.5</ele><time>2026-04-06T13:44:21.79Z</time></trkpt><trkpt lat="43.998635" lon="10.8004178"><ele>950.25</ele><time>2026-04-06T13:44:22.798Z</time></trkpt><trkpt lat="43.9987036" lon="10.8005541"><ele>948.0</ele><time>2026-04-06T13:44:23.789Z</time></trkpt><trkpt lat="43.9987614" lon="10.8006836"><ele>948.0</ele><time>2026-04-06T13:44:24.794Z</time></trkpt><trkpt lat="43.9987745" lon="10.8008277"><ele>948.0</ele><time>2026-04-06T13:44:25.795Z</time></trkpt><trkpt lat="43.998803" lon="10.800954"><ele>948.0</ele><time>2026-04-06T13:44:26.794Z</time></trkpt><trkpt lat="43.9988197" lon="10.8010848"><ele>948.0</ele><time>2026-04-06T13:44:27.795Z</time></trkpt><trkpt lat="43.9988569" lon="10.8012218"><ele>948.0</ele><time>2026-04-06T13:44:28.793Z</time></trkpt><trkpt lat="43.9988962" lon="10.8013567"><ele>949.25</ele><time>2026-04-06T13:44:29.793Z</time></trkpt><trkpt lat="43.9989371" lon="10.8014556"><ele>950.5</ele><time>2026-04-06T13:44:30.799Z</time></trkpt><trkpt lat="43.9989896" lon="10.8015429"><ele>951.75</ele><time>2026-04-06T13:44:32.786Z</time></trkpt><trkpt lat="43.9991551" lon="10.8012621"><ele>953.0</ele><time>2026-04-06T13:44:36.79Z</time></trkpt><trkpt lat="43.9992237" lon="10.8010096"><ele>951.3333333333334</ele><time>2026-04-06T13:44:37.801Z</time></trkpt><trkpt lat="43.9993457" lon="10.8007984"><ele>949.6666666666667</ele><time>2026-04-06T13:44:38.802Z</time></trkpt><trkpt lat="43.9994309" lon="10.8006209"><ele>948.0</ele><time>2026-04-06T13:44:39.79Z</time></trkpt><trkpt lat="43.9995079" lon="10.8004597"><ele>948.0</ele><time>2026-04-06T13:44:40.79Z</time></trkpt><trkpt lat="43.9995796" lon="10.8003345"><ele>948.0</ele><time>2026-04-06T13:44:41.789Z</time></trkpt><trkpt lat="43.9996661" lon="10.8002307"><ele>948.0</ele><time>2026-04-06T13:44:42.793Z</time></trkpt><trkpt lat="43.9997664" lon="10.8001398"><ele>948.0</ele><time>2026-04-06T13:44:43.796Z</time></trkpt><trkpt lat="43.9998222" lon="10.8000795"><ele>948.0</ele><time>2026-04-06T13:44:44.788Z</time></trkpt><trkpt lat="43.9999042" lon="10.8001701"><ele>948.0</ele><time>2026-04-06T13:44:46.799Z</time></trkpt><trkpt lat="43.9999432" lon="10.8002921"><ele>948.0</ele><time>2026-04-06T13:44:47.799Z</time></trkpt><trkpt lat="44.0000267" lon="10.8004429"><ele>948.0</ele><time>2026-04-06T13:44:48.805Z</time></trkpt><trkpt lat="44.0000325" lon="10.800711"><ele>948.0</ele><time>2026-04-06T13:44:49.794Z</time></trkpt><trkpt lat="44.0000921" lon="10.8009133"><ele>950.0</ele><time>2026-04-06T13:44:50.801Z</time></trkpt><trkpt lat="44.0001433" lon="10.801084"><ele>952.0</ele><time>2026-04-06T13:44:51.803Z</time></trkpt><trkpt lat="44.0001904" lon="10.8012896"><ele>954.0</ele><time>2026-04-06T13:44:52.8Z</time></trkpt><trkpt lat="44.0002302" lon="10.8014715"><ele>956.0</ele><time>2026-04-06T13:44:53.792Z</time></trkpt><trkpt lat="44.0002452" lon="10.8016389"><ele>956.0</ele><time>2026-04-06T13:44:54.799Z</time></trkpt><trkpt lat="44.0003057" lon="10.8018059"><ele>956.0</ele><time>2026-04-06T13:44:55.793Z</time></trkpt><trkpt lat="44.0003367" lon="10.801981"><ele>956.0</ele><time>2026-04-06T13:44:56.796Z</time></trkpt><trkpt lat="44.0003511" lon="10.8021377"><ele>956.0</ele><time>2026-04-06T13:44:57.791Z</time></trkpt><trkpt lat="44.0003391" lon="10.8023195"><ele>956.75</ele><time>2026-04-06T13:44:58.795Z</time></trkpt><trkpt lat="44.0003694" lon="10.8024839"><ele>957.5</ele><time>2026-04-06T13:44:59.798Z</time></trkpt><trkpt lat="44.0003631" lon="10.8026508"><ele>958.25</ele><time>2026-04-06T13:45:00.794Z</time></trkpt><trkpt lat="44.0003408" lon="10.802811"><ele>959.0</ele><time>2026-04-06T13:45:01.794Z</time></trkpt><trkpt lat="44.0003484" lon="10.8029993"><ele>959.0</ele><time>2026-04-06T13:45:02.795Z</time></trkpt><trkpt lat="44.0004399" lon="10.8031664"><ele>959.0</ele><time>2026-04-06T13:45:03.792Z</time></trkpt><trkpt lat="44.0005572" lon="10.8032577"><ele>959.0</ele><time>2026-04-06T13:45:04.799Z</time></trkpt><trkpt lat="44.0005377" lon="10.8034213"><ele>959.0</ele><time>2026-04-06T13:45:05.793Z</time></trkpt><trkpt lat="44.0005159" lon="10.8035596"><ele>959.0</ele><time>2026-04-06T13:45:06.8Z</time></trkpt><trkpt lat="44.000449" lon="10.8037154"><ele>959.0</ele><time>2026-04-06T13:45:07.799Z</time></trkpt><trkpt lat="44.0003848" lon="10.803894"><ele>959.0</ele><time>2026-04-06T13:45:08.792Z</time></trkpt><trkpt lat="44.0003747" lon="10.8040826"><ele>959.0</ele><time>2026-04-06T13:45:09.796Z</time></trkpt><trkpt lat="44.0004061" lon="10.804272"><ele>957.6666666666667</ele><time>2026-04-06T13:45:10.799Z</time></trkpt><trkpt lat="44.0003324" lon="10.8044892"><ele>956.3333333333333</ele><time>2026-04-06T13:45:11.791Z</time></trkpt><trkpt lat="44.0003392" lon="10.8047307"><ele>955.0</ele><time>2026-04-06T13:45:12.796Z</time></trkpt><trkpt lat="44.0003279" lon="10.8049556"><ele>952.5</ele><time>2026-04-06T13:45:13.794Z</time></trkpt><trkpt lat="44.0002713" lon="10.8051728"><ele>950.0</ele><time>2026-04-06T13:45:14.801Z</time></trkpt><trkpt lat="44.0002129" lon="10.8053798"><ele>947.5</ele><time>2026-04-06T13:45:15.79Z</time></trkpt><trkpt lat="44.0002167" lon="10.8055479"><ele>945.0</ele><time>2026-04-06T13:45:16.799Z</time></trkpt><trkpt lat="44.000212" lon="10.8057113"><ele>945.0</ele><time>2026-04-06T13:45:17.792Z</time></trkpt><trkpt lat="44.0002133" lon="10.8058426"><ele>945.0</ele><time>2026-04-06T13:45:18.793Z</time></trkpt><trkpt lat="44.0002036" lon="10.805948"><ele>945.0</ele><time>2026-04-06T13:45:19.795Z</time></trkpt><trkpt lat="44.0002184" lon="10.80605"><ele>945.0</ele><time>2026-04-06T13:45:20.796Z</time></trkpt><trkpt lat="44.0005447" lon="10.8058797"><ele>945.0</ele><time>2026-04-06T13:45:26.797Z</time></trkpt><trkpt lat="44.0006938" lon="10.8057689"><ele>945.0</ele><time>2026-04-06T13:45:27.794Z</time></trkpt><trkpt lat="44.0008455" lon="10.8056612"><ele>945.0</ele><time>2026-04-06T13:45:28.794Z</time></trkpt><trkpt lat="44.001011" lon="10.8054662"><ele>945.0</ele><time>2026-04-06T13:45:29.793Z</time></trkpt><trkpt lat="44.0011407" lon="10.8053383"><ele>945.0</ele><time>2026-04-06T13:45:30.798Z</time></trkpt><trkpt lat="44.0013007" lon="10.8052296"><ele>945.0</ele><time>2026-04-06T13:45:31.791Z</time></trkpt><trkpt lat="44.0014192" lon="10.8051253"><ele>944.25</ele><time>2026-04-06T13:45:32.797Z</time></trkpt><trkpt lat="44.0015551" lon="10.8050297"><ele>943.5</ele><time>2026-04-06T13:45:33.796Z</time></trkpt><trkpt lat="44.0016692" lon="10.8049619"><ele>942.75</ele><time>2026-04-06T13:45:34.802Z</time></trkpt><trkpt lat="44.0017981" lon="10.8049598"><ele>942.0</ele><time>2026-04-06T13:45:35.796Z</time></trkpt><trkpt lat="44.0019025" lon="10.8049865"><ele>942.0</ele><time>2026-04-06T13:45:36.802Z</time></trkpt><trkpt lat="44.0020106" lon="10.805065"><ele>942.0</ele><time>2026-04-06T13:45:37.798Z</time></trkpt><trkpt lat="44.0021148" lon="10.8051394"><ele>942.0</ele><time>2026-04-06T13:45:38.794Z</time></trkpt><trkpt lat="44.0022108" lon="10.8052627"><ele>942.0</ele><time>2026-04-06T13:45:39.796Z</time></trkpt><trkpt lat="44.0023088" lon="10.8054165"><ele>945.2</ele><time>2026-04-06T13:45:40.795Z</time></trkpt><trkpt lat="44.002408" lon="10.8055491"><ele>948.4000000000001</ele><time>2026-04-06T13:45:41.794Z</time></trkpt><trkpt lat="44.0024709" lon="10.8056385"><ele>951.5999999999999</ele><time>2026-04-06T13:45:42.8Z</time></trkpt><trkpt lat="44.0025675" lon="10.8057496"><ele>954.8</ele><time>2026-04-06T13:45:44.792Z</time></trkpt><trkpt lat="44.0026569" lon="10.8057323"><ele>958.0</ele><time>2026-04-06T13:45:46.795Z</time></trkpt><trkpt lat="44.0027707" lon="10.8056679"><ele>958.0</ele><time>2026-04-06T13:45:48.801Z</time></trkpt><trkpt lat="44.0028519" lon="10.805538"><ele>958.0</ele><time>2026-04-06T13:45:49.798Z</time></trkpt><trkpt lat="44.0029152" lon="10.8053266"><ele>958.0</ele><time>2026-04-06T13:45:50.788Z</time></trkpt><trkpt lat="44.0029796" lon="10.8051359"><ele>958.0</ele><time>2026-04-06T13:45:51.796Z</time></trkpt><trkpt lat="44.0030577" lon="10.8049662"><ele>957.0</ele><time>2026-04-06T13:45:52.797Z</time></trkpt><trkpt lat="44.0031287" lon="10.8047848"><ele>956.0</ele><time>2026-04-06T13:45:53.794Z</time></trkpt><trkpt lat="44.00324" lon="10.804621"><ele>955.0</ele><time>2026-04-06T13:45:54.798Z</time></trkpt><trkpt lat="44.0033125" lon="10.8044584"><ele>954.0</ele><time>2026-04-06T13:45:55.796Z</time></trkpt><trkpt lat="44.0033918" lon="10.8043088"><ele>954.0</ele><time>2026-04-06T13:45:56.792Z</time></trkpt><trkpt lat="44.0034748" lon="10.8041948"><ele>954.0000000000001</ele><time>2026-04-06T13:45:57.795Z</time></trkpt><trkpt lat="44.0035783" lon="10.8041032"><ele>954.0000000000001</ele><time>2026-04-06T13:45:58.796Z</time></trkpt><trkpt lat="44.0036748" lon="10.804035"><ele>954.0</ele><time>2026-04-06T13:45:59.795Z</time></trkpt><trkpt lat="44.0037613" lon="10.8039944"><ele>954.0</ele><time>2026-04-06T13:46:00.792Z</time></trkpt><trkpt lat="44.0038444" lon="10.8040048"><ele>954.0</ele><time>2026-04-06T13:46:01.795Z</time></trkpt><trkpt lat="44.0039555" lon="10.8041593"><ele>954.0</ele><time>2026-04-06T13:46:03.798Z</time></trkpt><trkpt lat="44.0039609" lon="10.8043152"><ele>954.0</ele><time>2026-04-06T13:46:04.796Z</time></trkpt><trkpt lat="44.0039807" lon="10.8044774"><ele>954.0</ele><time>2026-04-06T13:46:05.793Z</time></trkpt><trkpt lat="44.0039967" lon="10.8046269"><ele>953.4000000000001</ele><time>2026-04-06T13:46:06.796Z</time></trkpt><trkpt lat="44.0040309" lon="10.8047864"><ele>952.8000000000001</ele><time>2026-04-06T13:46:07.796Z</time></trkpt><trkpt lat="44.0040878" lon="10.8049353"><ele>952.1999999999999</ele><time>2026-04-06T13:46:08.795Z</time></trkpt><trkpt lat="44.0041406" lon="10.8050372"><ele>951.5999999999999</ele><time>2026-04-06T13:46:09.796Z</time></trkpt><trkpt lat="44.004199" lon="10.8051405"><ele>951.0</ele><time>2026-04-06T13:46:10.794Z</time></trkpt><trkpt lat="44.0042669" lon="10.8052217"><ele>952.5999999999999</ele><time>2026-04-06T13:46:11.795Z</time></trkpt><trkpt lat="44.0043446" lon="10.8052961"><ele>954.1999999999999</ele><time>2026-04-06T13:46:12.797Z</time></trkpt><trkpt lat="44.0044239" lon="10.8053553"><ele>955.8000000000001</ele><time>2026-04-06T13:46:13.794Z</time></trkpt><trkpt lat="44.0045128" lon="10.8053856"><ele>957.4000000000001</ele><time>2026-04-06T13:46:14.797Z</time></trkpt><trkpt lat="44.0045707" lon="10.8054552"><ele>959.0</ele><time>2026-04-06T13:46:16.799Z</time></trkpt><trkpt lat="44.0046872" lon="10.80548"><ele>959.0</ele><time>2026-04-06T13:46:18.792Z</time></trkpt><trkpt lat="44.0047706" lon="10.8054681"><ele>959.0000000000001</ele><time>2026-04-06T13:46:20.801Z</time></trkpt><trkpt lat="44.0048845" lon="10.8053864"><ele>959.0000000000001</ele><time>2026-04-06T13:46:22.797Z</time></trkpt><trkpt lat="44.0049708" lon="10.8053197"><ele>959.0</ele><time>2026-04-06T13:46:23.798Z</time></trkpt><trkpt lat="44.0050823" lon="10.8052436"><ele>959.0</ele><time>2026-04-06T13:46:24.793Z</time></trkpt><trkpt lat="44.0051959" lon="10.8051547"><ele>957.8000000000001</ele><time>2026-04-06T13:46:25.793Z</time></trkpt><trkpt lat="44.0053072" lon="10.8050537"><ele>956.6000000000001</ele><time>2026-04-06T13:46:26.792Z</time></trkpt><trkpt lat="44.0053767" lon="10.8049315"><ele>955.4</ele><time>2026-04-06T13:46:27.793Z</time></trkpt><trkpt lat="44.0054502" lon="10.8048166"><ele>954.2</ele><time>2026-04-06T13:46:28.786Z</time></trkpt><trkpt lat="44.0055152" lon="10.8047265"><ele>953.0</ele><time>2026-04-06T13:46:29.793Z</time></trkpt><trkpt lat="44.0055744" lon="10.804639"><ele>953.0000000000001</ele><time>2026-04-06T13:46:30.805Z</time></trkpt><trkpt lat="44.0056286" lon="10.8045642"><ele>953.0</ele><time>2026-04-06T13:46:31.795Z</time></trkpt><trkpt lat="44.0056911" lon="10.8045111"><ele>953.0</ele><time>2026-04-06T13:46:32.794Z</time></trkpt><trkpt lat="44.0057584" lon="10.804466"><ele>953.0</ele><time>2026-04-06T13:46:33.792Z</time></trkpt><trkpt lat="44.0058299" lon="10.8044253"><ele>953.0000000000001</ele><time>2026-04-06T13:46:34.794Z</time></trkpt><trkpt lat="44.0059158" lon="10.8043809"><ele>953.0</ele><time>2026-04-06T13:46:35.798Z</time></trkpt><trkpt lat="44.0059863" lon="10.8043455"><ele>952.4</ele><time>2026-04-06T13:46:36.798Z</time></trkpt><trkpt lat="44.0060842" lon="10.8043148"><ele>951.8</ele><time>2026-04-06T13:46:37.792Z</time></trkpt><trkpt lat="44.0061827" lon="10.8042867"><ele>951.2</ele><time>2026-04-06T13:46:38.791Z</time></trkpt><trkpt lat="44.0062721" lon="10.8042713"><ele>950.6</ele><time>2026-04-06T13:46:39.796Z</time></trkpt><trkpt lat="44.0063654" lon="10.8042465"><ele>950.0</ele><time>2026-04-06T13:46:40.795Z</time></trkpt><trkpt lat="44.0064564" lon="10.8042265"><ele>950.0</ele><time>2026-04-06T13:46:41.798Z</time></trkpt><trkpt lat="44.006543" lon="10.8042153"><ele>950.0</ele><time>2026-04-06T13:46:42.798Z</time></trkpt><trkpt lat="44.0066184" lon="10.8042134"><ele>950.0</ele><time>2026-04-06T13:46:43.793Z</time></trkpt><trkpt lat="44.0066839" lon="10.8042189"><ele>950.0</ele><time>2026-04-06T13:46:44.794Z</time></trkpt><trkpt lat="44.0068089" lon="10.8042245"><ele>950.0</ele><time>2026-04-06T13:46:46.796Z</time></trkpt><trkpt lat="44.0069083" lon="10.8042257"><ele>951.2</ele><time>2026-04-06T13:46:48.793Z</time></trkpt><trkpt lat="44.0069748" lon="10.8042484"><ele>952.4</ele><time>2026-04-06T13:46:50.797Z</time></trkpt><trkpt lat="44.0070841" lon="10.8042694"><ele>953.5999999999999</ele><time>2026-04-06T13:47:07.797Z</time></trkpt><trkpt lat="44.0071478" lon="10.804285"><ele>954.8</ele><time>2026-04-06T13:47:10.798Z</time></trkpt><trkpt lat="44.0073112" lon="10.8042966"><ele>956.0</ele><time>2026-04-06T13:47:12.798Z</time></trkpt><trkpt lat="44.0074476" lon="10.8042456"><ele>956.0000000000001</ele><time>2026-04-06T13:47:14.802Z</time></trkpt><trkpt lat="44.0075368" lon="10.8042266"><ele>956.0</ele><time>2026-04-06T13:47:15.799Z</time></trkpt><trkpt lat="44.0076573" lon="10.8041878"><ele>956.0</ele><time>2026-04-06T13:47:16.8Z</time></trkpt><trkpt lat="44.0077239" lon="10.8041792"><ele>956.0</ele><time>2026-04-06T13:47:17.796Z</time></trkpt><trkpt lat="44.0077903" lon="10.8041242"><ele>956.0000000000001</ele><time>2026-04-06T13:47:18.797Z</time></trkpt><trkpt lat="44.0078554" lon="10.8040698"><ele>956.0</ele><time>2026-04-06T13:47:19.793Z</time></trkpt><trkpt lat="44.0079312" lon="10.8039958"><ele>956.0000000000001</ele><time>2026-04-06T13:47:20.791Z</time></trkpt><trkpt lat="44.007965" lon="10.8039172"><ele>956.0</ele><time>2026-04-06T13:47:21.798Z</time></trkpt><trkpt lat="44.0080404" lon="10.8038411"><ele>956.0</ele><time>2026-04-06T13:47:22.797Z</time></trkpt><trkpt lat="44.0080945" lon="10.8037786"><ele>956.0</ele><time>2026-04-06T13:47:23.798Z</time></trkpt><trkpt lat="44.0081546" lon="10.8036841"><ele>956.0000000000001</ele><time>2026-04-06T13:47:24.797Z</time></trkpt><trkpt lat="44.0082084" lon="10.8036021"><ele>956.0</ele><time>2026-04-06T13:47:25.794Z</time></trkpt><trkpt lat="44.0082695" lon="10.8034831"><ele>955.0</ele><time>2026-04-06T13:47:27.796Z</time></trkpt><trkpt lat="44.0082941" lon="10.803402"><ele>953.9999999999999</ele><time>2026-04-06T13:47:28.796Z</time></trkpt><trkpt lat="44.008339" lon="10.8032584"><ele>952.9999999999999</ele><time>2026-04-06T13:47:30.796Z</time></trkpt><trkpt lat="44.0083351" lon="10.8031026"><ele>952.0</ele><time>2026-04-06T13:47:32.795Z</time></trkpt><trkpt lat="44.0083041" lon="10.802964"><ele>951.0</ele><time>2026-04-06T13:47:34.796Z</time></trkpt><trkpt lat="44.008226" lon="10.8028786"><ele>951.0</ele><time>2026-04-06T13:47:35.797Z</time></trkpt><trkpt lat="44.0081588" lon="10.8028317"><ele>951.0</ele><time>2026-04-06T13:47:36.794Z</time></trkpt><trkpt lat="44.0080648" lon="10.802782"><ele>951.0</ele><time>2026-04-06T13:47:37.795Z</time></trkpt><trkpt lat="44.0079984" lon="10.8027289"><ele>951.0</ele><time>2026-04-06T13:47:38.795Z</time></trkpt><trkpt lat="44.0079441" lon="10.8026671"><ele>951.0</ele><time>2026-04-06T13:47:39.792Z</time></trkpt><trkpt lat="44.0078539" lon="10.8025589"><ele>951.0</ele><time>2026-04-06T13:47:41.795Z</time></trkpt><trkpt lat="44.0078" lon="10.80245"><ele>951.8</ele><time>2026-04-06T13:47:43.792Z</time></trkpt><trkpt lat="44.0077872" lon="10.8022881"><ele>952.5999999999999</ele><time>2026-04-06T13:47:45.797Z</time></trkpt><trkpt lat="44.0078043" lon="10.8021556"><ele>953.4</ele><time>2026-04-06T13:47:46.793Z</time></trkpt><trkpt lat="44.0078068" lon="10.8020437"><ele>954.2</ele><time>2026-04-06T13:47:47.793Z</time></trkpt><trkpt lat="44.0078162" lon="10.8019234"><ele>955.0</ele><time>2026-04-06T13:47:48.792Z</time></trkpt><trkpt lat="44.0078256" lon="10.8017991"><ele>955.0</ele><time>2026-04-06T13:47:49.79Z</time></trkpt><trkpt lat="44.0078389" lon="10.8016686"><ele>955.0</ele><time>2026-04-06T13:47:50.794Z</time></trkpt><trkpt lat="44.0078576" lon="10.801545"><ele>955.0</ele><time>2026-04-06T13:47:51.806Z</time></trkpt><trkpt lat="44.0078704" lon="10.8014265"><ele>955.0</ele><time>2026-04-06T13:47:52.878Z</time></trkpt><trkpt lat="44.0078833" lon="10.8013071"><ele>955.0</ele><time>2026-04-06T13:47:53.798Z</time></trkpt><trkpt lat="44.0079295" lon="10.8011179"><ele>955.0</ele><time>2026-04-06T13:47:55.797Z</time></trkpt><trkpt lat="44.007987" lon="10.8010322"><ele>955.0</ele><time>2026-04-06T13:47:56.797Z</time></trkpt><trkpt lat="44.0080485" lon="10.8009235"><ele>955.0</ele><time>2026-04-06T13:47:57.79Z</time></trkpt><trkpt lat="44.0081067" lon="10.8008356"><ele>955.0</ele><time>2026-04-06T13:47:58.789Z</time></trkpt><trkpt lat="44.0081633" lon="10.8007268"><ele>955.0</ele><time>2026-04-06T13:47:59.795Z</time></trkpt><trkpt lat="44.0082223" lon="10.8006327"><ele>953.8</ele><time>2026-04-06T13:48:00.795Z</time></trkpt><trkpt lat="44.0083094" lon="10.8005389"><ele>952.6</ele><time>2026-04-06T13:48:01.794Z</time></trkpt><trkpt lat="44.0083615" lon="10.8004223"><ele>951.4000000000001</ele><time>2026-04-06T13:48:02.798Z</time></trkpt><trkpt lat="44.0083934" lon="10.8002959"><ele>950.2</ele><time>2026-04-06T13:48:03.793Z</time></trkpt><trkpt lat="44.008413" lon="10.8001444"><ele>949.0</ele><time>2026-04-06T13:48:04.801Z</time></trkpt><trkpt lat="44.0084246" lon="10.7999903"><ele>953.75</ele><time>2026-04-06T13:48:05.794Z</time></trkpt><trkpt lat="44.0084326" lon="10.7998264"><ele>958.5</ele><time>2026-04-06T13:48:06.794Z</time></trkpt><trkpt lat="44.0084498" lon="10.7996647"><ele>963.25</ele><time>2026-04-06T13:48:07.793Z</time></trkpt><trkpt lat="44.0084495" lon="10.7995045"><ele>968.0</ele><time>2026-04-06T13:48:08.796Z</time></trkpt><trkpt lat="44.0084462" lon="10.7993442"><ele>967.2</ele><time>2026-04-06T13:48:09.79Z</time></trkpt><trkpt lat="44.0084449" lon="10.7991892"><ele>966.4</ele><time>2026-04-06T13:48:10.794Z</time></trkpt><trkpt lat="44.008418" lon="10.7990419"><ele>965.6000000000001</ele><time>2026-04-06T13:48:11.792Z</time></trkpt><trkpt lat="44.0083971" lon="10.7989205"><ele>964.8000000000001</ele><time>2026-04-06T13:48:12.797Z</time></trkpt><trkpt lat="44.0083743" lon="10.798833"><ele>964.0</ele><time>2026-04-06T13:48:13.79Z</time></trkpt><trkpt lat="44.0083048" lon="10.7987003"><ele>961.5</ele><time>2026-04-06T13:48:14.79Z</time></trkpt><trkpt lat="44.0082132" lon="10.7985696"><ele>959.0</ele><time>2026-04-06T13:48:15.788Z</time></trkpt><trkpt lat="44.0081364" lon="10.7984108"><ele>956.5</ele><time>2026-04-06T13:48:16.79Z</time></trkpt><trkpt lat="44.0080744" lon="10.7982341"><ele>954.0</ele><time>2026-04-06T13:48:17.79Z</time></trkpt><trkpt lat="44.0080344" lon="10.7980644"><ele>954.0</ele><time>2026-04-06T13:48:18.787Z</time></trkpt><trkpt lat="44.0080062" lon="10.7978858"><ele>954.0</ele><time>2026-04-06T13:48:19.791Z</time></trkpt><trkpt lat="44.0079958" lon="10.7977114"><ele>954.0</ele><time>2026-04-06T13:48:20.79Z</time></trkpt><trkpt lat="44.0079649" lon="10.797532"><ele>954.0</ele><time>2026-04-06T13:48:21.794Z</time></trkpt><trkpt lat="44.0080193" lon="10.7973511"><ele>952.75</ele><time>2026-04-06T13:48:22.802Z</time></trkpt><trkpt lat="44.0080559" lon="10.7971573"><ele>951.5</ele><time>2026-04-06T13:48:23.797Z</time></trkpt><trkpt lat="44.0080704" lon="10.7969636"><ele>950.25</ele><time>2026-04-06T13:48:24.795Z</time></trkpt><trkpt lat="44.0080971" lon="10.7967831"><ele>949.0</ele><time>2026-04-06T13:48:25.789Z</time></trkpt><trkpt lat="44.0081343" lon="10.7965885"><ele>949.6</ele><time>2026-04-06T13:48:26.79Z</time></trkpt><trkpt lat="44.0081645" lon="10.7964156"><ele>950.2</ele><time>2026-04-06T13:48:27.788Z</time></trkpt><trkpt lat="44.0082063" lon="10.7962597"><ele>950.8000000000001</ele><time>2026-04-06T13:48:28.794Z</time></trkpt><trkpt lat="44.0082713" lon="10.7961347"><ele>951.4000000000001</ele><time>2026-04-06T13:48:29.79Z</time></trkpt><trkpt lat="44.0083209" lon="10.7960346"><ele>952.0</ele><time>2026-04-06T13:48:30.791Z</time></trkpt><trkpt lat="44.0084059" lon="10.7960302"><ele>950.8</ele><time>2026-04-06T13:48:31.794Z</time></trkpt><trkpt lat="44.008496" lon="10.7959822"><ele>949.6</ele><time>2026-04-06T13:48:32.797Z</time></trkpt><trkpt lat="44.0086134" lon="10.7959505"><ele>948.3999999999999</ele><time>2026-04-06T13:48:33.788Z</time></trkpt><trkpt lat="44.0087245" lon="10.7959094"><ele>947.1999999999999</ele><time>2026-04-06T13:48:34.79Z</time></trkpt><trkpt lat="44.0088218" lon="10.7958397"><ele>946.0</ele><time>2026-04-06T13:48:35.79Z</time></trkpt><trkpt lat="44.0089057" lon="10.7957783"><ele>946.0</ele><time>2026-04-06T13:48:36.794Z</time></trkpt><trkpt lat="44.0089547" lon="10.7956772"><ele>945.9999999999999</ele><time>2026-04-06T13:48:37.791Z</time></trkpt><trkpt lat="44.0090248" lon="10.795567"><ele>945.9999999999999</ele><time>2026-04-06T13:48:38.809Z</time></trkpt><trkpt lat="44.0090606" lon="10.7954335"><ele>946.0</ele><time>2026-04-06T13:48:39.806Z</time></trkpt><trkpt lat="44.0090695" lon="10.79532"><ele>946.0</ele><time>2026-04-06T13:48:40.795Z</time></trkpt><trkpt lat="44.0090517" lon="10.7952017"><ele>944.0</ele><time>2026-04-06T13:48:41.801Z</time></trkpt><trkpt lat="44.00902" lon="10.7950888"><ele>941.9999999999999</ele><time>2026-04-06T13:48:42.791Z</time></trkpt><trkpt lat="44.0089444" lon="10.7949533"><ele>939.9999999999999</ele><time>2026-04-06T13:48:43.799Z</time></trkpt><trkpt lat="44.0088854" lon="10.7948282"><ele>938.0</ele><time>2026-04-06T13:48:44.795Z</time></trkpt><trkpt lat="44.0088419" lon="10.794708"><ele>936.0</ele><time>2026-04-06T13:48:45.794Z</time></trkpt><trkpt lat="44.0088236" lon="10.7945971"><ele>936.0</ele><time>2026-04-06T13:48:46.799Z</time></trkpt><trkpt lat="44.0088154" lon="10.7944869"><ele>935.9999999999999</ele><time>2026-04-06T13:48:47.793Z</time></trkpt><trkpt lat="44.008851" lon="10.7944118"><ele>935.9999999999999</ele><time>2026-04-06T13:48:48.797Z</time></trkpt><trkpt lat="44.008927" lon="10.7942947"><ele>936.0</ele><time>2026-04-06T13:48:50.793Z</time></trkpt><trkpt lat="44.009055" lon="10.7942426"><ele>936.0</ele><time>2026-04-06T13:48:52.797Z</time></trkpt><trkpt lat="44.0091558" lon="10.7942454"><ele>936.5999999999999</ele><time>2026-04-06T13:48:53.793Z</time></trkpt><trkpt lat="44.0092627" lon="10.7942511"><ele>937.1999999999999</ele><time>2026-04-06T13:48:54.796Z</time></trkpt><trkpt lat="44.0093721" lon="10.7942622"><ele>937.8000000000001</ele><time>2026-04-06T13:48:55.792Z</time></trkpt><trkpt lat="44.0094488" lon="10.7942822"><ele>938.4000000000001</ele><time>2026-04-06T13:48:56.8Z</time></trkpt><trkpt lat="44.009524" lon="10.7943295"><ele>939.0</ele><time>2026-04-06T13:48:57.798Z</time></trkpt><trkpt lat="44.009599" lon="10.7943786"><ele>940.4000000000001</ele><time>2026-04-06T13:48:58.791Z</time></trkpt><trkpt lat="44.0096725" lon="10.7944341"><ele>941.8000000000001</ele><time>2026-04-06T13:48:59.799Z</time></trkpt><trkpt lat="44.0097546" lon="10.7944847"><ele>943.1999999999999</ele><time>2026-04-06T13:49:00.798Z</time></trkpt><trkpt lat="44.0098407" lon="10.7945395"><ele>944.5999999999999</ele><time>2026-04-06T13:49:01.797Z</time></trkpt><trkpt lat="44.009924" lon="10.7945535"><ele>946.0</ele><time>2026-04-06T13:49:02.794Z</time></trkpt><trkpt lat="44.0100216" lon="10.7945544"><ele>947.1999999999999</ele><time>2026-04-06T13:49:03.793Z</time></trkpt><trkpt lat="44.0101111" lon="10.7945545"><ele>948.3999999999999</ele><time>2026-04-06T13:49:04.798Z</time></trkpt><trkpt lat="44.0102185" lon="10.7945523"><ele>949.6</ele><time>2026-04-06T13:49:05.793Z</time></trkpt><trkpt lat="44.0103194" lon="10.7945786"><ele>950.8</ele><time>2026-04-06T13:49:06.793Z</time></trkpt><trkpt lat="44.0104175" lon="10.7946036"><ele>952.0</ele><time>2026-04-06T13:49:07.799Z</time></trkpt><trkpt lat="44.0105065" lon="10.7946284"><ele>952.0</ele><time>2026-04-06T13:49:08.794Z</time></trkpt><trkpt lat="44.0106176" lon="10.7946442"><ele>952.0</ele><time>2026-04-06T13:49:09.792Z</time></trkpt><trkpt lat="44.010729" lon="10.7946769"><ele>952.0</ele><time>2026-04-06T13:49:10.793Z</time></trkpt><trkpt lat="44.0107992" lon="10.7946507"><ele>952.0</ele><time>2026-04-06T13:49:11.792Z</time></trkpt><trkpt lat="44.0108927" lon="10.7946274"><ele>952.0</ele><time>2026-04-06T13:49:12.793Z</time></trkpt><trkpt lat="44.0109908" lon="10.7946097"><ele>951.4999999999999</ele><time>2026-04-06T13:49:13.812Z</time></trkpt><trkpt lat="44.0110787" lon="10.7946058"><ele>951.0</ele><time>2026-04-06T13:49:14.796Z</time></trkpt><trkpt lat="44.0111564" lon="10.7946256"><ele>950.5</ele><time>2026-04-06T13:49:15.794Z</time></trkpt><trkpt lat="44.0112396" lon="10.7946939"><ele>950.0</ele><time>2026-04-06T13:49:16.794Z</time></trkpt><trkpt lat="44.0113274" lon="10.7947472"><ele>949.4999999999999</ele><time>2026-04-06T13:49:17.797Z</time></trkpt><trkpt lat="44.0114034" lon="10.7947734"><ele>949.0</ele><time>2026-04-06T13:49:18.794Z</time></trkpt><trkpt lat="44.0114659" lon="10.7947605"><ele>949.0</ele><time>2026-04-06T13:49:19.794Z</time></trkpt><trkpt lat="44.0115572" lon="10.7947134"><ele>949.0000000000001</ele><time>2026-04-06T13:49:21.791Z</time></trkpt><trkpt lat="44.011618" lon="10.7945662"><ele>949.0000000000001</ele><time>2026-04-06T13:49:23.798Z</time></trkpt><trkpt lat="44.0116107" lon="10.794456"><ele>949.0</ele><time>2026-04-06T13:49:24.788Z</time></trkpt><trkpt lat="44.0116171" lon="10.7943121"><ele>949.0</ele><time>2026-04-06T13:49:25.792Z</time></trkpt><trkpt lat="44.0116363" lon="10.7941708"><ele>947.2</ele><time>2026-04-06T13:49:26.793Z</time></trkpt><trkpt lat="44.0116601" lon="10.7940328"><ele>945.4000000000001</ele><time>2026-04-06T13:49:27.794Z</time></trkpt><trkpt lat="44.0117018" lon="10.7939268"><ele>943.6</ele><time>2026-04-06T13:49:28.794Z</time></trkpt><trkpt lat="44.0117809" lon="10.7938416"><ele>941.8</ele><time>2026-04-06T13:49:29.796Z</time></trkpt><trkpt lat="44.0118548" lon="10.793769"><ele>940.0</ele><time>2026-04-06T13:49:30.793Z</time></trkpt><trkpt lat="44.0119382" lon="10.7937025"><ele>940.0</ele><time>2026-04-06T13:49:31.81Z</time></trkpt><trkpt lat="44.0120339" lon="10.7936228"><ele>940.0</ele><time>2026-04-06T13:49:32.802Z</time></trkpt><trkpt lat="44.0121183" lon="10.7935431"><ele>940.0</ele><time>2026-04-06T13:49:33.792Z</time></trkpt><trkpt lat="44.0121887" lon="10.7934446"><ele>940.0</ele><time>2026-04-06T13:49:34.791Z</time></trkpt><trkpt lat="44.0122647" lon="10.7933379"><ele>940.0</ele><time>2026-04-06T13:49:35.797Z</time></trkpt><trkpt lat="44.0123221" lon="10.7932232"><ele>941.0</ele><time>2026-04-06T13:49:36.796Z</time></trkpt><trkpt lat="44.0123822" lon="10.7930982"><ele>942.0</ele><time>2026-04-06T13:49:37.797Z</time></trkpt><trkpt lat="44.0124234" lon="10.7929942"><ele>943.0</ele><time>2026-04-06T13:49:38.791Z</time></trkpt><trkpt lat="44.012453" lon="10.7928658"><ele>944.0</ele><time>2026-04-06T13:49:39.794Z</time></trkpt><trkpt lat="44.0124959" lon="10.7927619"><ele>945.0</ele><time>2026-04-06T13:49:40.793Z</time></trkpt><trkpt lat="44.0125602" lon="10.7926801"><ele>939.6</ele><time>2026-04-06T13:49:41.792Z</time></trkpt><trkpt lat="44.0126372" lon="10.7926073"><ele>934.2</ele><time>2026-04-06T13:49:42.796Z</time></trkpt><trkpt lat="44.0127077" lon="10.7925404"><ele>928.8</ele><time>2026-04-06T13:49:43.791Z</time></trkpt><trkpt lat="44.0127897" lon="10.7924669"><ele>923.4</ele><time>2026-04-06T13:49:44.794Z</time></trkpt><trkpt lat="44.0128816" lon="10.7923494"><ele>918.0</ele><time>2026-04-06T13:49:45.793Z</time></trkpt><trkpt lat="44.0129939" lon="10.7922387"><ele>918.0</ele><time>2026-04-06T13:49:46.791Z</time></trkpt><trkpt lat="44.0131108" lon="10.7921089"><ele>918.0</ele><time>2026-04-06T13:49:47.795Z</time></trkpt><trkpt lat="44.0132471" lon="10.7919656"><ele>918.0</ele><time>2026-04-06T13:49:48.794Z</time></trkpt><trkpt lat="44.0133847" lon="10.7918276"><ele>916.6666666666667</ele><time>2026-04-06T13:49:49.796Z</time></trkpt><trkpt lat="44.0135085" lon="10.7916997"><ele>915.3333333333334</ele><time>2026-04-06T13:49:50.797Z</time></trkpt><trkpt lat="44.013623" lon="10.791574"><ele>914.0</ele><time>2026-04-06T13:49:51.796Z</time></trkpt><trkpt lat="44.0137386" lon="10.7914336"><ele>914.0</ele><time>2026-04-06T13:49:52.794Z</time></trkpt><trkpt lat="44.0138524" lon="10.7912926"><ele>914.0</ele><time>2026-04-06T13:49:53.796Z</time></trkpt><trkpt lat="44.0139635" lon="10.7911859"><ele>914.0</ele><time>2026-04-06T13:49:54.793Z</time></trkpt><trkpt lat="44.0140543" lon="10.7910672"><ele>914.0</ele><time>2026-04-06T13:49:55.793Z</time></trkpt><trkpt lat="44.0141279" lon="10.790927"><ele>914.5</ele><time>2026-04-06T13:49:56.794Z</time></trkpt><trkpt lat="44.0141805" lon="10.790795"><ele>915.0</ele><time>2026-04-06T13:49:57.796Z</time></trkpt><trkpt lat="44.0142311" lon="10.7906439"><ele>915.5</ele><time>2026-04-06T13:49:58.795Z</time></trkpt><trkpt lat="44.0142622" lon="10.7904802"><ele>916.0</ele><time>2026-04-06T13:49:59.796Z</time></trkpt><trkpt lat="44.0142963" lon="10.7903325"><ele>916.0</ele><time>2026-04-06T13:50:00.795Z</time></trkpt><trkpt lat="44.0143206" lon="10.7901841"><ele>916.0</ele><time>2026-04-06T13:50:01.791Z</time></trkpt><trkpt lat="44.0143174" lon="10.790024"><ele>916.0</ele><time>2026-04-06T13:50:02.801Z</time></trkpt><trkpt lat="44.0143031" lon="10.7898517"><ele>916.0</ele><time>2026-04-06T13:50:03.796Z</time></trkpt><trkpt lat="44.0142635" lon="10.7896984"><ele>915.1999999999999</ele><time>2026-04-06T13:50:04.795Z</time></trkpt><trkpt lat="44.0142127" lon="10.7895713"><ele>914.3999999999999</ele><time>2026-04-06T13:50:05.797Z</time></trkpt><trkpt lat="44.0141483" lon="10.7894584"><ele>913.6</ele><time>2026-04-06T13:50:06.792Z</time></trkpt><trkpt lat="44.0140961" lon="10.7893504"><ele>912.8</ele><time>2026-04-06T13:50:07.796Z</time></trkpt><trkpt lat="44.0140731" lon="10.7892351"><ele>912.0</ele><time>2026-04-06T13:50:08.796Z</time></trkpt><trkpt lat="44.014076" lon="10.7891021"><ele>911.5</ele><time>2026-04-06T13:50:09.791Z</time></trkpt><trkpt lat="44.0140763" lon="10.7889614"><ele>911.0</ele><time>2026-04-06T13:50:10.792Z</time></trkpt><trkpt lat="44.0140846" lon="10.7888037"><ele>910.5</ele><time>2026-04-06T13:50:11.794Z</time></trkpt><trkpt lat="44.0141888" lon="10.7886676"><ele>910.0</ele><time>2026-04-06T13:50:12.801Z</time></trkpt><trkpt lat="44.0142776" lon="10.7885504"><ele>906.6</ele><time>2026-04-06T13:50:13.793Z</time></trkpt><trkpt lat="44.0143841" lon="10.7884588"><ele>903.2</ele><time>2026-04-06T13:50:14.797Z</time></trkpt><trkpt lat="44.0144756" lon="10.7883933"><ele>899.8</ele><time>2026-04-06T13:50:15.803Z</time></trkpt><trkpt lat="44.0145745" lon="10.7883608"><ele>896.4</ele><time>2026-04-06T13:50:16.797Z</time></trkpt><trkpt lat="44.0146757" lon="10.7883645"><ele>893.0</ele><time>2026-04-06T13:50:17.788Z</time></trkpt><trkpt lat="44.0147534" lon="10.788339"><ele>893.0</ele><time>2026-04-06T13:50:18.793Z</time></trkpt><trkpt lat="44.0148465" lon="10.7883036"><ele>893.0</ele><time>2026-04-06T13:50:19.795Z</time></trkpt><trkpt lat="44.0149128" lon="10.7881954"><ele>893.0</ele><time>2026-04-06T13:50:20.792Z</time></trkpt><trkpt lat="44.014965" lon="10.7881008"><ele>893.0</ele><time>2026-04-06T13:50:21.799Z</time></trkpt><trkpt lat="44.0150112" lon="10.7879768"><ele>893.0</ele><time>2026-04-06T13:50:22.805Z</time></trkpt><trkpt lat="44.0150839" lon="10.7878734"><ele>898.0</ele><time>2026-04-06T13:50:23.793Z</time></trkpt><trkpt lat="44.0152643" lon="10.7879377"><ele>903.0</ele><time>2026-04-06T13:50:25.793Z</time></trkpt><trkpt lat="44.0153747" lon="10.7879796"><ele>908.0</ele><time>2026-04-06T13:50:26.799Z</time></trkpt><trkpt lat="44.0155016" lon="10.7880336"><ele>913.0</ele><time>2026-04-06T13:50:27.794Z</time></trkpt><trkpt lat="44.01564" lon="10.7880389"><ele>913.0</ele><time>2026-04-06T13:50:28.799Z</time></trkpt><trkpt lat="44.0157559" lon="10.7879931"><ele>913.0</ele><time>2026-04-06T13:50:29.794Z</time></trkpt><trkpt lat="44.0158819" lon="10.7879751"><ele>913.0</ele><time>2026-04-06T13:50:30.794Z</time></trkpt><trkpt lat="44.0159989" lon="10.7879786"><ele>913.0</ele><time>2026-04-06T13:50:31.793Z</time></trkpt><trkpt lat="44.0161689" lon="10.7880894"><ele>912.6666666666666</ele><time>2026-04-06T13:50:32.795Z</time></trkpt><trkpt lat="44.0163059" lon="10.7881852"><ele>912.3333333333333</ele><time>2026-04-06T13:50:33.795Z</time></trkpt><trkpt lat="44.0164569" lon="10.7883027"><ele>912.0</ele><time>2026-04-06T13:50:34.798Z</time></trkpt><trkpt lat="44.016598" lon="10.7884319"><ele>911.0</ele><time>2026-04-06T13:50:35.792Z</time></trkpt><trkpt lat="44.016708" lon="10.7886034"><ele>910.0</ele><time>2026-04-06T13:50:36.792Z</time></trkpt><trkpt lat="44.0167984" lon="10.7887717"><ele>909.0</ele><time>2026-04-06T13:50:37.795Z</time></trkpt><trkpt lat="44.0168845" lon="10.7889459"><ele>909.0</ele><time>2026-04-06T13:50:38.8Z</time></trkpt><trkpt lat="44.016965" lon="10.7891309"><ele>909.0</ele><time>2026-04-06T13:50:39.796Z</time></trkpt><trkpt lat="44.0170603" lon="10.7892829"><ele>909.0</ele><time>2026-04-06T13:50:40.794Z</time></trkpt><trkpt lat="44.0171684" lon="10.7894117"><ele>909.0</ele><time>2026-04-06T13:50:41.793Z</time></trkpt><trkpt lat="44.0172868" lon="10.7895213"><ele>908.25</ele><time>2026-04-06T13:50:42.793Z</time></trkpt><trkpt lat="44.0174025" lon="10.7896191"><ele>907.5</ele><time>2026-04-06T13:50:43.794Z</time></trkpt><trkpt lat="44.0174689" lon="10.7897018"><ele>906.75</ele><time>2026-04-06T13:50:44.794Z</time></trkpt><trkpt lat="44.0175998" lon="10.7897754"><ele>906.0</ele><time>2026-04-06T13:50:45.792Z</time></trkpt><trkpt lat="44.0177468" lon="10.7897885"><ele>906.0</ele><time>2026-04-06T13:50:46.791Z</time></trkpt><trkpt lat="44.017813" lon="10.7897905"><ele>905.9999999999999</ele><time>2026-04-06T13:50:47.791Z</time></trkpt><trkpt lat="44.0179017" lon="10.7898016"><ele>905.9999999999999</ele><time>2026-04-06T13:50:48.797Z</time></trkpt><trkpt lat="44.017977" lon="10.7897694"><ele>906.0</ele><time>2026-04-06T13:50:49.793Z</time></trkpt><trkpt lat="44.0180508" lon="10.7897201"><ele>906.0</ele><time>2026-04-06T13:50:50.792Z</time></trkpt><trkpt lat="44.0182204" lon="10.7896142"><ele>903.25</ele><time>2026-04-06T13:50:51.795Z</time></trkpt><trkpt lat="44.0183339" lon="10.7896292"><ele>900.5</ele><time>2026-04-06T13:50:53.796Z</time></trkpt><trkpt lat="44.0183876" lon="10.789695"><ele>897.75</ele><time>2026-04-06T13:50:54.802Z</time></trkpt><trkpt lat="44.0184905" lon="10.7898151"><ele>895.0</ele><time>2026-04-06T13:50:55.792Z</time></trkpt><trkpt lat="44.0185666" lon="10.7899685"><ele>895.0</ele><time>2026-04-06T13:50:56.809Z</time></trkpt><trkpt lat="44.0186774" lon="10.7900822"><ele>895.0</ele><time>2026-04-06T13:50:57.793Z</time></trkpt><trkpt lat="44.0187385" lon="10.7902294"><ele>895.0</ele><time>2026-04-06T13:50:58.796Z</time></trkpt><trkpt lat="44.0187843" lon="10.7903883"><ele>895.0</ele><time>2026-04-06T13:50:59.793Z</time></trkpt><trkpt lat="44.0188087" lon="10.7905856"><ele>898.25</ele><time>2026-04-06T13:51:00.795Z</time></trkpt><trkpt lat="44.0188441" lon="10.7907549"><ele>901.5</ele><time>2026-04-06T13:51:01.796Z</time></trkpt><trkpt lat="44.018878" lon="10.7909124"><ele>904.75</ele><time>2026-04-06T13:51:02.794Z</time></trkpt><trkpt lat="44.0189229" lon="10.791079"><ele>908.0</ele><time>2026-04-06T13:51:03.793Z</time></trkpt><trkpt lat="44.0189573" lon="10.7912054"><ele>908.5</ele><time>2026-04-06T13:51:04.797Z</time></trkpt><trkpt lat="44.0190206" lon="10.791331"><ele>909.0</ele><time>2026-04-06T13:51:05.794Z</time></trkpt><trkpt lat="44.0191278" lon="10.7914447"><ele>909.5</ele><time>2026-04-06T13:51:06.794Z</time></trkpt><trkpt lat="44.0192259" lon="10.7915606"><ele>910.0</ele><time>2026-04-06T13:51:07.792Z</time></trkpt><trkpt lat="44.0193104" lon="10.7916586"><ele>908.0</ele><time>2026-04-06T13:51:08.794Z</time></trkpt><trkpt lat="44.019406" lon="10.7917629"><ele>906.0</ele><time>2026-04-06T13:51:09.799Z</time></trkpt><trkpt lat="44.0194752" lon="10.7918654"><ele>904.0</ele><time>2026-04-06T13:51:10.793Z</time></trkpt><trkpt lat="44.0195263" lon="10.791965"><ele>902.0</ele><time>2026-04-06T13:51:11.794Z</time></trkpt><trkpt lat="44.0195856" lon="10.7920407"><ele>900.0</ele><time>2026-04-06T13:51:12.793Z</time></trkpt><trkpt lat="44.019642" lon="10.7921221"><ele>900.0</ele><time>2026-04-06T13:51:13.793Z</time></trkpt><trkpt lat="44.0197065" lon="10.7921824"><ele>900.0</ele><time>2026-04-06T13:51:14.794Z</time></trkpt><trkpt lat="44.0197916" lon="10.7922031"><ele>900.0</ele><time>2026-04-06T13:51:15.794Z</time></trkpt><trkpt lat="44.0198785" lon="10.7921648"><ele>900.0</ele><time>2026-04-06T13:51:16.79Z</time></trkpt><trkpt lat="44.0199446" lon="10.7921386"><ele>900.0</ele><time>2026-04-06T13:51:17.792Z</time></trkpt><trkpt lat="44.02003" lon="10.7920601"><ele>900.0</ele><time>2026-04-06T13:51:19.797Z</time></trkpt><trkpt lat="44.0200573" lon="10.7919287"><ele>897.6666666666666</ele><time>2026-04-06T13:51:20.798Z</time></trkpt><trkpt lat="44.0200896" lon="10.791823"><ele>895.3333333333333</ele><time>2026-04-06T13:51:21.792Z</time></trkpt><trkpt lat="44.0200873" lon="10.7917281"><ele>893.0</ele><time>2026-04-06T13:51:23.791Z</time></trkpt><trkpt lat="44.0201007" lon="10.7916396"><ele>890.6666666666666</ele><time>2026-04-06T13:51:28.792Z</time></trkpt><trkpt lat="44.0200498" lon="10.7914297"><ele>888.3333333333333</ele><time>2026-04-06T13:54:52.788Z</time></trkpt><trkpt lat="44.0200379" lon="10.7913409"><ele>886.0</ele><time>2026-04-06T13:54:53.788Z</time></trkpt><trkpt lat="44.0200319" lon="10.7911848"><ele>885.9999999999999</ele><time>2026-04-06T13:54:55.792Z</time></trkpt><trkpt lat="44.0200056" lon="10.7910752"><ele>886.0</ele><time>2026-04-06T13:54:56.797Z</time></trkpt><trkpt lat="44.0200358" lon="10.7909923"><ele>886.0</ele><time>2026-04-06T13:54:57.801Z</time></trkpt><trkpt lat="44.0201138" lon="10.790924"><ele>886.0</ele><time>2026-04-06T13:54:58.796Z</time></trkpt><trkpt lat="44.0201512" lon="10.7908478"><ele>885.9999999999999</ele><time>2026-04-06T13:54:59.789Z</time></trkpt><trkpt lat="44.0201448" lon="10.790733"><ele>886.0</ele><time>2026-04-06T13:55:00.798Z</time></trkpt><trkpt lat="44.0201738" lon="10.790637"><ele>885.3333333333333</ele><time>2026-04-06T13:55:01.795Z</time></trkpt><trkpt lat="44.02019" lon="10.7905497"><ele>884.6666666666666</ele><time>2026-04-06T13:55:02.797Z</time></trkpt><trkpt lat="44.0202055" lon="10.7904254"><ele>884.0</ele><time>2026-04-06T13:55:03.797Z</time></trkpt><trkpt lat="44.0202532" lon="10.7903118"><ele>883.3333333333333</ele><time>2026-04-06T13:55:04.797Z</time></trkpt><trkpt lat="44.0202935" lon="10.7902139"><ele>882.6666666666666</ele><time>2026-04-06T13:55:05.796Z</time></trkpt><trkpt lat="44.0203142" lon="10.7901012"><ele>882.0</ele><time>2026-04-06T13:55:06.795Z</time></trkpt><trkpt lat="44.0203387" lon="10.7900047"><ele>881.6666666666666</ele><time>2026-04-06T13:55:07.794Z</time></trkpt><trkpt lat="44.0203638" lon="10.7899035"><ele>881.3333333333333</ele><time>2026-04-06T13:55:08.793Z</time></trkpt><trkpt lat="44.0203954" lon="10.7898115"><ele>881.0</ele><time>2026-04-06T13:55:09.793Z</time></trkpt><trkpt lat="44.0203987" lon="10.789707"><ele>880.6666666666666</ele><time>2026-04-06T13:55:10.797Z</time></trkpt><trkpt lat="44.0204142" lon="10.7895819"><ele>880.3333333333333</ele><time>2026-04-06T13:55:11.801Z</time></trkpt><trkpt lat="44.0203878" lon="10.7894451"><ele>880.0</ele><time>2026-04-06T13:55:12.792Z</time></trkpt><trkpt lat="44.0203777" lon="10.7893416"><ele>879.9999999999999</ele><time>2026-04-06T13:55:13.794Z</time></trkpt><trkpt lat="44.0203773" lon="10.7892486"><ele>880.0</ele><time>2026-04-06T13:55:14.795Z</time></trkpt><trkpt lat="44.0203295" lon="10.789125"><ele>880.0</ele><time>2026-04-06T13:55:15.794Z</time></trkpt><trkpt lat="44.0202983" lon="10.7890214"><ele>880.0</ele><time>2026-04-06T13:55:16.795Z</time></trkpt><trkpt lat="44.0202591" lon="10.7889242"><ele>879.9999999999999</ele><time>2026-04-06T13:55:17.793Z</time></trkpt><trkpt lat="44.0202391" lon="10.7887606"><ele>880.0</ele><time>2026-04-06T13:55:19.793Z</time></trkpt><trkpt lat="44.0202051" lon="10.7886504"><ele>880.0</ele><time>2026-04-06T13:55:20.797Z</time></trkpt><trkpt lat="44.0201931" lon="10.7885104"><ele>880.0</ele><time>2026-04-06T13:55:22.795Z</time></trkpt><trkpt lat="44.0203006" lon="10.7884242"><ele>880.0</ele><time>2026-04-06T13:55:24.796Z</time></trkpt><trkpt lat="44.0204206" lon="10.788355"><ele>880.0</ele><time>2026-04-06T13:55:26.803Z</time></trkpt><trkpt lat="44.0205057" lon="10.7883425"><ele>880.0</ele><time>2026-04-06T13:55:27.793Z</time></trkpt><trkpt lat="44.0205848" lon="10.788309"><ele>879.0</ele><time>2026-04-06T13:55:28.791Z</time></trkpt><trkpt lat="44.0206703" lon="10.7882786"><ele>878.0</ele><time>2026-04-06T13:55:29.792Z</time></trkpt><trkpt lat="44.0207379" lon="10.7882362"><ele>877.0</ele><time>2026-04-06T13:55:30.794Z</time></trkpt><trkpt lat="44.0208603" lon="10.7881917"><ele>876.0</ele><time>2026-04-06T13:55:32.793Z</time></trkpt><trkpt lat="44.0210017" lon="10.7881638"><ele>875.0</ele><time>2026-04-06T13:55:34.799Z</time></trkpt><trkpt lat="44.021114" lon="10.7881318"><ele>879.0</ele><time>2026-04-06T13:55:35.794Z</time></trkpt><trkpt lat="44.0212154" lon="10.7880884"><ele>883.0</ele><time>2026-04-06T13:55:36.797Z</time></trkpt><trkpt lat="44.0213272" lon="10.7880754"><ele>887.0</ele><time>2026-04-06T13:55:37.795Z</time></trkpt><trkpt lat="44.0214323" lon="10.7880536"><ele>891.0</ele><time>2026-04-06T13:55:38.8Z</time></trkpt><trkpt lat="44.0215652" lon="10.7880493"><ele>893.0</ele><time>2026-04-06T13:55:39.796Z</time></trkpt><trkpt lat="44.021708" lon="10.7880355"><ele>895.0</ele><time>2026-04-06T13:55:40.795Z</time></trkpt><trkpt lat="44.0218276" lon="10.7880052"><ele>897.0</ele><time>2026-04-06T13:55:41.792Z</time></trkpt><trkpt lat="44.0219445" lon="10.7879847"><ele>899.0</ele><time>2026-04-06T13:55:42.798Z</time></trkpt><trkpt lat="44.0220675" lon="10.7879883"><ele>899.0000000000001</ele><time>2026-04-06T13:55:43.793Z</time></trkpt><trkpt lat="44.0221696" lon="10.7880011"><ele>899.0</ele><time>2026-04-06T13:55:44.793Z</time></trkpt><trkpt lat="44.0222686" lon="10.7880158"><ele>899.0</ele><time>2026-04-06T13:55:45.786Z</time></trkpt><trkpt lat="44.0223501" lon="10.7879929"><ele>899.0</ele><time>2026-04-06T13:55:46.793Z</time></trkpt><trkpt lat="44.0224179" lon="10.7879748"><ele>899.0000000000001</ele><time>2026-04-06T13:55:47.792Z</time></trkpt><trkpt lat="44.022485" lon="10.7879465"><ele>899.0</ele><time>2026-04-06T13:55:48.805Z</time></trkpt><trkpt lat="44.0225347" lon="10.7877769"><ele>894.75</ele><time>2026-04-06T13:55:50.794Z</time></trkpt><trkpt lat="44.0225239" lon="10.7875842"><ele>890.5</ele><time>2026-04-06T13:55:52.807Z</time></trkpt><trkpt lat="44.0224603" lon="10.7874147"><ele>886.25</ele><time>2026-04-06T13:55:53.796Z</time></trkpt><trkpt lat="44.022433" lon="10.7873017"><ele>882.0</ele><time>2026-04-06T13:55:54.794Z</time></trkpt><trkpt lat="44.0224226" lon="10.7871731"><ele>879.5</ele><time>2026-04-06T13:55:55.792Z</time></trkpt><trkpt lat="44.0224398" lon="10.7870226"><ele>877.0</ele><time>2026-04-06T13:55:56.794Z</time></trkpt><trkpt lat="44.0224791" lon="10.7868751"><ele>874.5</ele><time>2026-04-06T13:55:57.8Z</time></trkpt><trkpt lat="44.022571" lon="10.7867192"><ele>872.0</ele><time>2026-04-06T13:55:58.793Z</time></trkpt><trkpt lat="44.0226182" lon="10.7865443"><ele>872.0</ele><time>2026-04-06T13:55:59.792Z</time></trkpt><trkpt lat="44.0226761" lon="10.7863758"><ele>872.0</ele><time>2026-04-06T13:56:00.793Z</time></trkpt><trkpt lat="44.0227225" lon="10.7862119"><ele>872.0</ele><time>2026-04-06T13:56:01.798Z</time></trkpt><trkpt lat="44.0227584" lon="10.7860289"><ele>872.0</ele><time>2026-04-06T13:56:02.793Z</time></trkpt><trkpt lat="44.022772" lon="10.7858203"><ele>870.5</ele><time>2026-04-06T13:56:03.796Z</time></trkpt><trkpt lat="44.0227771" lon="10.7856117"><ele>869.0</ele><time>2026-04-06T13:56:04.793Z</time></trkpt><trkpt lat="44.0227585" lon="10.7854202"><ele>867.5</ele><time>2026-04-06T13:56:05.794Z</time></trkpt><trkpt lat="44.0227474" lon="10.7852278"><ele>866.0</ele><time>2026-04-06T13:56:06.795Z</time></trkpt><trkpt lat="44.0227236" lon="10.7850515"><ele>866.0</ele><time>2026-04-06T13:56:07.793Z</time></trkpt><trkpt lat="44.0226593" lon="10.784917"><ele>866.0</ele><time>2026-04-06T13:56:08.795Z</time></trkpt><trkpt lat="44.0226089" lon="10.7847638"><ele>866.0</ele><time>2026-04-06T13:56:09.79Z</time></trkpt><trkpt lat="44.022534" lon="10.7846507"><ele>866.0</ele><time>2026-04-06T13:56:10.793Z</time></trkpt><trkpt lat="44.0224208" lon="10.7845858"><ele>861.5</ele><time>2026-04-06T13:56:11.8Z</time></trkpt><trkpt lat="44.0222869" lon="10.7845667"><ele>857.0</ele><time>2026-04-06T13:56:12.794Z</time></trkpt><trkpt lat="44.0221429" lon="10.7845341"><ele>852.5</ele><time>2026-04-06T13:56:13.794Z</time></trkpt><trkpt lat="44.0220054" lon="10.7845117"><ele>848.0</ele><time>2026-04-06T13:56:14.798Z</time></trkpt><trkpt lat="44.0218641" lon="10.7844551"><ele>848.0</ele><time>2026-04-06T13:56:15.799Z</time></trkpt><trkpt lat="44.0217338" lon="10.7843685"><ele>848.0</ele><time>2026-04-06T13:56:16.794Z</time></trkpt><trkpt lat="44.0215932" lon="10.7842801"><ele>848.0</ele><time>2026-04-06T13:56:17.795Z</time></trkpt><trkpt lat="44.0214579" lon="10.7841908"><ele>848.0</ele><time>2026-04-06T13:56:18.795Z</time></trkpt><trkpt lat="44.0213227" lon="10.7841304"><ele>845.75</ele><time>2026-04-06T13:56:19.794Z</time></trkpt><trkpt lat="44.0211945" lon="10.784086"><ele>843.5</ele><time>2026-04-06T13:56:20.796Z</time></trkpt><trkpt lat="44.0210563" lon="10.7840747"><ele>841.25</ele><time>2026-04-06T13:56:21.797Z</time></trkpt><trkpt lat="44.0209378" lon="10.7840434"><ele>839.0</ele><time>2026-04-06T13:56:22.791Z</time></trkpt><trkpt lat="44.0208278" lon="10.7840245"><ele>829.6</ele><time>2026-04-06T13:56:23.794Z</time></trkpt><trkpt lat="44.0207441" lon="10.7839267"><ele>820.2</ele><time>2026-04-06T13:56:24.791Z</time></trkpt><trkpt lat="44.0207103" lon="10.7838261"><ele>810.8000000000001</ele><time>2026-04-06T13:56:25.793Z</time></trkpt><trkpt lat="44.0206801" lon="10.7837014"><ele>801.4000000000001</ele><time>2026-04-06T13:56:26.794Z</time></trkpt><trkpt lat="44.0206718" lon="10.7835593"><ele>792.0</ele><time>2026-04-06T13:56:27.793Z</time></trkpt><trkpt lat="44.0207092" lon="10.7834208"><ele>791.75</ele><time>2026-04-06T13:56:28.793Z</time></trkpt><trkpt lat="44.0208069" lon="10.7832988"><ele>791.5</ele><time>2026-04-06T13:56:29.794Z</time></trkpt><trkpt lat="44.0208478" lon="10.7831429"><ele>791.25</ele><time>2026-04-06T13:56:30.793Z</time></trkpt><trkpt lat="44.0208963" lon="10.7830088"><ele>791.0</ele><time>2026-04-06T13:56:31.793Z</time></trkpt><trkpt lat="44.0209495" lon="10.7828622"><ele>798.5</ele><time>2026-04-06T13:56:32.801Z</time></trkpt><trkpt lat="44.021059" lon="10.7827685"><ele>806.0</ele><time>2026-04-06T13:56:33.792Z</time></trkpt><trkpt lat="44.0211436" lon="10.7826306"><ele>813.5</ele><time>2026-04-06T13:56:34.794Z</time></trkpt><trkpt lat="44.0212009" lon="10.7824833"><ele>821.0</ele><time>2026-04-06T13:56:35.792Z</time></trkpt><trkpt lat="44.0212717" lon="10.7823499"><ele>821.0</ele><time>2026-04-06T13:56:36.795Z</time></trkpt><trkpt lat="44.0213881" lon="10.7822565"><ele>821.0</ele><time>2026-04-06T13:56:37.794Z</time></trkpt><trkpt lat="44.0214951" lon="10.7821469"><ele>821.0</ele><time>2026-04-06T13:56:38.798Z</time></trkpt><trkpt lat="44.0215981" lon="10.7820368"><ele>821.0</ele><time>2026-04-06T13:56:39.793Z</time></trkpt><trkpt lat="44.0216961" lon="10.7819466"><ele>824.4</ele><time>2026-04-06T13:56:40.801Z</time></trkpt><trkpt lat="44.021756" lon="10.7818488"><ele>827.8</ele><time>2026-04-06T13:56:41.791Z</time></trkpt><trkpt lat="44.0217855" lon="10.7817458"><ele>831.1999999999999</ele><time>2026-04-06T13:56:42.801Z</time></trkpt><trkpt lat="44.0217983" lon="10.7816122"><ele>834.5999999999999</ele><time>2026-04-06T13:56:43.79Z</time></trkpt><trkpt lat="44.0217905" lon="10.7814416"><ele>838.0</ele><time>2026-04-06T13:56:44.798Z</time></trkpt><trkpt lat="44.0217336" lon="10.7812718"><ele>838.0</ele><time>2026-04-06T13:56:45.795Z</time></trkpt><trkpt lat="44.0216562" lon="10.7810835"><ele>838.0</ele><time>2026-04-06T13:56:46.793Z</time></trkpt><trkpt lat="44.0216385" lon="10.7809372"><ele>838.0</ele><time>2026-04-06T13:56:47.794Z</time></trkpt><trkpt lat="44.0216072" lon="10.7807765"><ele>838.0</ele><time>2026-04-06T13:56:48.793Z</time></trkpt><trkpt lat="44.02159" lon="10.7805747"><ele>838.25</ele><time>2026-04-06T13:56:49.796Z</time></trkpt><trkpt lat="44.0216392" lon="10.7803796"><ele>838.5</ele><time>2026-04-06T13:56:50.796Z</time></trkpt><trkpt lat="44.0216768" lon="10.7801835"><ele>838.75</ele><time>2026-04-06T13:56:51.792Z</time></trkpt><trkpt lat="44.0217066" lon="10.7800191"><ele>839.0</ele><time>2026-04-06T13:56:52.792Z</time></trkpt><trkpt lat="44.0217484" lon="10.7798764"><ele>836.0</ele><time>2026-04-06T13:56:53.796Z</time></trkpt><trkpt lat="44.0217947" lon="10.7797924"><ele>833.0</ele><time>2026-04-06T13:56:54.794Z</time></trkpt><trkpt lat="44.0218689" lon="10.7797446"><ele>830.0</ele><time>2026-04-06T13:56:55.791Z</time></trkpt><trkpt lat="44.0219568" lon="10.7797533"><ele>827.0</ele><time>2026-04-06T13:56:56.794Z</time></trkpt><trkpt lat="44.0220748" lon="10.7797282"><ele>824.0</ele><time>2026-04-06T13:56:58.794Z</time></trkpt><trkpt lat="44.0221613" lon="10.7797183"><ele>824.0</ele><time>2026-04-06T13:56:59.792Z</time></trkpt><trkpt lat="44.0222782" lon="10.7796946"><ele>824.0</ele><time>2026-04-06T13:57:00.794Z</time></trkpt><trkpt lat="44.022402" lon="10.7796699"><ele>824.0</ele><time>2026-04-06T13:57:01.796Z</time></trkpt><trkpt lat="44.0226803" lon="10.7796928"><ele>827.6666666666667</ele><time>2026-04-06T13:57:02.794Z</time></trkpt><trkpt lat="44.0228375" lon="10.7797153"><ele>831.3333333333333</ele><time>2026-04-06T13:57:03.79Z</time></trkpt><trkpt lat="44.0230326" lon="10.779777"><ele>835.0</ele><time>2026-04-06T13:57:04.792Z</time></trkpt><trkpt lat="44.023184" lon="10.7798637"><ele>832.6666666666666</ele><time>2026-04-06T13:57:05.793Z</time></trkpt><trkpt lat="44.0233728" lon="10.7800237"><ele>830.3333333333333</ele><time>2026-04-06T13:57:06.792Z</time></trkpt><trkpt lat="44.0234471" lon="10.7801692"><ele>828.0</ele><time>2026-04-06T13:57:07.793Z</time></trkpt><trkpt lat="44.0234637" lon="10.7803589"><ele>828.0</ele><time>2026-04-06T13:57:08.806Z</time></trkpt><trkpt lat="44.0234758" lon="10.7804802"><ele>828.0</ele><time>2026-04-06T13:57:09.796Z</time></trkpt><trkpt lat="44.0234405" lon="10.7806326"><ele>828.0</ele><time>2026-04-06T13:57:10.805Z</time></trkpt><trkpt lat="44.0234532" lon="10.7807611"><ele>828.0</ele><time>2026-04-06T13:57:11.788Z</time></trkpt><trkpt lat="44.0235051" lon="10.7808522"><ele>828.0</ele><time>2026-04-06T13:57:12.788Z</time></trkpt><trkpt lat="44.0235239" lon="10.7809383"><ele>828.0</ele><time>2026-04-06T13:57:13.791Z</time></trkpt><trkpt lat="44.023641" lon="10.7810931"><ele>827.5</ele><time>2026-04-06T13:57:15.841Z</time></trkpt><trkpt lat="44.0237794" lon="10.781207"><ele>827.0</ele><time>2026-04-06T13:57:17.785Z</time></trkpt><trkpt lat="44.0241782" lon="10.7812059"><ele>827.0</ele><time>2026-04-06T13:57:19.795Z</time></trkpt><trkpt lat="44.0244206" lon="10.7812777"><ele>827.0</ele><time>2026-04-06T13:57:21.797Z</time></trkpt><trkpt lat="44.0245143" lon="10.7812038"><ele>827.0</ele><time>2026-04-06T13:57:22.797Z</time></trkpt><trkpt lat="44.0245859" lon="10.7810588"><ele>823.0</ele><time>2026-04-06T13:57:24.795Z</time></trkpt><trkpt lat="44.0245725" lon="10.7809252"><ele>819.0</ele><time>2026-04-06T13:57:25.792Z</time></trkpt><trkpt lat="44.024586" lon="10.780812"><ele>815.0</ele><time>2026-04-06T13:57:26.794Z</time></trkpt><trkpt lat="44.0246167" lon="10.780615"><ele>811.0</ele><time>2026-04-06T13:57:27.804Z</time></trkpt><trkpt lat="44.0246388" lon="10.7804264"><ele>808.0</ele><time>2026-04-06T13:57:28.808Z</time></trkpt><trkpt lat="44.0246366" lon="10.7801685"><ele>805.0</ele><time>2026-04-06T13:57:29.792Z</time></trkpt><trkpt lat="44.024609" lon="10.7799255"><ele>802.0</ele><time>2026-04-06T13:57:30.793Z</time></trkpt><trkpt lat="44.0246063" lon="10.7797185"><ele>802.0</ele><time>2026-04-06T13:57:31.794Z</time></trkpt><trkpt lat="44.0246131" lon="10.7795421"><ele>802.0</ele><time>2026-04-06T13:57:32.797Z</time></trkpt><trkpt lat="44.0245832" lon="10.7793423"><ele>802.0</ele><time>2026-04-06T13:57:33.797Z</time></trkpt><trkpt lat="44.0245632" lon="10.7791376"><ele>802.0</ele><time>2026-04-06T13:57:34.792Z</time></trkpt><trkpt lat="44.0245624" lon="10.7789455"><ele>802.25</ele><time>2026-04-06T13:57:35.797Z</time></trkpt><trkpt lat="44.0245547" lon="10.7787638"><ele>802.5</ele><time>2026-04-06T13:57:36.791Z</time></trkpt><trkpt lat="44.0245537" lon="10.7785773"><ele>802.75</ele><time>2026-04-06T13:57:37.793Z</time></trkpt><trkpt lat="44.0245493" lon="10.7783984"><ele>803.0</ele><time>2026-04-06T13:57:38.797Z</time></trkpt><trkpt lat="44.0245271" lon="10.7782021"><ele>805.0</ele><time>2026-04-06T13:57:39.789Z</time></trkpt><trkpt lat="44.0245124" lon="10.778002"><ele>807.0</ele><time>2026-04-06T13:57:40.794Z</time></trkpt><trkpt lat="44.0244399" lon="10.7777582"><ele>809.0</ele><time>2026-04-06T13:57:41.79Z</time></trkpt><trkpt lat="44.0243893" lon="10.7775469"><ele>809.25</ele><time>2026-04-06T13:57:42.791Z</time></trkpt><trkpt lat="44.0243325" lon="10.7773417"><ele>809.5</ele><time>2026-04-06T13:57:43.793Z</time></trkpt><trkpt lat="44.0242892" lon="10.7771565"><ele>809.75</ele><time>2026-04-06T13:57:44.795Z</time></trkpt><trkpt lat="44.0242697" lon="10.7769553"><ele>810.0</ele><time>2026-04-06T13:57:45.799Z</time></trkpt><trkpt lat="44.0242755" lon="10.7767534"><ele>810.0</ele><time>2026-04-06T13:57:46.795Z</time></trkpt><trkpt lat="44.0242889" lon="10.7765403"><ele>810.0</ele><time>2026-04-06T13:57:47.794Z</time></trkpt><trkpt lat="44.0243238" lon="10.7763401"><ele>810.0</ele><time>2026-04-06T13:57:48.796Z</time></trkpt><trkpt lat="44.0243636" lon="10.7761479"><ele>810.0</ele><time>2026-04-06T13:57:49.792Z</time></trkpt><trkpt lat="44.0244161" lon="10.7759767"><ele>810.5</ele><time>2026-04-06T13:57:50.793Z</time></trkpt><trkpt lat="44.0244776" lon="10.7758135"><ele>811.0</ele><time>2026-04-06T13:57:51.793Z</time></trkpt><trkpt lat="44.0244878" lon="10.7756426"><ele>811.5</ele><time>2026-04-06T13:57:52.792Z</time></trkpt><trkpt lat="44.0245109" lon="10.775471"><ele>812.0</ele><time>2026-04-06T13:57:53.794Z</time></trkpt><trkpt lat="44.0245064" lon="10.7753478"><ele>812.0000000000001</ele><time>2026-04-06T13:57:54.792Z</time></trkpt><trkpt lat="44.0245157" lon="10.7752332"><ele>812.0</ele><time>2026-04-06T13:57:55.795Z</time></trkpt><trkpt lat="44.024553" lon="10.7751196"><ele>812.0</ele><time>2026-04-06T13:57:56.793Z</time></trkpt><trkpt lat="44.0246017" lon="10.7750602"><ele>812.0</ele><time>2026-04-06T13:57:57.796Z</time></trkpt><trkpt lat="44.0246572" lon="10.7750035"><ele>812.0000000000001</ele><time>2026-04-06T13:57:58.795Z</time></trkpt><trkpt lat="44.0247306" lon="10.7748972"><ele>812.0</ele><time>2026-04-06T13:57:59.793Z</time></trkpt><trkpt lat="44.024807" lon="10.7748283"><ele>804.6666666666667</ele><time>2026-04-06T13:58:00.792Z</time></trkpt><trkpt lat="44.0250084" lon="10.7747639"><ele>797.3333333333333</ele><time>2026-04-06T13:58:01.79Z</time></trkpt><trkpt lat="44.0251276" lon="10.7746667"><ele>790.0</ele><time>2026-04-06T13:58:02.791Z</time></trkpt><trkpt lat="44.0252356" lon="10.7746119"><ele>790.0</ele><time>2026-04-06T13:58:03.801Z</time></trkpt><trkpt lat="44.0252988" lon="10.774507"><ele>790.0</ele><time>2026-04-06T13:58:04.794Z</time></trkpt><trkpt lat="44.025383" lon="10.7744093"><ele>790.0</ele><time>2026-04-06T13:58:05.794Z</time></trkpt><trkpt lat="44.0254082" lon="10.7742669"><ele>790.0</ele><time>2026-04-06T13:58:06.794Z</time></trkpt><trkpt lat="44.0253869" lon="10.7740679"><ele>789.5</ele><time>2026-04-06T13:58:07.794Z</time></trkpt><trkpt lat="44.0253766" lon="10.7739079"><ele>789.0</ele><time>2026-04-06T13:58:08.796Z</time></trkpt><trkpt lat="44.0254024" lon="10.7737511"><ele>788.5</ele><time>2026-04-06T13:58:09.79Z</time></trkpt><trkpt lat="44.0254198" lon="10.773581"><ele>788.0</ele><time>2026-04-06T13:58:10.791Z</time></trkpt><trkpt lat="44.0253928" lon="10.7733951"><ele>788.0</ele><time>2026-04-06T13:58:11.794Z</time></trkpt><trkpt lat="44.0253415" lon="10.7732819"><ele>788.0</ele><time>2026-04-06T13:58:12.788Z</time></trkpt><trkpt lat="44.025286" lon="10.7731446"><ele>788.0</ele><time>2026-04-06T13:58:13.789Z</time></trkpt><trkpt lat="44.0251946" lon="10.7730294"><ele>788.0</ele><time>2026-04-06T13:58:14.788Z</time></trkpt><trkpt lat="44.0250495" lon="10.7729291"><ele>788.5</ele><time>2026-04-06T13:58:15.788Z</time></trkpt><trkpt lat="44.024923" lon="10.7728179"><ele>789.0</ele><time>2026-04-06T13:58:16.786Z</time></trkpt><trkpt lat="44.0248143" lon="10.7726979"><ele>789.5</ele><time>2026-04-06T13:58:17.787Z</time></trkpt><trkpt lat="44.0247198" lon="10.7725808"><ele>790.0</ele><time>2026-04-06T13:58:18.787Z</time></trkpt><trkpt lat="44.0246138" lon="10.772446"><ele>790.0</ele><time>2026-04-06T13:58:19.791Z</time></trkpt><trkpt lat="44.0245323" lon="10.7723759"><ele>790.0</ele><time>2026-04-06T13:58:20.788Z</time></trkpt><trkpt lat="44.0244576" lon="10.7722862"><ele>790.0</ele><time>2026-04-06T13:58:21.786Z</time></trkpt><trkpt lat="44.0244138" lon="10.7721241"><ele>790.0</ele><time>2026-04-06T13:58:23.794Z</time></trkpt><trkpt lat="44.0244945" lon="10.772029"><ele>790.0</ele><time>2026-04-06T13:58:25.796Z</time></trkpt><trkpt lat="44.0245751" lon="10.7718639"><ele>791.3333333333333</ele><time>2026-04-06T13:58:26.792Z</time></trkpt><trkpt lat="44.0246669" lon="10.7716233"><ele>792.6666666666667</ele><time>2026-04-06T13:58:27.804Z</time></trkpt><trkpt lat="44.0247663" lon="10.7714282"><ele>794.0</ele><time>2026-04-06T13:58:28.792Z</time></trkpt><trkpt lat="44.0249064" lon="10.7712329"><ele>786.6666666666667</ele><time>2026-04-06T13:58:29.793Z</time></trkpt><trkpt lat="44.0250404" lon="10.7710631"><ele>779.3333333333333</ele><time>2026-04-06T13:58:30.792Z</time></trkpt><trkpt lat="44.0251107" lon="10.7708933"><ele>772.0</ele><time>2026-04-06T13:58:31.791Z</time></trkpt><trkpt lat="44.0251893" lon="10.7707495"><ele>772.0</ele><time>2026-04-06T13:58:32.792Z</time></trkpt><trkpt lat="44.0252253" lon="10.7705984"><ele>772.0</ele><time>2026-04-06T13:58:33.796Z</time></trkpt><trkpt lat="44.025217" lon="10.7704255"><ele>772.0</ele><time>2026-04-06T13:58:34.793Z</time></trkpt><trkpt lat="44.0252399" lon="10.7702334"><ele>772.0</ele><time>2026-04-06T13:58:35.792Z</time></trkpt><trkpt lat="44.0252717" lon="10.770067"><ele>771.0</ele><time>2026-04-06T13:58:36.795Z</time></trkpt><trkpt lat="44.0252528" lon="10.7698469"><ele>770.0</ele><time>2026-04-06T13:58:37.793Z</time></trkpt><trkpt lat="44.0252431" lon="10.769664"><ele>769.0</ele><time>2026-04-06T13:58:38.793Z</time></trkpt><trkpt lat="44.0251954" lon="10.7694849"><ele>768.0</ele><time>2026-04-06T13:58:39.792Z</time></trkpt><trkpt lat="44.0251581" lon="10.7693564"><ele>767.0</ele><time>2026-04-06T13:58:40.784Z</time></trkpt><trkpt lat="44.0251445" lon="10.7692204"><ele>766.0</ele><time>2026-04-06T13:58:41.786Z</time></trkpt><trkpt lat="44.025134" lon="10.769091"><ele>765.0</ele><time>2026-04-06T13:58:42.793Z</time></trkpt><trkpt lat="44.0251721" lon="10.7689839"><ele>764.0</ele><time>2026-04-06T13:58:44.793Z</time></trkpt><trkpt lat="44.0252295" lon="10.7689434"><ele>763.0</ele><time>2026-04-06T13:58:46.785Z</time></trkpt><trkpt lat="44.025352" lon="10.7690531"><ele>763.0</ele><time>2026-04-06T13:58:47.788Z</time></trkpt><trkpt lat="44.0255396" lon="10.7691953"><ele>763.0</ele><time>2026-04-06T13:58:48.794Z</time></trkpt><trkpt lat="44.0256789" lon="10.7693143"><ele>763.0</ele><time>2026-04-06T13:58:49.795Z</time></trkpt><trkpt lat="44.0256989" lon="10.7695394"><ele>764.25</ele><time>2026-04-06T13:58:50.791Z</time></trkpt><trkpt lat="44.0257785" lon="10.7697218"><ele>765.5</ele><time>2026-04-06T13:58:51.796Z</time></trkpt><trkpt lat="44.0258632" lon="10.7698865"><ele>766.75</ele><time>2026-04-06T13:58:52.79Z</time></trkpt><trkpt lat="44.0259289" lon="10.770052"><ele>768.0</ele><time>2026-04-06T13:58:53.794Z</time></trkpt><trkpt lat="44.0259891" lon="10.7702138"><ele>762.75</ele><time>2026-04-06T13:58:54.795Z</time></trkpt><trkpt lat="44.0260512" lon="10.7703697"><ele>757.5</ele><time>2026-04-06T13:58:55.795Z</time></trkpt><trkpt lat="44.0260578" lon="10.7705327"><ele>752.25</ele><time>2026-04-06T13:58:56.792Z</time></trkpt><trkpt lat="44.0260507" lon="10.7707052"><ele>747.0</ele><time>2026-04-06T13:58:57.799Z</time></trkpt><trkpt lat="44.0260416" lon="10.7708542"><ele>747.0</ele><time>2026-04-06T13:58:58.798Z</time></trkpt><trkpt lat="44.0260366" lon="10.7710125"><ele>747.0</ele><time>2026-04-06T13:58:59.791Z</time></trkpt><trkpt lat="44.0260603" lon="10.771148"><ele>747.0</ele><time>2026-04-06T13:59:00.791Z</time></trkpt><trkpt lat="44.0260686" lon="10.7712892"><ele>747.0</ele><time>2026-04-06T13:59:01.792Z</time></trkpt><trkpt lat="44.026085" lon="10.7714138"><ele>747.0</ele><time>2026-04-06T13:59:02.799Z</time></trkpt><trkpt lat="44.0261126" lon="10.7715308"><ele>747.0</ele><time>2026-04-06T13:59:03.79Z</time></trkpt><trkpt lat="44.0261728" lon="10.7716201"><ele>747.0</ele><time>2026-04-06T13:59:04.794Z</time></trkpt><trkpt lat="44.0262618" lon="10.7716754"><ele>747.0</ele><time>2026-04-06T13:59:05.79Z</time></trkpt><trkpt lat="44.0263402" lon="10.7717077"><ele>747.0</ele><time>2026-04-06T13:59:06.799Z</time></trkpt><trkpt lat="44.0264155" lon="10.7717767"><ele>747.0</ele><time>2026-04-06T13:59:07.792Z</time></trkpt><trkpt lat="44.0265724" lon="10.771829"><ele>746.25</ele><time>2026-04-06T13:59:08.792Z</time></trkpt><trkpt lat="44.0266515" lon="10.7719018"><ele>745.5</ele><time>2026-04-06T13:59:09.792Z</time></trkpt><trkpt lat="44.0267402" lon="10.7720117"><ele>744.75</ele><time>2026-04-06T13:59:10.793Z</time></trkpt><trkpt lat="44.0268183" lon="10.7721429"><ele>744.0</ele><time>2026-04-06T13:59:11.795Z</time></trkpt><trkpt lat="44.0269306" lon="10.7723007"><ele>744.0</ele><time>2026-04-06T13:59:12.792Z</time></trkpt><trkpt lat="44.0270243" lon="10.7724608"><ele>744.0</ele><time>2026-04-06T13:59:13.794Z</time></trkpt><trkpt lat="44.0271329" lon="10.7726103"><ele>744.0</ele><time>2026-04-06T13:59:14.794Z</time></trkpt><trkpt lat="44.0272359" lon="10.7727489"><ele>744.0</ele><time>2026-04-06T13:59:15.79Z</time></trkpt><trkpt lat="44.027334" lon="10.7728913"><ele>745.3333333333334</ele><time>2026-04-06T13:59:16.793Z</time></trkpt><trkpt lat="44.0274509" lon="10.7729995"><ele>746.6666666666667</ele><time>2026-04-06T13:59:17.795Z</time></trkpt><trkpt lat="44.0276125" lon="10.7730909"><ele>748.0</ele><time>2026-04-06T13:59:18.792Z</time></trkpt><trkpt lat="44.027738" lon="10.7731892"><ele>741.3333333333334</ele><time>2026-04-06T13:59:19.789Z</time></trkpt><trkpt lat="44.0278767" lon="10.7732773"><ele>734.6666666666666</ele><time>2026-04-06T13:59:20.792Z</time></trkpt><trkpt lat="44.0280106" lon="10.7733617"><ele>728.0</ele><time>2026-04-06T13:59:21.797Z</time></trkpt><trkpt lat="44.0281896" lon="10.7734506"><ele>725.3333333333333</ele><time>2026-04-06T13:59:22.793Z</time></trkpt><trkpt lat="44.0283915" lon="10.7735163"><ele>722.6666666666666</ele><time>2026-04-06T13:59:23.792Z</time></trkpt><trkpt lat="44.028626" lon="10.7735509"><ele>720.0</ele><time>2026-04-06T13:59:24.79Z</time></trkpt><trkpt lat="44.0288001" lon="10.7733877"><ele>720.0</ele><time>2026-04-06T13:59:25.791Z</time></trkpt><trkpt lat="44.0289438" lon="10.7733329"><ele>720.0</ele><time>2026-04-06T13:59:26.798Z</time></trkpt><trkpt lat="44.0290981" lon="10.7732657"><ele>720.0</ele><time>2026-04-06T13:59:27.794Z</time></trkpt><trkpt lat="44.0292453" lon="10.7732143"><ele>719.25</ele><time>2026-04-06T13:59:28.791Z</time></trkpt><trkpt lat="44.0293585" lon="10.7731184"><ele>718.5</ele><time>2026-04-06T13:59:29.792Z</time></trkpt><trkpt lat="44.0294973" lon="10.7730707"><ele>717.75</ele><time>2026-04-06T13:59:30.789Z</time></trkpt><trkpt lat="44.0296139" lon="10.7730659"><ele>717.0</ele><time>2026-04-06T13:59:31.792Z</time></trkpt><trkpt lat="44.0297303" lon="10.7730611"><ele>717.0</ele><time>2026-04-06T13:59:32.794Z</time></trkpt><trkpt lat="44.0298351" lon="10.773075"><ele>717.0</ele><time>2026-04-06T13:59:33.797Z</time></trkpt><trkpt lat="44.0299206" lon="10.7730758"><ele>717.0</ele><time>2026-04-06T13:59:34.793Z</time></trkpt><trkpt lat="44.0299949" lon="10.7730901"><ele>717.0</ele><time>2026-04-06T13:59:35.795Z</time></trkpt><trkpt lat="44.0300874" lon="10.7730919"><ele>717.0</ele><time>2026-04-06T13:59:36.794Z</time></trkpt><trkpt lat="44.0301727" lon="10.7730644"><ele>717.0</ele><time>2026-04-06T13:59:37.792Z</time></trkpt><trkpt lat="44.0302349" lon="10.7729739"><ele>717.3333333333334</ele><time>2026-04-06T13:59:38.793Z</time></trkpt><trkpt lat="44.0303765" lon="10.7728906"><ele>717.6666666666667</ele><time>2026-04-06T13:59:39.793Z</time></trkpt><trkpt lat="44.0304932" lon="10.7727544"><ele>718.0</ele><time>2026-04-06T13:59:40.793Z</time></trkpt><trkpt lat="44.0306275" lon="10.7726465"><ele>717.3333333333334</ele><time>2026-04-06T13:59:41.793Z</time></trkpt><trkpt lat="44.0307856" lon="10.7723977"><ele>716.6666666666666</ele><time>2026-04-06T13:59:42.792Z</time></trkpt><trkpt lat="44.0309266" lon="10.7722534"><ele>716.0</ele><time>2026-04-06T13:59:43.79Z</time></trkpt><trkpt lat="44.0310761" lon="10.7721269"><ele>716.0</ele><time>2026-04-06T13:59:44.793Z</time></trkpt><trkpt lat="44.031164" lon="10.7719513"><ele>716.0</ele><time>2026-04-06T13:59:45.796Z</time></trkpt><trkpt lat="44.0312329" lon="10.7717605"><ele>716.0</ele><time>2026-04-06T13:59:46.791Z</time></trkpt><trkpt lat="44.0313038" lon="10.771567"><ele>709.0</ele><time>2026-04-06T13:59:47.791Z</time></trkpt><trkpt lat="44.0313838" lon="10.7713899"><ele>702.0</ele><time>2026-04-06T13:59:48.791Z</time></trkpt><trkpt lat="44.0314118" lon="10.7711474"><ele>695.0</ele><time>2026-04-06T13:59:49.791Z</time></trkpt><trkpt lat="44.0314464" lon="10.7709349"><ele>695.0</ele><time>2026-04-06T13:59:50.792Z</time></trkpt><trkpt lat="44.031509" lon="10.7707278"><ele>695.0</ele><time>2026-04-06T13:59:51.795Z</time></trkpt><trkpt lat="44.0316144" lon="10.7705421"><ele>695.0</ele><time>2026-04-06T13:59:52.793Z</time></trkpt><trkpt lat="44.0317138" lon="10.7703644"><ele>691.0</ele><time>2026-04-06T13:59:53.793Z</time></trkpt><trkpt lat="44.0317946" lon="10.7701823"><ele>687.0</ele><time>2026-04-06T13:59:54.795Z</time></trkpt><trkpt lat="44.0318837" lon="10.7700036"><ele>683.0</ele><time>2026-04-06T13:59:55.791Z</time></trkpt><trkpt lat="44.0319885" lon="10.7698119"><ele>683.0</ele><time>2026-04-06T13:59:56.793Z</time></trkpt><trkpt lat="44.0320587" lon="10.7696535"><ele>683.0</ele><time>2026-04-06T13:59:57.791Z</time></trkpt><trkpt lat="44.0321351" lon="10.7695473"><ele>683.0</ele><time>2026-04-06T13:59:58.798Z</time></trkpt><trkpt lat="44.0323103" lon="10.7695503"><ele>683.0</ele><time>2026-04-06T14:00:00.79Z</time></trkpt><trkpt lat="44.0324312" lon="10.769556"><ele>686.0</ele><time>2026-04-06T14:00:01.792Z</time></trkpt><trkpt lat="44.0325495" lon="10.7695658"><ele>689.0</ele><time>2026-04-06T14:00:02.79Z</time></trkpt><trkpt lat="44.0326784" lon="10.7695632"><ele>692.0</ele><time>2026-04-06T14:00:03.797Z</time></trkpt><trkpt lat="44.0328294" lon="10.7695116"><ele>695.0</ele><time>2026-04-06T14:00:04.795Z</time></trkpt><trkpt lat="44.0329831" lon="10.7694565"><ele>695.0</ele><time>2026-04-06T14:00:05.795Z</time></trkpt><trkpt lat="44.0331617" lon="10.7693916"><ele>695.0</ele><time>2026-04-06T14:00:06.793Z</time></trkpt><trkpt lat="44.0333785" lon="10.7693308"><ele>695.0</ele><time>2026-04-06T14:00:07.794Z</time></trkpt><trkpt lat="44.033566" lon="10.7692774"><ele>689.3333333333333</ele><time>2026-04-06T14:00:08.795Z</time></trkpt><trkpt lat="44.0337479" lon="10.7692069"><ele>683.6666666666666</ele><time>2026-04-06T14:00:09.797Z</time></trkpt><trkpt lat="44.0339123" lon="10.7691619"><ele>678.0</ele><time>2026-04-06T14:00:10.802Z</time></trkpt><trkpt lat="44.0340783" lon="10.7691147"><ele>678.5</ele><time>2026-04-06T14:00:11.79Z</time></trkpt><trkpt lat="44.034257" lon="10.7690658"><ele>679.0</ele><time>2026-04-06T14:00:12.79Z</time></trkpt><trkpt lat="44.034426" lon="10.7689975"><ele>679.5</ele><time>2026-04-06T14:00:13.793Z</time></trkpt><trkpt lat="44.0344981" lon="10.768968"><ele>680.0</ele><time>2026-04-06T14:00:14.791Z</time></trkpt><trkpt lat="44.0346169" lon="10.7688951"><ele>680.0</ele><time>2026-04-06T14:00:16.793Z</time></trkpt><trkpt lat="44.0347713" lon="10.7687459"><ele>680.0</ele><time>2026-04-06T14:00:23.788Z</time></trkpt><trkpt lat="44.0348732" lon="10.7686515"><ele>680.0</ele><time>2026-04-06T14:00:24.788Z</time></trkpt><trkpt lat="44.034958" lon="10.7685209"><ele>680.0</ele><time>2026-04-06T14:00:25.793Z</time></trkpt><trkpt lat="44.0350596" lon="10.7684389"><ele>677.75</ele><time>2026-04-06T14:00:26.793Z</time></trkpt><trkpt lat="44.0352236" lon="10.7683438"><ele>675.5</ele><time>2026-04-06T14:00:27.801Z</time></trkpt><trkpt lat="44.0353237" lon="10.7682547"><ele>673.25</ele><time>2026-04-06T14:00:28.792Z</time></trkpt><trkpt lat="44.0353986" lon="10.7682018"><ele>671.0</ele><time>2026-04-06T14:00:29.794Z</time></trkpt><trkpt lat="44.0355004" lon="10.7682144"><ele>671.0</ele><time>2026-04-06T14:00:30.794Z</time></trkpt><trkpt lat="44.03559" lon="10.7682596"><ele>671.0</ele><time>2026-04-06T14:00:31.795Z</time></trkpt><trkpt lat="44.0357325" lon="10.7683217"><ele>671.0</ele><time>2026-04-06T14:00:32.79Z</time></trkpt><trkpt lat="44.0358613" lon="10.7683782"><ele>671.0</ele><time>2026-04-06T14:00:33.793Z</time></trkpt><trkpt lat="44.0359949" lon="10.768432"><ele>670.5</ele><time>2026-04-06T14:00:34.792Z</time></trkpt><trkpt lat="44.0361196" lon="10.7684774"><ele>670.0</ele><time>2026-04-06T14:00:35.792Z</time></trkpt><trkpt lat="44.0362038" lon="10.7684763"><ele>669.5</ele><time>2026-04-06T14:00:36.796Z</time></trkpt><trkpt lat="44.0363179" lon="10.7684538"><ele>669.0</ele><time>2026-04-06T14:00:37.792Z</time></trkpt><trkpt lat="44.0364769" lon="10.7684604"><ele>669.0</ele><time>2026-04-06T14:00:38.793Z</time></trkpt><trkpt lat="44.0365946" lon="10.7684173"><ele>669.0</ele><time>2026-04-06T14:00:39.79Z</time></trkpt><trkpt lat="44.0366656" lon="10.7683377"><ele>669.0</ele><time>2026-04-06T14:00:40.791Z</time></trkpt><trkpt lat="44.0367948" lon="10.7682579"><ele>669.0</ele><time>2026-04-06T14:00:41.797Z</time></trkpt><trkpt lat="44.0369088" lon="10.7681601"><ele>669.2</ele><time>2026-04-06T14:00:42.797Z</time></trkpt><trkpt lat="44.0369838" lon="10.7680277"><ele>669.4000000000001</ele><time>2026-04-06T14:00:43.797Z</time></trkpt><trkpt lat="44.0370753" lon="10.7679956"><ele>669.6</ele><time>2026-04-06T14:00:44.792Z</time></trkpt><trkpt lat="44.0371648" lon="10.7679882"><ele>669.8</ele><time>2026-04-06T14:00:45.803Z</time></trkpt><trkpt lat="44.0372505" lon="10.7680093"><ele>670.0</ele><time>2026-04-06T14:00:46.794Z</time></trkpt><trkpt lat="44.0373317" lon="10.7680448"><ele>670.0</ele><time>2026-04-06T14:00:47.791Z</time></trkpt><trkpt lat="44.037413" lon="10.7681186"><ele>670.0</ele><time>2026-04-06T14:00:48.794Z</time></trkpt><trkpt lat="44.0374857" lon="10.7681884"><ele>670.0</ele><time>2026-04-06T14:00:49.793Z</time></trkpt><trkpt lat="44.03756" lon="10.768238"><ele>670.0</ele><time>2026-04-06T14:00:50.794Z</time></trkpt><trkpt lat="44.0376506" lon="10.7682978"><ele>670.0</ele><time>2026-04-06T14:00:51.791Z</time></trkpt><trkpt lat="44.03782" lon="10.7682106"><ele>669.75</ele><time>2026-04-06T14:00:52.792Z</time></trkpt><trkpt lat="44.0379392" lon="10.7681668"><ele>669.5</ele><time>2026-04-06T14:00:53.792Z</time></trkpt><trkpt lat="44.0380067" lon="10.7680857"><ele>669.25</ele><time>2026-04-06T14:00:54.795Z</time></trkpt><trkpt lat="44.0381709" lon="10.7679995"><ele>669.0</ele><time>2026-04-06T14:00:55.798Z</time></trkpt><trkpt lat="44.0383404" lon="10.767938"><ele>670.0</ele><time>2026-04-06T14:00:56.793Z</time></trkpt><trkpt lat="44.0384963" lon="10.7678805"><ele>671.0</ele><time>2026-04-06T14:00:57.793Z</time></trkpt><trkpt lat="44.038613" lon="10.7678247"><ele>672.0</ele><time>2026-04-06T14:00:58.794Z</time></trkpt><trkpt lat="44.0387156" lon="10.7677444"><ele>673.0</ele><time>2026-04-06T14:00:59.789Z</time></trkpt><trkpt lat="44.0388225" lon="10.767674"><ele>670.5</ele><time>2026-04-06T14:01:00.799Z</time></trkpt><trkpt lat="44.0388905" lon="10.7675877"><ele>668.0</ele><time>2026-04-06T14:01:01.792Z</time></trkpt><trkpt lat="44.0390176" lon="10.7673452"><ele>665.5</ele><time>2026-04-06T14:01:02.799Z</time></trkpt><trkpt lat="44.03912" lon="10.767215"><ele>663.0</ele><time>2026-04-06T14:01:03.798Z</time></trkpt><trkpt lat="44.0392009" lon="10.7670072"><ele>656.5</ele><time>2026-04-06T14:01:04.797Z</time></trkpt><trkpt lat="44.0392346" lon="10.7668296"><ele>650.0</ele><time>2026-04-06T14:01:05.791Z</time></trkpt><trkpt lat="44.0392992" lon="10.7667084"><ele>643.5</ele><time>2026-04-06T14:01:06.792Z</time></trkpt><trkpt lat="44.0394026" lon="10.7666513"><ele>637.0</ele><time>2026-04-06T14:01:07.797Z</time></trkpt><trkpt lat="44.0395565" lon="10.7666717"><ele>637.0</ele><time>2026-04-06T14:01:08.791Z</time></trkpt><trkpt lat="44.0396662" lon="10.7666498"><ele>637.0</ele><time>2026-04-06T14:01:09.792Z</time></trkpt><trkpt lat="44.0397873" lon="10.7666728"><ele>637.0</ele><time>2026-04-06T14:01:10.796Z</time></trkpt><trkpt lat="44.0398951" lon="10.7666968"><ele>637.0</ele><time>2026-04-06T14:01:11.791Z</time></trkpt><trkpt lat="44.0400586" lon="10.7667992"><ele>643.75</ele><time>2026-04-06T14:01:12.791Z</time></trkpt><trkpt lat="44.0401863" lon="10.7669068"><ele>650.5</ele><time>2026-04-06T14:01:13.797Z</time></trkpt><trkpt lat="44.0402893" lon="10.7670243"><ele>657.25</ele><time>2026-04-06T14:01:14.797Z</time></trkpt><trkpt lat="44.040428" lon="10.7671073"><ele>664.0</ele><time>2026-04-06T14:01:15.792Z</time></trkpt><trkpt lat="44.0405516" lon="10.7672074"><ele>664.0</ele><time>2026-04-06T14:01:16.793Z</time></trkpt><trkpt lat="44.0407069" lon="10.7672738"><ele>664.0</ele><time>2026-04-06T14:01:17.792Z</time></trkpt><trkpt lat="44.040863" lon="10.7672774"><ele>664.0</ele><time>2026-04-06T14:01:18.788Z</time></trkpt><trkpt lat="44.0410294" lon="10.7673167"><ele>658.3333333333334</ele><time>2026-04-06T14:01:19.79Z</time></trkpt><trkpt lat="44.0412127" lon="10.7673315"><ele>652.6666666666666</ele><time>2026-04-06T14:01:20.793Z</time></trkpt><trkpt lat="44.0413311" lon="10.7672218"><ele>647.0</ele><time>2026-04-06T14:01:21.792Z</time></trkpt><trkpt lat="44.0415171" lon="10.767186"><ele>644.6666666666666</ele><time>2026-04-06T14:01:22.793Z</time></trkpt><trkpt lat="44.0416579" lon="10.7670987"><ele>642.3333333333334</ele><time>2026-04-06T14:01:23.794Z</time></trkpt><trkpt lat="44.0418393" lon="10.7670325"><ele>640.0</ele><time>2026-04-06T14:01:24.793Z</time></trkpt><trkpt lat="44.0419719" lon="10.7669698"><ele>640.0</ele><time>2026-04-06T14:01:25.79Z</time></trkpt><trkpt lat="44.0421016" lon="10.766932"><ele>640.0</ele><time>2026-04-06T14:01:26.796Z</time></trkpt><trkpt lat="44.0422315" lon="10.7668664"><ele>640.0</ele><time>2026-04-06T14:01:27.791Z</time></trkpt><trkpt lat="44.0423219" lon="10.7667686"><ele>640.0</ele><time>2026-04-06T14:01:28.789Z</time></trkpt><trkpt lat="44.0423926" lon="10.7666135"><ele>634.6666666666667</ele><time>2026-04-06T14:01:29.796Z</time></trkpt><trkpt lat="44.0424411" lon="10.7664257"><ele>629.3333333333334</ele><time>2026-04-06T14:01:30.796Z</time></trkpt><trkpt lat="44.0424872" lon="10.7662512"><ele>624.0</ele><time>2026-04-06T14:01:31.798Z</time></trkpt><trkpt lat="44.0425176" lon="10.7660125"><ele>620.6666666666666</ele><time>2026-04-06T14:01:32.793Z</time></trkpt><trkpt lat="44.042547" lon="10.7657262"><ele>617.3333333333333</ele><time>2026-04-06T14:01:33.79Z</time></trkpt><trkpt lat="44.0425753" lon="10.7655692"><ele>614.0</ele><time>2026-04-06T14:01:34.792Z</time></trkpt><trkpt lat="44.0426259" lon="10.7654067"><ele>614.0</ele><time>2026-04-06T14:01:35.79Z</time></trkpt><trkpt lat="44.042695" lon="10.76527"><ele>614.0</ele><time>2026-04-06T14:01:36.795Z</time></trkpt><trkpt lat="44.0427682" lon="10.7651898"><ele>614.0</ele><time>2026-04-06T14:01:37.794Z</time></trkpt><trkpt lat="44.0428528" lon="10.7651683"><ele>614.0</ele><time>2026-04-06T14:01:38.789Z</time></trkpt><trkpt lat="44.042912" lon="10.7651296"><ele>614.0</ele><time>2026-04-06T14:01:39.793Z</time></trkpt><trkpt lat="44.0430366" lon="10.7651146"><ele>613.5</ele><time>2026-04-06T14:01:40.79Z</time></trkpt><trkpt lat="44.0431357" lon="10.7651311"><ele>613.0</ele><time>2026-04-06T14:01:41.793Z</time></trkpt><trkpt lat="44.0432608" lon="10.7651873"><ele>612.5</ele><time>2026-04-06T14:01:42.794Z</time></trkpt><trkpt lat="44.0434395" lon="10.7652533"><ele>612.0</ele><time>2026-04-06T14:01:44.789Z</time></trkpt><trkpt lat="44.0435934" lon="10.7653643"><ele>612.0</ele><time>2026-04-06T14:01:45.792Z</time></trkpt><trkpt lat="44.0436905" lon="10.7654382"><ele>612.0</ele><time>2026-04-06T14:01:46.792Z</time></trkpt><trkpt lat="44.0437773" lon="10.7655562"><ele>612.0</ele><time>2026-04-06T14:01:47.792Z</time></trkpt><trkpt lat="44.0438441" lon="10.7657214"><ele>612.0</ele><time>2026-04-06T14:01:48.806Z</time></trkpt><trkpt lat="44.0439024" lon="10.7659091"><ele>613.6666666666666</ele><time>2026-04-06T14:01:49.795Z</time></trkpt><trkpt lat="44.0438719" lon="10.7661551"><ele>615.3333333333333</ele><time>2026-04-06T14:01:50.79Z</time></trkpt><trkpt lat="44.0438373" lon="10.766391"><ele>617.0</ele><time>2026-04-06T14:01:51.798Z</time></trkpt><trkpt lat="44.043848" lon="10.7665906"><ele>617.0</ele><time>2026-04-06T14:01:52.794Z</time></trkpt><trkpt lat="44.0438729" lon="10.7667564"><ele>617.0</ele><time>2026-04-06T14:01:53.794Z</time></trkpt><trkpt lat="44.0439114" lon="10.7669036"><ele>617.0</ele><time>2026-04-06T14:01:54.795Z</time></trkpt><trkpt lat="44.0439899" lon="10.7670156"><ele>617.0</ele><time>2026-04-06T14:01:55.791Z</time></trkpt><trkpt lat="44.0440642" lon="10.7670694"><ele>617.0</ele><time>2026-04-06T14:01:56.795Z</time></trkpt><trkpt lat="44.0441672" lon="10.7670271"><ele>614.4</ele><time>2026-04-06T14:01:59.796Z</time></trkpt><trkpt lat="44.0442045" lon="10.7669261"><ele>611.8000000000001</ele><time>2026-04-06T14:02:00.792Z</time></trkpt><trkpt lat="44.0442327" lon="10.7667805"><ele>609.2</ele><time>2026-04-06T14:02:01.796Z</time></trkpt><trkpt lat="44.0441917" lon="10.7666606"><ele>606.6</ele><time>2026-04-06T14:02:02.793Z</time></trkpt><trkpt lat="44.0441689" lon="10.7664905"><ele>604.0</ele><time>2026-04-06T14:02:03.796Z</time></trkpt><trkpt lat="44.0442111" lon="10.7662043"><ele>600.5</ele><time>2026-04-06T14:02:04.791Z</time></trkpt><trkpt lat="44.044265" lon="10.766022"><ele>597.0</ele><time>2026-04-06T14:02:05.79Z</time></trkpt><trkpt lat="44.0442752" lon="10.7657986"><ele>593.5</ele><time>2026-04-06T14:02:06.799Z</time></trkpt><trkpt lat="44.0442308" lon="10.7656795"><ele>590.0</ele><time>2026-04-06T14:02:07.793Z</time></trkpt><trkpt lat="44.0442088" lon="10.7655227"><ele>590.0</ele><time>2026-04-06T14:02:08.789Z</time></trkpt><trkpt lat="44.0441686" lon="10.7653815"><ele>590.0</ele><time>2026-04-06T14:02:09.79Z</time></trkpt><trkpt lat="44.0440892" lon="10.7652587"><ele>590.0</ele><time>2026-04-06T14:02:10.791Z</time></trkpt><trkpt lat="44.0439574" lon="10.7651552"><ele>590.0</ele><time>2026-04-06T14:02:11.793Z</time></trkpt><trkpt lat="44.0438363" lon="10.7650663"><ele>590.6666666666666</ele><time>2026-04-06T14:02:12.792Z</time></trkpt><trkpt lat="44.0437169" lon="10.7649579"><ele>591.3333333333334</ele><time>2026-04-06T14:02:13.796Z</time></trkpt><trkpt lat="44.0435698" lon="10.7648295"><ele>592.0</ele><time>2026-04-06T14:02:14.794Z</time></trkpt><trkpt lat="44.0434184" lon="10.7647004"><ele>592.6666666666667</ele><time>2026-04-06T14:02:15.797Z</time></trkpt><trkpt lat="44.0432291" lon="10.7645778"><ele>593.3333333333334</ele><time>2026-04-06T14:02:16.793Z</time></trkpt><trkpt lat="44.0430707" lon="10.7644731"><ele>594.0</ele><time>2026-04-06T14:02:17.793Z</time></trkpt><trkpt lat="44.0428951" lon="10.7644044"><ele>594.0</ele><time>2026-04-06T14:02:18.794Z</time></trkpt><trkpt lat="44.0427947" lon="10.7644082"><ele>594.0</ele><time>2026-04-06T14:02:19.795Z</time></trkpt><trkpt lat="44.0426576" lon="10.7644303"><ele>594.0</ele><time>2026-04-06T14:02:20.789Z</time></trkpt><trkpt lat="44.0424685" lon="10.7645536"><ele>594.0</ele><time>2026-04-06T14:02:21.797Z</time></trkpt><trkpt lat="44.042331" lon="10.7646705"><ele>589.3333333333334</ele><time>2026-04-06T14:02:22.794Z</time></trkpt><trkpt lat="44.0421742" lon="10.7647591"><ele>584.6666666666667</ele><time>2026-04-06T14:02:23.794Z</time></trkpt><trkpt lat="44.0420166" lon="10.7648293"><ele>580.0</ele><time>2026-04-06T14:02:24.788Z</time></trkpt><trkpt lat="44.0418618" lon="10.7648904"><ele>580.0</ele><time>2026-04-06T14:02:25.796Z</time></trkpt><trkpt lat="44.0416948" lon="10.764887"><ele>580.0</ele><time>2026-04-06T14:02:26.79Z</time></trkpt><trkpt lat="44.0415547" lon="10.7649101"><ele>580.0</ele><time>2026-04-06T14:02:27.791Z</time></trkpt><trkpt lat="44.0414256" lon="10.764933"><ele>580.0</ele><time>2026-04-06T14:02:28.792Z</time></trkpt><trkpt lat="44.0412951" lon="10.7649404"><ele>578.4</ele><time>2026-04-06T14:02:29.789Z</time></trkpt><trkpt lat="44.0411856" lon="10.7649364"><ele>576.8</ele><time>2026-04-06T14:02:30.794Z</time></trkpt><trkpt lat="44.0410963" lon="10.7648727"><ele>575.2</ele><time>2026-04-06T14:02:31.791Z</time></trkpt><trkpt lat="44.0410881" lon="10.7647848"><ele>573.6</ele><time>2026-04-06T14:02:32.797Z</time></trkpt><trkpt lat="44.0410679" lon="10.7646656"><ele>572.0</ele><time>2026-04-06T14:02:33.797Z</time></trkpt><trkpt lat="44.0410716" lon="10.7645422"><ele>572.0</ele><time>2026-04-06T14:02:34.792Z</time></trkpt><trkpt lat="44.0410671" lon="10.7644422"><ele>572.0</ele><time>2026-04-06T14:02:35.79Z</time></trkpt><trkpt lat="44.0411483" lon="10.7643733"><ele>572.0</ele><time>2026-04-06T14:02:36.795Z</time></trkpt><trkpt lat="44.0412255" lon="10.7642774"><ele>572.0</ele><time>2026-04-06T14:02:38.792Z</time></trkpt><trkpt lat="44.0413315" lon="10.7642914"><ele>572.0</ele><time>2026-04-06T14:02:39.795Z</time></trkpt><trkpt lat="44.0414002" lon="10.7642588"><ele>568.6666666666666</ele><time>2026-04-06T14:02:40.791Z</time></trkpt><trkpt lat="44.041508" lon="10.7641839"><ele>565.3333333333334</ele><time>2026-04-06T14:02:41.796Z</time></trkpt><trkpt lat="44.0416323" lon="10.7641791"><ele>562.0</ele><time>2026-04-06T14:02:42.802Z</time></trkpt><trkpt lat="44.041863" lon="10.7642216"><ele>562.0</ele><time>2026-04-06T14:02:43.791Z</time></trkpt><trkpt lat="44.0419964" lon="10.7641985"><ele>562.0</ele><time>2026-04-06T14:02:44.794Z</time></trkpt><trkpt lat="44.0421325" lon="10.7641435"><ele>562.0</ele><time>2026-04-06T14:02:45.793Z</time></trkpt><trkpt lat="44.0422849" lon="10.7641275"><ele>562.0</ele><time>2026-04-06T14:02:46.79Z</time></trkpt><trkpt lat="44.0423965" lon="10.764078"><ele>562.75</ele><time>2026-04-06T14:02:47.791Z</time></trkpt><trkpt lat="44.0424867" lon="10.7640282"><ele>563.5</ele><time>2026-04-06T14:02:48.793Z</time></trkpt><trkpt lat="44.0426317" lon="10.7640415"><ele>564.25</ele><time>2026-04-06T14:02:49.795Z</time></trkpt><trkpt lat="44.0427451" lon="10.7640108"><ele>565.0</ele><time>2026-04-06T14:02:50.793Z</time></trkpt><trkpt lat="44.042885" lon="10.7640151"><ele>565.0</ele><time>2026-04-06T14:02:51.79Z</time></trkpt><trkpt lat="44.0429698" lon="10.7639796"><ele>565.0</ele><time>2026-04-06T14:02:52.79Z</time></trkpt><trkpt lat="44.0430851" lon="10.7640342"><ele>565.0</ele><time>2026-04-06T14:02:53.795Z</time></trkpt><trkpt lat="44.0431995" lon="10.7640405"><ele>565.0</ele><time>2026-04-06T14:02:54.792Z</time></trkpt><trkpt lat="44.0432887" lon="10.7640523"><ele>565.0</ele><time>2026-04-06T14:02:55.797Z</time></trkpt><trkpt lat="44.0433762" lon="10.7640246"><ele>564.4</ele><time>2026-04-06T14:02:56.794Z</time></trkpt><trkpt lat="44.0434661" lon="10.7640567"><ele>563.8</ele><time>2026-04-06T14:02:57.787Z</time></trkpt><trkpt lat="44.0435509" lon="10.764058"><ele>563.2</ele><time>2026-04-06T14:02:58.795Z</time></trkpt><trkpt lat="44.0436291" lon="10.7641296"><ele>562.6</ele><time>2026-04-06T14:02:59.793Z</time></trkpt><trkpt lat="44.0437347" lon="10.7641734"><ele>562.0</ele><time>2026-04-06T14:03:00.788Z</time></trkpt><trkpt lat="44.0438044" lon="10.7642716"><ele>562.0</ele><time>2026-04-06T14:03:01.79Z</time></trkpt><trkpt lat="44.0438792" lon="10.7643557"><ele>562.0</ele><time>2026-04-06T14:03:02.794Z</time></trkpt><trkpt lat="44.0439593" lon="10.764441"><ele>562.0</ele><time>2026-04-06T14:03:03.792Z</time></trkpt><trkpt lat="44.0440572" lon="10.7645266"><ele>562.0</ele><time>2026-04-06T14:03:04.793Z</time></trkpt><trkpt lat="44.0441589" lon="10.7645758"><ele>562.0</ele><time>2026-04-06T14:03:05.794Z</time></trkpt><trkpt lat="44.0442588" lon="10.7646238"><ele>563.0</ele><time>2026-04-06T14:03:06.796Z</time></trkpt><trkpt lat="44.0443669" lon="10.7646426"><ele>564.0</ele><time>2026-04-06T14:03:07.807Z</time></trkpt><trkpt lat="44.044451" lon="10.7646718"><ele>565.0</ele><time>2026-04-06T14:03:08.793Z</time></trkpt><trkpt lat="44.0445501" lon="10.7647001"><ele>566.0</ele><time>2026-04-06T14:03:10.794Z</time></trkpt><trkpt lat="44.0446313" lon="10.7647185"><ele>567.0</ele><time>2026-04-06T14:03:11.801Z</time></trkpt><trkpt lat="44.0447325" lon="10.7647569"><ele>567.0</ele><time>2026-04-06T14:03:12.792Z</time></trkpt><trkpt lat="44.0448548" lon="10.7648352"><ele>567.0</ele><time>2026-04-06T14:03:13.793Z</time></trkpt><trkpt lat="44.0449739" lon="10.7649082"><ele>567.0</ele><time>2026-04-06T14:03:14.793Z</time></trkpt><trkpt lat="44.0450514" lon="10.7650168"><ele>567.0</ele><time>2026-04-06T14:03:15.791Z</time></trkpt><trkpt lat="44.0451313" lon="10.7650824"><ele>567.6</ele><time>2026-04-06T14:03:16.796Z</time></trkpt><trkpt lat="44.0452153" lon="10.765137"><ele>568.2</ele><time>2026-04-06T14:03:17.794Z</time></trkpt><trkpt lat="44.0452665" lon="10.7651892"><ele>568.8</ele><time>2026-04-06T14:03:18.798Z</time></trkpt><trkpt lat="44.0453396" lon="10.7651923"><ele>569.4</ele><time>2026-04-06T14:03:19.794Z</time></trkpt><trkpt lat="44.0454871" lon="10.765208"><ele>570.0</ele><time>2026-04-06T14:03:20.791Z</time></trkpt><trkpt lat="44.0455855" lon="10.7652236"><ele>570.0</ele><time>2026-04-06T14:03:21.793Z</time></trkpt><trkpt lat="44.0456703" lon="10.7652054"><ele>570.0</ele><time>2026-04-06T14:03:22.794Z</time></trkpt><trkpt lat="44.0457358" lon="10.7651735"><ele>570.0</ele><time>2026-04-06T14:03:23.791Z</time></trkpt><trkpt lat="44.0458129" lon="10.7651293"><ele>570.0</ele><time>2026-04-06T14:03:24.794Z</time></trkpt><trkpt lat="44.045896" lon="10.7650821"><ele>570.0</ele><time>2026-04-06T14:03:25.789Z</time></trkpt><trkpt lat="44.0460083" lon="10.7650626"><ele>570.0</ele><time>2026-04-06T14:03:27.791Z</time></trkpt><trkpt lat="44.0461279" lon="10.7651595"><ele>566.75</ele><time>2026-04-06T14:03:29.793Z</time></trkpt><trkpt lat="44.0462043" lon="10.7653249"><ele>563.5</ele><time>2026-04-06T14:03:30.794Z</time></trkpt><trkpt lat="44.0462847" lon="10.7654363"><ele>560.25</ele><time>2026-04-06T14:03:31.792Z</time></trkpt><trkpt lat="44.0463504" lon="10.7655532"><ele>557.0</ele><time>2026-04-06T14:03:32.793Z</time></trkpt><trkpt lat="44.0464143" lon="10.7656872"><ele>557.0</ele><time>2026-04-06T14:03:33.798Z</time></trkpt><trkpt lat="44.0464487" lon="10.7658014"><ele>557.0</ele><time>2026-04-06T14:03:34.792Z</time></trkpt><trkpt lat="44.046492" lon="10.7659266"><ele>557.0</ele><time>2026-04-06T14:03:35.791Z</time></trkpt><trkpt lat="44.0465395" lon="10.7660437"><ele>557.0</ele><time>2026-04-06T14:03:36.794Z</time></trkpt><trkpt lat="44.0466182" lon="10.7661538"><ele>557.0</ele><time>2026-04-06T14:03:37.791Z</time></trkpt><trkpt lat="44.0466618" lon="10.7662823"><ele>554.8000000000001</ele><time>2026-04-06T14:03:38.792Z</time></trkpt><trkpt lat="44.0467285" lon="10.7664017"><ele>552.6</ele><time>2026-04-06T14:03:39.79Z</time></trkpt><trkpt lat="44.0467824" lon="10.7665253"><ele>550.4000000000001</ele><time>2026-04-06T14:03:40.79Z</time></trkpt><trkpt lat="44.046873" lon="10.7666254"><ele>548.2</ele><time>2026-04-06T14:03:41.791Z</time></trkpt><trkpt lat="44.046948" lon="10.7667233"><ele>546.0</ele><time>2026-04-06T14:03:42.794Z</time></trkpt><trkpt lat="44.0470445" lon="10.7668069"><ele>550.25</ele><time>2026-04-06T14:03:43.792Z</time></trkpt><trkpt lat="44.047134" lon="10.7669211"><ele>554.5</ele><time>2026-04-06T14:03:44.791Z</time></trkpt><trkpt lat="44.0472134" lon="10.7670176"><ele>558.75</ele><time>2026-04-06T14:03:45.794Z</time></trkpt><trkpt lat="44.0473096" lon="10.7671198"><ele>563.0</ele><time>2026-04-06T14:03:46.794Z</time></trkpt><trkpt lat="44.047369" lon="10.7672414"><ele>563.0</ele><time>2026-04-06T14:03:47.796Z</time></trkpt><trkpt lat="44.0474355" lon="10.7673477"><ele>563.0</ele><time>2026-04-06T14:03:48.797Z</time></trkpt><trkpt lat="44.047533" lon="10.7674386"><ele>563.0</ele><time>2026-04-06T14:03:49.801Z</time></trkpt><trkpt lat="44.0476369" lon="10.7675177"><ele>563.0</ele><time>2026-04-06T14:03:50.792Z</time></trkpt><trkpt lat="44.047727" lon="10.7675971"><ele>563.0</ele><time>2026-04-06T14:03:51.791Z</time></trkpt><trkpt lat="44.0478383" lon="10.7676473"><ele>562.8</ele><time>2026-04-06T14:03:52.798Z</time></trkpt><trkpt lat="44.0479108" lon="10.7677208"><ele>562.5999999999999</ele><time>2026-04-06T14:03:53.799Z</time></trkpt><trkpt lat="44.0480098" lon="10.7677994"><ele>562.4000000000001</ele><time>2026-04-06T14:03:54.792Z</time></trkpt><trkpt lat="44.0481224" lon="10.7678544"><ele>562.2</ele><time>2026-04-06T14:03:55.791Z</time></trkpt><trkpt lat="44.0482278" lon="10.7679009"><ele>562.0</ele><time>2026-04-06T14:03:56.797Z</time></trkpt><trkpt lat="44.0483722" lon="10.767933"><ele>555.25</ele><time>2026-04-06T14:03:57.793Z</time></trkpt><trkpt lat="44.0485114" lon="10.7679632"><ele>548.5</ele><time>2026-04-06T14:03:58.804Z</time></trkpt><trkpt lat="44.0486327" lon="10.7679782"><ele>541.75</ele><time>2026-04-06T14:03:59.796Z</time></trkpt><trkpt lat="44.048791" lon="10.7679899"><ele>535.0</ele><time>2026-04-06T14:04:00.79Z</time></trkpt><trkpt lat="44.048899" lon="10.7680087"><ele>535.0</ele><time>2026-04-06T14:04:01.808Z</time></trkpt><trkpt lat="44.0490689" lon="10.7680014"><ele>535.0</ele><time>2026-04-06T14:04:02.803Z</time></trkpt><trkpt lat="44.0492359" lon="10.7679506"><ele>535.0</ele><time>2026-04-06T14:04:03.787Z</time></trkpt><trkpt lat="44.0493963" lon="10.7679325"><ele>529.3333333333334</ele><time>2026-04-06T14:04:04.792Z</time></trkpt><trkpt lat="44.0495436" lon="10.7679078"><ele>523.6666666666666</ele><time>2026-04-06T14:04:05.798Z</time></trkpt><trkpt lat="44.0497215" lon="10.7677866"><ele>518.0</ele><time>2026-04-06T14:04:07.795Z</time></trkpt><trkpt lat="44.0500327" lon="10.7678574"><ele>516.5</ele><time>2026-04-06T14:04:09.793Z</time></trkpt><trkpt lat="44.0501519" lon="10.7679367"><ele>515.0</ele><time>2026-04-06T14:04:10.79Z</time></trkpt><trkpt lat="44.05029" lon="10.7680521"><ele>513.5</ele><time>2026-04-06T14:04:11.795Z</time></trkpt><trkpt lat="44.0503884" lon="10.7681622"><ele>512.0</ele><time>2026-04-06T14:04:12.787Z</time></trkpt><trkpt lat="44.0505982" lon="10.7683202"><ele>512.0</ele><time>2026-04-06T14:04:13.787Z</time></trkpt><trkpt lat="44.0507171" lon="10.7684266"><ele>512.0</ele><time>2026-04-06T14:04:14.789Z</time></trkpt><trkpt lat="44.050829" lon="10.7684893"><ele>512.0</ele><time>2026-04-06T14:04:15.791Z</time></trkpt><trkpt lat="44.0509308" lon="10.7685699"><ele>512.0</ele><time>2026-04-06T14:04:16.799Z</time></trkpt><trkpt lat="44.0510207" lon="10.7687365"><ele>509.0</ele><time>2026-04-06T14:04:17.802Z</time></trkpt><trkpt lat="44.0510458" lon="10.7688247"><ele>506.00000000000006</ele><time>2026-04-06T14:04:18.79Z</time></trkpt><trkpt lat="44.0510429" lon="10.7689152"><ele>503.00000000000006</ele><time>2026-04-06T14:04:19.797Z</time></trkpt><trkpt lat="44.0510063" lon="10.769063"><ele>500.0</ele><time>2026-04-06T14:04:20.786Z</time></trkpt><trkpt lat="44.0509617" lon="10.7691976"><ele>497.0</ele><time>2026-04-06T14:04:21.795Z</time></trkpt><trkpt lat="44.0508975" lon="10.7693477"><ele>496.75</ele><time>2026-04-06T14:04:22.79Z</time></trkpt><trkpt lat="44.0509008" lon="10.7694936"><ele>496.5</ele><time>2026-04-06T14:04:23.785Z</time></trkpt><trkpt lat="44.0509213" lon="10.7696357"><ele>496.25</ele><time>2026-04-06T14:04:24.791Z</time></trkpt><trkpt lat="44.0509538" lon="10.7697892"><ele>496.0</ele><time>2026-04-06T14:04:25.784Z</time></trkpt><trkpt lat="44.0510179" lon="10.7699774"><ele>496.0</ele><time>2026-04-06T14:04:26.796Z</time></trkpt><trkpt lat="44.0510604" lon="10.7701371"><ele>496.0</ele><time>2026-04-06T14:04:27.837Z</time></trkpt><trkpt lat="44.0511356" lon="10.7702851"><ele>496.0</ele><time>2026-04-06T14:04:28.783Z</time></trkpt><trkpt lat="44.051221" lon="10.7704081"><ele>496.0</ele><time>2026-04-06T14:04:29.784Z</time></trkpt><trkpt lat="44.0513147" lon="10.770523"><ele>497.5</ele><time>2026-04-06T14:04:30.795Z</time></trkpt><trkpt lat="44.0514233" lon="10.7706106"><ele>499.0</ele><time>2026-04-06T14:04:31.795Z</time></trkpt><trkpt lat="44.0514774" lon="10.7707314"><ele>500.5</ele><time>2026-04-06T14:04:32.789Z</time></trkpt><trkpt lat="44.0515741" lon="10.7708042"><ele>502.0</ele><time>2026-04-06T14:04:33.8Z</time></trkpt><trkpt lat="44.0516233" lon="10.771005"><ele>504.25</ele><time>2026-04-06T14:04:35.791Z</time></trkpt><trkpt lat="44.0516095" lon="10.7711232"><ele>506.5</ele><time>2026-04-06T14:04:36.789Z</time></trkpt><trkpt lat="44.0516486" lon="10.7712459"><ele>508.75</ele><time>2026-04-06T14:04:37.792Z</time></trkpt><trkpt lat="44.0516017" lon="10.7713981"><ele>511.0</ele><time>2026-04-06T14:04:38.805Z</time></trkpt><trkpt lat="44.0515194" lon="10.7715693"><ele>511.0</ele><time>2026-04-06T14:04:39.788Z</time></trkpt><trkpt lat="44.0514482" lon="10.7717185"><ele>511.0</ele><time>2026-04-06T14:04:40.791Z</time></trkpt><trkpt lat="44.0513765" lon="10.7718711"><ele>511.0</ele><time>2026-04-06T14:04:41.79Z</time></trkpt><trkpt lat="44.0513254" lon="10.7720316"><ele>511.0</ele><time>2026-04-06T14:04:42.793Z</time></trkpt><trkpt lat="44.0513025" lon="10.772207"><ele>510.0</ele><time>2026-04-06T14:04:43.796Z</time></trkpt><trkpt lat="44.0512703" lon="10.7723466"><ele>509.0</ele><time>2026-04-06T14:04:44.794Z</time></trkpt><trkpt lat="44.0512064" lon="10.7725239"><ele>508.0</ele><time>2026-04-06T14:04:45.794Z</time></trkpt><trkpt lat="44.0511583" lon="10.772703"><ele>507.0</ele><time>2026-04-06T14:04:46.794Z</time></trkpt><trkpt lat="44.0511119" lon="10.7728451"><ele>503.0</ele><time>2026-04-06T14:04:47.792Z</time></trkpt><trkpt lat="44.0510713" lon="10.7729968"><ele>499.00000000000006</ele><time>2026-04-06T14:04:48.787Z</time></trkpt><trkpt lat="44.0510507" lon="10.7731229"><ele>495.00000000000006</ele><time>2026-04-06T14:04:49.792Z</time></trkpt><trkpt lat="44.0510642" lon="10.7732385"><ele>491.0</ele><time>2026-04-06T14:04:50.793Z</time></trkpt><trkpt lat="44.0511141" lon="10.7733308"><ele>487.0</ele><time>2026-04-06T14:04:52.787Z</time></trkpt><trkpt lat="44.0511932" lon="10.7733915"><ele>487.0</ele><time>2026-04-06T14:04:54.793Z</time></trkpt><trkpt lat="44.0512764" lon="10.7734908"><ele>487.0</ele><time>2026-04-06T14:04:55.79Z</time></trkpt><trkpt lat="44.0514198" lon="10.7735572"><ele>487.0</ele><time>2026-04-06T14:04:58.79Z</time></trkpt><trkpt lat="44.0515406" lon="10.7733882"><ele>487.0</ele><time>2026-04-06T14:05:00.79Z</time></trkpt><trkpt lat="44.0515743" lon="10.7732987"><ele>487.00000000000006</ele><time>2026-04-06T14:05:01.805Z</time></trkpt><trkpt lat="44.0516175" lon="10.7732256"><ele>487.0</ele><time>2026-04-06T14:05:02.8Z</time></trkpt><trkpt lat="44.051671" lon="10.7731326"><ele>487.0</ele><time>2026-04-06T14:05:03.79Z</time></trkpt><trkpt lat="44.051732" lon="10.7730558"><ele>487.0</ele><time>2026-04-06T14:05:04.784Z</time></trkpt><trkpt lat="44.0517768" lon="10.7729701"><ele>487.00000000000006</ele><time>2026-04-06T14:05:05.792Z</time></trkpt><trkpt lat="44.0518202" lon="10.7728876"><ele>487.0</ele><time>2026-04-06T14:05:06.784Z</time></trkpt><trkpt lat="44.0518834" lon="10.7727979"><ele>486.50000000000006</ele><time>2026-04-06T14:05:08.789Z</time></trkpt><trkpt lat="44.0519574" lon="10.7727814"><ele>486.0</ele><time>2026-04-06T14:05:09.787Z</time></trkpt><trkpt lat="44.0520697" lon="10.7727401"><ele>485.5</ele><time>2026-04-06T14:05:11.791Z</time></trkpt><trkpt lat="44.0521624" lon="10.7727325"><ele>485.0</ele><time>2026-04-06T14:05:12.783Z</time></trkpt><trkpt lat="44.0522554" lon="10.7727113"><ele>484.50000000000006</ele><time>2026-04-06T14:05:14.79Z</time></trkpt><trkpt lat="44.0523256" lon="10.7727054"><ele>484.0</ele><time>2026-04-06T14:05:15.795Z</time></trkpt><trkpt lat="44.0524029" lon="10.7726948"><ele>483.2</ele><time>2026-04-06T14:05:16.796Z</time></trkpt><trkpt lat="44.0524684" lon="10.7726607"><ele>482.4</ele><time>2026-04-06T14:05:17.79Z</time></trkpt><trkpt lat="44.0525515" lon="10.7726302"><ele>481.6</ele><time>2026-04-06T14:05:18.788Z</time></trkpt><trkpt lat="44.0526358" lon="10.7725768"><ele>480.8</ele><time>2026-04-06T14:05:19.79Z</time></trkpt><trkpt lat="44.0527346" lon="10.7725108"><ele>480.0</ele><time>2026-04-06T14:05:20.799Z</time></trkpt><trkpt lat="44.0528505" lon="10.7724509"><ele>480.0</ele><time>2026-04-06T14:05:21.788Z</time></trkpt><trkpt lat="44.0529478" lon="10.7723561"><ele>480.0</ele><time>2026-04-06T14:05:22.793Z</time></trkpt><trkpt lat="44.0530563" lon="10.7722519"><ele>480.0</ele><time>2026-04-06T14:05:23.795Z</time></trkpt><trkpt lat="44.0531217" lon="10.7721022"><ele>480.0</ele><time>2026-04-06T14:05:24.793Z</time></trkpt><trkpt lat="44.053196" lon="10.7720041"><ele>480.0</ele><time>2026-04-06T14:05:25.79Z</time></trkpt><trkpt lat="44.0532657" lon="10.7719599"><ele>480.0</ele><time>2026-04-06T14:05:26.807Z</time></trkpt><trkpt lat="44.0533535" lon="10.7719399"><ele>480.0</ele><time>2026-04-06T14:05:27.788Z</time></trkpt><trkpt lat="44.0534511" lon="10.7719313"><ele>480.0</ele><time>2026-04-06T14:05:28.815Z</time></trkpt><trkpt lat="44.053565" lon="10.7719319"><ele>480.0</ele><time>2026-04-06T14:05:29.794Z</time></trkpt><trkpt lat="44.0536904" lon="10.77189"><ele>490.0</ele><time>2026-04-06T14:05:30.787Z</time></trkpt><trkpt lat="44.0538437" lon="10.7718824"><ele>500.0</ele><time>2026-04-06T14:05:31.798Z</time></trkpt><trkpt lat="44.0540056" lon="10.7719086"><ele>510.0</ele><time>2026-04-06T14:05:32.794Z</time></trkpt><trkpt lat="44.0541468" lon="10.7719261"><ele>511.2</ele><time>2026-04-06T14:05:33.787Z</time></trkpt><trkpt lat="44.0542766" lon="10.7719209"><ele>512.4</ele><time>2026-04-06T14:05:34.794Z</time></trkpt><trkpt lat="44.0543768" lon="10.7719363"><ele>513.6</ele><time>2026-04-06T14:05:35.798Z</time></trkpt><trkpt lat="44.0544713" lon="10.7719828"><ele>514.8</ele><time>2026-04-06T14:05:36.794Z</time></trkpt><trkpt lat="44.0545484" lon="10.7719845"><ele>516.0</ele><time>2026-04-06T14:05:37.794Z</time></trkpt><trkpt lat="44.0546568" lon="10.7720938"><ele>516.0</ele><time>2026-04-06T14:05:40.794Z</time></trkpt><trkpt lat="44.0546962" lon="10.7721914"><ele>516.0</ele><time>2026-04-06T14:05:41.798Z</time></trkpt><trkpt lat="44.0547907" lon="10.772239"><ele>516.0</ele><time>2026-04-06T14:05:42.792Z</time></trkpt><trkpt lat="44.0549132" lon="10.7722995"><ele>516.0</ele><time>2026-04-06T14:05:43.795Z</time></trkpt><trkpt lat="44.0550453" lon="10.7722936"><ele>516.0</ele><time>2026-04-06T14:05:44.795Z</time></trkpt><trkpt lat="44.0551538" lon="10.7722636"><ele>515.25</ele><time>2026-04-06T14:05:45.796Z</time></trkpt><trkpt lat="44.0552764" lon="10.7722195"><ele>514.5</ele><time>2026-04-06T14:05:46.788Z</time></trkpt><trkpt lat="44.0554083" lon="10.7721647"><ele>513.75</ele><time>2026-04-06T14:05:47.79Z</time></trkpt><trkpt lat="44.0555228" lon="10.7721243"><ele>513.0</ele><time>2026-04-06T14:05:48.79Z</time></trkpt><trkpt lat="44.0556496" lon="10.7720836"><ele>513.0</ele><time>2026-04-06T14:05:49.793Z</time></trkpt><trkpt lat="44.0557723" lon="10.7720277"><ele>513.0</ele><time>2026-04-06T14:05:50.785Z</time></trkpt><trkpt lat="44.0558791" lon="10.7719597"><ele>513.0</ele><time>2026-04-06T14:05:51.795Z</time></trkpt><trkpt lat="44.0559799" lon="10.7719094"><ele>513.0</ele><time>2026-04-06T14:05:52.79Z</time></trkpt><trkpt lat="44.0560905" lon="10.7718615"><ele>511.4</ele><time>2026-04-06T14:05:53.789Z</time></trkpt><trkpt lat="44.0561798" lon="10.7718096"><ele>509.79999999999995</ele><time>2026-04-06T14:05:54.795Z</time></trkpt><trkpt lat="44.0562878" lon="10.7717729"><ele>508.2</ele><time>2026-04-06T14:05:55.787Z</time></trkpt><trkpt lat="44.0563832" lon="10.7717294"><ele>506.6</ele><time>2026-04-06T14:05:56.792Z</time></trkpt><trkpt lat="44.0564875" lon="10.771685"><ele>505.0</ele><time>2026-04-06T14:05:57.792Z</time></trkpt><trkpt lat="44.0565967" lon="10.7716554"><ele>507.2</ele><time>2026-04-06T14:05:58.79Z</time></trkpt><trkpt lat="44.0567048" lon="10.7716187"><ele>509.4</ele><time>2026-04-06T14:05:59.791Z</time></trkpt><trkpt lat="44.056815" lon="10.7715931"><ele>511.6</ele><time>2026-04-06T14:06:00.798Z</time></trkpt><trkpt lat="44.0569191" lon="10.7715579"><ele>513.8</ele><time>2026-04-06T14:06:01.79Z</time></trkpt><trkpt lat="44.0570225" lon="10.7715247"><ele>516.0</ele><time>2026-04-06T14:06:02.791Z</time></trkpt><trkpt lat="44.0571227" lon="10.7715154"><ele>516.0</ele><time>2026-04-06T14:06:03.797Z</time></trkpt><trkpt lat="44.0571942" lon="10.7714752"><ele>516.0</ele><time>2026-04-06T14:06:04.791Z</time></trkpt><trkpt lat="44.0572634" lon="10.7714262"><ele>516.0</ele><time>2026-04-06T14:06:05.794Z</time></trkpt><trkpt lat="44.0573685" lon="10.7713835"><ele>516.0</ele><time>2026-04-06T14:06:07.791Z</time></trkpt><trkpt lat="44.0574501" lon="10.7713534"><ele>516.0</ele><time>2026-04-06T14:06:09.79Z</time></trkpt><trkpt lat="44.0575139" lon="10.7713206"><ele>516.0</ele><time>2026-04-06T14:06:11.788Z</time></trkpt><trkpt lat="44.0575243" lon="10.7711962"><ele>515.6</ele><time>2026-04-06T14:07:17.795Z</time></trkpt><trkpt lat="44.0575427" lon="10.7710629"><ele>515.2</ele><time>2026-04-06T14:07:18.791Z</time></trkpt><trkpt lat="44.0575707" lon="10.7709287"><ele>514.8</ele><time>2026-04-06T14:07:19.788Z</time></trkpt><trkpt lat="44.0576277" lon="10.7707905"><ele>514.4</ele><time>2026-04-06T14:07:20.785Z</time></trkpt><trkpt lat="44.0576391" lon="10.7706461"><ele>514.0</ele><time>2026-04-06T14:07:21.788Z</time></trkpt><trkpt lat="44.057737" lon="10.7705598"><ele>514.0</ele><time>2026-04-06T14:07:22.796Z</time></trkpt><trkpt lat="44.0578369" lon="10.7704733"><ele>514.0</ele><time>2026-04-06T14:07:23.791Z</time></trkpt><trkpt lat="44.0578978" lon="10.7704095"><ele>514.0</ele><time>2026-04-06T14:07:24.791Z</time></trkpt><trkpt lat="44.0579926" lon="10.7703205"><ele>514.0</ele><time>2026-04-06T14:07:25.791Z</time></trkpt><trkpt lat="44.0580595" lon="10.7702046"><ele>514.0</ele><time>2026-04-06T14:07:26.79Z</time></trkpt><trkpt lat="44.0580919" lon="10.7700965"><ele>511.0</ele><time>2026-04-06T14:07:27.791Z</time></trkpt><trkpt lat="44.05814" lon="10.7699977"><ele>508.0</ele><time>2026-04-06T14:07:28.79Z</time></trkpt><trkpt lat="44.0581237" lon="10.7698476"><ele>505.0</ele><time>2026-04-06T14:07:29.79Z</time></trkpt><trkpt lat="44.0581042" lon="10.7695659"><ele>502.0</ele><time>2026-04-06T14:07:30.791Z</time></trkpt><trkpt lat="44.0581253" lon="10.7693785"><ele>503.5</ele><time>2026-04-06T14:07:31.788Z</time></trkpt><trkpt lat="44.0581742" lon="10.7692469"><ele>505.0</ele><time>2026-04-06T14:07:32.793Z</time></trkpt><trkpt lat="44.058197" lon="10.7691037"><ele>506.5</ele><time>2026-04-06T14:07:33.793Z</time></trkpt><trkpt lat="44.0582781" lon="10.7689604"><ele>508.0</ele><time>2026-04-06T14:07:34.79Z</time></trkpt><trkpt lat="44.0583893" lon="10.7688617"><ele>508.0</ele><time>2026-04-06T14:07:35.792Z</time></trkpt><trkpt lat="44.0585177" lon="10.7687581"><ele>508.0</ele><time>2026-04-06T14:07:36.792Z</time></trkpt><trkpt lat="44.0586813" lon="10.7686245"><ele>508.0</ele><time>2026-04-06T14:07:37.792Z</time></trkpt><trkpt lat="44.0588543" lon="10.7684673"><ele>506.33333333333337</ele><time>2026-04-06T14:07:38.801Z</time></trkpt><trkpt lat="44.058995" lon="10.7682897"><ele>504.66666666666663</ele><time>2026-04-06T14:07:39.793Z</time></trkpt><trkpt lat="44.0591368" lon="10.7681334"><ele>503.0</ele><time>2026-04-06T14:07:40.79Z</time></trkpt><trkpt lat="44.0592542" lon="10.7679588"><ele>503.0</ele><time>2026-04-06T14:07:41.792Z</time></trkpt><trkpt lat="44.0593417" lon="10.7679035"><ele>503.0</ele><time>2026-04-06T14:07:42.791Z</time></trkpt><trkpt lat="44.0594619" lon="10.7678308"><ele>503.0</ele><time>2026-04-06T14:07:43.791Z</time></trkpt><trkpt lat="44.0595842" lon="10.7677805"><ele>503.0</ele><time>2026-04-06T14:07:44.791Z</time></trkpt><trkpt lat="44.0596809" lon="10.7678073"><ele>503.0</ele><time>2026-04-06T14:07:45.79Z</time></trkpt><trkpt lat="44.0598209" lon="10.76783"><ele>503.0</ele><time>2026-04-06T14:07:46.792Z</time></trkpt><trkpt lat="44.0599784" lon="10.7678793"><ele>503.0</ele><time>2026-04-06T14:07:47.793Z</time></trkpt><trkpt lat="44.0601888" lon="10.7679202"><ele>503.66666666666663</ele><time>2026-04-06T14:07:48.796Z</time></trkpt><trkpt lat="44.0603589" lon="10.7679585"><ele>504.33333333333337</ele><time>2026-04-06T14:07:49.791Z</time></trkpt><trkpt lat="44.060539" lon="10.7680273"><ele>505.0</ele><time>2026-04-06T14:07:50.793Z</time></trkpt><trkpt lat="44.0607707" lon="10.7681491"><ele>501.0</ele><time>2026-04-06T14:07:51.792Z</time></trkpt><trkpt lat="44.0609113" lon="10.7681646"><ele>497.0</ele><time>2026-04-06T14:07:52.791Z</time></trkpt><trkpt lat="44.061052" lon="10.7681709"><ele>493.0</ele><time>2026-04-06T14:07:53.789Z</time></trkpt><trkpt lat="44.0611529" lon="10.7681298"><ele>489.0</ele><time>2026-04-06T14:07:54.791Z</time></trkpt><trkpt lat="44.0612721" lon="10.7680448"><ele>489.0</ele><time>2026-04-06T14:07:55.791Z</time></trkpt><trkpt lat="44.0613986" lon="10.7679096"><ele>489.0</ele><time>2026-04-06T14:07:56.798Z</time></trkpt><trkpt lat="44.0615191" lon="10.7677788"><ele>489.0</ele><time>2026-04-06T14:07:57.788Z</time></trkpt><trkpt lat="44.0616369" lon="10.7676104"><ele>485.5</ele><time>2026-04-06T14:07:58.798Z</time></trkpt><trkpt lat="44.0617316" lon="10.7674931"><ele>482.0</ele><time>2026-04-06T14:07:59.789Z</time></trkpt><trkpt lat="44.0618122" lon="10.7673462"><ele>478.5</ele><time>2026-04-06T14:08:00.79Z</time></trkpt><trkpt lat="44.0618866" lon="10.7671941"><ele>475.0</ele><time>2026-04-06T14:08:01.791Z</time></trkpt><trkpt lat="44.0619359" lon="10.7670115"><ele>469.6666666666667</ele><time>2026-04-06T14:08:02.797Z</time></trkpt><trkpt lat="44.0620227" lon="10.7668337"><ele>464.33333333333337</ele><time>2026-04-06T14:08:03.793Z</time></trkpt><trkpt lat="44.062114" lon="10.7666614"><ele>459.0</ele><time>2026-04-06T14:08:04.792Z</time></trkpt><trkpt lat="44.062206" lon="10.7665057"><ele>459.0</ele><time>2026-04-06T14:08:05.791Z</time></trkpt><trkpt lat="44.0622962" lon="10.7663506"><ele>459.0</ele><time>2026-04-06T14:08:06.792Z</time></trkpt><trkpt lat="44.0623622" lon="10.7662524"><ele>459.0</ele><time>2026-04-06T14:08:07.789Z</time></trkpt><trkpt lat="44.0624408" lon="10.7661541"><ele>459.0</ele><time>2026-04-06T14:08:08.794Z</time></trkpt><trkpt lat="44.0625242" lon="10.7660885"><ele>459.0</ele><time>2026-04-06T14:08:09.788Z</time></trkpt><trkpt lat="44.0626138" lon="10.7660745"><ele>463.0</ele><time>2026-04-06T14:08:10.795Z</time></trkpt><trkpt lat="44.0627232" lon="10.7661189"><ele>467.0</ele><time>2026-04-06T14:08:11.784Z</time></trkpt><trkpt lat="44.0628586" lon="10.7662547"><ele>471.0</ele><time>2026-04-06T14:08:12.788Z</time></trkpt><trkpt lat="44.0629967" lon="10.7663863"><ele>475.0</ele><time>2026-04-06T14:08:13.795Z</time></trkpt><trkpt lat="44.0630798" lon="10.7665477"><ele>475.0</ele><time>2026-04-06T14:08:14.791Z</time></trkpt><trkpt lat="44.063225" lon="10.766751"><ele>475.0</ele><time>2026-04-06T14:08:15.791Z</time></trkpt><trkpt lat="44.0633439" lon="10.7669407"><ele>475.0</ele><time>2026-04-06T14:08:16.801Z</time></trkpt><trkpt lat="44.0634183" lon="10.7670512"><ele>475.4</ele><time>2026-04-06T14:08:17.792Z</time></trkpt><trkpt lat="44.0635185" lon="10.7671594"><ele>475.8</ele><time>2026-04-06T14:08:18.794Z</time></trkpt><trkpt lat="44.063614" lon="10.7672349"><ele>476.20000000000005</ele><time>2026-04-06T14:08:19.794Z</time></trkpt><trkpt lat="44.0636939" lon="10.767317"><ele>476.6</ele><time>2026-04-06T14:08:20.79Z</time></trkpt><trkpt lat="44.0637496" lon="10.7673749"><ele>477.0</ele><time>2026-04-06T14:08:21.788Z</time></trkpt><trkpt lat="44.0638284" lon="10.7673383"><ele>477.0</ele><time>2026-04-06T14:08:22.793Z</time></trkpt><trkpt lat="44.063906" lon="10.7672926"><ele>477.0</ele><time>2026-04-06T14:08:23.798Z</time></trkpt><trkpt lat="44.0639722" lon="10.7672348"><ele>477.0</ele><time>2026-04-06T14:08:24.794Z</time></trkpt><trkpt lat="44.0640571" lon="10.7671445"><ele>477.0</ele><time>2026-04-06T14:08:25.789Z</time></trkpt><trkpt lat="44.0641257" lon="10.767075"><ele>477.0</ele><time>2026-04-06T14:08:26.795Z</time></trkpt><trkpt lat="44.0642081" lon="10.7670636"><ele>477.0</ele><time>2026-04-06T14:08:29.799Z</time></trkpt><trkpt lat="44.0642719" lon="10.7669815"><ele>477.0</ele><time>2026-04-06T14:08:31.79Z</time></trkpt><trkpt lat="44.0643385" lon="10.7669432"><ele>477.0</ele><time>2026-04-06T14:08:52.788Z</time></trkpt><trkpt lat="44.0642885" lon="10.7670102"><ele>477.0</ele><time>2026-04-06T14:08:58.792Z</time></trkpt><trkpt lat="44.0642254" lon="10.7670191"><ele>477.0</ele><time>2026-04-06T14:09:25.79Z</time></trkpt><trkpt lat="44.0641348" lon="10.7670387"><ele>477.0</ele><time>2026-04-06T14:09:30.785Z</time></trkpt><trkpt lat="44.0640609" lon="10.7670958"><ele>477.0</ele><time>2026-04-06T14:09:32.797Z</time></trkpt><trkpt lat="44.064018" lon="10.7671741"><ele>477.0</ele><time>2026-04-06T14:09:33.791Z</time></trkpt><trkpt lat="44.0639142" lon="10.7672698"><ele>477.00000000000006</ele><time>2026-04-06T14:09:35.798Z</time></trkpt><trkpt lat="44.063855" lon="10.7672251"><ele>477.00000000000006</ele><time>2026-04-06T14:09:37.79Z</time></trkpt><trkpt lat="44.0637606" lon="10.7672219"><ele>477.0</ele><time>2026-04-06T14:09:38.791Z</time></trkpt><trkpt lat="44.0636545" lon="10.7671968"><ele>477.0</ele><time>2026-04-06T14:09:39.789Z</time></trkpt><trkpt lat="44.0635699" lon="10.7671422"><ele>477.0</ele><time>2026-04-06T14:09:40.798Z</time></trkpt><trkpt lat="44.0634105" lon="10.7670963"><ele>477.0</ele><time>2026-04-06T14:09:41.8Z</time></trkpt><trkpt lat="44.0632867" lon="10.7670405"><ele>477.0</ele><time>2026-04-06T14:09:42.793Z</time></trkpt><trkpt lat="44.063213" lon="10.766949"><ele>477.0</ele><time>2026-04-06T14:09:43.788Z</time></trkpt><trkpt lat="44.0631371" lon="10.7668079"><ele>476.6</ele><time>2026-04-06T14:09:44.797Z</time></trkpt><trkpt lat="44.0630494" lon="10.7666997"><ele>476.20000000000005</ele><time>2026-04-06T14:09:45.791Z</time></trkpt><trkpt lat="44.0630272" lon="10.7666151"><ele>475.8</ele><time>2026-04-06T14:09:46.791Z</time></trkpt><trkpt lat="44.0629716" lon="10.7665215"><ele>475.4</ele><time>2026-04-06T14:09:47.793Z</time></trkpt><trkpt lat="44.0629119" lon="10.7663857"><ele>475.0</ele><time>2026-04-06T14:09:48.79Z</time></trkpt><trkpt lat="44.0628447" lon="10.7662688"><ele>475.00000000000006</ele><time>2026-04-06T14:09:49.789Z</time></trkpt><trkpt lat="44.0627754" lon="10.7661843"><ele>475.0</ele><time>2026-04-06T14:09:50.793Z</time></trkpt><trkpt lat="44.0626778" lon="10.7660841"><ele>475.0</ele><time>2026-04-06T14:09:51.79Z</time></trkpt><trkpt lat="44.0626024" lon="10.766061"><ele>475.0</ele><time>2026-04-06T14:09:52.792Z</time></trkpt><trkpt lat="44.0625228" lon="10.7660659"><ele>475.00000000000006</ele><time>2026-04-06T14:09:53.796Z</time></trkpt><trkpt lat="44.0624534" lon="10.7660818"><ele>475.0</ele><time>2026-04-06T14:09:54.789Z</time></trkpt><trkpt lat="44.0623647" lon="10.7661626"><ele>471.0</ele><time>2026-04-06T14:09:55.805Z</time></trkpt><trkpt lat="44.0623048" lon="10.7662088"><ele>467.0</ele><time>2026-04-06T14:09:56.8Z</time></trkpt><trkpt lat="44.0621703" lon="10.7664842"><ele>463.0</ele><time>2026-04-06T14:09:57.791Z</time></trkpt><trkpt lat="44.0620899" lon="10.7666197"><ele>459.0</ele><time>2026-04-06T14:09:58.789Z</time></trkpt><trkpt lat="44.0619911" lon="10.7668131"><ele>462.2</ele><time>2026-04-06T14:09:59.798Z</time></trkpt><trkpt lat="44.0619159" lon="10.7669859"><ele>465.4</ele><time>2026-04-06T14:10:00.79Z</time></trkpt><trkpt lat="44.0618757" lon="10.767115"><ele>468.6</ele><time>2026-04-06T14:10:01.795Z</time></trkpt><trkpt lat="44.0618279" lon="10.7672301"><ele>471.8</ele><time>2026-04-06T14:10:02.79Z</time></trkpt><trkpt lat="44.0617882" lon="10.7673306"><ele>475.0</ele><time>2026-04-06T14:10:03.789Z</time></trkpt><trkpt lat="44.0617299" lon="10.7674376"><ele>475.0</ele><time>2026-04-06T14:10:04.795Z</time></trkpt><trkpt lat="44.0616586" lon="10.7675157"><ele>475.0</ele><time>2026-04-06T14:10:05.794Z</time></trkpt><trkpt lat="44.0615827" lon="10.7676167"><ele>475.0</ele><time>2026-04-06T14:10:06.794Z</time></trkpt><trkpt lat="44.0615118" lon="10.7677226"><ele>475.0</ele><time>2026-04-06T14:10:07.797Z</time></trkpt><trkpt lat="44.061445" lon="10.7678246"><ele>475.0</ele><time>2026-04-06T14:10:08.79Z</time></trkpt><trkpt lat="44.0613475" lon="10.7679335"><ele>477.8</ele><time>2026-04-06T14:10:09.793Z</time></trkpt><trkpt lat="44.061281" lon="10.7680318"><ele>480.6</ele><time>2026-04-06T14:10:10.794Z</time></trkpt><trkpt lat="44.0612229" lon="10.7681289"><ele>483.4</ele><time>2026-04-06T14:10:11.789Z</time></trkpt><trkpt lat="44.0611664" lon="10.7682057"><ele>486.2</ele><time>2026-04-06T14:10:12.791Z</time></trkpt><trkpt lat="44.0611009" lon="10.768266"><ele>489.0</ele><time>2026-04-06T14:10:13.791Z</time></trkpt><trkpt lat="44.0609765" lon="10.7683343"><ele>489.0</ele><time>2026-04-06T14:10:15.789Z</time></trkpt><trkpt lat="44.0608933" lon="10.7683347"><ele>489.0</ele><time>2026-04-06T14:10:16.797Z</time></trkpt><trkpt lat="44.0607376" lon="10.7683247"><ele>489.0</ele><time>2026-04-06T14:10:17.789Z</time></trkpt><trkpt lat="44.0605791" lon="10.7682743"><ele>489.0</ele><time>2026-04-06T14:10:18.789Z</time></trkpt><trkpt lat="44.0604634" lon="10.7682179"><ele>493.66666666666663</ele><time>2026-04-06T14:10:19.791Z</time></trkpt><trkpt lat="44.0603171" lon="10.7681371"><ele>498.3333333333333</ele><time>2026-04-06T14:10:20.789Z</time></trkpt><trkpt lat="44.0601023" lon="10.7680543"><ele>503.0</ele><time>2026-04-06T14:10:21.799Z</time></trkpt><trkpt lat="44.0599075" lon="10.767987"><ele>503.0</ele><time>2026-04-06T14:10:22.787Z</time></trkpt><trkpt lat="44.0597715" lon="10.767945"><ele>503.0</ele><time>2026-04-06T14:10:23.796Z</time></trkpt><trkpt lat="44.0596764" lon="10.7678806"><ele>503.0</ele><time>2026-04-06T14:10:24.791Z</time></trkpt><trkpt lat="44.0595422" lon="10.7680216"><ele>503.0</ele><time>2026-04-06T14:10:25.788Z</time></trkpt><trkpt lat="44.0594132" lon="10.7680862"><ele>503.0</ele><time>2026-04-06T14:10:26.79Z</time></trkpt><trkpt lat="44.0592578" lon="10.7682378"><ele>503.0</ele><time>2026-04-06T14:10:27.821Z</time></trkpt><trkpt lat="44.0591133" lon="10.7684292"><ele>503.0</ele><time>2026-04-06T14:10:28.801Z</time></trkpt><trkpt lat="44.0589478" lon="10.7686088"><ele>504.66666666666663</ele><time>2026-04-06T14:10:29.799Z</time></trkpt><trkpt lat="44.0587546" lon="10.7688108"><ele>506.33333333333337</ele><time>2026-04-06T14:10:30.796Z</time></trkpt><trkpt lat="44.0585645" lon="10.7689163"><ele>508.0</ele><time>2026-04-06T14:10:31.795Z</time></trkpt><trkpt lat="44.0583757" lon="10.7690192"><ele>508.0</ele><time>2026-04-06T14:10:32.791Z</time></trkpt><trkpt lat="44.0582886" lon="10.7690986"><ele>508.0</ele><time>2026-04-06T14:10:33.792Z</time></trkpt><trkpt lat="44.0581641" lon="10.769212"><ele>508.0</ele><time>2026-04-06T14:10:34.799Z</time></trkpt><trkpt lat="44.0580846" lon="10.7693747"><ele>508.0</ele><time>2026-04-06T14:10:35.795Z</time></trkpt><trkpt lat="44.0580193" lon="10.7694847"><ele>506.0</ele><time>2026-04-06T14:10:36.79Z</time></trkpt><trkpt lat="44.058004" lon="10.76962"><ele>504.0</ele><time>2026-04-06T14:10:37.797Z</time></trkpt><trkpt lat="44.0580865" lon="10.7698893"><ele>502.0</ele><time>2026-04-06T14:10:38.793Z</time></trkpt><trkpt lat="44.0580917" lon="10.770085"><ele>504.40000000000003</ele><time>2026-04-06T14:10:39.79Z</time></trkpt><trkpt lat="44.0580228" lon="10.7702309"><ele>506.80000000000007</ele><time>2026-04-06T14:10:40.796Z</time></trkpt><trkpt lat="44.0580046" lon="10.7703523"><ele>509.2</ele><time>2026-04-06T14:10:41.791Z</time></trkpt><trkpt lat="44.0579507" lon="10.7704626"><ele>511.6</ele><time>2026-04-06T14:10:42.8Z</time></trkpt><trkpt lat="44.0578939" lon="10.7705534"><ele>514.0</ele><time>2026-04-06T14:10:43.786Z</time></trkpt><trkpt lat="44.0577858" lon="10.7706626"><ele>514.0</ele><time>2026-04-06T14:10:44.794Z</time></trkpt><trkpt lat="44.0577175" lon="10.7707579"><ele>514.0</ele><time>2026-04-06T14:10:45.794Z</time></trkpt><trkpt lat="44.0576569" lon="10.7709099"><ele>514.0</ele><time>2026-04-06T14:10:46.794Z</time></trkpt><trkpt lat="44.0576219" lon="10.7710522"><ele>514.0</ele><time>2026-04-06T14:10:47.793Z</time></trkpt><trkpt lat="44.0576371" lon="10.771229"><ele>514.4</ele><time>2026-04-06T14:10:48.79Z</time></trkpt><trkpt lat="44.0576087" lon="10.7713293"><ele>514.8</ele><time>2026-04-06T14:10:49.796Z</time></trkpt><trkpt lat="44.0575639" lon="10.7714701"><ele>515.2</ele><time>2026-04-06T14:10:51.789Z</time></trkpt><trkpt lat="44.0574801" lon="10.7716433"><ele>515.6</ele><time>2026-04-06T14:10:53.791Z</time></trkpt><trkpt lat="44.0574229" lon="10.7717563"><ele>516.0</ele><time>2026-04-06T14:10:54.788Z</time></trkpt><trkpt lat="44.0573438" lon="10.7718773"><ele>520.0</ele><time>2026-04-06T14:10:55.787Z</time></trkpt><trkpt lat="44.0572858" lon="10.7720198"><ele>524.0</ele><time>2026-04-06T14:10:56.793Z</time></trkpt><trkpt lat="44.0571841" lon="10.7721902"><ele>528.0</ele><time>2026-04-06T14:10:57.793Z</time></trkpt><trkpt lat="44.0570683" lon="10.7724167"><ele>528.0</ele><time>2026-04-06T14:10:58.79Z</time></trkpt><trkpt lat="44.0569618" lon="10.7726056"><ele>528.0</ele><time>2026-04-06T14:10:59.79Z</time></trkpt><trkpt lat="44.056886" lon="10.7727964"><ele>528.0</ele><time>2026-04-06T14:11:00.791Z</time></trkpt><trkpt lat="44.0567912" lon="10.7729275"><ele>530.75</ele><time>2026-04-06T14:11:01.791Z</time></trkpt><trkpt lat="44.0566279" lon="10.7730012"><ele>533.5</ele><time>2026-04-06T14:11:02.793Z</time></trkpt><trkpt lat="44.0565001" lon="10.7730836"><ele>536.25</ele><time>2026-04-06T14:11:03.797Z</time></trkpt><trkpt lat="44.0563889" lon="10.7731731"><ele>539.0</ele><time>2026-04-06T14:11:04.799Z</time></trkpt><trkpt lat="44.0563081" lon="10.7732551"><ele>539.0</ele><time>2026-04-06T14:11:05.789Z</time></trkpt><trkpt lat="44.0562386" lon="10.7733538"><ele>539.0</ele><time>2026-04-06T14:11:06.793Z</time></trkpt><trkpt lat="44.0561916" lon="10.7734473"><ele>539.0</ele><time>2026-04-06T14:11:07.793Z</time></trkpt><trkpt lat="44.0561577" lon="10.7735863"><ele>539.0</ele><time>2026-04-06T14:11:08.791Z</time></trkpt><trkpt lat="44.056153" lon="10.7736874"><ele>539.0</ele><time>2026-04-06T14:11:09.79Z</time></trkpt><trkpt lat="44.0562811" lon="10.7739218"><ele>543.3333333333333</ele><time>2026-04-06T14:11:10.793Z</time></trkpt><trkpt lat="44.0563642" lon="10.7741204"><ele>547.6666666666666</ele><time>2026-04-06T14:11:11.788Z</time></trkpt><trkpt lat="44.0564976" lon="10.7742329"><ele>552.0</ele><time>2026-04-06T14:11:12.789Z</time></trkpt><trkpt lat="44.0566353" lon="10.7743293"><ele>552.0</ele><time>2026-04-06T14:11:13.8Z</time></trkpt><trkpt lat="44.0567502" lon="10.7743738"><ele>552.0</ele><time>2026-04-06T14:11:14.793Z</time></trkpt><trkpt lat="44.0568757" lon="10.7743567"><ele>552.0</ele><time>2026-04-06T14:11:15.79Z</time></trkpt><trkpt lat="44.0570298" lon="10.7743278"><ele>552.0</ele><time>2026-04-06T14:11:16.788Z</time></trkpt><trkpt lat="44.0571492" lon="10.7742248"><ele>552.0</ele><time>2026-04-06T14:11:17.791Z</time></trkpt><trkpt lat="44.0572611" lon="10.7741642"><ele>552.0</ele><time>2026-04-06T14:11:18.788Z</time></trkpt><trkpt lat="44.0573687" lon="10.7741198"><ele>552.0</ele><time>2026-04-06T14:11:19.787Z</time></trkpt><trkpt lat="44.0574514" lon="10.774109"><ele>552.0</ele><time>2026-04-06T14:11:20.798Z</time></trkpt><trkpt lat="44.0575414" lon="10.7741305"><ele>552.0</ele><time>2026-04-06T14:11:21.785Z</time></trkpt><trkpt lat="44.0575983" lon="10.7741984"><ele>553.75</ele><time>2026-04-06T14:11:22.8Z</time></trkpt><trkpt lat="44.0576973" lon="10.7743436"><ele>555.5</ele><time>2026-04-06T14:11:23.795Z</time></trkpt><trkpt lat="44.0577851" lon="10.7745178"><ele>557.25</ele><time>2026-04-06T14:11:24.791Z</time></trkpt><trkpt lat="44.057831" lon="10.7746865"><ele>559.0</ele><time>2026-04-06T14:11:25.791Z</time></trkpt><trkpt lat="44.0579078" lon="10.7750103"><ele>566.75</ele><time>2026-04-06T14:11:26.791Z</time></trkpt><trkpt lat="44.0578566" lon="10.7752148"><ele>574.5</ele><time>2026-04-06T14:11:27.789Z</time></trkpt><trkpt lat="44.0578253" lon="10.7753865"><ele>582.25</ele><time>2026-04-06T14:11:28.801Z</time></trkpt><trkpt lat="44.057771" lon="10.7755244"><ele>590.0</ele><time>2026-04-06T14:11:29.791Z</time></trkpt><trkpt lat="44.0576942" lon="10.7756254"><ele>590.0</ele><time>2026-04-06T14:11:30.79Z</time></trkpt><trkpt lat="44.0576173" lon="10.7757534"><ele>590.0</ele><time>2026-04-06T14:11:31.787Z</time></trkpt><trkpt lat="44.0575503" lon="10.7757845"><ele>590.0</ele><time>2026-04-06T14:11:32.789Z</time></trkpt><trkpt lat="44.0574482" lon="10.7757824"><ele>590.0</ele><time>2026-04-06T14:11:33.799Z</time></trkpt><trkpt lat="44.0572982" lon="10.7758273"><ele>590.0</ele><time>2026-04-06T14:11:34.79Z</time></trkpt><trkpt lat="44.0571304" lon="10.7758326"><ele>591.0</ele><time>2026-04-06T14:11:35.797Z</time></trkpt><trkpt lat="44.0569818" lon="10.7758185"><ele>592.0</ele><time>2026-04-06T14:11:36.79Z</time></trkpt><trkpt lat="44.0568193" lon="10.7757379"><ele>593.0</ele><time>2026-04-06T14:11:38.789Z</time></trkpt><trkpt lat="44.0567191" lon="10.7757342"><ele>594.0</ele><time>2026-04-06T14:11:39.8Z</time></trkpt><trkpt lat="44.0565839" lon="10.7757082"><ele>596.75</ele><time>2026-04-06T14:11:40.792Z</time></trkpt><trkpt lat="44.0564507" lon="10.7756481"><ele>599.5</ele><time>2026-04-06T14:11:41.79Z</time></trkpt><trkpt lat="44.0563148" lon="10.7756071"><ele>602.25</ele><time>2026-04-06T14:11:42.79Z</time></trkpt><trkpt lat="44.0561967" lon="10.7755814"><ele>605.0</ele><time>2026-04-06T14:11:43.789Z</time></trkpt><trkpt lat="44.0560731" lon="10.7755483"><ele>605.0</ele><time>2026-04-06T14:11:44.799Z</time></trkpt><trkpt lat="44.0559528" lon="10.7755064"><ele>605.0</ele><time>2026-04-06T14:11:45.79Z</time></trkpt><trkpt lat="44.0558174" lon="10.7754963"><ele>605.0</ele><time>2026-04-06T14:11:46.795Z</time></trkpt><trkpt lat="44.0557005" lon="10.7754509"><ele>605.0</ele><time>2026-04-06T14:11:47.789Z</time></trkpt><trkpt lat="44.0555522" lon="10.7754488"><ele>603.25</ele><time>2026-04-06T14:11:48.79Z</time></trkpt><trkpt lat="44.0554237" lon="10.7754213"><ele>601.5</ele><time>2026-04-06T14:11:49.79Z</time></trkpt><trkpt lat="44.0552968" lon="10.7753777"><ele>599.75</ele><time>2026-04-06T14:11:50.797Z</time></trkpt><trkpt lat="44.0551753" lon="10.7753332"><ele>598.0</ele><time>2026-04-06T14:11:51.789Z</time></trkpt><trkpt lat="44.0550874" lon="10.7752645"><ele>598.0</ele><time>2026-04-06T14:11:52.788Z</time></trkpt><trkpt lat="44.0549733" lon="10.7752282"><ele>598.0</ele><time>2026-04-06T14:11:53.788Z</time></trkpt><trkpt lat="44.0548787" lon="10.7752306"><ele>598.0</ele><time>2026-04-06T14:11:54.792Z</time></trkpt><trkpt lat="44.0547933" lon="10.7752483"><ele>598.0</ele><time>2026-04-06T14:11:55.79Z</time></trkpt><trkpt lat="44.0547314" lon="10.7753639"><ele>598.0</ele><time>2026-04-06T14:11:56.793Z</time></trkpt><trkpt lat="44.0546754" lon="10.7754616"><ele>590.0</ele><time>2026-04-06T14:11:57.788Z</time></trkpt><trkpt lat="44.054644" lon="10.7755939"><ele>582.0</ele><time>2026-04-06T14:11:58.789Z</time></trkpt><trkpt lat="44.0546241" lon="10.7757073"><ele>574.0</ele><time>2026-04-06T14:11:59.795Z</time></trkpt><trkpt lat="44.0546367" lon="10.775816"><ele>566.0</ele><time>2026-04-06T14:12:00.783Z</time></trkpt><trkpt lat="44.0546573" lon="10.7759747"><ele>558.0</ele><time>2026-04-06T14:12:01.795Z</time></trkpt><trkpt lat="44.054691" lon="10.7761446"><ele>552.5</ele><time>2026-04-06T14:12:02.797Z</time></trkpt><trkpt lat="44.0547255" lon="10.7763246"><ele>547.0</ele><time>2026-04-06T14:12:03.788Z</time></trkpt><trkpt lat="44.054733" lon="10.7764642"><ele>541.5</ele><time>2026-04-06T14:12:04.789Z</time></trkpt><trkpt lat="44.0548462" lon="10.7766952"><ele>536.0</ele><time>2026-04-06T14:12:05.792Z</time></trkpt><trkpt lat="44.0549244" lon="10.7768868"><ele>548.6666666666666</ele><time>2026-04-06T14:12:06.792Z</time></trkpt><trkpt lat="44.0550019" lon="10.7770282"><ele>561.3333333333334</ele><time>2026-04-06T14:12:07.788Z</time></trkpt><trkpt lat="44.0550827" lon="10.7772392"><ele>574.0</ele><time>2026-04-06T14:12:08.789Z</time></trkpt><trkpt lat="44.0552132" lon="10.7774248"><ele>574.0</ele><time>2026-04-06T14:12:09.791Z</time></trkpt><trkpt lat="44.055319" lon="10.7775657"><ele>574.0</ele><time>2026-04-06T14:12:10.793Z</time></trkpt><trkpt lat="44.0554061" lon="10.7777358"><ele>574.0</ele><time>2026-04-06T14:12:11.792Z</time></trkpt><trkpt lat="44.0555256" lon="10.7778513"><ele>574.0</ele><time>2026-04-06T14:12:12.79Z</time></trkpt><trkpt lat="44.0556308" lon="10.7779613"><ele>567.0</ele><time>2026-04-06T14:12:13.789Z</time></trkpt><trkpt lat="44.0557692" lon="10.7780889"><ele>560.0</ele><time>2026-04-06T14:12:14.796Z</time></trkpt><trkpt lat="44.0558825" lon="10.7782356"><ele>553.0</ele><time>2026-04-06T14:12:15.791Z</time></trkpt><trkpt lat="44.0559975" lon="10.7783576"><ele>559.25</ele><time>2026-04-06T14:12:16.791Z</time></trkpt><trkpt lat="44.056091" lon="10.7785176"><ele>565.5</ele><time>2026-04-06T14:12:17.792Z</time></trkpt><trkpt lat="44.05619" lon="10.7786889"><ele>571.75</ele><time>2026-04-06T14:12:18.797Z</time></trkpt><trkpt lat="44.056282" lon="10.7788264"><ele>578.0</ele><time>2026-04-06T14:12:19.788Z</time></trkpt><trkpt lat="44.0563762" lon="10.7789407"><ele>578.0</ele><time>2026-04-06T14:12:20.789Z</time></trkpt><trkpt lat="44.0564617" lon="10.7791115"><ele>578.0</ele><time>2026-04-06T14:12:21.789Z</time></trkpt><trkpt lat="44.0565656" lon="10.7792533"><ele>578.0</ele><time>2026-04-06T14:12:22.788Z</time></trkpt><trkpt lat="44.0566674" lon="10.7793822"><ele>578.0</ele><time>2026-04-06T14:12:23.791Z</time></trkpt><trkpt lat="44.0567785" lon="10.77949"><ele>584.25</ele><time>2026-04-06T14:12:24.793Z</time></trkpt><trkpt lat="44.0568754" lon="10.7796127"><ele>590.5</ele><time>2026-04-06T14:12:25.795Z</time></trkpt><trkpt lat="44.0570205" lon="10.7797605"><ele>596.75</ele><time>2026-04-06T14:12:26.793Z</time></trkpt><trkpt lat="44.0571233" lon="10.7798815"><ele>603.0</ele><time>2026-04-06T14:12:27.787Z</time></trkpt><trkpt lat="44.0572234" lon="10.7800019"><ele>603.0</ele><time>2026-04-06T14:12:28.788Z</time></trkpt><trkpt lat="44.0573311" lon="10.780122"><ele>603.0</ele><time>2026-04-06T14:12:29.79Z</time></trkpt><trkpt lat="44.0574337" lon="10.7802352"><ele>603.0</ele><time>2026-04-06T14:12:30.789Z</time></trkpt><trkpt lat="44.0575283" lon="10.7803847"><ele>603.0</ele><time>2026-04-06T14:12:31.793Z</time></trkpt><trkpt lat="44.0575573" lon="10.7805104"><ele>607.0</ele><time>2026-04-06T14:12:32.798Z</time></trkpt><trkpt lat="44.0575358" lon="10.7806607"><ele>611.0</ele><time>2026-04-06T14:12:33.802Z</time></trkpt><trkpt lat="44.0575313" lon="10.7808342"><ele>615.0</ele><time>2026-04-06T14:12:34.787Z</time></trkpt><trkpt lat="44.0575037" lon="10.7809704"><ele>619.0</ele><time>2026-04-06T14:12:35.789Z</time></trkpt><trkpt lat="44.0574745" lon="10.7811539"><ele>618.0</ele><time>2026-04-06T14:12:36.796Z</time></trkpt><trkpt lat="44.0574527" lon="10.7812895"><ele>617.0</ele><time>2026-04-06T14:12:37.79Z</time></trkpt><trkpt lat="44.0574139" lon="10.7814327"><ele>616.0</ele><time>2026-04-06T14:12:38.793Z</time></trkpt><trkpt lat="44.0573321" lon="10.7816207"><ele>615.0</ele><time>2026-04-06T14:12:39.79Z</time></trkpt><trkpt lat="44.0572021" lon="10.7818288"><ele>619.3333333333334</ele><time>2026-04-06T14:12:40.79Z</time></trkpt><trkpt lat="44.0570974" lon="10.7819789"><ele>623.6666666666667</ele><time>2026-04-06T14:12:41.789Z</time></trkpt><trkpt lat="44.0570073" lon="10.7821314"><ele>628.0</ele><time>2026-04-06T14:12:42.788Z</time></trkpt><trkpt lat="44.0569001" lon="10.7822966"><ele>628.0</ele><time>2026-04-06T14:12:43.788Z</time></trkpt><trkpt lat="44.0568255" lon="10.7824646"><ele>628.0</ele><time>2026-04-06T14:12:44.789Z</time></trkpt><trkpt lat="44.056775" lon="10.7826121"><ele>628.0</ele><time>2026-04-06T14:12:45.788Z</time></trkpt><trkpt lat="44.0567517" lon="10.7828041"><ele>628.0</ele><time>2026-04-06T14:12:46.798Z</time></trkpt><trkpt lat="44.0567957" lon="10.7830459"><ele>628.6666666666667</ele><time>2026-04-06T14:12:47.787Z</time></trkpt><trkpt lat="44.0567836" lon="10.7832586"><ele>629.3333333333334</ele><time>2026-04-06T14:12:48.79Z</time></trkpt><trkpt lat="44.0568087" lon="10.783471"><ele>630.0</ele><time>2026-04-06T14:12:49.79Z</time></trkpt><trkpt lat="44.0568401" lon="10.7836918"><ele>630.0</ele><time>2026-04-06T14:12:50.797Z</time></trkpt><trkpt lat="44.0568718" lon="10.7838906"><ele>630.0</ele><time>2026-04-06T14:12:51.792Z</time></trkpt><trkpt lat="44.0568693" lon="10.7840613"><ele>630.0</ele><time>2026-04-06T14:12:52.789Z</time></trkpt><trkpt lat="44.0568856" lon="10.7842288"><ele>630.0</ele><time>2026-04-06T14:12:53.79Z</time></trkpt><trkpt lat="44.0568073" lon="10.7843875"><ele>633.0</ele><time>2026-04-06T14:12:54.79Z</time></trkpt><trkpt lat="44.0567336" lon="10.7845493"><ele>636.0</ele><time>2026-04-06T14:12:55.788Z</time></trkpt><trkpt lat="44.0566918" lon="10.7847251"><ele>639.0</ele><time>2026-04-06T14:12:56.789Z</time></trkpt><trkpt lat="44.0566343" lon="10.7849069"><ele>642.0</ele><time>2026-04-06T14:12:57.789Z</time></trkpt><trkpt lat="44.0565445" lon="10.7850687"><ele>637.6666666666666</ele><time>2026-04-06T14:12:58.789Z</time></trkpt><trkpt lat="44.056402" lon="10.7852132"><ele>633.3333333333333</ele><time>2026-04-06T14:12:59.796Z</time></trkpt><trkpt lat="44.0562919" lon="10.7853425"><ele>629.0</ele><time>2026-04-06T14:13:00.8Z</time></trkpt><trkpt lat="44.0561832" lon="10.7854611"><ele>629.0</ele><time>2026-04-06T14:13:01.793Z</time></trkpt><trkpt lat="44.0560825" lon="10.7855697"><ele>629.0</ele><time>2026-04-06T14:13:02.802Z</time></trkpt><trkpt lat="44.0559464" lon="10.7856656"><ele>629.0</ele><time>2026-04-06T14:13:03.799Z</time></trkpt><trkpt lat="44.055852" lon="10.7857807"><ele>629.0</ele><time>2026-04-06T14:13:04.797Z</time></trkpt><trkpt lat="44.0557576" lon="10.7859131"><ele>625.25</ele><time>2026-04-06T14:13:05.79Z</time></trkpt><trkpt lat="44.0557049" lon="10.7860489"><ele>621.5</ele><time>2026-04-06T14:13:06.796Z</time></trkpt><trkpt lat="44.0556903" lon="10.7862244"><ele>617.75</ele><time>2026-04-06T14:13:07.789Z</time></trkpt><trkpt lat="44.055664" lon="10.7863849"><ele>614.0</ele><time>2026-04-06T14:13:08.789Z</time></trkpt><trkpt lat="44.0556488" lon="10.7865735"><ele>614.0</ele><time>2026-04-06T14:13:09.791Z</time></trkpt><trkpt lat="44.0556479" lon="10.7867813"><ele>614.0</ele><time>2026-04-06T14:13:10.791Z</time></trkpt><trkpt lat="44.0556327" lon="10.7869497"><ele>614.0</ele><time>2026-04-06T14:13:11.8Z</time></trkpt><trkpt lat="44.0556159" lon="10.7871201"><ele>614.0</ele><time>2026-04-06T14:13:12.792Z</time></trkpt><trkpt lat="44.0555887" lon="10.7872699"><ele>614.0</ele><time>2026-04-06T14:13:13.797Z</time></trkpt><trkpt lat="44.0555669" lon="10.787413"><ele>614.0</ele><time>2026-04-06T14:13:14.795Z</time></trkpt><trkpt lat="44.0555572" lon="10.7876088"><ele>614.0</ele><time>2026-04-06T14:13:15.789Z</time></trkpt><trkpt lat="44.0555526" lon="10.7877859"><ele>614.0</ele><time>2026-04-06T14:13:16.789Z</time></trkpt><trkpt lat="44.0555365" lon="10.7879481"><ele>614.0</ele><time>2026-04-06T14:13:17.797Z</time></trkpt><trkpt lat="44.0555135" lon="10.788117"><ele>614.0</ele><time>2026-04-06T14:13:18.79Z</time></trkpt><trkpt lat="44.0554979" lon="10.7882789"><ele>614.0</ele><time>2026-04-06T14:13:19.786Z</time></trkpt><trkpt lat="44.0554635" lon="10.7884575"><ele>614.0</ele><time>2026-04-06T14:13:20.782Z</time></trkpt><trkpt lat="44.0554593" lon="10.7886361"><ele>614.0</ele><time>2026-04-06T14:13:21.788Z</time></trkpt><trkpt lat="44.0554382" lon="10.7888161"><ele>614.0</ele><time>2026-04-06T14:13:22.797Z</time></trkpt><trkpt lat="44.0554219" lon="10.7889831"><ele>614.0</ele><time>2026-04-06T14:13:23.787Z</time></trkpt><trkpt lat="44.0553873" lon="10.7891562"><ele>614.0</ele><time>2026-04-06T14:13:24.787Z</time></trkpt><trkpt lat="44.0553628" lon="10.7893494"><ele>615.0</ele><time>2026-04-06T14:13:25.787Z</time></trkpt><trkpt lat="44.0553462" lon="10.7894928"><ele>616.0</ele><time>2026-04-06T14:13:26.792Z</time></trkpt><trkpt lat="44.0553116" lon="10.7898332"><ele>617.0</ele><time>2026-04-06T14:13:27.794Z</time></trkpt><trkpt lat="44.0553021" lon="10.790002"><ele>617.0</ele><time>2026-04-06T14:13:28.803Z</time></trkpt><trkpt lat="44.0552865" lon="10.7901109"><ele>617.0</ele><time>2026-04-06T14:13:29.79Z</time></trkpt><trkpt lat="44.0552794" lon="10.7902023"><ele>617.0</ele><time>2026-04-06T14:13:30.796Z</time></trkpt><trkpt lat="44.0552811" lon="10.7903021"><ele>617.0</ele><time>2026-04-06T14:13:31.79Z</time></trkpt><trkpt lat="44.0553168" lon="10.7903848"><ele>617.0</ele><time>2026-04-06T14:13:32.79Z</time></trkpt><trkpt lat="44.0552974" lon="10.7904733"><ele>617.0</ele><time>2026-04-06T14:13:33.794Z</time></trkpt><trkpt lat="44.0552896" lon="10.7905858"><ele>617.0</ele><time>2026-04-06T14:13:34.796Z</time></trkpt><trkpt lat="44.0552752" lon="10.7906862"><ele>618.0</ele><time>2026-04-06T14:13:35.798Z</time></trkpt><trkpt lat="44.0552908" lon="10.7907732"><ele>619.0</ele><time>2026-04-06T14:13:36.788Z</time></trkpt><trkpt lat="44.0553263" lon="10.7908747"><ele>620.0</ele><time>2026-04-06T14:13:37.8Z</time></trkpt><trkpt lat="44.0553844" lon="10.790946"><ele>621.0</ele><time>2026-04-06T14:13:38.79Z</time></trkpt><trkpt lat="44.0554016" lon="10.7910353"><ele>622.0</ele><time>2026-04-06T14:13:39.797Z</time></trkpt><trkpt lat="44.0554181" lon="10.7911246"><ele>623.0</ele><time>2026-04-06T14:13:40.793Z</time></trkpt><trkpt lat="44.0554768" lon="10.7912329"><ele>623.0</ele><time>2026-04-06T14:13:42.789Z</time></trkpt><trkpt lat="44.0555255" lon="10.7913022"><ele>623.0</ele><time>2026-04-06T14:13:43.79Z</time></trkpt><trkpt lat="44.0555862" lon="10.7914739"><ele>623.0</ele><time>2026-04-06T14:13:45.789Z</time></trkpt><trkpt lat="44.0556022" lon="10.791574"><ele>623.0</ele><time>2026-04-06T14:13:46.791Z</time></trkpt><trkpt lat="44.0556266" lon="10.7916877"><ele>623.0</ele><time>2026-04-06T14:13:47.788Z</time></trkpt><trkpt lat="44.0556527" lon="10.7918083"><ele>622.5</ele><time>2026-04-06T14:13:48.795Z</time></trkpt><trkpt lat="44.0556791" lon="10.7919284"><ele>622.0</ele><time>2026-04-06T14:13:49.789Z</time></trkpt><trkpt lat="44.0557091" lon="10.7920297"><ele>621.5</ele><time>2026-04-06T14:13:50.79Z</time></trkpt><trkpt lat="44.0557584" lon="10.7921468"><ele>621.0</ele><time>2026-04-06T14:13:51.789Z</time></trkpt><trkpt lat="44.0557913" lon="10.792249"><ele>620.5</ele><time>2026-04-06T14:13:52.789Z</time></trkpt><trkpt lat="44.0558168" lon="10.7923545"><ele>620.0</ele><time>2026-04-06T14:13:53.789Z</time></trkpt><trkpt lat="44.0558572" lon="10.792458"><ele>620.0</ele><time>2026-04-06T14:13:54.787Z</time></trkpt><trkpt lat="44.055911" lon="10.7925777"><ele>620.0</ele><time>2026-04-06T14:13:55.788Z</time></trkpt><trkpt lat="44.0559549" lon="10.7927093"><ele>620.0</ele><time>2026-04-06T14:13:56.792Z</time></trkpt><trkpt lat="44.0559847" lon="10.792831"><ele>620.0</ele><time>2026-04-06T14:13:57.791Z</time></trkpt><trkpt lat="44.0560112" lon="10.7929799"><ele>620.0</ele><time>2026-04-06T14:13:58.793Z</time></trkpt><trkpt lat="44.0560506" lon="10.7931046"><ele>619.75</ele><time>2026-04-06T14:13:59.789Z</time></trkpt><trkpt lat="44.0560683" lon="10.7932612"><ele>619.5</ele><time>2026-04-06T14:14:00.791Z</time></trkpt><trkpt lat="44.0561146" lon="10.7934012"><ele>619.25</ele><time>2026-04-06T14:14:01.79Z</time></trkpt><trkpt lat="44.0561823" lon="10.7935306"><ele>619.0</ele><time>2026-04-06T14:14:02.791Z</time></trkpt><trkpt lat="44.0562237" lon="10.7936871"><ele>619.0</ele><time>2026-04-06T14:14:03.807Z</time></trkpt><trkpt lat="44.0562636" lon="10.7938225"><ele>619.0</ele><time>2026-04-06T14:14:04.79Z</time></trkpt><trkpt lat="44.0562692" lon="10.7939746"><ele>619.0</ele><time>2026-04-06T14:14:05.797Z</time></trkpt><trkpt lat="44.05629" lon="10.7941581"><ele>619.0</ele><time>2026-04-06T14:14:06.789Z</time></trkpt><trkpt lat="44.0562603" lon="10.7943179"><ele>620.25</ele><time>2026-04-06T14:14:07.789Z</time></trkpt><trkpt lat="44.0562495" lon="10.794462"><ele>621.5</ele><time>2026-04-06T14:14:08.799Z</time></trkpt><trkpt lat="44.0562172" lon="10.7946272"><ele>622.75</ele><time>2026-04-06T14:14:09.788Z</time></trkpt><trkpt lat="44.0561804" lon="10.7948198"><ele>624.0</ele><time>2026-04-06T14:14:10.794Z</time></trkpt><trkpt lat="44.056138" lon="10.7949948"><ele>624.0</ele><time>2026-04-06T14:14:11.787Z</time></trkpt><trkpt lat="44.0561053" lon="10.7951513"><ele>624.0</ele><time>2026-04-06T14:14:12.803Z</time></trkpt><trkpt lat="44.0560547" lon="10.7953059"><ele>624.0</ele><time>2026-04-06T14:14:13.791Z</time></trkpt><trkpt lat="44.0560032" lon="10.7954482"><ele>624.0</ele><time>2026-04-06T14:14:14.785Z</time></trkpt><trkpt lat="44.0559399" lon="10.7956197"><ele>626.25</ele><time>2026-04-06T14:14:15.788Z</time></trkpt><trkpt lat="44.0558729" lon="10.7957919"><ele>628.5</ele><time>2026-04-06T14:14:16.789Z</time></trkpt><trkpt lat="44.055823" lon="10.7959714"><ele>630.75</ele><time>2026-04-06T14:14:17.791Z</time></trkpt><trkpt lat="44.0557921" lon="10.7961502"><ele>633.0</ele><time>2026-04-06T14:14:18.788Z</time></trkpt><trkpt lat="44.0557315" lon="10.7963074"><ele>629.0</ele><time>2026-04-06T14:14:19.783Z</time></trkpt><trkpt lat="44.0556997" lon="10.7964783"><ele>625.0</ele><time>2026-04-06T14:14:20.789Z</time></trkpt><trkpt lat="44.0556779" lon="10.7966779"><ele>621.0</ele><time>2026-04-06T14:14:21.791Z</time></trkpt><trkpt lat="44.0556376" lon="10.7968764"><ele>617.0</ele><time>2026-04-06T14:14:22.797Z</time></trkpt><trkpt lat="44.0556237" lon="10.7970755"><ele>617.0</ele><time>2026-04-06T14:14:23.792Z</time></trkpt><trkpt lat="44.0556166" lon="10.7972889"><ele>617.0</ele><time>2026-04-06T14:14:24.789Z</time></trkpt><trkpt lat="44.0555782" lon="10.7974941"><ele>617.0</ele><time>2026-04-06T14:14:25.801Z</time></trkpt><trkpt lat="44.0555679" lon="10.7976948"><ele>619.75</ele><time>2026-04-06T14:14:26.789Z</time></trkpt><trkpt lat="44.0555382" lon="10.7979092"><ele>622.5</ele><time>2026-04-06T14:14:27.79Z</time></trkpt><trkpt lat="44.055492" lon="10.7980721"><ele>625.25</ele><time>2026-04-06T14:14:28.79Z</time></trkpt><trkpt lat="44.0554021" lon="10.798233"><ele>628.0</ele><time>2026-04-06T14:14:29.79Z</time></trkpt><trkpt lat="44.0553044" lon="10.7983984"><ele>629.75</ele><time>2026-04-06T14:14:30.79Z</time></trkpt><trkpt lat="44.0552271" lon="10.7985555"><ele>631.5</ele><time>2026-04-06T14:14:31.79Z</time></trkpt><trkpt lat="44.0551541" lon="10.7987178"><ele>633.25</ele><time>2026-04-06T14:14:32.798Z</time></trkpt><trkpt lat="44.0550783" lon="10.7988561"><ele>635.0</ele><time>2026-04-06T14:14:33.794Z</time></trkpt><trkpt lat="44.0549966" lon="10.7989987"><ele>635.25</ele><time>2026-04-06T14:14:34.816Z</time></trkpt><trkpt lat="44.0548976" lon="10.7991314"><ele>635.5</ele><time>2026-04-06T14:14:35.791Z</time></trkpt><trkpt lat="44.0548107" lon="10.7992374"><ele>635.75</ele><time>2026-04-06T14:14:36.786Z</time></trkpt><trkpt lat="44.0546825" lon="10.7993654"><ele>636.0</ele><time>2026-04-06T14:14:37.789Z</time></trkpt><trkpt lat="44.0545569" lon="10.7994898"><ele>636.0</ele><time>2026-04-06T14:14:38.788Z</time></trkpt><trkpt lat="44.0544549" lon="10.7996146"><ele>636.0</ele><time>2026-04-06T14:14:39.791Z</time></trkpt><trkpt lat="44.0543443" lon="10.799755"><ele>636.0</ele><time>2026-04-06T14:14:40.79Z</time></trkpt><trkpt lat="44.0542606" lon="10.799905"><ele>636.0</ele><time>2026-04-06T14:14:41.79Z</time></trkpt><trkpt lat="44.0541886" lon="10.8000575"><ele>637.25</ele><time>2026-04-06T14:14:42.787Z</time></trkpt><trkpt lat="44.0541481" lon="10.8002428"><ele>638.5</ele><time>2026-04-06T14:14:43.79Z</time></trkpt><trkpt lat="44.0540788" lon="10.8004341"><ele>639.75</ele><time>2026-04-06T14:14:44.788Z</time></trkpt><trkpt lat="44.054004" lon="10.8006067"><ele>641.0</ele><time>2026-04-06T14:14:45.796Z</time></trkpt><trkpt lat="44.0539509" lon="10.8007905"><ele>639.75</ele><time>2026-04-06T14:14:46.793Z</time></trkpt><trkpt lat="44.0538899" lon="10.8009685"><ele>638.5</ele><time>2026-04-06T14:14:47.789Z</time></trkpt><trkpt lat="44.0538262" lon="10.8011375"><ele>637.25</ele><time>2026-04-06T14:14:48.789Z</time></trkpt><trkpt lat="44.0537638" lon="10.801307"><ele>636.0</ele><time>2026-04-06T14:14:49.79Z</time></trkpt><trkpt lat="44.0536727" lon="10.8014459"><ele>636.0</ele><time>2026-04-06T14:14:50.788Z</time></trkpt><trkpt lat="44.0535698" lon="10.8015801"><ele>636.0</ele><time>2026-04-06T14:14:51.791Z</time></trkpt><trkpt lat="44.0534671" lon="10.8016963"><ele>636.0</ele><time>2026-04-06T14:14:52.79Z</time></trkpt><trkpt lat="44.0533488" lon="10.8018125"><ele>636.0</ele><time>2026-04-06T14:14:53.794Z</time></trkpt><trkpt lat="44.0532329" lon="10.8019429"><ele>636.0</ele><time>2026-04-06T14:14:54.789Z</time></trkpt><trkpt lat="44.0531385" lon="10.8020932"><ele>636.0</ele><time>2026-04-06T14:14:55.79Z</time></trkpt><trkpt lat="44.0530436" lon="10.8022287"><ele>636.0</ele><time>2026-04-06T14:14:56.792Z</time></trkpt><trkpt lat="44.0529419" lon="10.8023847"><ele>636.0</ele><time>2026-04-06T14:14:57.793Z</time></trkpt><trkpt lat="44.0528328" lon="10.8025285"><ele>637.25</ele><time>2026-04-06T14:14:58.8Z</time></trkpt><trkpt lat="44.0527296" lon="10.8026817"><ele>638.5</ele><time>2026-04-06T14:14:59.79Z</time></trkpt><trkpt lat="44.0526371" lon="10.8028309"><ele>639.75</ele><time>2026-04-06T14:15:00.789Z</time></trkpt><trkpt lat="44.0525541" lon="10.8029948"><ele>641.0</ele><time>2026-04-06T14:15:01.79Z</time></trkpt><trkpt lat="44.0524772" lon="10.803155"><ele>639.5</ele><time>2026-04-06T14:15:02.791Z</time></trkpt><trkpt lat="44.0523966" lon="10.8033029"><ele>638.0</ele><time>2026-04-06T14:15:03.79Z</time></trkpt><trkpt lat="44.052335" lon="10.8034987"><ele>636.5</ele><time>2026-04-06T14:15:04.789Z</time></trkpt><trkpt lat="44.0522619" lon="10.8036824"><ele>635.0</ele><time>2026-04-06T14:15:05.79Z</time></trkpt><trkpt lat="44.0522067" lon="10.8038724"><ele>635.0</ele><time>2026-04-06T14:15:06.789Z</time></trkpt><trkpt lat="44.0521734" lon="10.8040666"><ele>635.0</ele><time>2026-04-06T14:15:07.789Z</time></trkpt><trkpt lat="44.0521251" lon="10.8042463"><ele>635.0</ele><time>2026-04-06T14:15:08.788Z</time></trkpt><trkpt lat="44.0520595" lon="10.8044266"><ele>635.0</ele><time>2026-04-06T14:15:09.791Z</time></trkpt><trkpt lat="44.0519651" lon="10.8045771"><ele>637.0</ele><time>2026-04-06T14:15:10.797Z</time></trkpt><trkpt lat="44.0518504" lon="10.8046863"><ele>639.0</ele><time>2026-04-06T14:15:11.792Z</time></trkpt><trkpt lat="44.0517751" lon="10.8048329"><ele>641.0</ele><time>2026-04-06T14:15:12.799Z</time></trkpt><trkpt lat="44.0516723" lon="10.804922"><ele>643.0</ele><time>2026-04-06T14:15:13.784Z</time></trkpt><trkpt lat="44.0516027" lon="10.8049814"><ele>643.0</ele><time>2026-04-06T14:15:14.788Z</time></trkpt><trkpt lat="44.0514653" lon="10.8050371"><ele>643.0</ele><time>2026-04-06T14:15:15.789Z</time></trkpt><trkpt lat="44.0513662" lon="10.8050789"><ele>643.0</ele><time>2026-04-06T14:15:16.803Z</time></trkpt><trkpt lat="44.0512382" lon="10.8051143"><ele>643.0</ele><time>2026-04-06T14:15:17.793Z</time></trkpt><trkpt lat="44.0511261" lon="10.8051059"><ele>643.0</ele><time>2026-04-06T14:15:18.802Z</time></trkpt><trkpt lat="44.0509718" lon="10.8051167"><ele>643.0</ele><time>2026-04-06T14:15:19.789Z</time></trkpt><trkpt lat="44.0508423" lon="10.805147"><ele>643.0</ele><time>2026-04-06T14:15:20.79Z</time></trkpt><trkpt lat="44.0507258" lon="10.8052327"><ele>643.0</ele><time>2026-04-06T14:15:21.787Z</time></trkpt><trkpt lat="44.0506134" lon="10.8053524"><ele>641.6666666666667</ele><time>2026-04-06T14:15:22.794Z</time></trkpt><trkpt lat="44.0505237" lon="10.805533"><ele>640.3333333333334</ele><time>2026-04-06T14:15:23.791Z</time></trkpt><trkpt lat="44.0504357" lon="10.8057236"><ele>639.0</ele><time>2026-04-06T14:15:24.792Z</time></trkpt><trkpt lat="44.0503447" lon="10.8059147"><ele>641.25</ele><time>2026-04-06T14:15:25.797Z</time></trkpt><trkpt lat="44.0502676" lon="10.8060853"><ele>643.5</ele><time>2026-04-06T14:15:26.793Z</time></trkpt><trkpt lat="44.050191" lon="10.8062661"><ele>645.75</ele><time>2026-04-06T14:15:27.804Z</time></trkpt><trkpt lat="44.0501311" lon="10.80644"><ele>648.0</ele><time>2026-04-06T14:15:28.784Z</time></trkpt><trkpt lat="44.0500558" lon="10.8065881"><ele>646.25</ele><time>2026-04-06T14:15:29.783Z</time></trkpt><trkpt lat="44.0499551" lon="10.8066803"><ele>644.5</ele><time>2026-04-06T14:15:30.789Z</time></trkpt><trkpt lat="44.0498398" lon="10.8067796"><ele>642.75</ele><time>2026-04-06T14:15:31.787Z</time></trkpt><trkpt lat="44.0497319" lon="10.8068716"><ele>641.0</ele><time>2026-04-06T14:15:32.784Z</time></trkpt><trkpt lat="44.0496061" lon="10.8069237"><ele>641.0</ele><time>2026-04-06T14:15:33.806Z</time></trkpt><trkpt lat="44.0495065" lon="10.806999"><ele>641.0</ele><time>2026-04-06T14:15:34.788Z</time></trkpt><trkpt lat="44.0493866" lon="10.8070509"><ele>641.0</ele><time>2026-04-06T14:15:35.786Z</time></trkpt><trkpt lat="44.049289" lon="10.8071041"><ele>641.0</ele><time>2026-04-06T14:15:36.785Z</time></trkpt><trkpt lat="44.0491765" lon="10.807085"><ele>640.1999999999999</ele><time>2026-04-06T14:15:37.784Z</time></trkpt><trkpt lat="44.0490789" lon="10.8070778"><ele>639.4</ele><time>2026-04-06T14:15:38.814Z</time></trkpt><trkpt lat="44.049004" lon="10.8070807"><ele>638.6</ele><time>2026-04-06T14:15:39.785Z</time></trkpt><trkpt lat="44.0488998" lon="10.8071187"><ele>637.8</ele><time>2026-04-06T14:15:40.789Z</time></trkpt><trkpt lat="44.0488156" lon="10.8071601"><ele>637.0</ele><time>2026-04-06T14:15:41.787Z</time></trkpt><trkpt lat="44.0487432" lon="10.8072333"><ele>637.0</ele><time>2026-04-06T14:15:42.793Z</time></trkpt><trkpt lat="44.048683" lon="10.807309"><ele>637.0</ele><time>2026-04-06T14:15:43.785Z</time></trkpt><trkpt lat="44.0486337" lon="10.8074259"><ele>637.0</ele><time>2026-04-06T14:15:44.792Z</time></trkpt><trkpt lat="44.0485693" lon="10.8075486"><ele>637.0</ele><time>2026-04-06T14:15:45.787Z</time></trkpt><trkpt lat="44.0485131" lon="10.8076827"><ele>637.0</ele><time>2026-04-06T14:15:46.787Z</time></trkpt><trkpt lat="44.0484355" lon="10.8078232"><ele>636.6</ele><time>2026-04-06T14:15:47.791Z</time></trkpt><trkpt lat="44.0483676" lon="10.8079683"><ele>636.2</ele><time>2026-04-06T14:15:48.791Z</time></trkpt><trkpt lat="44.0483235" lon="10.8080707"><ele>635.8</ele><time>2026-04-06T14:15:49.789Z</time></trkpt><trkpt lat="44.0482663" lon="10.8081943"><ele>635.4</ele><time>2026-04-06T14:15:50.792Z</time></trkpt><trkpt lat="44.048223" lon="10.8083102"><ele>635.0</ele><time>2026-04-06T14:15:51.79Z</time></trkpt><trkpt lat="44.0481638" lon="10.8083962"><ele>633.8</ele><time>2026-04-06T14:15:52.789Z</time></trkpt><trkpt lat="44.0481025" lon="10.8084572"><ele>632.6</ele><time>2026-04-06T14:15:53.794Z</time></trkpt><trkpt lat="44.0480513" lon="10.8085168"><ele>631.4</ele><time>2026-04-06T14:15:54.788Z</time></trkpt><trkpt lat="44.04795" lon="10.80852"><ele>630.2</ele><time>2026-04-06T14:15:55.789Z</time></trkpt><trkpt lat="44.0478507" lon="10.8085289"><ele>629.0</ele><time>2026-04-06T14:15:56.789Z</time></trkpt><trkpt lat="44.0477319" lon="10.8085106"><ele>628.75</ele><time>2026-04-06T14:15:57.792Z</time></trkpt><trkpt lat="44.0475365" lon="10.8084895"><ele>628.5</ele><time>2026-04-06T14:15:58.791Z</time></trkpt><trkpt lat="44.0474232" lon="10.808493"><ele>628.25</ele><time>2026-04-06T14:15:59.801Z</time></trkpt><trkpt lat="44.0473355" lon="10.8084898"><ele>628.0</ele><time>2026-04-06T14:16:00.791Z</time></trkpt><trkpt lat="44.0472337" lon="10.8084707"><ele>629.4</ele><time>2026-04-06T14:16:01.788Z</time></trkpt><trkpt lat="44.0471462" lon="10.8084586"><ele>630.8</ele><time>2026-04-06T14:16:02.79Z</time></trkpt><trkpt lat="44.0470493" lon="10.808457"><ele>632.2</ele><time>2026-04-06T14:16:03.791Z</time></trkpt><trkpt lat="44.0469607" lon="10.8085007"><ele>633.6</ele><time>2026-04-06T14:16:04.799Z</time></trkpt><trkpt lat="44.0468961" lon="10.8086224"><ele>635.0</ele><time>2026-04-06T14:16:05.789Z</time></trkpt><trkpt lat="44.046835" lon="10.8087202"><ele>636.0</ele><time>2026-04-06T14:16:06.794Z</time></trkpt><trkpt lat="44.0468089" lon="10.8088207"><ele>637.0</ele><time>2026-04-06T14:16:07.788Z</time></trkpt><trkpt lat="44.0467887" lon="10.808939"><ele>638.0</ele><time>2026-04-06T14:16:08.788Z</time></trkpt><trkpt lat="44.0467918" lon="10.8090484"><ele>639.0</ele><time>2026-04-06T14:16:09.787Z</time></trkpt><trkpt lat="44.0468768" lon="10.8092155"><ele>640.0</ele><time>2026-04-06T14:16:10.791Z</time></trkpt><trkpt lat="44.0468987" lon="10.8093363"><ele>640.6</ele><time>2026-04-06T14:16:11.788Z</time></trkpt><trkpt lat="44.0469121" lon="10.8094716"><ele>641.2</ele><time>2026-04-06T14:16:12.79Z</time></trkpt><trkpt lat="44.0468868" lon="10.8096041"><ele>641.8</ele><time>2026-04-06T14:16:13.789Z</time></trkpt><trkpt lat="44.046874" lon="10.8097443"><ele>642.4</ele><time>2026-04-06T14:16:14.79Z</time></trkpt><trkpt lat="44.0468299" lon="10.8098845"><ele>643.0</ele><time>2026-04-06T14:16:15.789Z</time></trkpt><trkpt lat="44.0467862" lon="10.809993"><ele>643.0</ele><time>2026-04-06T14:16:16.791Z</time></trkpt><trkpt lat="44.0467036" lon="10.8101264"><ele>643.0</ele><time>2026-04-06T14:16:17.789Z</time></trkpt><trkpt lat="44.0466387" lon="10.8101851"><ele>643.0</ele><time>2026-04-06T14:16:18.787Z</time></trkpt><trkpt lat="44.0465567" lon="10.8102758"><ele>643.0</ele><time>2026-04-06T14:16:19.79Z</time></trkpt><trkpt lat="44.0464536" lon="10.8103528"><ele>643.0</ele><time>2026-04-06T14:16:20.787Z</time></trkpt><trkpt lat="44.0463866" lon="10.8103847"><ele>647.5</ele><time>2026-04-06T14:16:21.796Z</time></trkpt><trkpt lat="44.0461606" lon="10.8105545"><ele>652.0</ele><time>2026-04-06T14:16:22.792Z</time></trkpt><trkpt lat="44.0458843" lon="10.8106481"><ele>654.0</ele><time>2026-04-06T14:16:23.791Z</time></trkpt><trkpt lat="44.0457031" lon="10.8107592"><ele>656.0</ele><time>2026-04-06T14:16:24.798Z</time></trkpt><trkpt lat="44.0455285" lon="10.8108607"><ele>658.0</ele><time>2026-04-06T14:16:25.787Z</time></trkpt><trkpt lat="44.0453413" lon="10.8109935"><ele>658.0</ele><time>2026-04-06T14:16:26.788Z</time></trkpt><trkpt lat="44.0451631" lon="10.8111434"><ele>658.0</ele><time>2026-04-06T14:16:27.796Z</time></trkpt><trkpt lat="44.0449818" lon="10.8112902"><ele>658.0</ele><time>2026-04-06T14:16:28.787Z</time></trkpt><trkpt lat="44.0448207" lon="10.8114234"><ele>663.3333333333334</ele><time>2026-04-06T14:16:29.795Z</time></trkpt><trkpt lat="44.0446808" lon="10.8115408"><ele>668.6666666666666</ele><time>2026-04-06T14:16:30.802Z</time></trkpt><trkpt lat="44.0445507" lon="10.8116374"><ele>674.0</ele><time>2026-04-06T14:16:31.793Z</time></trkpt><trkpt lat="44.0444345" lon="10.8117667"><ele>673.0</ele><time>2026-04-06T14:16:32.789Z</time></trkpt><trkpt lat="44.0443447" lon="10.811925"><ele>672.0</ele><time>2026-04-06T14:16:33.797Z</time></trkpt><trkpt lat="44.0442794" lon="10.8120673"><ele>671.0</ele><time>2026-04-06T14:16:34.788Z</time></trkpt><trkpt lat="44.0442695" lon="10.8122334"><ele>670.0</ele><time>2026-04-06T14:16:35.786Z</time></trkpt><trkpt lat="44.0442459" lon="10.8124102"><ele>670.0</ele><time>2026-04-06T14:16:36.788Z</time></trkpt><trkpt lat="44.0442526" lon="10.8125992"><ele>670.0</ele><time>2026-04-06T14:16:37.788Z</time></trkpt><trkpt lat="44.0442845" lon="10.8127617"><ele>670.0</ele><time>2026-04-06T14:16:38.789Z</time></trkpt><trkpt lat="44.0443478" lon="10.8129122"><ele>670.0</ele><time>2026-04-06T14:16:39.791Z</time></trkpt><trkpt lat="44.0444393" lon="10.8129775"><ele>672.25</ele><time>2026-04-06T14:16:40.79Z</time></trkpt><trkpt lat="44.0445458" lon="10.8130895"><ele>674.5</ele><time>2026-04-06T14:16:41.788Z</time></trkpt><trkpt lat="44.0446897" lon="10.8131649"><ele>676.75</ele><time>2026-04-06T14:16:42.788Z</time></trkpt><trkpt lat="44.0448154" lon="10.8132095"><ele>679.0</ele><time>2026-04-06T14:16:43.797Z</time></trkpt><trkpt lat="44.0449338" lon="10.8132528"><ele>678.6</ele><time>2026-04-06T14:16:44.789Z</time></trkpt><trkpt lat="44.0450667" lon="10.8133036"><ele>678.2</ele><time>2026-04-06T14:16:45.788Z</time></trkpt><trkpt lat="44.0451488" lon="10.8133296"><ele>677.8000000000001</ele><time>2026-04-06T14:16:46.788Z</time></trkpt><trkpt lat="44.0452276" lon="10.813358"><ele>677.4000000000001</ele><time>2026-04-06T14:16:47.789Z</time></trkpt><trkpt lat="44.0452957" lon="10.8134282"><ele>677.0</ele><time>2026-04-06T14:16:48.789Z</time></trkpt><trkpt lat="44.0453591" lon="10.8134992"><ele>679.0</ele><time>2026-04-06T14:16:49.796Z</time></trkpt><trkpt lat="44.0454193" lon="10.8136172"><ele>681.0</ele><time>2026-04-06T14:16:50.791Z</time></trkpt><trkpt lat="44.0454544" lon="10.8137312"><ele>683.0</ele><time>2026-04-06T14:16:51.795Z</time></trkpt><trkpt lat="44.0454613" lon="10.8138485"><ele>685.0</ele><time>2026-04-06T14:16:52.79Z</time></trkpt><trkpt lat="44.0454645" lon="10.8139645"><ele>687.0</ele><time>2026-04-06T14:16:53.788Z</time></trkpt><trkpt lat="44.0454417" lon="10.8140928"><ele>687.0</ele><time>2026-04-06T14:16:54.792Z</time></trkpt><trkpt lat="44.0454008" lon="10.814215"><ele>687.0</ele><time>2026-04-06T14:16:55.788Z</time></trkpt><trkpt lat="44.0453577" lon="10.8143409"><ele>687.0</ele><time>2026-04-06T14:16:56.789Z</time></trkpt><trkpt lat="44.0451969" lon="10.8145192"><ele>687.0</ele><time>2026-04-06T14:16:57.791Z</time></trkpt><trkpt lat="44.0450939" lon="10.8147195"><ele>687.3333333333334</ele><time>2026-04-06T14:16:58.792Z</time></trkpt><trkpt lat="44.0449666" lon="10.8148896"><ele>687.6666666666667</ele><time>2026-04-06T14:16:59.789Z</time></trkpt><trkpt lat="44.0448411" lon="10.815044"><ele>688.0</ele><time>2026-04-06T14:17:00.797Z</time></trkpt><trkpt lat="44.0447281" lon="10.8152132"><ele>691.75</ele><time>2026-04-06T14:17:01.791Z</time></trkpt><trkpt lat="44.0446555" lon="10.8153585"><ele>695.5</ele><time>2026-04-06T14:17:02.797Z</time></trkpt><trkpt lat="44.0445675" lon="10.8154959"><ele>699.25</ele><time>2026-04-06T14:17:03.803Z</time></trkpt><trkpt lat="44.0444969" lon="10.8155897"><ele>703.0</ele><time>2026-04-06T14:17:04.788Z</time></trkpt><trkpt lat="44.0444234" lon="10.8157168"><ele>703.0</ele><time>2026-04-06T14:17:05.79Z</time></trkpt><trkpt lat="44.0443611" lon="10.815851"><ele>703.0</ele><time>2026-04-06T14:17:06.789Z</time></trkpt><trkpt lat="44.0442971" lon="10.8160018"><ele>703.0</ele><time>2026-04-06T14:17:07.792Z</time></trkpt><trkpt lat="44.0442575" lon="10.8162187"><ele>703.0</ele><time>2026-04-06T14:17:08.8Z</time></trkpt><trkpt lat="44.0442048" lon="10.8164506"><ele>701.3333333333334</ele><time>2026-04-06T14:17:09.79Z</time></trkpt><trkpt lat="44.0441421" lon="10.8167303"><ele>699.6666666666666</ele><time>2026-04-06T14:17:10.789Z</time></trkpt><trkpt lat="44.0440844" lon="10.8170045"><ele>698.0</ele><time>2026-04-06T14:17:11.787Z</time></trkpt><trkpt lat="44.0440351" lon="10.8172635"><ele>703.6666666666666</ele><time>2026-04-06T14:17:12.788Z</time></trkpt><trkpt lat="44.0439593" lon="10.81753"><ele>709.3333333333334</ele><time>2026-04-06T14:17:13.79Z</time></trkpt><trkpt lat="44.0439159" lon="10.8177775"><ele>715.0</ele><time>2026-04-06T14:17:14.787Z</time></trkpt><trkpt lat="44.0438616" lon="10.8180021"><ele>715.5</ele><time>2026-04-06T14:17:15.79Z</time></trkpt><trkpt lat="44.043814" lon="10.8181995"><ele>716.0</ele><time>2026-04-06T14:17:16.79Z</time></trkpt><trkpt lat="44.0437936" lon="10.8183663"><ele>716.5</ele><time>2026-04-06T14:17:17.79Z</time></trkpt><trkpt lat="44.0437519" lon="10.8185206"><ele>717.0</ele><time>2026-04-06T14:17:18.789Z</time></trkpt><trkpt lat="44.0437245" lon="10.8186645"><ele>717.8</ele><time>2026-04-06T14:17:19.787Z</time></trkpt><trkpt lat="44.043685" lon="10.818801"><ele>718.6</ele><time>2026-04-06T14:17:20.792Z</time></trkpt><trkpt lat="44.0436503" lon="10.8189355"><ele>719.4</ele><time>2026-04-06T14:17:21.787Z</time></trkpt><trkpt lat="44.0436236" lon="10.8190684"><ele>720.1999999999999</ele><time>2026-04-06T14:17:22.789Z</time></trkpt><trkpt lat="44.0435936" lon="10.8191869"><ele>721.0</ele><time>2026-04-06T14:17:23.801Z</time></trkpt><trkpt lat="44.0435782" lon="10.8192967"><ele>722.0</ele><time>2026-04-06T14:17:24.787Z</time></trkpt><trkpt lat="44.0435793" lon="10.8194123"><ele>723.0</ele><time>2026-04-06T14:17:25.789Z</time></trkpt><trkpt lat="44.0436272" lon="10.8195337"><ele>724.0</ele><time>2026-04-06T14:17:26.788Z</time></trkpt><trkpt lat="44.0436688" lon="10.8196609"><ele>725.0</ele><time>2026-04-06T14:17:27.796Z</time></trkpt><trkpt lat="44.0436914" lon="10.8198121"><ele>726.0</ele><time>2026-04-06T14:17:28.789Z</time></trkpt><trkpt lat="44.0437351" lon="10.8200153"><ele>728.6666666666666</ele><time>2026-04-06T14:17:29.788Z</time></trkpt><trkpt lat="44.0437452" lon="10.82023"><ele>731.3333333333333</ele><time>2026-04-06T14:17:30.79Z</time></trkpt><trkpt lat="44.0437363" lon="10.8204746"><ele>734.0</ele><time>2026-04-06T14:17:31.786Z</time></trkpt><trkpt lat="44.0437251" lon="10.8206944"><ele>734.0</ele><time>2026-04-06T14:17:32.795Z</time></trkpt><trkpt lat="44.0437219" lon="10.8208901"><ele>734.0</ele><time>2026-04-06T14:17:33.792Z</time></trkpt><trkpt lat="44.0437961" lon="10.8210734"><ele>734.0</ele><time>2026-04-06T14:17:34.79Z</time></trkpt><trkpt lat="44.0438774" lon="10.8212454"><ele>734.0</ele><time>2026-04-06T14:17:35.788Z</time></trkpt><trkpt lat="44.043924" lon="10.8214062"><ele>735.25</ele><time>2026-04-06T14:17:36.793Z</time></trkpt><trkpt lat="44.0438958" lon="10.8215882"><ele>736.5</ele><time>2026-04-06T14:17:37.788Z</time></trkpt><trkpt lat="44.0438958" lon="10.8217571"><ele>737.75</ele><time>2026-04-06T14:17:38.788Z</time></trkpt><trkpt lat="44.0438607" lon="10.8219592"><ele>739.0</ele><time>2026-04-06T14:17:39.796Z</time></trkpt><trkpt lat="44.0437948" lon="10.8222353"><ele>740.0</ele><time>2026-04-06T14:17:40.798Z</time></trkpt><trkpt lat="44.0437476" lon="10.8224798"><ele>741.0</ele><time>2026-04-06T14:17:41.791Z</time></trkpt><trkpt lat="44.043669" lon="10.8227751"><ele>742.0</ele><time>2026-04-06T14:17:42.788Z</time></trkpt><trkpt lat="44.0436099" lon="10.823094"><ele>743.3333333333334</ele><time>2026-04-06T14:17:43.79Z</time></trkpt><trkpt lat="44.0435654" lon="10.8233553"><ele>744.6666666666666</ele><time>2026-04-06T14:17:44.791Z</time></trkpt><trkpt lat="44.0435111" lon="10.82357"><ele>746.0</ele><time>2026-04-06T14:17:45.79Z</time></trkpt><trkpt lat="44.0434652" lon="10.8237934"><ele>746.0</ele><time>2026-04-06T14:17:46.788Z</time></trkpt><trkpt lat="44.0434447" lon="10.8239769"><ele>746.0</ele><time>2026-04-06T14:17:47.788Z</time></trkpt><trkpt lat="44.0434669" lon="10.8241749"><ele>746.0</ele><time>2026-04-06T14:17:48.788Z</time></trkpt><trkpt lat="44.0435258" lon="10.8243788"><ele>746.0</ele><time>2026-04-06T14:17:49.787Z</time></trkpt><trkpt lat="44.043559" lon="10.8246265"><ele>747.3333333333333</ele><time>2026-04-06T14:17:50.789Z</time></trkpt><trkpt lat="44.0435822" lon="10.8248529"><ele>748.6666666666666</ele><time>2026-04-06T14:17:51.794Z</time></trkpt><trkpt lat="44.0435923" lon="10.8250719"><ele>750.0</ele><time>2026-04-06T14:17:52.789Z</time></trkpt><trkpt lat="44.0435486" lon="10.8252471"><ele>750.2</ele><time>2026-04-06T14:17:53.792Z</time></trkpt><trkpt lat="44.0434953" lon="10.8253957"><ele>750.4</ele><time>2026-04-06T14:17:54.788Z</time></trkpt><trkpt lat="44.0434384" lon="10.8255202"><ele>750.5999999999999</ele><time>2026-04-06T14:17:55.788Z</time></trkpt><trkpt lat="44.043369" lon="10.8256196"><ele>750.8</ele><time>2026-04-06T14:17:56.787Z</time></trkpt><trkpt lat="44.0432969" lon="10.8257428"><ele>751.0</ele><time>2026-04-06T14:17:57.788Z</time></trkpt><trkpt lat="44.0431922" lon="10.8258609"><ele>753.0</ele><time>2026-04-06T14:17:58.797Z</time></trkpt><trkpt lat="44.0430998" lon="10.8259835"><ele>755.0</ele><time>2026-04-06T14:17:59.791Z</time></trkpt><trkpt lat="44.0429979" lon="10.826128"><ele>757.0</ele><time>2026-04-06T14:18:00.788Z</time></trkpt><trkpt lat="44.0428972" lon="10.8262825"><ele>759.0</ele><time>2026-04-06T14:18:01.787Z</time></trkpt><trkpt lat="44.0427778" lon="10.8264234"><ele>759.0</ele><time>2026-04-06T14:18:02.786Z</time></trkpt><trkpt lat="44.0426893" lon="10.8265453"><ele>759.0</ele><time>2026-04-06T14:18:03.791Z</time></trkpt><trkpt lat="44.0426071" lon="10.8266542"><ele>759.0</ele><time>2026-04-06T14:18:04.791Z</time></trkpt><trkpt lat="44.042517" lon="10.82679"><ele>759.0</ele><time>2026-04-06T14:18:05.788Z</time></trkpt><trkpt lat="44.0424561" lon="10.8269057"><ele>764.2</ele><time>2026-04-06T14:18:06.789Z</time></trkpt><trkpt lat="44.042384" lon="10.8270349"><ele>769.4000000000001</ele><time>2026-04-06T14:18:07.793Z</time></trkpt><trkpt lat="44.0423109" lon="10.8271481"><ele>774.6</ele><time>2026-04-06T14:18:08.788Z</time></trkpt><trkpt lat="44.0422451" lon="10.8272719"><ele>779.8</ele><time>2026-04-06T14:18:09.786Z</time></trkpt><trkpt lat="44.0421769" lon="10.8273811"><ele>785.0</ele><time>2026-04-06T14:18:10.79Z</time></trkpt><trkpt lat="44.0421067" lon="10.8274848"><ele>785.0</ele><time>2026-04-06T14:18:11.791Z</time></trkpt><trkpt lat="44.0420349" lon="10.8276307"><ele>785.0</ele><time>2026-04-06T14:18:12.788Z</time></trkpt><trkpt lat="44.0419826" lon="10.8277839"><ele>785.0</ele><time>2026-04-06T14:18:13.793Z</time></trkpt><trkpt lat="44.0419516" lon="10.8279237"><ele>785.0</ele><time>2026-04-06T14:18:14.79Z</time></trkpt><trkpt lat="44.0419425" lon="10.8280884"><ele>785.0</ele><time>2026-04-06T14:18:15.788Z</time></trkpt><trkpt lat="44.0419327" lon="10.8282511"><ele>785.0</ele><time>2026-04-06T14:18:16.787Z</time></trkpt><trkpt lat="44.0419517" lon="10.8284248"><ele>785.0</ele><time>2026-04-06T14:18:17.789Z</time></trkpt><trkpt lat="44.0419785" lon="10.8286291"><ele>785.0</ele><time>2026-04-06T14:18:18.788Z</time></trkpt><trkpt lat="44.0420159" lon="10.8288267"><ele>786.25</ele><time>2026-04-06T14:18:19.791Z</time></trkpt><trkpt lat="44.0420507" lon="10.8290259"><ele>787.5</ele><time>2026-04-06T14:18:20.789Z</time></trkpt><trkpt lat="44.0420844" lon="10.8292127"><ele>788.75</ele><time>2026-04-06T14:18:21.789Z</time></trkpt><trkpt lat="44.0421006" lon="10.8294096"><ele>790.0</ele><time>2026-04-06T14:18:22.789Z</time></trkpt><trkpt lat="44.0420726" lon="10.8296276"><ele>791.6666666666666</ele><time>2026-04-06T14:18:23.787Z</time></trkpt><trkpt lat="44.0420594" lon="10.8298577"><ele>793.3333333333333</ele><time>2026-04-06T14:18:24.786Z</time></trkpt><trkpt lat="44.0420076" lon="10.8300904"><ele>795.0</ele><time>2026-04-06T14:18:25.789Z</time></trkpt><trkpt lat="44.0419332" lon="10.8303174"><ele>795.0</ele><time>2026-04-06T14:18:26.786Z</time></trkpt><trkpt lat="44.0418676" lon="10.8305421"><ele>795.0</ele><time>2026-04-06T14:18:27.792Z</time></trkpt><trkpt lat="44.0418381" lon="10.8307793"><ele>795.0</ele><time>2026-04-06T14:18:28.789Z</time></trkpt><trkpt lat="44.041888" lon="10.8309472"><ele>795.4</ele><time>2026-04-06T14:18:29.792Z</time></trkpt><trkpt lat="44.0419052" lon="10.831101"><ele>795.8</ele><time>2026-04-06T14:18:30.79Z</time></trkpt><trkpt lat="44.0419452" lon="10.8312512"><ele>796.2</ele><time>2026-04-06T14:18:31.791Z</time></trkpt><trkpt lat="44.0420355" lon="10.8313095"><ele>796.6</ele><time>2026-04-06T14:18:32.792Z</time></trkpt><trkpt lat="44.0421164" lon="10.8313846"><ele>797.0</ele><time>2026-04-06T14:18:33.786Z</time></trkpt><trkpt lat="44.0422154" lon="10.8314215"><ele>797.0</ele><time>2026-04-06T14:18:34.794Z</time></trkpt><trkpt lat="44.0423909" lon="10.8314454"><ele>797.0</ele><time>2026-04-06T14:18:35.795Z</time></trkpt><trkpt lat="44.0425297" lon="10.8315122"><ele>797.0</ele><time>2026-04-06T14:18:36.802Z</time></trkpt><trkpt lat="44.042644" lon="10.8316047"><ele>798.0</ele><time>2026-04-06T14:18:37.79Z</time></trkpt><trkpt lat="44.0427426" lon="10.8317241"><ele>799.0</ele><time>2026-04-06T14:18:38.8Z</time></trkpt><trkpt lat="44.0428165" lon="10.8318555"><ele>800.0</ele><time>2026-04-06T14:18:39.799Z</time></trkpt><trkpt lat="44.0428778" lon="10.8320704"><ele>801.0</ele><time>2026-04-06T14:18:40.784Z</time></trkpt><trkpt lat="44.0429388" lon="10.8322713"><ele>801.0</ele><time>2026-04-06T14:18:41.784Z</time></trkpt><trkpt lat="44.0429597" lon="10.8324764"><ele>801.0</ele><time>2026-04-06T14:18:42.79Z</time></trkpt><trkpt lat="44.0429851" lon="10.8327494"><ele>801.0</ele><time>2026-04-06T14:18:43.783Z</time></trkpt><trkpt lat="44.0430273" lon="10.833008"><ele>802.6666666666667</ele><time>2026-04-06T14:18:44.784Z</time></trkpt><trkpt lat="44.0430386" lon="10.833237"><ele>804.3333333333334</ele><time>2026-04-06T14:18:45.782Z</time></trkpt><trkpt lat="44.0430491" lon="10.8334657"><ele>806.0</ele><time>2026-04-06T14:18:46.788Z</time></trkpt><trkpt lat="44.0430344" lon="10.8337044"><ele>807.3333333333334</ele><time>2026-04-06T14:18:47.789Z</time></trkpt><trkpt lat="44.0429938" lon="10.8339172"><ele>808.6666666666667</ele><time>2026-04-06T14:18:48.789Z</time></trkpt><trkpt lat="44.0428957" lon="10.8341435"><ele>810.0</ele><time>2026-04-06T14:18:49.788Z</time></trkpt><trkpt lat="44.0428417" lon="10.8343673"><ele>813.3333333333333</ele><time>2026-04-06T14:18:50.79Z</time></trkpt><trkpt lat="44.0428085" lon="10.8345745"><ele>816.6666666666666</ele><time>2026-04-06T14:18:51.789Z</time></trkpt><trkpt lat="44.0427731" lon="10.8347688"><ele>820.0</ele><time>2026-04-06T14:18:52.795Z</time></trkpt><trkpt lat="44.0427758" lon="10.8349913"><ele>822.3333333333333</ele><time>2026-04-06T14:18:53.789Z</time></trkpt><trkpt lat="44.0427836" lon="10.8351969"><ele>824.6666666666667</ele><time>2026-04-06T14:18:54.79Z</time></trkpt><trkpt lat="44.042793" lon="10.8354179"><ele>827.0</ele><time>2026-04-06T14:18:55.788Z</time></trkpt><trkpt lat="44.0427983" lon="10.8356318"><ele>827.0</ele><time>2026-04-06T14:18:56.788Z</time></trkpt><trkpt lat="44.042801" lon="10.8358366"><ele>827.0</ele><time>2026-04-06T14:18:57.79Z</time></trkpt><trkpt lat="44.0428058" lon="10.8360174"><ele>827.0</ele><time>2026-04-06T14:18:58.791Z</time></trkpt><trkpt lat="44.0428187" lon="10.8361923"><ele>827.0</ele><time>2026-04-06T14:18:59.79Z</time></trkpt><trkpt lat="44.0428071" lon="10.8363469"><ele>826.4000000000001</ele><time>2026-04-06T14:19:00.788Z</time></trkpt><trkpt lat="44.0428006" lon="10.836516"><ele>825.8000000000001</ele><time>2026-04-06T14:19:01.786Z</time></trkpt><trkpt lat="44.0427716" lon="10.836626"><ele>825.2</ele><time>2026-04-06T14:19:02.79Z</time></trkpt><trkpt lat="44.0426937" lon="10.8367195"><ele>824.6</ele><time>2026-04-06T14:19:03.789Z</time></trkpt><trkpt lat="44.0426478" lon="10.8368401"><ele>824.0</ele><time>2026-04-06T14:19:04.814Z</time></trkpt><trkpt lat="44.0425855" lon="10.8370215"><ele>822.75</ele><time>2026-04-06T14:19:05.799Z</time></trkpt><trkpt lat="44.0425494" lon="10.8371846"><ele>821.5</ele><time>2026-04-06T14:19:06.787Z</time></trkpt><trkpt lat="44.0425318" lon="10.8373816"><ele>820.25</ele><time>2026-04-06T14:19:07.788Z</time></trkpt><trkpt lat="44.0425262" lon="10.8375658"><ele>819.0</ele><time>2026-04-06T14:19:08.785Z</time></trkpt><trkpt lat="44.0425322" lon="10.8377695"><ele>817.0</ele><time>2026-04-06T14:19:09.797Z</time></trkpt><trkpt lat="44.0425275" lon="10.8379582"><ele>815.0</ele><time>2026-04-06T14:19:10.791Z</time></trkpt><trkpt lat="44.0425308" lon="10.8381378"><ele>813.0</ele><time>2026-04-06T14:19:11.785Z</time></trkpt><trkpt lat="44.0425301" lon="10.8382903"><ele>811.0</ele><time>2026-04-06T14:19:12.792Z</time></trkpt><trkpt lat="44.0424783" lon="10.8384295"><ele>807.1999999999999</ele><time>2026-04-06T14:19:13.79Z</time></trkpt><trkpt lat="44.0424356" lon="10.8385679"><ele>803.4</ele><time>2026-04-06T14:19:14.793Z</time></trkpt><trkpt lat="44.0423675" lon="10.8387004"><ele>799.6</ele><time>2026-04-06T14:19:15.792Z</time></trkpt><trkpt lat="44.0422987" lon="10.8388165"><ele>795.8</ele><time>2026-04-06T14:19:16.79Z</time></trkpt><trkpt lat="44.0422325" lon="10.8389337"><ele>792.0</ele><time>2026-04-06T14:19:17.79Z</time></trkpt><trkpt lat="44.0421832" lon="10.8390428"><ele>792.0</ele><time>2026-04-06T14:19:18.795Z</time></trkpt><trkpt lat="44.0421731" lon="10.8391729"><ele>792.0</ele><time>2026-04-06T14:19:19.789Z</time></trkpt><trkpt lat="44.0421814" lon="10.839297"><ele>792.0</ele><time>2026-04-06T14:19:20.788Z</time></trkpt><trkpt lat="44.0423151" lon="10.8393376"><ele>792.0</ele><time>2026-04-06T14:19:21.789Z</time></trkpt><trkpt lat="44.0423962" lon="10.8394011"><ele>792.0</ele><time>2026-04-06T14:19:22.79Z</time></trkpt><trkpt lat="44.0424866" lon="10.8394293"><ele>791.25</ele><time>2026-04-06T14:19:23.79Z</time></trkpt><trkpt lat="44.0426057" lon="10.8394778"><ele>790.5</ele><time>2026-04-06T14:19:24.799Z</time></trkpt><trkpt lat="44.0427506" lon="10.8395228"><ele>789.75</ele><time>2026-04-06T14:19:25.791Z</time></trkpt><trkpt lat="44.0428928" lon="10.8396051"><ele>789.0</ele><time>2026-04-06T14:19:26.789Z</time></trkpt><trkpt lat="44.0430048" lon="10.8396648"><ele>789.0</ele><time>2026-04-06T14:19:27.791Z</time></trkpt><trkpt lat="44.0430242" lon="10.839792"><ele>789.0</ele><time>2026-04-06T14:19:28.788Z</time></trkpt><trkpt lat="44.0430262" lon="10.8399566"><ele>789.0</ele><time>2026-04-06T14:19:29.792Z</time></trkpt><trkpt lat="44.0430393" lon="10.8401243"><ele>789.0</ele><time>2026-04-06T14:19:30.788Z</time></trkpt><trkpt lat="44.0430345" lon="10.8403044"><ele>787.5</ele><time>2026-04-06T14:19:31.791Z</time></trkpt><trkpt lat="44.0430082" lon="10.8404801"><ele>786.0</ele><time>2026-04-06T14:19:32.786Z</time></trkpt><trkpt lat="44.0429324" lon="10.8406681"><ele>784.5</ele><time>2026-04-06T14:19:33.791Z</time></trkpt><trkpt lat="44.0428605" lon="10.8408556"><ele>783.0</ele><time>2026-04-06T14:19:34.797Z</time></trkpt><trkpt lat="44.0428288" lon="10.8410533"><ele>782.75</ele><time>2026-04-06T14:19:35.788Z</time></trkpt><trkpt lat="44.0428098" lon="10.8412356"><ele>782.5</ele><time>2026-04-06T14:19:36.788Z</time></trkpt><trkpt lat="44.0428077" lon="10.8414251"><ele>782.25</ele><time>2026-04-06T14:19:37.788Z</time></trkpt><trkpt lat="44.0427997" lon="10.8416108"><ele>782.0</ele><time>2026-04-06T14:19:38.798Z</time></trkpt><trkpt lat="44.042912" lon="10.8417808"><ele>778.0</ele><time>2026-04-06T14:19:39.796Z</time></trkpt><trkpt lat="44.0429641" lon="10.8419799"><ele>774.0</ele><time>2026-04-06T14:19:40.789Z</time></trkpt><trkpt lat="44.0430445" lon="10.842188"><ele>770.0</ele><time>2026-04-06T14:19:41.79Z</time></trkpt><trkpt lat="44.0431161" lon="10.8423742"><ele>770.0</ele><time>2026-04-06T14:19:42.788Z</time></trkpt><trkpt lat="44.0432112" lon="10.8425555"><ele>770.0</ele><time>2026-04-06T14:19:43.798Z</time></trkpt><trkpt lat="44.0433141" lon="10.8426695"><ele>770.0</ele><time>2026-04-06T14:19:44.792Z</time></trkpt><trkpt lat="44.0434192" lon="10.842764"><ele>770.0</ele><time>2026-04-06T14:19:45.79Z</time></trkpt><trkpt lat="44.0435555" lon="10.8427754"><ele>771.1666666666667</ele><time>2026-04-06T14:19:46.793Z</time></trkpt><trkpt lat="44.0436654" lon="10.842838"><ele>772.3333333333334</ele><time>2026-04-06T14:19:47.789Z</time></trkpt><trkpt lat="44.0437268" lon="10.8428815"><ele>773.5</ele><time>2026-04-06T14:19:48.787Z</time></trkpt><trkpt lat="44.0437927" lon="10.8429575"><ele>774.6666666666667</ele><time>2026-04-06T14:19:49.79Z</time></trkpt><trkpt lat="44.043773" lon="10.8430677"><ele>775.8333333333334</ele><time>2026-04-06T14:19:50.787Z</time></trkpt><trkpt lat="44.043767" lon="10.8431618"><ele>777.0</ele><time>2026-04-06T14:19:51.788Z</time></trkpt><trkpt lat="44.0437163" lon="10.8432843"><ele>777.0</ele><time>2026-04-06T14:19:53.788Z</time></trkpt><trkpt lat="44.0436461" lon="10.8433487"><ele>777.0</ele><time>2026-04-06T14:19:54.788Z</time></trkpt><trkpt lat="44.0435608" lon="10.8434424"><ele>777.0</ele><time>2026-04-06T14:19:55.789Z</time></trkpt><trkpt lat="44.0433694" lon="10.8436907"><ele>773.3333333333334</ele><time>2026-04-06T14:19:56.789Z</time></trkpt><trkpt lat="44.0432047" lon="10.8438549"><ele>769.6666666666667</ele><time>2026-04-06T14:19:57.795Z</time></trkpt><trkpt lat="44.0430375" lon="10.8439692"><ele>766.0</ele><time>2026-04-06T14:19:58.788Z</time></trkpt><trkpt lat="44.0428501" lon="10.8441016"><ele>766.0</ele><time>2026-04-06T14:19:59.787Z</time></trkpt><trkpt lat="44.0426383" lon="10.8442036"><ele>766.0</ele><time>2026-04-06T14:20:00.785Z</time></trkpt><trkpt lat="44.0424661" lon="10.8442343"><ele>766.0</ele><time>2026-04-06T14:20:01.79Z</time></trkpt><trkpt lat="44.0423118" lon="10.8443333"><ele>763.5</ele><time>2026-04-06T14:20:02.789Z</time></trkpt><trkpt lat="44.0421932" lon="10.8444505"><ele>761.0</ele><time>2026-04-06T14:20:03.793Z</time></trkpt><trkpt lat="44.0421072" lon="10.8445863"><ele>758.5</ele><time>2026-04-06T14:20:04.794Z</time></trkpt><trkpt lat="44.0420357" lon="10.8447661"><ele>756.0</ele><time>2026-04-06T14:20:05.789Z</time></trkpt><trkpt lat="44.0419636" lon="10.8449465"><ele>756.0</ele><time>2026-04-06T14:20:06.785Z</time></trkpt><trkpt lat="44.0419052" lon="10.8450901"><ele>756.0</ele><time>2026-04-06T14:20:07.793Z</time></trkpt><trkpt lat="44.041813" lon="10.8451951"><ele>756.0</ele><time>2026-04-06T14:20:08.786Z</time></trkpt><trkpt lat="44.0417124" lon="10.8453136"><ele>756.0</ele><time>2026-04-06T14:20:09.786Z</time></trkpt><trkpt lat="44.0416202" lon="10.8454321"><ele>752.75</ele><time>2026-04-06T14:20:10.792Z</time></trkpt><trkpt lat="44.0415059" lon="10.8455322"><ele>749.5</ele><time>2026-04-06T14:20:11.789Z</time></trkpt><trkpt lat="44.0414217" lon="10.845634"><ele>746.25</ele><time>2026-04-06T14:20:12.793Z</time></trkpt><trkpt lat="44.0413377" lon="10.8457511"><ele>743.0</ele><time>2026-04-06T14:20:13.788Z</time></trkpt><trkpt lat="44.0412558" lon="10.8458473"><ele>744.2</ele><time>2026-04-06T14:20:14.788Z</time></trkpt><trkpt lat="44.0412045" lon="10.8459804"><ele>745.4</ele><time>2026-04-06T14:20:15.788Z</time></trkpt><trkpt lat="44.0411551" lon="10.8461195"><ele>746.6</ele><time>2026-04-06T14:20:16.787Z</time></trkpt><trkpt lat="44.0411113" lon="10.8462414"><ele>747.8000000000001</ele><time>2026-04-06T14:20:17.795Z</time></trkpt><trkpt lat="44.0410525" lon="10.8463615"><ele>749.0</ele><time>2026-04-06T14:20:18.789Z</time></trkpt><trkpt lat="44.0409797" lon="10.8464447"><ele>749.0</ele><time>2026-04-06T14:20:19.788Z</time></trkpt><trkpt lat="44.0409059" lon="10.8465141"><ele>749.0</ele><time>2026-04-06T14:20:20.79Z</time></trkpt><trkpt lat="44.0408237" lon="10.8465225"><ele>749.0</ele><time>2026-04-06T14:20:21.799Z</time></trkpt><trkpt lat="44.0407078" lon="10.8465201"><ele>749.0</ele><time>2026-04-06T14:20:22.786Z</time></trkpt><trkpt lat="44.0406031" lon="10.8465378"><ele>749.0</ele><time>2026-04-06T14:20:23.798Z</time></trkpt><trkpt lat="44.0405071" lon="10.8465946"><ele>747.4000000000001</ele><time>2026-04-06T14:20:24.788Z</time></trkpt><trkpt lat="44.040421" lon="10.8466903"><ele>745.8</ele><time>2026-04-06T14:20:25.793Z</time></trkpt><trkpt lat="44.0404226" lon="10.8468315"><ele>744.2</ele><time>2026-04-06T14:20:26.79Z</time></trkpt><trkpt lat="44.0403815" lon="10.8469544"><ele>742.5999999999999</ele><time>2026-04-06T14:20:27.8Z</time></trkpt><trkpt lat="44.0403297" lon="10.8470384"><ele>741.0</ele><time>2026-04-06T14:20:28.789Z</time></trkpt><trkpt lat="44.0402603" lon="10.847099"><ele>741.0</ele><time>2026-04-06T14:20:29.788Z</time></trkpt><trkpt lat="44.0401751" lon="10.847128"><ele>741.0</ele><time>2026-04-06T14:20:30.789Z</time></trkpt><trkpt lat="44.0400621" lon="10.8471162"><ele>741.0</ele><time>2026-04-06T14:20:31.787Z</time></trkpt><trkpt lat="44.0399492" lon="10.8471282"><ele>741.0</ele><time>2026-04-06T14:20:32.789Z</time></trkpt><trkpt lat="44.0398565" lon="10.8471593"><ele>741.0</ele><time>2026-04-06T14:20:33.787Z</time></trkpt><trkpt lat="44.039767" lon="10.8472017"><ele>737.75</ele><time>2026-04-06T14:20:34.789Z</time></trkpt><trkpt lat="44.0396759" lon="10.8472769"><ele>734.5</ele><time>2026-04-06T14:20:35.793Z</time></trkpt><trkpt lat="44.0395774" lon="10.8473703"><ele>731.25</ele><time>2026-04-06T14:20:36.794Z</time></trkpt><trkpt lat="44.0394735" lon="10.8474655"><ele>728.0</ele><time>2026-04-06T14:20:37.792Z</time></trkpt><trkpt lat="44.0393675" lon="10.8475787"><ele>729.75</ele><time>2026-04-06T14:20:38.788Z</time></trkpt><trkpt lat="44.0392652" lon="10.8476717"><ele>731.5</ele><time>2026-04-06T14:20:39.788Z</time></trkpt><trkpt lat="44.0391589" lon="10.8477835"><ele>733.25</ele><time>2026-04-06T14:20:40.792Z</time></trkpt><trkpt lat="44.0390768" lon="10.8478811"><ele>735.0</ele><time>2026-04-06T14:20:41.788Z</time></trkpt><trkpt lat="44.0389849" lon="10.8480068"><ele>732.0</ele><time>2026-04-06T14:20:42.787Z</time></trkpt><trkpt lat="44.038897" lon="10.8481522"><ele>729.0</ele><time>2026-04-06T14:20:43.786Z</time></trkpt><trkpt lat="44.0388097" lon="10.8483167"><ele>726.0</ele><time>2026-04-06T14:20:44.787Z</time></trkpt><trkpt lat="44.0387398" lon="10.8484902"><ele>723.0</ele><time>2026-04-06T14:20:45.801Z</time></trkpt><trkpt lat="44.0386573" lon="10.8486633"><ele>723.0</ele><time>2026-04-06T14:20:46.788Z</time></trkpt><trkpt lat="44.0385717" lon="10.8488297"><ele>723.0</ele><time>2026-04-06T14:20:47.79Z</time></trkpt><trkpt lat="44.0384824" lon="10.8489844"><ele>723.0</ele><time>2026-04-06T14:20:48.801Z</time></trkpt><trkpt lat="44.0384043" lon="10.849163"><ele>723.0</ele><time>2026-04-06T14:20:49.787Z</time></trkpt><trkpt lat="44.0383233" lon="10.8493206"><ele>720.5</ele><time>2026-04-06T14:20:50.791Z</time></trkpt><trkpt lat="44.038254" lon="10.849481"><ele>718.0</ele><time>2026-04-06T14:20:51.788Z</time></trkpt><trkpt lat="44.0381772" lon="10.8496317"><ele>715.5</ele><time>2026-04-06T14:20:52.796Z</time></trkpt><trkpt lat="44.0381045" lon="10.8497707"><ele>713.0</ele><time>2026-04-06T14:20:53.789Z</time></trkpt><trkpt lat="44.0380296" lon="10.8499064"><ele>713.0</ele><time>2026-04-06T14:20:54.791Z</time></trkpt><trkpt lat="44.037959" lon="10.8500521"><ele>713.0</ele><time>2026-04-06T14:20:55.793Z</time></trkpt><trkpt lat="44.0378987" lon="10.8502141"><ele>713.0</ele><time>2026-04-06T14:20:56.791Z</time></trkpt><trkpt lat="44.0378453" lon="10.8503767"><ele>713.0</ele><time>2026-04-06T14:20:57.791Z</time></trkpt><trkpt lat="44.0378001" lon="10.8505076"><ele>713.0</ele><time>2026-04-06T14:20:58.787Z</time></trkpt><trkpt lat="44.0377528" lon="10.8506657"><ele>713.0</ele><time>2026-04-06T14:20:59.787Z</time></trkpt><trkpt lat="44.0377089" lon="10.8508363"><ele>713.0</ele><time>2026-04-06T14:21:00.788Z</time></trkpt><trkpt lat="44.0376749" lon="10.8509888"><ele>713.0</ele><time>2026-04-06T14:21:01.79Z</time></trkpt><trkpt lat="44.0376289" lon="10.8511474"><ele>712.8</ele><time>2026-04-06T14:21:02.789Z</time></trkpt><trkpt lat="44.0376087" lon="10.8512835"><ele>712.5999999999999</ele><time>2026-04-06T14:21:03.795Z</time></trkpt><trkpt lat="44.0375757" lon="10.8514325"><ele>712.4000000000001</ele><time>2026-04-06T14:21:04.793Z</time></trkpt><trkpt lat="44.0375756" lon="10.8515459"><ele>712.2</ele><time>2026-04-06T14:21:05.789Z</time></trkpt><trkpt lat="44.0375969" lon="10.8517491"><ele>712.0</ele><time>2026-04-06T14:21:06.79Z</time></trkpt><trkpt lat="44.0376198" lon="10.8519251"><ele>712.0</ele><time>2026-04-06T14:21:07.795Z</time></trkpt><trkpt lat="44.0376504" lon="10.8520799"><ele>712.0</ele><time>2026-04-06T14:21:08.786Z</time></trkpt><trkpt lat="44.0376794" lon="10.8522611"><ele>712.0</ele><time>2026-04-06T14:21:09.786Z</time></trkpt><trkpt lat="44.0377338" lon="10.8524768"><ele>712.0</ele><time>2026-04-06T14:21:10.8Z</time></trkpt><trkpt lat="44.037767" lon="10.8526593"><ele>711.2</ele><time>2026-04-06T14:21:11.79Z</time></trkpt><trkpt lat="44.0377846" lon="10.8528157"><ele>710.4000000000001</ele><time>2026-04-06T14:21:12.793Z</time></trkpt><trkpt lat="44.0377835" lon="10.8529649"><ele>709.5999999999999</ele><time>2026-04-06T14:21:13.788Z</time></trkpt><trkpt lat="44.0377641" lon="10.8531029"><ele>708.8</ele><time>2026-04-06T14:21:14.787Z</time></trkpt><trkpt lat="44.0377285" lon="10.853221"><ele>708.0</ele><time>2026-04-06T14:21:15.789Z</time></trkpt><trkpt lat="44.0376914" lon="10.8533233"><ele>708.0</ele><time>2026-04-06T14:21:16.786Z</time></trkpt><trkpt lat="44.0375857" lon="10.8533915"><ele>708.0</ele><time>2026-04-06T14:21:17.788Z</time></trkpt><trkpt lat="44.0374968" lon="10.8535144"><ele>708.0</ele><time>2026-04-06T14:21:18.788Z</time></trkpt><trkpt lat="44.0374186" lon="10.853634"><ele>708.0</ele><time>2026-04-06T14:21:19.785Z</time></trkpt><trkpt lat="44.0373713" lon="10.8537661"><ele>707.75</ele><time>2026-04-06T14:21:20.788Z</time></trkpt><trkpt lat="44.037345" lon="10.85392"><ele>707.5</ele><time>2026-04-06T14:21:21.798Z</time></trkpt><trkpt lat="44.0374075" lon="10.8541219"><ele>707.25</ele><time>2026-04-06T14:21:22.785Z</time></trkpt><trkpt lat="44.0374689" lon="10.8542798"><ele>707.0</ele><time>2026-04-06T14:21:23.786Z</time></trkpt><trkpt lat="44.0375494" lon="10.8544441"><ele>708.5</ele><time>2026-04-06T14:21:24.794Z</time></trkpt><trkpt lat="44.0376139" lon="10.8546319"><ele>710.0</ele><time>2026-04-06T14:21:25.79Z</time></trkpt><trkpt lat="44.0376936" lon="10.854807"><ele>711.5</ele><time>2026-04-06T14:21:26.794Z</time></trkpt><trkpt lat="44.0377424" lon="10.8549841"><ele>713.0</ele><time>2026-04-06T14:21:27.789Z</time></trkpt><trkpt lat="44.0377524" lon="10.8552133"><ele>713.6666666666666</ele><time>2026-04-06T14:21:28.787Z</time></trkpt><trkpt lat="44.0377917" lon="10.855427"><ele>714.3333333333334</ele><time>2026-04-06T14:21:29.791Z</time></trkpt><trkpt lat="44.0378155" lon="10.8556381"><ele>715.0</ele><time>2026-04-06T14:21:30.791Z</time></trkpt><trkpt lat="44.0378407" lon="10.8558517"><ele>715.0</ele><time>2026-04-06T14:21:31.794Z</time></trkpt><trkpt lat="44.0378458" lon="10.8560736"><ele>715.0</ele><time>2026-04-06T14:21:32.793Z</time></trkpt><trkpt lat="44.0378563" lon="10.8562865"><ele>715.0</ele><time>2026-04-06T14:21:33.79Z</time></trkpt><trkpt lat="44.0378605" lon="10.856507"><ele>715.0</ele><time>2026-04-06T14:21:34.794Z</time></trkpt><trkpt lat="44.0378848" lon="10.8567146"><ele>715.0</ele><time>2026-04-06T14:21:35.789Z</time></trkpt><trkpt lat="44.0379299" lon="10.8568911"><ele>715.0</ele><time>2026-04-06T14:21:36.79Z</time></trkpt><trkpt lat="44.0379705" lon="10.8570413"><ele>715.0</ele><time>2026-04-06T14:21:37.789Z</time></trkpt><trkpt lat="44.0380273" lon="10.8571634"><ele>715.5</ele><time>2026-04-06T14:21:38.79Z</time></trkpt><trkpt lat="44.0381167" lon="10.8572664"><ele>716.0</ele><time>2026-04-06T14:21:39.79Z</time></trkpt><trkpt lat="44.0382578" lon="10.8573683"><ele>716.5</ele><time>2026-04-06T14:21:40.79Z</time></trkpt><trkpt lat="44.0383474" lon="10.8575059"><ele>717.0</ele><time>2026-04-06T14:21:41.789Z</time></trkpt><trkpt lat="44.0384159" lon="10.8576697"><ele>714.75</ele><time>2026-04-06T14:21:42.794Z</time></trkpt><trkpt lat="44.0384576" lon="10.8578581"><ele>712.5</ele><time>2026-04-06T14:21:43.787Z</time></trkpt><trkpt lat="44.0385051" lon="10.8580372"><ele>710.25</ele><time>2026-04-06T14:21:44.784Z</time></trkpt><trkpt lat="44.038559" lon="10.8582282"><ele>708.0</ele><time>2026-04-06T14:21:45.787Z</time></trkpt><trkpt lat="44.0386077" lon="10.8584154"><ele>708.25</ele><time>2026-04-06T14:21:46.786Z</time></trkpt><trkpt lat="44.0386458" lon="10.8586006"><ele>708.5</ele><time>2026-04-06T14:21:47.792Z</time></trkpt><trkpt lat="44.0386711" lon="10.8587973"><ele>708.75</ele><time>2026-04-06T14:21:48.787Z</time></trkpt><trkpt lat="44.0387095" lon="10.8590029"><ele>709.0</ele><time>2026-04-06T14:21:49.788Z</time></trkpt><trkpt lat="44.0387471" lon="10.8592021"><ele>706.0</ele><time>2026-04-06T14:21:50.785Z</time></trkpt><trkpt lat="44.0387973" lon="10.8594171"><ele>703.0</ele><time>2026-04-06T14:21:51.789Z</time></trkpt><trkpt lat="44.038808" lon="10.8596251"><ele>700.0</ele><time>2026-04-06T14:21:52.789Z</time></trkpt><trkpt lat="44.0387927" lon="10.8598251"><ele>700.0</ele><time>2026-04-06T14:21:53.791Z</time></trkpt><trkpt lat="44.0387988" lon="10.8600276"><ele>700.0</ele><time>2026-04-06T14:21:54.786Z</time></trkpt><trkpt lat="44.0388109" lon="10.8602316"><ele>700.0</ele><time>2026-04-06T14:21:55.788Z</time></trkpt><trkpt lat="44.0388384" lon="10.8604306"><ele>700.0</ele><time>2026-04-06T14:21:56.789Z</time></trkpt><trkpt lat="44.0389063" lon="10.8606185"><ele>698.25</ele><time>2026-04-06T14:21:57.787Z</time></trkpt><trkpt lat="44.0389474" lon="10.8607951"><ele>696.5</ele><time>2026-04-06T14:21:58.792Z</time></trkpt><trkpt lat="44.0389367" lon="10.8609802"><ele>694.75</ele><time>2026-04-06T14:21:59.791Z</time></trkpt><trkpt lat="44.0389125" lon="10.8611712"><ele>693.0</ele><time>2026-04-06T14:22:00.788Z</time></trkpt><trkpt lat="44.0388411" lon="10.8613641"><ele>693.0</ele><time>2026-04-06T14:22:01.789Z</time></trkpt><trkpt lat="44.0387594" lon="10.8615484"><ele>693.0</ele><time>2026-04-06T14:22:02.788Z</time></trkpt><trkpt lat="44.0387097" lon="10.8617258"><ele>693.0</ele><time>2026-04-06T14:22:03.791Z</time></trkpt><trkpt lat="44.0386603" lon="10.8619076"><ele>693.0</ele><time>2026-04-06T14:22:04.788Z</time></trkpt><trkpt lat="44.0386528" lon="10.862053"><ele>693.25</ele><time>2026-04-06T14:22:05.786Z</time></trkpt><trkpt lat="44.0386774" lon="10.8622484"><ele>693.5</ele><time>2026-04-06T14:22:06.787Z</time></trkpt><trkpt lat="44.0386957" lon="10.8624324"><ele>693.75</ele><time>2026-04-06T14:22:07.788Z</time></trkpt><trkpt lat="44.0387298" lon="10.8626393"><ele>694.0</ele><time>2026-04-06T14:22:08.791Z</time></trkpt><trkpt lat="44.0387442" lon="10.8628096"><ele>694.5</ele><time>2026-04-06T14:22:09.791Z</time></trkpt><trkpt lat="44.0387422" lon="10.8629601"><ele>695.0</ele><time>2026-04-06T14:22:10.788Z</time></trkpt><trkpt lat="44.0387598" lon="10.8631252"><ele>695.5</ele><time>2026-04-06T14:22:11.798Z</time></trkpt><trkpt lat="44.0387594" lon="10.8633054"><ele>696.0</ele><time>2026-04-06T14:22:12.792Z</time></trkpt><trkpt lat="44.0387523" lon="10.8634551"><ele>696.5</ele><time>2026-04-06T14:22:13.794Z</time></trkpt><trkpt lat="44.0387398" lon="10.8635958"><ele>697.0</ele><time>2026-04-06T14:22:14.797Z</time></trkpt><trkpt lat="44.0387205" lon="10.8637713"><ele>697.5</ele><time>2026-04-06T14:22:15.789Z</time></trkpt><trkpt lat="44.0387004" lon="10.8639277"><ele>698.0</ele><time>2026-04-06T14:22:16.793Z</time></trkpt><trkpt lat="44.0386693" lon="10.8640856"><ele>698.0</ele><time>2026-04-06T14:22:17.792Z</time></trkpt><trkpt lat="44.0386495" lon="10.8642528"><ele>698.0</ele><time>2026-04-06T14:22:18.789Z</time></trkpt><trkpt lat="44.0386408" lon="10.8644064"><ele>698.0</ele><time>2026-04-06T14:22:19.793Z</time></trkpt><trkpt lat="44.0386084" lon="10.8645676"><ele>698.0</ele><time>2026-04-06T14:22:20.789Z</time></trkpt><trkpt lat="44.0386042" lon="10.864707"><ele>698.0</ele><time>2026-04-06T14:22:21.793Z</time></trkpt><trkpt lat="44.0386083" lon="10.8648738"><ele>698.0</ele><time>2026-04-06T14:22:22.788Z</time></trkpt><trkpt lat="44.0385997" lon="10.8650288"><ele>698.0</ele><time>2026-04-06T14:22:23.79Z</time></trkpt><trkpt lat="44.0385557" lon="10.8651906"><ele>698.0</ele><time>2026-04-06T14:22:24.79Z</time></trkpt><trkpt lat="44.0385272" lon="10.865364"><ele>698.0</ele><time>2026-04-06T14:22:25.791Z</time></trkpt><trkpt lat="44.0384872" lon="10.8655549"><ele>698.0</ele><time>2026-04-06T14:22:26.794Z</time></trkpt><trkpt lat="44.0384689" lon="10.8657414"><ele>698.0</ele><time>2026-04-06T14:22:27.788Z</time></trkpt><trkpt lat="44.0384429" lon="10.8659225"><ele>698.0</ele><time>2026-04-06T14:22:28.792Z</time></trkpt><trkpt lat="44.0384179" lon="10.8661104"><ele>698.25</ele><time>2026-04-06T14:22:29.798Z</time></trkpt><trkpt lat="44.038397" lon="10.8662836"><ele>698.5</ele><time>2026-04-06T14:22:30.796Z</time></trkpt><trkpt lat="44.0383793" lon="10.866451"><ele>698.75</ele><time>2026-04-06T14:22:31.793Z</time></trkpt><trkpt lat="44.0383627" lon="10.8666043"><ele>699.0</ele><time>2026-04-06T14:22:32.785Z</time></trkpt><trkpt lat="44.0383415" lon="10.8667673"><ele>699.0</ele><time>2026-04-06T14:22:33.797Z</time></trkpt><trkpt lat="44.0383078" lon="10.8669256"><ele>699.0</ele><time>2026-04-06T14:22:34.79Z</time></trkpt><trkpt lat="44.0382866" lon="10.8670713"><ele>699.0</ele><time>2026-04-06T14:22:35.791Z</time></trkpt><trkpt lat="44.0382768" lon="10.8672212"><ele>699.0</ele><time>2026-04-06T14:22:36.793Z</time></trkpt><trkpt lat="44.0382511" lon="10.8673682"><ele>699.0</ele><time>2026-04-06T14:22:37.789Z</time></trkpt><trkpt lat="44.0382317" lon="10.8675079"><ele>697.2</ele><time>2026-04-06T14:22:38.793Z</time></trkpt><trkpt lat="44.0382185" lon="10.8676631"><ele>695.4000000000001</ele><time>2026-04-06T14:22:39.792Z</time></trkpt><trkpt lat="44.0382005" lon="10.8678085"><ele>693.6</ele><time>2026-04-06T14:22:40.789Z</time></trkpt><trkpt lat="44.0381824" lon="10.8679523"><ele>691.8</ele><time>2026-04-06T14:22:41.79Z</time></trkpt><trkpt lat="44.0381689" lon="10.8681057"><ele>690.0</ele><time>2026-04-06T14:22:42.791Z</time></trkpt><trkpt lat="44.0381575" lon="10.8682519"><ele>690.0</ele><time>2026-04-06T14:22:43.791Z</time></trkpt><trkpt lat="44.038143" lon="10.868405"><ele>690.0</ele><time>2026-04-06T14:22:44.791Z</time></trkpt><trkpt lat="44.0381116" lon="10.8685788"><ele>690.0</ele><time>2026-04-06T14:22:45.79Z</time></trkpt><trkpt lat="44.0380946" lon="10.8687423"><ele>690.0</ele><time>2026-04-06T14:22:46.789Z</time></trkpt><trkpt lat="44.0380832" lon="10.8689127"><ele>689.0</ele><time>2026-04-06T14:22:47.788Z</time></trkpt><trkpt lat="44.0380702" lon="10.869079"><ele>688.0</ele><time>2026-04-06T14:22:48.792Z</time></trkpt><trkpt lat="44.0380592" lon="10.8692506"><ele>687.0</ele><time>2026-04-06T14:22:49.792Z</time></trkpt><trkpt lat="44.0380735" lon="10.8694401"><ele>686.0</ele><time>2026-04-06T14:22:50.79Z</time></trkpt><trkpt lat="44.038111" lon="10.8696491"><ele>685.0</ele><time>2026-04-06T14:22:51.79Z</time></trkpt><trkpt lat="44.0381366" lon="10.8698704"><ele>684.0</ele><time>2026-04-06T14:22:52.791Z</time></trkpt><trkpt lat="44.0381234" lon="10.8700847"><ele>683.0</ele><time>2026-04-06T14:22:53.799Z</time></trkpt><trkpt lat="44.0381102" lon="10.8702852"><ele>682.0</ele><time>2026-04-06T14:22:54.786Z</time></trkpt><trkpt lat="44.0380957" lon="10.8704869"><ele>681.0</ele><time>2026-04-06T14:22:55.787Z</time></trkpt><trkpt lat="44.0380811" lon="10.870664"><ele>680.0</ele><time>2026-04-06T14:22:56.788Z</time></trkpt><trkpt lat="44.038059" lon="10.8708503"><ele>679.0</ele><time>2026-04-06T14:22:57.791Z</time></trkpt><trkpt lat="44.038027" lon="10.8710428"><ele>678.75</ele><time>2026-04-06T14:22:58.788Z</time></trkpt><trkpt lat="44.0380057" lon="10.871231"><ele>678.5</ele><time>2026-04-06T14:22:59.789Z</time></trkpt><trkpt lat="44.0379854" lon="10.8714223"><ele>678.25</ele><time>2026-04-06T14:23:00.787Z</time></trkpt><trkpt lat="44.0379739" lon="10.8716029"><ele>678.0</ele><time>2026-04-06T14:23:01.788Z</time></trkpt><trkpt lat="44.0379556" lon="10.8717866"><ele>678.0</ele><time>2026-04-06T14:23:02.793Z</time></trkpt><trkpt lat="44.0379385" lon="10.8719599"><ele>678.0</ele><time>2026-04-06T14:23:03.788Z</time></trkpt><trkpt lat="44.0379138" lon="10.8721425"><ele>678.0</ele><time>2026-04-06T14:23:04.788Z</time></trkpt><trkpt lat="44.0379018" lon="10.8723125"><ele>678.0</ele><time>2026-04-06T14:23:05.793Z</time></trkpt><trkpt lat="44.0379008" lon="10.8724954"><ele>677.5</ele><time>2026-04-06T14:23:06.793Z</time></trkpt><trkpt lat="44.0378926" lon="10.8726763"><ele>677.0</ele><time>2026-04-06T14:23:07.79Z</time></trkpt><trkpt lat="44.037878" lon="10.8728603"><ele>676.5</ele><time>2026-04-06T14:23:08.787Z</time></trkpt><trkpt lat="44.0378697" lon="10.8730447"><ele>676.0</ele><time>2026-04-06T14:23:09.79Z</time></trkpt><trkpt lat="44.0378771" lon="10.8732179"><ele>676.0</ele><time>2026-04-06T14:23:10.795Z</time></trkpt><trkpt lat="44.0378826" lon="10.87341"><ele>676.0</ele><time>2026-04-06T14:23:11.792Z</time></trkpt><trkpt lat="44.0378779" lon="10.8736076"><ele>676.0</ele><time>2026-04-06T14:23:12.791Z</time></trkpt><trkpt lat="44.0378839" lon="10.8738024"><ele>676.0</ele><time>2026-04-06T14:23:13.794Z</time></trkpt><trkpt lat="44.0378899" lon="10.8739919"><ele>675.75</ele><time>2026-04-06T14:23:14.789Z</time></trkpt><trkpt lat="44.0378943" lon="10.8741685"><ele>675.5</ele><time>2026-04-06T14:23:15.794Z</time></trkpt><trkpt lat="44.0379214" lon="10.874347"><ele>675.25</ele><time>2026-04-06T14:23:16.792Z</time></trkpt><trkpt lat="44.0379495" lon="10.8745111"><ele>675.0</ele><time>2026-04-06T14:23:17.789Z</time></trkpt><trkpt lat="44.0379994" lon="10.8746437"><ele>674.75</ele><time>2026-04-06T14:23:18.79Z</time></trkpt><trkpt lat="44.0380693" lon="10.8747257"><ele>674.5</ele><time>2026-04-06T14:23:19.79Z</time></trkpt><trkpt lat="44.0382145" lon="10.8748149"><ele>674.25</ele><time>2026-04-06T14:23:20.792Z</time></trkpt><trkpt lat="44.0383104" lon="10.8749035"><ele>674.0</ele><time>2026-04-06T14:23:21.79Z</time></trkpt><trkpt lat="44.038425" lon="10.8750363"><ele>673.25</ele><time>2026-04-06T14:23:22.788Z</time></trkpt><trkpt lat="44.0384902" lon="10.8751743"><ele>672.5</ele><time>2026-04-06T14:23:23.793Z</time></trkpt><trkpt lat="44.0385303" lon="10.8753273"><ele>671.75</ele><time>2026-04-06T14:23:24.786Z</time></trkpt><trkpt lat="44.0385488" lon="10.8754848"><ele>671.0</ele><time>2026-04-06T14:23:25.792Z</time></trkpt><trkpt lat="44.0385179" lon="10.8756475"><ele>671.0</ele><time>2026-04-06T14:23:26.794Z</time></trkpt><trkpt lat="44.0384967" lon="10.875772"><ele>671.0</ele><time>2026-04-06T14:23:27.792Z</time></trkpt><trkpt lat="44.0384369" lon="10.8758958"><ele>671.0</ele><time>2026-04-06T14:23:28.786Z</time></trkpt><trkpt lat="44.0383793" lon="10.8760151"><ele>671.0</ele><time>2026-04-06T14:23:29.807Z</time></trkpt><trkpt lat="44.038272" lon="10.8761169"><ele>671.0</ele><time>2026-04-06T14:23:30.793Z</time></trkpt><trkpt lat="44.0381891" lon="10.8762102"><ele>677.75</ele><time>2026-04-06T14:23:31.793Z</time></trkpt><trkpt lat="44.0380922" lon="10.8763143"><ele>684.5</ele><time>2026-04-06T14:23:32.791Z</time></trkpt><trkpt lat="44.0380322" lon="10.8764491"><ele>691.25</ele><time>2026-04-06T14:23:33.789Z</time></trkpt><trkpt lat="44.0379975" lon="10.8765829"><ele>698.0</ele><time>2026-04-06T14:23:34.789Z</time></trkpt><trkpt lat="44.0379809" lon="10.8767439"><ele>697.6666666666666</ele><time>2026-04-06T14:23:35.801Z</time></trkpt><trkpt lat="44.0379691" lon="10.8769827"><ele>697.3333333333334</ele><time>2026-04-06T14:23:36.795Z</time></trkpt><trkpt lat="44.0379694" lon="10.8772264"><ele>697.0</ele><time>2026-04-06T14:23:37.789Z</time></trkpt><trkpt lat="44.037946" lon="10.877478"><ele>696.6666666666667</ele><time>2026-04-06T14:23:38.793Z</time></trkpt><trkpt lat="44.0379166" lon="10.877708"><ele>696.3333333333334</ele><time>2026-04-06T14:23:39.793Z</time></trkpt><trkpt lat="44.0378746" lon="10.8779335"><ele>696.0</ele><time>2026-04-06T14:23:40.789Z</time></trkpt><trkpt lat="44.03786" lon="10.8781499"><ele>696.0</ele><time>2026-04-06T14:23:41.793Z</time></trkpt><trkpt lat="44.0378359" lon="10.8783641"><ele>696.0</ele><time>2026-04-06T14:23:42.794Z</time></trkpt><trkpt lat="44.0378415" lon="10.8785613"><ele>696.0</ele><time>2026-04-06T14:23:43.795Z</time></trkpt><trkpt lat="44.0378343" lon="10.8787471"><ele>696.0</ele><time>2026-04-06T14:23:44.789Z</time></trkpt><trkpt lat="44.037817" lon="10.8789421"><ele>695.25</ele><time>2026-04-06T14:23:45.789Z</time></trkpt><trkpt lat="44.0378028" lon="10.8791453"><ele>694.5</ele><time>2026-04-06T14:23:46.789Z</time></trkpt><trkpt lat="44.037774" lon="10.8793463"><ele>693.75</ele><time>2026-04-06T14:23:47.792Z</time></trkpt><trkpt lat="44.0377974" lon="10.8795191"><ele>693.0</ele><time>2026-04-06T14:23:48.791Z</time></trkpt><trkpt lat="44.0378175" lon="10.8797062"><ele>689.75</ele><time>2026-04-06T14:23:49.788Z</time></trkpt><trkpt lat="44.037836" lon="10.8798901"><ele>686.5</ele><time>2026-04-06T14:23:50.799Z</time></trkpt><trkpt lat="44.0378716" lon="10.8800813"><ele>683.25</ele><time>2026-04-06T14:23:51.79Z</time></trkpt><trkpt lat="44.0378681" lon="10.880259"><ele>680.0</ele><time>2026-04-06T14:23:52.788Z</time></trkpt><trkpt lat="44.037884" lon="10.8804244"><ele>679.75</ele><time>2026-04-06T14:23:53.79Z</time></trkpt><trkpt lat="44.0378948" lon="10.8805909"><ele>679.5</ele><time>2026-04-06T14:23:54.787Z</time></trkpt><trkpt lat="44.0379218" lon="10.8807584"><ele>679.25</ele><time>2026-04-06T14:23:55.79Z</time></trkpt><trkpt lat="44.037939" lon="10.8809297"><ele>679.0</ele><time>2026-04-06T14:23:56.789Z</time></trkpt><trkpt lat="44.0379587" lon="10.8810883"><ele>678.6</ele><time>2026-04-06T14:23:57.794Z</time></trkpt><trkpt lat="44.0379646" lon="10.8812338"><ele>678.2</ele><time>2026-04-06T14:23:58.788Z</time></trkpt><trkpt lat="44.037987" lon="10.8813702"><ele>677.8000000000001</ele><time>2026-04-06T14:23:59.79Z</time></trkpt><trkpt lat="44.0379984" lon="10.8815029"><ele>677.4000000000001</ele><time>2026-04-06T14:24:00.788Z</time></trkpt><trkpt lat="44.0380075" lon="10.8816085"><ele>677.0</ele><time>2026-04-06T14:24:01.788Z</time></trkpt><trkpt lat="44.0380106" lon="10.8817195"><ele>675.1666666666666</ele><time>2026-04-06T14:24:02.789Z</time></trkpt><trkpt lat="44.0380248" lon="10.8818399"><ele>673.3333333333333</ele><time>2026-04-06T14:24:03.789Z</time></trkpt><trkpt lat="44.0380351" lon="10.8819507"><ele>671.5</ele><time>2026-04-06T14:24:04.79Z</time></trkpt><trkpt lat="44.0380479" lon="10.8820749"><ele>669.6666666666666</ele><time>2026-04-06T14:24:05.8Z</time></trkpt><trkpt lat="44.0380548" lon="10.8821926"><ele>667.8333333333334</ele><time>2026-04-06T14:24:06.789Z</time></trkpt><trkpt lat="44.0380617" lon="10.882306"><ele>666.0</ele><time>2026-04-06T14:24:07.791Z</time></trkpt><trkpt lat="44.038061" lon="10.882397"><ele>666.0</ele><time>2026-04-06T14:24:08.789Z</time></trkpt><trkpt lat="44.0380831" lon="10.8825535"><ele>666.0</ele><time>2026-04-06T14:24:10.787Z</time></trkpt><trkpt lat="44.0380809" lon="10.8826758"><ele>666.0</ele><time>2026-04-06T14:24:13.794Z</time></trkpt><trkpt lat="44.0380705" lon="10.882778"><ele>666.0</ele><time>2026-04-06T14:24:16.785Z</time></trkpt><trkpt lat="44.0381316" lon="10.882858"><ele>666.0</ele><time>2026-04-06T14:24:19.789Z</time></trkpt><trkpt lat="44.0381853" lon="10.8829103"><ele>666.0</ele><time>2026-04-06T14:24:21.783Z</time></trkpt><trkpt lat="44.0382411" lon="10.8829807"><ele>664.6666666666666</ele><time>2026-04-06T14:24:23.782Z</time></trkpt><trkpt lat="44.0383892" lon="10.8831653"><ele>663.3333333333333</ele><time>2026-04-06T14:24:26.786Z</time></trkpt><trkpt lat="44.0384862" lon="10.8833477"><ele>662.0</ele><time>2026-04-06T14:24:28.786Z</time></trkpt><trkpt lat="44.0385825" lon="10.8834675"><ele>661.5</ele><time>2026-04-06T14:24:29.786Z</time></trkpt><trkpt lat="44.0386618" lon="10.883586"><ele>661.0</ele><time>2026-04-06T14:24:30.788Z</time></trkpt><trkpt lat="44.0387463" lon="10.8837201"><ele>660.5</ele><time>2026-04-06T14:24:31.786Z</time></trkpt><trkpt lat="44.0388232" lon="10.883832"><ele>660.0</ele><time>2026-04-06T14:24:32.79Z</time></trkpt><trkpt lat="44.0389135" lon="10.883941"><ele>660.0</ele><time>2026-04-06T14:24:33.789Z</time></trkpt><trkpt lat="44.0390111" lon="10.8840632"><ele>660.0</ele><time>2026-04-06T14:24:34.796Z</time></trkpt><trkpt lat="44.0391014" lon="10.8841774"><ele>660.0</ele><time>2026-04-06T14:24:35.803Z</time></trkpt><trkpt lat="44.0391769" lon="10.8843036"><ele>660.0</ele><time>2026-04-06T14:24:36.785Z</time></trkpt><trkpt lat="44.0392656" lon="10.8844167"><ele>659.8</ele><time>2026-04-06T14:24:37.786Z</time></trkpt><trkpt lat="44.0393241" lon="10.8845388"><ele>659.6</ele><time>2026-04-06T14:24:38.793Z</time></trkpt><trkpt lat="44.0393929" lon="10.8845861"><ele>659.4000000000001</ele><time>2026-04-06T14:24:39.789Z</time></trkpt><trkpt lat="44.0394768" lon="10.884634"><ele>659.2</ele><time>2026-04-06T14:24:40.789Z</time></trkpt><trkpt lat="44.0395476" lon="10.884682"><ele>659.0</ele><time>2026-04-06T14:24:41.788Z</time></trkpt><trkpt lat="44.0396693" lon="10.8847179"><ele>659.0</ele><time>2026-04-06T14:24:42.793Z</time></trkpt><trkpt lat="44.0397517" lon="10.8847096"><ele>659.0</ele><time>2026-04-06T14:24:43.79Z</time></trkpt><trkpt lat="44.0398583" lon="10.8846856"><ele>659.0</ele><time>2026-04-06T14:24:44.789Z</time></trkpt><trkpt lat="44.0399557" lon="10.8846484"><ele>659.0</ele><time>2026-04-06T14:24:45.789Z</time></trkpt><trkpt lat="44.0400442" lon="10.8846345"><ele>659.0</ele><time>2026-04-06T14:24:46.786Z</time></trkpt><trkpt lat="44.0401169" lon="10.8846421"><ele>658.75</ele><time>2026-04-06T14:24:47.787Z</time></trkpt><trkpt lat="44.0402016" lon="10.884659"><ele>658.5</ele><time>2026-04-06T14:24:48.787Z</time></trkpt><trkpt lat="44.04029" lon="10.8847879"><ele>658.25</ele><time>2026-04-06T14:24:50.79Z</time></trkpt><trkpt lat="44.0402499" lon="10.8850178"><ele>658.0</ele><time>2026-04-06T14:24:51.788Z</time></trkpt><trkpt lat="44.0402746" lon="10.8852026"><ele>658.0</ele><time>2026-04-06T14:24:52.789Z</time></trkpt><trkpt lat="44.0403045" lon="10.8853903"><ele>658.0</ele><time>2026-04-06T14:24:53.793Z</time></trkpt><trkpt lat="44.0403292" lon="10.8855516"><ele>658.0</ele><time>2026-04-06T14:24:54.788Z</time></trkpt><trkpt lat="44.0403929" lon="10.8857023"><ele>658.0</ele><time>2026-04-06T14:24:55.785Z</time></trkpt><trkpt lat="44.040467" lon="10.8858162"><ele>658.0</ele><time>2026-04-06T14:24:56.787Z</time></trkpt><trkpt lat="44.0405297" lon="10.8859135"><ele>658.0</ele><time>2026-04-06T14:24:57.786Z</time></trkpt><trkpt lat="44.0406422" lon="10.8860122"><ele>658.0</ele><time>2026-04-06T14:24:58.79Z</time></trkpt><trkpt lat="44.0407661" lon="10.8860118"><ele>658.0</ele><time>2026-04-06T14:24:59.795Z</time></trkpt><trkpt lat="44.0409391" lon="10.8860911"><ele>659.6666666666667</ele><time>2026-04-06T14:25:00.787Z</time></trkpt><trkpt lat="44.0410697" lon="10.8861197"><ele>661.3333333333334</ele><time>2026-04-06T14:25:01.785Z</time></trkpt><trkpt lat="44.0411982" lon="10.8861608"><ele>663.0</ele><time>2026-04-06T14:25:02.787Z</time></trkpt><trkpt lat="44.0413916" lon="10.8862933"><ele>663.0</ele><time>2026-04-06T14:25:03.793Z</time></trkpt><trkpt lat="44.0415613" lon="10.8864573"><ele>663.0</ele><time>2026-04-06T14:25:04.792Z</time></trkpt><trkpt lat="44.0416948" lon="10.8866775"><ele>663.0</ele><time>2026-04-06T14:25:05.787Z</time></trkpt><trkpt lat="44.0418043" lon="10.8868656"><ele>660.6666666666666</ele><time>2026-04-06T14:25:06.786Z</time></trkpt><trkpt lat="44.0419523" lon="10.8870781"><ele>658.3333333333333</ele><time>2026-04-06T14:25:07.786Z</time></trkpt><trkpt lat="44.0420737" lon="10.8872809"><ele>656.0</ele><time>2026-04-06T14:25:08.787Z</time></trkpt><trkpt lat="44.0422129" lon="10.8875392"><ele>655.0</ele><time>2026-04-06T14:25:09.788Z</time></trkpt><trkpt lat="44.0423445" lon="10.8878076"><ele>654.0</ele><time>2026-04-06T14:25:10.789Z</time></trkpt><trkpt lat="44.0424667" lon="10.888062"><ele>654.0</ele><time>2026-04-06T14:25:11.785Z</time></trkpt><trkpt lat="44.0425743" lon="10.8882828"><ele>654.0</ele><time>2026-04-06T14:25:12.787Z</time></trkpt><trkpt lat="44.0426707" lon="10.888509"><ele>654.0</ele><time>2026-04-06T14:25:13.792Z</time></trkpt><trkpt lat="44.0427605" lon="10.8887516"><ele>653.3333333333334</ele><time>2026-04-06T14:25:14.791Z</time></trkpt><trkpt lat="44.042838" lon="10.8890391"><ele>652.6666666666667</ele><time>2026-04-06T14:25:15.789Z</time></trkpt><trkpt lat="44.0428888" lon="10.8893131"><ele>652.0</ele><time>2026-04-06T14:25:16.793Z</time></trkpt><trkpt lat="44.0429068" lon="10.8895593"><ele>652.0</ele><time>2026-04-06T14:25:17.788Z</time></trkpt><trkpt lat="44.0429378" lon="10.889821"><ele>652.0</ele><time>2026-04-06T14:25:18.791Z</time></trkpt><trkpt lat="44.0429162" lon="10.8900693"><ele>652.0</ele><time>2026-04-06T14:25:19.785Z</time></trkpt><trkpt lat="44.042857" lon="10.890273"><ele>654.0</ele><time>2026-04-06T14:25:20.785Z</time></trkpt><trkpt lat="44.0428036" lon="10.8904669"><ele>656.0</ele><time>2026-04-06T14:25:21.788Z</time></trkpt><trkpt lat="44.0427473" lon="10.8906402"><ele>658.0</ele><time>2026-04-06T14:25:22.789Z</time></trkpt><trkpt lat="44.0426264" lon="10.8908288"><ele>658.75</ele><time>2026-04-06T14:25:23.802Z</time></trkpt><trkpt lat="44.0425355" lon="10.8909993"><ele>659.5</ele><time>2026-04-06T14:25:24.785Z</time></trkpt><trkpt lat="44.0424428" lon="10.8911765"><ele>660.25</ele><time>2026-04-06T14:25:25.789Z</time></trkpt><trkpt lat="44.0423899" lon="10.8913208"><ele>661.0</ele><time>2026-04-06T14:25:26.789Z</time></trkpt><trkpt lat="44.0423768" lon="10.8914457"><ele>658.25</ele><time>2026-04-06T14:25:27.786Z</time></trkpt><trkpt lat="44.0424108" lon="10.8916068"><ele>655.5</ele><time>2026-04-06T14:25:28.785Z</time></trkpt><trkpt lat="44.0424294" lon="10.8917434"><ele>652.75</ele><time>2026-04-06T14:25:29.787Z</time></trkpt><trkpt lat="44.0425383" lon="10.8919234"><ele>650.0</ele><time>2026-04-06T14:25:30.79Z</time></trkpt><trkpt lat="44.04266" lon="10.8921033"><ele>650.0</ele><time>2026-04-06T14:25:31.8Z</time></trkpt><trkpt lat="44.0429197" lon="10.8923661"><ele>650.0</ele><time>2026-04-06T14:25:32.787Z</time></trkpt><trkpt lat="44.0430605" lon="10.8925893"><ele>650.6666666666666</ele><time>2026-04-06T14:25:33.791Z</time></trkpt><trkpt lat="44.0431943" lon="10.8928054"><ele>651.3333333333334</ele><time>2026-04-06T14:25:34.788Z</time></trkpt><trkpt lat="44.0433176" lon="10.8930374"><ele>652.0</ele><time>2026-04-06T14:25:35.786Z</time></trkpt><trkpt lat="44.0434455" lon="10.8932773"><ele>650.5</ele><time>2026-04-06T14:25:36.789Z</time></trkpt><trkpt lat="44.0436166" lon="10.8934573"><ele>649.0</ele><time>2026-04-06T14:25:37.789Z</time></trkpt><trkpt lat="44.0438033" lon="10.8936561"><ele>649.0</ele><time>2026-04-06T14:25:38.788Z</time></trkpt><trkpt lat="44.0439945" lon="10.8938407"><ele>649.0</ele><time>2026-04-06T14:25:39.786Z</time></trkpt><trkpt lat="44.0441535" lon="10.8940447"><ele>649.0</ele><time>2026-04-06T14:25:40.786Z</time></trkpt><trkpt lat="44.0443396" lon="10.894282"><ele>648.3333333333334</ele><time>2026-04-06T14:25:41.787Z</time></trkpt><trkpt lat="44.0444795" lon="10.8944869"><ele>647.6666666666666</ele><time>2026-04-06T14:25:42.784Z</time></trkpt><trkpt lat="44.0446151" lon="10.8947034"><ele>647.0</ele><time>2026-04-06T14:25:43.793Z</time></trkpt><trkpt lat="44.0447004" lon="10.8948949"><ele>655.6666666666666</ele><time>2026-04-06T14:25:44.786Z</time></trkpt><trkpt lat="44.0448216" lon="10.8951135"><ele>664.3333333333334</ele><time>2026-04-06T14:25:45.786Z</time></trkpt><trkpt lat="44.0448663" lon="10.8952976"><ele>673.0</ele><time>2026-04-06T14:25:46.793Z</time></trkpt><trkpt lat="44.0449575" lon="10.895469"><ele>669.6666666666667</ele><time>2026-04-06T14:25:47.787Z</time></trkpt><trkpt lat="44.0450433" lon="10.8956398"><ele>666.3333333333334</ele><time>2026-04-06T14:25:48.788Z</time></trkpt><trkpt lat="44.0451563" lon="10.8958323"><ele>663.0</ele><time>2026-04-06T14:25:49.793Z</time></trkpt><trkpt lat="44.0452719" lon="10.8960097"><ele>663.0</ele><time>2026-04-06T14:25:50.788Z</time></trkpt><trkpt lat="44.0454946" lon="10.8961461"><ele>663.0</ele><time>2026-04-06T14:25:51.788Z</time></trkpt><trkpt lat="44.0456506" lon="10.8962912"><ele>663.0</ele><time>2026-04-06T14:25:52.79Z</time></trkpt><trkpt lat="44.0457929" lon="10.8964427"><ele>658.3333333333334</ele><time>2026-04-06T14:25:53.786Z</time></trkpt><trkpt lat="44.0459399" lon="10.8966053"><ele>653.6666666666667</ele><time>2026-04-06T14:25:54.786Z</time></trkpt><trkpt lat="44.0460766" lon="10.8967769"><ele>649.0</ele><time>2026-04-06T14:25:55.786Z</time></trkpt><trkpt lat="44.0461814" lon="10.8969607"><ele>646.6666666666667</ele><time>2026-04-06T14:25:56.789Z</time></trkpt><trkpt lat="44.0462946" lon="10.8971809"><ele>644.3333333333334</ele><time>2026-04-06T14:25:57.793Z</time></trkpt><trkpt lat="44.0463831" lon="10.8974091"><ele>642.0</ele><time>2026-04-06T14:25:58.793Z</time></trkpt><trkpt lat="44.0463924" lon="10.8976433"><ele>642.0</ele><time>2026-04-06T14:25:59.787Z</time></trkpt><trkpt lat="44.0463991" lon="10.897883"><ele>642.0</ele><time>2026-04-06T14:26:00.786Z</time></trkpt><trkpt lat="44.0464044" lon="10.8981373"><ele>642.0</ele><time>2026-04-06T14:26:01.795Z</time></trkpt><trkpt lat="44.0464086" lon="10.8983512"><ele>644.0</ele><time>2026-04-06T14:26:02.787Z</time></trkpt><trkpt lat="44.046406" lon="10.8986249"><ele>646.0</ele><time>2026-04-06T14:26:03.789Z</time></trkpt><trkpt lat="44.0463868" lon="10.8988388"><ele>648.0</ele><time>2026-04-06T14:26:04.786Z</time></trkpt><trkpt lat="44.0463665" lon="10.8990787"><ele>651.3333333333334</ele><time>2026-04-06T14:26:05.788Z</time></trkpt><trkpt lat="44.046368" lon="10.8993066"><ele>654.6666666666667</ele><time>2026-04-06T14:26:06.786Z</time></trkpt><trkpt lat="44.0463713" lon="10.8994854"><ele>658.0</ele><time>2026-04-06T14:26:07.786Z</time></trkpt><trkpt lat="44.0464442" lon="10.8996923"><ele>658.0</ele><time>2026-04-06T14:26:08.785Z</time></trkpt><trkpt lat="44.0465231" lon="10.899844"><ele>658.0</ele><time>2026-04-06T14:26:09.793Z</time></trkpt><trkpt lat="44.0466238" lon="10.8999735"><ele>658.0</ele><time>2026-04-06T14:26:10.786Z</time></trkpt><trkpt lat="44.0467169" lon="10.9000918"><ele>658.0</ele><time>2026-04-06T14:26:11.796Z</time></trkpt><trkpt lat="44.0468689" lon="10.9001835"><ele>655.3333333333334</ele><time>2026-04-06T14:26:12.782Z</time></trkpt><trkpt lat="44.0470305" lon="10.9002788"><ele>652.6666666666666</ele><time>2026-04-06T14:26:13.805Z</time></trkpt><trkpt lat="44.0472423" lon="10.9003318"><ele>650.0</ele><time>2026-04-06T14:26:14.784Z</time></trkpt><trkpt lat="44.0474194" lon="10.900391"><ele>645.3333333333333</ele><time>2026-04-06T14:26:15.788Z</time></trkpt><trkpt lat="44.0476283" lon="10.9004595"><ele>640.6666666666666</ele><time>2026-04-06T14:26:16.782Z</time></trkpt><trkpt lat="44.0478119" lon="10.9005594"><ele>636.0</ele><time>2026-04-06T14:26:17.788Z</time></trkpt><trkpt lat="44.048045" lon="10.9006189"><ele>636.0</ele><time>2026-04-06T14:26:18.782Z</time></trkpt><trkpt lat="44.048242" lon="10.9007099"><ele>636.0</ele><time>2026-04-06T14:26:19.785Z</time></trkpt><trkpt lat="44.048453" lon="10.9007705"><ele>636.0</ele><time>2026-04-06T14:26:20.784Z</time></trkpt><trkpt lat="44.0486501" lon="10.9008221"><ele>636.25</ele><time>2026-04-06T14:26:21.788Z</time></trkpt><trkpt lat="44.0487928" lon="10.9009415"><ele>636.5</ele><time>2026-04-06T14:26:22.786Z</time></trkpt><trkpt lat="44.0488951" lon="10.9010455"><ele>636.75</ele><time>2026-04-06T14:26:23.784Z</time></trkpt><trkpt lat="44.0490133" lon="10.9011649"><ele>637.0</ele><time>2026-04-06T14:26:24.786Z</time></trkpt><trkpt lat="44.0491466" lon="10.9012562"><ele>634.3333333333334</ele><time>2026-04-06T14:26:25.784Z</time></trkpt><trkpt lat="44.049249" lon="10.9013919"><ele>631.6666666666666</ele><time>2026-04-06T14:26:26.789Z</time></trkpt><trkpt lat="44.0493541" lon="10.9015393"><ele>629.0</ele><time>2026-04-06T14:26:27.787Z</time></trkpt><trkpt lat="44.0494898" lon="10.9017173"><ele>632.0</ele><time>2026-04-06T14:26:28.788Z</time></trkpt><trkpt lat="44.0496285" lon="10.9018803"><ele>635.0</ele><time>2026-04-06T14:26:29.786Z</time></trkpt><trkpt lat="44.0497604" lon="10.9020808"><ele>638.0</ele><time>2026-04-06T14:26:30.786Z</time></trkpt><trkpt lat="44.0498982" lon="10.902265"><ele>636.6666666666666</ele><time>2026-04-06T14:26:31.795Z</time></trkpt><trkpt lat="44.0500196" lon="10.9024465"><ele>635.3333333333334</ele><time>2026-04-06T14:26:32.786Z</time></trkpt><trkpt lat="44.0501311" lon="10.9026559"><ele>634.0</ele><time>2026-04-06T14:26:33.787Z</time></trkpt><trkpt lat="44.0502262" lon="10.9028534"><ele>634.0</ele><time>2026-04-06T14:26:34.79Z</time></trkpt><trkpt lat="44.0503172" lon="10.9030377"><ele>634.0</ele><time>2026-04-06T14:26:35.785Z</time></trkpt><trkpt lat="44.0504178" lon="10.9032321"><ele>634.0</ele><time>2026-04-06T14:26:36.785Z</time></trkpt><trkpt lat="44.0505079" lon="10.9033722"><ele>634.5</ele><time>2026-04-06T14:26:37.788Z</time></trkpt><trkpt lat="44.0505967" lon="10.9034652"><ele>635.0</ele><time>2026-04-06T14:26:38.787Z</time></trkpt><trkpt lat="44.0507084" lon="10.9035287"><ele>635.5</ele><time>2026-04-06T14:26:39.785Z</time></trkpt><trkpt lat="44.0508262" lon="10.9035713"><ele>636.0</ele><time>2026-04-06T14:26:40.786Z</time></trkpt><trkpt lat="44.0509523" lon="10.9036688"><ele>636.0</ele><time>2026-04-06T14:26:41.796Z</time></trkpt><trkpt lat="44.0512046" lon="10.9037872"><ele>636.0</ele><time>2026-04-06T14:26:42.79Z</time></trkpt><trkpt lat="44.051447" lon="10.9038834"><ele>632.6666666666666</ele><time>2026-04-06T14:26:43.786Z</time></trkpt><trkpt lat="44.0516414" lon="10.9039576"><ele>629.3333333333333</ele><time>2026-04-06T14:26:44.79Z</time></trkpt><trkpt lat="44.0518321" lon="10.904026"><ele>626.0</ele><time>2026-04-06T14:26:45.788Z</time></trkpt><trkpt lat="44.0520365" lon="10.9040847"><ele>626.0</ele><time>2026-04-06T14:26:46.802Z</time></trkpt><trkpt lat="44.0523047" lon="10.9041337"><ele>626.0</ele><time>2026-04-06T14:26:47.785Z</time></trkpt><trkpt lat="44.0525381" lon="10.9041742"><ele>626.0</ele><time>2026-04-06T14:26:48.785Z</time></trkpt><trkpt lat="44.0527282" lon="10.9042112"><ele>626.0</ele><time>2026-04-06T14:26:49.787Z</time></trkpt><trkpt lat="44.0529145" lon="10.9042611"><ele>626.0</ele><time>2026-04-06T14:26:50.791Z</time></trkpt><trkpt lat="44.0530899" lon="10.9043454"><ele>626.0</ele><time>2026-04-06T14:26:51.795Z</time></trkpt><trkpt lat="44.0532809" lon="10.9044345"><ele>626.0</ele><time>2026-04-06T14:26:52.788Z</time></trkpt><trkpt lat="44.0534552" lon="10.9045095"><ele>626.0</ele><time>2026-04-06T14:26:53.791Z</time></trkpt><trkpt lat="44.0536182" lon="10.9046141"><ele>622.3333333333333</ele><time>2026-04-06T14:26:54.788Z</time></trkpt><trkpt lat="44.0537779" lon="10.9047415"><ele>618.6666666666666</ele><time>2026-04-06T14:26:55.784Z</time></trkpt><trkpt lat="44.0539275" lon="10.904882"><ele>615.0</ele><time>2026-04-06T14:26:56.788Z</time></trkpt><trkpt lat="44.0540838" lon="10.905026"><ele>614.6666666666666</ele><time>2026-04-06T14:26:57.787Z</time></trkpt><trkpt lat="44.054239" lon="10.9052021"><ele>614.3333333333333</ele><time>2026-04-06T14:26:58.788Z</time></trkpt><trkpt lat="44.0543891" lon="10.9053914"><ele>614.0</ele><time>2026-04-06T14:26:59.788Z</time></trkpt><trkpt lat="44.0545248" lon="10.9055779"><ele>614.0</ele><time>2026-04-06T14:27:00.792Z</time></trkpt><trkpt lat="44.0546652" lon="10.905758"><ele>614.0</ele><time>2026-04-06T14:27:01.798Z</time></trkpt><trkpt lat="44.0548068" lon="10.9059352"><ele>614.0</ele><time>2026-04-06T14:27:02.786Z</time></trkpt><trkpt lat="44.0549682" lon="10.9060667"><ele>614.2</ele><time>2026-04-06T14:27:03.785Z</time></trkpt><trkpt lat="44.0550659" lon="10.9061352"><ele>614.4</ele><time>2026-04-06T14:27:04.79Z</time></trkpt><trkpt lat="44.0551759" lon="10.9062417"><ele>614.6</ele><time>2026-04-06T14:27:05.791Z</time></trkpt><trkpt lat="44.0552504" lon="10.9062986"><ele>614.8</ele><time>2026-04-06T14:27:06.793Z</time></trkpt><trkpt lat="44.0553427" lon="10.9063456"><ele>615.0</ele><time>2026-04-06T14:27:07.786Z</time></trkpt><trkpt lat="44.0554287" lon="10.9064394"><ele>615.0</ele><time>2026-04-06T14:27:09.797Z</time></trkpt><trkpt lat="44.0554418" lon="10.9065547"><ele>615.0</ele><time>2026-04-06T14:27:12.784Z</time></trkpt><trkpt lat="44.0554328" lon="10.9066532"><ele>615.0</ele><time>2026-04-06T14:27:13.788Z</time></trkpt><trkpt lat="44.0554525" lon="10.9067641"><ele>615.0</ele><time>2026-04-06T14:27:15.794Z</time></trkpt><trkpt lat="44.0554991" lon="10.9068607"><ele>615.0</ele><time>2026-04-06T14:27:17.79Z</time></trkpt><trkpt lat="44.0555664" lon="10.90689"><ele>615.0</ele><time>2026-04-06T14:27:18.788Z</time></trkpt><trkpt lat="44.0557042" lon="10.9069686"><ele>614.5</ele><time>2026-04-06T14:27:19.789Z</time></trkpt><trkpt lat="44.0558141" lon="10.9070678"><ele>614.0</ele><time>2026-04-06T14:27:20.787Z</time></trkpt><trkpt lat="44.0559692" lon="10.9071774"><ele>613.5</ele><time>2026-04-06T14:27:21.79Z</time></trkpt><trkpt lat="44.0560844" lon="10.9072619"><ele>613.0</ele><time>2026-04-06T14:27:22.785Z</time></trkpt><trkpt lat="44.0562533" lon="10.9074072"><ele>613.0</ele><time>2026-04-06T14:27:23.79Z</time></trkpt><trkpt lat="44.0564539" lon="10.9075978"><ele>613.0</ele><time>2026-04-06T14:27:24.786Z</time></trkpt><trkpt lat="44.0566218" lon="10.9077776"><ele>613.0</ele><time>2026-04-06T14:27:25.792Z</time></trkpt><trkpt lat="44.0567625" lon="10.9079215"><ele>613.0</ele><time>2026-04-06T14:27:26.785Z</time></trkpt><trkpt lat="44.0568945" lon="10.9080523"><ele>613.0</ele><time>2026-04-06T14:27:27.789Z</time></trkpt><trkpt lat="44.0570131" lon="10.9081759"><ele>613.0</ele><time>2026-04-06T14:27:28.786Z</time></trkpt><trkpt lat="44.0571236" lon="10.9083088"><ele>613.0</ele><time>2026-04-06T14:27:29.786Z</time></trkpt><trkpt lat="44.0572216" lon="10.9084359"><ele>613.0</ele><time>2026-04-06T14:27:30.788Z</time></trkpt><trkpt lat="44.0573283" lon="10.9085617"><ele>613.0</ele><time>2026-04-06T14:27:31.791Z</time></trkpt><trkpt lat="44.0574264" lon="10.9086769"><ele>613.25</ele><time>2026-04-06T14:27:32.786Z</time></trkpt><trkpt lat="44.0575287" lon="10.9087992"><ele>613.5</ele><time>2026-04-06T14:27:33.794Z</time></trkpt><trkpt lat="44.057626" lon="10.9089269"><ele>613.75</ele><time>2026-04-06T14:27:34.789Z</time></trkpt><trkpt lat="44.0577274" lon="10.9090643"><ele>614.0</ele><time>2026-04-06T14:27:35.785Z</time></trkpt><trkpt lat="44.0578163" lon="10.9091937"><ele>618.0</ele><time>2026-04-06T14:27:36.785Z</time></trkpt><trkpt lat="44.0579006" lon="10.9093222"><ele>622.0</ele><time>2026-04-06T14:27:37.793Z</time></trkpt><trkpt lat="44.0579722" lon="10.9094461"><ele>626.0</ele><time>2026-04-06T14:27:38.786Z</time></trkpt><trkpt lat="44.0580465" lon="10.9095449"><ele>630.0</ele><time>2026-04-06T14:27:39.788Z</time></trkpt><trkpt lat="44.0581116" lon="10.9096719"><ele>630.0</ele><time>2026-04-06T14:27:40.788Z</time></trkpt><trkpt lat="44.0581786" lon="10.909806"><ele>630.0</ele><time>2026-04-06T14:27:41.786Z</time></trkpt><trkpt lat="44.0582274" lon="10.9099098"><ele>630.0</ele><time>2026-04-06T14:27:42.786Z</time></trkpt><trkpt lat="44.058268" lon="10.9100544"><ele>630.0</ele><time>2026-04-06T14:27:43.794Z</time></trkpt><trkpt lat="44.0582735" lon="10.9101722"><ele>630.0</ele><time>2026-04-06T14:27:44.791Z</time></trkpt><trkpt lat="44.058307" lon="10.9103093"><ele>626.6</ele><time>2026-04-06T14:27:45.787Z</time></trkpt><trkpt lat="44.0583286" lon="10.9104311"><ele>623.2</ele><time>2026-04-06T14:27:46.788Z</time></trkpt><trkpt lat="44.0583585" lon="10.9105485"><ele>619.8</ele><time>2026-04-06T14:27:47.788Z</time></trkpt><trkpt lat="44.058406" lon="10.9106966"><ele>616.4</ele><time>2026-04-06T14:27:49.786Z</time></trkpt><trkpt lat="44.0584647" lon="10.9108638"><ele>613.0</ele><time>2026-04-06T14:27:51.793Z</time></trkpt><trkpt lat="44.0584877" lon="10.910958"><ele>613.0</ele><time>2026-04-06T14:27:52.785Z</time></trkpt><trkpt lat="44.0585277" lon="10.911068"><ele>613.0</ele><time>2026-04-06T14:27:53.785Z</time></trkpt><trkpt lat="44.0585595" lon="10.9111588"><ele>613.0</ele><time>2026-04-06T14:27:54.787Z</time></trkpt><trkpt lat="44.0586194" lon="10.9113084"><ele>613.0</ele><time>2026-04-06T14:27:56.786Z</time></trkpt><trkpt lat="44.0586866" lon="10.9113779"><ele>613.0</ele><time>2026-04-06T14:28:01.786Z</time></trkpt><trkpt lat="44.0588474" lon="10.9114137"><ele>613.0</ele><time>2026-04-06T14:28:11.788Z</time></trkpt><trkpt lat="44.0589423" lon="10.9114196"><ele>613.0</ele><time>2026-04-06T14:28:15.793Z</time></trkpt><trkpt lat="44.0590209" lon="10.9114681"><ele>613.0</ele><time>2026-04-06T14:28:18.792Z</time></trkpt><trkpt lat="44.0590855" lon="10.9115396"><ele>613.0</ele><time>2026-04-06T14:28:21.792Z</time></trkpt><trkpt lat="44.0591321" lon="10.9116214"><ele>613.0</ele><time>2026-04-06T14:28:24.788Z</time></trkpt><trkpt lat="44.0591582" lon="10.9117156"><ele>613.0</ele><time>2026-04-06T14:28:26.786Z</time></trkpt><trkpt lat="44.0591853" lon="10.9118397"><ele>611.8</ele><time>2026-04-06T14:28:28.786Z</time></trkpt><trkpt lat="44.0592067" lon="10.9120138"><ele>610.5999999999999</ele><time>2026-04-06T14:28:30.796Z</time></trkpt><trkpt lat="44.0592011" lon="10.9121472"><ele>609.4000000000001</ele><time>2026-04-06T14:28:32.785Z</time></trkpt><trkpt lat="44.0592339" lon="10.9123052"><ele>608.2</ele><time>2026-04-06T14:28:33.788Z</time></trkpt><trkpt lat="44.0592546" lon="10.9124347"><ele>607.0</ele><time>2026-04-06T14:28:34.786Z</time></trkpt><trkpt lat="44.0593057" lon="10.9125464"><ele>607.75</ele><time>2026-04-06T14:28:35.791Z</time></trkpt><trkpt lat="44.0593702" lon="10.9126856"><ele>608.5</ele><time>2026-04-06T14:28:36.788Z</time></trkpt><trkpt lat="44.0594234" lon="10.9128239"><ele>609.25</ele><time>2026-04-06T14:28:37.785Z</time></trkpt><trkpt lat="44.0594754" lon="10.9129552"><ele>610.0</ele><time>2026-04-06T14:28:38.786Z</time></trkpt><trkpt lat="44.0595427" lon="10.9130849"><ele>610.0</ele><time>2026-04-06T14:28:39.788Z</time></trkpt><trkpt lat="44.0596351" lon="10.9132513"><ele>610.0</ele><time>2026-04-06T14:28:40.788Z</time></trkpt><trkpt lat="44.0597308" lon="10.9134157"><ele>610.0</ele><time>2026-04-06T14:28:41.793Z</time></trkpt><trkpt lat="44.0598417" lon="10.913587"><ele>611.6666666666667</ele><time>2026-04-06T14:28:42.785Z</time></trkpt><trkpt lat="44.0599342" lon="10.9137342"><ele>613.3333333333334</ele><time>2026-04-06T14:28:43.793Z</time></trkpt><trkpt lat="44.0600248" lon="10.9139014"><ele>615.0</ele><time>2026-04-06T14:28:44.792Z</time></trkpt><trkpt lat="44.0601236" lon="10.9140956"><ele>614.3333333333334</ele><time>2026-04-06T14:28:45.786Z</time></trkpt><trkpt lat="44.0602163" lon="10.9142944"><ele>613.6666666666667</ele><time>2026-04-06T14:28:46.787Z</time></trkpt><trkpt lat="44.0603071" lon="10.9144863"><ele>613.0</ele><time>2026-04-06T14:28:47.789Z</time></trkpt><trkpt lat="44.060392" lon="10.9146525"><ele>613.0</ele><time>2026-04-06T14:28:48.788Z</time></trkpt><trkpt lat="44.0604932" lon="10.9147945"><ele>613.0</ele><time>2026-04-06T14:28:49.795Z</time></trkpt><trkpt lat="44.0605829" lon="10.9149147"><ele>613.0</ele><time>2026-04-06T14:28:50.789Z</time></trkpt><trkpt lat="44.0606736" lon="10.9150489"><ele>613.0</ele><time>2026-04-06T14:28:51.787Z</time></trkpt><trkpt lat="44.0607541" lon="10.9151816"><ele>614.8</ele><time>2026-04-06T14:28:52.787Z</time></trkpt><trkpt lat="44.0608109" lon="10.9153155"><ele>616.5999999999999</ele><time>2026-04-06T14:28:53.787Z</time></trkpt><trkpt lat="44.0608823" lon="10.9154616"><ele>618.4000000000001</ele><time>2026-04-06T14:28:54.786Z</time></trkpt><trkpt lat="44.0609175" lon="10.9155852"><ele>620.2</ele><time>2026-04-06T14:28:55.789Z</time></trkpt><trkpt lat="44.0609177" lon="10.9157342"><ele>622.0</ele><time>2026-04-06T14:28:56.789Z</time></trkpt><trkpt lat="44.0608991" lon="10.9158674"><ele>619.8000000000001</ele><time>2026-04-06T14:28:57.791Z</time></trkpt><trkpt lat="44.0608851" lon="10.9160039"><ele>617.6</ele><time>2026-04-06T14:28:58.787Z</time></trkpt><trkpt lat="44.0608598" lon="10.916129"><ele>615.4000000000001</ele><time>2026-04-06T14:28:59.792Z</time></trkpt><trkpt lat="44.0608559" lon="10.9162713"><ele>613.2</ele><time>2026-04-06T14:29:00.787Z</time></trkpt><trkpt lat="44.0608529" lon="10.9163967"><ele>611.0</ele><time>2026-04-06T14:29:01.789Z</time></trkpt><trkpt lat="44.060896" lon="10.9165354"><ele>611.0</ele><time>2026-04-06T14:29:02.795Z</time></trkpt><trkpt lat="44.0609456" lon="10.9166468"><ele>611.0</ele><time>2026-04-06T14:29:03.788Z</time></trkpt><trkpt lat="44.0610193" lon="10.9167414"><ele>611.0</ele><time>2026-04-06T14:29:04.786Z</time></trkpt><trkpt lat="44.0610756" lon="10.9168379"><ele>611.0</ele><time>2026-04-06T14:29:05.789Z</time></trkpt><trkpt lat="44.0611582" lon="10.9169021"><ele>611.0</ele><time>2026-04-06T14:29:06.784Z</time></trkpt><trkpt lat="44.0612594" lon="10.916935"><ele>610.0</ele><time>2026-04-06T14:29:07.788Z</time></trkpt><trkpt lat="44.0613534" lon="10.9169479"><ele>609.0</ele><time>2026-04-06T14:29:08.801Z</time></trkpt><trkpt lat="44.0614966" lon="10.9169381"><ele>608.0</ele><time>2026-04-06T14:29:09.788Z</time></trkpt><trkpt lat="44.0616939" lon="10.9170161"><ele>607.0</ele><time>2026-04-06T14:29:10.795Z</time></trkpt><trkpt lat="44.0618238" lon="10.9170546"><ele>607.0</ele><time>2026-04-06T14:29:11.798Z</time></trkpt><trkpt lat="44.0619768" lon="10.9170767"><ele>607.0</ele><time>2026-04-06T14:29:12.785Z</time></trkpt><trkpt lat="44.0621084" lon="10.9171019"><ele>607.0</ele><time>2026-04-06T14:29:13.788Z</time></trkpt><trkpt lat="44.0622442" lon="10.9170586"><ele>607.0</ele><time>2026-04-06T14:29:14.784Z</time></trkpt><trkpt lat="44.0623743" lon="10.9170718"><ele>606.25</ele><time>2026-04-06T14:29:15.789Z</time></trkpt><trkpt lat="44.0624852" lon="10.9170706"><ele>605.5</ele><time>2026-04-06T14:29:16.785Z</time></trkpt><trkpt lat="44.0625993" lon="10.9169622"><ele>604.75</ele><time>2026-04-06T14:29:17.789Z</time></trkpt><trkpt lat="44.0627464" lon="10.9169425"><ele>604.0</ele><time>2026-04-06T14:29:18.785Z</time></trkpt><trkpt lat="44.0628558" lon="10.916923"><ele>604.0</ele><time>2026-04-06T14:29:19.783Z</time></trkpt><trkpt lat="44.0629827" lon="10.9168684"><ele>604.0</ele><time>2026-04-06T14:29:20.791Z</time></trkpt><trkpt lat="44.0630657" lon="10.9168423"><ele>604.0</ele><time>2026-04-06T14:29:21.789Z</time></trkpt><trkpt lat="44.0631397" lon="10.9168494"><ele>604.0</ele><time>2026-04-06T14:29:22.785Z</time></trkpt><trkpt lat="44.0632479" lon="10.916893"><ele>604.0</ele><time>2026-04-06T14:29:23.793Z</time></trkpt><trkpt lat="44.0633313" lon="10.9169454"><ele>603.25</ele><time>2026-04-06T14:29:24.792Z</time></trkpt><trkpt lat="44.0634229" lon="10.9170239"><ele>602.5</ele><time>2026-04-06T14:29:25.791Z</time></trkpt><trkpt lat="44.0635193" lon="10.9170961"><ele>601.75</ele><time>2026-04-06T14:29:26.785Z</time></trkpt><trkpt lat="44.0636107" lon="10.9172222"><ele>601.0</ele><time>2026-04-06T14:29:27.788Z</time></trkpt><trkpt lat="44.0637367" lon="10.917349"><ele>601.0</ele><time>2026-04-06T14:29:28.786Z</time></trkpt><trkpt lat="44.0638659" lon="10.9174894"><ele>601.0</ele><time>2026-04-06T14:29:29.785Z</time></trkpt><trkpt lat="44.0639669" lon="10.9176022"><ele>601.0</ele><time>2026-04-06T14:29:30.786Z</time></trkpt><trkpt lat="44.0640953" lon="10.91769"><ele>601.0</ele><time>2026-04-06T14:29:31.792Z</time></trkpt><trkpt lat="44.0642295" lon="10.9178204"><ele>598.6666666666667</ele><time>2026-04-06T14:29:32.785Z</time></trkpt><trkpt lat="44.0643987" lon="10.9179266"><ele>596.3333333333334</ele><time>2026-04-06T14:29:33.786Z</time></trkpt><trkpt lat="44.0645384" lon="10.9180178"><ele>594.0</ele><time>2026-04-06T14:29:34.786Z</time></trkpt><trkpt lat="44.0646937" lon="10.9181373"><ele>594.0</ele><time>2026-04-06T14:29:35.788Z</time></trkpt><trkpt lat="44.0648615" lon="10.9182012"><ele>594.0</ele><time>2026-04-06T14:29:36.784Z</time></trkpt><trkpt lat="44.0650244" lon="10.9182592"><ele>594.0</ele><time>2026-04-06T14:29:37.789Z</time></trkpt><trkpt lat="44.0651661" lon="10.9183137"><ele>594.6666666666666</ele><time>2026-04-06T14:29:38.787Z</time></trkpt><trkpt lat="44.0652803" lon="10.9184016"><ele>595.3333333333333</ele><time>2026-04-06T14:29:39.787Z</time></trkpt><trkpt lat="44.06541" lon="10.9185445"><ele>596.0</ele><time>2026-04-06T14:29:40.79Z</time></trkpt><trkpt lat="44.0655566" lon="10.9186276"><ele>596.0</ele><time>2026-04-06T14:29:41.79Z</time></trkpt><trkpt lat="44.0657154" lon="10.9186937"><ele>596.0</ele><time>2026-04-06T14:29:42.784Z</time></trkpt><trkpt lat="44.0658584" lon="10.9188086"><ele>596.0</ele><time>2026-04-06T14:29:43.789Z</time></trkpt><trkpt lat="44.0659701" lon="10.9189423"><ele>599.3333333333333</ele><time>2026-04-06T14:29:44.786Z</time></trkpt><trkpt lat="44.0660398" lon="10.9191434"><ele>602.6666666666666</ele><time>2026-04-06T14:29:45.787Z</time></trkpt><trkpt lat="44.0661689" lon="10.9192901"><ele>606.0</ele><time>2026-04-06T14:29:46.785Z</time></trkpt><trkpt lat="44.0662933" lon="10.9194537"><ele>606.0</ele><time>2026-04-06T14:29:47.79Z</time></trkpt><trkpt lat="44.0664139" lon="10.9195828"><ele>606.0</ele><time>2026-04-06T14:29:48.785Z</time></trkpt><trkpt lat="44.0665495" lon="10.9196942"><ele>606.0</ele><time>2026-04-06T14:29:49.786Z</time></trkpt><trkpt lat="44.0667029" lon="10.9198067"><ele>601.6666666666666</ele><time>2026-04-06T14:29:50.787Z</time></trkpt><trkpt lat="44.0668648" lon="10.9198911"><ele>597.3333333333333</ele><time>2026-04-06T14:29:51.799Z</time></trkpt><trkpt lat="44.0670634" lon="10.9199747"><ele>593.0</ele><time>2026-04-06T14:29:52.796Z</time></trkpt><trkpt lat="44.0672402" lon="10.9200286"><ele>593.0</ele><time>2026-04-06T14:29:53.789Z</time></trkpt><trkpt lat="44.0673804" lon="10.9200501"><ele>593.0</ele><time>2026-04-06T14:29:54.787Z</time></trkpt><trkpt lat="44.0675989" lon="10.9201073"><ele>593.0</ele><time>2026-04-06T14:29:55.796Z</time></trkpt><trkpt lat="44.0677825" lon="10.9201507"><ele>593.0</ele><time>2026-04-06T14:29:56.784Z</time></trkpt><trkpt lat="44.0679356" lon="10.9202181"><ele>593.0</ele><time>2026-04-06T14:29:57.787Z</time></trkpt><trkpt lat="44.0680901" lon="10.9202373"><ele>593.0</ele><time>2026-04-06T14:29:58.788Z</time></trkpt><trkpt lat="44.0682276" lon="10.9203034"><ele>592.3333333333333</ele><time>2026-04-06T14:29:59.794Z</time></trkpt><trkpt lat="44.0683576" lon="10.9203785"><ele>591.6666666666666</ele><time>2026-04-06T14:30:00.785Z</time></trkpt><trkpt lat="44.0684822" lon="10.9204852"><ele>591.0</ele><time>2026-04-06T14:30:01.783Z</time></trkpt><trkpt lat="44.0686192" lon="10.9206479"><ele>591.0</ele><time>2026-04-06T14:30:02.782Z</time></trkpt><trkpt lat="44.0686949" lon="10.9208218"><ele>591.0</ele><time>2026-04-06T14:30:03.786Z</time></trkpt><trkpt lat="44.0687967" lon="10.9209845"><ele>591.0</ele><time>2026-04-06T14:30:04.787Z</time></trkpt><trkpt lat="44.0688957" lon="10.92115"><ele>591.0</ele><time>2026-04-06T14:30:05.786Z</time></trkpt><trkpt lat="44.0689805" lon="10.9213265"><ele>591.0</ele><time>2026-04-06T14:30:06.788Z</time></trkpt><trkpt lat="44.069073" lon="10.9215361"><ele>591.0</ele><time>2026-04-06T14:30:07.783Z</time></trkpt><trkpt lat="44.0691653" lon="10.9217714"><ele>591.0</ele><time>2026-04-06T14:30:08.787Z</time></trkpt><trkpt lat="44.069238" lon="10.921971"><ele>591.0</ele><time>2026-04-06T14:30:09.793Z</time></trkpt><trkpt lat="44.0693359" lon="10.9221741"><ele>591.0</ele><time>2026-04-06T14:30:10.783Z</time></trkpt><trkpt lat="44.0694503" lon="10.9223487"><ele>591.0</ele><time>2026-04-06T14:30:11.78Z</time></trkpt><trkpt lat="44.0696152" lon="10.9224927"><ele>591.0</ele><time>2026-04-06T14:30:12.784Z</time></trkpt><trkpt lat="44.0697709" lon="10.9226946"><ele>591.0</ele><time>2026-04-06T14:30:13.801Z</time></trkpt><trkpt lat="44.0699467" lon="10.9228831"><ele>591.0</ele><time>2026-04-06T14:30:14.782Z</time></trkpt><trkpt lat="44.0701069" lon="10.923058"><ele>591.0</ele><time>2026-04-06T14:30:15.787Z</time></trkpt><trkpt lat="44.0703047" lon="10.9232213"><ele>591.0</ele><time>2026-04-06T14:30:16.78Z</time></trkpt><trkpt lat="44.0704251" lon="10.9233204"><ele>596.0</ele><time>2026-04-06T14:30:17.782Z</time></trkpt><trkpt lat="44.0706857" lon="10.9234354"><ele>601.0</ele><time>2026-04-06T14:30:18.783Z</time></trkpt><trkpt lat="44.0708938" lon="10.9235482"><ele>601.0</ele><time>2026-04-06T14:30:19.782Z</time></trkpt><trkpt lat="44.0710598" lon="10.9236514"><ele>601.0</ele><time>2026-04-06T14:30:20.789Z</time></trkpt><trkpt lat="44.0712487" lon="10.923695"><ele>601.0</ele><time>2026-04-06T14:30:21.78Z</time></trkpt><trkpt lat="44.0714766" lon="10.9238468"><ele>591.0</ele><time>2026-04-06T14:30:22.789Z</time></trkpt><trkpt lat="44.0717127" lon="10.9239708"><ele>581.0</ele><time>2026-04-06T14:30:23.788Z</time></trkpt><trkpt lat="44.0718949" lon="10.9241088"><ele>581.0</ele><time>2026-04-06T14:30:24.785Z</time></trkpt><trkpt lat="44.072098" lon="10.9242298"><ele>581.0</ele><time>2026-04-06T14:30:25.791Z</time></trkpt><trkpt lat="44.0722752" lon="10.9243751"><ele>581.0</ele><time>2026-04-06T14:30:26.791Z</time></trkpt><trkpt lat="44.0724418" lon="10.9244777"><ele>580.0</ele><time>2026-04-06T14:30:27.787Z</time></trkpt><trkpt lat="44.0726505" lon="10.9247114"><ele>579.0</ele><time>2026-04-06T14:30:28.784Z</time></trkpt><trkpt lat="44.0727836" lon="10.9248438"><ele>578.0</ele><time>2026-04-06T14:30:29.788Z</time></trkpt><trkpt lat="44.0729503" lon="10.9250312"><ele>577.3333333333333</ele><time>2026-04-06T14:30:30.791Z</time></trkpt><trkpt lat="44.0730741" lon="10.9251821"><ele>576.6666666666666</ele><time>2026-04-06T14:30:31.792Z</time></trkpt><trkpt lat="44.0731809" lon="10.9253108"><ele>576.0</ele><time>2026-04-06T14:30:32.795Z</time></trkpt><trkpt lat="44.0733004" lon="10.925434"><ele>576.0</ele><time>2026-04-06T14:30:33.787Z</time></trkpt><trkpt lat="44.0733635" lon="10.9255193"><ele>576.0</ele><time>2026-04-06T14:30:34.783Z</time></trkpt><trkpt lat="44.0734095" lon="10.9255885"><ele>576.0</ele><time>2026-04-06T14:30:35.785Z</time></trkpt><trkpt lat="44.0734831" lon="10.9256563"><ele>576.0</ele><time>2026-04-06T14:30:36.792Z</time></trkpt><trkpt lat="44.0735516" lon="10.925698"><ele>576.0</ele><time>2026-04-06T14:30:37.789Z</time></trkpt><trkpt lat="44.0736465" lon="10.9256913"><ele>576.0</ele><time>2026-04-06T14:30:38.783Z</time></trkpt><trkpt lat="44.0738324" lon="10.9256786"><ele>576.0</ele><time>2026-04-06T14:30:39.786Z</time></trkpt><trkpt lat="44.0739537" lon="10.9256659"><ele>576.0</ele><time>2026-04-06T14:30:40.785Z</time></trkpt><trkpt lat="44.0740667" lon="10.9256667"><ele>576.0</ele><time>2026-04-06T14:30:41.788Z</time></trkpt><trkpt lat="44.0742021" lon="10.9256323"><ele>576.0</ele><time>2026-04-06T14:30:42.785Z</time></trkpt><trkpt lat="44.0744142" lon="10.9256468"><ele>576.25</ele><time>2026-04-06T14:30:43.79Z</time></trkpt><trkpt lat="44.0745608" lon="10.9256659"><ele>576.5</ele><time>2026-04-06T14:30:44.784Z</time></trkpt><trkpt lat="44.0747144" lon="10.9256932"><ele>576.75</ele><time>2026-04-06T14:30:45.789Z</time></trkpt><trkpt lat="44.0748491" lon="10.9257444"><ele>577.0</ele><time>2026-04-06T14:30:46.787Z</time></trkpt><trkpt lat="44.0749754" lon="10.9257817"><ele>579.75</ele><time>2026-04-06T14:30:47.789Z</time></trkpt><trkpt lat="44.0750951" lon="10.9257922"><ele>582.5</ele><time>2026-04-06T14:30:48.795Z</time></trkpt><trkpt lat="44.0752117" lon="10.9258077"><ele>585.25</ele><time>2026-04-06T14:30:49.787Z</time></trkpt><trkpt lat="44.0753491" lon="10.9256986"><ele>588.0</ele><time>2026-04-06T14:30:50.791Z</time></trkpt><trkpt lat="44.0754224" lon="10.9257214"><ele>588.0</ele><time>2026-04-06T14:30:51.791Z</time></trkpt><trkpt lat="44.0755313" lon="10.9257548"><ele>588.0</ele><time>2026-04-06T14:30:52.791Z</time></trkpt><trkpt lat="44.0756129" lon="10.9257961"><ele>588.0</ele><time>2026-04-06T14:30:53.795Z</time></trkpt><trkpt lat="44.0757573" lon="10.9258437"><ele>588.0</ele><time>2026-04-06T14:30:54.795Z</time></trkpt><trkpt lat="44.0759041" lon="10.9258991"><ele>585.25</ele><time>2026-04-06T14:30:55.791Z</time></trkpt><trkpt lat="44.0760045" lon="10.9259454"><ele>582.5</ele><time>2026-04-06T14:30:56.786Z</time></trkpt><trkpt lat="44.0760986" lon="10.9260151"><ele>579.75</ele><time>2026-04-06T14:30:57.787Z</time></trkpt><trkpt lat="44.076173" lon="10.9261024"><ele>577.0</ele><time>2026-04-06T14:30:58.784Z</time></trkpt><trkpt lat="44.0762511" lon="10.9262663"><ele>577.0</ele><time>2026-04-06T14:30:59.788Z</time></trkpt><trkpt lat="44.0763186" lon="10.9264016"><ele>577.0</ele><time>2026-04-06T14:31:00.79Z</time></trkpt><trkpt lat="44.0763984" lon="10.9265836"><ele>577.0</ele><time>2026-04-06T14:31:01.788Z</time></trkpt><trkpt lat="44.0764982" lon="10.9266842"><ele>577.0</ele><time>2026-04-06T14:31:02.79Z</time></trkpt><trkpt lat="44.0765796" lon="10.9267664"><ele>578.25</ele><time>2026-04-06T14:31:03.786Z</time></trkpt><trkpt lat="44.0766626" lon="10.9268025"><ele>579.5</ele><time>2026-04-06T14:31:04.786Z</time></trkpt><trkpt lat="44.0768072" lon="10.9267735"><ele>580.75</ele><time>2026-04-06T14:31:05.785Z</time></trkpt><trkpt lat="44.0769047" lon="10.926805"><ele>582.0</ele><time>2026-04-06T14:31:06.789Z</time></trkpt><trkpt lat="44.0770247" lon="10.9267825"><ele>582.0</ele><time>2026-04-06T14:31:07.8Z</time></trkpt><trkpt lat="44.0771731" lon="10.9267385"><ele>582.0</ele><time>2026-04-06T14:31:08.784Z</time></trkpt><trkpt lat="44.0772877" lon="10.9266668"><ele>582.0</ele><time>2026-04-06T14:31:09.788Z</time></trkpt><trkpt lat="44.0773786" lon="10.9266075"><ele>582.0</ele><time>2026-04-06T14:31:10.788Z</time></trkpt><trkpt lat="44.0775101" lon="10.9267032"><ele>582.0</ele><time>2026-04-06T14:31:12.789Z</time></trkpt><trkpt lat="44.0775442" lon="10.9268065"><ele>582.0</ele><time>2026-04-06T14:31:13.79Z</time></trkpt><trkpt lat="44.0775488" lon="10.9269308"><ele>582.0</ele><time>2026-04-06T14:31:15.787Z</time></trkpt><trkpt lat="44.0774652" lon="10.9271458"><ele>582.0</ele><time>2026-04-06T14:31:17.793Z</time></trkpt><trkpt lat="44.0773931" lon="10.9273265"><ele>583.3333333333334</ele><time>2026-04-06T14:31:18.785Z</time></trkpt><trkpt lat="44.0772696" lon="10.9275776"><ele>584.6666666666667</ele><time>2026-04-06T14:31:19.788Z</time></trkpt><trkpt lat="44.0771735" lon="10.9276675"><ele>586.0</ele><time>2026-04-06T14:31:20.787Z</time></trkpt><trkpt lat="44.0770718" lon="10.927789"><ele>586.0</ele><time>2026-04-06T14:31:21.794Z</time></trkpt><trkpt lat="44.0769725" lon="10.9278855"><ele>586.0</ele><time>2026-04-06T14:31:22.789Z</time></trkpt><trkpt lat="44.0769365" lon="10.9280762"><ele>586.0</ele><time>2026-04-06T14:31:23.785Z</time></trkpt><trkpt lat="44.0769077" lon="10.9282497"><ele>586.0</ele><time>2026-04-06T14:31:24.79Z</time></trkpt><trkpt lat="44.076886" lon="10.9284527"><ele>586.0</ele><time>2026-04-06T14:31:25.795Z</time></trkpt><trkpt lat="44.0768259" lon="10.9286391"><ele>586.0</ele><time>2026-04-06T14:31:26.787Z</time></trkpt><trkpt lat="44.0768883" lon="10.9289011"><ele>586.0</ele><time>2026-04-06T14:31:27.791Z</time></trkpt><trkpt lat="44.0768888" lon="10.9291717"><ele>585.0</ele><time>2026-04-06T14:31:28.789Z</time></trkpt><trkpt lat="44.0768682" lon="10.9295411"><ele>584.0</ele><time>2026-04-06T14:31:29.792Z</time></trkpt><trkpt lat="44.0768864" lon="10.9298328"><ele>582.3333333333333</ele><time>2026-04-06T14:31:30.788Z</time></trkpt><trkpt lat="44.0769057" lon="10.9301544"><ele>580.6666666666666</ele><time>2026-04-06T14:31:31.791Z</time></trkpt><trkpt lat="44.0769118" lon="10.9304306"><ele>579.0</ele><time>2026-04-06T14:31:32.782Z</time></trkpt><trkpt lat="44.0768899" lon="10.9306362"><ele>579.0</ele><time>2026-04-06T14:31:33.783Z</time></trkpt><trkpt lat="44.0769067" lon="10.9308685"><ele>579.0</ele><time>2026-04-06T14:31:34.788Z</time></trkpt><trkpt lat="44.0769266" lon="10.9310389"><ele>579.0</ele><time>2026-04-06T14:31:35.787Z</time></trkpt><trkpt lat="44.0769938" lon="10.9312198"><ele>579.0</ele><time>2026-04-06T14:31:36.789Z</time></trkpt><trkpt lat="44.0770259" lon="10.9313757"><ele>576.6666666666666</ele><time>2026-04-06T14:31:37.786Z</time></trkpt><trkpt lat="44.0770935" lon="10.9316215"><ele>574.3333333333333</ele><time>2026-04-06T14:31:38.787Z</time></trkpt><trkpt lat="44.0771439" lon="10.9317967"><ele>572.0</ele><time>2026-04-06T14:31:39.787Z</time></trkpt><trkpt lat="44.0772119" lon="10.9319528"><ele>572.0</ele><time>2026-04-06T14:31:40.788Z</time></trkpt><trkpt lat="44.0772922" lon="10.9321509"><ele>572.0</ele><time>2026-04-06T14:31:41.786Z</time></trkpt><trkpt lat="44.0773747" lon="10.9322833"><ele>572.0</ele><time>2026-04-06T14:31:42.788Z</time></trkpt><trkpt lat="44.0774496" lon="10.9323665"><ele>572.0</ele><time>2026-04-06T14:31:43.785Z</time></trkpt><trkpt lat="44.0775394" lon="10.932475"><ele>569.25</ele><time>2026-04-06T14:31:44.786Z</time></trkpt><trkpt lat="44.0776462" lon="10.9325736"><ele>566.5</ele><time>2026-04-06T14:31:45.789Z</time></trkpt><trkpt lat="44.0777122" lon="10.9327712"><ele>563.75</ele><time>2026-04-06T14:31:46.789Z</time></trkpt><trkpt lat="44.0778017" lon="10.9329001"><ele>561.0</ele><time>2026-04-06T14:31:47.791Z</time></trkpt><trkpt lat="44.0779112" lon="10.9330262"><ele>561.0</ele><time>2026-04-06T14:31:48.787Z</time></trkpt><trkpt lat="44.0780008" lon="10.9331647"><ele>561.0</ele><time>2026-04-06T14:31:49.791Z</time></trkpt><trkpt lat="44.0781033" lon="10.9332923"><ele>561.0</ele><time>2026-04-06T14:31:50.788Z</time></trkpt><trkpt lat="44.0781885" lon="10.9334676"><ele>561.0</ele><time>2026-04-06T14:31:51.789Z</time></trkpt><trkpt lat="44.078229" lon="10.9337162"><ele>561.0</ele><time>2026-04-06T14:31:52.784Z</time></trkpt><trkpt lat="44.0782967" lon="10.9339241"><ele>561.0</ele><time>2026-04-06T14:31:53.796Z</time></trkpt><trkpt lat="44.0783601" lon="10.9341707"><ele>561.0</ele><time>2026-04-06T14:31:54.788Z</time></trkpt><trkpt lat="44.0784838" lon="10.9344769"><ele>561.0</ele><time>2026-04-06T14:31:55.786Z</time></trkpt><trkpt lat="44.0785663" lon="10.9347409"><ele>561.0</ele><time>2026-04-06T14:31:56.786Z</time></trkpt><trkpt lat="44.078641" lon="10.9350023"><ele>561.0</ele><time>2026-04-06T14:31:57.788Z</time></trkpt><trkpt lat="44.0787077" lon="10.9352056"><ele>559.0</ele><time>2026-04-06T14:31:58.788Z</time></trkpt><trkpt lat="44.0787897" lon="10.9354427"><ele>557.0</ele><time>2026-04-06T14:31:59.792Z</time></trkpt><trkpt lat="44.0788582" lon="10.9356413"><ele>555.0</ele><time>2026-04-06T14:32:00.843Z</time></trkpt><trkpt lat="44.0789308" lon="10.9357716"><ele>555.0</ele><time>2026-04-06T14:32:01.784Z</time></trkpt><trkpt lat="44.0789969" lon="10.9358564"><ele>555.0</ele><time>2026-04-06T14:32:02.782Z</time></trkpt><trkpt lat="44.0790812" lon="10.9359069"><ele>555.0</ele><time>2026-04-06T14:32:03.803Z</time></trkpt><trkpt lat="44.0791751" lon="10.9358304"><ele>555.0</ele><time>2026-04-06T14:32:04.797Z</time></trkpt><trkpt lat="44.0793763" lon="10.9357686"><ele>555.3333333333334</ele><time>2026-04-06T14:32:05.784Z</time></trkpt><trkpt lat="44.0794775" lon="10.9357323"><ele>555.6666666666666</ele><time>2026-04-06T14:32:06.781Z</time></trkpt><trkpt lat="44.0795491" lon="10.9357281"><ele>556.0</ele><time>2026-04-06T14:32:07.791Z</time></trkpt><trkpt lat="44.0796098" lon="10.9358159"><ele>556.3333333333333</ele><time>2026-04-06T14:32:08.787Z</time></trkpt><trkpt lat="44.0796649" lon="10.9358954"><ele>556.6666666666666</ele><time>2026-04-06T14:32:09.784Z</time></trkpt><trkpt lat="44.0796767" lon="10.9359844"><ele>557.0</ele><time>2026-04-06T14:32:10.793Z</time></trkpt><trkpt lat="44.0797013" lon="10.9361792"><ele>557.0</ele><time>2026-04-06T14:32:12.8Z</time></trkpt><trkpt lat="44.0796646" lon="10.9363717"><ele>557.0</ele><time>2026-04-06T14:32:14.788Z</time></trkpt><trkpt lat="44.0796497" lon="10.9364635"><ele>557.0</ele><time>2026-04-06T14:32:15.789Z</time></trkpt><trkpt lat="44.0796556" lon="10.9366339"><ele>557.0</ele><time>2026-04-06T14:32:16.787Z</time></trkpt><trkpt lat="44.0797096" lon="10.9367731"><ele>557.0</ele><time>2026-04-06T14:32:17.789Z</time></trkpt><trkpt lat="44.079748" lon="10.9368833"><ele>555.75</ele><time>2026-04-06T14:32:18.792Z</time></trkpt><trkpt lat="44.0798104" lon="10.9370438"><ele>554.5</ele><time>2026-04-06T14:32:19.782Z</time></trkpt><trkpt lat="44.0798628" lon="10.937175"><ele>553.25</ele><time>2026-04-06T14:32:20.796Z</time></trkpt><trkpt lat="44.0799742" lon="10.9373515"><ele>552.0</ele><time>2026-04-06T14:32:21.786Z</time></trkpt><trkpt lat="44.0800559" lon="10.9375359"><ele>553.0</ele><time>2026-04-06T14:32:22.782Z</time></trkpt><trkpt lat="44.0801922" lon="10.9377557"><ele>554.0</ele><time>2026-04-06T14:32:23.784Z</time></trkpt><trkpt lat="44.0802976" lon="10.9379029"><ele>555.0</ele><time>2026-04-06T14:32:24.782Z</time></trkpt><trkpt lat="44.0803654" lon="10.9380453"><ele>555.0</ele><time>2026-04-06T14:32:25.783Z</time></trkpt><trkpt lat="44.0804333" lon="10.9381719"><ele>555.0</ele><time>2026-04-06T14:32:26.818Z</time></trkpt><trkpt lat="44.080523" lon="10.9383343"><ele>555.0</ele><time>2026-04-06T14:32:27.796Z</time></trkpt><trkpt lat="44.0805969" lon="10.9384425"><ele>555.0</ele><time>2026-04-06T14:32:28.8Z</time></trkpt><trkpt lat="44.0806099" lon="10.938553"><ele>555.0</ele><time>2026-04-06T14:32:29.798Z</time></trkpt><trkpt lat="44.080648" lon="10.9386773"><ele>553.25</ele><time>2026-04-06T14:32:30.804Z</time></trkpt><trkpt lat="44.080715" lon="10.9388894"><ele>551.5</ele><time>2026-04-06T14:32:31.78Z</time></trkpt><trkpt lat="44.0807526" lon="10.9389906"><ele>549.75</ele><time>2026-04-06T14:32:32.794Z</time></trkpt><trkpt lat="44.0807588" lon="10.9391227"><ele>548.0</ele><time>2026-04-06T14:32:33.788Z</time></trkpt><trkpt lat="44.080649" lon="10.9392184"><ele>547.4</ele><time>2026-04-06T14:32:34.789Z</time></trkpt><trkpt lat="44.080596" lon="10.9393395"><ele>546.8</ele><time>2026-04-06T14:32:35.786Z</time></trkpt><trkpt lat="44.0805721" lon="10.9394599"><ele>546.2</ele><time>2026-04-06T14:32:36.781Z</time></trkpt><trkpt lat="44.0805634" lon="10.9395793"><ele>545.6</ele><time>2026-04-06T14:32:37.787Z</time></trkpt><trkpt lat="44.0806023" lon="10.9397366"><ele>545.0</ele><time>2026-04-06T14:32:38.782Z</time></trkpt><trkpt lat="44.0806341" lon="10.9399283"><ele>546.0</ele><time>2026-04-06T14:32:39.79Z</time></trkpt><trkpt lat="44.0807239" lon="10.9401667"><ele>547.0</ele><time>2026-04-06T14:32:40.793Z</time></trkpt><trkpt lat="44.0807259" lon="10.9403769"><ele>548.0</ele><time>2026-04-06T14:32:41.788Z</time></trkpt><trkpt lat="44.0807333" lon="10.9406077"><ele>548.0</ele><time>2026-04-06T14:32:42.79Z</time></trkpt><trkpt lat="44.0807318" lon="10.9408295"><ele>548.0</ele><time>2026-04-06T14:32:43.791Z</time></trkpt><trkpt lat="44.080727" lon="10.9410413"><ele>548.0</ele><time>2026-04-06T14:32:44.785Z</time></trkpt><trkpt lat="44.0807476" lon="10.9412513"><ele>549.25</ele><time>2026-04-06T14:32:45.782Z</time></trkpt><trkpt lat="44.0807823" lon="10.9414548"><ele>550.5</ele><time>2026-04-06T14:32:46.791Z</time></trkpt><trkpt lat="44.0807925" lon="10.941653"><ele>551.75</ele><time>2026-04-06T14:32:47.788Z</time></trkpt><trkpt lat="44.0807946" lon="10.9417794"><ele>553.0</ele><time>2026-04-06T14:32:48.789Z</time></trkpt><trkpt lat="44.0808754" lon="10.94192"><ele>553.0</ele><time>2026-04-06T14:32:49.787Z</time></trkpt><trkpt lat="44.0808696" lon="10.9420571"><ele>553.0</ele><time>2026-04-06T14:32:50.794Z</time></trkpt><trkpt lat="44.080927" lon="10.9422321"><ele>553.0</ele><time>2026-04-06T14:32:51.789Z</time></trkpt><trkpt lat="44.0809889" lon="10.9423808"><ele>553.0</ele><time>2026-04-06T14:32:52.786Z</time></trkpt><trkpt lat="44.0811032" lon="10.9424918"><ele>551.0</ele><time>2026-04-06T14:32:53.789Z</time></trkpt><trkpt lat="44.0812622" lon="10.9426382"><ele>549.0</ele><time>2026-04-06T14:32:54.787Z</time></trkpt><trkpt lat="44.0814014" lon="10.9427992"><ele>547.0</ele><time>2026-04-06T14:32:55.787Z</time></trkpt><trkpt lat="44.0815393" lon="10.9429404"><ele>547.5</ele><time>2026-04-06T14:32:56.786Z</time></trkpt><trkpt lat="44.0816549" lon="10.9430623"><ele>548.0</ele><time>2026-04-06T14:32:57.785Z</time></trkpt><trkpt lat="44.0817593" lon="10.9431716"><ele>548.5</ele><time>2026-04-06T14:32:58.789Z</time></trkpt><trkpt lat="44.0818631" lon="10.9432678"><ele>549.0</ele><time>2026-04-06T14:32:59.79Z</time></trkpt><trkpt lat="44.0819331" lon="10.9432456"><ele>549.0</ele><time>2026-04-06T14:33:00.797Z</time></trkpt><trkpt lat="44.0820418" lon="10.94319"><ele>549.0</ele><time>2026-04-06T14:33:01.786Z</time></trkpt><trkpt lat="44.0821367" lon="10.9431985"><ele>549.0</ele><time>2026-04-06T14:33:02.783Z</time></trkpt><trkpt lat="44.0822037" lon="10.9431821"><ele>549.0</ele><time>2026-04-06T14:33:03.785Z</time></trkpt><trkpt lat="44.082267" lon="10.9432297"><ele>549.0</ele><time>2026-04-06T14:33:04.785Z</time></trkpt><trkpt lat="44.0823338" lon="10.943317"><ele>549.0</ele><time>2026-04-06T14:33:05.781Z</time></trkpt><trkpt lat="44.0823965" lon="10.943405"><ele>547.0</ele><time>2026-04-06T14:33:06.791Z</time></trkpt><trkpt lat="44.0824632" lon="10.9435001"><ele>545.0</ele><time>2026-04-06T14:33:07.798Z</time></trkpt><trkpt lat="44.0825282" lon="10.9435628"><ele>543.0</ele><time>2026-04-06T14:33:08.788Z</time></trkpt><trkpt lat="44.0826014" lon="10.9436016"><ele>541.0</ele><time>2026-04-06T14:33:09.787Z</time></trkpt><trkpt lat="44.0826651" lon="10.9436229"><ele>539.0</ele><time>2026-04-06T14:33:10.788Z</time></trkpt><trkpt lat="44.082727" lon="10.9436621"><ele>537.0</ele><time>2026-04-06T14:33:11.801Z</time></trkpt><trkpt lat="44.0827886" lon="10.9436986"><ele>537.0</ele><time>2026-04-06T14:33:12.79Z</time></trkpt><trkpt lat="44.0828458" lon="10.9437538"><ele>537.0</ele><time>2026-04-06T14:33:14.782Z</time></trkpt><trkpt lat="44.0829083" lon="10.9437844"><ele>537.0</ele><time>2026-04-06T14:33:17.781Z</time></trkpt><trkpt lat="44.0829986" lon="10.9438473"><ele>537.0</ele><time>2026-04-06T14:33:20.786Z</time></trkpt><trkpt lat="44.0830665" lon="10.9439142"><ele>537.0</ele><time>2026-04-06T14:33:22.791Z</time></trkpt><trkpt lat="44.0831183" lon="10.9439956"><ele>537.0</ele><time>2026-04-06T14:33:24.786Z</time></trkpt><trkpt lat="44.0831723" lon="10.9440428"><ele>537.0</ele><time>2026-04-06T14:33:25.789Z</time></trkpt><trkpt lat="44.0832543" lon="10.9441162"><ele>537.0</ele><time>2026-04-06T14:33:27.786Z</time></trkpt><trkpt lat="44.0833174" lon="10.9441038"><ele>537.0</ele><time>2026-04-06T14:33:29.787Z</time></trkpt><trkpt lat="44.0833992" lon="10.9441126"><ele>537.0</ele><time>2026-04-06T14:33:32.784Z</time></trkpt><trkpt lat="44.0834811" lon="10.9441131"><ele>537.0</ele><time>2026-04-06T14:33:38.797Z</time></trkpt><trkpt lat="44.083391" lon="10.9440049"><ele>537.0</ele><time>2026-04-06T14:39:27.807Z</time></trkpt><trkpt lat="44.0833131" lon="10.9439802"><ele>537.0</ele><time>2026-04-06T14:39:28.787Z</time></trkpt><trkpt lat="44.0832225" lon="10.9438597"><ele>537.0</ele><time>2026-04-06T14:39:29.8Z</time></trkpt><trkpt lat="44.0830076" lon="10.9437352"><ele>537.0</ele><time>2026-04-06T14:39:31.794Z</time></trkpt><trkpt lat="44.0827885" lon="10.9435954"><ele>537.0</ele><time>2026-04-06T14:39:33.791Z</time></trkpt><trkpt lat="44.0826827" lon="10.9434942"><ele>537.0</ele><time>2026-04-06T14:39:34.79Z</time></trkpt><trkpt lat="44.0825684" lon="10.9434219"><ele>537.0</ele><time>2026-04-06T14:39:35.787Z</time></trkpt><trkpt lat="44.0824457" lon="10.9433316"><ele>537.0</ele><time>2026-04-06T14:39:36.802Z</time></trkpt><trkpt lat="44.0823449" lon="10.9433221"><ele>539.4</ele><time>2026-04-06T14:39:37.794Z</time></trkpt><trkpt lat="44.0822673" lon="10.9432149"><ele>541.8000000000001</ele><time>2026-04-06T14:39:38.79Z</time></trkpt><trkpt lat="44.0821914" lon="10.9431131"><ele>544.2</ele><time>2026-04-06T14:39:39.793Z</time></trkpt><trkpt lat="44.0821365" lon="10.9430601"><ele>546.6</ele><time>2026-04-06T14:39:40.785Z</time></trkpt><trkpt lat="44.0820564" lon="10.9430029"><ele>549.0</ele><time>2026-04-06T14:39:41.787Z</time></trkpt><trkpt lat="44.0819552" lon="10.9430165"><ele>549.0</ele><time>2026-04-06T14:39:42.79Z</time></trkpt><trkpt lat="44.0818353" lon="10.9430026"><ele>549.0</ele><time>2026-04-06T14:39:43.791Z</time></trkpt><trkpt lat="44.0816016" lon="10.9428"><ele>549.0</ele><time>2026-04-06T14:39:45.784Z</time></trkpt><trkpt lat="44.0813482" lon="10.9426606"><ele>548.3333333333334</ele><time>2026-04-06T14:39:47.791Z</time></trkpt><trkpt lat="44.0812275" lon="10.9425533"><ele>547.6666666666667</ele><time>2026-04-06T14:39:48.787Z</time></trkpt><trkpt lat="44.0811047" lon="10.9424103"><ele>547.0</ele><time>2026-04-06T14:39:49.785Z</time></trkpt><trkpt lat="44.0809212" lon="10.942219"><ele>546.75</ele><time>2026-04-06T14:39:51.783Z</time></trkpt><trkpt lat="44.080854" lon="10.9420756"><ele>546.5</ele><time>2026-04-06T14:39:52.789Z</time></trkpt><trkpt lat="44.0807843" lon="10.9419272"><ele>546.25</ele><time>2026-04-06T14:39:53.792Z</time></trkpt><trkpt lat="44.080733" lon="10.9417978"><ele>546.0</ele><time>2026-04-06T14:39:54.788Z</time></trkpt><trkpt lat="44.080685" lon="10.9414929"><ele>546.0</ele><time>2026-04-06T14:39:56.797Z</time></trkpt><trkpt lat="44.0806813" lon="10.9413394"><ele>546.0</ele><time>2026-04-06T14:39:57.783Z</time></trkpt><trkpt lat="44.0806455" lon="10.941172"><ele>546.0</ele><time>2026-04-06T14:39:58.786Z</time></trkpt><trkpt lat="44.0806238" lon="10.9410343"><ele>546.0</ele><time>2026-04-06T14:39:59.789Z</time></trkpt><trkpt lat="44.0806167" lon="10.9408188"><ele>547.0</ele><time>2026-04-06T14:40:00.786Z</time></trkpt><trkpt lat="44.0805624" lon="10.940511"><ele>548.0</ele><time>2026-04-06T14:40:02.782Z</time></trkpt><trkpt lat="44.0805703" lon="10.940103"><ele>547.0</ele><time>2026-04-06T14:40:04.829Z</time></trkpt><trkpt lat="44.0805775" lon="10.9398756"><ele>546.0</ele><time>2026-04-06T14:40:05.796Z</time></trkpt><trkpt lat="44.0806031" lon="10.9395713"><ele>545.0</ele><time>2026-04-06T14:40:07.796Z</time></trkpt><trkpt lat="44.0806544" lon="10.9392853"><ele>546.0</ele><time>2026-04-06T14:40:09.781Z</time></trkpt><trkpt lat="44.0806748" lon="10.9391482"><ele>547.0</ele><time>2026-04-06T14:40:10.783Z</time></trkpt><trkpt lat="44.0806807" lon="10.9388648"><ele>548.0</ele><time>2026-04-06T14:40:12.785Z</time></trkpt><trkpt lat="44.0806779" lon="10.9385406"><ele>548.0</ele><time>2026-04-06T14:40:14.787Z</time></trkpt><trkpt lat="44.0806655" lon="10.9383851"><ele>548.0</ele><time>2026-04-06T14:40:15.789Z</time></trkpt><trkpt lat="44.0806363" lon="10.9382344"><ele>548.0</ele><time>2026-04-06T14:40:16.793Z</time></trkpt><trkpt lat="44.0805884" lon="10.9380774"><ele>548.0</ele><time>2026-04-06T14:40:17.79Z</time></trkpt><trkpt lat="44.0803232" lon="10.9378431"><ele>549.3333333333333</ele><time>2026-04-06T14:40:19.79Z</time></trkpt><trkpt lat="44.0802013" lon="10.9377363"><ele>550.6666666666666</ele><time>2026-04-06T14:40:20.787Z</time></trkpt><trkpt lat="44.0799982" lon="10.9374318"><ele>552.0</ele><time>2026-04-06T14:40:22.785Z</time></trkpt><trkpt lat="44.0798949" lon="10.9372618"><ele>552.0</ele><time>2026-04-06T14:40:23.795Z</time></trkpt><trkpt lat="44.0797894" lon="10.9370413"><ele>552.0</ele><time>2026-04-06T14:40:24.786Z</time></trkpt><trkpt lat="44.0796086" lon="10.9367194"><ele>553.6666666666666</ele><time>2026-04-06T14:40:26.782Z</time></trkpt><trkpt lat="44.0795663" lon="10.9365985"><ele>555.3333333333333</ele><time>2026-04-06T14:40:27.784Z</time></trkpt><trkpt lat="44.0794878" lon="10.9363653"><ele>557.0</ele><time>2026-04-06T14:40:29.784Z</time></trkpt><trkpt lat="44.079586" lon="10.9361185"><ele>559.0</ele><time>2026-04-06T14:40:31.793Z</time></trkpt><trkpt lat="44.0796882" lon="10.9358258"><ele>561.0</ele><time>2026-04-06T14:40:33.79Z</time></trkpt><trkpt lat="44.0796861" lon="10.9357059"><ele>563.0</ele><time>2026-04-06T14:40:34.79Z</time></trkpt><trkpt lat="44.0796643" lon="10.9356038"><ele>565.0</ele><time>2026-04-06T14:40:35.791Z</time></trkpt><trkpt lat="44.0795065" lon="10.9354003"><ele>565.0</ele><time>2026-04-06T14:40:37.792Z</time></trkpt><trkpt lat="44.0793462" lon="10.9353589"><ele>565.0</ele><time>2026-04-06T14:40:39.788Z</time></trkpt><trkpt lat="44.0791114" lon="10.935513"><ele>565.0</ele><time>2026-04-06T14:40:41.783Z</time></trkpt><trkpt lat="44.0790146" lon="10.9355318"><ele>562.5</ele><time>2026-04-06T14:40:42.788Z</time></trkpt><trkpt lat="44.0789139" lon="10.9355121"><ele>560.0</ele><time>2026-04-06T14:40:43.793Z</time></trkpt><trkpt lat="44.0788167" lon="10.935499"><ele>557.5</ele><time>2026-04-06T14:40:44.805Z</time></trkpt><trkpt lat="44.0786895" lon="10.9352453"><ele>555.0</ele><time>2026-04-06T14:40:46.783Z</time></trkpt><trkpt lat="44.0786409" lon="10.9351198"><ele>557.0</ele><time>2026-04-06T14:40:47.795Z</time></trkpt><trkpt lat="44.0785823" lon="10.9349531"><ele>559.0</ele><time>2026-04-06T14:40:48.792Z</time></trkpt><trkpt lat="44.0785051" lon="10.9347356"><ele>561.0</ele><time>2026-04-06T14:40:49.788Z</time></trkpt><trkpt lat="44.0784428" lon="10.934537"><ele>561.0</ele><time>2026-04-06T14:40:50.79Z</time></trkpt><trkpt lat="44.0783807" lon="10.9343278"><ele>561.0</ele><time>2026-04-06T14:40:51.788Z</time></trkpt><trkpt lat="44.0782816" lon="10.933799"><ele>561.0</ele><time>2026-04-06T14:40:53.791Z</time></trkpt><trkpt lat="44.0782328" lon="10.9335905"><ele>561.0</ele><time>2026-04-06T14:40:54.791Z</time></trkpt><trkpt lat="44.0782061" lon="10.9333716"><ele>561.0</ele><time>2026-04-06T14:40:55.792Z</time></trkpt><trkpt lat="44.0781855" lon="10.9331388"><ele>561.0</ele><time>2026-04-06T14:40:56.787Z</time></trkpt><trkpt lat="44.0781212" lon="10.9329605"><ele>561.0</ele><time>2026-04-06T14:40:57.794Z</time></trkpt><trkpt lat="44.0780463" lon="10.932804"><ele>561.0</ele><time>2026-04-06T14:40:58.798Z</time></trkpt><trkpt lat="44.0778706" lon="10.9325264"><ele>563.75</ele><time>2026-04-06T14:41:00.79Z</time></trkpt><trkpt lat="44.0777933" lon="10.9323396"><ele>566.5</ele><time>2026-04-06T14:41:01.785Z</time></trkpt><trkpt lat="44.0776807" lon="10.9322136"><ele>569.25</ele><time>2026-04-06T14:41:02.785Z</time></trkpt><trkpt lat="44.0775788" lon="10.9320796"><ele>572.0</ele><time>2026-04-06T14:41:03.791Z</time></trkpt><trkpt lat="44.0772685" lon="10.9317531"><ele>571.0</ele><time>2026-04-06T14:41:06.789Z</time></trkpt><trkpt lat="44.077194" lon="10.9316465"><ele>570.0</ele><time>2026-04-06T14:41:07.784Z</time></trkpt><trkpt lat="44.0771204" lon="10.9315009"><ele>569.0</ele><time>2026-04-06T14:41:08.79Z</time></trkpt><trkpt lat="44.0770766" lon="10.9313044"><ele>568.0</ele><time>2026-04-06T14:41:09.8Z</time></trkpt><trkpt lat="44.0769704" lon="10.9309312"><ele>571.6666666666667</ele><time>2026-04-06T14:41:11.797Z</time></trkpt><trkpt lat="44.076923" lon="10.9307694"><ele>575.3333333333334</ele><time>2026-04-06T14:41:12.795Z</time></trkpt><trkpt lat="44.0768662" lon="10.9306272"><ele>579.0</ele><time>2026-04-06T14:41:13.812Z</time></trkpt><trkpt lat="44.0768227" lon="10.9302705"><ele>579.0</ele><time>2026-04-06T14:41:15.785Z</time></trkpt><trkpt lat="44.0768035" lon="10.9300751"><ele>579.0</ele><time>2026-04-06T14:41:16.791Z</time></trkpt><trkpt lat="44.076811" lon="10.9296227"><ele>580.6666666666666</ele><time>2026-04-06T14:41:18.785Z</time></trkpt><trkpt lat="44.0768118" lon="10.9294056"><ele>582.3333333333333</ele><time>2026-04-06T14:41:19.798Z</time></trkpt><trkpt lat="44.0768339" lon="10.9291957"><ele>584.0</ele><time>2026-04-06T14:41:20.796Z</time></trkpt><trkpt lat="44.0768105" lon="10.9289625"><ele>585.0</ele><time>2026-04-06T14:41:21.798Z</time></trkpt><trkpt lat="44.076779" lon="10.9287446"><ele>586.0</ele><time>2026-04-06T14:41:22.792Z</time></trkpt><trkpt lat="44.076733" lon="10.9283397"><ele>586.0</ele><time>2026-04-06T14:41:24.785Z</time></trkpt><trkpt lat="44.0767148" lon="10.9281556"><ele>586.0</ele><time>2026-04-06T14:41:25.794Z</time></trkpt><trkpt lat="44.0767064" lon="10.9279696"><ele>586.0</ele><time>2026-04-06T14:41:26.782Z</time></trkpt><trkpt lat="44.0767283" lon="10.9278174"><ele>586.0</ele><time>2026-04-06T14:41:27.806Z</time></trkpt><trkpt lat="44.0767962" lon="10.9275944"><ele>585.2</ele><time>2026-04-06T14:41:29.784Z</time></trkpt><trkpt lat="44.0769189" lon="10.9274934"><ele>584.4000000000001</ele><time>2026-04-06T14:41:30.788Z</time></trkpt><trkpt lat="44.0770083" lon="10.9274354"><ele>583.6</ele><time>2026-04-06T14:41:31.785Z</time></trkpt><trkpt lat="44.0770849" lon="10.9273933"><ele>582.8000000000001</ele><time>2026-04-06T14:41:32.791Z</time></trkpt><trkpt lat="44.0771638" lon="10.927336"><ele>582.0</ele><time>2026-04-06T14:41:33.805Z</time></trkpt><trkpt lat="44.0772588" lon="10.9272755"><ele>582.0</ele><time>2026-04-06T14:41:34.784Z</time></trkpt><trkpt lat="44.0773762" lon="10.9272106"><ele>582.0</ele><time>2026-04-06T14:41:35.782Z</time></trkpt><trkpt lat="44.077452" lon="10.9271481"><ele>582.0</ele><time>2026-04-06T14:41:36.784Z</time></trkpt><trkpt lat="44.0774932" lon="10.9270501"><ele>582.0</ele><time>2026-04-06T14:41:37.785Z</time></trkpt><trkpt lat="44.0775561" lon="10.9269772"><ele>582.0</ele><time>2026-04-06T14:41:38.787Z</time></trkpt><trkpt lat="44.0775888" lon="10.9268405"><ele>584.2</ele><time>2026-04-06T14:41:40.788Z</time></trkpt><trkpt lat="44.0775482" lon="10.92675"><ele>586.4000000000001</ele><time>2026-04-06T14:41:41.795Z</time></trkpt><trkpt lat="44.0774706" lon="10.926678"><ele>588.5999999999999</ele><time>2026-04-06T14:41:42.793Z</time></trkpt><trkpt lat="44.0773682" lon="10.9265821"><ele>590.8</ele><time>2026-04-06T14:41:44.793Z</time></trkpt><trkpt lat="44.077282" lon="10.926573"><ele>593.0</ele><time>2026-04-06T14:41:45.785Z</time></trkpt><trkpt lat="44.0771924" lon="10.926608"><ele>593.0</ele><time>2026-04-06T14:41:46.789Z</time></trkpt><trkpt lat="44.0770606" lon="10.9266336"><ele>593.0</ele><time>2026-04-06T14:41:47.793Z</time></trkpt><trkpt lat="44.0769345" lon="10.9266091"><ele>593.0</ele><time>2026-04-06T14:41:48.787Z</time></trkpt><trkpt lat="44.0767593" lon="10.9266389"><ele>593.0</ele><time>2026-04-06T14:41:49.784Z</time></trkpt><trkpt lat="44.0766496" lon="10.9266692"><ele>589.0</ele><time>2026-04-06T14:41:50.787Z</time></trkpt><trkpt lat="44.0765296" lon="10.926669"><ele>585.0</ele><time>2026-04-06T14:41:51.786Z</time></trkpt><trkpt lat="44.076434" lon="10.9266329"><ele>581.0</ele><time>2026-04-06T14:41:52.786Z</time></trkpt><trkpt lat="44.0763289" lon="10.9265255"><ele>577.0</ele><time>2026-04-06T14:41:53.795Z</time></trkpt><trkpt lat="44.0762156" lon="10.9264713"><ele>577.0</ele><time>2026-04-06T14:41:54.788Z</time></trkpt><trkpt lat="44.0761249" lon="10.9263313"><ele>577.0</ele><time>2026-04-06T14:41:55.785Z</time></trkpt><trkpt lat="44.0761088" lon="10.9261368"><ele>577.0</ele><time>2026-04-06T14:41:56.785Z</time></trkpt><trkpt lat="44.0760435" lon="10.9260183"><ele>577.0</ele><time>2026-04-06T14:41:57.786Z</time></trkpt><trkpt lat="44.0759658" lon="10.9259443"><ele>580.6666666666667</ele><time>2026-04-06T14:41:58.785Z</time></trkpt><trkpt lat="44.0758435" lon="10.9258679"><ele>584.3333333333334</ele><time>2026-04-06T14:41:59.784Z</time></trkpt><trkpt lat="44.0756524" lon="10.9258203"><ele>588.0</ele><time>2026-04-06T14:42:00.789Z</time></trkpt><trkpt lat="44.0755281" lon="10.9257606"><ele>588.0</ele><time>2026-04-06T14:42:01.792Z</time></trkpt><trkpt lat="44.075446" lon="10.9256699"><ele>588.0</ele><time>2026-04-06T14:42:02.796Z</time></trkpt><trkpt lat="44.075337" lon="10.9256511"><ele>588.0</ele><time>2026-04-06T14:42:03.79Z</time></trkpt><trkpt lat="44.0752174" lon="10.9256674"><ele>588.0</ele><time>2026-04-06T14:42:04.787Z</time></trkpt><trkpt lat="44.0750834" lon="10.9256897"><ele>585.25</ele><time>2026-04-06T14:42:05.79Z</time></trkpt><trkpt lat="44.0749364" lon="10.9256868"><ele>582.5</ele><time>2026-04-06T14:42:06.784Z</time></trkpt><trkpt lat="44.0747937" lon="10.9256515"><ele>579.75</ele><time>2026-04-06T14:42:07.788Z</time></trkpt><trkpt lat="44.0746549" lon="10.9256172"><ele>577.0</ele><time>2026-04-06T14:42:08.789Z</time></trkpt><trkpt lat="44.0745243" lon="10.9256065"><ele>577.0</ele><time>2026-04-06T14:42:09.788Z</time></trkpt><trkpt lat="44.0743696" lon="10.9256081"><ele>577.0</ele><time>2026-04-06T14:42:10.786Z</time></trkpt><trkpt lat="44.0742252" lon="10.9256114"><ele>577.0</ele><time>2026-04-06T14:42:11.787Z</time></trkpt><trkpt lat="44.0740338" lon="10.9256207"><ele>576.6666666666667</ele><time>2026-04-06T14:42:12.785Z</time></trkpt><trkpt lat="44.0738762" lon="10.9255758"><ele>576.3333333333334</ele><time>2026-04-06T14:42:13.79Z</time></trkpt><trkpt lat="44.0737248" lon="10.9255739"><ele>576.0</ele><time>2026-04-06T14:42:14.794Z</time></trkpt><trkpt lat="44.0735861" lon="10.9256031"><ele>576.0</ele><time>2026-04-06T14:42:15.792Z</time></trkpt><trkpt lat="44.073443" lon="10.9256602"><ele>576.0</ele><time>2026-04-06T14:42:16.79Z</time></trkpt><trkpt lat="44.073317" lon="10.9256727"><ele>576.0</ele><time>2026-04-06T14:42:17.783Z</time></trkpt><trkpt lat="44.0732326" lon="10.9256352"><ele>576.0</ele><time>2026-04-06T14:42:18.789Z</time></trkpt><trkpt lat="44.0731573" lon="10.9255451"><ele>576.5</ele><time>2026-04-06T14:42:19.792Z</time></trkpt><trkpt lat="44.0730784" lon="10.9254582"><ele>577.0</ele><time>2026-04-06T14:42:20.788Z</time></trkpt><trkpt lat="44.0729734" lon="10.9252915"><ele>577.5</ele><time>2026-04-06T14:42:21.789Z</time></trkpt><trkpt lat="44.0728543" lon="10.9251421"><ele>578.0</ele><time>2026-04-06T14:42:22.793Z</time></trkpt><trkpt lat="44.0727367" lon="10.924998"><ele>578.0</ele><time>2026-04-06T14:42:23.789Z</time></trkpt><trkpt lat="44.0726177" lon="10.9248509"><ele>578.0</ele><time>2026-04-06T14:42:24.792Z</time></trkpt><trkpt lat="44.0724998" lon="10.9246436"><ele>578.0</ele><time>2026-04-06T14:42:25.796Z</time></trkpt><trkpt lat="44.0723752" lon="10.9244341"><ele>579.0</ele><time>2026-04-06T14:42:26.784Z</time></trkpt><trkpt lat="44.072226" lon="10.9242856"><ele>580.0</ele><time>2026-04-06T14:42:27.791Z</time></trkpt><trkpt lat="44.0720833" lon="10.9241268"><ele>581.0</ele><time>2026-04-06T14:42:28.787Z</time></trkpt><trkpt lat="44.0719346" lon="10.9240008"><ele>581.0</ele><time>2026-04-06T14:42:29.783Z</time></trkpt><trkpt lat="44.0717788" lon="10.9238844"><ele>581.0</ele><time>2026-04-06T14:42:30.787Z</time></trkpt><trkpt lat="44.0716219" lon="10.9237622"><ele>581.0</ele><time>2026-04-06T14:42:31.788Z</time></trkpt><trkpt lat="44.0714807" lon="10.9236796"><ele>583.0</ele><time>2026-04-06T14:42:32.789Z</time></trkpt><trkpt lat="44.0713553" lon="10.9236145"><ele>585.0</ele><time>2026-04-06T14:42:33.794Z</time></trkpt><trkpt lat="44.0712278" lon="10.9235371"><ele>587.0</ele><time>2026-04-06T14:42:34.789Z</time></trkpt><trkpt lat="44.0710965" lon="10.9234397"><ele>589.0</ele><time>2026-04-06T14:42:35.794Z</time></trkpt><trkpt lat="44.070958" lon="10.9233336"><ele>589.0</ele><time>2026-04-06T14:42:36.787Z</time></trkpt><trkpt lat="44.0708116" lon="10.9232383"><ele>589.0</ele><time>2026-04-06T14:42:37.796Z</time></trkpt><trkpt lat="44.0706628" lon="10.9231469"><ele>589.0</ele><time>2026-04-06T14:42:38.786Z</time></trkpt><trkpt lat="44.0705071" lon="10.9230466"><ele>589.6666666666667</ele><time>2026-04-06T14:42:39.786Z</time></trkpt><trkpt lat="44.0703465" lon="10.9229359"><ele>590.3333333333334</ele><time>2026-04-06T14:42:40.784Z</time></trkpt><trkpt lat="44.0701955" lon="10.9228523"><ele>591.0</ele><time>2026-04-06T14:42:41.783Z</time></trkpt><trkpt lat="44.0700368" lon="10.9227298"><ele>591.0</ele><time>2026-04-06T14:42:42.789Z</time></trkpt><trkpt lat="44.0698907" lon="10.9226308"><ele>591.0</ele><time>2026-04-06T14:42:43.786Z</time></trkpt><trkpt lat="44.0697447" lon="10.9224709"><ele>591.0</ele><time>2026-04-06T14:42:44.786Z</time></trkpt><trkpt lat="44.069598" lon="10.922328"><ele>591.0</ele><time>2026-04-06T14:42:45.79Z</time></trkpt><trkpt lat="44.0694658" lon="10.9221692"><ele>591.0</ele><time>2026-04-06T14:42:46.786Z</time></trkpt><trkpt lat="44.0693564" lon="10.9219809"><ele>591.0</ele><time>2026-04-06T14:42:47.795Z</time></trkpt><trkpt lat="44.0692537" lon="10.9218188"><ele>593.3333333333334</ele><time>2026-04-06T14:42:48.786Z</time></trkpt><trkpt lat="44.0691492" lon="10.9216097"><ele>595.6666666666667</ele><time>2026-04-06T14:42:49.789Z</time></trkpt><trkpt lat="44.0690334" lon="10.9214166"><ele>598.0</ele><time>2026-04-06T14:42:50.79Z</time></trkpt><trkpt lat="44.0689142" lon="10.9212461"><ele>598.0</ele><time>2026-04-06T14:42:51.791Z</time></trkpt><trkpt lat="44.0687767" lon="10.9210841"><ele>598.0</ele><time>2026-04-06T14:42:52.789Z</time></trkpt><trkpt lat="44.0686408" lon="10.9208838"><ele>598.0</ele><time>2026-04-06T14:42:53.783Z</time></trkpt><trkpt lat="44.0685029" lon="10.9207153"><ele>596.3333333333334</ele><time>2026-04-06T14:42:54.79Z</time></trkpt><trkpt lat="44.0683675" lon="10.920542"><ele>594.6666666666666</ele><time>2026-04-06T14:42:55.787Z</time></trkpt><trkpt lat="44.0682429" lon="10.9203937"><ele>593.0</ele><time>2026-04-06T14:42:56.789Z</time></trkpt><trkpt lat="44.0681119" lon="10.9202425"><ele>593.0</ele><time>2026-04-06T14:42:57.792Z</time></trkpt><trkpt lat="44.0679796" lon="10.9201264"><ele>593.0</ele><time>2026-04-06T14:42:58.788Z</time></trkpt><trkpt lat="44.0678428" lon="10.9200554"><ele>593.0</ele><time>2026-04-06T14:42:59.786Z</time></trkpt><trkpt lat="44.0676576" lon="10.9199787"><ele>593.0</ele><time>2026-04-06T14:43:00.796Z</time></trkpt><trkpt lat="44.0674794" lon="10.9199594"><ele>593.0</ele><time>2026-04-06T14:43:01.79Z</time></trkpt><trkpt lat="44.0672966" lon="10.9199001"><ele>593.0</ele><time>2026-04-06T14:43:02.787Z</time></trkpt><trkpt lat="44.0670928" lon="10.919833"><ele>593.0</ele><time>2026-04-06T14:43:03.785Z</time></trkpt><trkpt lat="44.0669274" lon="10.9198061"><ele>593.0</ele><time>2026-04-06T14:43:04.782Z</time></trkpt><trkpt lat="44.0667745" lon="10.9197808"><ele>593.0</ele><time>2026-04-06T14:43:05.79Z</time></trkpt><trkpt lat="44.0665942" lon="10.9197009"><ele>597.3333333333333</ele><time>2026-04-06T14:43:06.797Z</time></trkpt><trkpt lat="44.0664077" lon="10.9196461"><ele>601.6666666666666</ele><time>2026-04-06T14:43:07.79Z</time></trkpt><trkpt lat="44.0662335" lon="10.9195392"><ele>606.0</ele><time>2026-04-06T14:43:08.787Z</time></trkpt><trkpt lat="44.0660674" lon="10.919479"><ele>606.0</ele><time>2026-04-06T14:43:09.788Z</time></trkpt><trkpt lat="44.0659762" lon="10.9194329"><ele>606.0</ele><time>2026-04-06T14:43:10.782Z</time></trkpt><trkpt lat="44.0659013" lon="10.9193023"><ele>606.0</ele><time>2026-04-06T14:43:11.789Z</time></trkpt><trkpt lat="44.0658121" lon="10.919132"><ele>606.0</ele><time>2026-04-06T14:43:12.793Z</time></trkpt><trkpt lat="44.0657142" lon="10.9189624"><ele>602.6666666666666</ele><time>2026-04-06T14:43:13.782Z</time></trkpt><trkpt lat="44.0655831" lon="10.9189091"><ele>599.3333333333333</ele><time>2026-04-06T14:43:14.779Z</time></trkpt><trkpt lat="44.0654299" lon="10.9187952"><ele>596.0</ele><time>2026-04-06T14:43:15.78Z</time></trkpt><trkpt lat="44.0652853" lon="10.9186713"><ele>596.0</ele><time>2026-04-06T14:43:16.794Z</time></trkpt><trkpt lat="44.0651864" lon="10.9185411"><ele>596.0</ele><time>2026-04-06T14:43:17.787Z</time></trkpt><trkpt lat="44.0650739" lon="10.9184221"><ele>596.0</ele><time>2026-04-06T14:43:18.786Z</time></trkpt><trkpt lat="44.0649652" lon="10.918365"><ele>596.0</ele><time>2026-04-06T14:43:19.792Z</time></trkpt><trkpt lat="44.0648397" lon="10.9183246"><ele>595.3333333333333</ele><time>2026-04-06T14:43:20.785Z</time></trkpt><trkpt lat="44.0646904" lon="10.9182316"><ele>594.6666666666666</ele><time>2026-04-06T14:43:21.786Z</time></trkpt><trkpt lat="44.0644959" lon="10.9180684"><ele>594.0</ele><time>2026-04-06T14:43:22.787Z</time></trkpt><trkpt lat="44.0643377" lon="10.9179364"><ele>594.0</ele><time>2026-04-06T14:43:23.79Z</time></trkpt><trkpt lat="44.0641924" lon="10.9177971"><ele>594.0</ele><time>2026-04-06T14:43:24.785Z</time></trkpt><trkpt lat="44.0640321" lon="10.9177476"><ele>594.0</ele><time>2026-04-06T14:43:25.793Z</time></trkpt><trkpt lat="44.0638897" lon="10.9176586"><ele>596.3333333333334</ele><time>2026-04-06T14:43:26.784Z</time></trkpt><trkpt lat="44.0637523" lon="10.9175582"><ele>598.6666666666667</ele><time>2026-04-06T14:43:27.788Z</time></trkpt><trkpt lat="44.0636299" lon="10.9173927"><ele>601.0</ele><time>2026-04-06T14:43:28.784Z</time></trkpt><trkpt lat="44.0635026" lon="10.9172774"><ele>601.0</ele><time>2026-04-06T14:43:29.788Z</time></trkpt><trkpt lat="44.0633845" lon="10.9171545"><ele>601.0</ele><time>2026-04-06T14:43:30.784Z</time></trkpt><trkpt lat="44.0632739" lon="10.9170015"><ele>601.0</ele><time>2026-04-06T14:43:31.788Z</time></trkpt><trkpt lat="44.0631969" lon="10.9169148"><ele>601.0</ele><time>2026-04-06T14:43:32.788Z</time></trkpt><trkpt lat="44.0631138" lon="10.9168454"><ele>601.6</ele><time>2026-04-06T14:43:33.786Z</time></trkpt><trkpt lat="44.0630278" lon="10.9167805"><ele>602.2</ele><time>2026-04-06T14:43:34.79Z</time></trkpt><trkpt lat="44.062955" lon="10.9167571"><ele>602.8</ele><time>2026-04-06T14:43:35.788Z</time></trkpt><trkpt lat="44.0628573" lon="10.9167748"><ele>603.4</ele><time>2026-04-06T14:43:36.785Z</time></trkpt><trkpt lat="44.0627348" lon="10.9168157"><ele>604.0</ele><time>2026-04-06T14:43:37.785Z</time></trkpt><trkpt lat="44.0625697" lon="10.9168447"><ele>605.0</ele><time>2026-04-06T14:43:38.787Z</time></trkpt><trkpt lat="44.0623984" lon="10.9168304"><ele>606.0</ele><time>2026-04-06T14:43:39.787Z</time></trkpt><trkpt lat="44.0622221" lon="10.9168298"><ele>607.0</ele><time>2026-04-06T14:43:40.79Z</time></trkpt><trkpt lat="44.0620748" lon="10.9168632"><ele>607.0</ele><time>2026-04-06T14:43:41.786Z</time></trkpt><trkpt lat="44.0619324" lon="10.9168803"><ele>607.0</ele><time>2026-04-06T14:43:42.784Z</time></trkpt><trkpt lat="44.0618004" lon="10.9168751"><ele>607.0</ele><time>2026-04-06T14:43:43.79Z</time></trkpt><trkpt lat="44.0616442" lon="10.9168207"><ele>607.0</ele><time>2026-04-06T14:43:44.79Z</time></trkpt><trkpt lat="44.0614783" lon="10.9167878"><ele>608.0</ele><time>2026-04-06T14:43:45.79Z</time></trkpt><trkpt lat="44.0613164" lon="10.9167703"><ele>609.0</ele><time>2026-04-06T14:43:46.789Z</time></trkpt><trkpt lat="44.0611944" lon="10.916775"><ele>610.0</ele><time>2026-04-06T14:43:47.793Z</time></trkpt><trkpt lat="44.0610699" lon="10.9167883"><ele>611.0</ele><time>2026-04-06T14:43:48.786Z</time></trkpt><trkpt lat="44.0609593" lon="10.9167228"><ele>611.0</ele><time>2026-04-06T14:43:49.792Z</time></trkpt><trkpt lat="44.060899" lon="10.9166604"><ele>611.0</ele><time>2026-04-06T14:43:50.787Z</time></trkpt><trkpt lat="44.0608687" lon="10.9165116"><ele>611.0</ele><time>2026-04-06T14:43:51.788Z</time></trkpt><trkpt lat="44.0608335" lon="10.9164335"><ele>611.0</ele><time>2026-04-06T14:43:52.791Z</time></trkpt><trkpt lat="44.0607962" lon="10.916348"><ele>611.0</ele><time>2026-04-06T14:43:53.79Z</time></trkpt><trkpt lat="44.060825" lon="10.916204"><ele>611.0</ele><time>2026-04-06T14:43:54.789Z</time></trkpt><trkpt lat="44.0608344" lon="10.9161093"><ele>611.0</ele><time>2026-04-06T14:43:55.786Z</time></trkpt><trkpt lat="44.0608571" lon="10.9159715"><ele>611.0</ele><time>2026-04-06T14:43:56.781Z</time></trkpt><trkpt lat="44.0608622" lon="10.9158746"><ele>611.0</ele><time>2026-04-06T14:43:57.784Z</time></trkpt><trkpt lat="44.0608616" lon="10.9157329"><ele>611.0</ele><time>2026-04-06T14:43:59.786Z</time></trkpt><trkpt lat="44.0608593" lon="10.915577"><ele>611.0</ele><time>2026-04-06T14:44:01.8Z</time></trkpt><trkpt lat="44.060847" lon="10.9154434"><ele>611.3333333333333</ele><time>2026-04-06T14:44:03.843Z</time></trkpt><trkpt lat="44.060818" lon="10.9153163"><ele>611.6666666666666</ele><time>2026-04-06T14:44:05.801Z</time></trkpt><trkpt lat="44.0607787" lon="10.9152287"><ele>612.0</ele><time>2026-04-06T14:44:06.804Z</time></trkpt><trkpt lat="44.0607552" lon="10.9151398"><ele>612.3333333333334</ele><time>2026-04-06T14:44:07.799Z</time></trkpt><trkpt lat="44.0607231" lon="10.9150529"><ele>612.6666666666667</ele><time>2026-04-06T14:44:08.786Z</time></trkpt><trkpt lat="44.060668" lon="10.9149422"><ele>613.0</ele><time>2026-04-06T14:44:09.794Z</time></trkpt><trkpt lat="44.0605696" lon="10.9148272"><ele>613.0</ele><time>2026-04-06T14:44:10.786Z</time></trkpt><trkpt lat="44.0604963" lon="10.9146833"><ele>613.0</ele><time>2026-04-06T14:44:11.793Z</time></trkpt><trkpt lat="44.0604014" lon="10.9145816"><ele>613.0</ele><time>2026-04-06T14:44:12.791Z</time></trkpt><trkpt lat="44.0602912" lon="10.9144517"><ele>613.0</ele><time>2026-04-06T14:44:13.786Z</time></trkpt><trkpt lat="44.0601986" lon="10.914289"><ele>613.5</ele><time>2026-04-06T14:44:14.793Z</time></trkpt><trkpt lat="44.0601075" lon="10.9141268"><ele>614.0</ele><time>2026-04-06T14:44:15.794Z</time></trkpt><trkpt lat="44.0600048" lon="10.9139612"><ele>614.5</ele><time>2026-04-06T14:44:16.78Z</time></trkpt><trkpt lat="44.0599221" lon="10.9137972"><ele>615.0</ele><time>2026-04-06T14:44:17.785Z</time></trkpt><trkpt lat="44.0598474" lon="10.9136306"><ele>616.6666666666666</ele><time>2026-04-06T14:44:18.785Z</time></trkpt><trkpt lat="44.059731" lon="10.9135086"><ele>618.3333333333333</ele><time>2026-04-06T14:44:19.779Z</time></trkpt><trkpt lat="44.0596644" lon="10.9133668"><ele>620.0</ele><time>2026-04-06T14:44:20.785Z</time></trkpt><trkpt lat="44.0595386" lon="10.9130713"><ele>617.5</ele><time>2026-04-06T14:44:22.782Z</time></trkpt><trkpt lat="44.0594648" lon="10.9129437"><ele>615.0</ele><time>2026-04-06T14:44:23.783Z</time></trkpt><trkpt lat="44.0594124" lon="10.912811"><ele>612.5</ele><time>2026-04-06T14:44:24.785Z</time></trkpt><trkpt lat="44.0593653" lon="10.9126616"><ele>610.0</ele><time>2026-04-06T14:44:25.793Z</time></trkpt><trkpt lat="44.0593331" lon="10.9125183"><ele>609.25</ele><time>2026-04-06T14:44:26.789Z</time></trkpt><trkpt lat="44.0593058" lon="10.9123798"><ele>608.5</ele><time>2026-04-06T14:44:27.786Z</time></trkpt><trkpt lat="44.0592736" lon="10.9122454"><ele>607.75</ele><time>2026-04-06T14:44:28.79Z</time></trkpt><trkpt lat="44.0592451" lon="10.9121177"><ele>607.0</ele><time>2026-04-06T14:44:29.784Z</time></trkpt><trkpt lat="44.0592347" lon="10.9117738"><ele>607.3333333333334</ele><time>2026-04-06T14:44:31.787Z</time></trkpt><trkpt lat="44.0592281" lon="10.9116737"><ele>607.6666666666667</ele><time>2026-04-06T14:44:32.818Z</time></trkpt><trkpt lat="44.0592259" lon="10.9115754"><ele>608.0</ele><time>2026-04-06T14:44:33.797Z</time></trkpt><trkpt lat="44.0591951" lon="10.9114915"><ele>608.3333333333334</ele><time>2026-04-06T14:44:34.794Z</time></trkpt><trkpt lat="44.0591895" lon="10.9116002"><ele>608.6666666666666</ele><time>2026-04-06T14:44:37.782Z</time></trkpt><trkpt lat="44.0591198" lon="10.9115558"><ele>609.0</ele><time>2026-04-06T14:44:45.794Z</time></trkpt><trkpt lat="44.0590749" lon="10.9114392"><ele>609.6666666666666</ele><time>2026-04-06T14:44:49.783Z</time></trkpt><trkpt lat="44.0590217" lon="10.911383"><ele>610.3333333333334</ele><time>2026-04-06T14:44:51.795Z</time></trkpt><trkpt lat="44.0589539" lon="10.9113317"><ele>611.0</ele><time>2026-04-06T14:44:53.79Z</time></trkpt><trkpt lat="44.0588663" lon="10.9113131"><ele>611.6666666666667</ele><time>2026-04-06T14:44:56.783Z</time></trkpt><trkpt lat="44.0587797" lon="10.9112919"><ele>612.3333333333334</ele><time>2026-04-06T14:44:59.788Z</time></trkpt><trkpt lat="44.0586801" lon="10.9112004"><ele>613.0</ele><time>2026-04-06T14:45:02.797Z</time></trkpt><trkpt lat="44.0586398" lon="10.9111327"><ele>612.75</ele><time>2026-04-06T14:45:05.779Z</time></trkpt><trkpt lat="44.0585786" lon="10.9108908"><ele>612.5</ele><time>2026-04-06T14:46:37.783Z</time></trkpt><trkpt lat="44.0585528" lon="10.9107508"><ele>612.25</ele><time>2026-04-06T14:46:38.781Z</time></trkpt><trkpt lat="44.058522" lon="10.9105989"><ele>612.0</ele><time>2026-04-06T14:46:39.787Z</time></trkpt><trkpt lat="44.0584365" lon="10.9103044"><ele>612.0</ele><time>2026-04-06T14:46:41.788Z</time></trkpt><trkpt lat="44.0583788" lon="10.9101512"><ele>612.0</ele><time>2026-04-06T14:46:42.784Z</time></trkpt><trkpt lat="44.0583235" lon="10.9100246"><ele>612.0</ele><time>2026-04-06T14:46:43.788Z</time></trkpt><trkpt lat="44.0582661" lon="10.9099319"><ele>612.0</ele><time>2026-04-06T14:46:44.784Z</time></trkpt><trkpt lat="44.0581763" lon="10.9097688"><ele>612.5</ele><time>2026-04-06T14:46:46.787Z</time></trkpt><trkpt lat="44.0580501" lon="10.9095957"><ele>613.0</ele><time>2026-04-06T14:46:48.785Z</time></trkpt><trkpt lat="44.0579897" lon="10.9094825"><ele>613.5</ele><time>2026-04-06T14:46:49.791Z</time></trkpt><trkpt lat="44.0579239" lon="10.9093666"><ele>614.0</ele><time>2026-04-06T14:46:50.787Z</time></trkpt><trkpt lat="44.0577686" lon="10.9091448"><ele>614.0</ele><time>2026-04-06T14:46:52.782Z</time></trkpt><trkpt lat="44.0576899" lon="10.9090216"><ele>614.0</ele><time>2026-04-06T14:46:53.789Z</time></trkpt><trkpt lat="44.057592" lon="10.9089224"><ele>614.0</ele><time>2026-04-06T14:46:54.783Z</time></trkpt><trkpt lat="44.0575162" lon="10.908809"><ele>614.0</ele><time>2026-04-06T14:46:55.796Z</time></trkpt><trkpt lat="44.0574244" lon="10.9087024"><ele>613.6666666666666</ele><time>2026-04-06T14:46:56.789Z</time></trkpt><trkpt lat="44.0573366" lon="10.9085942"><ele>613.3333333333334</ele><time>2026-04-06T14:46:57.793Z</time></trkpt><trkpt lat="44.0572518" lon="10.9084794"><ele>613.0</ele><time>2026-04-06T14:46:58.785Z</time></trkpt><trkpt lat="44.0570744" lon="10.9082765"><ele>613.0</ele><time>2026-04-06T14:47:00.784Z</time></trkpt><trkpt lat="44.0569821" lon="10.9081916"><ele>613.0</ele><time>2026-04-06T14:47:01.791Z</time></trkpt><trkpt lat="44.0568998" lon="10.9080853"><ele>613.0</ele><time>2026-04-06T14:47:02.783Z</time></trkpt><trkpt lat="44.056823" lon="10.9079808"><ele>613.0</ele><time>2026-04-06T14:47:03.792Z</time></trkpt><trkpt lat="44.0566531" lon="10.9077989"><ele>613.0</ele><time>2026-04-06T14:47:05.788Z</time></trkpt><trkpt lat="44.0564823" lon="10.9075822"><ele>613.0</ele><time>2026-04-06T14:47:07.793Z</time></trkpt><trkpt lat="44.0561582" lon="10.9073221"><ele>613.0</ele><time>2026-04-06T14:47:10.779Z</time></trkpt><trkpt lat="44.0560518" lon="10.9072328"><ele>613.0</ele><time>2026-04-06T14:47:11.784Z</time></trkpt><trkpt lat="44.0558679" lon="10.9070852"><ele>613.0</ele><time>2026-04-06T14:47:13.791Z</time></trkpt><trkpt lat="44.0557792" lon="10.9070293"><ele>613.0</ele><time>2026-04-06T14:47:14.795Z</time></trkpt><trkpt lat="44.0557097" lon="10.9069714"><ele>613.3333333333334</ele><time>2026-04-06T14:47:15.783Z</time></trkpt><trkpt lat="44.0556461" lon="10.9069283"><ele>613.6666666666667</ele><time>2026-04-06T14:47:16.786Z</time></trkpt><trkpt lat="44.0555857" lon="10.906883"><ele>614.0</ele><time>2026-04-06T14:47:17.784Z</time></trkpt><trkpt lat="44.055529" lon="10.9068382"><ele>614.3333333333334</ele><time>2026-04-06T14:47:18.786Z</time></trkpt><trkpt lat="44.0554388" lon="10.9067713"><ele>614.6666666666666</ele><time>2026-04-06T14:47:20.787Z</time></trkpt><trkpt lat="44.0553794" lon="10.9066714"><ele>615.0</ele><time>2026-04-06T14:47:22.795Z</time></trkpt><trkpt lat="44.0553888" lon="10.9065563"><ele>615.0</ele><time>2026-04-06T14:47:24.785Z</time></trkpt><trkpt lat="44.0554231" lon="10.9064381"><ele>615.0</ele><time>2026-04-06T14:47:26.788Z</time></trkpt><trkpt lat="44.0553818" lon="10.9063535"><ele>615.0</ele><time>2026-04-06T14:47:27.793Z</time></trkpt><trkpt lat="44.0553388" lon="10.9062837"><ele>615.0</ele><time>2026-04-06T14:47:28.789Z</time></trkpt><trkpt lat="44.0551247" lon="10.9061445"><ele>615.0</ele><time>2026-04-06T14:47:30.785Z</time></trkpt><trkpt lat="44.0550271" lon="10.9060635"><ele>615.0</ele><time>2026-04-06T14:47:31.797Z</time></trkpt><trkpt lat="44.0549112" lon="10.9060171"><ele>615.0</ele><time>2026-04-06T14:47:32.787Z</time></trkpt><trkpt lat="44.0548123" lon="10.9059702"><ele>615.0</ele><time>2026-04-06T14:47:33.791Z</time></trkpt><trkpt lat="44.054711" lon="10.9058887"><ele>614.6666666666666</ele><time>2026-04-06T14:47:34.789Z</time></trkpt><trkpt lat="44.0546048" lon="10.9057891"><ele>614.3333333333333</ele><time>2026-04-06T14:47:35.782Z</time></trkpt><trkpt lat="44.0545147" lon="10.9056878"><ele>614.0</ele><time>2026-04-06T14:47:36.787Z</time></trkpt><trkpt lat="44.0542922" lon="10.9053689"><ele>615.0</ele><time>2026-04-06T14:47:38.784Z</time></trkpt><trkpt lat="44.0539267" lon="10.9049703"><ele>615.0</ele><time>2026-04-06T14:47:41.787Z</time></trkpt><trkpt lat="44.0537955" lon="10.9048951"><ele>615.0</ele><time>2026-04-06T14:47:42.792Z</time></trkpt><trkpt lat="44.0536725" lon="10.904764"><ele>615.0</ele><time>2026-04-06T14:47:43.785Z</time></trkpt><trkpt lat="44.053527" lon="10.9046349"><ele>615.0</ele><time>2026-04-06T14:47:44.791Z</time></trkpt><trkpt lat="44.0533887" lon="10.9045402"><ele>615.0</ele><time>2026-04-06T14:47:45.785Z</time></trkpt><trkpt lat="44.0532444" lon="10.9044209"><ele>615.0</ele><time>2026-04-06T14:47:46.785Z</time></trkpt><trkpt lat="44.0530832" lon="10.9043313"><ele>617.0</ele><time>2026-04-06T14:47:47.788Z</time></trkpt><trkpt lat="44.0529042" lon="10.9042578"><ele>619.0</ele><time>2026-04-06T14:47:48.786Z</time></trkpt><trkpt lat="44.0527274" lon="10.9041701"><ele>621.0</ele><time>2026-04-06T14:47:49.787Z</time></trkpt><trkpt lat="44.052555" lon="10.9041113"><ele>622.6666666666666</ele><time>2026-04-06T14:47:50.79Z</time></trkpt><trkpt lat="44.0523903" lon="10.9040345"><ele>624.3333333333333</ele><time>2026-04-06T14:47:51.788Z</time></trkpt><trkpt lat="44.0522439" lon="10.904002"><ele>626.0</ele><time>2026-04-06T14:47:52.789Z</time></trkpt><trkpt lat="44.0520893" lon="10.9039805"><ele>626.0</ele><time>2026-04-06T14:47:53.785Z</time></trkpt><trkpt lat="44.051942" lon="10.9039337"><ele>626.0</ele><time>2026-04-06T14:47:54.789Z</time></trkpt><trkpt lat="44.0517792" lon="10.9038874"><ele>626.0</ele><time>2026-04-06T14:47:55.785Z</time></trkpt><trkpt lat="44.0516006" lon="10.9038327"><ele>629.3333333333333</ele><time>2026-04-06T14:47:56.783Z</time></trkpt><trkpt lat="44.0514328" lon="10.9037765"><ele>632.6666666666666</ele><time>2026-04-06T14:47:57.787Z</time></trkpt><trkpt lat="44.05127" lon="10.903705"><ele>636.0</ele><time>2026-04-06T14:47:58.787Z</time></trkpt><trkpt lat="44.0510901" lon="10.9036152"><ele>636.0</ele><time>2026-04-06T14:47:59.789Z</time></trkpt><trkpt lat="44.0509308" lon="10.9035475"><ele>636.0</ele><time>2026-04-06T14:48:00.786Z</time></trkpt><trkpt lat="44.0507748" lon="10.9034632"><ele>636.0</ele><time>2026-04-06T14:48:01.784Z</time></trkpt><trkpt lat="44.050641" lon="10.9034171"><ele>635.5</ele><time>2026-04-06T14:48:02.792Z</time></trkpt><trkpt lat="44.0505216" lon="10.9033349"><ele>635.0</ele><time>2026-04-06T14:48:03.785Z</time></trkpt><trkpt lat="44.0503999" lon="10.9032787"><ele>634.5</ele><time>2026-04-06T14:48:04.79Z</time></trkpt><trkpt lat="44.0503211" lon="10.9031194"><ele>634.0</ele><time>2026-04-06T14:48:05.784Z</time></trkpt><trkpt lat="44.0502374" lon="10.902954"><ele>634.0</ele><time>2026-04-06T14:48:06.795Z</time></trkpt><trkpt lat="44.0501659" lon="10.9027745"><ele>634.0</ele><time>2026-04-06T14:48:07.784Z</time></trkpt><trkpt lat="44.0500706" lon="10.9025911"><ele>634.0</ele><time>2026-04-06T14:48:08.789Z</time></trkpt><trkpt lat="44.0499634" lon="10.9023903"><ele>635.3333333333334</ele><time>2026-04-06T14:48:09.788Z</time></trkpt><trkpt lat="44.0498525" lon="10.9022287"><ele>636.6666666666666</ele><time>2026-04-06T14:48:10.784Z</time></trkpt><trkpt lat="44.0497324" lon="10.9020507"><ele>638.0</ele><time>2026-04-06T14:48:11.786Z</time></trkpt><trkpt lat="44.0496177" lon="10.9018665"><ele>635.0</ele><time>2026-04-06T14:48:12.79Z</time></trkpt><trkpt lat="44.0494922" lon="10.9016904"><ele>632.0</ele><time>2026-04-06T14:48:13.787Z</time></trkpt><trkpt lat="44.0493697" lon="10.901506"><ele>629.0</ele><time>2026-04-06T14:48:14.783Z</time></trkpt><trkpt lat="44.0492395" lon="10.9013298"><ele>630.0</ele><time>2026-04-06T14:48:15.79Z</time></trkpt><trkpt lat="44.0490968" lon="10.9011786"><ele>631.0</ele><time>2026-04-06T14:48:16.792Z</time></trkpt><trkpt lat="44.0489488" lon="10.901029"><ele>632.0</ele><time>2026-04-06T14:48:17.79Z</time></trkpt><trkpt lat="44.0488028" lon="10.9008848"><ele>632.0</ele><time>2026-04-06T14:48:18.784Z</time></trkpt><trkpt lat="44.0486393" lon="10.9007616"><ele>632.0</ele><time>2026-04-06T14:48:19.788Z</time></trkpt><trkpt lat="44.0484676" lon="10.9006574"><ele>632.0</ele><time>2026-04-06T14:48:20.788Z</time></trkpt><trkpt lat="44.0482894" lon="10.9005654"><ele>633.3333333333333</ele><time>2026-04-06T14:48:21.789Z</time></trkpt><trkpt lat="44.0481076" lon="10.9004909"><ele>634.6666666666666</ele><time>2026-04-06T14:48:22.785Z</time></trkpt><trkpt lat="44.047917" lon="10.9004153"><ele>636.0</ele><time>2026-04-06T14:48:23.782Z</time></trkpt><trkpt lat="44.0477333" lon="10.9003371"><ele>636.0</ele><time>2026-04-06T14:48:24.782Z</time></trkpt><trkpt lat="44.0475503" lon="10.9002487"><ele>636.0</ele><time>2026-04-06T14:48:25.784Z</time></trkpt><trkpt lat="44.0473502" lon="10.9001515"><ele>636.0</ele><time>2026-04-06T14:48:26.786Z</time></trkpt><trkpt lat="44.0471804" lon="10.9000693"><ele>638.0</ele><time>2026-04-06T14:48:27.784Z</time></trkpt><trkpt lat="44.0470166" lon="10.9000557"><ele>640.0</ele><time>2026-04-06T14:48:28.784Z</time></trkpt><trkpt lat="44.0468653" lon="10.8999842"><ele>642.0</ele><time>2026-04-06T14:48:29.784Z</time></trkpt><trkpt lat="44.0467348" lon="10.8999214"><ele>646.0</ele><time>2026-04-06T14:48:30.784Z</time></trkpt><trkpt lat="44.0466088" lon="10.8998422"><ele>650.0</ele><time>2026-04-06T14:48:31.79Z</time></trkpt><trkpt lat="44.0464862" lon="10.8997521"><ele>654.0</ele><time>2026-04-06T14:48:32.785Z</time></trkpt><trkpt lat="44.0463712" lon="10.8996654"><ele>658.0</ele><time>2026-04-06T14:48:33.792Z</time></trkpt><trkpt lat="44.0463151" lon="10.8994861"><ele>658.0</ele><time>2026-04-06T14:48:34.785Z</time></trkpt><trkpt lat="44.0462618" lon="10.8993091"><ele>658.0</ele><time>2026-04-06T14:48:35.781Z</time></trkpt><trkpt lat="44.0462419" lon="10.8991083"><ele>658.0</ele><time>2026-04-06T14:48:36.781Z</time></trkpt><trkpt lat="44.0462219" lon="10.8988919"><ele>658.0</ele><time>2026-04-06T14:48:37.786Z</time></trkpt><trkpt lat="44.0462245" lon="10.898624"><ele>650.0</ele><time>2026-04-06T14:48:38.781Z</time></trkpt><trkpt lat="44.0462516" lon="10.8982186"><ele>642.0</ele><time>2026-04-06T14:48:39.782Z</time></trkpt><trkpt lat="44.0462634" lon="10.8979913"><ele>642.0</ele><time>2026-04-06T14:48:40.777Z</time></trkpt><trkpt lat="44.046235" lon="10.8977476"><ele>642.0</ele><time>2026-04-06T14:48:41.78Z</time></trkpt><trkpt lat="44.0462314" lon="10.8975117"><ele>642.0</ele><time>2026-04-06T14:48:42.794Z</time></trkpt><trkpt lat="44.0461561" lon="10.8972958"><ele>641.6666666666666</ele><time>2026-04-06T14:48:43.789Z</time></trkpt><trkpt lat="44.0460844" lon="10.8970852"><ele>641.3333333333333</ele><time>2026-04-06T14:48:44.784Z</time></trkpt><trkpt lat="44.0459915" lon="10.8968854"><ele>641.0</ele><time>2026-04-06T14:48:45.788Z</time></trkpt><trkpt lat="44.0458991" lon="10.8966831"><ele>648.3333333333333</ele><time>2026-04-06T14:48:46.788Z</time></trkpt><trkpt lat="44.0457865" lon="10.8964716"><ele>655.6666666666666</ele><time>2026-04-06T14:48:47.779Z</time></trkpt><trkpt lat="44.0456331" lon="10.8963125"><ele>663.0</ele><time>2026-04-06T14:48:48.787Z</time></trkpt><trkpt lat="44.0454713" lon="10.8961679"><ele>663.0</ele><time>2026-04-06T14:48:49.785Z</time></trkpt><trkpt lat="44.0453199" lon="10.896022"><ele>663.0</ele><time>2026-04-06T14:48:50.78Z</time></trkpt><trkpt lat="44.0451824" lon="10.8958753"><ele>663.0</ele><time>2026-04-06T14:48:51.788Z</time></trkpt><trkpt lat="44.0450609" lon="10.8957531"><ele>665.5</ele><time>2026-04-06T14:48:52.791Z</time></trkpt><trkpt lat="44.0449573" lon="10.8956251"><ele>668.0</ele><time>2026-04-06T14:48:53.785Z</time></trkpt><trkpt lat="44.0448683" lon="10.8954358"><ele>670.5</ele><time>2026-04-06T14:48:54.785Z</time></trkpt><trkpt lat="44.0448085" lon="10.8952565"><ele>673.0</ele><time>2026-04-06T14:48:55.784Z</time></trkpt><trkpt lat="44.044745" lon="10.8950051"><ele>664.3333333333334</ele><time>2026-04-06T14:48:56.786Z</time></trkpt><trkpt lat="44.0446575" lon="10.8948346"><ele>655.6666666666666</ele><time>2026-04-06T14:48:57.786Z</time></trkpt><trkpt lat="44.0445403" lon="10.8946315"><ele>647.0</ele><time>2026-04-06T14:48:58.79Z</time></trkpt><trkpt lat="44.0443992" lon="10.8944529"><ele>647.0</ele><time>2026-04-06T14:48:59.788Z</time></trkpt><trkpt lat="44.0442489" lon="10.8942623"><ele>647.0</ele><time>2026-04-06T14:49:00.792Z</time></trkpt><trkpt lat="44.0441085" lon="10.8940685"><ele>647.0</ele><time>2026-04-06T14:49:01.785Z</time></trkpt><trkpt lat="44.0439424" lon="10.8938866"><ele>647.6666666666666</ele><time>2026-04-06T14:49:02.789Z</time></trkpt><trkpt lat="44.0437795" lon="10.8937333"><ele>648.3333333333334</ele><time>2026-04-06T14:49:03.791Z</time></trkpt><trkpt lat="44.0436267" lon="10.8935538"><ele>649.0</ele><time>2026-04-06T14:49:04.786Z</time></trkpt><trkpt lat="44.0434506" lon="10.8933874"><ele>651.6666666666667</ele><time>2026-04-06T14:49:05.786Z</time></trkpt><trkpt lat="44.0432892" lon="10.8932039"><ele>654.3333333333334</ele><time>2026-04-06T14:49:06.791Z</time></trkpt><trkpt lat="44.0431445" lon="10.8929973"><ele>657.0</ele><time>2026-04-06T14:49:07.785Z</time></trkpt><trkpt lat="44.0430205" lon="10.892745"><ele>654.6666666666666</ele><time>2026-04-06T14:49:08.784Z</time></trkpt><trkpt lat="44.0428733" lon="10.8925265"><ele>652.3333333333333</ele><time>2026-04-06T14:49:09.778Z</time></trkpt><trkpt lat="44.042721" lon="10.8923463"><ele>650.0</ele><time>2026-04-06T14:49:10.787Z</time></trkpt><trkpt lat="44.042596" lon="10.8921659"><ele>650.0</ele><time>2026-04-06T14:49:11.785Z</time></trkpt><trkpt lat="44.0424722" lon="10.8920012"><ele>650.0</ele><time>2026-04-06T14:49:12.782Z</time></trkpt><trkpt lat="44.0423701" lon="10.8918058"><ele>650.0</ele><time>2026-04-06T14:49:13.792Z</time></trkpt><trkpt lat="44.0422905" lon="10.8916158"><ele>649.75</ele><time>2026-04-06T14:49:14.786Z</time></trkpt><trkpt lat="44.042234" lon="10.891428"><ele>649.5</ele><time>2026-04-06T14:49:15.788Z</time></trkpt><trkpt lat="44.0422197" lon="10.8912078"><ele>649.25</ele><time>2026-04-06T14:49:16.782Z</time></trkpt><trkpt lat="44.0422564" lon="10.8910471"><ele>649.0</ele><time>2026-04-06T14:49:17.785Z</time></trkpt><trkpt lat="44.0423252" lon="10.8908312"><ele>649.0</ele><time>2026-04-06T14:49:18.788Z</time></trkpt><trkpt lat="44.0424484" lon="10.890521"><ele>649.0</ele><time>2026-04-06T14:49:19.788Z</time></trkpt><trkpt lat="44.0425455" lon="10.8902709"><ele>650.0</ele><time>2026-04-06T14:49:20.786Z</time></trkpt><trkpt lat="44.0426413" lon="10.8900474"><ele>651.0</ele><time>2026-04-06T14:49:21.779Z</time></trkpt><trkpt lat="44.0427187" lon="10.8898304"><ele>652.0</ele><time>2026-04-06T14:49:22.782Z</time></trkpt><trkpt lat="44.0427582" lon="10.8896099"><ele>652.0</ele><time>2026-04-06T14:49:23.783Z</time></trkpt><trkpt lat="44.0427793" lon="10.8893825"><ele>652.0</ele><time>2026-04-06T14:49:24.782Z</time></trkpt><trkpt lat="44.0427873" lon="10.8891546"><ele>652.0</ele><time>2026-04-06T14:49:25.788Z</time></trkpt><trkpt lat="44.0427575" lon="10.8888978"><ele>651.6666666666667</ele><time>2026-04-06T14:49:26.788Z</time></trkpt><trkpt lat="44.0427186" lon="10.8886181"><ele>651.3333333333334</ele><time>2026-04-06T14:49:27.781Z</time></trkpt><trkpt lat="44.042603" lon="10.8883631"><ele>651.0</ele><time>2026-04-06T14:49:28.785Z</time></trkpt><trkpt lat="44.0425175" lon="10.8881311"><ele>652.6666666666666</ele><time>2026-04-06T14:49:29.787Z</time></trkpt><trkpt lat="44.0424248" lon="10.887914"><ele>654.3333333333333</ele><time>2026-04-06T14:49:30.795Z</time></trkpt><trkpt lat="44.0422961" lon="10.8876831"><ele>656.0</ele><time>2026-04-06T14:49:31.784Z</time></trkpt><trkpt lat="44.042175" lon="10.8874526"><ele>656.0</ele><time>2026-04-06T14:49:32.787Z</time></trkpt><trkpt lat="44.0420601" lon="10.8872201"><ele>656.0</ele><time>2026-04-06T14:49:33.786Z</time></trkpt><trkpt lat="44.0419221" lon="10.8870036"><ele>656.0</ele><time>2026-04-06T14:49:34.783Z</time></trkpt><trkpt lat="44.0417918" lon="10.8867891"><ele>657.6666666666666</ele><time>2026-04-06T14:49:35.786Z</time></trkpt><trkpt lat="44.0416621" lon="10.8866164"><ele>659.3333333333334</ele><time>2026-04-06T14:49:36.786Z</time></trkpt><trkpt lat="44.0415198" lon="10.8864481"><ele>661.0</ele><time>2026-04-06T14:49:37.794Z</time></trkpt><trkpt lat="44.0413842" lon="10.8862948"><ele>661.6666666666667</ele><time>2026-04-06T14:49:38.785Z</time></trkpt><trkpt lat="44.0412515" lon="10.8861588"><ele>662.3333333333334</ele><time>2026-04-06T14:49:39.778Z</time></trkpt><trkpt lat="44.0411028" lon="10.8860674"><ele>663.0</ele><time>2026-04-06T14:49:40.777Z</time></trkpt><trkpt lat="44.0409575" lon="10.8860177"><ele>663.0</ele><time>2026-04-06T14:49:41.779Z</time></trkpt><trkpt lat="44.0408217" lon="10.8859744"><ele>663.0</ele><time>2026-04-06T14:49:42.788Z</time></trkpt><trkpt lat="44.0406835" lon="10.8859218"><ele>663.0</ele><time>2026-04-06T14:49:43.799Z</time></trkpt><trkpt lat="44.0405674" lon="10.8858558"><ele>663.0</ele><time>2026-04-06T14:49:44.781Z</time></trkpt><trkpt lat="44.0404508" lon="10.8857796"><ele>662.0</ele><time>2026-04-06T14:49:45.786Z</time></trkpt><trkpt lat="44.0403529" lon="10.885727"><ele>661.0</ele><time>2026-04-06T14:49:46.777Z</time></trkpt><trkpt lat="44.0402839" lon="10.8856249"><ele>660.0</ele><time>2026-04-06T14:49:47.79Z</time></trkpt><trkpt lat="44.0402275" lon="10.8855031"><ele>659.0</ele><time>2026-04-06T14:49:48.782Z</time></trkpt><trkpt lat="44.0402049" lon="10.8853282"><ele>658.0</ele><time>2026-04-06T14:49:49.805Z</time></trkpt><trkpt lat="44.0402097" lon="10.8851307"><ele>658.0</ele><time>2026-04-06T14:49:50.805Z</time></trkpt><trkpt lat="44.0402022" lon="10.8849457"><ele>658.0</ele><time>2026-04-06T14:49:51.785Z</time></trkpt><trkpt lat="44.0401892" lon="10.884826"><ele>658.0</ele><time>2026-04-06T14:49:52.779Z</time></trkpt><trkpt lat="44.040164" lon="10.8847381"><ele>658.0</ele><time>2026-04-06T14:49:53.79Z</time></trkpt><trkpt lat="44.0400685" lon="10.8846335"><ele>658.0</ele><time>2026-04-06T14:49:55.786Z</time></trkpt><trkpt lat="44.0399877" lon="10.8846222"><ele>658.25</ele><time>2026-04-06T14:49:56.786Z</time></trkpt><trkpt lat="44.0399057" lon="10.8846302"><ele>658.5</ele><time>2026-04-06T14:49:57.785Z</time></trkpt><trkpt lat="44.0397775" lon="10.8846763"><ele>658.75</ele><time>2026-04-06T14:49:58.784Z</time></trkpt><trkpt lat="44.0396612" lon="10.8847061"><ele>659.0</ele><time>2026-04-06T14:49:59.783Z</time></trkpt><trkpt lat="44.0395397" lon="10.8846729"><ele>659.0</ele><time>2026-04-06T14:50:00.789Z</time></trkpt><trkpt lat="44.0394268" lon="10.8846232"><ele>659.0</ele><time>2026-04-06T14:50:01.783Z</time></trkpt><trkpt lat="44.0393121" lon="10.8845549"><ele>659.0</ele><time>2026-04-06T14:50:02.794Z</time></trkpt><trkpt lat="44.0392095" lon="10.8844883"><ele>659.0</ele><time>2026-04-06T14:50:03.788Z</time></trkpt><trkpt lat="44.0391523" lon="10.8843539"><ele>659.2</ele><time>2026-04-06T14:50:04.781Z</time></trkpt><trkpt lat="44.0390945" lon="10.8842257"><ele>659.4000000000001</ele><time>2026-04-06T14:50:05.791Z</time></trkpt><trkpt lat="44.039036" lon="10.8841126"><ele>659.6</ele><time>2026-04-06T14:50:06.784Z</time></trkpt><trkpt lat="44.0389599" lon="10.8840007"><ele>659.8</ele><time>2026-04-06T14:50:07.784Z</time></trkpt><trkpt lat="44.0388979" lon="10.8838648"><ele>660.0</ele><time>2026-04-06T14:50:08.784Z</time></trkpt><trkpt lat="44.0388157" lon="10.883754"><ele>660.0</ele><time>2026-04-06T14:50:09.786Z</time></trkpt><trkpt lat="44.0387526" lon="10.8836328"><ele>660.0</ele><time>2026-04-06T14:50:10.78Z</time></trkpt><trkpt lat="44.038674" lon="10.8835272"><ele>660.0</ele><time>2026-04-06T14:50:11.781Z</time></trkpt><trkpt lat="44.0385986" lon="10.8834169"><ele>660.0</ele><time>2026-04-06T14:50:12.788Z</time></trkpt><trkpt lat="44.0385322" lon="10.8833191"><ele>660.0</ele><time>2026-04-06T14:50:13.784Z</time></trkpt><trkpt lat="44.0384784" lon="10.8832258"><ele>660.0</ele><time>2026-04-06T14:50:14.782Z</time></trkpt><trkpt lat="44.038424" lon="10.883143"><ele>660.0</ele><time>2026-04-06T14:50:15.778Z</time></trkpt><trkpt lat="44.0383735" lon="10.8830517"><ele>660.0</ele><time>2026-04-06T14:50:16.784Z</time></trkpt><trkpt lat="44.0383242" lon="10.8829787"><ele>660.0</ele><time>2026-04-06T14:50:17.783Z</time></trkpt><trkpt lat="44.0382611" lon="10.882876"><ele>660.0</ele><time>2026-04-06T14:50:19.783Z</time></trkpt><trkpt lat="44.0382032" lon="10.8828081"><ele>660.0</ele><time>2026-04-06T14:50:21.785Z</time></trkpt><trkpt lat="44.0381488" lon="10.882722"><ele>660.0</ele><time>2026-04-06T14:50:24.784Z</time></trkpt><trkpt lat="44.0380896" lon="10.8826786"><ele>660.0</ele><time>2026-04-06T14:50:27.783Z</time></trkpt><trkpt lat="44.0379874" lon="10.8826692"><ele>660.0</ele><time>2026-04-06T14:50:42.792Z</time></trkpt><trkpt lat="44.0379217" lon="10.8826778"><ele>660.0</ele><time>2026-04-06T14:50:43.787Z</time></trkpt><trkpt lat="44.0378326" lon="10.8826233"><ele>660.0</ele><time>2026-04-06T14:50:44.792Z</time></trkpt><trkpt lat="44.0377422" lon="10.8825382"><ele>660.0</ele><time>2026-04-06T14:50:45.79Z</time></trkpt><trkpt lat="44.0375948" lon="10.8823606"><ele>662.0</ele><time>2026-04-06T14:50:46.785Z</time></trkpt><trkpt lat="44.0374826" lon="10.8822241"><ele>664.0</ele><time>2026-04-06T14:50:47.783Z</time></trkpt><trkpt lat="44.0373605" lon="10.8820669"><ele>666.0</ele><time>2026-04-06T14:50:48.794Z</time></trkpt><trkpt lat="44.0372425" lon="10.8819291"><ele>666.6666666666666</ele><time>2026-04-06T14:50:49.783Z</time></trkpt><trkpt lat="44.0371312" lon="10.881753"><ele>667.3333333333333</ele><time>2026-04-06T14:50:50.781Z</time></trkpt><trkpt lat="44.0370451" lon="10.8815699"><ele>668.0</ele><time>2026-04-06T14:50:51.794Z</time></trkpt><trkpt lat="44.0369525" lon="10.881357"><ele>668.0</ele><time>2026-04-06T14:50:52.783Z</time></trkpt><trkpt lat="44.0368717" lon="10.8811442"><ele>668.0</ele><time>2026-04-06T14:50:53.784Z</time></trkpt><trkpt lat="44.0368081" lon="10.8809008"><ele>668.0</ele><time>2026-04-06T14:50:54.783Z</time></trkpt><trkpt lat="44.0367895" lon="10.8806593"><ele>668.6666666666666</ele><time>2026-04-06T14:50:55.79Z</time></trkpt><trkpt lat="44.0367823" lon="10.8804098"><ele>669.3333333333334</ele><time>2026-04-06T14:50:56.783Z</time></trkpt><trkpt lat="44.0367569" lon="10.8802056"><ele>670.0</ele><time>2026-04-06T14:50:57.787Z</time></trkpt><trkpt lat="44.0367039" lon="10.880014"><ele>670.3333333333334</ele><time>2026-04-06T14:50:58.784Z</time></trkpt><trkpt lat="44.0365796" lon="10.8798302"><ele>670.6666666666666</ele><time>2026-04-06T14:50:59.785Z</time></trkpt><trkpt lat="44.0364516" lon="10.8796236"><ele>671.0</ele><time>2026-04-06T14:51:00.782Z</time></trkpt><trkpt lat="44.03632" lon="10.8794216"><ele>670.6666666666666</ele><time>2026-04-06T14:51:01.786Z</time></trkpt><trkpt lat="44.0361937" lon="10.8792217"><ele>670.3333333333334</ele><time>2026-04-06T14:51:02.783Z</time></trkpt><trkpt lat="44.0360597" lon="10.8790202"><ele>670.0</ele><time>2026-04-06T14:51:03.787Z</time></trkpt><trkpt lat="44.0359148" lon="10.8788196"><ele>669.3333333333334</ele><time>2026-04-06T14:51:04.785Z</time></trkpt><trkpt lat="44.0357612" lon="10.8786383"><ele>668.6666666666666</ele><time>2026-04-06T14:51:05.782Z</time></trkpt><trkpt lat="44.0356266" lon="10.8784669"><ele>668.0</ele><time>2026-04-06T14:51:06.786Z</time></trkpt><trkpt lat="44.0354907" lon="10.8783188"><ele>668.0</ele><time>2026-04-06T14:51:07.782Z</time></trkpt><trkpt lat="44.0353499" lon="10.878203"><ele>668.0</ele><time>2026-04-06T14:51:08.784Z</time></trkpt><trkpt lat="44.0351887" lon="10.8780896"><ele>668.0</ele><time>2026-04-06T14:51:09.783Z</time></trkpt><trkpt lat="44.0350295" lon="10.8779675"><ele>668.3333333333333</ele><time>2026-04-06T14:51:10.787Z</time></trkpt><trkpt lat="44.0348769" lon="10.8778377"><ele>668.6666666666666</ele><time>2026-04-06T14:51:11.791Z</time></trkpt><trkpt lat="44.0347202" lon="10.8777115"><ele>669.0</ele><time>2026-04-06T14:51:12.786Z</time></trkpt><trkpt lat="44.034569" lon="10.8775969"><ele>669.0</ele><time>2026-04-06T14:51:13.782Z</time></trkpt><trkpt lat="44.034416" lon="10.8774699"><ele>669.0</ele><time>2026-04-06T14:51:14.784Z</time></trkpt><trkpt lat="44.0342942" lon="10.8773855"><ele>669.0</ele><time>2026-04-06T14:51:15.783Z</time></trkpt><trkpt lat="44.0341636" lon="10.8772223"><ele>670.3333333333334</ele><time>2026-04-06T14:51:16.782Z</time></trkpt><trkpt lat="44.034041" lon="10.8770647"><ele>671.6666666666667</ele><time>2026-04-06T14:51:17.784Z</time></trkpt><trkpt lat="44.0339206" lon="10.8769434"><ele>673.0</ele><time>2026-04-06T14:51:18.778Z</time></trkpt><trkpt lat="44.0337927" lon="10.8767281"><ele>673.0</ele><time>2026-04-06T14:51:19.787Z</time></trkpt><trkpt lat="44.0336788" lon="10.8764798"><ele>673.0</ele><time>2026-04-06T14:51:20.782Z</time></trkpt><trkpt lat="44.0335342" lon="10.8762881"><ele>673.0</ele><time>2026-04-06T14:51:21.785Z</time></trkpt><trkpt lat="44.0333923" lon="10.8761021"><ele>671.0</ele><time>2026-04-06T14:51:22.784Z</time></trkpt><trkpt lat="44.0332447" lon="10.8758822"><ele>669.0</ele><time>2026-04-06T14:51:23.785Z</time></trkpt><trkpt lat="44.0330751" lon="10.8756292"><ele>669.0</ele><time>2026-04-06T14:51:24.78Z</time></trkpt><trkpt lat="44.0328954" lon="10.8754068"><ele>669.0</ele><time>2026-04-06T14:51:25.778Z</time></trkpt><trkpt lat="44.0327342" lon="10.8751839"><ele>669.3333333333334</ele><time>2026-04-06T14:51:26.792Z</time></trkpt><trkpt lat="44.0325853" lon="10.8749721"><ele>669.6666666666667</ele><time>2026-04-06T14:51:27.786Z</time></trkpt><trkpt lat="44.0324457" lon="10.8747603"><ele>670.0</ele><time>2026-04-06T14:51:28.787Z</time></trkpt><trkpt lat="44.0323242" lon="10.8745598"><ele>670.0</ele><time>2026-04-06T14:51:29.789Z</time></trkpt><trkpt lat="44.0321669" lon="10.8743607"><ele>670.0</ele><time>2026-04-06T14:51:30.782Z</time></trkpt><trkpt lat="44.0320155" lon="10.8741684"><ele>670.0</ele><time>2026-04-06T14:51:31.781Z</time></trkpt><trkpt lat="44.0318837" lon="10.8739907"><ele>670.0</ele><time>2026-04-06T14:51:32.781Z</time></trkpt><trkpt lat="44.0317709" lon="10.8738144"><ele>670.0</ele><time>2026-04-06T14:51:33.786Z</time></trkpt><trkpt lat="44.0316461" lon="10.8736514"><ele>670.0</ele><time>2026-04-06T14:51:34.793Z</time></trkpt><trkpt lat="44.0315275" lon="10.8734873"><ele>670.0</ele><time>2026-04-06T14:51:35.78Z</time></trkpt><trkpt lat="44.0314062" lon="10.873339"><ele>670.0</ele><time>2026-04-06T14:51:36.782Z</time></trkpt><trkpt lat="44.0312856" lon="10.8731939"><ele>670.0</ele><time>2026-04-06T14:51:37.78Z</time></trkpt><trkpt lat="44.0311754" lon="10.8730616"><ele>670.0</ele><time>2026-04-06T14:51:38.82Z</time></trkpt><trkpt lat="44.0310611" lon="10.8729382"><ele>670.0</ele><time>2026-04-06T14:51:39.782Z</time></trkpt><trkpt lat="44.0309438" lon="10.8728523"><ele>670.0</ele><time>2026-04-06T14:51:40.784Z</time></trkpt><trkpt lat="44.0308114" lon="10.8727986"><ele>670.0</ele><time>2026-04-06T14:51:41.787Z</time></trkpt><trkpt lat="44.0306809" lon="10.8727305"><ele>670.3333333333334</ele><time>2026-04-06T14:51:42.785Z</time></trkpt><trkpt lat="44.0305322" lon="10.8727058"><ele>670.6666666666666</ele><time>2026-04-06T14:51:43.783Z</time></trkpt><trkpt lat="44.0303704" lon="10.8726388"><ele>671.0</ele><time>2026-04-06T14:51:44.785Z</time></trkpt><trkpt lat="44.0302268" lon="10.8725861"><ele>671.5</ele><time>2026-04-06T14:51:45.789Z</time></trkpt><trkpt lat="44.0300846" lon="10.8725517"><ele>672.0</ele><time>2026-04-06T14:51:46.784Z</time></trkpt><trkpt lat="44.0299491" lon="10.8725131"><ele>672.5</ele><time>2026-04-06T14:51:47.782Z</time></trkpt><trkpt lat="44.0298252" lon="10.8724596"><ele>673.0</ele><time>2026-04-06T14:51:48.783Z</time></trkpt><trkpt lat="44.0297" lon="10.8724021"><ele>673.0</ele><time>2026-04-06T14:51:49.794Z</time></trkpt><trkpt lat="44.0295649" lon="10.8723584"><ele>673.0</ele><time>2026-04-06T14:51:50.784Z</time></trkpt><trkpt lat="44.0294362" lon="10.8723308"><ele>673.0</ele><time>2026-04-06T14:51:51.784Z</time></trkpt><trkpt lat="44.0292979" lon="10.8723021"><ele>673.0</ele><time>2026-04-06T14:51:52.785Z</time></trkpt><trkpt lat="44.0291583" lon="10.8722752"><ele>672.75</ele><time>2026-04-06T14:51:53.781Z</time></trkpt><trkpt lat="44.0290311" lon="10.8722494"><ele>672.5</ele><time>2026-04-06T14:51:54.78Z</time></trkpt><trkpt lat="44.0289052" lon="10.8722173"><ele>672.25</ele><time>2026-04-06T14:51:55.78Z</time></trkpt><trkpt lat="44.0287823" lon="10.8721823"><ele>672.0</ele><time>2026-04-06T14:51:56.782Z</time></trkpt><trkpt lat="44.0286572" lon="10.8721671"><ele>672.0</ele><time>2026-04-06T14:51:57.782Z</time></trkpt><trkpt lat="44.0285393" lon="10.8721149"><ele>672.0</ele><time>2026-04-06T14:51:58.783Z</time></trkpt><trkpt lat="44.02842" lon="10.8720795"><ele>672.0</ele><time>2026-04-06T14:51:59.782Z</time></trkpt><trkpt lat="44.0283121" lon="10.8720425"><ele>672.0</ele><time>2026-04-06T14:52:00.782Z</time></trkpt><trkpt lat="44.0282052" lon="10.8720075"><ele>671.5</ele><time>2026-04-06T14:52:01.783Z</time></trkpt><trkpt lat="44.0281016" lon="10.8719206"><ele>671.0</ele><time>2026-04-06T14:52:02.783Z</time></trkpt><trkpt lat="44.0280028" lon="10.8718307"><ele>670.5</ele><time>2026-04-06T14:52:03.784Z</time></trkpt><trkpt lat="44.0278968" lon="10.8716948"><ele>670.0</ele><time>2026-04-06T14:52:04.783Z</time></trkpt><trkpt lat="44.0277974" lon="10.8715413"><ele>670.3333333333334</ele><time>2026-04-06T14:52:05.792Z</time></trkpt><trkpt lat="44.0276854" lon="10.8713737"><ele>670.6666666666666</ele><time>2026-04-06T14:52:06.781Z</time></trkpt><trkpt lat="44.0275566" lon="10.8711886"><ele>671.0</ele><time>2026-04-06T14:52:07.783Z</time></trkpt><trkpt lat="44.0274134" lon="10.8710194"><ele>672.0</ele><time>2026-04-06T14:52:08.781Z</time></trkpt><trkpt lat="44.0272481" lon="10.8708299"><ele>673.0</ele><time>2026-04-06T14:52:09.789Z</time></trkpt><trkpt lat="44.02708" lon="10.8706374"><ele>674.0</ele><time>2026-04-06T14:52:10.793Z</time></trkpt><trkpt lat="44.0269102" lon="10.870414"><ele>674.0</ele><time>2026-04-06T14:52:11.784Z</time></trkpt><trkpt lat="44.026746" lon="10.8701714"><ele>674.0</ele><time>2026-04-06T14:52:12.784Z</time></trkpt><trkpt lat="44.0266164" lon="10.8699351"><ele>674.3333333333333</ele><time>2026-04-06T14:52:13.785Z</time></trkpt><trkpt lat="44.0264536" lon="10.8697377"><ele>674.6666666666666</ele><time>2026-04-06T14:52:14.787Z</time></trkpt><trkpt lat="44.0263065" lon="10.8695398"><ele>675.0</ele><time>2026-04-06T14:52:15.784Z</time></trkpt><trkpt lat="44.0261662" lon="10.86935"><ele>676.0</ele><time>2026-04-06T14:52:16.784Z</time></trkpt><trkpt lat="44.0260477" lon="10.8691439"><ele>677.0</ele><time>2026-04-06T14:52:17.784Z</time></trkpt><trkpt lat="44.0259258" lon="10.8689609"><ele>678.0</ele><time>2026-04-06T14:52:18.784Z</time></trkpt><trkpt lat="44.0258038" lon="10.8687895"><ele>678.0</ele><time>2026-04-06T14:52:19.782Z</time></trkpt><trkpt lat="44.025692" lon="10.8686531"><ele>678.0</ele><time>2026-04-06T14:52:20.784Z</time></trkpt><trkpt lat="44.0255886" lon="10.868501"><ele>678.0</ele><time>2026-04-06T14:52:21.781Z</time></trkpt><trkpt lat="44.0254979" lon="10.8683569"><ele>678.0</ele><time>2026-04-06T14:52:22.784Z</time></trkpt><trkpt lat="44.025402" lon="10.8682244"><ele>677.75</ele><time>2026-04-06T14:52:23.784Z</time></trkpt><trkpt lat="44.0253119" lon="10.8680976"><ele>677.5</ele><time>2026-04-06T14:52:24.789Z</time></trkpt><trkpt lat="44.0252242" lon="10.8679724"><ele>677.25</ele><time>2026-04-06T14:52:25.785Z</time></trkpt><trkpt lat="44.025124" lon="10.8678652"><ele>677.0</ele><time>2026-04-06T14:52:26.788Z</time></trkpt><trkpt lat="44.0250015" lon="10.8678267"><ele>680.0</ele><time>2026-04-06T14:52:27.782Z</time></trkpt><trkpt lat="44.0248716" lon="10.867766"><ele>683.0</ele><time>2026-04-06T14:52:28.789Z</time></trkpt><trkpt lat="44.0247249" lon="10.867701"><ele>686.0</ele><time>2026-04-06T14:52:29.784Z</time></trkpt><trkpt lat="44.0245546" lon="10.8676222"><ele>685.3333333333333</ele><time>2026-04-06T14:52:30.783Z</time></trkpt><trkpt lat="44.0243817" lon="10.8675418"><ele>684.6666666666666</ele><time>2026-04-06T14:52:31.784Z</time></trkpt><trkpt lat="44.0241847" lon="10.8674334"><ele>684.0</ele><time>2026-04-06T14:52:32.782Z</time></trkpt><trkpt lat="44.0239777" lon="10.8673241"><ele>684.0</ele><time>2026-04-06T14:52:33.784Z</time></trkpt><trkpt lat="44.0237685" lon="10.8672212"><ele>684.0</ele><time>2026-04-06T14:52:34.789Z</time></trkpt><trkpt lat="44.0235613" lon="10.8670943"><ele>684.0</ele><time>2026-04-06T14:52:35.785Z</time></trkpt><trkpt lat="44.023361" lon="10.8669823"><ele>684.6666666666666</ele><time>2026-04-06T14:52:36.781Z</time></trkpt><trkpt lat="44.0231672" lon="10.8668738"><ele>685.3333333333333</ele><time>2026-04-06T14:52:37.784Z</time></trkpt><trkpt lat="44.0229914" lon="10.8667849"><ele>686.0</ele><time>2026-04-06T14:52:38.779Z</time></trkpt><trkpt lat="44.0228248" lon="10.8666869"><ele>686.0</ele><time>2026-04-06T14:52:39.779Z</time></trkpt><trkpt lat="44.022675" lon="10.8666019"><ele>686.0</ele><time>2026-04-06T14:52:40.783Z</time></trkpt><trkpt lat="44.0225397" lon="10.8665263"><ele>686.0</ele><time>2026-04-06T14:52:41.783Z</time></trkpt><trkpt lat="44.0224044" lon="10.8664623"><ele>686.75</ele><time>2026-04-06T14:52:42.785Z</time></trkpt><trkpt lat="44.0222777" lon="10.8663888"><ele>687.5</ele><time>2026-04-06T14:52:43.785Z</time></trkpt><trkpt lat="44.0221543" lon="10.8663244"><ele>688.25</ele><time>2026-04-06T14:52:44.784Z</time></trkpt><trkpt lat="44.0220324" lon="10.8662599"><ele>689.0</ele><time>2026-04-06T14:52:45.783Z</time></trkpt><trkpt lat="44.0219085" lon="10.8662144"><ele>689.0</ele><time>2026-04-06T14:52:46.783Z</time></trkpt><trkpt lat="44.0217848" lon="10.8662006"><ele>689.0</ele><time>2026-04-06T14:52:47.781Z</time></trkpt><trkpt lat="44.0216469" lon="10.8662007"><ele>689.0</ele><time>2026-04-06T14:52:48.783Z</time></trkpt><trkpt lat="44.0215158" lon="10.8662049"><ele>689.0</ele><time>2026-04-06T14:52:49.781Z</time></trkpt><trkpt lat="44.0213764" lon="10.8662166"><ele>689.5</ele><time>2026-04-06T14:52:50.783Z</time></trkpt><trkpt lat="44.021236" lon="10.8662381"><ele>690.0</ele><time>2026-04-06T14:52:51.782Z</time></trkpt><trkpt lat="44.0210952" lon="10.8662453"><ele>690.5</ele><time>2026-04-06T14:52:52.783Z</time></trkpt><trkpt lat="44.0209567" lon="10.8662528"><ele>691.0</ele><time>2026-04-06T14:52:53.785Z</time></trkpt><trkpt lat="44.0208295" lon="10.8662433"><ele>693.5</ele><time>2026-04-06T14:52:54.78Z</time></trkpt><trkpt lat="44.0206925" lon="10.8661892"><ele>696.0</ele><time>2026-04-06T14:52:55.783Z</time></trkpt><trkpt lat="44.0205549" lon="10.8661273"><ele>698.5</ele><time>2026-04-06T14:52:56.783Z</time></trkpt><trkpt lat="44.0204139" lon="10.8660717"><ele>701.0</ele><time>2026-04-06T14:52:57.784Z</time></trkpt><trkpt lat="44.0202805" lon="10.8660125"><ele>701.0</ele><time>2026-04-06T14:52:58.791Z</time></trkpt><trkpt lat="44.0201442" lon="10.8659609"><ele>701.0</ele><time>2026-04-06T14:52:59.777Z</time></trkpt><trkpt lat="44.0200277" lon="10.865896"><ele>701.0</ele><time>2026-04-06T14:53:00.784Z</time></trkpt><trkpt lat="44.019912" lon="10.865825"><ele>701.0</ele><time>2026-04-06T14:53:01.784Z</time></trkpt><trkpt lat="44.0197967" lon="10.8657305"><ele>699.3333333333333</ele><time>2026-04-06T14:53:02.781Z</time></trkpt><trkpt lat="44.0196809" lon="10.8656028"><ele>697.6666666666666</ele><time>2026-04-06T14:53:03.787Z</time></trkpt><trkpt lat="44.0195542" lon="10.8654533"><ele>696.0</ele><time>2026-04-06T14:53:04.781Z</time></trkpt><trkpt lat="44.0194163" lon="10.8652653"><ele>696.0</ele><time>2026-04-06T14:53:05.787Z</time></trkpt><trkpt lat="44.0192702" lon="10.8650781"><ele>696.0</ele><time>2026-04-06T14:53:06.791Z</time></trkpt><trkpt lat="44.0191301" lon="10.8648301"><ele>696.0</ele><time>2026-04-06T14:53:07.784Z</time></trkpt><trkpt lat="44.0190066" lon="10.8645996"><ele>694.3333333333334</ele><time>2026-04-06T14:53:08.794Z</time></trkpt><trkpt lat="44.0188888" lon="10.8644202"><ele>692.6666666666667</ele><time>2026-04-06T14:53:09.782Z</time></trkpt><trkpt lat="44.0187618" lon="10.8642462"><ele>691.0</ele><time>2026-04-06T14:53:10.782Z</time></trkpt><trkpt lat="44.0186465" lon="10.8640747"><ele>691.0</ele><time>2026-04-06T14:53:11.783Z</time></trkpt><trkpt lat="44.0185135" lon="10.8639143"><ele>691.0</ele><time>2026-04-06T14:53:12.788Z</time></trkpt><trkpt lat="44.0183761" lon="10.8638039"><ele>691.0</ele><time>2026-04-06T14:53:13.789Z</time></trkpt><trkpt lat="44.0182407" lon="10.8636645"><ele>691.0</ele><time>2026-04-06T14:53:14.785Z</time></trkpt><trkpt lat="44.0180718" lon="10.863596"><ele>691.0</ele><time>2026-04-06T14:53:15.782Z</time></trkpt><trkpt lat="44.0178904" lon="10.8635435"><ele>691.0</ele><time>2026-04-06T14:53:16.784Z</time></trkpt><trkpt lat="44.0177109" lon="10.8634767"><ele>693.0</ele><time>2026-04-06T14:53:17.79Z</time></trkpt><trkpt lat="44.0175488" lon="10.8634204"><ele>695.0</ele><time>2026-04-06T14:53:18.782Z</time></trkpt><trkpt lat="44.0173952" lon="10.8633514"><ele>697.0</ele><time>2026-04-06T14:53:19.783Z</time></trkpt><trkpt lat="44.017266" lon="10.8632706"><ele>697.0</ele><time>2026-04-06T14:53:20.782Z</time></trkpt><trkpt lat="44.017129" lon="10.8631784"><ele>697.0</ele><time>2026-04-06T14:53:21.783Z</time></trkpt><trkpt lat="44.0170361" lon="10.863061"><ele>697.0</ele><time>2026-04-06T14:53:22.785Z</time></trkpt><trkpt lat="44.0169428" lon="10.8629108"><ele>697.0</ele><time>2026-04-06T14:53:23.785Z</time></trkpt><trkpt lat="44.0168248" lon="10.8627836"><ele>697.0</ele><time>2026-04-06T14:53:24.783Z</time></trkpt><trkpt lat="44.0167036" lon="10.8626276"><ele>697.0</ele><time>2026-04-06T14:53:25.781Z</time></trkpt><trkpt lat="44.016566" lon="10.8623796"><ele>697.0</ele><time>2026-04-06T14:53:26.78Z</time></trkpt><trkpt lat="44.0164154" lon="10.8621505"><ele>698.0</ele><time>2026-04-06T14:53:27.785Z</time></trkpt><trkpt lat="44.0162604" lon="10.8619209"><ele>699.0</ele><time>2026-04-06T14:53:28.784Z</time></trkpt><trkpt lat="44.0160937" lon="10.861688"><ele>700.3333333333334</ele><time>2026-04-06T14:53:29.784Z</time></trkpt><trkpt lat="44.0159466" lon="10.8614621"><ele>701.6666666666667</ele><time>2026-04-06T14:53:30.788Z</time></trkpt><trkpt lat="44.0158024" lon="10.861243"><ele>703.0</ele><time>2026-04-06T14:53:31.79Z</time></trkpt><trkpt lat="44.0156588" lon="10.8610164"><ele>699.6666666666667</ele><time>2026-04-06T14:53:32.784Z</time></trkpt><trkpt lat="44.0155464" lon="10.8607765"><ele>696.3333333333334</ele><time>2026-04-06T14:53:33.788Z</time></trkpt><trkpt lat="44.015434" lon="10.8605374"><ele>693.0</ele><time>2026-04-06T14:53:34.789Z</time></trkpt><trkpt lat="44.0153211" lon="10.8603276"><ele>693.0</ele><time>2026-04-06T14:53:35.779Z</time></trkpt><trkpt lat="44.0152115" lon="10.8601202"><ele>693.0</ele><time>2026-04-06T14:53:36.785Z</time></trkpt><trkpt lat="44.0151234" lon="10.8599082"><ele>693.0</ele><time>2026-04-06T14:53:37.784Z</time></trkpt><trkpt lat="44.0150197" lon="10.8596986"><ele>694.3333333333334</ele><time>2026-04-06T14:53:38.783Z</time></trkpt><trkpt lat="44.0149122" lon="10.8595119"><ele>695.6666666666667</ele><time>2026-04-06T14:53:39.792Z</time></trkpt><trkpt lat="44.0147725" lon="10.8593332"><ele>697.0</ele><time>2026-04-06T14:53:40.788Z</time></trkpt><trkpt lat="44.0146405" lon="10.8591591"><ele>697.0</ele><time>2026-04-06T14:53:41.787Z</time></trkpt><trkpt lat="44.0144999" lon="10.858999"><ele>697.0</ele><time>2026-04-06T14:53:42.781Z</time></trkpt><trkpt lat="44.0143492" lon="10.858861"><ele>697.0</ele><time>2026-04-06T14:53:43.782Z</time></trkpt><trkpt lat="44.0141909" lon="10.8587119"><ele>698.0</ele><time>2026-04-06T14:53:44.787Z</time></trkpt><trkpt lat="44.0140368" lon="10.8585859"><ele>699.0</ele><time>2026-04-06T14:53:45.785Z</time></trkpt><trkpt lat="44.0138774" lon="10.8584547"><ele>700.0</ele><time>2026-04-06T14:53:46.786Z</time></trkpt><trkpt lat="44.0137381" lon="10.8583244"><ele>700.0</ele><time>2026-04-06T14:53:47.784Z</time></trkpt><trkpt lat="44.0136163" lon="10.8581716"><ele>700.0</ele><time>2026-04-06T14:53:48.782Z</time></trkpt><trkpt lat="44.0134956" lon="10.8580063"><ele>700.0</ele><time>2026-04-06T14:53:49.781Z</time></trkpt><trkpt lat="44.0133626" lon="10.8578341"><ele>699.6666666666667</ele><time>2026-04-06T14:53:50.785Z</time></trkpt><trkpt lat="44.0132296" lon="10.8576846"><ele>699.3333333333334</ele><time>2026-04-06T14:53:51.783Z</time></trkpt><trkpt lat="44.0130861" lon="10.8575538"><ele>699.0</ele><time>2026-04-06T14:53:52.786Z</time></trkpt><trkpt lat="44.0129333" lon="10.8574154"><ele>699.0</ele><time>2026-04-06T14:53:53.788Z</time></trkpt><trkpt lat="44.0127743" lon="10.8573024"><ele>699.0</ele><time>2026-04-06T14:53:54.782Z</time></trkpt><trkpt lat="44.0126097" lon="10.8571992"><ele>699.0</ele><time>2026-04-06T14:53:55.788Z</time></trkpt><trkpt lat="44.0124501" lon="10.857085"><ele>698.6666666666666</ele><time>2026-04-06T14:53:56.792Z</time></trkpt><trkpt lat="44.0122934" lon="10.8569755"><ele>698.3333333333333</ele><time>2026-04-06T14:53:57.785Z</time></trkpt><trkpt lat="44.0121549" lon="10.8568622"><ele>698.0</ele><time>2026-04-06T14:53:58.785Z</time></trkpt><trkpt lat="44.0120307" lon="10.8567338"><ele>698.6666666666666</ele><time>2026-04-06T14:53:59.782Z</time></trkpt><trkpt lat="44.0119267" lon="10.8565695"><ele>699.3333333333334</ele><time>2026-04-06T14:54:00.785Z</time></trkpt><trkpt lat="44.0118409" lon="10.856365"><ele>700.0</ele><time>2026-04-06T14:54:01.783Z</time></trkpt><trkpt lat="44.011755" lon="10.8561602"><ele>700.6666666666667</ele><time>2026-04-06T14:54:02.783Z</time></trkpt><trkpt lat="44.0116814" lon="10.8559294"><ele>701.3333333333334</ele><time>2026-04-06T14:54:03.782Z</time></trkpt><trkpt lat="44.0115732" lon="10.8557071"><ele>702.0</ele><time>2026-04-06T14:54:04.783Z</time></trkpt><trkpt lat="44.0114684" lon="10.8554913"><ele>702.0</ele><time>2026-04-06T14:54:05.783Z</time></trkpt><trkpt lat="44.0113741" lon="10.8552364"><ele>702.0</ele><time>2026-04-06T14:54:06.791Z</time></trkpt><trkpt lat="44.0112866" lon="10.8549828"><ele>702.0</ele><time>2026-04-06T14:54:07.779Z</time></trkpt><trkpt lat="44.0111989" lon="10.8547731"><ele>703.3333333333334</ele><time>2026-04-06T14:54:08.787Z</time></trkpt><trkpt lat="44.0111164" lon="10.854566"><ele>704.6666666666667</ele><time>2026-04-06T14:54:09.783Z</time></trkpt><trkpt lat="44.0110416" lon="10.8543804"><ele>706.0</ele><time>2026-04-06T14:54:10.778Z</time></trkpt><trkpt lat="44.0109556" lon="10.8542204"><ele>707.0</ele><time>2026-04-06T14:54:11.785Z</time></trkpt><trkpt lat="44.0108762" lon="10.8540611"><ele>708.0</ele><time>2026-04-06T14:54:12.78Z</time></trkpt><trkpt lat="44.0108086" lon="10.8539356"><ele>709.0</ele><time>2026-04-06T14:54:13.785Z</time></trkpt><trkpt lat="44.0107433" lon="10.8538303"><ele>710.0</ele><time>2026-04-06T14:54:14.78Z</time></trkpt><trkpt lat="44.0106777" lon="10.8537136"><ele>710.4</ele><time>2026-04-06T14:54:15.782Z</time></trkpt><trkpt lat="44.0106103" lon="10.8536005"><ele>710.8</ele><time>2026-04-06T14:54:16.782Z</time></trkpt><trkpt lat="44.0105475" lon="10.8534829"><ele>711.2</ele><time>2026-04-06T14:54:17.793Z</time></trkpt><trkpt lat="44.0104887" lon="10.8533662"><ele>711.6</ele><time>2026-04-06T14:54:18.783Z</time></trkpt><trkpt lat="44.0104238" lon="10.8532448"><ele>712.0</ele><time>2026-04-06T14:54:19.783Z</time></trkpt><trkpt lat="44.0103543" lon="10.8531017"><ele>712.0</ele><time>2026-04-06T14:54:20.784Z</time></trkpt><trkpt lat="44.0103097" lon="10.8529345"><ele>712.0</ele><time>2026-04-06T14:54:21.78Z</time></trkpt><trkpt lat="44.0102661" lon="10.852767"><ele>712.0</ele><time>2026-04-06T14:54:22.781Z</time></trkpt><trkpt lat="44.0102096" lon="10.8526025"><ele>712.0</ele><time>2026-04-06T14:54:23.785Z</time></trkpt><trkpt lat="44.0101326" lon="10.852454"><ele>713.25</ele><time>2026-04-06T14:54:24.78Z</time></trkpt><trkpt lat="44.0100573" lon="10.8522894"><ele>714.5</ele><time>2026-04-06T14:54:25.78Z</time></trkpt><trkpt lat="44.0099849" lon="10.85213"><ele>715.75</ele><time>2026-04-06T14:54:26.779Z</time></trkpt><trkpt lat="44.0099053" lon="10.8519717"><ele>717.0</ele><time>2026-04-06T14:54:27.78Z</time></trkpt><trkpt lat="44.0098201" lon="10.8518163"><ele>717.25</ele><time>2026-04-06T14:54:28.793Z</time></trkpt><trkpt lat="44.0097311" lon="10.8516592"><ele>717.5</ele><time>2026-04-06T14:54:29.793Z</time></trkpt><trkpt lat="44.0096408" lon="10.8514948"><ele>717.75</ele><time>2026-04-06T14:54:30.786Z</time></trkpt><trkpt lat="44.0095416" lon="10.8513392"><ele>718.0</ele><time>2026-04-06T14:54:31.781Z</time></trkpt><trkpt lat="44.0094252" lon="10.851198"><ele>718.0</ele><time>2026-04-06T14:54:32.779Z</time></trkpt><trkpt lat="44.0093062" lon="10.8510531"><ele>718.0</ele><time>2026-04-06T14:54:33.799Z</time></trkpt><trkpt lat="44.0091922" lon="10.8509127"><ele>718.0</ele><time>2026-04-06T14:54:34.784Z</time></trkpt><trkpt lat="44.0090902" lon="10.8507648"><ele>721.3333333333334</ele><time>2026-04-06T14:54:35.781Z</time></trkpt><trkpt lat="44.0089839" lon="10.8506275"><ele>724.6666666666666</ele><time>2026-04-06T14:54:36.777Z</time></trkpt><trkpt lat="44.0088736" lon="10.8504852"><ele>728.0</ele><time>2026-04-06T14:54:37.78Z</time></trkpt><trkpt lat="44.0087517" lon="10.8503491"><ele>728.0</ele><time>2026-04-06T14:54:38.791Z</time></trkpt><trkpt lat="44.0086318" lon="10.850219"><ele>728.0</ele><time>2026-04-06T14:54:39.79Z</time></trkpt><trkpt lat="44.0084959" lon="10.8500992"><ele>728.0</ele><time>2026-04-06T14:54:40.79Z</time></trkpt><trkpt lat="44.0083486" lon="10.8499726"><ele>727.0</ele><time>2026-04-06T14:54:41.784Z</time></trkpt><trkpt lat="44.0081933" lon="10.8498459"><ele>726.0</ele><time>2026-04-06T14:54:42.784Z</time></trkpt><trkpt lat="44.0080443" lon="10.8497229"><ele>725.0</ele><time>2026-04-06T14:54:43.784Z</time></trkpt><trkpt lat="44.0079297" lon="10.8496207"><ele>725.0</ele><time>2026-04-06T14:54:44.785Z</time></trkpt><trkpt lat="44.0078172" lon="10.8495173"><ele>725.0</ele><time>2026-04-06T14:54:45.782Z</time></trkpt><trkpt lat="44.0077088" lon="10.8494353"><ele>725.0</ele><time>2026-04-06T14:54:46.78Z</time></trkpt><trkpt lat="44.007613" lon="10.8493558"><ele>725.0</ele><time>2026-04-06T14:54:47.784Z</time></trkpt><trkpt lat="44.0075198" lon="10.8492783"><ele>724.6666666666666</ele><time>2026-04-06T14:54:48.796Z</time></trkpt><trkpt lat="44.0074387" lon="10.8492043"><ele>724.3333333333333</ele><time>2026-04-06T14:54:49.792Z</time></trkpt><trkpt lat="44.007367" lon="10.8491549"><ele>724.0</ele><time>2026-04-06T14:54:50.786Z</time></trkpt><trkpt lat="44.0072914" lon="10.8490861"><ele>723.6666666666666</ele><time>2026-04-06T14:54:51.782Z</time></trkpt><trkpt lat="44.0072299" lon="10.8490248"><ele>723.3333333333334</ele><time>2026-04-06T14:54:52.783Z</time></trkpt><trkpt lat="44.0071652" lon="10.848979"><ele>723.0</ele><time>2026-04-06T14:54:53.786Z</time></trkpt><trkpt lat="44.0070904" lon="10.8489344"><ele>723.0</ele><time>2026-04-06T14:54:54.782Z</time></trkpt><trkpt lat="44.0070234" lon="10.8488378"><ele>723.0</ele><time>2026-04-06T14:54:55.784Z</time></trkpt><trkpt lat="44.0069478" lon="10.8487351"><ele>723.0</ele><time>2026-04-06T14:54:56.782Z</time></trkpt><trkpt lat="44.0068653" lon="10.848653"><ele>723.0</ele><time>2026-04-06T14:54:57.784Z</time></trkpt><trkpt lat="44.0067983" lon="10.8485398"><ele>723.0</ele><time>2026-04-06T14:54:58.793Z</time></trkpt><trkpt lat="44.0067563" lon="10.8484087"><ele>724.5</ele><time>2026-04-06T14:54:59.791Z</time></trkpt><trkpt lat="44.0067076" lon="10.8482704"><ele>726.0</ele><time>2026-04-06T14:55:00.783Z</time></trkpt><trkpt lat="44.0066697" lon="10.848043"><ele>727.5</ele><time>2026-04-06T14:55:01.79Z</time></trkpt><trkpt lat="44.0066296" lon="10.8478524"><ele>729.0</ele><time>2026-04-06T14:55:02.783Z</time></trkpt><trkpt lat="44.0066098" lon="10.8476351"><ele>731.75</ele><time>2026-04-06T14:55:03.782Z</time></trkpt><trkpt lat="44.0065435" lon="10.8474611"><ele>734.5</ele><time>2026-04-06T14:55:04.791Z</time></trkpt><trkpt lat="44.0064714" lon="10.8472941"><ele>737.25</ele><time>2026-04-06T14:55:05.785Z</time></trkpt><trkpt lat="44.0063922" lon="10.847139"><ele>740.0</ele><time>2026-04-06T14:55:06.783Z</time></trkpt><trkpt lat="44.0062937" lon="10.8470019"><ele>740.0</ele><time>2026-04-06T14:55:07.783Z</time></trkpt><trkpt lat="44.0061994" lon="10.8468622"><ele>740.0</ele><time>2026-04-06T14:55:08.783Z</time></trkpt><trkpt lat="44.0061135" lon="10.846729"><ele>740.0</ele><time>2026-04-06T14:55:09.789Z</time></trkpt><trkpt lat="44.0060325" lon="10.8465982"><ele>740.0</ele><time>2026-04-06T14:55:10.789Z</time></trkpt><trkpt lat="44.0059745" lon="10.8464454"><ele>738.0</ele><time>2026-04-06T14:55:11.782Z</time></trkpt><trkpt lat="44.0059254" lon="10.8462869"><ele>736.0</ele><time>2026-04-06T14:55:12.787Z</time></trkpt><trkpt lat="44.0058858" lon="10.8461451"><ele>734.0</ele><time>2026-04-06T14:55:13.784Z</time></trkpt><trkpt lat="44.0058536" lon="10.8459861"><ele>732.0</ele><time>2026-04-06T14:55:14.783Z</time></trkpt><trkpt lat="44.0058267" lon="10.8458391"><ele>735.6</ele><time>2026-04-06T14:55:15.785Z</time></trkpt><trkpt lat="44.0058017" lon="10.845712"><ele>739.2</ele><time>2026-04-06T14:55:16.786Z</time></trkpt><trkpt lat="44.0057698" lon="10.8455718"><ele>742.8</ele><time>2026-04-06T14:55:17.784Z</time></trkpt><trkpt lat="44.0057476" lon="10.8454394"><ele>746.4</ele><time>2026-04-06T14:55:18.788Z</time></trkpt><trkpt lat="44.0057376" lon="10.8452989"><ele>750.0</ele><time>2026-04-06T14:55:19.783Z</time></trkpt><trkpt lat="44.0056997" lon="10.8451381"><ele>750.5</ele><time>2026-04-06T14:55:20.782Z</time></trkpt><trkpt lat="44.00568" lon="10.844967"><ele>751.0</ele><time>2026-04-06T14:55:21.785Z</time></trkpt><trkpt lat="44.005691" lon="10.8447636"><ele>751.5</ele><time>2026-04-06T14:55:22.788Z</time></trkpt><trkpt lat="44.0056925" lon="10.8445742"><ele>752.0</ele><time>2026-04-06T14:55:23.783Z</time></trkpt><trkpt lat="44.0056921" lon="10.8444075"><ele>755.75</ele><time>2026-04-06T14:55:24.784Z</time></trkpt><trkpt lat="44.0056998" lon="10.8442225"><ele>759.5</ele><time>2026-04-06T14:55:25.786Z</time></trkpt><trkpt lat="44.0057028" lon="10.8440604"><ele>763.25</ele><time>2026-04-06T14:55:26.781Z</time></trkpt><trkpt lat="44.0057243" lon="10.8438816"><ele>767.0</ele><time>2026-04-06T14:55:27.789Z</time></trkpt><trkpt lat="44.0057726" lon="10.8436851"><ele>767.0</ele><time>2026-04-06T14:55:28.784Z</time></trkpt><trkpt lat="44.0057957" lon="10.8435305"><ele>767.0</ele><time>2026-04-06T14:55:29.785Z</time></trkpt><trkpt lat="44.0058373" lon="10.8433431"><ele>767.0</ele><time>2026-04-06T14:55:30.783Z</time></trkpt><trkpt lat="44.005892" lon="10.8431545"><ele>767.0</ele><time>2026-04-06T14:55:31.796Z</time></trkpt><trkpt lat="44.0059726" lon="10.8429495"><ele>760.3333333333333</ele><time>2026-04-06T14:55:32.782Z</time></trkpt><trkpt lat="44.0060558" lon="10.8427447"><ele>753.6666666666666</ele><time>2026-04-06T14:55:33.785Z</time></trkpt><trkpt lat="44.0061382" lon="10.8425303"><ele>747.0</ele><time>2026-04-06T14:55:34.781Z</time></trkpt><trkpt lat="44.0062086" lon="10.8422997"><ele>747.0</ele><time>2026-04-06T14:55:35.78Z</time></trkpt><trkpt lat="44.0062809" lon="10.842002"><ele>747.0</ele><time>2026-04-06T14:55:36.781Z</time></trkpt><trkpt lat="44.0063513" lon="10.8417059"><ele>751.6666666666666</ele><time>2026-04-06T14:55:37.782Z</time></trkpt><trkpt lat="44.0064605" lon="10.8414752"><ele>756.3333333333333</ele><time>2026-04-06T14:55:38.785Z</time></trkpt><trkpt lat="44.0065312" lon="10.8412352"><ele>761.0</ele><time>2026-04-06T14:55:39.813Z</time></trkpt><trkpt lat="44.0065918" lon="10.8410167"><ele>761.25</ele><time>2026-04-06T14:55:40.778Z</time></trkpt><trkpt lat="44.0066166" lon="10.8408006"><ele>761.5</ele><time>2026-04-06T14:55:41.787Z</time></trkpt><trkpt lat="44.0066202" lon="10.8406017"><ele>761.75</ele><time>2026-04-06T14:55:42.783Z</time></trkpt><trkpt lat="44.0065798" lon="10.840426"><ele>762.0</ele><time>2026-04-06T14:55:43.783Z</time></trkpt><trkpt lat="44.0065264" lon="10.8402888"><ele>762.0</ele><time>2026-04-06T14:55:44.784Z</time></trkpt><trkpt lat="44.0064466" lon="10.8401854"><ele>762.0</ele><time>2026-04-06T14:55:45.786Z</time></trkpt><trkpt lat="44.006283" lon="10.8401072"><ele>762.0</ele><time>2026-04-06T14:55:46.782Z</time></trkpt><trkpt lat="44.006151" lon="10.8400071"><ele>762.0</ele><time>2026-04-06T14:55:47.784Z</time></trkpt><trkpt lat="44.0060501" lon="10.8399533"><ele>759.75</ele><time>2026-04-06T14:55:48.787Z</time></trkpt><trkpt lat="44.0059391" lon="10.8398876"><ele>757.5</ele><time>2026-04-06T14:55:49.782Z</time></trkpt><trkpt lat="44.0058254" lon="10.8398101"><ele>755.25</ele><time>2026-04-06T14:55:50.781Z</time></trkpt><trkpt lat="44.0057416" lon="10.8397316"><ele>753.0</ele><time>2026-04-06T14:55:51.782Z</time></trkpt><trkpt lat="44.0056731" lon="10.8396237"><ele>760.25</ele><time>2026-04-06T14:55:52.784Z</time></trkpt><trkpt lat="44.0056355" lon="10.8394886"><ele>767.5</ele><time>2026-04-06T14:55:53.786Z</time></trkpt><trkpt lat="44.0056493" lon="10.8392906"><ele>774.75</ele><time>2026-04-06T14:55:54.79Z</time></trkpt><trkpt lat="44.0056372" lon="10.839164"><ele>782.0</ele><time>2026-04-06T14:55:55.785Z</time></trkpt><trkpt lat="44.0056731" lon="10.8390001"><ele>782.0</ele><time>2026-04-06T14:55:56.783Z</time></trkpt><trkpt lat="44.0057334" lon="10.8388304"><ele>782.0</ele><time>2026-04-06T14:55:57.782Z</time></trkpt><trkpt lat="44.0057778" lon="10.8386184"><ele>782.0</ele><time>2026-04-06T14:55:58.785Z</time></trkpt><trkpt lat="44.005841" lon="10.8384517"><ele>782.0</ele><time>2026-04-06T14:55:59.783Z</time></trkpt><trkpt lat="44.0059187" lon="10.8383227"><ele>775.0</ele><time>2026-04-06T14:56:00.783Z</time></trkpt><trkpt lat="44.0059833" lon="10.8381681"><ele>768.0</ele><time>2026-04-06T14:56:01.781Z</time></trkpt><trkpt lat="44.006009" lon="10.8380501"><ele>761.0</ele><time>2026-04-06T14:56:02.782Z</time></trkpt><trkpt lat="44.006051" lon="10.8379576"><ele>754.0</ele><time>2026-04-06T14:56:03.786Z</time></trkpt><trkpt lat="44.0060492" lon="10.8378209"><ele>747.0</ele><time>2026-04-06T14:56:05.786Z</time></trkpt><trkpt lat="44.0059626" lon="10.8377207"><ele>746.8</ele><time>2026-04-06T14:56:06.781Z</time></trkpt><trkpt lat="44.0059066" lon="10.8376193"><ele>746.6</ele><time>2026-04-06T14:56:07.785Z</time></trkpt><trkpt lat="44.0058502" lon="10.8375082"><ele>746.4</ele><time>2026-04-06T14:56:08.787Z</time></trkpt><trkpt lat="44.0058206" lon="10.8373893"><ele>746.1999999999999</ele><time>2026-04-06T14:56:09.783Z</time></trkpt><trkpt lat="44.0058355" lon="10.8372536"><ele>746.0</ele><time>2026-04-06T14:56:10.783Z</time></trkpt><trkpt lat="44.0058112" lon="10.837105"><ele>746.4</ele><time>2026-04-06T14:56:11.782Z</time></trkpt><trkpt lat="44.005808" lon="10.8369605"><ele>746.8</ele><time>2026-04-06T14:56:12.783Z</time></trkpt><trkpt lat="44.0057982" lon="10.8368375"><ele>747.1999999999999</ele><time>2026-04-06T14:56:13.784Z</time></trkpt><trkpt lat="44.0058109" lon="10.8366793"><ele>747.5999999999999</ele><time>2026-04-06T14:56:14.785Z</time></trkpt><trkpt lat="44.005814" lon="10.8365569"><ele>748.0</ele><time>2026-04-06T14:56:15.781Z</time></trkpt><trkpt lat="44.00583" lon="10.8364171"><ele>750.2</ele><time>2026-04-06T14:56:16.779Z</time></trkpt><trkpt lat="44.0058073" lon="10.8363202"><ele>752.4</ele><time>2026-04-06T14:56:17.784Z</time></trkpt><trkpt lat="44.0057695" lon="10.8362473"><ele>754.6</ele><time>2026-04-06T14:56:18.781Z</time></trkpt><trkpt lat="44.0056841" lon="10.8361425"><ele>756.8000000000001</ele><time>2026-04-06T14:56:20.782Z</time></trkpt><trkpt lat="44.0055753" lon="10.836104"><ele>759.0</ele><time>2026-04-06T14:56:22.783Z</time></trkpt><trkpt lat="44.0054857" lon="10.8360708"><ele>759.0</ele><time>2026-04-06T14:56:23.791Z</time></trkpt><trkpt lat="44.0053752" lon="10.8360209"><ele>759.0</ele><time>2026-04-06T14:56:24.782Z</time></trkpt><trkpt lat="44.0052968" lon="10.8359911"><ele>759.0</ele><time>2026-04-06T14:56:25.785Z</time></trkpt><trkpt lat="44.0051911" lon="10.835963"><ele>759.0</ele><time>2026-04-06T14:56:26.785Z</time></trkpt><trkpt lat="44.0050829" lon="10.8359306"><ele>759.0</ele><time>2026-04-06T14:56:27.78Z</time></trkpt><trkpt lat="44.0049695" lon="10.8359087"><ele>756.25</ele><time>2026-04-06T14:56:28.785Z</time></trkpt><trkpt lat="44.0048329" lon="10.8358631"><ele>753.5</ele><time>2026-04-06T14:56:29.784Z</time></trkpt><trkpt lat="44.0046971" lon="10.835809"><ele>750.75</ele><time>2026-04-06T14:56:30.783Z</time></trkpt><trkpt lat="44.0045931" lon="10.8357675"><ele>748.0</ele><time>2026-04-06T14:56:31.782Z</time></trkpt><trkpt lat="44.0044249" lon="10.8357004"><ele>748.0</ele><time>2026-04-06T14:56:32.788Z</time></trkpt><trkpt lat="44.0043406" lon="10.8356723"><ele>748.0</ele><time>2026-04-06T14:56:33.794Z</time></trkpt><trkpt lat="44.0042552" lon="10.8356489"><ele>748.0</ele><time>2026-04-06T14:56:34.783Z</time></trkpt><trkpt lat="44.0041634" lon="10.8356104"><ele>748.0</ele><time>2026-04-06T14:56:35.784Z</time></trkpt><trkpt lat="44.004089" lon="10.8355733"><ele>748.0</ele><time>2026-04-06T14:56:37.783Z</time></trkpt><trkpt lat="44.0040106" lon="10.8355907"><ele>748.0</ele><time>2026-04-06T14:56:41.794Z</time></trkpt><trkpt lat="44.0039364" lon="10.8355775"><ele>750.2</ele><time>2026-04-06T14:56:46.784Z</time></trkpt><trkpt lat="44.0038758" lon="10.8355324"><ele>752.4</ele><time>2026-04-06T14:56:47.783Z</time></trkpt><trkpt lat="44.0037992" lon="10.8354806"><ele>754.6</ele><time>2026-04-06T14:56:48.815Z</time></trkpt><trkpt lat="44.0036828" lon="10.8353812"><ele>756.8000000000001</ele><time>2026-04-06T14:56:49.781Z</time></trkpt><trkpt lat="44.0035928" lon="10.8352646"><ele>759.0</ele><time>2026-04-06T14:56:50.78Z</time></trkpt><trkpt lat="44.0034951" lon="10.835146"><ele>759.0</ele><time>2026-04-06T14:56:51.785Z</time></trkpt><trkpt lat="44.0033758" lon="10.8349717"><ele>759.0</ele><time>2026-04-06T14:56:52.785Z</time></trkpt><trkpt lat="44.0032437" lon="10.8348267"><ele>759.0</ele><time>2026-04-06T14:56:53.785Z</time></trkpt><trkpt lat="44.0031464" lon="10.8346938"><ele>759.0</ele><time>2026-04-06T14:56:54.783Z</time></trkpt><trkpt lat="44.0030443" lon="10.8345955"><ele>759.0</ele><time>2026-04-06T14:56:55.782Z</time></trkpt><trkpt lat="44.0029436" lon="10.8344717"><ele>759.0</ele><time>2026-04-06T14:56:56.783Z</time></trkpt><trkpt lat="44.0028672" lon="10.8343649"><ele>759.0</ele><time>2026-04-06T14:56:57.782Z</time></trkpt><trkpt lat="44.0027774" lon="10.8342848"><ele>759.1666666666666</ele><time>2026-04-06T14:56:58.786Z</time></trkpt><trkpt lat="44.0026947" lon="10.8342298"><ele>759.3333333333334</ele><time>2026-04-06T14:56:59.783Z</time></trkpt><trkpt lat="44.0026135" lon="10.8342019"><ele>759.5</ele><time>2026-04-06T14:57:00.785Z</time></trkpt><trkpt lat="44.002536" lon="10.834237"><ele>759.6666666666667</ele><time>2026-04-06T14:57:01.783Z</time></trkpt><trkpt lat="44.00246" lon="10.8342658"><ele>759.8333333333334</ele><time>2026-04-06T14:57:02.78Z</time></trkpt><trkpt lat="44.0023951" lon="10.8343593"><ele>760.0</ele><time>2026-04-06T14:57:03.783Z</time></trkpt><trkpt lat="44.0023187" lon="10.8345385"><ele>757.75</ele><time>2026-04-06T14:57:04.783Z</time></trkpt><trkpt lat="44.0022281" lon="10.8347061"><ele>755.5</ele><time>2026-04-06T14:57:05.783Z</time></trkpt><trkpt lat="44.0021462" lon="10.8348404"><ele>753.25</ele><time>2026-04-06T14:57:06.784Z</time></trkpt><trkpt lat="44.0020797" lon="10.8349725"><ele>751.0</ele><time>2026-04-06T14:57:07.781Z</time></trkpt><trkpt lat="44.0019815" lon="10.8350887"><ele>751.5</ele><time>2026-04-06T14:57:08.783Z</time></trkpt><trkpt lat="44.0019037" lon="10.8352301"><ele>752.0</ele><time>2026-04-06T14:57:09.787Z</time></trkpt><trkpt lat="44.0018017" lon="10.8353394"><ele>752.5</ele><time>2026-04-06T14:57:10.782Z</time></trkpt><trkpt lat="44.001703" lon="10.835457"><ele>753.0</ele><time>2026-04-06T14:57:11.784Z</time></trkpt><trkpt lat="44.0016143" lon="10.8355614"><ele>749.2</ele><time>2026-04-06T14:57:12.784Z</time></trkpt><trkpt lat="44.001544" lon="10.8356518"><ele>745.4</ele><time>2026-04-06T14:57:13.784Z</time></trkpt><trkpt lat="44.0014695" lon="10.835762"><ele>741.6</ele><time>2026-04-06T14:57:14.783Z</time></trkpt><trkpt lat="44.0014266" lon="10.8358746"><ele>737.8000000000001</ele><time>2026-04-06T14:57:15.785Z</time></trkpt><trkpt lat="44.0014071" lon="10.8359929"><ele>734.0</ele><time>2026-04-06T14:57:16.787Z</time></trkpt><trkpt lat="44.0013829" lon="10.8361208"><ele>733.6</ele><time>2026-04-06T14:57:17.786Z</time></trkpt><trkpt lat="44.0013895" lon="10.8362993"><ele>733.2</ele><time>2026-04-06T14:57:18.781Z</time></trkpt><trkpt lat="44.0014253" lon="10.8364209"><ele>732.8000000000001</ele><time>2026-04-06T14:57:19.783Z</time></trkpt><trkpt lat="44.0014831" lon="10.8365349"><ele>732.4000000000001</ele><time>2026-04-06T14:57:20.781Z</time></trkpt><trkpt lat="44.0015351" lon="10.8366732"><ele>732.0</ele><time>2026-04-06T14:57:21.784Z</time></trkpt><trkpt lat="44.0015722" lon="10.8368538"><ele>732.0</ele><time>2026-04-06T14:57:22.797Z</time></trkpt><trkpt lat="44.0016116" lon="10.8369879"><ele>732.0</ele><time>2026-04-06T14:57:23.782Z</time></trkpt><trkpt lat="44.0015987" lon="10.8371284"><ele>732.0</ele><time>2026-04-06T14:57:24.785Z</time></trkpt><trkpt lat="44.0015129" lon="10.8372776"><ele>732.0</ele><time>2026-04-06T14:57:26.783Z</time></trkpt><trkpt lat="44.0014475" lon="10.8373413"><ele>732.0</ele><time>2026-04-06T14:57:27.79Z</time></trkpt><trkpt lat="44.0013881" lon="10.8373827"><ele>732.0</ele><time>2026-04-06T14:57:28.782Z</time></trkpt><trkpt lat="44.0012186" lon="10.8373769"><ele>732.0</ele><time>2026-04-06T14:57:29.783Z</time></trkpt><trkpt lat="44.0010981" lon="10.8374149"><ele>732.0</ele><time>2026-04-06T14:57:30.782Z</time></trkpt><trkpt lat="44.0010093" lon="10.8374572"><ele>732.0</ele><time>2026-04-06T14:57:31.783Z</time></trkpt><trkpt lat="44.0009254" lon="10.8375248"><ele>732.0</ele><time>2026-04-06T14:57:32.783Z</time></trkpt><trkpt lat="44.0008516" lon="10.837604"><ele>732.0</ele><time>2026-04-06T14:57:33.788Z</time></trkpt><trkpt lat="44.0008243" lon="10.8376987"><ele>732.0</ele><time>2026-04-06T14:57:34.783Z</time></trkpt><trkpt lat="44.0007595" lon="10.8378609"><ele>732.0</ele><time>2026-04-06T14:57:35.783Z</time></trkpt><trkpt lat="44.0006725" lon="10.8380698"><ele>730.75</ele><time>2026-04-06T14:57:36.79Z</time></trkpt><trkpt lat="44.0006146" lon="10.8381662"><ele>729.5</ele><time>2026-04-06T14:57:37.783Z</time></trkpt><trkpt lat="44.0005257" lon="10.8382894"><ele>728.25</ele><time>2026-04-06T14:57:38.782Z</time></trkpt><trkpt lat="44.0004388" lon="10.838397"><ele>727.0</ele><time>2026-04-06T14:57:39.783Z</time></trkpt><trkpt lat="44.0003265" lon="10.8385005"><ele>727.0</ele><time>2026-04-06T14:57:40.78Z</time></trkpt><trkpt lat="44.0002433" lon="10.8386187"><ele>727.0</ele><time>2026-04-06T14:57:41.793Z</time></trkpt><trkpt lat="44.000138" lon="10.8387313"><ele>727.0</ele><time>2026-04-06T14:57:42.783Z</time></trkpt><trkpt lat="44.0000653" lon="10.8388687"><ele>727.0</ele><time>2026-04-06T14:57:43.781Z</time></trkpt><trkpt lat="43.9999846" lon="10.8389565"><ele>727.0</ele><time>2026-04-06T14:57:44.785Z</time></trkpt><trkpt lat="43.9999301" lon="10.8390405"><ele>727.0</ele><time>2026-04-06T14:57:45.783Z</time></trkpt><trkpt lat="43.9998781" lon="10.8391577"><ele>727.0</ele><time>2026-04-06T14:57:46.784Z</time></trkpt><trkpt lat="43.9998678" lon="10.8392941"><ele>727.0</ele><time>2026-04-06T14:57:47.789Z</time></trkpt><trkpt lat="43.9998682" lon="10.8393983"><ele>727.0</ele><time>2026-04-06T14:57:48.783Z</time></trkpt><trkpt lat="43.9999145" lon="10.8395464"><ele>725.6</ele><time>2026-04-06T14:57:49.781Z</time></trkpt><trkpt lat="44.0000256" lon="10.8396509"><ele>724.2</ele><time>2026-04-06T14:57:50.786Z</time></trkpt><trkpt lat="44.0001011" lon="10.8397579"><ele>722.8</ele><time>2026-04-06T14:57:51.784Z</time></trkpt><trkpt lat="44.0001767" lon="10.8398404"><ele>721.4</ele><time>2026-04-06T14:57:52.787Z</time></trkpt><trkpt lat="44.0002443" lon="10.8399342"><ele>720.0</ele><time>2026-04-06T14:57:53.792Z</time></trkpt><trkpt lat="44.0002846" lon="10.8400295"><ele>721.2</ele><time>2026-04-06T14:57:54.788Z</time></trkpt><trkpt lat="44.000307" lon="10.8401384"><ele>722.4</ele><time>2026-04-06T14:57:55.785Z</time></trkpt><trkpt lat="44.0003228" lon="10.8402587"><ele>723.5999999999999</ele><time>2026-04-06T14:57:56.787Z</time></trkpt><trkpt lat="44.0002848" lon="10.8404699"><ele>724.8</ele><time>2026-04-06T14:57:57.787Z</time></trkpt><trkpt lat="44.0002508" lon="10.8406288"><ele>726.0</ele><time>2026-04-06T14:57:58.779Z</time></trkpt><trkpt lat="44.0001897" lon="10.8407974"><ele>726.0</ele><time>2026-04-06T14:57:59.78Z</time></trkpt><trkpt lat="44.0001239" lon="10.8409646"><ele>726.0</ele><time>2026-04-06T14:58:00.777Z</time></trkpt><trkpt lat="44.0000751" lon="10.8411137"><ele>726.0</ele><time>2026-04-06T14:58:01.786Z</time></trkpt><trkpt lat="43.9999507" lon="10.8412746"><ele>726.0</ele><time>2026-04-06T14:58:02.785Z</time></trkpt><trkpt lat="43.9998473" lon="10.8414252"><ele>729.5</ele><time>2026-04-06T14:58:03.782Z</time></trkpt><trkpt lat="43.9997566" lon="10.8415549"><ele>733.0</ele><time>2026-04-06T14:58:04.781Z</time></trkpt><trkpt lat="43.9996358" lon="10.8416578"><ele>736.5</ele><time>2026-04-06T14:58:05.785Z</time></trkpt><trkpt lat="43.9995203" lon="10.8417693"><ele>740.0</ele><time>2026-04-06T14:58:06.787Z</time></trkpt><trkpt lat="43.9994116" lon="10.8418464"><ele>740.75</ele><time>2026-04-06T14:58:07.79Z</time></trkpt><trkpt lat="43.999301" lon="10.841931"><ele>741.5</ele><time>2026-04-06T14:58:08.796Z</time></trkpt><trkpt lat="43.9992612" lon="10.8420638"><ele>742.25</ele><time>2026-04-06T14:58:09.8Z</time></trkpt><trkpt lat="43.9991948" lon="10.8421727"><ele>743.0</ele><time>2026-04-06T14:58:10.791Z</time></trkpt><trkpt lat="43.9991452" lon="10.8423363"><ele>734.6666666666666</ele><time>2026-04-06T14:58:11.782Z</time></trkpt><trkpt lat="43.9991142" lon="10.8425646"><ele>726.3333333333334</ele><time>2026-04-06T14:58:12.787Z</time></trkpt><trkpt lat="43.9991018" lon="10.842798"><ele>718.0</ele><time>2026-04-06T14:58:13.783Z</time></trkpt><trkpt lat="43.9991025" lon="10.8430967"><ele>718.0</ele><time>2026-04-06T14:58:14.786Z</time></trkpt><trkpt lat="43.9991106" lon="10.8433494"><ele>718.0</ele><time>2026-04-06T14:58:15.777Z</time></trkpt><trkpt lat="43.9991178" lon="10.8435703"><ele>718.0</ele><time>2026-04-06T14:58:16.783Z</time></trkpt><trkpt lat="43.9990966" lon="10.8437512"><ele>718.0</ele><time>2026-04-06T14:58:17.785Z</time></trkpt><trkpt lat="43.999081" lon="10.8439216"><ele>718.0</ele><time>2026-04-06T14:58:18.783Z</time></trkpt><trkpt lat="43.9990521" lon="10.8440462"><ele>718.0</ele><time>2026-04-06T14:58:19.78Z</time></trkpt><trkpt lat="43.9989228" lon="10.8441489"><ele>718.0</ele><time>2026-04-06T14:58:21.785Z</time></trkpt><trkpt lat="43.9987944" lon="10.8440828"><ele>718.0</ele><time>2026-04-06T14:58:23.784Z</time></trkpt><trkpt lat="43.998728" lon="10.8439638"><ele>718.0</ele><time>2026-04-06T14:58:24.782Z</time></trkpt><trkpt lat="43.998698" lon="10.843861"><ele>718.0</ele><time>2026-04-06T14:58:25.785Z</time></trkpt><trkpt lat="43.9986874" lon="10.8436742"><ele>718.0</ele><time>2026-04-06T14:58:26.785Z</time></trkpt><trkpt lat="43.9986787" lon="10.8435278"><ele>718.0</ele><time>2026-04-06T14:58:27.783Z</time></trkpt><trkpt lat="43.9986652" lon="10.8433352"><ele>716.25</ele><time>2026-04-06T14:58:28.788Z</time></trkpt><trkpt lat="43.9986349" lon="10.8431816"><ele>714.5</ele><time>2026-04-06T14:58:29.787Z</time></trkpt><trkpt lat="43.9986707" lon="10.8429268"><ele>712.75</ele><time>2026-04-06T14:58:30.783Z</time></trkpt><trkpt lat="43.9986648" lon="10.8427943"><ele>711.0</ele><time>2026-04-06T14:58:31.778Z</time></trkpt><trkpt lat="43.9986317" lon="10.8426689"><ele>712.1666666666666</ele><time>2026-04-06T14:58:32.779Z</time></trkpt><trkpt lat="43.9985908" lon="10.8425461"><ele>713.3333333333334</ele><time>2026-04-06T14:58:33.786Z</time></trkpt><trkpt lat="43.9985461" lon="10.8424675"><ele>714.5</ele><time>2026-04-06T14:58:34.775Z</time></trkpt><trkpt lat="43.9984705" lon="10.842429"><ele>715.6666666666667</ele><time>2026-04-06T14:58:35.789Z</time></trkpt><trkpt lat="43.9983883" lon="10.8424041"><ele>716.8333333333334</ele><time>2026-04-06T14:58:36.781Z</time></trkpt><trkpt lat="43.9982957" lon="10.8424042"><ele>718.0</ele><time>2026-04-06T14:58:38.787Z</time></trkpt><trkpt lat="43.998257" lon="10.8424914"><ele>710.25</ele><time>2026-04-06T14:58:40.788Z</time></trkpt><trkpt lat="43.9982428" lon="10.842633"><ele>702.5</ele><time>2026-04-06T14:58:41.782Z</time></trkpt><trkpt lat="43.9982669" lon="10.84281"><ele>694.75</ele><time>2026-04-06T14:58:42.781Z</time></trkpt><trkpt lat="43.9983225" lon="10.8429699"><ele>687.0</ele><time>2026-04-06T14:58:43.784Z</time></trkpt><trkpt lat="43.998305" lon="10.8431482"><ele>687.0</ele><time>2026-04-06T14:58:44.788Z</time></trkpt><trkpt lat="43.9982621" lon="10.8433269"><ele>687.0</ele><time>2026-04-06T14:58:45.786Z</time></trkpt><trkpt lat="43.9982123" lon="10.8435561"><ele>687.0</ele><time>2026-04-06T14:58:46.786Z</time></trkpt><trkpt lat="43.998151" lon="10.8437925"><ele>687.0</ele><time>2026-04-06T14:58:47.783Z</time></trkpt><trkpt lat="43.9981185" lon="10.8439964"><ele>687.0</ele><time>2026-04-06T14:58:48.783Z</time></trkpt><trkpt lat="43.9980328" lon="10.8442667"><ele>687.0</ele><time>2026-04-06T14:58:49.783Z</time></trkpt><trkpt lat="43.9979483" lon="10.8445859"><ele>689.5</ele><time>2026-04-06T14:58:50.78Z</time></trkpt><trkpt lat="43.9978854" lon="10.8448831"><ele>692.0</ele><time>2026-04-06T14:58:51.788Z</time></trkpt><trkpt lat="43.9977839" lon="10.8452044"><ele>695.0</ele><time>2026-04-06T14:58:52.786Z</time></trkpt><trkpt lat="43.9976781" lon="10.845489"><ele>698.0</ele><time>2026-04-06T14:58:53.792Z</time></trkpt><trkpt lat="43.9975893" lon="10.8457504"><ele>701.0</ele><time>2026-04-06T14:58:54.786Z</time></trkpt><trkpt lat="43.9975225" lon="10.8460563"><ele>692.3333333333333</ele><time>2026-04-06T14:58:55.786Z</time></trkpt><trkpt lat="43.9974179" lon="10.8463013"><ele>683.6666666666666</ele><time>2026-04-06T14:58:56.789Z</time></trkpt><trkpt lat="43.9973106" lon="10.8465529"><ele>675.0</ele><time>2026-04-06T14:58:57.786Z</time></trkpt><trkpt lat="43.9973059" lon="10.8468319"><ele>672.3333333333334</ele><time>2026-04-06T14:58:58.783Z</time></trkpt><trkpt lat="43.9972834" lon="10.8471088"><ele>669.6666666666667</ele><time>2026-04-06T14:58:59.783Z</time></trkpt><trkpt lat="43.9972707" lon="10.847391"><ele>667.0</ele><time>2026-04-06T14:59:00.783Z</time></trkpt><trkpt lat="43.9972416" lon="10.8476327"><ele>666.0</ele><time>2026-04-06T14:59:01.775Z</time></trkpt><trkpt lat="43.9972118" lon="10.8478576"><ele>665.0</ele><time>2026-04-06T14:59:02.788Z</time></trkpt><trkpt lat="43.9971566" lon="10.8480636"><ele>664.0</ele><time>2026-04-06T14:59:03.788Z</time></trkpt><trkpt lat="43.9970686" lon="10.8482094"><ele>664.0</ele><time>2026-04-06T14:59:04.79Z</time></trkpt><trkpt lat="43.9969886" lon="10.8483667"><ele>664.0</ele><time>2026-04-06T14:59:05.787Z</time></trkpt><trkpt lat="43.9968756" lon="10.8484989"><ele>664.0</ele><time>2026-04-06T14:59:06.784Z</time></trkpt><trkpt lat="43.9967595" lon="10.8486179"><ele>664.0</ele><time>2026-04-06T14:59:07.783Z</time></trkpt><trkpt lat="43.9966444" lon="10.8487579"><ele>660.0</ele><time>2026-04-06T14:59:08.783Z</time></trkpt><trkpt lat="43.9965271" lon="10.8488921"><ele>656.0</ele><time>2026-04-06T14:59:09.785Z</time></trkpt><trkpt lat="43.9964582" lon="10.8490265"><ele>652.0</ele><time>2026-04-06T14:59:10.782Z</time></trkpt><trkpt lat="43.9963968" lon="10.8491909"><ele>648.0</ele><time>2026-04-06T14:59:11.783Z</time></trkpt><trkpt lat="43.9963602" lon="10.8493865"><ele>648.0</ele><time>2026-04-06T14:59:12.779Z</time></trkpt><trkpt lat="43.9963718" lon="10.8495797"><ele>648.0</ele><time>2026-04-06T14:59:13.784Z</time></trkpt><trkpt lat="43.996359" lon="10.8497657"><ele>648.0</ele><time>2026-04-06T14:59:14.784Z</time></trkpt><trkpt lat="43.9963596" lon="10.8499527"><ele>648.0</ele><time>2026-04-06T14:59:15.784Z</time></trkpt><trkpt lat="43.9963574" lon="10.8501279"><ele>649.25</ele><time>2026-04-06T14:59:16.783Z</time></trkpt><trkpt lat="43.9963287" lon="10.8502802"><ele>650.5</ele><time>2026-04-06T14:59:17.785Z</time></trkpt><trkpt lat="43.9962628" lon="10.8504087"><ele>651.75</ele><time>2026-04-06T14:59:18.785Z</time></trkpt><trkpt lat="43.9961297" lon="10.8505045"><ele>653.0</ele><time>2026-04-06T14:59:19.785Z</time></trkpt><trkpt lat="43.9960408" lon="10.8506052"><ele>653.0</ele><time>2026-04-06T14:59:20.781Z</time></trkpt><trkpt lat="43.9959627" lon="10.8507099"><ele>653.0</ele><time>2026-04-06T14:59:21.782Z</time></trkpt><trkpt lat="43.9958756" lon="10.8508129"><ele>653.0</ele><time>2026-04-06T14:59:22.787Z</time></trkpt><trkpt lat="43.9957876" lon="10.8508989"><ele>653.0</ele><time>2026-04-06T14:59:23.784Z</time></trkpt><trkpt lat="43.995708" lon="10.8509968"><ele>653.0</ele><time>2026-04-06T14:59:24.781Z</time></trkpt><trkpt lat="43.9956339" lon="10.8511012"><ele>650.0</ele><time>2026-04-06T14:59:25.785Z</time></trkpt><trkpt lat="43.9955993" lon="10.8512242"><ele>647.0</ele><time>2026-04-06T14:59:26.778Z</time></trkpt><trkpt lat="43.9955719" lon="10.8513759"><ele>644.0</ele><time>2026-04-06T14:59:28.786Z</time></trkpt><trkpt lat="43.9955212" lon="10.8515362"><ele>641.0</ele><time>2026-04-06T14:59:30.786Z</time></trkpt><trkpt lat="43.9954778" lon="10.8516086"><ele>638.0</ele><time>2026-04-06T14:59:31.782Z</time></trkpt><trkpt lat="43.9954152" lon="10.8516492"><ele>638.0</ele><time>2026-04-06T14:59:32.788Z</time></trkpt><trkpt lat="43.995341" lon="10.8516867"><ele>638.0</ele><time>2026-04-06T14:59:33.78Z</time></trkpt><trkpt lat="43.9952418" lon="10.8517819"><ele>638.0</ele><time>2026-04-06T14:59:35.791Z</time></trkpt><trkpt lat="43.9951763" lon="10.8518267"><ele>638.0</ele><time>2026-04-06T14:59:36.782Z</time></trkpt><trkpt lat="43.9950866" lon="10.8518872"><ele>638.0</ele><time>2026-04-06T14:59:37.784Z</time></trkpt><trkpt lat="43.995026" lon="10.851949"><ele>638.0</ele><time>2026-04-06T14:59:38.787Z</time></trkpt><trkpt lat="43.9949582" lon="10.8519968"><ele>634.0</ele><time>2026-04-06T14:59:39.794Z</time></trkpt><trkpt lat="43.994892" lon="10.8520623"><ele>630.0</ele><time>2026-04-06T14:59:40.786Z</time></trkpt><trkpt lat="43.9948712" lon="10.8521901"><ele>626.0</ele><time>2026-04-06T14:59:42.791Z</time></trkpt><trkpt lat="43.9948015" lon="10.8523249"><ele>622.0</ele><time>2026-04-06T14:59:44.782Z</time></trkpt><trkpt lat="43.9947754" lon="10.8524577"><ele>618.0</ele><time>2026-04-06T14:59:46.781Z</time></trkpt><trkpt lat="43.9947382" lon="10.8526083"><ele>618.8</ele><time>2026-04-06T14:59:48.787Z</time></trkpt><trkpt lat="43.9946996" lon="10.8527403"><ele>619.5999999999999</ele><time>2026-04-06T14:59:50.785Z</time></trkpt><trkpt lat="43.994644" lon="10.8528554"><ele>620.4000000000001</ele><time>2026-04-06T14:59:52.784Z</time></trkpt><trkpt lat="43.994583" lon="10.8528984"><ele>621.2</ele><time>2026-04-06T14:59:53.783Z</time></trkpt><trkpt lat="43.9945121" lon="10.8529174"><ele>622.0</ele><time>2026-04-06T14:59:54.781Z</time></trkpt><trkpt lat="43.9943975" lon="10.8529498"><ele>622.0</ele><time>2026-04-06T14:59:56.782Z</time></trkpt><trkpt lat="43.9942788" lon="10.8529629"><ele>622.0</ele><time>2026-04-06T14:59:58.783Z</time></trkpt><trkpt lat="43.9942024" lon="10.8530341"><ele>622.0</ele><time>2026-04-06T15:00:00.785Z</time></trkpt><trkpt lat="43.9941398" lon="10.8531264"><ele>622.0</ele><time>2026-04-06T15:00:02.778Z</time></trkpt><trkpt lat="43.9941008" lon="10.8532341"><ele>622.0</ele><time>2026-04-06T15:00:05.785Z</time></trkpt><trkpt lat="43.9940858" lon="10.8533472"><ele>620.8333333333334</ele><time>2026-04-06T15:00:07.787Z</time></trkpt><trkpt lat="43.9940464" lon="10.8535144"><ele>619.6666666666667</ele><time>2026-04-06T15:00:09.782Z</time></trkpt><trkpt lat="43.9940137" lon="10.8536094"><ele>618.5</ele><time>2026-04-06T15:00:10.789Z</time></trkpt><trkpt lat="43.9939882" lon="10.8537076"><ele>617.3333333333334</ele><time>2026-04-06T15:00:11.78Z</time></trkpt><trkpt lat="43.9939551" lon="10.8538015"><ele>616.1666666666666</ele><time>2026-04-06T15:00:12.79Z</time></trkpt><trkpt lat="43.9939385" lon="10.8538925"><ele>615.0</ele><time>2026-04-06T15:00:13.783Z</time></trkpt><trkpt lat="43.9939127" lon="10.8539811"><ele>615.0</ele><time>2026-04-06T15:00:14.786Z</time></trkpt><trkpt lat="43.9938755" lon="10.8540748"><ele>615.0</ele><time>2026-04-06T15:00:15.788Z</time></trkpt><trkpt lat="43.9937757" lon="10.8541899"><ele>615.0</ele><time>2026-04-06T15:00:17.783Z</time></trkpt><trkpt lat="43.9936913" lon="10.8542089"><ele>615.0</ele><time>2026-04-06T15:00:18.789Z</time></trkpt><trkpt lat="43.9935276" lon="10.8542074"><ele>615.0</ele><time>2026-04-06T15:00:20.785Z</time></trkpt><trkpt lat="43.9934425" lon="10.8541979"><ele>615.0</ele><time>2026-04-06T15:00:21.785Z</time></trkpt><trkpt lat="43.9933344" lon="10.8541846"><ele>615.0</ele><time>2026-04-06T15:00:22.787Z</time></trkpt><trkpt lat="43.9932179" lon="10.8541737"><ele>615.0</ele><time>2026-04-06T15:00:23.783Z</time></trkpt><trkpt lat="43.9930858" lon="10.8541808"><ele>615.0</ele><time>2026-04-06T15:00:24.784Z</time></trkpt><trkpt lat="43.9929511" lon="10.8541869"><ele>612.25</ele><time>2026-04-06T15:00:25.786Z</time></trkpt><trkpt lat="43.9928146" lon="10.854188"><ele>609.5</ele><time>2026-04-06T15:00:26.784Z</time></trkpt><trkpt lat="43.9926913" lon="10.8541937"><ele>606.75</ele><time>2026-04-06T15:00:27.784Z</time></trkpt><trkpt lat="43.9925757" lon="10.8541959"><ele>604.0</ele><time>2026-04-06T15:00:28.785Z</time></trkpt><trkpt lat="43.9924559" lon="10.8541778"><ele>602.25</ele><time>2026-04-06T15:00:29.785Z</time></trkpt><trkpt lat="43.9923347" lon="10.8541842"><ele>600.5</ele><time>2026-04-06T15:00:30.791Z</time></trkpt><trkpt lat="43.9921993" lon="10.8541756"><ele>598.75</ele><time>2026-04-06T15:00:31.786Z</time></trkpt><trkpt lat="43.9920854" lon="10.8541794"><ele>597.0</ele><time>2026-04-06T15:00:32.796Z</time></trkpt><trkpt lat="43.9919751" lon="10.85418"><ele>597.0</ele><time>2026-04-06T15:00:33.79Z</time></trkpt><trkpt lat="43.9918669" lon="10.8541772"><ele>597.0</ele><time>2026-04-06T15:00:34.787Z</time></trkpt><trkpt lat="43.9917588" lon="10.8541812"><ele>597.0</ele><time>2026-04-06T15:00:35.785Z</time></trkpt><trkpt lat="43.9916609" lon="10.8541921"><ele>597.0</ele><time>2026-04-06T15:00:36.781Z</time></trkpt><trkpt lat="43.9915538" lon="10.8542081"><ele>597.0</ele><time>2026-04-06T15:00:37.784Z</time></trkpt><trkpt lat="43.9914659" lon="10.8542537"><ele>597.0</ele><time>2026-04-06T15:00:38.791Z</time></trkpt><trkpt lat="43.991398" lon="10.8542832"><ele>597.0</ele><time>2026-04-06T15:00:39.779Z</time></trkpt><trkpt lat="43.9913402" lon="10.8543929"><ele>597.0</ele><time>2026-04-06T15:00:40.783Z</time></trkpt><trkpt lat="43.9912769" lon="10.8544995"><ele>597.0</ele><time>2026-04-06T15:00:41.782Z</time></trkpt><trkpt lat="43.9912196" lon="10.8546908"><ele>597.0</ele><time>2026-04-06T15:00:42.789Z</time></trkpt><trkpt lat="43.9911424" lon="10.8548443"><ele>597.0</ele><time>2026-04-06T15:00:43.784Z</time></trkpt><trkpt lat="43.9910549" lon="10.8549951"><ele>597.0</ele><time>2026-04-06T15:00:44.787Z</time></trkpt><trkpt lat="43.9909492" lon="10.85512"><ele>597.0</ele><time>2026-04-06T15:00:45.782Z</time></trkpt><trkpt lat="43.9908376" lon="10.8552122"><ele>597.0</ele><time>2026-04-06T15:00:46.792Z</time></trkpt><trkpt lat="43.9907323" lon="10.8552844"><ele>596.75</ele><time>2026-04-06T15:00:47.787Z</time></trkpt><trkpt lat="43.9905975" lon="10.8553278"><ele>596.5</ele><time>2026-04-06T15:00:48.785Z</time></trkpt><trkpt lat="43.9904553" lon="10.8553605"><ele>596.25</ele><time>2026-04-06T15:00:49.785Z</time></trkpt><trkpt lat="43.9903162" lon="10.8554085"><ele>596.0</ele><time>2026-04-06T15:00:50.78Z</time></trkpt><trkpt lat="43.9901808" lon="10.8554672"><ele>596.0</ele><time>2026-04-06T15:00:51.779Z</time></trkpt><trkpt lat="43.9900643" lon="10.8555614"><ele>596.0</ele><time>2026-04-06T15:00:52.782Z</time></trkpt><trkpt lat="43.9899609" lon="10.8556608"><ele>596.0</ele><time>2026-04-06T15:00:53.786Z</time></trkpt><trkpt lat="43.9898654" lon="10.8557771"><ele>596.0</ele><time>2026-04-06T15:00:54.784Z</time></trkpt><trkpt lat="43.9897688" lon="10.8559041"><ele>597.25</ele><time>2026-04-06T15:00:55.781Z</time></trkpt><trkpt lat="43.9896577" lon="10.8560006"><ele>598.5</ele><time>2026-04-06T15:00:56.787Z</time></trkpt><trkpt lat="43.9895499" lon="10.8561022"><ele>599.75</ele><time>2026-04-06T15:00:57.787Z</time></trkpt><trkpt lat="43.9894287" lon="10.8561813"><ele>601.0</ele><time>2026-04-06T15:00:58.79Z</time></trkpt><trkpt lat="43.9893169" lon="10.8562232"><ele>595.3333333333334</ele><time>2026-04-06T15:00:59.786Z</time></trkpt><trkpt lat="43.9891236" lon="10.8562302"><ele>589.6666666666666</ele><time>2026-04-06T15:01:00.799Z</time></trkpt><trkpt lat="43.9889612" lon="10.8562478"><ele>584.0</ele><time>2026-04-06T15:01:01.781Z</time></trkpt><trkpt lat="43.9887801" lon="10.8562683"><ele>584.0</ele><time>2026-04-06T15:01:02.78Z</time></trkpt><trkpt lat="43.9886355" lon="10.8563033"><ele>584.0</ele><time>2026-04-06T15:01:03.793Z</time></trkpt><trkpt lat="43.9884642" lon="10.856307"><ele>584.0</ele><time>2026-04-06T15:01:04.787Z</time></trkpt><trkpt lat="43.9883109" lon="10.8563195"><ele>580.0</ele><time>2026-04-06T15:01:05.783Z</time></trkpt><trkpt lat="43.9881778" lon="10.8563578"><ele>576.0</ele><time>2026-04-06T15:01:06.784Z</time></trkpt><trkpt lat="43.9880186" lon="10.8564065"><ele>572.0</ele><time>2026-04-06T15:01:07.788Z</time></trkpt><trkpt lat="43.9878856" lon="10.8564739"><ele>568.0</ele><time>2026-04-06T15:01:08.783Z</time></trkpt><trkpt lat="43.9877327" lon="10.8565522"><ele>568.0</ele><time>2026-04-06T15:01:09.779Z</time></trkpt><trkpt lat="43.9876164" lon="10.856652"><ele>568.0</ele><time>2026-04-06T15:01:10.785Z</time></trkpt><trkpt lat="43.9874857" lon="10.8567417"><ele>568.0</ele><time>2026-04-06T15:01:11.784Z</time></trkpt><trkpt lat="43.9873736" lon="10.8568189"><ele>568.0</ele><time>2026-04-06T15:01:12.795Z</time></trkpt><trkpt lat="43.9872761" lon="10.8568708"><ele>569.8</ele><time>2026-04-06T15:01:13.787Z</time></trkpt><trkpt lat="43.9871632" lon="10.8569298"><ele>571.5999999999999</ele><time>2026-04-06T15:01:14.802Z</time></trkpt><trkpt lat="43.9870793" lon="10.8569623"><ele>573.4000000000001</ele><time>2026-04-06T15:01:15.785Z</time></trkpt><trkpt lat="43.9869857" lon="10.8569666"><ele>575.2</ele><time>2026-04-06T15:01:16.782Z</time></trkpt><trkpt lat="43.9869134" lon="10.8569304"><ele>577.0</ele><time>2026-04-06T15:01:17.784Z</time></trkpt><trkpt lat="43.9868501" lon="10.8567365"><ele>572.0</ele><time>2026-04-06T15:01:19.782Z</time></trkpt><trkpt lat="43.9868967" lon="10.8565509"><ele>567.0</ele><time>2026-04-06T15:01:20.788Z</time></trkpt><trkpt lat="43.9869465" lon="10.8563876"><ele>562.0</ele><time>2026-04-06T15:01:21.781Z</time></trkpt><trkpt lat="43.9870023" lon="10.8562561"><ele>557.0</ele><time>2026-04-06T15:01:22.788Z</time></trkpt><trkpt lat="43.9870398" lon="10.8561165"><ele>557.0</ele><time>2026-04-06T15:01:23.788Z</time></trkpt><trkpt lat="43.9871827" lon="10.856041"><ele>557.0</ele><time>2026-04-06T15:01:24.791Z</time></trkpt><trkpt lat="43.9872907" lon="10.8559301"><ele>557.0</ele><time>2026-04-06T15:01:25.785Z</time></trkpt><trkpt lat="43.9873975" lon="10.8558673"><ele>557.0</ele><time>2026-04-06T15:01:26.784Z</time></trkpt><trkpt lat="43.9874735" lon="10.8557713"><ele>555.6666666666666</ele><time>2026-04-06T15:01:27.788Z</time></trkpt><trkpt lat="43.9875404" lon="10.8556802"><ele>554.3333333333333</ele><time>2026-04-06T15:01:28.782Z</time></trkpt><trkpt lat="43.9875909" lon="10.8556015"><ele>553.0</ele><time>2026-04-06T15:01:29.782Z</time></trkpt><trkpt lat="43.9876044" lon="10.855499"><ele>551.6666666666666</ele><time>2026-04-06T15:01:30.785Z</time></trkpt><trkpt lat="43.9876013" lon="10.8553659"><ele>550.3333333333334</ele><time>2026-04-06T15:01:31.785Z</time></trkpt><trkpt lat="43.9875472" lon="10.8552843"><ele>549.0</ele><time>2026-04-06T15:01:32.786Z</time></trkpt><trkpt lat="43.9874917" lon="10.8552102"><ele>547.6</ele><time>2026-04-06T15:01:33.792Z</time></trkpt><trkpt lat="43.9874145" lon="10.8551485"><ele>546.2</ele><time>2026-04-06T15:01:34.785Z</time></trkpt><trkpt lat="43.9873251" lon="10.8551442"><ele>544.8000000000001</ele><time>2026-04-06T15:01:35.787Z</time></trkpt><trkpt lat="43.9872099" lon="10.8551669"><ele>543.4</ele><time>2026-04-06T15:01:36.785Z</time></trkpt><trkpt lat="43.9871022" lon="10.8551928"><ele>542.0</ele><time>2026-04-06T15:01:37.789Z</time></trkpt><trkpt lat="43.9870009" lon="10.8552722"><ele>542.0</ele><time>2026-04-06T15:01:38.783Z</time></trkpt><trkpt lat="43.9868757" lon="10.855484"><ele>542.0</ele><time>2026-04-06T15:01:39.783Z</time></trkpt><trkpt lat="43.9867813" lon="10.8556221"><ele>542.0</ele><time>2026-04-06T15:01:40.786Z</time></trkpt><trkpt lat="43.9866759" lon="10.8557558"><ele>541.75</ele><time>2026-04-06T15:01:41.781Z</time></trkpt><trkpt lat="43.9865692" lon="10.8558629"><ele>541.5</ele><time>2026-04-06T15:01:42.784Z</time></trkpt><trkpt lat="43.9864611" lon="10.8559528"><ele>541.25</ele><time>2026-04-06T15:01:43.784Z</time></trkpt><trkpt lat="43.9863475" lon="10.8560492"><ele>541.0</ele><time>2026-04-06T15:01:44.782Z</time></trkpt><trkpt lat="43.9862357" lon="10.8561321"><ele>541.0</ele><time>2026-04-06T15:01:45.785Z</time></trkpt><trkpt lat="43.9861246" lon="10.8562316"><ele>541.0</ele><time>2026-04-06T15:01:46.791Z</time></trkpt><trkpt lat="43.986012" lon="10.8563305"><ele>541.0</ele><time>2026-04-06T15:01:47.783Z</time></trkpt><trkpt lat="43.9859468" lon="10.8564525"><ele>541.0</ele><time>2026-04-06T15:01:48.781Z</time></trkpt><trkpt lat="43.9858814" lon="10.8565427"><ele>535.6</ele><time>2026-04-06T15:01:49.787Z</time></trkpt><trkpt lat="43.9858125" lon="10.8566783"><ele>530.2</ele><time>2026-04-06T15:01:50.78Z</time></trkpt><trkpt lat="43.985759" lon="10.8567896"><ele>524.8</ele><time>2026-04-06T15:01:51.781Z</time></trkpt><trkpt lat="43.9857015" lon="10.8568984"><ele>519.4</ele><time>2026-04-06T15:01:52.787Z</time></trkpt><trkpt lat="43.9856402" lon="10.8570369"><ele>514.0</ele><time>2026-04-06T15:01:53.79Z</time></trkpt><trkpt lat="43.9855974" lon="10.8571556"><ele>514.0</ele><time>2026-04-06T15:01:54.785Z</time></trkpt><trkpt lat="43.9855788" lon="10.8572836"><ele>514.0</ele><time>2026-04-06T15:01:55.786Z</time></trkpt><trkpt lat="43.9855841" lon="10.8574267"><ele>514.0</ele><time>2026-04-06T15:01:56.781Z</time></trkpt><trkpt lat="43.9856116" lon="10.85758"><ele>514.0</ele><time>2026-04-06T15:01:57.785Z</time></trkpt><trkpt lat="43.9857068" lon="10.8577863"><ele>506.6666666666667</ele><time>2026-04-06T15:01:58.784Z</time></trkpt><trkpt lat="43.9858089" lon="10.8579826"><ele>499.33333333333337</ele><time>2026-04-06T15:01:59.795Z</time></trkpt><trkpt lat="43.9859136" lon="10.8581782"><ele>492.0</ele><time>2026-04-06T15:02:00.795Z</time></trkpt><trkpt lat="43.9859776" lon="10.8582864"><ele>501.6</ele><time>2026-04-06T15:02:01.784Z</time></trkpt><trkpt lat="43.9860481" lon="10.8584132"><ele>511.20000000000005</ele><time>2026-04-06T15:02:02.78Z</time></trkpt><trkpt lat="43.9861019" lon="10.8585162"><ele>520.8</ele><time>2026-04-06T15:02:03.787Z</time></trkpt><trkpt lat="43.9861298" lon="10.8586669"><ele>530.4</ele><time>2026-04-06T15:02:04.807Z</time></trkpt><trkpt lat="43.9861159" lon="10.8587889"><ele>540.0</ele><time>2026-04-06T15:02:05.775Z</time></trkpt><trkpt lat="43.9861024" lon="10.8589345"><ele>540.5</ele><time>2026-04-06T15:02:06.787Z</time></trkpt><trkpt lat="43.9860518" lon="10.8590446"><ele>541.0</ele><time>2026-04-06T15:02:07.785Z</time></trkpt><trkpt lat="43.985992" lon="10.8591245"><ele>541.5</ele><time>2026-04-06T15:02:08.782Z</time></trkpt><trkpt lat="43.9858903" lon="10.8592327"><ele>542.0</ele><time>2026-04-06T15:02:09.788Z</time></trkpt><trkpt lat="43.9857341" lon="10.8592073"><ele>538.4</ele><time>2026-04-06T15:02:10.786Z</time></trkpt><trkpt lat="43.9856393" lon="10.8592418"><ele>534.8000000000001</ele><time>2026-04-06T15:02:11.785Z</time></trkpt><trkpt lat="43.9855454" lon="10.8593055"><ele>531.2</ele><time>2026-04-06T15:02:12.786Z</time></trkpt><trkpt lat="43.985452" lon="10.8593717"><ele>527.6</ele><time>2026-04-06T15:02:13.789Z</time></trkpt><trkpt lat="43.9853874" lon="10.8594537"><ele>524.0</ele><time>2026-04-06T15:02:14.775Z</time></trkpt><trkpt lat="43.9852801" lon="10.8595248"><ele>524.0</ele><time>2026-04-06T15:02:15.779Z</time></trkpt><trkpt lat="43.9851764" lon="10.8596379"><ele>524.0</ele><time>2026-04-06T15:02:16.782Z</time></trkpt><trkpt lat="43.9850635" lon="10.8597623"><ele>524.0</ele><time>2026-04-06T15:02:17.782Z</time></trkpt><trkpt lat="43.9849686" lon="10.8598845"><ele>524.0</ele><time>2026-04-06T15:02:18.788Z</time></trkpt><trkpt lat="43.9848727" lon="10.8599797"><ele>521.8</ele><time>2026-04-06T15:02:19.806Z</time></trkpt><trkpt lat="43.9848022" lon="10.8600985"><ele>519.5999999999999</ele><time>2026-04-06T15:02:20.783Z</time></trkpt><trkpt lat="43.9846885" lon="10.8601928"><ele>517.4</ele><time>2026-04-06T15:02:21.789Z</time></trkpt><trkpt lat="43.9846048" lon="10.8602435"><ele>515.1999999999999</ele><time>2026-04-06T15:02:22.783Z</time></trkpt><trkpt lat="43.9844987" lon="10.8602994"><ele>513.0</ele><time>2026-04-06T15:02:23.79Z</time></trkpt><trkpt lat="43.9844049" lon="10.8603407"><ele>513.0</ele><time>2026-04-06T15:02:24.787Z</time></trkpt><trkpt lat="43.9842908" lon="10.8603808"><ele>513.0</ele><time>2026-04-06T15:02:25.785Z</time></trkpt><trkpt lat="43.9842149" lon="10.8604703"><ele>513.0</ele><time>2026-04-06T15:02:26.781Z</time></trkpt><trkpt lat="43.9841391" lon="10.8605238"><ele>513.0</ele><time>2026-04-06T15:02:27.781Z</time></trkpt><trkpt lat="43.9840375" lon="10.8606363"><ele>513.0</ele><time>2026-04-06T15:02:28.784Z</time></trkpt><trkpt lat="43.9839809" lon="10.8608048"><ele>512.4</ele><time>2026-04-06T15:02:29.782Z</time></trkpt><trkpt lat="43.9838874" lon="10.8609375"><ele>511.79999999999995</ele><time>2026-04-06T15:02:30.782Z</time></trkpt><trkpt lat="43.9838168" lon="10.8610427"><ele>511.2</ele><time>2026-04-06T15:02:31.791Z</time></trkpt><trkpt lat="43.9837282" lon="10.8611253"><ele>510.6</ele><time>2026-04-06T15:02:32.782Z</time></trkpt><trkpt lat="43.9836396" lon="10.8611862"><ele>510.0</ele><time>2026-04-06T15:02:33.784Z</time></trkpt><trkpt lat="43.9835531" lon="10.8612365"><ele>510.0</ele><time>2026-04-06T15:02:34.786Z</time></trkpt><trkpt lat="43.9834645" lon="10.8612577"><ele>510.0</ele><time>2026-04-06T15:02:35.792Z</time></trkpt><trkpt lat="43.9833873" lon="10.8612941"><ele>510.0</ele><time>2026-04-06T15:02:36.781Z</time></trkpt><trkpt lat="43.983312" lon="10.8613242"><ele>510.0</ele><time>2026-04-06T15:02:37.782Z</time></trkpt><trkpt lat="43.9832423" lon="10.8613592"><ele>510.0</ele><time>2026-04-06T15:02:38.781Z</time></trkpt><trkpt lat="43.9831614" lon="10.8613843"><ele>510.0</ele><time>2026-04-06T15:02:39.787Z</time></trkpt><trkpt lat="43.9830967" lon="10.8614385"><ele>505.5</ele><time>2026-04-06T15:02:40.788Z</time></trkpt><trkpt lat="43.9830612" lon="10.8615169"><ele>501.0</ele><time>2026-04-06T15:02:41.79Z</time></trkpt><trkpt lat="43.9830218" lon="10.8616209"><ele>496.5</ele><time>2026-04-06T15:02:42.785Z</time></trkpt><trkpt lat="43.9829837" lon="10.8617317"><ele>492.0</ele><time>2026-04-06T15:02:43.783Z</time></trkpt><trkpt lat="43.9829616" lon="10.8618714"><ele>487.5</ele><time>2026-04-06T15:02:44.786Z</time></trkpt><trkpt lat="43.9829461" lon="10.8619908"><ele>483.0</ele><time>2026-04-06T15:02:45.783Z</time></trkpt><trkpt lat="43.9829319" lon="10.862114"><ele>483.0</ele><time>2026-04-06T15:02:46.788Z</time></trkpt><trkpt lat="43.9829214" lon="10.8622386"><ele>483.0</ele><time>2026-04-06T15:02:47.785Z</time></trkpt><trkpt lat="43.9829018" lon="10.862345"><ele>483.0</ele><time>2026-04-06T15:02:48.787Z</time></trkpt><trkpt lat="43.9828374" lon="10.8624272"><ele>483.0</ele><time>2026-04-06T15:02:49.784Z</time></trkpt><trkpt lat="43.9827834" lon="10.862511"><ele>483.0</ele><time>2026-04-06T15:02:50.789Z</time></trkpt><trkpt lat="43.9827165" lon="10.8625725"><ele>483.0</ele><time>2026-04-06T15:02:51.789Z</time></trkpt><trkpt lat="43.9826678" lon="10.8626341"><ele>481.8333333333333</ele><time>2026-04-06T15:02:52.789Z</time></trkpt><trkpt lat="43.9826002" lon="10.8626918"><ele>480.66666666666663</ele><time>2026-04-06T15:02:53.787Z</time></trkpt><trkpt lat="43.9825344" lon="10.862753"><ele>479.5</ele><time>2026-04-06T15:02:54.782Z</time></trkpt><trkpt lat="43.9824698" lon="10.8628269"><ele>478.3333333333333</ele><time>2026-04-06T15:02:55.785Z</time></trkpt><trkpt lat="43.9823811" lon="10.862875"><ele>477.16666666666663</ele><time>2026-04-06T15:02:56.785Z</time></trkpt><trkpt lat="43.9822997" lon="10.8629133"><ele>476.0</ele><time>2026-04-06T15:02:57.782Z</time></trkpt><trkpt lat="43.9822095" lon="10.8629922"><ele>476.0</ele><time>2026-04-06T15:02:58.783Z</time></trkpt><trkpt lat="43.9820987" lon="10.8630526"><ele>476.0</ele><time>2026-04-06T15:02:59.791Z</time></trkpt><trkpt lat="43.9820086" lon="10.8631376"><ele>476.0</ele><time>2026-04-06T15:03:00.79Z</time></trkpt><trkpt lat="43.981898" lon="10.8631857"><ele>476.0</ele><time>2026-04-06T15:03:01.782Z</time></trkpt><trkpt lat="43.9817895" lon="10.8632176"><ele>476.0</ele><time>2026-04-06T15:03:02.782Z</time></trkpt><trkpt lat="43.9816833" lon="10.8632531"><ele>476.0</ele><time>2026-04-06T15:03:03.782Z</time></trkpt><trkpt lat="43.9815868" lon="10.8633112"><ele>476.0</ele><time>2026-04-06T15:03:04.784Z</time></trkpt><trkpt lat="43.9814714" lon="10.8633599"><ele>476.0</ele><time>2026-04-06T15:03:05.783Z</time></trkpt><trkpt lat="43.98137" lon="10.8633742"><ele>476.0</ele><time>2026-04-06T15:03:06.783Z</time></trkpt><trkpt lat="43.9812639" lon="10.8634212"><ele>477.20000000000005</ele><time>2026-04-06T15:03:07.783Z</time></trkpt><trkpt lat="43.9811534" lon="10.8634424"><ele>478.40000000000003</ele><time>2026-04-06T15:03:08.785Z</time></trkpt><trkpt lat="43.9810467" lon="10.863468"><ele>479.6</ele><time>2026-04-06T15:03:09.786Z</time></trkpt><trkpt lat="43.9809615" lon="10.8635107"><ele>480.8</ele><time>2026-04-06T15:03:10.788Z</time></trkpt><trkpt lat="43.9808452" lon="10.8635358"><ele>482.0</ele><time>2026-04-06T15:03:11.79Z</time></trkpt><trkpt lat="43.9807448" lon="10.8636126"><ele>474.8</ele><time>2026-04-06T15:03:12.785Z</time></trkpt><trkpt lat="43.9806555" lon="10.8636657"><ele>467.6</ele><time>2026-04-06T15:03:13.787Z</time></trkpt><trkpt lat="43.9805822" lon="10.8637439"><ele>460.40000000000003</ele><time>2026-04-06T15:03:14.779Z</time></trkpt><trkpt lat="43.9805421" lon="10.8638785"><ele>453.20000000000005</ele><time>2026-04-06T15:03:16.784Z</time></trkpt><trkpt lat="43.9805036" lon="10.8640225"><ele>446.0</ele><time>2026-04-06T15:03:17.782Z</time></trkpt><trkpt lat="43.9804684" lon="10.8642002"><ele>446.0</ele><time>2026-04-06T15:03:18.781Z</time></trkpt><trkpt lat="43.9804364" lon="10.8643846"><ele>446.0</ele><time>2026-04-06T15:03:19.783Z</time></trkpt><trkpt lat="43.9804096" lon="10.8645611"><ele>446.0</ele><time>2026-04-06T15:03:20.785Z</time></trkpt><trkpt lat="43.9804008" lon="10.8647302"><ele>446.0</ele><time>2026-04-06T15:03:21.784Z</time></trkpt><trkpt lat="43.9803972" lon="10.8649054"><ele>446.0</ele><time>2026-04-06T15:03:22.79Z</time></trkpt><trkpt lat="43.9803784" lon="10.8650595"><ele>446.0</ele><time>2026-04-06T15:03:23.785Z</time></trkpt><trkpt lat="43.9803783" lon="10.8651937"><ele>446.0</ele><time>2026-04-06T15:03:24.783Z</time></trkpt><trkpt lat="43.9803689" lon="10.8653121"><ele>446.0</ele><time>2026-04-06T15:03:25.788Z</time></trkpt><trkpt lat="43.9803758" lon="10.8654306"><ele>446.0</ele><time>2026-04-06T15:03:26.784Z</time></trkpt><trkpt lat="43.9803766" lon="10.8655698"><ele>443.6</ele><time>2026-04-06T15:03:27.783Z</time></trkpt><trkpt lat="43.9803745" lon="10.8657144"><ele>441.20000000000005</ele><time>2026-04-06T15:03:28.784Z</time></trkpt><trkpt lat="43.9803843" lon="10.8658777"><ele>438.79999999999995</ele><time>2026-04-06T15:03:29.797Z</time></trkpt><trkpt lat="43.9803839" lon="10.8660205"><ele>436.4</ele><time>2026-04-06T15:03:30.785Z</time></trkpt><trkpt lat="43.9803897" lon="10.8661694"><ele>434.0</ele><time>2026-04-06T15:03:31.78Z</time></trkpt><trkpt lat="43.9803911" lon="10.8663444"><ele>431.25</ele><time>2026-04-06T15:03:32.782Z</time></trkpt><trkpt lat="43.9804221" lon="10.8665244"><ele>428.5</ele><time>2026-04-06T15:03:33.785Z</time></trkpt><trkpt lat="43.9804665" lon="10.8667022"><ele>425.75</ele><time>2026-04-06T15:03:34.784Z</time></trkpt><trkpt lat="43.9804713" lon="10.8668326"><ele>423.0</ele><time>2026-04-06T15:03:35.787Z</time></trkpt><trkpt lat="43.9805408" lon="10.8669503"><ele>421.59999999999997</ele><time>2026-04-06T15:03:36.785Z</time></trkpt><trkpt lat="43.9805957" lon="10.8670415"><ele>420.2</ele><time>2026-04-06T15:03:37.788Z</time></trkpt><trkpt lat="43.9806518" lon="10.8671451"><ele>418.8</ele><time>2026-04-06T15:03:38.782Z</time></trkpt><trkpt lat="43.980699" lon="10.8672675"><ele>417.4</ele><time>2026-04-06T15:03:39.78Z</time></trkpt><trkpt lat="43.9807438" lon="10.8673928"><ele>416.0</ele><time>2026-04-06T15:03:40.786Z</time></trkpt><trkpt lat="43.9807887" lon="10.8675118"><ele>417.5</ele><time>2026-04-06T15:03:41.781Z</time></trkpt><trkpt lat="43.980788" lon="10.8676664"><ele>419.0</ele><time>2026-04-06T15:03:42.787Z</time></trkpt><trkpt lat="43.9807674" lon="10.8678258"><ele>420.5</ele><time>2026-04-06T15:03:43.783Z</time></trkpt><trkpt lat="43.9807517" lon="10.8679871"><ele>422.0</ele><time>2026-04-06T15:03:44.785Z</time></trkpt><trkpt lat="43.980732" lon="10.8681536"><ele>422.0</ele><time>2026-04-06T15:03:45.782Z</time></trkpt><trkpt lat="43.9807008" lon="10.8683201"><ele>422.0</ele><time>2026-04-06T15:03:46.784Z</time></trkpt><trkpt lat="43.9806602" lon="10.8685042"><ele>422.0</ele><time>2026-04-06T15:03:47.783Z</time></trkpt><trkpt lat="43.9806399" lon="10.8686837"><ele>422.0</ele><time>2026-04-06T15:03:48.783Z</time></trkpt><trkpt lat="43.98062" lon="10.8688627"><ele>423.75</ele><time>2026-04-06T15:03:49.784Z</time></trkpt><trkpt lat="43.9805807" lon="10.8690374"><ele>425.5</ele><time>2026-04-06T15:03:50.785Z</time></trkpt><trkpt lat="43.9805378" lon="10.8691982"><ele>427.25</ele><time>2026-04-06T15:03:51.781Z</time></trkpt><trkpt lat="43.9804574" lon="10.869336"><ele>429.0</ele><time>2026-04-06T15:03:52.785Z</time></trkpt><trkpt lat="43.980369" lon="10.8694672"><ele>431.5</ele><time>2026-04-06T15:03:53.787Z</time></trkpt><trkpt lat="43.980298" lon="10.8695996"><ele>434.0</ele><time>2026-04-06T15:03:54.781Z</time></trkpt><trkpt lat="43.9802054" lon="10.8697382"><ele>436.5</ele><time>2026-04-06T15:03:55.78Z</time></trkpt><trkpt lat="43.9801436" lon="10.8698923"><ele>439.0</ele><time>2026-04-06T15:03:56.783Z</time></trkpt><trkpt lat="43.9800575" lon="10.8700568"><ele>430.75</ele><time>2026-04-06T15:03:57.779Z</time></trkpt><trkpt lat="43.9799744" lon="10.8701845"><ele>422.5</ele><time>2026-04-06T15:03:58.783Z</time></trkpt><trkpt lat="43.9798816" lon="10.8703364"><ele>414.25</ele><time>2026-04-06T15:03:59.787Z</time></trkpt><trkpt lat="43.9798109" lon="10.8704584"><ele>406.0</ele><time>2026-04-06T15:04:00.79Z</time></trkpt><trkpt lat="43.9797397" lon="10.8705528"><ele>406.0</ele><time>2026-04-06T15:04:01.784Z</time></trkpt><trkpt lat="43.9796279" lon="10.8706553"><ele>406.0</ele><time>2026-04-06T15:04:02.785Z</time></trkpt><trkpt lat="43.979545" lon="10.8707586"><ele>406.0</ele><time>2026-04-06T15:04:03.784Z</time></trkpt><trkpt lat="43.9794905" lon="10.8708578"><ele>406.0</ele><time>2026-04-06T15:04:04.786Z</time></trkpt><trkpt lat="43.9794367" lon="10.8709896"><ele>406.0</ele><time>2026-04-06T15:04:05.776Z</time></trkpt><trkpt lat="43.9794033" lon="10.8710838"><ele>404.25</ele><time>2026-04-06T15:04:06.783Z</time></trkpt><trkpt lat="43.979371" lon="10.8712733"><ele>402.5</ele><time>2026-04-06T15:04:07.79Z</time></trkpt><trkpt lat="43.9793441" lon="10.8714794"><ele>400.75</ele><time>2026-04-06T15:04:08.785Z</time></trkpt><trkpt lat="43.9792871" lon="10.8716224"><ele>399.0</ele><time>2026-04-06T15:04:09.792Z</time></trkpt><trkpt lat="43.9792367" lon="10.8717696"><ele>396.2</ele><time>2026-04-06T15:04:10.78Z</time></trkpt><trkpt lat="43.9791999" lon="10.8718882"><ele>393.4</ele><time>2026-04-06T15:04:11.776Z</time></trkpt><trkpt lat="43.9791482" lon="10.8720198"><ele>390.6</ele><time>2026-04-06T15:04:12.785Z</time></trkpt><trkpt lat="43.9790609" lon="10.8721263"><ele>387.8</ele><time>2026-04-06T15:04:13.777Z</time></trkpt><trkpt lat="43.9790291" lon="10.8722747"><ele>385.0</ele><time>2026-04-06T15:04:14.793Z</time></trkpt><trkpt lat="43.9789669" lon="10.8723923"><ele>383.1666666666667</ele><time>2026-04-06T15:04:15.781Z</time></trkpt><trkpt lat="43.9789684" lon="10.8725233"><ele>381.33333333333337</ele><time>2026-04-06T15:04:16.784Z</time></trkpt><trkpt lat="43.9789181" lon="10.8726304"><ele>379.5</ele><time>2026-04-06T15:04:17.778Z</time></trkpt><trkpt lat="43.9788387" lon="10.872693"><ele>377.6666666666667</ele><time>2026-04-06T15:04:18.776Z</time></trkpt><trkpt lat="43.9787692" lon="10.872757"><ele>375.83333333333337</ele><time>2026-04-06T15:04:19.783Z</time></trkpt><trkpt lat="43.9786913" lon="10.8727952"><ele>374.0</ele><time>2026-04-06T15:04:20.776Z</time></trkpt><trkpt lat="43.9785764" lon="10.8728059"><ele>371.75</ele><time>2026-04-06T15:04:21.778Z</time></trkpt><trkpt lat="43.9784596" lon="10.8728888"><ele>369.5</ele><time>2026-04-06T15:04:23.792Z</time></trkpt><trkpt lat="43.9783319" lon="10.8729758"><ele>367.25</ele><time>2026-04-06T15:04:25.781Z</time></trkpt><trkpt lat="43.9782348" lon="10.873065"><ele>365.0</ele><time>2026-04-06T15:04:27.783Z</time></trkpt><trkpt lat="43.9781978" lon="10.8731544"><ele>365.0</ele><time>2026-04-06T15:04:28.78Z</time></trkpt><trkpt lat="43.9781508" lon="10.8732285"><ele>365.0</ele><time>2026-04-06T15:04:29.791Z</time></trkpt><trkpt lat="43.9781194" lon="10.8733867"><ele>365.0</ele><time>2026-04-06T15:04:31.777Z</time></trkpt><trkpt lat="43.9781217" lon="10.873502"><ele>365.0</ele><time>2026-04-06T15:04:32.791Z</time></trkpt><trkpt lat="43.978138" lon="10.8736007"><ele>365.0</ele><time>2026-04-06T15:04:33.8Z</time></trkpt><trkpt lat="43.9781777" lon="10.8736701"><ele>365.0</ele><time>2026-04-06T15:04:34.777Z</time></trkpt><trkpt lat="43.9782189" lon="10.8737365"><ele>363.0</ele><time>2026-04-06T15:04:35.778Z</time></trkpt><trkpt lat="43.9782771" lon="10.8738152"><ele>361.0</ele><time>2026-04-06T15:04:36.787Z</time></trkpt><trkpt lat="43.978355" lon="10.8738301"><ele>359.0</ele><time>2026-04-06T15:04:37.775Z</time></trkpt><trkpt lat="43.9784339" lon="10.8738015"><ele>357.0</ele><time>2026-04-06T15:04:38.787Z</time></trkpt><trkpt lat="43.9785332" lon="10.8737618"><ele>355.0</ele><time>2026-04-06T15:04:39.795Z</time></trkpt><trkpt lat="43.9786469" lon="10.8737041"><ele>353.0</ele><time>2026-04-06T15:04:40.781Z</time></trkpt><trkpt lat="43.9788109" lon="10.8736318"><ele>351.0</ele><time>2026-04-06T15:04:41.803Z</time></trkpt><trkpt lat="43.9789302" lon="10.8736054"><ele>349.0</ele><time>2026-04-06T15:04:42.782Z</time></trkpt><trkpt lat="43.9790566" lon="10.8736082"><ele>347.0</ele><time>2026-04-06T15:04:43.777Z</time></trkpt><trkpt lat="43.9791591" lon="10.8736404"><ele>348.75</ele><time>2026-04-06T15:04:44.777Z</time></trkpt><trkpt lat="43.9793034" lon="10.8737483"><ele>350.5</ele><time>2026-04-06T15:04:45.777Z</time></trkpt><trkpt lat="43.9794175" lon="10.8738639"><ele>352.25</ele><time>2026-04-06T15:04:46.785Z</time></trkpt><trkpt lat="43.9795355" lon="10.8739587"><ele>354.0</ele><time>2026-04-06T15:04:47.79Z</time></trkpt><trkpt lat="43.9796035" lon="10.8740361"><ele>354.0</ele><time>2026-04-06T15:04:48.788Z</time></trkpt><trkpt lat="43.9796512" lon="10.8741006"><ele>354.0</ele><time>2026-04-06T15:04:49.787Z</time></trkpt><trkpt lat="43.9797439" lon="10.874178"><ele>354.0</ele><time>2026-04-06T15:04:50.789Z</time></trkpt><trkpt lat="43.9798378" lon="10.8742443"><ele>354.0</ele><time>2026-04-06T15:04:51.787Z</time></trkpt><trkpt lat="43.9799152" lon="10.8742702"><ele>354.0</ele><time>2026-04-06T15:04:52.784Z</time></trkpt><trkpt lat="43.9799657" lon="10.8743357"><ele>354.0</ele><time>2026-04-06T15:04:53.789Z</time></trkpt><trkpt lat="43.9800469" lon="10.8743612"><ele>353.3333333333333</ele><time>2026-04-06T15:04:54.789Z</time></trkpt><trkpt lat="43.9801456" lon="10.8743846"><ele>352.6666666666667</ele><time>2026-04-06T15:04:55.782Z</time></trkpt><trkpt lat="43.9802272" lon="10.8744153"><ele>352.0</ele><time>2026-04-06T15:04:56.789Z</time></trkpt><trkpt lat="43.9803045" lon="10.8744803"><ele>351.33333333333337</ele><time>2026-04-06T15:04:57.784Z</time></trkpt><trkpt lat="43.9803463" lon="10.8745856"><ele>350.6666666666667</ele><time>2026-04-06T15:04:58.783Z</time></trkpt><trkpt lat="43.9803621" lon="10.874694"><ele>350.0</ele><time>2026-04-06T15:04:59.779Z</time></trkpt><trkpt lat="43.9803376" lon="10.8748783"><ele>350.0</ele><time>2026-04-06T15:05:01.789Z</time></trkpt><trkpt lat="43.9801826" lon="10.8749839"><ele>350.0</ele><time>2026-04-06T15:05:03.788Z</time></trkpt><trkpt lat="43.9800372" lon="10.8749681"><ele>350.0</ele><time>2026-04-06T15:05:04.78Z</time></trkpt><trkpt lat="43.9798983" lon="10.8749842"><ele>347.0</ele><time>2026-04-06T15:05:05.781Z</time></trkpt><trkpt lat="43.9797447" lon="10.8749604"><ele>344.0</ele><time>2026-04-06T15:05:06.785Z</time></trkpt><trkpt lat="43.9796382" lon="10.8748956"><ele>341.0</ele><time>2026-04-06T15:05:07.777Z</time></trkpt><trkpt lat="43.9795247" lon="10.8748459"><ele>338.0</ele><time>2026-04-06T15:05:08.782Z</time></trkpt><trkpt lat="43.9794005" lon="10.8748416"><ele>338.0</ele><time>2026-04-06T15:05:09.78Z</time></trkpt><trkpt lat="43.979272" lon="10.8748553"><ele>338.0</ele><time>2026-04-06T15:05:10.781Z</time></trkpt><trkpt lat="43.9791413" lon="10.8748936"><ele>338.0</ele><time>2026-04-06T15:05:11.785Z</time></trkpt><trkpt lat="43.9790278" lon="10.8749585"><ele>338.0</ele><time>2026-04-06T15:05:12.782Z</time></trkpt><trkpt lat="43.9788961" lon="10.8751009"><ele>328.0</ele><time>2026-04-06T15:05:13.783Z</time></trkpt><trkpt lat="43.9787419" lon="10.8752414"><ele>318.0</ele><time>2026-04-06T15:05:14.786Z</time></trkpt><trkpt lat="43.9786155" lon="10.8753367"><ele>308.0</ele><time>2026-04-06T15:05:15.79Z</time></trkpt><trkpt lat="43.9784931" lon="10.875442"><ele>308.0</ele><time>2026-04-06T15:05:16.777Z</time></trkpt><trkpt lat="43.9783807" lon="10.8755427"><ele>308.0</ele><time>2026-04-06T15:05:17.787Z</time></trkpt><trkpt lat="43.9782663" lon="10.8756342"><ele>308.0</ele><time>2026-04-06T15:05:18.79Z</time></trkpt><trkpt lat="43.978145" lon="10.8756733"><ele>308.0</ele><time>2026-04-06T15:05:19.783Z</time></trkpt><trkpt lat="43.9780295" lon="10.875697"><ele>308.5</ele><time>2026-04-06T15:05:20.79Z</time></trkpt><trkpt lat="43.9778814" lon="10.8756803"><ele>309.0</ele><time>2026-04-06T15:05:21.786Z</time></trkpt><trkpt lat="43.9777181" lon="10.875702"><ele>309.5</ele><time>2026-04-06T15:05:22.785Z</time></trkpt><trkpt lat="43.9776099" lon="10.8757237"><ele>310.0</ele><time>2026-04-06T15:05:23.783Z</time></trkpt><trkpt lat="43.977451" lon="10.87574"><ele>311.0</ele><time>2026-04-06T15:05:24.785Z</time></trkpt><trkpt lat="43.9773139" lon="10.8757442"><ele>312.0</ele><time>2026-04-06T15:05:25.785Z</time></trkpt><trkpt lat="43.9771808" lon="10.8757687"><ele>313.0</ele><time>2026-04-06T15:05:26.781Z</time></trkpt><trkpt lat="43.9770602" lon="10.8758053"><ele>314.0</ele><time>2026-04-06T15:05:27.779Z</time></trkpt><trkpt lat="43.9769295" lon="10.8758395"><ele>314.0</ele><time>2026-04-06T15:05:28.788Z</time></trkpt><trkpt lat="43.9768157" lon="10.8758661"><ele>314.0</ele><time>2026-04-06T15:05:29.805Z</time></trkpt><trkpt lat="43.9767159" lon="10.8758854"><ele>314.0</ele><time>2026-04-06T15:05:30.784Z</time></trkpt><trkpt lat="43.9765945" lon="10.8758989"><ele>314.0</ele><time>2026-04-06T15:05:31.781Z</time></trkpt><trkpt lat="43.9764904" lon="10.8758773"><ele>314.0</ele><time>2026-04-06T15:05:32.782Z</time></trkpt><trkpt lat="43.9763889" lon="10.8758402"><ele>312.83333333333337</ele><time>2026-04-06T15:05:33.785Z</time></trkpt><trkpt lat="43.9762832" lon="10.8758036"><ele>311.6666666666667</ele><time>2026-04-06T15:05:34.787Z</time></trkpt><trkpt lat="43.9761952" lon="10.8757603"><ele>310.5</ele><time>2026-04-06T15:05:35.789Z</time></trkpt><trkpt lat="43.9761262" lon="10.8757199"><ele>309.3333333333333</ele><time>2026-04-06T15:05:36.785Z</time></trkpt><trkpt lat="43.9760605" lon="10.8756558"><ele>308.16666666666663</ele><time>2026-04-06T15:05:37.784Z</time></trkpt><trkpt lat="43.9759977" lon="10.8756042"><ele>307.0</ele><time>2026-04-06T15:05:38.783Z</time></trkpt><trkpt lat="43.9759391" lon="10.8755656"><ele>307.0</ele><time>2026-04-06T15:05:39.782Z</time></trkpt><trkpt lat="43.975875" lon="10.875532"><ele>307.0</ele><time>2026-04-06T15:05:40.793Z</time></trkpt><trkpt lat="43.9758145" lon="10.8754924"><ele>307.0</ele><time>2026-04-06T15:05:41.79Z</time></trkpt><trkpt lat="43.9757152" lon="10.8754517"><ele>307.0</ele><time>2026-04-06T15:05:42.782Z</time></trkpt><trkpt lat="43.9756237" lon="10.8754397"><ele>307.0</ele><time>2026-04-06T15:05:43.783Z</time></trkpt><trkpt lat="43.9755549" lon="10.8755265"><ele>307.0</ele><time>2026-04-06T15:05:44.783Z</time></trkpt><trkpt lat="43.975473" lon="10.8755482"><ele>305.8333333333333</ele><time>2026-04-06T15:05:45.78Z</time></trkpt><trkpt lat="43.9753887" lon="10.8756125"><ele>304.66666666666663</ele><time>2026-04-06T15:05:46.779Z</time></trkpt><trkpt lat="43.9753255" lon="10.8756523"><ele>303.5</ele><time>2026-04-06T15:05:47.776Z</time></trkpt><trkpt lat="43.9752477" lon="10.875685"><ele>302.3333333333333</ele><time>2026-04-06T15:05:48.782Z</time></trkpt><trkpt lat="43.9751684" lon="10.8757392"><ele>301.1666666666667</ele><time>2026-04-06T15:05:49.787Z</time></trkpt><trkpt lat="43.9750922" lon="10.8757827"><ele>300.0</ele><time>2026-04-06T15:05:50.785Z</time></trkpt><trkpt lat="43.975012" lon="10.8758364"><ele>297.1666666666667</ele><time>2026-04-06T15:05:51.78Z</time></trkpt><trkpt lat="43.9749394" lon="10.8759021"><ele>294.3333333333333</ele><time>2026-04-06T15:05:52.779Z</time></trkpt><trkpt lat="43.9748762" lon="10.8759839"><ele>291.5</ele><time>2026-04-06T15:05:53.792Z</time></trkpt><trkpt lat="43.9748323" lon="10.8760579"><ele>288.66666666666663</ele><time>2026-04-06T15:05:54.783Z</time></trkpt><trkpt lat="43.9748092" lon="10.8761789"><ele>285.8333333333333</ele><time>2026-04-06T15:05:55.782Z</time></trkpt><trkpt lat="43.9747897" lon="10.8762867"><ele>283.0</ele><time>2026-04-06T15:05:56.783Z</time></trkpt><trkpt lat="43.9747939" lon="10.8764332"><ele>282.8</ele><time>2026-04-06T15:05:57.779Z</time></trkpt><trkpt lat="43.9748236" lon="10.8765374"><ele>282.6</ele><time>2026-04-06T15:05:58.789Z</time></trkpt><trkpt lat="43.9749165" lon="10.8766096"><ele>282.4</ele><time>2026-04-06T15:05:59.781Z</time></trkpt><trkpt lat="43.9750071" lon="10.8767151"><ele>282.2</ele><time>2026-04-06T15:06:00.788Z</time></trkpt><trkpt lat="43.9751205" lon="10.8768122"><ele>282.0</ele><time>2026-04-06T15:06:01.785Z</time></trkpt><trkpt lat="43.9752565" lon="10.8769148"><ele>280.75</ele><time>2026-04-06T15:06:02.78Z</time></trkpt><trkpt lat="43.9753875" lon="10.8770017"><ele>279.5</ele><time>2026-04-06T15:06:03.787Z</time></trkpt><trkpt lat="43.9755" lon="10.8770995"><ele>278.25</ele><time>2026-04-06T15:06:04.792Z</time></trkpt><trkpt lat="43.9756006" lon="10.8771971"><ele>277.0</ele><time>2026-04-06T15:06:05.79Z</time></trkpt><trkpt lat="43.9756911" lon="10.8772804"><ele>277.0</ele><time>2026-04-06T15:06:06.776Z</time></trkpt><trkpt lat="43.9757497" lon="10.8773484"><ele>277.0</ele><time>2026-04-06T15:06:07.783Z</time></trkpt><trkpt lat="43.9758046" lon="10.8774471"><ele>277.0</ele><time>2026-04-06T15:06:08.786Z</time></trkpt><trkpt lat="43.9758164" lon="10.8775497"><ele>277.0</ele><time>2026-04-06T15:06:09.782Z</time></trkpt><trkpt lat="43.9758741" lon="10.8777158"><ele>277.0</ele><time>2026-04-06T15:06:11.783Z</time></trkpt><trkpt lat="43.9758677" lon="10.877856"><ele>275.5</ele><time>2026-04-06T15:06:12.784Z</time></trkpt><trkpt lat="43.9758601" lon="10.8779771"><ele>274.0</ele><time>2026-04-06T15:06:13.778Z</time></trkpt><trkpt lat="43.975837" lon="10.8781076"><ele>272.5</ele><time>2026-04-06T15:06:14.785Z</time></trkpt><trkpt lat="43.9758034" lon="10.878224"><ele>271.0</ele><time>2026-04-06T15:06:15.787Z</time></trkpt><trkpt lat="43.9757624" lon="10.8783183"><ele>269.5</ele><time>2026-04-06T15:06:16.779Z</time></trkpt><trkpt lat="43.9757082" lon="10.8783956"><ele>268.0</ele><time>2026-04-06T15:06:17.797Z</time></trkpt><trkpt lat="43.9756694" lon="10.8784786"><ele>264.6</ele><time>2026-04-06T15:06:18.779Z</time></trkpt><trkpt lat="43.9756091" lon="10.8786055"><ele>261.20000000000005</ele><time>2026-04-06T15:06:19.781Z</time></trkpt><trkpt lat="43.9755675" lon="10.8787224"><ele>257.8</ele><time>2026-04-06T15:06:20.78Z</time></trkpt><trkpt lat="43.9755334" lon="10.8788739"><ele>254.4</ele><time>2026-04-06T15:06:21.781Z</time></trkpt><trkpt lat="43.9755176" lon="10.879002"><ele>251.0</ele><time>2026-04-06T15:06:22.776Z</time></trkpt><trkpt lat="43.975494" lon="10.8790958"><ele>251.00000000000003</ele><time>2026-04-06T15:06:23.785Z</time></trkpt><trkpt lat="43.9754828" lon="10.8791973"><ele>251.0</ele><time>2026-04-06T15:06:24.783Z</time></trkpt><trkpt lat="43.9754511" lon="10.8793021"><ele>251.0</ele><time>2026-04-06T15:06:25.781Z</time></trkpt><trkpt lat="43.9754186" lon="10.8794183"><ele>251.0</ele><time>2026-04-06T15:06:26.788Z</time></trkpt><trkpt lat="43.9753838" lon="10.8795274"><ele>251.00000000000003</ele><time>2026-04-06T15:06:27.783Z</time></trkpt><trkpt lat="43.9753692" lon="10.8796511"><ele>251.0</ele><time>2026-04-06T15:06:28.783Z</time></trkpt><trkpt lat="43.9753424" lon="10.8797791"><ele>249.0</ele><time>2026-04-06T15:06:29.788Z</time></trkpt><trkpt lat="43.9753051" lon="10.8799038"><ele>247.0</ele><time>2026-04-06T15:06:30.788Z</time></trkpt><trkpt lat="43.975286" lon="10.8800642"><ele>245.0</ele><time>2026-04-06T15:06:31.785Z</time></trkpt><trkpt lat="43.9752778" lon="10.8802319"><ele>243.0</ele><time>2026-04-06T15:06:32.782Z</time></trkpt><trkpt lat="43.9752705" lon="10.8804097"><ele>242.25</ele><time>2026-04-06T15:06:33.793Z</time></trkpt><trkpt lat="43.9752899" lon="10.8806459"><ele>241.5</ele><time>2026-04-06T15:06:34.787Z</time></trkpt><trkpt lat="43.9752909" lon="10.8808378"><ele>240.75</ele><time>2026-04-06T15:06:35.783Z</time></trkpt><trkpt lat="43.9753029" lon="10.8810082"><ele>240.0</ele><time>2026-04-06T15:06:36.785Z</time></trkpt><trkpt lat="43.9752665" lon="10.8811681"><ele>240.6</ele><time>2026-04-06T15:06:37.786Z</time></trkpt><trkpt lat="43.9752084" lon="10.8813059"><ele>241.2</ele><time>2026-04-06T15:06:38.791Z</time></trkpt><trkpt lat="43.975137" lon="10.881403"><ele>241.8</ele><time>2026-04-06T15:06:39.782Z</time></trkpt><trkpt lat="43.9750682" lon="10.881502"><ele>242.4</ele><time>2026-04-06T15:06:40.782Z</time></trkpt><trkpt lat="43.9749519" lon="10.8815597"><ele>243.0</ele><time>2026-04-06T15:06:41.794Z</time></trkpt><trkpt lat="43.9747889" lon="10.8816129"><ele>243.0</ele><time>2026-04-06T15:06:42.788Z</time></trkpt><trkpt lat="43.9746411" lon="10.8816865"><ele>243.0</ele><time>2026-04-06T15:06:43.78Z</time></trkpt><trkpt lat="43.9744668" lon="10.8817303"><ele>243.0</ele><time>2026-04-06T15:06:44.779Z</time></trkpt><trkpt lat="43.9742797" lon="10.8817567"><ele>243.25</ele><time>2026-04-06T15:06:45.787Z</time></trkpt><trkpt lat="43.9741413" lon="10.8818052"><ele>243.5</ele><time>2026-04-06T15:06:46.784Z</time></trkpt><trkpt lat="43.9740034" lon="10.881857"><ele>243.75</ele><time>2026-04-06T15:06:47.786Z</time></trkpt><trkpt lat="43.9738806" lon="10.8818989"><ele>244.0</ele><time>2026-04-06T15:06:48.784Z</time></trkpt><trkpt lat="43.9737646" lon="10.8819421"><ele>244.0</ele><time>2026-04-06T15:06:49.781Z</time></trkpt><trkpt lat="43.9736401" lon="10.882033"><ele>244.0</ele><time>2026-04-06T15:06:50.787Z</time></trkpt><trkpt lat="43.9735299" lon="10.8821162"><ele>244.0</ele><time>2026-04-06T15:06:51.782Z</time></trkpt><trkpt lat="43.9734167" lon="10.8822045"><ele>244.0</ele><time>2026-04-06T15:06:52.788Z</time></trkpt><trkpt lat="43.9733054" lon="10.882299"><ele>240.75</ele><time>2026-04-06T15:06:53.786Z</time></trkpt><trkpt lat="43.9732092" lon="10.8823782"><ele>237.5</ele><time>2026-04-06T15:06:54.784Z</time></trkpt><trkpt lat="43.9730996" lon="10.8824626"><ele>234.25</ele><time>2026-04-06T15:06:55.781Z</time></trkpt><trkpt lat="43.973012" lon="10.8825601"><ele>231.0</ele><time>2026-04-06T15:06:56.788Z</time></trkpt><trkpt lat="43.9729212" lon="10.8827058"><ele>229.0</ele><time>2026-04-06T15:06:57.786Z</time></trkpt><trkpt lat="43.9728918" lon="10.8828127"><ele>227.00000000000003</ele><time>2026-04-06T15:06:58.794Z</time></trkpt><trkpt lat="43.9729291" lon="10.8829851"><ele>225.00000000000003</ele><time>2026-04-06T15:07:00.783Z</time></trkpt><trkpt lat="43.9729534" lon="10.8831345"><ele>223.0</ele><time>2026-04-06T15:07:01.785Z</time></trkpt><trkpt lat="43.9729299" lon="10.8832505"><ele>221.0</ele><time>2026-04-06T15:07:02.781Z</time></trkpt><trkpt lat="43.9729153" lon="10.8833505"><ele>218.4</ele><time>2026-04-06T15:07:03.783Z</time></trkpt><trkpt lat="43.9728443" lon="10.8835063"><ele>215.8</ele><time>2026-04-06T15:07:05.783Z</time></trkpt><trkpt lat="43.9727941" lon="10.8835597"><ele>213.20000000000002</ele><time>2026-04-06T15:07:06.777Z</time></trkpt><trkpt lat="43.9727283" lon="10.8835942"><ele>210.60000000000002</ele><time>2026-04-06T15:07:07.789Z</time></trkpt><trkpt lat="43.9726092" lon="10.8836056"><ele>208.0</ele><time>2026-04-06T15:07:08.781Z</time></trkpt><trkpt lat="43.9724225" lon="10.8835617"><ele>207.5</ele><time>2026-04-06T15:07:09.782Z</time></trkpt><trkpt lat="43.9723008" lon="10.8834741"><ele>207.0</ele><time>2026-04-06T15:07:10.79Z</time></trkpt><trkpt lat="43.9721799" lon="10.8834016"><ele>206.5</ele><time>2026-04-06T15:07:11.789Z</time></trkpt><trkpt lat="43.9720614" lon="10.8833281"><ele>206.0</ele><time>2026-04-06T15:07:12.785Z</time></trkpt><trkpt lat="43.9719604" lon="10.8832773"><ele>206.33333333333334</ele><time>2026-04-06T15:07:13.798Z</time></trkpt><trkpt lat="43.9718727" lon="10.8832357"><ele>206.66666666666669</ele><time>2026-04-06T15:07:14.788Z</time></trkpt><trkpt lat="43.9717852" lon="10.883228"><ele>207.0</ele><time>2026-04-06T15:07:15.786Z</time></trkpt><trkpt lat="43.9717202" lon="10.8833108"><ele>207.33333333333331</ele><time>2026-04-06T15:07:16.788Z</time></trkpt><trkpt lat="43.9716581" lon="10.8833772"><ele>207.66666666666666</ele><time>2026-04-06T15:07:17.779Z</time></trkpt><trkpt lat="43.9716077" lon="10.8834484"><ele>208.0</ele><time>2026-04-06T15:07:18.78Z</time></trkpt><trkpt lat="43.97158" lon="10.8835314"><ele>207.60000000000002</ele><time>2026-04-06T15:07:19.783Z</time></trkpt><trkpt lat="43.9715902" lon="10.883634"><ele>207.20000000000002</ele><time>2026-04-06T15:07:20.799Z</time></trkpt><trkpt lat="43.9716273" lon="10.8838117"><ele>206.8</ele><time>2026-04-06T15:07:22.791Z</time></trkpt><trkpt lat="43.9716953" lon="10.8838854"><ele>206.4</ele><time>2026-04-06T15:07:23.786Z</time></trkpt><trkpt lat="43.9717464" lon="10.8839564"><ele>206.0</ele><time>2026-04-06T15:07:24.784Z</time></trkpt><trkpt lat="43.9718198" lon="10.8840334"><ele>206.0</ele><time>2026-04-06T15:07:25.785Z</time></trkpt><trkpt lat="43.9718779" lon="10.8840874"><ele>206.0</ele><time>2026-04-06T15:07:26.786Z</time></trkpt><trkpt lat="43.9719758" lon="10.884156"><ele>206.0</ele><time>2026-04-06T15:07:27.788Z</time></trkpt><trkpt lat="43.9720823" lon="10.8841965"><ele>206.0</ele><time>2026-04-06T15:07:28.789Z</time></trkpt><trkpt lat="43.9721825" lon="10.8842425"><ele>206.0</ele><time>2026-04-06T15:07:29.791Z</time></trkpt><trkpt lat="43.9722909" lon="10.8843028"><ele>204.8</ele><time>2026-04-06T15:07:30.79Z</time></trkpt><trkpt lat="43.9723836" lon="10.8843565"><ele>203.60000000000002</ele><time>2026-04-06T15:07:31.784Z</time></trkpt><trkpt lat="43.9724708" lon="10.8844118"><ele>202.4</ele><time>2026-04-06T15:07:32.781Z</time></trkpt><trkpt lat="43.9725638" lon="10.8844472"><ele>201.2</ele><time>2026-04-06T15:07:33.784Z</time></trkpt><trkpt lat="43.9726335" lon="10.8845053"><ele>200.0</ele><time>2026-04-06T15:07:34.786Z</time></trkpt><trkpt lat="43.97271" lon="10.8845473"><ele>200.00000000000003</ele><time>2026-04-06T15:07:35.776Z</time></trkpt><trkpt lat="43.9727614" lon="10.8846056"><ele>200.0</ele><time>2026-04-06T15:07:36.776Z</time></trkpt><trkpt lat="43.9728292" lon="10.8846885"><ele>200.0</ele><time>2026-04-06T15:07:37.788Z</time></trkpt><trkpt lat="43.9728632" lon="10.8847752"><ele>200.0</ele><time>2026-04-06T15:07:38.776Z</time></trkpt><trkpt lat="43.972829" lon="10.8849359"><ele>200.00000000000003</ele><time>2026-04-06T15:07:39.781Z</time></trkpt><trkpt lat="43.9728303" lon="10.885026"><ele>200.0</ele><time>2026-04-06T15:07:40.786Z</time></trkpt><trkpt lat="43.9728191" lon="10.8851258"><ele>198.75</ele><time>2026-04-06T15:07:41.789Z</time></trkpt><trkpt lat="43.9727054" lon="10.8852078"><ele>197.5</ele><time>2026-04-06T15:07:42.78Z</time></trkpt><trkpt lat="43.9725779" lon="10.8852916"><ele>196.25</ele><time>2026-04-06T15:07:43.789Z</time></trkpt><trkpt lat="43.972487" lon="10.8853793"><ele>195.0</ele><time>2026-04-06T15:07:44.783Z</time></trkpt><trkpt lat="43.9723812" lon="10.8854732"><ele>195.0</ele><time>2026-04-06T15:07:45.783Z</time></trkpt><trkpt lat="43.9722845" lon="10.8855526"><ele>195.0</ele><time>2026-04-06T15:07:46.788Z</time></trkpt><trkpt lat="43.9722208" lon="10.8856264"><ele>195.0</ele><time>2026-04-06T15:07:47.785Z</time></trkpt><trkpt lat="43.972134" lon="10.8857329"><ele>195.0</ele><time>2026-04-06T15:07:48.788Z</time></trkpt><trkpt lat="43.9720569" lon="10.8858271"><ele>195.0</ele><time>2026-04-06T15:07:49.789Z</time></trkpt><trkpt lat="43.971975" lon="10.8859521"><ele>191.0</ele><time>2026-04-06T15:07:50.784Z</time></trkpt><trkpt lat="43.9718953" lon="10.8861119"><ele>187.0</ele><time>2026-04-06T15:07:51.785Z</time></trkpt><trkpt lat="43.9718374" lon="10.8862939"><ele>183.0</ele><time>2026-04-06T15:07:52.784Z</time></trkpt><trkpt lat="43.971802" lon="10.8864259"><ele>179.0</ele><time>2026-04-06T15:07:53.798Z</time></trkpt><trkpt lat="43.971767" lon="10.8865273"><ele>179.0</ele><time>2026-04-06T15:07:54.779Z</time></trkpt><trkpt lat="43.9717346" lon="10.8866176"><ele>179.0</ele><time>2026-04-06T15:07:55.788Z</time></trkpt><trkpt lat="43.9717123" lon="10.8867225"><ele>179.0</ele><time>2026-04-06T15:07:56.783Z</time></trkpt><trkpt lat="43.9716991" lon="10.8868197"><ele>179.0</ele><time>2026-04-06T15:07:57.782Z</time></trkpt><trkpt lat="43.9717625" lon="10.8869599"><ele>179.0</ele><time>2026-04-06T15:07:59.782Z</time></trkpt><trkpt lat="43.9718172" lon="10.8870209"><ele>179.0</ele><time>2026-04-06T15:08:00.785Z</time></trkpt><trkpt lat="43.9718845" lon="10.8870572"><ele>173.0</ele><time>2026-04-06T15:08:01.786Z</time></trkpt><trkpt lat="43.9720491" lon="10.8870508"><ele>167.0</ele><time>2026-04-06T15:08:02.791Z</time></trkpt><trkpt lat="43.972215" lon="10.8870666"><ele>161.0</ele><time>2026-04-06T15:08:03.782Z</time></trkpt><trkpt lat="43.9723416" lon="10.8870909"><ele>161.0</ele><time>2026-04-06T15:08:04.781Z</time></trkpt><trkpt lat="43.972476" lon="10.8871353"><ele>161.0</ele><time>2026-04-06T15:08:05.791Z</time></trkpt><trkpt lat="43.9726146" lon="10.8871853"><ele>161.0</ele><time>2026-04-06T15:08:06.783Z</time></trkpt><trkpt lat="43.9727314" lon="10.8872328"><ele>161.0</ele><time>2026-04-06T15:08:07.792Z</time></trkpt><trkpt lat="43.9728326" lon="10.8872892"><ele>162.0</ele><time>2026-04-06T15:08:08.788Z</time></trkpt><trkpt lat="43.9729623" lon="10.8873323"><ele>163.0</ele><time>2026-04-06T15:08:09.782Z</time></trkpt><trkpt lat="43.9730548" lon="10.8873898"><ele>164.0</ele><time>2026-04-06T15:08:10.782Z</time></trkpt><trkpt lat="43.9731749" lon="10.8874172"><ele>165.0</ele><time>2026-04-06T15:08:11.783Z</time></trkpt><trkpt lat="43.9732829" lon="10.8874215"><ele>164.2</ele><time>2026-04-06T15:08:12.783Z</time></trkpt><trkpt lat="43.9734056" lon="10.8873903"><ele>163.4</ele><time>2026-04-06T15:08:13.785Z</time></trkpt><trkpt lat="43.9735086" lon="10.8873839"><ele>162.60000000000002</ele><time>2026-04-06T15:08:14.786Z</time></trkpt><trkpt lat="43.9735983" lon="10.8873848"><ele>161.8</ele><time>2026-04-06T15:08:15.783Z</time></trkpt><trkpt lat="43.9737141" lon="10.8874064"><ele>161.0</ele><time>2026-04-06T15:08:16.781Z</time></trkpt><trkpt lat="43.9737833" lon="10.8874801"><ele>161.0</ele><time>2026-04-06T15:08:17.781Z</time></trkpt><trkpt lat="43.9738521" lon="10.8875237"><ele>161.0</ele><time>2026-04-06T15:08:18.788Z</time></trkpt><trkpt lat="43.9739135" lon="10.8876493"><ele>161.0</ele><time>2026-04-06T15:08:19.79Z</time></trkpt><trkpt lat="43.9739507" lon="10.8877564"><ele>161.0</ele><time>2026-04-06T15:08:20.788Z</time></trkpt><trkpt lat="43.9739536" lon="10.8878766"><ele>161.0</ele><time>2026-04-06T15:08:21.782Z</time></trkpt><trkpt lat="43.9739376" lon="10.8879834"><ele>161.0</ele><time>2026-04-06T15:08:22.803Z</time></trkpt><trkpt lat="43.9739037" lon="10.888105"><ele>158.25</ele><time>2026-04-06T15:08:23.786Z</time></trkpt><trkpt lat="43.9738398" lon="10.8882202"><ele>155.5</ele><time>2026-04-06T15:08:24.787Z</time></trkpt><trkpt lat="43.9737467" lon="10.888312"><ele>152.75</ele><time>2026-04-06T15:08:25.784Z</time></trkpt><trkpt lat="43.9736152" lon="10.8883936"><ele>150.0</ele><time>2026-04-06T15:08:26.786Z</time></trkpt><trkpt lat="43.9734948" lon="10.888469"><ele>147.25</ele><time>2026-04-06T15:08:27.783Z</time></trkpt><trkpt lat="43.9733826" lon="10.8885229"><ele>144.5</ele><time>2026-04-06T15:08:28.775Z</time></trkpt><trkpt lat="43.9732579" lon="10.8885569"><ele>141.75</ele><time>2026-04-06T15:08:29.785Z</time></trkpt><trkpt lat="43.9731436" lon="10.8885779"><ele>139.0</ele><time>2026-04-06T15:08:30.775Z</time></trkpt><trkpt lat="43.9729904" lon="10.8885928"><ele>138.25</ele><time>2026-04-06T15:08:31.792Z</time></trkpt><trkpt lat="43.9728683" lon="10.8886081"><ele>137.5</ele><time>2026-04-06T15:08:32.784Z</time></trkpt><trkpt lat="43.9727447" lon="10.8886134"><ele>136.75</ele><time>2026-04-06T15:08:33.782Z</time></trkpt><trkpt lat="43.9726275" lon="10.8886155"><ele>136.0</ele><time>2026-04-06T15:08:34.778Z</time></trkpt><trkpt lat="43.9725107" lon="10.8886362"><ele>136.0</ele><time>2026-04-06T15:08:35.789Z</time></trkpt><trkpt lat="43.9723889" lon="10.8886495"><ele>136.0</ele><time>2026-04-06T15:08:36.786Z</time></trkpt><trkpt lat="43.9722755" lon="10.8886658"><ele>136.0</ele><time>2026-04-06T15:08:37.787Z</time></trkpt><trkpt lat="43.9721448" lon="10.8886631"><ele>136.0</ele><time>2026-04-06T15:08:38.79Z</time></trkpt><trkpt lat="43.9720427" lon="10.8886752"><ele>136.0</ele><time>2026-04-06T15:08:39.784Z</time></trkpt><trkpt lat="43.9719388" lon="10.8887083"><ele>136.0</ele><time>2026-04-06T15:08:40.784Z</time></trkpt><trkpt lat="43.9718388" lon="10.8887597"><ele>136.0</ele><time>2026-04-06T15:08:41.787Z</time></trkpt><trkpt lat="43.9717415" lon="10.8888242"><ele>136.0</ele><time>2026-04-06T15:08:42.778Z</time></trkpt><trkpt lat="43.9716293" lon="10.8889044"><ele>136.0</ele><time>2026-04-06T15:08:43.78Z</time></trkpt><trkpt lat="43.97152" lon="10.8889813"><ele>135.5</ele><time>2026-04-06T15:08:44.776Z</time></trkpt><trkpt lat="43.9714031" lon="10.8890512"><ele>135.0</ele><time>2026-04-06T15:08:45.787Z</time></trkpt><trkpt lat="43.9712588" lon="10.8891083"><ele>134.5</ele><time>2026-04-06T15:08:46.781Z</time></trkpt><trkpt lat="43.9711045" lon="10.8891777"><ele>134.0</ele><time>2026-04-06T15:08:47.783Z</time></trkpt><trkpt lat="43.9709597" lon="10.8892374"><ele>133.0</ele><time>2026-04-06T15:08:48.785Z</time></trkpt><trkpt lat="43.9707993" lon="10.8892837"><ele>132.0</ele><time>2026-04-06T15:08:49.78Z</time></trkpt><trkpt lat="43.9706522" lon="10.8893254"><ele>131.0</ele><time>2026-04-06T15:08:50.779Z</time></trkpt><trkpt lat="43.9705007" lon="10.8893768"><ele>131.0</ele><time>2026-04-06T15:08:51.795Z</time></trkpt><trkpt lat="43.9703453" lon="10.8894417"><ele>131.0</ele><time>2026-04-06T15:08:52.785Z</time></trkpt><trkpt lat="43.9701912" lon="10.8894684"><ele>131.0</ele><time>2026-04-06T15:08:53.782Z</time></trkpt><trkpt lat="43.9700681" lon="10.8894773"><ele>131.0</ele><time>2026-04-06T15:08:54.779Z</time></trkpt><trkpt lat="43.9699274" lon="10.8894976"><ele>130.5</ele><time>2026-04-06T15:08:55.776Z</time></trkpt><trkpt lat="43.9698133" lon="10.8895563"><ele>130.0</ele><time>2026-04-06T15:08:56.788Z</time></trkpt><trkpt lat="43.9697054" lon="10.8895854"><ele>129.5</ele><time>2026-04-06T15:08:57.788Z</time></trkpt><trkpt lat="43.9696005" lon="10.8896538"><ele>129.0</ele><time>2026-04-06T15:08:58.8Z</time></trkpt><trkpt lat="43.9694904" lon="10.8897155"><ele>129.0</ele><time>2026-04-06T15:08:59.78Z</time></trkpt><trkpt lat="43.9693447" lon="10.8897909"><ele>129.0</ele><time>2026-04-06T15:09:00.784Z</time></trkpt><trkpt lat="43.9691821" lon="10.8898715"><ele>129.0</ele><time>2026-04-06T15:09:01.786Z</time></trkpt><trkpt lat="43.9690067" lon="10.8899522"><ele>129.66666666666666</ele><time>2026-04-06T15:09:02.786Z</time></trkpt><trkpt lat="43.9688282" lon="10.8900185"><ele>130.33333333333331</ele><time>2026-04-06T15:09:03.787Z</time></trkpt><trkpt lat="43.9686364" lon="10.8900872"><ele>131.0</ele><time>2026-04-06T15:09:04.785Z</time></trkpt><trkpt lat="43.9684501" lon="10.8901722"><ele>129.33333333333331</ele><time>2026-04-06T15:09:05.779Z</time></trkpt><trkpt lat="43.9682558" lon="10.8902413"><ele>127.66666666666666</ele><time>2026-04-06T15:09:06.784Z</time></trkpt><trkpt lat="43.9680762" lon="10.8902873"><ele>126.0</ele><time>2026-04-06T15:09:07.788Z</time></trkpt><trkpt lat="43.9678859" lon="10.8903434"><ele>126.0</ele><time>2026-04-06T15:09:08.793Z</time></trkpt><trkpt lat="43.9677048" lon="10.8903876"><ele>126.0</ele><time>2026-04-06T15:09:09.787Z</time></trkpt><trkpt lat="43.9675313" lon="10.8904697"><ele>126.0</ele><time>2026-04-06T15:09:10.785Z</time></trkpt><trkpt lat="43.9673588" lon="10.8905554"><ele>126.33333333333334</ele><time>2026-04-06T15:09:11.779Z</time></trkpt><trkpt lat="43.9671605" lon="10.8906303"><ele>126.66666666666667</ele><time>2026-04-06T15:09:12.78Z</time></trkpt><trkpt lat="43.9669789" lon="10.89075"><ele>127.0</ele><time>2026-04-06T15:09:13.785Z</time></trkpt><trkpt lat="43.9668193" lon="10.8908769"><ele>126.33333333333334</ele><time>2026-04-06T15:09:14.786Z</time></trkpt><trkpt lat="43.9666392" lon="10.8910522"><ele>125.66666666666666</ele><time>2026-04-06T15:09:15.787Z</time></trkpt><trkpt lat="43.9665019" lon="10.8912642"><ele>125.0</ele><time>2026-04-06T15:09:16.789Z</time></trkpt><trkpt lat="43.9664279" lon="10.8915516"><ele>124.33333333333333</ele><time>2026-04-06T15:09:17.784Z</time></trkpt><trkpt lat="43.9663568" lon="10.8917991"><ele>123.66666666666666</ele><time>2026-04-06T15:09:18.786Z</time></trkpt><trkpt lat="43.9663274" lon="10.8920885"><ele>123.0</ele><time>2026-04-06T15:09:19.781Z</time></trkpt><trkpt lat="43.9662846" lon="10.8923615"><ele>122.66666666666666</ele><time>2026-04-06T15:09:20.778Z</time></trkpt><trkpt lat="43.9661918" lon="10.8926164"><ele>122.33333333333333</ele><time>2026-04-06T15:09:21.793Z</time></trkpt><trkpt lat="43.966136" lon="10.8928363"><ele>122.0</ele><time>2026-04-06T15:09:22.786Z</time></trkpt><trkpt lat="43.9660302" lon="10.893033"><ele>122.0</ele><time>2026-04-06T15:09:23.782Z</time></trkpt><trkpt lat="43.9659597" lon="10.8932224"><ele>122.0</ele><time>2026-04-06T15:09:24.785Z</time></trkpt><trkpt lat="43.9658585" lon="10.8933857"><ele>122.0</ele><time>2026-04-06T15:09:25.783Z</time></trkpt><trkpt lat="43.9657665" lon="10.8935342"><ele>121.5</ele><time>2026-04-06T15:09:26.787Z</time></trkpt><trkpt lat="43.9656552" lon="10.8936624"><ele>121.0</ele><time>2026-04-06T15:09:27.78Z</time></trkpt><trkpt lat="43.9655359" lon="10.8937955"><ele>120.5</ele><time>2026-04-06T15:09:28.782Z</time></trkpt><trkpt lat="43.9654132" lon="10.8939009"><ele>120.0</ele><time>2026-04-06T15:09:29.779Z</time></trkpt><trkpt lat="43.9652653" lon="10.8939938"><ele>120.0</ele><time>2026-04-06T15:09:30.791Z</time></trkpt><trkpt lat="43.9650969" lon="10.8941044"><ele>120.0</ele><time>2026-04-06T15:09:31.782Z</time></trkpt><trkpt lat="43.9649174" lon="10.8941998"><ele>120.0</ele><time>2026-04-06T15:09:32.781Z</time></trkpt><trkpt lat="43.9647761" lon="10.8942901"><ele>120.33333333333334</ele><time>2026-04-06T15:09:33.782Z</time></trkpt><trkpt lat="43.9646381" lon="10.8943732"><ele>120.66666666666667</ele><time>2026-04-06T15:09:34.777Z</time></trkpt><trkpt lat="43.9645006" lon="10.8944556"><ele>121.0</ele><time>2026-04-06T15:09:35.781Z</time></trkpt><trkpt lat="43.9643574" lon="10.8945413"><ele>119.33333333333334</ele><time>2026-04-06T15:09:36.787Z</time></trkpt><trkpt lat="43.9641864" lon="10.8946383"><ele>117.66666666666666</ele><time>2026-04-06T15:09:37.787Z</time></trkpt><trkpt lat="43.9640155" lon="10.8947484"><ele>116.0</ele><time>2026-04-06T15:09:38.783Z</time></trkpt><trkpt lat="43.9638468" lon="10.8948498"><ele>116.0</ele><time>2026-04-06T15:09:39.788Z</time></trkpt><trkpt lat="43.9636773" lon="10.8949493"><ele>116.0</ele><time>2026-04-06T15:09:40.781Z</time></trkpt><trkpt lat="43.9635327" lon="10.8950095"><ele>116.0</ele><time>2026-04-06T15:09:41.784Z</time></trkpt><trkpt lat="43.9633984" lon="10.8950363"><ele>116.0</ele><time>2026-04-06T15:09:42.782Z</time></trkpt><trkpt lat="43.9632512" lon="10.8950584"><ele>116.0</ele><time>2026-04-06T15:09:43.778Z</time></trkpt><trkpt lat="43.9631101" lon="10.8950723"><ele>116.0</ele><time>2026-04-06T15:09:44.783Z</time></trkpt><trkpt lat="43.9629594" lon="10.8951025"><ele>116.0</ele><time>2026-04-06T15:09:45.779Z</time></trkpt><trkpt lat="43.962819" lon="10.8951444"><ele>116.0</ele><time>2026-04-06T15:09:46.779Z</time></trkpt><trkpt lat="43.9626884" lon="10.8951596"><ele>116.0</ele><time>2026-04-06T15:09:47.779Z</time></trkpt><trkpt lat="43.9625395" lon="10.8951817"><ele>116.0</ele><time>2026-04-06T15:09:48.783Z</time></trkpt><trkpt lat="43.9623966" lon="10.8952067"><ele>116.0</ele><time>2026-04-06T15:09:49.788Z</time></trkpt><trkpt lat="43.9622453" lon="10.8952217"><ele>116.0</ele><time>2026-04-06T15:09:50.783Z</time></trkpt><trkpt lat="43.9620929" lon="10.8952578"><ele>116.0</ele><time>2026-04-06T15:09:51.788Z</time></trkpt><trkpt lat="43.9619421" lon="10.8952688"><ele>116.0</ele><time>2026-04-06T15:09:52.777Z</time></trkpt><trkpt lat="43.9617927" lon="10.8952859"><ele>115.0</ele><time>2026-04-06T15:09:53.782Z</time></trkpt><trkpt lat="43.9616183" lon="10.8953165"><ele>114.0</ele><time>2026-04-06T15:09:54.781Z</time></trkpt><trkpt lat="43.9614465" lon="10.8953355"><ele>113.0</ele><time>2026-04-06T15:09:55.784Z</time></trkpt><trkpt lat="43.9612903" lon="10.8953359"><ele>113.0</ele><time>2026-04-06T15:09:56.781Z</time></trkpt><trkpt lat="43.9611334" lon="10.8953624"><ele>113.0</ele><time>2026-04-06T15:09:57.78Z</time></trkpt><trkpt lat="43.960967" lon="10.8953937"><ele>113.0</ele><time>2026-04-06T15:09:58.788Z</time></trkpt><trkpt lat="43.9607821" lon="10.8954424"><ele>113.5</ele><time>2026-04-06T15:09:59.789Z</time></trkpt><trkpt lat="43.9605568" lon="10.8954783"><ele>114.0</ele><time>2026-04-06T15:10:00.784Z</time></trkpt><trkpt lat="43.9603045" lon="10.8955085"><ele>114.0</ele><time>2026-04-06T15:10:01.784Z</time></trkpt><trkpt lat="43.9600622" lon="10.8955336"><ele>114.0</ele><time>2026-04-06T15:10:02.789Z</time></trkpt><trkpt lat="43.9598125" lon="10.8955676"><ele>113.5</ele><time>2026-04-06T15:10:03.783Z</time></trkpt><trkpt lat="43.959556" lon="10.8956128"><ele>113.0</ele><time>2026-04-06T15:10:04.782Z</time></trkpt><trkpt lat="43.9592934" lon="10.8956553"><ele>111.5</ele><time>2026-04-06T15:10:05.785Z</time></trkpt><trkpt lat="43.959037" lon="10.8956843"><ele>110.0</ele><time>2026-04-06T15:10:06.794Z</time></trkpt><trkpt lat="43.9587933" lon="10.8957144"><ele>110.0</ele><time>2026-04-06T15:10:07.782Z</time></trkpt><trkpt lat="43.9585525" lon="10.8957422"><ele>110.0</ele><time>2026-04-06T15:10:08.786Z</time></trkpt><trkpt lat="43.9583421" lon="10.8957587"><ele>109.0</ele><time>2026-04-06T15:10:09.782Z</time></trkpt><trkpt lat="43.9581353" lon="10.8957832"><ele>108.0</ele><time>2026-04-06T15:10:10.78Z</time></trkpt><trkpt lat="43.9579495" lon="10.8958413"><ele>107.0</ele><time>2026-04-06T15:10:11.783Z</time></trkpt><trkpt lat="43.9577583" lon="10.8959031"><ele>107.0</ele><time>2026-04-06T15:10:12.785Z</time></trkpt><trkpt lat="43.9575927" lon="10.8960178"><ele>107.0</ele><time>2026-04-06T15:10:13.794Z</time></trkpt><trkpt lat="43.9574266" lon="10.8961593"><ele>107.0</ele><time>2026-04-06T15:10:14.784Z</time></trkpt><trkpt lat="43.9572833" lon="10.8963216"><ele>107.33333333333333</ele><time>2026-04-06T15:10:15.78Z</time></trkpt><trkpt lat="43.9571928" lon="10.8965233"><ele>107.66666666666666</ele><time>2026-04-06T15:10:16.78Z</time></trkpt><trkpt lat="43.9570738" lon="10.8967485"><ele>108.0</ele><time>2026-04-06T15:10:17.788Z</time></trkpt><trkpt lat="43.9569761" lon="10.8969807"><ele>108.0</ele><time>2026-04-06T15:10:18.786Z</time></trkpt><trkpt lat="43.9569002" lon="10.8972666"><ele>108.0</ele><time>2026-04-06T15:10:19.782Z</time></trkpt><trkpt lat="43.9568307" lon="10.8975252"><ele>108.0</ele><time>2026-04-06T15:10:20.779Z</time></trkpt><trkpt lat="43.9567649" lon="10.8977821"><ele>108.33333333333334</ele><time>2026-04-06T15:10:21.786Z</time></trkpt><trkpt lat="43.9567037" lon="10.898033"><ele>108.66666666666667</ele><time>2026-04-06T15:10:22.781Z</time></trkpt><trkpt lat="43.9566423" lon="10.8982763"><ele>109.0</ele><time>2026-04-06T15:10:23.781Z</time></trkpt><trkpt lat="43.9565758" lon="10.8985428"><ele>109.0</ele><time>2026-04-06T15:10:24.785Z</time></trkpt><trkpt lat="43.9565139" lon="10.8987973"><ele>109.0</ele><time>2026-04-06T15:10:25.78Z</time></trkpt><trkpt lat="43.9564545" lon="10.8990348"><ele>109.0</ele><time>2026-04-06T15:10:26.78Z</time></trkpt><trkpt lat="43.956388" lon="10.8992425"><ele>109.0</ele><time>2026-04-06T15:10:27.781Z</time></trkpt><trkpt lat="43.9563351" lon="10.8994073"><ele>109.0</ele><time>2026-04-06T15:10:28.785Z</time></trkpt><trkpt lat="43.9562651" lon="10.8995616"><ele>109.0</ele><time>2026-04-06T15:10:29.782Z</time></trkpt><trkpt lat="43.9561639" lon="10.8997217"><ele>109.0</ele><time>2026-04-06T15:10:30.785Z</time></trkpt><trkpt lat="43.956061" lon="10.8997981"><ele>109.0</ele><time>2026-04-06T15:10:31.784Z</time></trkpt><trkpt lat="43.9559537" lon="10.8997602"><ele>109.0</ele><time>2026-04-06T15:10:33.791Z</time></trkpt><trkpt lat="43.9558703" lon="10.8997051"><ele>109.0</ele><time>2026-04-06T15:10:34.778Z</time></trkpt><trkpt lat="43.9557264" lon="10.8995936"><ele>109.0</ele><time>2026-04-06T15:10:35.778Z</time></trkpt><trkpt lat="43.9556948" lon="10.8993836"><ele>108.25</ele><time>2026-04-06T15:10:36.777Z</time></trkpt><trkpt lat="43.9556355" lon="10.8992796"><ele>107.5</ele><time>2026-04-06T15:10:37.783Z</time></trkpt><trkpt lat="43.9556191" lon="10.899129"><ele>106.75</ele><time>2026-04-06T15:10:38.782Z</time></trkpt><trkpt lat="43.9556207" lon="10.8989779"><ele>106.0</ele><time>2026-04-06T15:10:39.789Z</time></trkpt><trkpt lat="43.9556363" lon="10.8987822"><ele>105.4</ele><time>2026-04-06T15:10:40.782Z</time></trkpt><trkpt lat="43.9556917" lon="10.898631"><ele>104.8</ele><time>2026-04-06T15:10:41.781Z</time></trkpt><trkpt lat="43.9557878" lon="10.8985381"><ele>104.2</ele><time>2026-04-06T15:10:42.786Z</time></trkpt><trkpt lat="43.9558759" lon="10.8984838"><ele>103.60000000000001</ele><time>2026-04-06T15:10:43.779Z</time></trkpt><trkpt lat="43.9559744" lon="10.8984608"><ele>103.0</ele><time>2026-04-06T15:10:44.781Z</time></trkpt><trkpt lat="43.9560839" lon="10.89855"><ele>104.5</ele><time>2026-04-06T15:10:45.786Z</time></trkpt><trkpt lat="43.9561763" lon="10.8986016"><ele>106.0</ele><time>2026-04-06T15:10:46.781Z</time></trkpt><trkpt lat="43.9562646" lon="10.8986285"><ele>107.5</ele><time>2026-04-06T15:10:47.785Z</time></trkpt><trkpt lat="43.9563742" lon="10.8986929"><ele>109.0</ele><time>2026-04-06T15:10:48.782Z</time></trkpt><trkpt lat="43.9565335" lon="10.8987564"><ele>110.0</ele><time>2026-04-06T15:10:49.784Z</time></trkpt><trkpt lat="43.9567127" lon="10.8988153"><ele>111.0</ele><time>2026-04-06T15:10:50.788Z</time></trkpt><trkpt lat="43.9568516" lon="10.8988924"><ele>112.0</ele><time>2026-04-06T15:10:51.782Z</time></trkpt><trkpt lat="43.956998" lon="10.8989678"><ele>112.0</ele><time>2026-04-06T15:10:52.778Z</time></trkpt><trkpt lat="43.9570939" lon="10.899121"><ele>112.0</ele><time>2026-04-06T15:10:53.787Z</time></trkpt><trkpt lat="43.9572453" lon="10.8992431"><ele>112.0</ele><time>2026-04-06T15:10:54.778Z</time></trkpt><trkpt lat="43.9573833" lon="10.8994207"><ele>112.0</ele><time>2026-04-06T15:10:55.779Z</time></trkpt><trkpt lat="43.9574992" lon="10.8996257"><ele>112.0</ele><time>2026-04-06T15:10:56.78Z</time></trkpt><trkpt lat="43.9576234" lon="10.899829"><ele>112.0</ele><time>2026-04-06T15:10:57.783Z</time></trkpt><trkpt lat="43.957713" lon="10.9000315"><ele>115.33333333333334</ele><time>2026-04-06T15:10:58.779Z</time></trkpt><trkpt lat="43.9578014" lon="10.9002397"><ele>118.66666666666666</ele><time>2026-04-06T15:10:59.778Z</time></trkpt><trkpt lat="43.9579135" lon="10.9004193"><ele>122.0</ele><time>2026-04-06T15:11:00.78Z</time></trkpt><trkpt lat="43.9580248" lon="10.9006228"><ele>122.0</ele><time>2026-04-06T15:11:01.785Z</time></trkpt><trkpt lat="43.9580761" lon="10.9008168"><ele>122.0</ele><time>2026-04-06T15:11:02.78Z</time></trkpt><trkpt lat="43.9581343" lon="10.9010031"><ele>122.0</ele><time>2026-04-06T15:11:03.781Z</time></trkpt><trkpt lat="43.9582053" lon="10.9011647"><ele>122.0</ele><time>2026-04-06T15:11:04.783Z</time></trkpt><trkpt lat="43.9582683" lon="10.9013271"><ele>122.0</ele><time>2026-04-06T15:11:05.784Z</time></trkpt><trkpt lat="43.9583232" lon="10.9014528"><ele>121.99999999999999</ele><time>2026-04-06T15:11:06.78Z</time></trkpt><trkpt lat="43.9583657" lon="10.9015578"><ele>121.99999999999999</ele><time>2026-04-06T15:11:07.783Z</time></trkpt><trkpt lat="43.9584107" lon="10.9016745"><ele>122.0</ele><time>2026-04-06T15:11:09.782Z</time></trkpt><trkpt lat="43.9585118" lon="10.9017322"><ele>122.0</ele><time>2026-04-06T15:11:30.781Z</time></trkpt><trkpt lat="43.9587244" lon="10.9018956"><ele>121.39999999999999</ele><time>2026-04-06T15:11:45.789Z</time></trkpt><trkpt lat="43.9587894" lon="10.901896"><ele>120.79999999999998</ele><time>2026-04-06T15:11:46.779Z</time></trkpt><trkpt lat="43.9588875" lon="10.9018854"><ele>120.2</ele><time>2026-04-06T15:11:47.787Z</time></trkpt><trkpt lat="43.9590011" lon="10.9019008"><ele>119.6</ele><time>2026-04-06T15:11:48.779Z</time></trkpt><trkpt lat="43.9591203" lon="10.9019052"><ele>119.0</ele><time>2026-04-06T15:11:49.781Z</time></trkpt><trkpt lat="43.9592574" lon="10.9019214"><ele>122.33333333333333</ele><time>2026-04-06T15:11:50.782Z</time></trkpt><trkpt lat="43.9594311" lon="10.9019572"><ele>125.66666666666666</ele><time>2026-04-06T15:11:51.781Z</time></trkpt><trkpt lat="43.9595829" lon="10.901981"><ele>129.0</ele><time>2026-04-06T15:11:52.785Z</time></trkpt><trkpt lat="43.9597151" lon="10.9019976"><ele>129.0</ele><time>2026-04-06T15:11:53.785Z</time></trkpt><trkpt lat="43.9598486" lon="10.9020345"><ele>129.0</ele><time>2026-04-06T15:11:54.778Z</time></trkpt><trkpt lat="43.9599288" lon="10.9020356"><ele>129.0</ele><time>2026-04-06T15:11:55.778Z</time></trkpt><trkpt lat="43.9600129" lon="10.9020224"><ele>129.0</ele><time>2026-04-06T15:11:56.786Z</time></trkpt><trkpt lat="43.9601061" lon="10.902017"><ele>129.0</ele><time>2026-04-06T15:11:57.785Z</time></trkpt><trkpt lat="43.9602385" lon="10.9020768"><ele>130.0</ele><time>2026-04-06T15:11:58.784Z</time></trkpt><trkpt lat="43.9603196" lon="10.9020819"><ele>131.0</ele><time>2026-04-06T15:11:59.782Z</time></trkpt><trkpt lat="43.9604494" lon="10.902099"><ele>132.0</ele><time>2026-04-06T15:12:00.782Z</time></trkpt><trkpt lat="43.9605845" lon="10.9021486"><ele>133.0</ele><time>2026-04-06T15:12:01.789Z</time></trkpt><trkpt lat="43.9607113" lon="10.9021821"><ele>133.0</ele><time>2026-04-06T15:12:02.787Z</time></trkpt><trkpt lat="43.960818" lon="10.9021676"><ele>133.0</ele><time>2026-04-06T15:12:03.78Z</time></trkpt><trkpt lat="43.9609283" lon="10.9021615"><ele>133.0</ele><time>2026-04-06T15:12:04.781Z</time></trkpt><trkpt lat="43.9610622" lon="10.9021765"><ele>133.0</ele><time>2026-04-06T15:12:05.778Z</time></trkpt><trkpt lat="43.9612042" lon="10.9021885"><ele>134.5</ele><time>2026-04-06T15:12:06.786Z</time></trkpt><trkpt lat="43.9613496" lon="10.9021945"><ele>136.0</ele><time>2026-04-06T15:12:07.78Z</time></trkpt><trkpt lat="43.9614793" lon="10.9022082"><ele>137.5</ele><time>2026-04-06T15:12:08.78Z</time></trkpt><trkpt lat="43.9616372" lon="10.902222"><ele>139.0</ele><time>2026-04-06T15:12:09.78Z</time></trkpt><trkpt lat="43.9617884" lon="10.9022454"><ele>141.33333333333334</ele><time>2026-04-06T15:12:10.782Z</time></trkpt><trkpt lat="43.9619382" lon="10.9022601"><ele>143.66666666666666</ele><time>2026-04-06T15:12:11.783Z</time></trkpt><trkpt lat="43.9621012" lon="10.9022699"><ele>146.0</ele><time>2026-04-06T15:12:12.785Z</time></trkpt><trkpt lat="43.9622703" lon="10.9023045"><ele>146.0</ele><time>2026-04-06T15:12:13.778Z</time></trkpt><trkpt lat="43.9624314" lon="10.9023373"><ele>146.0</ele><time>2026-04-06T15:12:14.78Z</time></trkpt><trkpt lat="43.9625982" lon="10.9023769"><ele>146.0</ele><time>2026-04-06T15:12:15.783Z</time></trkpt><trkpt lat="43.962796" lon="10.9023937"><ele>149.0</ele><time>2026-04-06T15:12:16.782Z</time></trkpt><trkpt lat="43.9629574" lon="10.9024441"><ele>152.0</ele><time>2026-04-06T15:12:17.784Z</time></trkpt><trkpt lat="43.9631218" lon="10.9025256"><ele>155.0</ele><time>2026-04-06T15:12:18.777Z</time></trkpt><trkpt lat="43.9632585" lon="10.9026265"><ele>158.5</ele><time>2026-04-06T15:12:19.774Z</time></trkpt><trkpt lat="43.9633753" lon="10.9027616"><ele>162.0</ele><time>2026-04-06T15:12:20.783Z</time></trkpt><trkpt lat="43.9634725" lon="10.9029059"><ele>165.5</ele><time>2026-04-06T15:12:21.784Z</time></trkpt><trkpt lat="43.9635623" lon="10.9030485"><ele>169.0</ele><time>2026-04-06T15:12:22.782Z</time></trkpt><trkpt lat="43.9635977" lon="10.903213"><ele>169.0</ele><time>2026-04-06T15:12:23.788Z</time></trkpt><trkpt lat="43.9636283" lon="10.9033619"><ele>169.0</ele><time>2026-04-06T15:12:24.782Z</time></trkpt><trkpt lat="43.963629" lon="10.9035106"><ele>169.0</ele><time>2026-04-06T15:12:25.786Z</time></trkpt><trkpt lat="43.9636024" lon="10.903656"><ele>169.0</ele><time>2026-04-06T15:12:26.78Z</time></trkpt><trkpt lat="43.9635558" lon="10.9037922"><ele>169.0</ele><time>2026-04-06T15:12:27.787Z</time></trkpt><trkpt lat="43.9635115" lon="10.9039462"><ele>168.0</ele><time>2026-04-06T15:12:28.782Z</time></trkpt><trkpt lat="43.9634672" lon="10.9040473"><ele>167.0</ele><time>2026-04-06T15:12:29.784Z</time></trkpt><trkpt lat="43.9634253" lon="10.9041314"><ele>166.0</ele><time>2026-04-06T15:12:30.783Z</time></trkpt><trkpt lat="43.9633777" lon="10.9042401"><ele>165.0</ele><time>2026-04-06T15:12:31.787Z</time></trkpt><trkpt lat="43.96333" lon="10.90433"><ele>164.0</ele><time>2026-04-06T15:12:32.788Z</time></trkpt><trkpt lat="43.9632926" lon="10.9044293"><ele>163.0</ele><time>2026-04-06T15:12:33.789Z</time></trkpt><trkpt lat="43.9632633" lon="10.9045436"><ele>163.0</ele><time>2026-04-06T15:12:34.781Z</time></trkpt><trkpt lat="43.9632522" lon="10.9046559"><ele>163.0</ele><time>2026-04-06T15:12:35.779Z</time></trkpt><trkpt lat="43.9632302" lon="10.9047614"><ele>163.0</ele><time>2026-04-06T15:12:36.779Z</time></trkpt><trkpt lat="43.9632674" lon="10.904875"><ele>163.0</ele><time>2026-04-06T15:12:37.78Z</time></trkpt><trkpt lat="43.9633058" lon="10.9049748"><ele>163.0</ele><time>2026-04-06T15:12:38.782Z</time></trkpt><trkpt lat="43.9633439" lon="10.9050722"><ele>163.0</ele><time>2026-04-06T15:12:39.781Z</time></trkpt><trkpt lat="43.9634396" lon="10.9051656"><ele>166.33333333333334</ele><time>2026-04-06T15:12:40.78Z</time></trkpt><trkpt lat="43.9635779" lon="10.9052988"><ele>169.66666666666666</ele><time>2026-04-06T15:12:41.777Z</time></trkpt><trkpt lat="43.9636837" lon="10.9054147"><ele>173.0</ele><time>2026-04-06T15:12:42.785Z</time></trkpt><trkpt lat="43.963847" lon="10.9055906"><ele>173.0</ele><time>2026-04-06T15:12:43.78Z</time></trkpt><trkpt lat="43.9640296" lon="10.905735"><ele>173.0</ele><time>2026-04-06T15:12:44.785Z</time></trkpt><trkpt lat="43.9641931" lon="10.9059396"><ele>173.0</ele><time>2026-04-06T15:12:45.779Z</time></trkpt><trkpt lat="43.9643725" lon="10.9061"><ele>174.0</ele><time>2026-04-06T15:12:46.78Z</time></trkpt><trkpt lat="43.964554" lon="10.9062491"><ele>175.0</ele><time>2026-04-06T15:12:47.781Z</time></trkpt><trkpt lat="43.9647336" lon="10.9063901"><ele>176.0</ele><time>2026-04-06T15:12:48.787Z</time></trkpt><trkpt lat="43.9649233" lon="10.9064436"><ele>176.66666666666666</ele><time>2026-04-06T15:12:49.779Z</time></trkpt><trkpt lat="43.9651198" lon="10.9064919"><ele>177.33333333333334</ele><time>2026-04-06T15:12:50.786Z</time></trkpt><trkpt lat="43.965323" lon="10.9065136"><ele>178.0</ele><time>2026-04-06T15:12:51.783Z</time></trkpt><trkpt lat="43.9654967" lon="10.9065544"><ele>178.0</ele><time>2026-04-06T15:12:52.773Z</time></trkpt><trkpt lat="43.9656887" lon="10.9065436"><ele>178.0</ele><time>2026-04-06T15:12:53.78Z</time></trkpt><trkpt lat="43.9658783" lon="10.906495"><ele>178.0</ele><time>2026-04-06T15:12:54.788Z</time></trkpt><trkpt lat="43.9660268" lon="10.9063904"><ele>179.0</ele><time>2026-04-06T15:12:55.779Z</time></trkpt><trkpt lat="43.9661625" lon="10.906264"><ele>180.0</ele><time>2026-04-06T15:12:56.787Z</time></trkpt><trkpt lat="43.9662915" lon="10.9061508"><ele>181.0</ele><time>2026-04-06T15:12:57.781Z</time></trkpt><trkpt lat="43.9664466" lon="10.9061082"><ele>181.0</ele><time>2026-04-06T15:12:58.777Z</time></trkpt><trkpt lat="43.9665618" lon="10.9060437"><ele>181.0</ele><time>2026-04-06T15:12:59.781Z</time></trkpt><trkpt lat="43.96668" lon="10.9060174"><ele>181.0</ele><time>2026-04-06T15:13:00.785Z</time></trkpt><trkpt lat="43.9668213" lon="10.906044"><ele>181.0</ele><time>2026-04-06T15:13:01.774Z</time></trkpt><trkpt lat="43.9669561" lon="10.9060712"><ele>183.0</ele><time>2026-04-06T15:13:02.782Z</time></trkpt><trkpt lat="43.967097" lon="10.9061309"><ele>185.0</ele><time>2026-04-06T15:13:03.789Z</time></trkpt><trkpt lat="43.9672474" lon="10.906169"><ele>187.0</ele><time>2026-04-06T15:13:04.789Z</time></trkpt><trkpt lat="43.967322" lon="10.9061789"><ele>189.0</ele><time>2026-04-06T15:13:05.777Z</time></trkpt><trkpt lat="43.9674428" lon="10.9061744"><ele>188.25</ele><time>2026-04-06T15:13:06.779Z</time></trkpt><trkpt lat="43.9676088" lon="10.9061277"><ele>187.5</ele><time>2026-04-06T15:13:08.781Z</time></trkpt><trkpt lat="43.9677093" lon="10.9060317"><ele>186.75</ele><time>2026-04-06T15:13:09.782Z</time></trkpt><trkpt lat="43.9677719" lon="10.9059128"><ele>186.0</ele><time>2026-04-06T15:13:10.778Z</time></trkpt><trkpt lat="43.9678094" lon="10.9057745"><ele>186.0</ele><time>2026-04-06T15:13:11.785Z</time></trkpt><trkpt lat="43.9678479" lon="10.9055586"><ele>186.0</ele><time>2026-04-06T15:13:12.784Z</time></trkpt><trkpt lat="43.9679215" lon="10.9053016"><ele>186.0</ele><time>2026-04-06T15:13:13.786Z</time></trkpt><trkpt lat="43.9680367" lon="10.90493"><ele>188.66666666666669</ele><time>2026-04-06T15:13:14.782Z</time></trkpt><trkpt lat="43.9681365" lon="10.9046515"><ele>191.33333333333334</ele><time>2026-04-06T15:13:15.782Z</time></trkpt><trkpt lat="43.9682623" lon="10.9044171"><ele>194.0</ele><time>2026-04-06T15:13:16.782Z</time></trkpt><trkpt lat="43.9684103" lon="10.9042443"><ele>194.0</ele><time>2026-04-06T15:13:17.779Z</time></trkpt><trkpt lat="43.9685697" lon="10.9040494"><ele>194.0</ele><time>2026-04-06T15:13:18.78Z</time></trkpt><trkpt lat="43.9687353" lon="10.903875"><ele>194.0</ele><time>2026-04-06T15:13:19.786Z</time></trkpt><trkpt lat="43.9689221" lon="10.9037189"><ele>194.0</ele><time>2026-04-06T15:13:20.78Z</time></trkpt><trkpt lat="43.9691109" lon="10.9035673"><ele>194.0</ele><time>2026-04-06T15:13:21.789Z</time></trkpt><trkpt lat="43.9693334" lon="10.903525"><ele>194.0</ele><time>2026-04-06T15:13:22.783Z</time></trkpt><trkpt lat="43.9695344" lon="10.9034412"><ele>197.33333333333334</ele><time>2026-04-06T15:13:23.785Z</time></trkpt><trkpt lat="43.9697267" lon="10.9034016"><ele>200.66666666666669</ele><time>2026-04-06T15:13:24.785Z</time></trkpt><trkpt lat="43.9699223" lon="10.9033862"><ele>204.0</ele><time>2026-04-06T15:13:25.782Z</time></trkpt><trkpt lat="43.9701016" lon="10.9034079"><ele>204.33333333333331</ele><time>2026-04-06T15:13:26.786Z</time></trkpt><trkpt lat="43.9702938" lon="10.9034521"><ele>204.66666666666666</ele><time>2026-04-06T15:13:27.783Z</time></trkpt><trkpt lat="43.9704566" lon="10.9035152"><ele>205.0</ele><time>2026-04-06T15:13:28.781Z</time></trkpt><trkpt lat="43.9706123" lon="10.9035866"><ele>205.0</ele><time>2026-04-06T15:13:29.782Z</time></trkpt><trkpt lat="43.9708012" lon="10.9036515"><ele>205.0</ele><time>2026-04-06T15:13:30.781Z</time></trkpt><trkpt lat="43.9709968" lon="10.9037303"><ele>205.0</ele><time>2026-04-06T15:13:31.784Z</time></trkpt><trkpt lat="43.9712198" lon="10.9038026"><ele>208.5</ele><time>2026-04-06T15:13:32.778Z</time></trkpt><trkpt lat="43.9714547" lon="10.9038701"><ele>212.0</ele><time>2026-04-06T15:13:33.786Z</time></trkpt><trkpt lat="43.9716854" lon="10.9039613"><ele>214.66666666666669</ele><time>2026-04-06T15:13:34.788Z</time></trkpt><trkpt lat="43.9718934" lon="10.9040372"><ele>217.33333333333331</ele><time>2026-04-06T15:13:35.784Z</time></trkpt><trkpt lat="43.9720988" lon="10.9040999"><ele>220.0</ele><time>2026-04-06T15:13:36.785Z</time></trkpt><trkpt lat="43.9722877" lon="10.9041683"><ele>220.0</ele><time>2026-04-06T15:13:37.786Z</time></trkpt><trkpt lat="43.9724781" lon="10.9042285"><ele>220.0</ele><time>2026-04-06T15:13:38.785Z</time></trkpt><trkpt lat="43.9726131" lon="10.9042046"><ele>220.0</ele><time>2026-04-06T15:13:39.781Z</time></trkpt><trkpt lat="43.972778" lon="10.9041786"><ele>219.66666666666666</ele><time>2026-04-06T15:13:40.779Z</time></trkpt><trkpt lat="43.9729278" lon="10.9041287"><ele>219.33333333333331</ele><time>2026-04-06T15:13:41.795Z</time></trkpt><trkpt lat="43.9730507" lon="10.9040067"><ele>219.0</ele><time>2026-04-06T15:13:42.786Z</time></trkpt><trkpt lat="43.9731444" lon="10.9037961"><ele>219.0</ele><time>2026-04-06T15:13:43.785Z</time></trkpt><trkpt lat="43.9732415" lon="10.9035885"><ele>219.0</ele><time>2026-04-06T15:13:44.775Z</time></trkpt><trkpt lat="43.9733123" lon="10.9033121"><ele>219.0</ele><time>2026-04-06T15:13:45.787Z</time></trkpt><trkpt lat="43.9733652" lon="10.9031031"><ele>219.75</ele><time>2026-04-06T15:13:46.789Z</time></trkpt><trkpt lat="43.9733929" lon="10.9028806"><ele>220.5</ele><time>2026-04-06T15:13:47.777Z</time></trkpt><trkpt lat="43.9734689" lon="10.9027118"><ele>221.25</ele><time>2026-04-06T15:13:48.782Z</time></trkpt><trkpt lat="43.9735556" lon="10.9025668"><ele>222.0</ele><time>2026-04-06T15:13:49.782Z</time></trkpt><trkpt lat="43.9736632" lon="10.9024534"><ele>227.0</ele><time>2026-04-06T15:13:50.786Z</time></trkpt><trkpt lat="43.9737969" lon="10.90241"><ele>232.0</ele><time>2026-04-06T15:13:51.783Z</time></trkpt><trkpt lat="43.9739447" lon="10.9023855"><ele>237.0</ele><time>2026-04-06T15:13:52.779Z</time></trkpt><trkpt lat="43.9741285" lon="10.9023686"><ele>238.0</ele><time>2026-04-06T15:13:53.784Z</time></trkpt><trkpt lat="43.9743025" lon="10.9023206"><ele>239.0</ele><time>2026-04-06T15:13:54.786Z</time></trkpt><trkpt lat="43.9744749" lon="10.9022453"><ele>240.0</ele><time>2026-04-06T15:13:55.78Z</time></trkpt><trkpt lat="43.9746359" lon="10.9021873"><ele>240.0</ele><time>2026-04-06T15:13:56.781Z</time></trkpt><trkpt lat="43.9748035" lon="10.9021785"><ele>240.0</ele><time>2026-04-06T15:13:57.78Z</time></trkpt><trkpt lat="43.9749511" lon="10.9021414"><ele>240.0</ele><time>2026-04-06T15:13:58.788Z</time></trkpt><trkpt lat="43.9751085" lon="10.9021512"><ele>244.66666666666669</ele><time>2026-04-06T15:13:59.779Z</time></trkpt><trkpt lat="43.9752617" lon="10.9021825"><ele>249.33333333333334</ele><time>2026-04-06T15:14:00.781Z</time></trkpt><trkpt lat="43.9754371" lon="10.9022669"><ele>254.0</ele><time>2026-04-06T15:14:01.789Z</time></trkpt><trkpt lat="43.9755944" lon="10.9023263"><ele>254.0</ele><time>2026-04-06T15:14:02.784Z</time></trkpt><trkpt lat="43.9757711" lon="10.9023708"><ele>254.0</ele><time>2026-04-06T15:14:03.784Z</time></trkpt><trkpt lat="43.9758945" lon="10.902396"><ele>254.0</ele><time>2026-04-06T15:14:04.779Z</time></trkpt><trkpt lat="43.9760526" lon="10.9023451"><ele>254.0</ele><time>2026-04-06T15:14:05.784Z</time></trkpt><trkpt lat="43.9761845" lon="10.9022999"><ele>254.0</ele><time>2026-04-06T15:14:06.776Z</time></trkpt><trkpt lat="43.9763319" lon="10.9022569"><ele>254.0</ele><time>2026-04-06T15:14:07.782Z</time></trkpt><trkpt lat="43.976484" lon="10.9021984"><ele>254.0</ele><time>2026-04-06T15:14:08.786Z</time></trkpt><trkpt lat="43.9766598" lon="10.9020424"><ele>255.0</ele><time>2026-04-06T15:14:09.777Z</time></trkpt><trkpt lat="43.976811" lon="10.9020004"><ele>256.0</ele><time>2026-04-06T15:14:10.786Z</time></trkpt><trkpt lat="43.9770236" lon="10.9020733"><ele>257.0</ele><time>2026-04-06T15:14:11.779Z</time></trkpt><trkpt lat="43.9772454" lon="10.9021379"><ele>257.0</ele><time>2026-04-06T15:14:12.794Z</time></trkpt><trkpt lat="43.9774298" lon="10.9021653"><ele>257.0</ele><time>2026-04-06T15:14:13.788Z</time></trkpt><trkpt lat="43.9776627" lon="10.9022482"><ele>257.0</ele><time>2026-04-06T15:14:14.781Z</time></trkpt><trkpt lat="43.9778707" lon="10.90226"><ele>259.33333333333337</ele><time>2026-04-06T15:14:15.786Z</time></trkpt><trkpt lat="43.978082" lon="10.9022692"><ele>261.6666666666667</ele><time>2026-04-06T15:14:16.792Z</time></trkpt><trkpt lat="43.9782811" lon="10.9022285"><ele>264.0</ele><time>2026-04-06T15:14:17.786Z</time></trkpt><trkpt lat="43.9784933" lon="10.9022011"><ele>268.3333333333333</ele><time>2026-04-06T15:14:18.782Z</time></trkpt><trkpt lat="43.978699" lon="10.9021477"><ele>272.66666666666663</ele><time>2026-04-06T15:14:19.783Z</time></trkpt><trkpt lat="43.9788711" lon="10.9020926"><ele>277.0</ele><time>2026-04-06T15:14:20.781Z</time></trkpt><trkpt lat="43.9790502" lon="10.902049"><ele>282.0</ele><time>2026-04-06T15:14:21.785Z</time></trkpt><trkpt lat="43.9792184" lon="10.9020234"><ele>287.0</ele><time>2026-04-06T15:14:22.783Z</time></trkpt><trkpt lat="43.9793774" lon="10.9019897"><ele>292.0</ele><time>2026-04-06T15:14:23.787Z</time></trkpt><trkpt lat="43.9795381" lon="10.9019395"><ele>292.0</ele><time>2026-04-06T15:14:24.785Z</time></trkpt><trkpt lat="43.9796615" lon="10.9018539"><ele>292.0</ele><time>2026-04-06T15:14:25.781Z</time></trkpt><trkpt lat="43.9797201" lon="10.901687"><ele>292.0</ele><time>2026-04-06T15:14:26.787Z</time></trkpt><trkpt lat="43.9797962" lon="10.9015574"><ele>292.0</ele><time>2026-04-06T15:14:27.78Z</time></trkpt><trkpt lat="43.9798241" lon="10.9013815"><ele>290.3333333333333</ele><time>2026-04-06T15:14:28.783Z</time></trkpt><trkpt lat="43.9797369" lon="10.9011017"><ele>288.6666666666667</ele><time>2026-04-06T15:14:29.781Z</time></trkpt><trkpt lat="43.9797163" lon="10.9009197"><ele>287.0</ele><time>2026-04-06T15:14:30.784Z</time></trkpt><trkpt lat="43.9797256" lon="10.9007508"><ele>286.75</ele><time>2026-04-06T15:14:31.782Z</time></trkpt><trkpt lat="43.9797308" lon="10.9005857"><ele>286.5</ele><time>2026-04-06T15:14:32.781Z</time></trkpt><trkpt lat="43.9797572" lon="10.900414"><ele>286.25</ele><time>2026-04-06T15:14:33.779Z</time></trkpt><trkpt lat="43.9797871" lon="10.9002664"><ele>286.0</ele><time>2026-04-06T15:14:34.783Z</time></trkpt><trkpt lat="43.979822" lon="10.9001406"><ele>285.3333333333333</ele><time>2026-04-06T15:14:35.785Z</time></trkpt><trkpt lat="43.9798682" lon="10.9000323"><ele>284.66666666666663</ele><time>2026-04-06T15:14:36.78Z</time></trkpt><trkpt lat="43.9798901" lon="10.8999297"><ele>284.0</ele><time>2026-04-06T15:14:37.781Z</time></trkpt><trkpt lat="43.979923" lon="10.8998387"><ele>283.3333333333333</ele><time>2026-04-06T15:14:38.785Z</time></trkpt><trkpt lat="43.9799654" lon="10.8997635"><ele>282.6666666666667</ele><time>2026-04-06T15:14:39.782Z</time></trkpt><trkpt lat="43.9800214" lon="10.8997017"><ele>282.0</ele><time>2026-04-06T15:14:40.778Z</time></trkpt><trkpt lat="43.9800926" lon="10.899671"><ele>287.0</ele><time>2026-04-06T15:14:41.788Z</time></trkpt><trkpt lat="43.9801653" lon="10.8996609"><ele>292.0</ele><time>2026-04-06T15:14:42.782Z</time></trkpt><trkpt lat="43.9802371" lon="10.8997114"><ele>297.0</ele><time>2026-04-06T15:14:43.78Z</time></trkpt><trkpt lat="43.9802787" lon="10.8998098"><ele>302.0</ele><time>2026-04-06T15:14:44.78Z</time></trkpt><trkpt lat="43.9802955" lon="10.8999512"><ele>307.0</ele><time>2026-04-06T15:14:45.78Z</time></trkpt><trkpt lat="43.9802292" lon="10.900102"><ele>307.8</ele><time>2026-04-06T15:14:46.785Z</time></trkpt><trkpt lat="43.9802166" lon="10.9002149"><ele>308.6</ele><time>2026-04-06T15:14:47.784Z</time></trkpt><trkpt lat="43.9801953" lon="10.9003629"><ele>309.40000000000003</ele><time>2026-04-06T15:14:48.787Z</time></trkpt><trkpt lat="43.9801762" lon="10.9005197"><ele>310.2</ele><time>2026-04-06T15:14:49.782Z</time></trkpt><trkpt lat="43.9801657" lon="10.9006878"><ele>311.0</ele><time>2026-04-06T15:14:50.787Z</time></trkpt><trkpt lat="43.9801639" lon="10.9008635"><ele>310.75</ele><time>2026-04-06T15:14:51.782Z</time></trkpt><trkpt lat="43.9801819" lon="10.9010448"><ele>310.5</ele><time>2026-04-06T15:14:52.786Z</time></trkpt><trkpt lat="43.9801944" lon="10.901213"><ele>310.25</ele><time>2026-04-06T15:14:53.777Z</time></trkpt><trkpt lat="43.9802163" lon="10.9013668"><ele>310.0</ele><time>2026-04-06T15:14:54.781Z</time></trkpt><trkpt lat="43.9802441" lon="10.9015228"><ele>310.0</ele><time>2026-04-06T15:14:55.781Z</time></trkpt><trkpt lat="43.9802652" lon="10.9016842"><ele>310.0</ele><time>2026-04-06T15:14:56.782Z</time></trkpt><trkpt lat="43.9802798" lon="10.9018541"><ele>310.0</ele><time>2026-04-06T15:14:57.779Z</time></trkpt><trkpt lat="43.9802468" lon="10.9020362"><ele>310.0</ele><time>2026-04-06T15:14:58.778Z</time></trkpt><trkpt lat="43.9802311" lon="10.9022033"><ele>310.75</ele><time>2026-04-06T15:14:59.781Z</time></trkpt><trkpt lat="43.9801868" lon="10.9023868"><ele>311.5</ele><time>2026-04-06T15:15:00.778Z</time></trkpt><trkpt lat="43.9801487" lon="10.9025751"><ele>312.25</ele><time>2026-04-06T15:15:01.781Z</time></trkpt><trkpt lat="43.9800985" lon="10.9027575"><ele>313.0</ele><time>2026-04-06T15:15:02.783Z</time></trkpt><trkpt lat="43.9800613" lon="10.9029114"><ele>314.75</ele><time>2026-04-06T15:15:03.779Z</time></trkpt><trkpt lat="43.9800331" lon="10.9030602"><ele>316.5</ele><time>2026-04-06T15:15:04.787Z</time></trkpt><trkpt lat="43.9800108" lon="10.9032363"><ele>318.25</ele><time>2026-04-06T15:15:05.784Z</time></trkpt><trkpt lat="43.9800021" lon="10.9033965"><ele>320.0</ele><time>2026-04-06T15:15:06.775Z</time></trkpt><trkpt lat="43.9800085" lon="10.9035615"><ele>320.25</ele><time>2026-04-06T15:15:07.787Z</time></trkpt><trkpt lat="43.9800862" lon="10.9037304"><ele>320.5</ele><time>2026-04-06T15:15:08.786Z</time></trkpt><trkpt lat="43.9801591" lon="10.9038921"><ele>320.75</ele><time>2026-04-06T15:15:09.785Z</time></trkpt><trkpt lat="43.9801999" lon="10.9040738"><ele>321.0</ele><time>2026-04-06T15:15:10.783Z</time></trkpt><trkpt lat="43.9802391" lon="10.9042467"><ele>322.0</ele><time>2026-04-06T15:15:11.779Z</time></trkpt><trkpt lat="43.9802443" lon="10.9044046"><ele>323.0</ele><time>2026-04-06T15:15:12.784Z</time></trkpt><trkpt lat="43.9802331" lon="10.9045681"><ele>324.0</ele><time>2026-04-06T15:15:13.787Z</time></trkpt><trkpt lat="43.9802221" lon="10.9047114"><ele>325.0</ele><time>2026-04-06T15:15:14.781Z</time></trkpt><trkpt lat="43.9801898" lon="10.9048657"><ele>325.0</ele><time>2026-04-06T15:15:15.784Z</time></trkpt><trkpt lat="43.9801564" lon="10.9050008"><ele>325.0</ele><time>2026-04-06T15:15:16.778Z</time></trkpt><trkpt lat="43.9801417" lon="10.9051165"><ele>325.0</ele><time>2026-04-06T15:15:17.784Z</time></trkpt><trkpt lat="43.980129" lon="10.9052476"><ele>325.0</ele><time>2026-04-06T15:15:18.782Z</time></trkpt><trkpt lat="43.9801085" lon="10.9053939"><ele>325.0</ele><time>2026-04-06T15:15:19.787Z</time></trkpt><trkpt lat="43.980089" lon="10.905547"><ele>325.16666666666663</ele><time>2026-04-06T15:15:20.78Z</time></trkpt><trkpt lat="43.9800869" lon="10.9056831"><ele>325.3333333333333</ele><time>2026-04-06T15:15:21.782Z</time></trkpt><trkpt lat="43.9800938" lon="10.9057972"><ele>325.5</ele><time>2026-04-06T15:15:22.777Z</time></trkpt><trkpt lat="43.9801274" lon="10.9058979"><ele>325.6666666666667</ele><time>2026-04-06T15:15:23.779Z</time></trkpt><trkpt lat="43.9801519" lon="10.9059923"><ele>325.83333333333337</ele><time>2026-04-06T15:15:24.782Z</time></trkpt><trkpt lat="43.9802194" lon="10.9060711"><ele>326.0</ele><time>2026-04-06T15:15:25.785Z</time></trkpt><trkpt lat="43.9802762" lon="10.9061463"><ele>326.0</ele><time>2026-04-06T15:15:26.782Z</time></trkpt><trkpt lat="43.9803645" lon="10.9061905"><ele>326.0</ele><time>2026-04-06T15:15:27.783Z</time></trkpt><trkpt lat="43.9804981" lon="10.9061365"><ele>326.0</ele><time>2026-04-06T15:15:29.779Z</time></trkpt><trkpt lat="43.9806104" lon="10.9059991"><ele>326.0</ele><time>2026-04-06T15:15:30.783Z</time></trkpt><trkpt lat="43.9806256" lon="10.9058912"><ele>326.0</ele><time>2026-04-06T15:15:31.778Z</time></trkpt><trkpt lat="43.9806598" lon="10.9057731"><ele>326.0</ele><time>2026-04-06T15:15:32.784Z</time></trkpt><trkpt lat="43.9806625" lon="10.9056754"><ele>326.0</ele><time>2026-04-06T15:15:33.781Z</time></trkpt><trkpt lat="43.9806741" lon="10.9055205"><ele>326.0</ele><time>2026-04-06T15:15:34.779Z</time></trkpt><trkpt lat="43.980685" lon="10.9053726"><ele>326.0</ele><time>2026-04-06T15:15:35.782Z</time></trkpt><trkpt lat="43.9807002" lon="10.9052202"><ele>325.75</ele><time>2026-04-06T15:15:36.781Z</time></trkpt><trkpt lat="43.9807244" lon="10.9050557"><ele>325.5</ele><time>2026-04-06T15:15:37.779Z</time></trkpt><trkpt lat="43.980743" lon="10.9049068"><ele>325.25</ele><time>2026-04-06T15:15:38.78Z</time></trkpt><trkpt lat="43.9807742" lon="10.9047553"><ele>325.0</ele><time>2026-04-06T15:15:39.786Z</time></trkpt><trkpt lat="43.9807851" lon="10.9045663"><ele>325.0</ele><time>2026-04-06T15:15:40.781Z</time></trkpt><trkpt lat="43.9808141" lon="10.9043723"><ele>325.0</ele><time>2026-04-06T15:15:41.78Z</time></trkpt><trkpt lat="43.9808325" lon="10.9041846"><ele>325.0</ele><time>2026-04-06T15:15:42.797Z</time></trkpt><trkpt lat="43.9808503" lon="10.9039889"><ele>325.0</ele><time>2026-04-06T15:15:43.774Z</time></trkpt><trkpt lat="43.9808686" lon="10.9038136"><ele>330.5</ele><time>2026-04-06T15:15:44.777Z</time></trkpt><trkpt lat="43.980898" lon="10.9036313"><ele>336.0</ele><time>2026-04-06T15:15:45.816Z</time></trkpt><trkpt lat="43.9809443" lon="10.9034596"><ele>341.5</ele><time>2026-04-06T15:15:46.785Z</time></trkpt><trkpt lat="43.9810148" lon="10.9033406"><ele>347.0</ele><time>2026-04-06T15:15:47.775Z</time></trkpt><trkpt lat="43.9810807" lon="10.9032053"><ele>347.0</ele><time>2026-04-06T15:15:48.773Z</time></trkpt><trkpt lat="43.981163" lon="10.9030709"><ele>347.0</ele><time>2026-04-06T15:15:49.775Z</time></trkpt><trkpt lat="43.9812546" lon="10.9029885"><ele>347.0</ele><time>2026-04-06T15:15:50.774Z</time></trkpt><trkpt lat="43.981358" lon="10.9028862"><ele>347.0</ele><time>2026-04-06T15:15:51.793Z</time></trkpt><trkpt lat="43.9814327" lon="10.9027838"><ele>347.0</ele><time>2026-04-06T15:15:52.778Z</time></trkpt><trkpt lat="43.9815442" lon="10.9026646"><ele>347.0</ele><time>2026-04-06T15:15:53.782Z</time></trkpt><trkpt lat="43.9816205" lon="10.9025332"><ele>347.0</ele><time>2026-04-06T15:15:54.781Z</time></trkpt><trkpt lat="43.9816846" lon="10.9023989"><ele>347.0</ele><time>2026-04-06T15:15:55.785Z</time></trkpt><trkpt lat="43.9817075" lon="10.9022306"><ele>344.5</ele><time>2026-04-06T15:15:56.786Z</time></trkpt><trkpt lat="43.9817198" lon="10.9020567"><ele>342.0</ele><time>2026-04-06T15:15:57.787Z</time></trkpt><trkpt lat="43.9816834" lon="10.9018893"><ele>339.5</ele><time>2026-04-06T15:15:58.78Z</time></trkpt><trkpt lat="43.9816678" lon="10.9017467"><ele>337.0</ele><time>2026-04-06T15:15:59.782Z</time></trkpt><trkpt lat="43.9816528" lon="10.9016143"><ele>337.0</ele><time>2026-04-06T15:16:00.784Z</time></trkpt><trkpt lat="43.9816323" lon="10.9015056"><ele>337.0</ele><time>2026-04-06T15:16:01.78Z</time></trkpt><trkpt lat="43.9816095" lon="10.90137"><ele>337.0</ele><time>2026-04-06T15:16:02.778Z</time></trkpt><trkpt lat="43.9815788" lon="10.9012363"><ele>337.0</ele><time>2026-04-06T15:16:03.781Z</time></trkpt><trkpt lat="43.9815718" lon="10.9011147"><ele>337.0</ele><time>2026-04-06T15:16:04.782Z</time></trkpt><trkpt lat="43.9815682" lon="10.900978"><ele>337.20000000000005</ele><time>2026-04-06T15:16:05.782Z</time></trkpt><trkpt lat="43.9815809" lon="10.9008504"><ele>337.4</ele><time>2026-04-06T15:16:06.785Z</time></trkpt><trkpt lat="43.9816073" lon="10.9007367"><ele>337.6</ele><time>2026-04-06T15:16:07.787Z</time></trkpt><trkpt lat="43.9816707" lon="10.9006017"><ele>337.79999999999995</ele><time>2026-04-06T15:16:08.777Z</time></trkpt><trkpt lat="43.9817375" lon="10.9004746"><ele>338.0</ele><time>2026-04-06T15:16:09.776Z</time></trkpt><trkpt lat="43.9818401" lon="10.9003944"><ele>340.25</ele><time>2026-04-06T15:16:10.778Z</time></trkpt><trkpt lat="43.981963" lon="10.9003782"><ele>342.5</ele><time>2026-04-06T15:16:11.78Z</time></trkpt><trkpt lat="43.9820744" lon="10.9003532"><ele>344.75</ele><time>2026-04-06T15:16:12.781Z</time></trkpt><trkpt lat="43.9821834" lon="10.9003419"><ele>347.0</ele><time>2026-04-06T15:16:13.785Z</time></trkpt><trkpt lat="43.9823037" lon="10.9004294"><ele>347.0</ele><time>2026-04-06T15:16:14.781Z</time></trkpt><trkpt lat="43.9823635" lon="10.900502"><ele>347.0</ele><time>2026-04-06T15:16:15.781Z</time></trkpt><trkpt lat="43.9823917" lon="10.9006573"><ele>347.0</ele><time>2026-04-06T15:16:16.784Z</time></trkpt><trkpt lat="43.9823731" lon="10.9008903"><ele>347.0</ele><time>2026-04-06T15:16:17.787Z</time></trkpt><trkpt lat="43.9823734" lon="10.9010845"><ele>350.0</ele><time>2026-04-06T15:16:18.783Z</time></trkpt><trkpt lat="43.982376" lon="10.901291"><ele>353.0</ele><time>2026-04-06T15:16:19.78Z</time></trkpt><trkpt lat="43.9823929" lon="10.9015111"><ele>356.0</ele><time>2026-04-06T15:16:20.782Z</time></trkpt><trkpt lat="43.9823459" lon="10.9017992"><ele>358.0</ele><time>2026-04-06T15:16:21.78Z</time></trkpt><trkpt lat="43.9823101" lon="10.902116"><ele>360.0</ele><time>2026-04-06T15:16:22.785Z</time></trkpt><trkpt lat="43.9822703" lon="10.9023997"><ele>362.0</ele><time>2026-04-06T15:16:23.788Z</time></trkpt><trkpt lat="43.9822506" lon="10.9026859"><ele>367.33333333333337</ele><time>2026-04-06T15:16:24.778Z</time></trkpt><trkpt lat="43.9822322" lon="10.902949"><ele>372.6666666666667</ele><time>2026-04-06T15:16:25.78Z</time></trkpt><trkpt lat="43.9822306" lon="10.9031887"><ele>378.0</ele><time>2026-04-06T15:16:26.788Z</time></trkpt><trkpt lat="43.9822175" lon="10.9034345"><ele>380.0</ele><time>2026-04-06T15:16:27.78Z</time></trkpt><trkpt lat="43.9822096" lon="10.9036663"><ele>382.0</ele><time>2026-04-06T15:16:28.781Z</time></trkpt><trkpt lat="43.9821974" lon="10.9038914"><ele>384.0</ele><time>2026-04-06T15:16:29.781Z</time></trkpt><trkpt lat="43.9821992" lon="10.9040842"><ele>383.75</ele><time>2026-04-06T15:16:30.788Z</time></trkpt><trkpt lat="43.9821907" lon="10.9042779"><ele>383.5</ele><time>2026-04-06T15:16:31.782Z</time></trkpt><trkpt lat="43.9821884" lon="10.9044729"><ele>383.25</ele><time>2026-04-06T15:16:32.781Z</time></trkpt><trkpt lat="43.9821909" lon="10.9046505"><ele>383.0</ele><time>2026-04-06T15:16:33.785Z</time></trkpt><trkpt lat="43.9822057" lon="10.9048105"><ele>383.0</ele><time>2026-04-06T15:16:34.782Z</time></trkpt><trkpt lat="43.9822111" lon="10.9049783"><ele>383.0</ele><time>2026-04-06T15:16:35.779Z</time></trkpt><trkpt lat="43.9822397" lon="10.9051352"><ele>383.0</ele><time>2026-04-06T15:16:36.787Z</time></trkpt><trkpt lat="43.9822576" lon="10.9053061"><ele>383.0</ele><time>2026-04-06T15:16:37.782Z</time></trkpt><trkpt lat="43.9822934" lon="10.9054553"><ele>380.79999999999995</ele><time>2026-04-06T15:16:38.779Z</time></trkpt><trkpt lat="43.9823477" lon="10.9055689"><ele>378.6</ele><time>2026-04-06T15:16:39.785Z</time></trkpt><trkpt lat="43.9824343" lon="10.9056603"><ele>376.4</ele><time>2026-04-06T15:16:40.789Z</time></trkpt><trkpt lat="43.9825266" lon="10.9057331"><ele>374.20000000000005</ele><time>2026-04-06T15:16:41.788Z</time></trkpt><trkpt lat="43.9826145" lon="10.9058308"><ele>372.0</ele><time>2026-04-06T15:16:42.788Z</time></trkpt><trkpt lat="43.9827335" lon="10.9059078"><ele>370.0</ele><time>2026-04-06T15:16:43.778Z</time></trkpt><trkpt lat="43.982847" lon="10.9059846"><ele>368.0</ele><time>2026-04-06T15:16:44.785Z</time></trkpt><trkpt lat="43.9829741" lon="10.9060555"><ele>366.0</ele><time>2026-04-06T15:16:45.782Z</time></trkpt><trkpt lat="43.983125" lon="10.9061293"><ele>364.0</ele><time>2026-04-06T15:16:46.783Z</time></trkpt><trkpt lat="43.9833661" lon="10.9062195"><ele>372.66666666666663</ele><time>2026-04-06T15:16:47.788Z</time></trkpt><trkpt lat="43.9835304" lon="10.9062862"><ele>381.3333333333333</ele><time>2026-04-06T15:16:48.773Z</time></trkpt><trkpt lat="43.9836946" lon="10.9063549"><ele>390.0</ele><time>2026-04-06T15:16:49.782Z</time></trkpt><trkpt lat="43.9838367" lon="10.9064353"><ele>390.0</ele><time>2026-04-06T15:16:50.775Z</time></trkpt><trkpt lat="43.9839915" lon="10.9064543"><ele>390.0</ele><time>2026-04-06T15:16:51.782Z</time></trkpt><trkpt lat="43.9841411" lon="10.9064714"><ele>390.0</ele><time>2026-04-06T15:16:52.778Z</time></trkpt><trkpt lat="43.9842123" lon="10.9064791"><ele>390.0</ele><time>2026-04-06T15:16:53.779Z</time></trkpt><trkpt lat="43.9842979" lon="10.9064844"><ele>397.2</ele><time>2026-04-06T15:16:54.795Z</time></trkpt><trkpt lat="43.9844009" lon="10.9065026"><ele>404.4</ele><time>2026-04-06T15:16:55.779Z</time></trkpt><trkpt lat="43.9844785" lon="10.9065255"><ele>411.6</ele><time>2026-04-06T15:16:56.793Z</time></trkpt><trkpt lat="43.9845333" lon="10.9065755"><ele>418.8</ele><time>2026-04-06T15:16:57.78Z</time></trkpt><trkpt lat="43.9846075" lon="10.9067282"><ele>426.0</ele><time>2026-04-06T15:16:59.781Z</time></trkpt><trkpt lat="43.9846179" lon="10.9068451"><ele>426.0</ele><time>2026-04-06T15:17:00.783Z</time></trkpt><trkpt lat="43.9846443" lon="10.9070424"><ele>426.0</ele><time>2026-04-06T15:17:01.775Z</time></trkpt><trkpt lat="43.9846297" lon="10.9071648"><ele>426.0</ele><time>2026-04-06T15:17:02.782Z</time></trkpt><trkpt lat="43.984596" lon="10.9073509"><ele>426.0</ele><time>2026-04-06T15:17:04.779Z</time></trkpt><trkpt lat="43.9846008" lon="10.9075424"><ele>424.6</ele><time>2026-04-06T15:17:05.785Z</time></trkpt><trkpt lat="43.9845966" lon="10.9076883"><ele>423.20000000000005</ele><time>2026-04-06T15:17:06.785Z</time></trkpt><trkpt lat="43.9846042" lon="10.9078199"><ele>421.79999999999995</ele><time>2026-04-06T15:17:07.78Z</time></trkpt><trkpt lat="43.9846166" lon="10.9079363"><ele>420.4</ele><time>2026-04-06T15:17:08.876Z</time></trkpt><trkpt lat="43.9846087" lon="10.9080384"><ele>419.0</ele><time>2026-04-06T15:17:09.787Z</time></trkpt><trkpt lat="43.9845849" lon="10.9082067"><ele>419.0</ele><time>2026-04-06T15:17:10.79Z</time></trkpt><trkpt lat="43.9846048" lon="10.9083196"><ele>419.0</ele><time>2026-04-06T15:17:11.778Z</time></trkpt><trkpt lat="43.984609" lon="10.9084367"><ele>419.0</ele><time>2026-04-06T15:17:12.785Z</time></trkpt><trkpt lat="43.9846234" lon="10.9085675"><ele>419.0</ele><time>2026-04-06T15:17:13.791Z</time></trkpt><trkpt lat="43.984618" lon="10.9086933"><ele>419.0</ele><time>2026-04-06T15:17:14.795Z</time></trkpt><trkpt lat="43.9846599" lon="10.9088189"><ele>417.0</ele><time>2026-04-06T15:17:15.79Z</time></trkpt><trkpt lat="43.9847082" lon="10.9089299"><ele>415.0</ele><time>2026-04-06T15:17:16.779Z</time></trkpt><trkpt lat="43.9847269" lon="10.9090187"><ele>413.0</ele><time>2026-04-06T15:17:17.789Z</time></trkpt><trkpt lat="43.9848625" lon="10.9091761"><ele>411.0</ele><time>2026-04-06T15:17:19.778Z</time></trkpt><trkpt lat="43.9849524" lon="10.9092439"><ele>409.0</ele><time>2026-04-06T15:17:20.779Z</time></trkpt><trkpt lat="43.9850677" lon="10.909301"><ele>407.5</ele><time>2026-04-06T15:17:21.778Z</time></trkpt><trkpt lat="43.9852072" lon="10.9093365"><ele>406.0</ele><time>2026-04-06T15:17:22.794Z</time></trkpt><trkpt lat="43.9853283" lon="10.9093691"><ele>404.5</ele><time>2026-04-06T15:17:23.812Z</time></trkpt><trkpt lat="43.9854299" lon="10.9094127"><ele>403.0</ele><time>2026-04-06T15:17:24.783Z</time></trkpt><trkpt lat="43.9855157" lon="10.9094748"><ele>403.0</ele><time>2026-04-06T15:17:25.79Z</time></trkpt><trkpt lat="43.985626" lon="10.9094909"><ele>403.0</ele><time>2026-04-06T15:17:26.779Z</time></trkpt><trkpt lat="43.9857416" lon="10.909505"><ele>403.0</ele><time>2026-04-06T15:17:27.776Z</time></trkpt><trkpt lat="43.9858447" lon="10.9095387"><ele>403.0</ele><time>2026-04-06T15:17:28.782Z</time></trkpt><trkpt lat="43.9859209" lon="10.9095623"><ele>403.0</ele><time>2026-04-06T15:17:29.777Z</time></trkpt><trkpt lat="43.986018" lon="10.9095852"><ele>409.5</ele><time>2026-04-06T15:17:30.774Z</time></trkpt><trkpt lat="43.9861409" lon="10.9095831"><ele>416.0</ele><time>2026-04-06T15:17:31.784Z</time></trkpt><trkpt lat="43.9862482" lon="10.909596"><ele>422.5</ele><time>2026-04-06T15:17:32.783Z</time></trkpt><trkpt lat="43.9863787" lon="10.9095756"><ele>429.0</ele><time>2026-04-06T15:17:33.782Z</time></trkpt><trkpt lat="43.9864688" lon="10.9095775"><ele>429.0</ele><time>2026-04-06T15:17:34.787Z</time></trkpt><trkpt lat="43.98656" lon="10.9095925"><ele>429.0</ele><time>2026-04-06T15:17:35.784Z</time></trkpt><trkpt lat="43.9866497" lon="10.9096089"><ele>429.0</ele><time>2026-04-06T15:17:36.775Z</time></trkpt><trkpt lat="43.9867282" lon="10.9096519"><ele>429.0</ele><time>2026-04-06T15:17:37.773Z</time></trkpt><trkpt lat="43.9867759" lon="10.9098072"><ele>429.0</ele><time>2026-04-06T15:17:39.781Z</time></trkpt><trkpt lat="43.9867795" lon="10.9099311"><ele>436.25</ele><time>2026-04-06T15:17:40.786Z</time></trkpt><trkpt lat="43.9867711" lon="10.9100978"><ele>443.5</ele><time>2026-04-06T15:17:41.782Z</time></trkpt><trkpt lat="43.9867474" lon="10.9101851"><ele>450.75</ele><time>2026-04-06T15:17:42.783Z</time></trkpt><trkpt lat="43.9867119" lon="10.9104316"><ele>458.0</ele><time>2026-04-06T15:17:43.774Z</time></trkpt><trkpt lat="43.986699" lon="10.9105895"><ele>458.0</ele><time>2026-04-06T15:17:44.776Z</time></trkpt><trkpt lat="43.9867212" lon="10.9107362"><ele>457.99999999999994</ele><time>2026-04-06T15:17:45.791Z</time></trkpt><trkpt lat="43.986764" lon="10.9108867"><ele>457.99999999999994</ele><time>2026-04-06T15:17:46.785Z</time></trkpt><trkpt lat="43.9868002" lon="10.9110111"><ele>458.0</ele><time>2026-04-06T15:17:47.799Z</time></trkpt><trkpt lat="43.9868616" lon="10.9111266"><ele>458.0</ele><time>2026-04-06T15:17:48.773Z</time></trkpt><trkpt lat="43.9869728" lon="10.9112444"><ele>454.5</ele><time>2026-04-06T15:17:49.776Z</time></trkpt><trkpt lat="43.9870797" lon="10.9113422"><ele>451.0</ele><time>2026-04-06T15:17:50.786Z</time></trkpt><trkpt lat="43.9871907" lon="10.9114258"><ele>447.5</ele><time>2026-04-06T15:17:51.778Z</time></trkpt><trkpt lat="43.9872823" lon="10.9115308"><ele>444.0</ele><time>2026-04-06T15:17:52.776Z</time></trkpt><trkpt lat="43.987406" lon="10.9116413"><ele>444.0</ele><time>2026-04-06T15:17:53.775Z</time></trkpt><trkpt lat="43.9875084" lon="10.9117187"><ele>444.0</ele><time>2026-04-06T15:17:54.774Z</time></trkpt><trkpt lat="43.9875737" lon="10.9118141"><ele>444.0</ele><time>2026-04-06T15:17:55.775Z</time></trkpt><trkpt lat="43.9876914" lon="10.9119193"><ele>444.0</ele><time>2026-04-06T15:17:56.785Z</time></trkpt><trkpt lat="43.9877807" lon="10.9120422"><ele>446.0</ele><time>2026-04-06T15:17:57.776Z</time></trkpt><trkpt lat="43.9878921" lon="10.9121544"><ele>448.0</ele><time>2026-04-06T15:17:58.784Z</time></trkpt><trkpt lat="43.9879732" lon="10.912251"><ele>450.0</ele><time>2026-04-06T15:17:59.781Z</time></trkpt><trkpt lat="43.9880792" lon="10.9123722"><ele>452.0</ele><time>2026-04-06T15:18:00.791Z</time></trkpt><trkpt lat="43.988156" lon="10.9124924"><ele>452.0</ele><time>2026-04-06T15:18:01.786Z</time></trkpt><trkpt lat="43.9882222" lon="10.912569"><ele>452.00000000000006</ele><time>2026-04-06T15:18:02.781Z</time></trkpt><trkpt lat="43.9882833" lon="10.9126852"><ele>452.00000000000006</ele><time>2026-04-06T15:18:03.786Z</time></trkpt><trkpt lat="43.9883241" lon="10.9128081"><ele>452.0</ele><time>2026-04-06T15:18:04.784Z</time></trkpt><trkpt lat="43.9883689" lon="10.9128914"><ele>452.0</ele><time>2026-04-06T15:18:05.781Z</time></trkpt><trkpt lat="43.9883698" lon="10.9130376"><ele>453.20000000000005</ele><time>2026-04-06T15:18:06.783Z</time></trkpt><trkpt lat="43.9883798" lon="10.9131686"><ele>454.40000000000003</ele><time>2026-04-06T15:18:07.779Z</time></trkpt><trkpt lat="43.9883431" lon="10.9133344"><ele>455.59999999999997</ele><time>2026-04-06T15:18:08.78Z</time></trkpt><trkpt lat="43.9882879" lon="10.913471"><ele>456.79999999999995</ele><time>2026-04-06T15:18:09.781Z</time></trkpt><trkpt lat="43.9882225" lon="10.9135786"><ele>458.0</ele><time>2026-04-06T15:18:10.782Z</time></trkpt><trkpt lat="43.9881315" lon="10.913662"><ele>458.0</ele><time>2026-04-06T15:18:11.787Z</time></trkpt><trkpt lat="43.9880208" lon="10.9137196"><ele>457.99999999999994</ele><time>2026-04-06T15:18:12.786Z</time></trkpt><trkpt lat="43.9879191" lon="10.9137926"><ele>457.99999999999994</ele><time>2026-04-06T15:18:13.78Z</time></trkpt><trkpt lat="43.9878299" lon="10.9138822"><ele>458.0</ele><time>2026-04-06T15:18:14.775Z</time></trkpt><trkpt lat="43.9877428" lon="10.9139675"><ele>458.0</ele><time>2026-04-06T15:18:15.775Z</time></trkpt><trkpt lat="43.987659" lon="10.914059"><ele>458.0</ele><time>2026-04-06T15:18:16.782Z</time></trkpt><trkpt lat="43.9875733" lon="10.9141774"><ele>458.0</ele><time>2026-04-06T15:18:17.779Z</time></trkpt><trkpt lat="43.987479" lon="10.9143007"><ele>458.0</ele><time>2026-04-06T15:18:18.777Z</time></trkpt><trkpt lat="43.9874094" lon="10.9144061"><ele>458.0</ele><time>2026-04-06T15:18:19.782Z</time></trkpt><trkpt lat="43.9873588" lon="10.9145201"><ele>456.59999999999997</ele><time>2026-04-06T15:18:20.782Z</time></trkpt><trkpt lat="43.9873229" lon="10.9146571"><ele>455.19999999999993</ele><time>2026-04-06T15:18:21.781Z</time></trkpt><trkpt lat="43.9873122" lon="10.9147828"><ele>453.8</ele><time>2026-04-06T15:18:22.781Z</time></trkpt><trkpt lat="43.9873294" lon="10.9149223"><ele>452.4</ele><time>2026-04-06T15:18:23.783Z</time></trkpt><trkpt lat="43.9873493" lon="10.9150471"><ele>451.0</ele><time>2026-04-06T15:18:24.776Z</time></trkpt><trkpt lat="43.9873955" lon="10.9151666"><ele>452.5</ele><time>2026-04-06T15:18:25.782Z</time></trkpt><trkpt lat="43.9874683" lon="10.9152831"><ele>454.0</ele><time>2026-04-06T15:18:26.778Z</time></trkpt><trkpt lat="43.9875215" lon="10.9154032"><ele>455.5</ele><time>2026-04-06T15:18:27.784Z</time></trkpt><trkpt lat="43.9876095" lon="10.9155397"><ele>457.0</ele><time>2026-04-06T15:18:28.784Z</time></trkpt><trkpt lat="43.9877122" lon="10.9156746"><ele>457.0</ele><time>2026-04-06T15:18:29.782Z</time></trkpt><trkpt lat="43.9878305" lon="10.9157713"><ele>457.0</ele><time>2026-04-06T15:18:30.78Z</time></trkpt><trkpt lat="43.9879201" lon="10.9158655"><ele>457.0</ele><time>2026-04-06T15:18:31.784Z</time></trkpt><trkpt lat="43.9879897" lon="10.9159466"><ele>457.0</ele><time>2026-04-06T15:18:32.78Z</time></trkpt><trkpt lat="43.9881109" lon="10.9159836"><ele>452.25</ele><time>2026-04-06T15:18:33.782Z</time></trkpt><trkpt lat="43.98823" lon="10.9160501"><ele>447.5</ele><time>2026-04-06T15:18:34.79Z</time></trkpt><trkpt lat="43.9883918" lon="10.9160398"><ele>442.75</ele><time>2026-04-06T15:18:35.779Z</time></trkpt><trkpt lat="43.9885322" lon="10.9160394"><ele>438.0</ele><time>2026-04-06T15:18:36.788Z</time></trkpt><trkpt lat="43.9886602" lon="10.9160373"><ele>433.33333333333337</ele><time>2026-04-06T15:18:37.791Z</time></trkpt><trkpt lat="43.9887896" lon="10.9160095"><ele>428.6666666666667</ele><time>2026-04-06T15:18:38.789Z</time></trkpt><trkpt lat="43.9889818" lon="10.9158482"><ele>424.0</ele><time>2026-04-06T15:18:39.782Z</time></trkpt><trkpt lat="43.9891052" lon="10.9157351"><ele>423.75</ele><time>2026-04-06T15:18:40.773Z</time></trkpt><trkpt lat="43.989206" lon="10.9157068"><ele>423.5</ele><time>2026-04-06T15:18:41.776Z</time></trkpt><trkpt lat="43.9892697" lon="10.915581"><ele>423.25</ele><time>2026-04-06T15:18:42.776Z</time></trkpt><trkpt lat="43.9893022" lon="10.9153898"><ele>423.0</ele><time>2026-04-06T15:18:43.783Z</time></trkpt><trkpt lat="43.9892893" lon="10.9151332"><ele>429.33333333333337</ele><time>2026-04-06T15:18:44.782Z</time></trkpt><trkpt lat="43.989302" lon="10.9148621"><ele>435.6666666666667</ele><time>2026-04-06T15:18:45.781Z</time></trkpt><trkpt lat="43.9893205" lon="10.9146192"><ele>442.0</ele><time>2026-04-06T15:18:46.802Z</time></trkpt><trkpt lat="43.9893258" lon="10.914388"><ele>448.33333333333337</ele><time>2026-04-06T15:18:47.774Z</time></trkpt><trkpt lat="43.9893653" lon="10.9141294"><ele>454.66666666666663</ele><time>2026-04-06T15:18:48.784Z</time></trkpt><trkpt lat="43.9893839" lon="10.9139054"><ele>461.0</ele><time>2026-04-06T15:18:49.778Z</time></trkpt><trkpt lat="43.9893896" lon="10.9137443"><ele>461.0</ele><time>2026-04-06T15:18:50.788Z</time></trkpt><trkpt lat="43.9893557" lon="10.9135315"><ele>461.0</ele><time>2026-04-06T15:18:51.784Z</time></trkpt><trkpt lat="43.9893096" lon="10.9133616"><ele>461.0</ele><time>2026-04-06T15:18:52.786Z</time></trkpt><trkpt lat="43.989285" lon="10.9131825"><ele>461.0</ele><time>2026-04-06T15:18:53.775Z</time></trkpt><trkpt lat="43.9892532" lon="10.913007"><ele>463.0</ele><time>2026-04-06T15:18:54.782Z</time></trkpt><trkpt lat="43.9892041" lon="10.9128391"><ele>465.0</ele><time>2026-04-06T15:18:55.782Z</time></trkpt><trkpt lat="43.9891696" lon="10.9126912"><ele>467.0</ele><time>2026-04-06T15:18:56.781Z</time></trkpt><trkpt lat="43.9891172" lon="10.9125678"><ele>469.0</ele><time>2026-04-06T15:18:57.783Z</time></trkpt><trkpt lat="43.9890736" lon="10.9124137"><ele>470.5</ele><time>2026-04-06T15:18:58.785Z</time></trkpt><trkpt lat="43.9890163" lon="10.9122632"><ele>472.0</ele><time>2026-04-06T15:18:59.778Z</time></trkpt><trkpt lat="43.9889436" lon="10.9121268"><ele>473.5</ele><time>2026-04-06T15:19:00.783Z</time></trkpt><trkpt lat="43.9888753" lon="10.9120212"><ele>475.0</ele><time>2026-04-06T15:19:01.788Z</time></trkpt><trkpt lat="43.9887467" lon="10.9118664"><ele>475.0</ele><time>2026-04-06T15:19:02.781Z</time></trkpt><trkpt lat="43.9886809" lon="10.9117598"><ele>475.0</ele><time>2026-04-06T15:19:03.776Z</time></trkpt><trkpt lat="43.9885986" lon="10.9116499"><ele>475.0</ele><time>2026-04-06T15:19:04.784Z</time></trkpt><trkpt lat="43.9885422" lon="10.9115304"><ele>475.0</ele><time>2026-04-06T15:19:05.814Z</time></trkpt><trkpt lat="43.9884619" lon="10.9113912"><ele>475.0</ele><time>2026-04-06T15:19:06.778Z</time></trkpt><trkpt lat="43.9884132" lon="10.9112391"><ele>474.5</ele><time>2026-04-06T15:19:07.794Z</time></trkpt><trkpt lat="43.9883594" lon="10.9110875"><ele>474.0</ele><time>2026-04-06T15:19:08.775Z</time></trkpt><trkpt lat="43.9883194" lon="10.9109184"><ele>473.5</ele><time>2026-04-06T15:19:09.801Z</time></trkpt><trkpt lat="43.988284" lon="10.9107956"><ele>473.0</ele><time>2026-04-06T15:19:10.79Z</time></trkpt><trkpt lat="43.9882891" lon="10.910603"><ele>475.25</ele><time>2026-04-06T15:19:11.784Z</time></trkpt><trkpt lat="43.9883346" lon="10.910456"><ele>477.5</ele><time>2026-04-06T15:19:12.78Z</time></trkpt><trkpt lat="43.9883832" lon="10.9103595"><ele>479.75</ele><time>2026-04-06T15:19:13.779Z</time></trkpt><trkpt lat="43.9884675" lon="10.9102657"><ele>482.0</ele><time>2026-04-06T15:19:14.777Z</time></trkpt><trkpt lat="43.9886164" lon="10.9102374"><ele>484.6</ele><time>2026-04-06T15:19:15.774Z</time></trkpt><trkpt lat="43.9887168" lon="10.9102431"><ele>487.20000000000005</ele><time>2026-04-06T15:19:16.788Z</time></trkpt><trkpt lat="43.988822" lon="10.910238"><ele>489.8</ele><time>2026-04-06T15:19:17.782Z</time></trkpt><trkpt lat="43.9889223" lon="10.9102894"><ele>492.4</ele><time>2026-04-06T15:19:18.778Z</time></trkpt><trkpt lat="43.9890093" lon="10.9104126"><ele>495.0</ele><time>2026-04-06T15:19:19.782Z</time></trkpt><trkpt lat="43.989095" lon="10.9105569"><ele>495.0</ele><time>2026-04-06T15:19:20.783Z</time></trkpt><trkpt lat="43.9891744" lon="10.9107277"><ele>495.0</ele><time>2026-04-06T15:19:21.786Z</time></trkpt><trkpt lat="43.9892451" lon="10.9109912"><ele>495.0</ele><time>2026-04-06T15:19:22.78Z</time></trkpt><trkpt lat="43.9893273" lon="10.911184"><ele>494.75</ele><time>2026-04-06T15:19:23.779Z</time></trkpt><trkpt lat="43.98938" lon="10.9113425"><ele>494.5</ele><time>2026-04-06T15:19:24.773Z</time></trkpt><trkpt lat="43.9894684" lon="10.9115033"><ele>494.25</ele><time>2026-04-06T15:19:25.79Z</time></trkpt><trkpt lat="43.9895745" lon="10.9116649"><ele>494.0</ele><time>2026-04-06T15:19:26.779Z</time></trkpt><trkpt lat="43.9896865" lon="10.9118268"><ele>494.0</ele><time>2026-04-06T15:19:27.774Z</time></trkpt><trkpt lat="43.9898665" lon="10.9120281"><ele>494.0</ele><time>2026-04-06T15:19:28.785Z</time></trkpt><trkpt lat="43.9900574" lon="10.9122115"><ele>502.5</ele><time>2026-04-06T15:19:29.787Z</time></trkpt><trkpt lat="43.9902678" lon="10.9123665"><ele>511.0</ele><time>2026-04-06T15:19:30.776Z</time></trkpt><trkpt lat="43.9904801" lon="10.9125245"><ele>514.5</ele><time>2026-04-06T15:19:31.776Z</time></trkpt><trkpt lat="43.9907005" lon="10.9126544"><ele>518.0</ele><time>2026-04-06T15:19:32.776Z</time></trkpt><trkpt lat="43.9909161" lon="10.9127781"><ele>518.0</ele><time>2026-04-06T15:19:33.786Z</time></trkpt><trkpt lat="43.9911241" lon="10.9128647"><ele>518.0</ele><time>2026-04-06T15:19:34.786Z</time></trkpt><trkpt lat="43.9913109" lon="10.9129648"><ele>518.0</ele><time>2026-04-06T15:19:35.781Z</time></trkpt><trkpt lat="43.9915021" lon="10.9131028"><ele>518.0</ele><time>2026-04-06T15:19:36.864Z</time></trkpt><trkpt lat="43.9916451" lon="10.913254"><ele>518.0</ele><time>2026-04-06T15:19:37.778Z</time></trkpt><trkpt lat="43.991778" lon="10.9134183"><ele>518.0</ele><time>2026-04-06T15:19:38.782Z</time></trkpt><trkpt lat="43.9919314" lon="10.9135247"><ele>518.0</ele><time>2026-04-06T15:19:39.774Z</time></trkpt><trkpt lat="43.9920931" lon="10.9136447"><ele>518.0</ele><time>2026-04-06T15:19:40.781Z</time></trkpt><trkpt lat="43.9922336" lon="10.9137629"><ele>518.0</ele><time>2026-04-06T15:19:41.776Z</time></trkpt><trkpt lat="43.9924098" lon="10.9138777"><ele>524.6666666666666</ele><time>2026-04-06T15:19:42.778Z</time></trkpt><trkpt lat="43.992609" lon="10.9139574"><ele>531.3333333333334</ele><time>2026-04-06T15:19:43.78Z</time></trkpt><trkpt lat="43.9927817" lon="10.91406"><ele>538.0</ele><time>2026-04-06T15:19:44.776Z</time></trkpt><trkpt lat="43.9929491" lon="10.9141947"><ele>538.6666666666667</ele><time>2026-04-06T15:19:45.78Z</time></trkpt><trkpt lat="43.9931454" lon="10.9142862"><ele>539.3333333333334</ele><time>2026-04-06T15:19:46.779Z</time></trkpt><trkpt lat="43.9933151" lon="10.9144048"><ele>540.0</ele><time>2026-04-06T15:19:47.783Z</time></trkpt><trkpt lat="43.9935015" lon="10.9145404"><ele>540.0</ele><time>2026-04-06T15:19:48.776Z</time></trkpt><trkpt lat="43.9936717" lon="10.9146882"><ele>540.0</ele><time>2026-04-06T15:19:49.797Z</time></trkpt><trkpt lat="43.9938188" lon="10.9148184"><ele>540.0</ele><time>2026-04-06T15:19:50.798Z</time></trkpt><trkpt lat="43.9939013" lon="10.9150315"><ele>544.0</ele><time>2026-04-06T15:19:51.781Z</time></trkpt><trkpt lat="43.9940344" lon="10.9151961"><ele>548.0</ele><time>2026-04-06T15:19:52.778Z</time></trkpt><trkpt lat="43.9941484" lon="10.9154115"><ele>552.0</ele><time>2026-04-06T15:19:53.778Z</time></trkpt><trkpt lat="43.994255" lon="10.9156375"><ele>552.0</ele><time>2026-04-06T15:19:54.782Z</time></trkpt><trkpt lat="43.9943898" lon="10.9158752"><ele>552.0</ele><time>2026-04-06T15:19:55.779Z</time></trkpt><trkpt lat="43.9944931" lon="10.916068"><ele>552.0</ele><time>2026-04-06T15:19:56.779Z</time></trkpt><trkpt lat="43.9946239" lon="10.9162907"><ele>545.5</ele><time>2026-04-06T15:19:57.789Z</time></trkpt><trkpt lat="43.9947649" lon="10.9165431"><ele>539.0</ele><time>2026-04-06T15:19:58.788Z</time></trkpt><trkpt lat="43.9948509" lon="10.9168514"><ele>544.6666666666666</ele><time>2026-04-06T15:19:59.782Z</time></trkpt><trkpt lat="43.9949986" lon="10.917049"><ele>550.3333333333334</ele><time>2026-04-06T15:20:00.786Z</time></trkpt><trkpt lat="43.9951435" lon="10.9172986"><ele>556.0</ele><time>2026-04-06T15:20:01.782Z</time></trkpt><trkpt lat="43.9952693" lon="10.9174558"><ele>551.0</ele><time>2026-04-06T15:20:02.782Z</time></trkpt><trkpt lat="43.9954206" lon="10.9176568"><ele>546.0</ele><time>2026-04-06T15:20:03.781Z</time></trkpt><trkpt lat="43.9955545" lon="10.9177941"><ele>541.0</ele><time>2026-04-06T15:20:04.788Z</time></trkpt><trkpt lat="43.9956495" lon="10.9180477"><ele>541.0</ele><time>2026-04-06T15:20:05.779Z</time></trkpt><trkpt lat="43.9957552" lon="10.9182345"><ele>541.0</ele><time>2026-04-06T15:20:06.78Z</time></trkpt><trkpt lat="43.9958664" lon="10.9184275"><ele>541.0</ele><time>2026-04-06T15:20:07.79Z</time></trkpt><trkpt lat="43.9959871" lon="10.9187086"><ele>538.0</ele><time>2026-04-06T15:20:08.793Z</time></trkpt><trkpt lat="43.9961108" lon="10.9188902"><ele>535.0</ele><time>2026-04-06T15:20:09.784Z</time></trkpt><trkpt lat="43.9962083" lon="10.9191266"><ele>532.0</ele><time>2026-04-06T15:20:10.79Z</time></trkpt><trkpt lat="43.9963299" lon="10.9192992"><ele>532.0</ele><time>2026-04-06T15:20:11.782Z</time></trkpt><trkpt lat="43.9964822" lon="10.9194279"><ele>532.0</ele><time>2026-04-06T15:20:12.795Z</time></trkpt><trkpt lat="43.9966778" lon="10.9193963"><ele>532.0</ele><time>2026-04-06T15:20:13.781Z</time></trkpt><trkpt lat="43.9967978" lon="10.9195014"><ele>539.6666666666667</ele><time>2026-04-06T15:20:14.778Z</time></trkpt><trkpt lat="43.9969337" lon="10.9195925"><ele>547.3333333333334</ele><time>2026-04-06T15:20:15.782Z</time></trkpt><trkpt lat="43.9970815" lon="10.9196719"><ele>555.0</ele><time>2026-04-06T15:20:16.782Z</time></trkpt><trkpt lat="43.9972404" lon="10.9196493"><ele>555.0</ele><time>2026-04-06T15:20:17.776Z</time></trkpt><trkpt lat="43.9974068" lon="10.9196544"><ele>555.0</ele><time>2026-04-06T15:20:18.779Z</time></trkpt><trkpt lat="43.9975932" lon="10.9195004"><ele>555.0</ele><time>2026-04-06T15:20:19.782Z</time></trkpt><trkpt lat="43.997722" lon="10.9193897"><ele>557.3333333333334</ele><time>2026-04-06T15:20:20.779Z</time></trkpt><trkpt lat="43.9978646" lon="10.9192418"><ele>559.6666666666667</ele><time>2026-04-06T15:20:21.787Z</time></trkpt><trkpt lat="43.9980449" lon="10.9191324"><ele>562.0</ele><time>2026-04-06T15:20:22.784Z</time></trkpt><trkpt lat="43.998198" lon="10.9190274"><ele>559.6666666666667</ele><time>2026-04-06T15:20:23.779Z</time></trkpt><trkpt lat="43.9983793" lon="10.9189764"><ele>557.3333333333334</ele><time>2026-04-06T15:20:24.787Z</time></trkpt><trkpt lat="43.9985432" lon="10.9189351"><ele>555.0</ele><time>2026-04-06T15:20:25.78Z</time></trkpt><trkpt lat="43.998725" lon="10.9189263"><ele>555.0</ele><time>2026-04-06T15:20:26.779Z</time></trkpt><trkpt lat="43.9989054" lon="10.9189028"><ele>555.0</ele><time>2026-04-06T15:20:27.783Z</time></trkpt><trkpt lat="43.9990593" lon="10.9188823"><ele>555.0</ele><time>2026-04-06T15:20:28.78Z</time></trkpt><trkpt lat="43.9992281" lon="10.9188389"><ele>554.5</ele><time>2026-04-06T15:20:29.781Z</time></trkpt><trkpt lat="43.9993871" lon="10.9188005"><ele>554.0</ele><time>2026-04-06T15:20:30.783Z</time></trkpt><trkpt lat="43.9995223" lon="10.9187354"><ele>553.5</ele><time>2026-04-06T15:20:31.785Z</time></trkpt><trkpt lat="43.9996345" lon="10.9186236"><ele>553.0</ele><time>2026-04-06T15:20:32.786Z</time></trkpt><trkpt lat="43.9997173" lon="10.9184357"><ele>560.0</ele><time>2026-04-06T15:20:33.781Z</time></trkpt><trkpt lat="43.9998296" lon="10.9182933"><ele>567.0</ele><time>2026-04-06T15:20:34.778Z</time></trkpt><trkpt lat="43.9999317" lon="10.9181037"><ele>574.0</ele><time>2026-04-06T15:20:35.785Z</time></trkpt><trkpt lat="44.0000352" lon="10.9179546"><ele>574.0</ele><time>2026-04-06T15:20:36.788Z</time></trkpt><trkpt lat="44.0001467" lon="10.9178209"><ele>574.0</ele><time>2026-04-06T15:20:37.787Z</time></trkpt><trkpt lat="44.0002471" lon="10.9176589"><ele>574.0</ele><time>2026-04-06T15:20:38.782Z</time></trkpt><trkpt lat="44.0003584" lon="10.9175624"><ele>574.0</ele><time>2026-04-06T15:20:39.784Z</time></trkpt><trkpt lat="44.0004785" lon="10.9174548"><ele>573.75</ele><time>2026-04-06T15:20:40.806Z</time></trkpt><trkpt lat="44.0005965" lon="10.9173477"><ele>573.5</ele><time>2026-04-06T15:20:41.777Z</time></trkpt><trkpt lat="44.0007224" lon="10.9172345"><ele>573.25</ele><time>2026-04-06T15:20:42.782Z</time></trkpt><trkpt lat="44.0008533" lon="10.9171201"><ele>573.0</ele><time>2026-04-06T15:20:43.782Z</time></trkpt><trkpt lat="44.0009904" lon="10.9170004"><ele>575.3333333333334</ele><time>2026-04-06T15:20:44.783Z</time></trkpt><trkpt lat="44.0011275" lon="10.9168946"><ele>577.6666666666667</ele><time>2026-04-06T15:20:45.781Z</time></trkpt><trkpt lat="44.001265" lon="10.9167571"><ele>580.0</ele><time>2026-04-06T15:20:46.781Z</time></trkpt><trkpt lat="44.0014085" lon="10.9166468"><ele>580.0</ele><time>2026-04-06T15:20:47.782Z</time></trkpt><trkpt lat="44.0015474" lon="10.9165389"><ele>580.0</ele><time>2026-04-06T15:20:48.786Z</time></trkpt><trkpt lat="44.0016815" lon="10.9164052"><ele>580.0</ele><time>2026-04-06T15:20:49.785Z</time></trkpt><trkpt lat="44.001819" lon="10.9162825"><ele>585.3333333333334</ele><time>2026-04-06T15:20:50.787Z</time></trkpt><trkpt lat="44.0019534" lon="10.9161796"><ele>590.6666666666666</ele><time>2026-04-06T15:20:51.78Z</time></trkpt><trkpt lat="44.0021097" lon="10.9161085"><ele>596.0</ele><time>2026-04-06T15:20:52.788Z</time></trkpt><trkpt lat="44.0022608" lon="10.9160552"><ele>596.0</ele><time>2026-04-06T15:20:53.784Z</time></trkpt><trkpt lat="44.0023933" lon="10.9160191"><ele>596.0</ele><time>2026-04-06T15:20:54.787Z</time></trkpt><trkpt lat="44.0025137" lon="10.9160081"><ele>596.0</ele><time>2026-04-06T15:20:55.781Z</time></trkpt><trkpt lat="44.0026334" lon="10.9160358"><ele>596.0</ele><time>2026-04-06T15:20:56.775Z</time></trkpt><trkpt lat="44.0027459" lon="10.9160519"><ele>597.6</ele><time>2026-04-06T15:20:57.774Z</time></trkpt><trkpt lat="44.002842" lon="10.9161096"><ele>599.2</ele><time>2026-04-06T15:20:58.785Z</time></trkpt><trkpt lat="44.0028938" lon="10.9161735"><ele>600.8</ele><time>2026-04-06T15:20:59.789Z</time></trkpt><trkpt lat="44.0028974" lon="10.9162891"><ele>602.4</ele><time>2026-04-06T15:21:00.79Z</time></trkpt><trkpt lat="44.002849" lon="10.9163699"><ele>604.0</ele><time>2026-04-06T15:21:01.779Z</time></trkpt><trkpt lat="44.0027759" lon="10.9165009"><ele>604.0</ele><time>2026-04-06T15:21:02.789Z</time></trkpt><trkpt lat="44.0026614" lon="10.916565"><ele>604.0</ele><time>2026-04-06T15:21:03.777Z</time></trkpt><trkpt lat="44.0026075" lon="10.9166241"><ele>604.0</ele><time>2026-04-06T15:21:04.789Z</time></trkpt><trkpt lat="44.002528" lon="10.9166975"><ele>604.0</ele><time>2026-04-06T15:21:05.787Z</time></trkpt><trkpt lat="44.0023904" lon="10.9167999"><ele>604.0</ele><time>2026-04-06T15:21:06.779Z</time></trkpt><trkpt lat="44.0021687" lon="10.9169342"><ele>605.3333333333334</ele><time>2026-04-06T15:21:07.78Z</time></trkpt><trkpt lat="44.0019861" lon="10.9170929"><ele>606.6666666666666</ele><time>2026-04-06T15:21:08.786Z</time></trkpt><trkpt lat="44.0018535" lon="10.9172535"><ele>608.0</ele><time>2026-04-06T15:21:09.782Z</time></trkpt><trkpt lat="44.0017839" lon="10.9174264"><ele>608.0</ele><time>2026-04-06T15:21:10.788Z</time></trkpt><trkpt lat="44.0017436" lon="10.9175758"><ele>608.0</ele><time>2026-04-06T15:21:11.78Z</time></trkpt><trkpt lat="44.0017149" lon="10.917724"><ele>608.0</ele><time>2026-04-06T15:21:12.786Z</time></trkpt><trkpt lat="44.0016966" lon="10.9178606"><ele>608.0</ele><time>2026-04-06T15:21:13.787Z</time></trkpt><trkpt lat="44.0016588" lon="10.9179819"><ele>608.0</ele><time>2026-04-06T15:21:14.786Z</time></trkpt><trkpt lat="44.0016866" lon="10.9181504"><ele>608.0</ele><time>2026-04-06T15:21:15.781Z</time></trkpt><trkpt lat="44.0018462" lon="10.9182863"><ele>608.0</ele><time>2026-04-06T15:21:16.779Z</time></trkpt><trkpt lat="44.0019903" lon="10.9184611"><ele>608.0</ele><time>2026-04-06T15:21:17.78Z</time></trkpt><trkpt lat="44.0020897" lon="10.9186072"><ele>606.0</ele><time>2026-04-06T15:21:18.776Z</time></trkpt><trkpt lat="44.0021247" lon="10.9187836"><ele>604.0</ele><time>2026-04-06T15:21:19.78Z</time></trkpt><trkpt lat="44.0021898" lon="10.9189695"><ele>602.0</ele><time>2026-04-06T15:21:20.78Z</time></trkpt><trkpt lat="44.0022395" lon="10.9191284"><ele>600.0</ele><time>2026-04-06T15:21:21.782Z</time></trkpt><trkpt lat="44.0022688" lon="10.9192884"><ele>597.0</ele><time>2026-04-06T15:21:22.782Z</time></trkpt><trkpt lat="44.0022853" lon="10.9194139"><ele>594.0</ele><time>2026-04-06T15:21:23.785Z</time></trkpt><trkpt lat="44.0023421" lon="10.9195424"><ele>591.0</ele><time>2026-04-06T15:21:24.782Z</time></trkpt><trkpt lat="44.0024709" lon="10.9196865"><ele>588.0</ele><time>2026-04-06T15:21:25.778Z</time></trkpt><trkpt lat="44.0026593" lon="10.9198752"><ele>589.0</ele><time>2026-04-06T15:21:26.789Z</time></trkpt><trkpt lat="44.0027816" lon="10.9199742"><ele>590.0</ele><time>2026-04-06T15:21:27.779Z</time></trkpt><trkpt lat="44.0029213" lon="10.9200675"><ele>591.0</ele><time>2026-04-06T15:21:28.777Z</time></trkpt><trkpt lat="44.0030589" lon="10.9201352"><ele>592.0</ele><time>2026-04-06T15:21:29.782Z</time></trkpt><trkpt lat="44.0032075" lon="10.9201722"><ele>593.75</ele><time>2026-04-06T15:21:30.78Z</time></trkpt><trkpt lat="44.0033546" lon="10.9201462"><ele>595.5</ele><time>2026-04-06T15:21:31.777Z</time></trkpt><trkpt lat="44.0034828" lon="10.9201073"><ele>597.25</ele><time>2026-04-06T15:21:32.777Z</time></trkpt><trkpt lat="44.0036316" lon="10.9199965"><ele>599.0</ele><time>2026-04-06T15:21:33.78Z</time></trkpt><trkpt lat="44.0037276" lon="10.9199593"><ele>601.6</ele><time>2026-04-06T15:21:34.787Z</time></trkpt><trkpt lat="44.0038318" lon="10.9199873"><ele>604.2</ele><time>2026-04-06T15:21:35.79Z</time></trkpt><trkpt lat="44.0039527" lon="10.9199666"><ele>606.8000000000001</ele><time>2026-04-06T15:21:36.773Z</time></trkpt><trkpt lat="44.0040603" lon="10.9200109"><ele>609.4</ele><time>2026-04-06T15:21:37.778Z</time></trkpt><trkpt lat="44.0041412" lon="10.9200542"><ele>612.0</ele><time>2026-04-06T15:21:38.78Z</time></trkpt><trkpt lat="44.0042173" lon="10.9201553"><ele>612.0</ele><time>2026-04-06T15:21:39.783Z</time></trkpt><trkpt lat="44.0042666" lon="10.920258"><ele>612.0</ele><time>2026-04-06T15:21:40.78Z</time></trkpt><trkpt lat="44.0043026" lon="10.9203904"><ele>612.0</ele><time>2026-04-06T15:21:41.779Z</time></trkpt><trkpt lat="44.0043593" lon="10.9205049"><ele>612.0</ele><time>2026-04-06T15:21:43.784Z</time></trkpt><trkpt lat="44.0044272" lon="10.9205777"><ele>612.0</ele><time>2026-04-06T15:21:45.786Z</time></trkpt><trkpt lat="44.004474" lon="10.9206371"><ele>612.0</ele><time>2026-04-06T15:21:47.78Z</time></trkpt><trkpt lat="44.0045345" lon="10.9206712"><ele>612.0</ele><time>2026-04-06T15:21:49.781Z</time></trkpt><trkpt lat="44.0047043" lon="10.9204139"><ele>612.0</ele><time>2026-04-06T15:24:37.767Z</time></trkpt><trkpt lat="44.004659" lon="10.9205006"><ele>612.0</ele><time>2026-04-06T15:27:36.859Z</time></trkpt><trkpt lat="44.0046018" lon="10.9205957"><ele>612.0</ele><time>2026-04-06T15:39:42.776Z</time></trkpt><trkpt lat="44.0046694" lon="10.9205158"><ele>612.0</ele><time>2026-04-06T15:41:27.731Z</time></trkpt><trkpt lat="44.0047199" lon="10.9204593"><ele>612.0</ele><time>2026-04-06T15:41:31.812Z</time></trkpt><trkpt lat="44.0047654" lon="10.9203941"><ele>612.0</ele><time>2026-04-06T15:41:37.712Z</time></trkpt><trkpt lat="44.0046939" lon="10.9203646"><ele>612.0</ele><time>2026-04-06T15:42:05.8Z</time></trkpt><trkpt lat="44.0046413" lon="10.9204509"><ele>612.0</ele><time>2026-04-06T15:42:39.325Z</time></trkpt></trkseg><trkseg><trkpt lat="44.0104847" lon="10.926422"><ele>688.0</ele><time>2026-04-06T15:54:43.835Z</time></trkpt><trkpt lat="44.0104987" lon="10.9262935"><ele>688.0</ele><time>2026-04-06T15:54:46.777Z</time></trkpt><trkpt lat="44.010622" lon="10.9263715"><ele>688.0</ele><time>2026-04-06T15:54:59.778Z</time></trkpt><trkpt lat="44.0106884" lon="10.9264226"><ele>688.0</ele><time>2026-04-06T15:55:00.771Z</time></trkpt><trkpt lat="44.0107724" lon="10.9265009"><ele>688.0</ele><time>2026-04-06T15:55:01.773Z</time></trkpt><trkpt lat="44.0108595" lon="10.9266388"><ele>690.5</ele><time>2026-04-06T15:55:02.767Z</time></trkpt><trkpt lat="44.0109411" lon="10.9267657"><ele>693.0</ele><time>2026-04-06T15:55:03.781Z</time></trkpt><trkpt lat="44.0110281" lon="10.9268751"><ele>695.5</ele><time>2026-04-06T15:55:04.773Z</time></trkpt><trkpt lat="44.0110953" lon="10.927016"><ele>698.0</ele><time>2026-04-06T15:55:05.775Z</time></trkpt><trkpt lat="44.0112436" lon="10.9270711"><ele>698.0</ele><time>2026-04-06T15:55:06.778Z</time></trkpt><trkpt lat="44.0113237" lon="10.9271803"><ele>698.0</ele><time>2026-04-06T15:55:07.774Z</time></trkpt><trkpt lat="44.0114233" lon="10.9272696"><ele>698.0</ele><time>2026-04-06T15:55:08.775Z</time></trkpt><trkpt lat="44.0115572" lon="10.9273197"><ele>698.0</ele><time>2026-04-06T15:55:09.782Z</time></trkpt><trkpt lat="44.0117096" lon="10.9273257"><ele>695.75</ele><time>2026-04-06T15:55:10.778Z</time></trkpt><trkpt lat="44.0118646" lon="10.9273212"><ele>693.5</ele><time>2026-04-06T15:55:11.776Z</time></trkpt><trkpt lat="44.0120105" lon="10.927324"><ele>691.25</ele><time>2026-04-06T15:55:12.8Z</time></trkpt><trkpt lat="44.0121467" lon="10.9273241"><ele>689.0</ele><time>2026-04-06T15:55:13.77Z</time></trkpt><trkpt lat="44.0122804" lon="10.9273239"><ele>689.0</ele><time>2026-04-06T15:55:14.787Z</time></trkpt><trkpt lat="44.0124296" lon="10.9273255"><ele>689.0</ele><time>2026-04-06T15:55:15.777Z</time></trkpt><trkpt lat="44.0125764" lon="10.9273212"><ele>689.0</ele><time>2026-04-06T15:55:16.777Z</time></trkpt><trkpt lat="44.0127378" lon="10.9273953"><ele>691.6666666666666</ele><time>2026-04-06T15:55:17.772Z</time></trkpt><trkpt lat="44.0129197" lon="10.9274923"><ele>694.3333333333334</ele><time>2026-04-06T15:55:18.777Z</time></trkpt><trkpt lat="44.0130746" lon="10.9275905"><ele>697.0</ele><time>2026-04-06T15:55:19.779Z</time></trkpt><trkpt lat="44.01325" lon="10.9276921"><ele>703.3333333333334</ele><time>2026-04-06T15:55:20.778Z</time></trkpt><trkpt lat="44.0134391" lon="10.9277888"><ele>709.6666666666666</ele><time>2026-04-06T15:55:21.777Z</time></trkpt><trkpt lat="44.0136286" lon="10.9278659"><ele>716.0</ele><time>2026-04-06T15:55:22.774Z</time></trkpt><trkpt lat="44.0138153" lon="10.9278678"><ele>716.0</ele><time>2026-04-06T15:55:23.773Z</time></trkpt><trkpt lat="44.0139954" lon="10.9277881"><ele>716.0</ele><time>2026-04-06T15:55:24.779Z</time></trkpt><trkpt lat="44.014207" lon="10.9276936"><ele>716.0</ele><time>2026-04-06T15:55:25.774Z</time></trkpt><trkpt lat="44.0143806" lon="10.9275974"><ele>711.0</ele><time>2026-04-06T15:55:26.78Z</time></trkpt><trkpt lat="44.0145202" lon="10.9273903"><ele>706.0</ele><time>2026-04-06T15:55:27.78Z</time></trkpt><trkpt lat="44.0146361" lon="10.9271744"><ele>701.0</ele><time>2026-04-06T15:55:28.776Z</time></trkpt><trkpt lat="44.0147381" lon="10.9269598"><ele>701.0</ele><time>2026-04-06T15:55:29.78Z</time></trkpt><trkpt lat="44.0148519" lon="10.9267726"><ele>701.0</ele><time>2026-04-06T15:55:30.776Z</time></trkpt><trkpt lat="44.0149586" lon="10.9264904"><ele>701.0</ele><time>2026-04-06T15:55:31.777Z</time></trkpt><trkpt lat="44.0150606" lon="10.9262045"><ele>701.0</ele><time>2026-04-06T15:55:32.79Z</time></trkpt><trkpt lat="44.0151774" lon="10.925992"><ele>701.0</ele><time>2026-04-06T15:55:33.78Z</time></trkpt><trkpt lat="44.0152719" lon="10.925771"><ele>701.0</ele><time>2026-04-06T15:55:34.77Z</time></trkpt><trkpt lat="44.0153662" lon="10.9255699"><ele>701.0</ele><time>2026-04-06T15:55:35.783Z</time></trkpt><trkpt lat="44.0154908" lon="10.9254446"><ele>701.0</ele><time>2026-04-06T15:55:36.783Z</time></trkpt><trkpt lat="44.0156081" lon="10.925307"><ele>701.0</ele><time>2026-04-06T15:55:37.782Z</time></trkpt><trkpt lat="44.0157337" lon="10.92518"><ele>704.0</ele><time>2026-04-06T15:55:38.773Z</time></trkpt><trkpt lat="44.015872" lon="10.9250674"><ele>707.0</ele><time>2026-04-06T15:55:39.771Z</time></trkpt><trkpt lat="44.0160546" lon="10.9250125"><ele>710.0</ele><time>2026-04-06T15:55:40.771Z</time></trkpt><trkpt lat="44.0161996" lon="10.9248986"><ele>710.0</ele><time>2026-04-06T15:55:41.783Z</time></trkpt><trkpt lat="44.01634" lon="10.9247888"><ele>710.0</ele><time>2026-04-06T15:55:42.77Z</time></trkpt><trkpt lat="44.0164935" lon="10.9247349"><ele>710.0</ele><time>2026-04-06T15:55:43.768Z</time></trkpt><trkpt lat="44.0166647" lon="10.924668"><ele>717.3333333333333</ele><time>2026-04-06T15:55:44.774Z</time></trkpt><trkpt lat="44.0168781" lon="10.9246677"><ele>724.6666666666666</ele><time>2026-04-06T15:55:45.777Z</time></trkpt><trkpt lat="44.0170427" lon="10.9246171"><ele>732.0</ele><time>2026-04-06T15:55:46.774Z</time></trkpt><trkpt lat="44.0172071" lon="10.9245662"><ele>732.0</ele><time>2026-04-06T15:55:47.773Z</time></trkpt><trkpt lat="44.0173795" lon="10.9245274"><ele>732.0</ele><time>2026-04-06T15:55:48.778Z</time></trkpt><trkpt lat="44.0174919" lon="10.9242991"><ele>732.0</ele><time>2026-04-06T15:55:49.775Z</time></trkpt><trkpt lat="44.0176447" lon="10.9241771"><ele>729.6666666666666</ele><time>2026-04-06T15:55:50.777Z</time></trkpt><trkpt lat="44.0177784" lon="10.9240198"><ele>727.3333333333333</ele><time>2026-04-06T15:55:51.775Z</time></trkpt><trkpt lat="44.0179018" lon="10.9238392"><ele>725.0</ele><time>2026-04-06T15:55:52.775Z</time></trkpt><trkpt lat="44.0180218" lon="10.9236405"><ele>725.0</ele><time>2026-04-06T15:55:53.776Z</time></trkpt><trkpt lat="44.018103" lon="10.9234202"><ele>725.0</ele><time>2026-04-06T15:55:54.775Z</time></trkpt><trkpt lat="44.0181816" lon="10.9231778"><ele>725.0</ele><time>2026-04-06T15:55:55.783Z</time></trkpt><trkpt lat="44.0182841" lon="10.9229861"><ele>722.3333333333333</ele><time>2026-04-06T15:55:56.773Z</time></trkpt><trkpt lat="44.0184065" lon="10.9228229"><ele>719.6666666666666</ele><time>2026-04-06T15:55:57.776Z</time></trkpt><trkpt lat="44.0185351" lon="10.9226575"><ele>717.0</ele><time>2026-04-06T15:55:58.775Z</time></trkpt><trkpt lat="44.0186948" lon="10.9225153"><ele>717.0</ele><time>2026-04-06T15:55:59.776Z</time></trkpt><trkpt lat="44.0188793" lon="10.922431"><ele>717.0</ele><time>2026-04-06T15:56:00.776Z</time></trkpt><trkpt lat="44.0190661" lon="10.9223736"><ele>717.0</ele><time>2026-04-06T15:56:01.778Z</time></trkpt><trkpt lat="44.0192482" lon="10.9223345"><ele>724.6666666666666</ele><time>2026-04-06T15:56:02.779Z</time></trkpt><trkpt lat="44.0194283" lon="10.9223085"><ele>732.3333333333333</ele><time>2026-04-06T15:56:03.776Z</time></trkpt><trkpt lat="44.0195983" lon="10.9223145"><ele>740.0</ele><time>2026-04-06T15:56:04.783Z</time></trkpt><trkpt lat="44.0197949" lon="10.9224192"><ele>740.0</ele><time>2026-04-06T15:56:05.777Z</time></trkpt><trkpt lat="44.0199636" lon="10.9224924"><ele>740.0</ele><time>2026-04-06T15:56:06.778Z</time></trkpt><trkpt lat="44.0201564" lon="10.9226203"><ele>740.0</ele><time>2026-04-06T15:56:07.776Z</time></trkpt><trkpt lat="44.0203345" lon="10.9227278"><ele>755.5</ele><time>2026-04-06T15:56:08.775Z</time></trkpt><trkpt lat="44.020571" lon="10.9228905"><ele>771.0</ele><time>2026-04-06T15:56:09.776Z</time></trkpt><trkpt lat="44.020732" lon="10.9230551"><ele>773.3333333333333</ele><time>2026-04-06T15:56:10.772Z</time></trkpt><trkpt lat="44.0209447" lon="10.9232011"><ele>775.6666666666666</ele><time>2026-04-06T15:56:11.776Z</time></trkpt><trkpt lat="44.021104" lon="10.9233686"><ele>778.0</ele><time>2026-04-06T15:56:12.78Z</time></trkpt><trkpt lat="44.0212764" lon="10.9236787"><ele>778.0</ele><time>2026-04-06T15:56:13.778Z</time></trkpt><trkpt lat="44.0214018" lon="10.9239582"><ele>778.0</ele><time>2026-04-06T15:56:14.777Z</time></trkpt><trkpt lat="44.0215721" lon="10.9242152"><ele>778.5</ele><time>2026-04-06T15:56:15.778Z</time></trkpt><trkpt lat="44.0217375" lon="10.9244326"><ele>779.0</ele><time>2026-04-06T15:56:16.775Z</time></trkpt><trkpt lat="44.0219022" lon="10.9246538"><ele>779.0</ele><time>2026-04-06T15:56:17.772Z</time></trkpt><trkpt lat="44.0220467" lon="10.9248707"><ele>779.0</ele><time>2026-04-06T15:56:18.771Z</time></trkpt><trkpt lat="44.0222238" lon="10.9250836"><ele>779.0</ele><time>2026-04-06T15:56:19.773Z</time></trkpt><trkpt lat="44.0223849" lon="10.9252983"><ele>779.3333333333334</ele><time>2026-04-06T15:56:20.779Z</time></trkpt><trkpt lat="44.0225537" lon="10.9254749"><ele>779.6666666666667</ele><time>2026-04-06T15:56:21.787Z</time></trkpt><trkpt lat="44.0227231" lon="10.9256584"><ele>780.0</ele><time>2026-04-06T15:56:22.775Z</time></trkpt><trkpt lat="44.0228786" lon="10.9258475"><ele>788.25</ele><time>2026-04-06T15:56:23.778Z</time></trkpt><trkpt lat="44.023004" lon="10.9259487"><ele>796.5</ele><time>2026-04-06T15:56:24.775Z</time></trkpt><trkpt lat="44.0230878" lon="10.9260695"><ele>804.75</ele><time>2026-04-06T15:56:25.774Z</time></trkpt><trkpt lat="44.0231772" lon="10.9261489"><ele>813.0</ele><time>2026-04-06T15:56:26.776Z</time></trkpt><trkpt lat="44.0232659" lon="10.9262503"><ele>807.8</ele><time>2026-04-06T15:56:27.778Z</time></trkpt><trkpt lat="44.02334" lon="10.9263826"><ele>802.5999999999999</ele><time>2026-04-06T15:56:28.78Z</time></trkpt><trkpt lat="44.0234251" lon="10.9263549"><ele>797.4000000000001</ele><time>2026-04-06T15:56:31.773Z</time></trkpt><trkpt lat="44.0234763" lon="10.9264291"><ele>792.2</ele><time>2026-04-06T15:56:35.771Z</time></trkpt><trkpt lat="44.0234141" lon="10.9263884"><ele>787.0</ele><time>2026-04-06T15:56:37.774Z</time></trkpt><trkpt lat="44.0235953" lon="10.9264319"><ele>787.0</ele><time>2026-04-06T15:57:05.776Z</time></trkpt><trkpt lat="44.0237604" lon="10.92657"><ele>787.0</ele><time>2026-04-06T15:57:06.773Z</time></trkpt><trkpt lat="44.0238839" lon="10.9266858"><ele>787.0</ele><time>2026-04-06T15:57:07.778Z</time></trkpt><trkpt lat="44.0240329" lon="10.9267598"><ele>788.6666666666666</ele><time>2026-04-06T15:57:08.779Z</time></trkpt><trkpt lat="44.0241642" lon="10.9268404"><ele>790.3333333333333</ele><time>2026-04-06T15:57:09.773Z</time></trkpt><trkpt lat="44.0243468" lon="10.9268981"><ele>792.0</ele><time>2026-04-06T15:57:10.776Z</time></trkpt><trkpt lat="44.0245001" lon="10.9269048"><ele>792.0</ele><time>2026-04-06T15:57:11.777Z</time></trkpt><trkpt lat="44.0246706" lon="10.9268721"><ele>792.0</ele><time>2026-04-06T15:57:12.792Z</time></trkpt><trkpt lat="44.0248522" lon="10.9269111"><ele>792.0</ele><time>2026-04-06T15:57:13.782Z</time></trkpt><trkpt lat="44.0250151" lon="10.9268693"><ele>790.6666666666667</ele><time>2026-04-06T15:57:14.783Z</time></trkpt><trkpt lat="44.0251807" lon="10.9268735"><ele>789.3333333333334</ele><time>2026-04-06T15:57:15.773Z</time></trkpt><trkpt lat="44.0253462" lon="10.9268482"><ele>788.0</ele><time>2026-04-06T15:57:16.784Z</time></trkpt><trkpt lat="44.0255348" lon="10.9268262"><ele>788.0</ele><time>2026-04-06T15:57:17.778Z</time></trkpt><trkpt lat="44.0257365" lon="10.9268187"><ele>788.0</ele><time>2026-04-06T15:57:18.777Z</time></trkpt><trkpt lat="44.0258905" lon="10.9268493"><ele>788.0</ele><time>2026-04-06T15:57:19.782Z</time></trkpt><trkpt lat="44.0260489" lon="10.9269429"><ele>787.3333333333334</ele><time>2026-04-06T15:57:20.782Z</time></trkpt><trkpt lat="44.0262124" lon="10.9270152"><ele>786.6666666666667</ele><time>2026-04-06T15:57:21.778Z</time></trkpt><trkpt lat="44.0263768" lon="10.9271572"><ele>786.0</ele><time>2026-04-06T15:57:22.776Z</time></trkpt><trkpt lat="44.026431" lon="10.9273024"><ele>786.0</ele><time>2026-04-06T15:57:23.783Z</time></trkpt><trkpt lat="44.0265182" lon="10.9274717"><ele>786.0</ele><time>2026-04-06T15:57:24.771Z</time></trkpt><trkpt lat="44.0266088" lon="10.9276353"><ele>786.0</ele><time>2026-04-06T15:57:25.772Z</time></trkpt><trkpt lat="44.0266886" lon="10.927802"><ele>786.0</ele><time>2026-04-06T15:57:26.779Z</time></trkpt><trkpt lat="44.0329435" lon="10.941023"><ele>795.6666666666667</ele><time>2026-04-06T15:58:19.77Z</time></trkpt><trkpt lat="44.0330136" lon="10.9412196"><ele>805.3333333333334</ele><time>2026-04-06T15:58:20.775Z</time></trkpt><trkpt lat="44.0331023" lon="10.9413756"><ele>815.0</ele><time>2026-04-06T15:58:21.776Z</time></trkpt><trkpt lat="44.0332628" lon="10.9415296"><ele>817.0</ele><time>2026-04-06T15:58:22.774Z</time></trkpt><trkpt lat="44.0333969" lon="10.9417081"><ele>819.0</ele><time>2026-04-06T15:58:23.771Z</time></trkpt><trkpt lat="44.0335126" lon="10.9419161"><ele>821.0</ele><time>2026-04-06T15:58:24.776Z</time></trkpt><trkpt lat="44.0336257" lon="10.9421498"><ele>821.0</ele><time>2026-04-06T15:58:25.777Z</time></trkpt><trkpt lat="44.0337557" lon="10.9423846"><ele>821.0</ele><time>2026-04-06T15:58:26.77Z</time></trkpt><trkpt lat="44.033894" lon="10.942623"><ele>821.0</ele><time>2026-04-06T15:58:27.773Z</time></trkpt><trkpt lat="44.034039" lon="10.9428741"><ele>807.5</ele><time>2026-04-06T15:58:28.774Z</time></trkpt><trkpt lat="44.0342069" lon="10.9430977"><ele>794.0</ele><time>2026-04-06T15:58:29.775Z</time></trkpt><trkpt lat="44.0343968" lon="10.9433003"><ele>791.0</ele><time>2026-04-06T15:58:30.775Z</time></trkpt><trkpt lat="44.0345908" lon="10.9435"><ele>788.0</ele><time>2026-04-06T15:58:31.775Z</time></trkpt><trkpt lat="44.0347675" lon="10.9437174"><ele>788.0</ele><time>2026-04-06T15:58:32.775Z</time></trkpt><trkpt lat="44.0349449" lon="10.9439387"><ele>788.0</ele><time>2026-04-06T15:58:33.769Z</time></trkpt><trkpt lat="44.035131" lon="10.944162"><ele>790.5</ele><time>2026-04-06T15:58:34.779Z</time></trkpt><trkpt lat="44.0352978" lon="10.944404"><ele>793.0</ele><time>2026-04-06T15:58:35.775Z</time></trkpt><trkpt lat="44.0354535" lon="10.9446538"><ele>793.0</ele><time>2026-04-06T15:58:36.781Z</time></trkpt><trkpt lat="44.0355915" lon="10.9449289"><ele>793.0</ele><time>2026-04-06T15:58:37.777Z</time></trkpt><trkpt lat="44.0357293" lon="10.9452101"><ele>788.5</ele><time>2026-04-06T15:58:38.775Z</time></trkpt><trkpt lat="44.0358565" lon="10.945482"><ele>784.0</ele><time>2026-04-06T15:58:39.777Z</time></trkpt><trkpt lat="44.0359979" lon="10.9457502"><ele>786.5</ele><time>2026-04-06T15:58:40.776Z</time></trkpt><trkpt lat="44.0361248" lon="10.946032"><ele>789.0</ele><time>2026-04-06T15:58:41.772Z</time></trkpt><trkpt lat="44.0362112" lon="10.946324"><ele>789.0</ele><time>2026-04-06T15:58:42.771Z</time></trkpt><trkpt lat="44.0363148" lon="10.9466191"><ele>789.0</ele><time>2026-04-06T15:58:43.774Z</time></trkpt><trkpt lat="44.0364373" lon="10.9468899"><ele>792.0</ele><time>2026-04-06T15:58:44.776Z</time></trkpt><trkpt lat="44.0365904" lon="10.947126"><ele>795.0</ele><time>2026-04-06T15:58:45.775Z</time></trkpt><trkpt lat="44.0367327" lon="10.9473574"><ele>798.0</ele><time>2026-04-06T15:58:46.774Z</time></trkpt><trkpt lat="44.036887" lon="10.9475781"><ele>798.6666666666667</ele><time>2026-04-06T15:58:47.777Z</time></trkpt><trkpt lat="44.0370394" lon="10.9477922"><ele>799.3333333333334</ele><time>2026-04-06T15:58:48.774Z</time></trkpt><trkpt lat="44.0371829" lon="10.9480141"><ele>800.0</ele><time>2026-04-06T15:58:49.778Z</time></trkpt><trkpt lat="44.0373187" lon="10.9482075"><ele>800.0</ele><time>2026-04-06T15:58:50.776Z</time></trkpt><trkpt lat="44.0374651" lon="10.9483651"><ele>800.0</ele><time>2026-04-06T15:58:51.775Z</time></trkpt><trkpt lat="44.0376332" lon="10.9485053"><ele>800.0</ele><time>2026-04-06T15:58:52.773Z</time></trkpt><trkpt lat="44.0378195" lon="10.9486319"><ele>797.0</ele><time>2026-04-06T15:58:53.775Z</time></trkpt><trkpt lat="44.0379911" lon="10.9487485"><ele>794.0</ele><time>2026-04-06T15:58:54.775Z</time></trkpt><trkpt lat="44.0381605" lon="10.9488815"><ele>791.0</ele><time>2026-04-06T15:58:55.777Z</time></trkpt><trkpt lat="44.0383295" lon="10.9490262"><ele>791.0</ele><time>2026-04-06T15:58:56.773Z</time></trkpt><trkpt lat="44.0384893" lon="10.9491918"><ele>791.0</ele><time>2026-04-06T15:58:57.777Z</time></trkpt><trkpt lat="44.0386539" lon="10.9493505"><ele>791.0</ele><time>2026-04-06T15:58:58.772Z</time></trkpt><trkpt lat="44.0388305" lon="10.9495177"><ele>791.0</ele><time>2026-04-06T15:58:59.775Z</time></trkpt><trkpt lat="44.0390335" lon="10.9497061"><ele>791.0</ele><time>2026-04-06T15:59:00.771Z</time></trkpt><trkpt lat="44.0392295" lon="10.949903"><ele>786.5</ele><time>2026-04-06T15:59:01.772Z</time></trkpt><trkpt lat="44.0394735" lon="10.9500901"><ele>782.0</ele><time>2026-04-06T15:59:02.773Z</time></trkpt><trkpt lat="44.0396998" lon="10.9502916"><ele>782.0</ele><time>2026-04-06T15:59:03.774Z</time></trkpt><trkpt lat="44.0399176" lon="10.9504828"><ele>782.0</ele><time>2026-04-06T15:59:04.773Z</time></trkpt><trkpt lat="44.0401281" lon="10.9506723"><ele>774.5</ele><time>2026-04-06T15:59:05.773Z</time></trkpt><trkpt lat="44.040329" lon="10.9508529"><ele>767.0</ele><time>2026-04-06T15:59:06.778Z</time></trkpt><trkpt lat="44.0405439" lon="10.9510079"><ele>769.5</ele><time>2026-04-06T15:59:07.773Z</time></trkpt><trkpt lat="44.0407927" lon="10.9511366"><ele>772.0</ele><time>2026-04-06T15:59:08.779Z</time></trkpt><trkpt lat="44.0410672" lon="10.9512432"><ele>772.0</ele><time>2026-04-06T15:59:09.776Z</time></trkpt><trkpt lat="44.041194" lon="10.9513796"><ele>772.0</ele><time>2026-04-06T15:59:10.771Z</time></trkpt><trkpt lat="44.0413215" lon="10.9515199"><ele>772.0</ele><time>2026-04-06T15:59:11.774Z</time></trkpt><trkpt lat="44.0415362" lon="10.9516694"><ele>769.6666666666666</ele><time>2026-04-06T15:59:12.775Z</time></trkpt><trkpt lat="44.0416653" lon="10.9518623"><ele>767.3333333333333</ele><time>2026-04-06T15:59:13.777Z</time></trkpt><trkpt lat="44.0418466" lon="10.9519806"><ele>765.0</ele><time>2026-04-06T15:59:14.763Z</time></trkpt><trkpt lat="44.0419976" lon="10.9521183"><ele>765.0</ele><time>2026-04-06T15:59:15.781Z</time></trkpt><trkpt lat="44.0421823" lon="10.9522315"><ele>765.0</ele><time>2026-04-06T15:59:16.779Z</time></trkpt><trkpt lat="44.0423954" lon="10.9523077"><ele>765.0</ele><time>2026-04-06T15:59:17.768Z</time></trkpt><trkpt lat="44.0426003" lon="10.9523976"><ele>764.0</ele><time>2026-04-06T15:59:18.771Z</time></trkpt><trkpt lat="44.0427936" lon="10.9524763"><ele>763.0</ele><time>2026-04-06T15:59:19.774Z</time></trkpt><trkpt lat="44.042992" lon="10.9525529"><ele>762.0</ele><time>2026-04-06T15:59:20.779Z</time></trkpt><trkpt lat="44.0431877" lon="10.9526246"><ele>762.3333333333334</ele><time>2026-04-06T15:59:21.778Z</time></trkpt><trkpt lat="44.043391" lon="10.9526932"><ele>762.6666666666667</ele><time>2026-04-06T15:59:22.773Z</time></trkpt><trkpt lat="44.0435999" lon="10.9527671"><ele>763.0</ele><time>2026-04-06T15:59:23.769Z</time></trkpt><trkpt lat="44.0437698" lon="10.952916"><ele>763.0</ele><time>2026-04-06T15:59:24.775Z</time></trkpt><trkpt lat="44.0439337" lon="10.9530825"><ele>763.0</ele><time>2026-04-06T15:59:25.777Z</time></trkpt><trkpt lat="44.0441009" lon="10.953213"><ele>763.0</ele><time>2026-04-06T15:59:26.778Z</time></trkpt><trkpt lat="44.0442739" lon="10.9532869"><ele>762.0</ele><time>2026-04-06T15:59:27.775Z</time></trkpt><trkpt lat="44.0444657" lon="10.953338"><ele>761.0</ele><time>2026-04-06T15:59:28.772Z</time></trkpt><trkpt lat="44.0446477" lon="10.9533571"><ele>760.0</ele><time>2026-04-06T15:59:29.772Z</time></trkpt><trkpt lat="44.0448203" lon="10.9534069"><ele>763.0</ele><time>2026-04-06T15:59:30.779Z</time></trkpt><trkpt lat="44.045006" lon="10.9534676"><ele>766.0</ele><time>2026-04-06T15:59:31.775Z</time></trkpt><trkpt lat="44.0451526" lon="10.9535307"><ele>769.0</ele><time>2026-04-06T15:59:32.774Z</time></trkpt><trkpt lat="44.0454128" lon="10.9537562"><ele>769.0</ele><time>2026-04-06T15:59:33.787Z</time></trkpt><trkpt lat="44.0456274" lon="10.9539478"><ele>769.0</ele><time>2026-04-06T15:59:34.774Z</time></trkpt><trkpt lat="44.0458586" lon="10.9540707"><ele>768.0</ele><time>2026-04-06T15:59:35.773Z</time></trkpt><trkpt lat="44.0460612" lon="10.9542602"><ele>767.0</ele><time>2026-04-06T15:59:36.77Z</time></trkpt><trkpt lat="44.0462473" lon="10.9544294"><ele>767.0</ele><time>2026-04-06T15:59:37.774Z</time></trkpt><trkpt lat="44.0464158" lon="10.9545985"><ele>767.0</ele><time>2026-04-06T15:59:38.777Z</time></trkpt><trkpt lat="44.0465813" lon="10.9547575"><ele>767.0</ele><time>2026-04-06T15:59:39.776Z</time></trkpt><trkpt lat="44.0467633" lon="10.9549231"><ele>770.75</ele><time>2026-04-06T15:59:40.771Z</time></trkpt><trkpt lat="44.0469313" lon="10.9550457"><ele>774.5</ele><time>2026-04-06T15:59:41.771Z</time></trkpt><trkpt lat="44.0470475" lon="10.9551946"><ele>778.25</ele><time>2026-04-06T15:59:42.774Z</time></trkpt><trkpt lat="44.0471388" lon="10.9552353"><ele>782.0</ele><time>2026-04-06T15:59:43.775Z</time></trkpt><trkpt lat="44.0473375" lon="10.9553002"><ele>776.3333333333334</ele><time>2026-04-06T15:59:44.774Z</time></trkpt><trkpt lat="44.047505" lon="10.9553072"><ele>770.6666666666667</ele><time>2026-04-06T15:59:45.77Z</time></trkpt><trkpt lat="44.0476671" lon="10.9553355"><ele>765.0</ele><time>2026-04-06T15:59:46.774Z</time></trkpt><trkpt lat="44.0478804" lon="10.9553606"><ele>765.0</ele><time>2026-04-06T15:59:47.77Z</time></trkpt><trkpt lat="44.0480617" lon="10.9554148"><ele>765.0</ele><time>2026-04-06T15:59:48.773Z</time></trkpt><trkpt lat="44.0482526" lon="10.9555269"><ele>765.0</ele><time>2026-04-06T15:59:49.778Z</time></trkpt><trkpt lat="44.0485282" lon="10.9556728"><ele>769.0</ele><time>2026-04-06T15:59:50.769Z</time></trkpt><trkpt lat="44.0487399" lon="10.9557581"><ele>773.0</ele><time>2026-04-06T15:59:51.777Z</time></trkpt><trkpt lat="44.0489746" lon="10.9559586"><ele>759.5</ele><time>2026-04-06T15:59:52.777Z</time></trkpt><trkpt lat="44.0492393" lon="10.9560949"><ele>746.0</ele><time>2026-04-06T15:59:53.772Z</time></trkpt><trkpt lat="44.0493875" lon="10.9562047"><ele>746.0</ele><time>2026-04-06T15:59:54.769Z</time></trkpt><trkpt lat="44.0495659" lon="10.9562703"><ele>746.0</ele><time>2026-04-06T15:59:55.774Z</time></trkpt><trkpt lat="44.0497322" lon="10.956305"><ele>746.0</ele><time>2026-04-06T15:59:56.777Z</time></trkpt><trkpt lat="44.0499257" lon="10.9563174"><ele>745.3333333333333</ele><time>2026-04-06T15:59:57.768Z</time></trkpt><trkpt lat="44.0501412" lon="10.9562903"><ele>744.6666666666666</ele><time>2026-04-06T15:59:58.773Z</time></trkpt><trkpt lat="44.0503382" lon="10.9562799"><ele>744.0</ele><time>2026-04-06T15:59:59.772Z</time></trkpt><trkpt lat="44.0505156" lon="10.9562754"><ele>744.0</ele><time>2026-04-06T16:00:00.779Z</time></trkpt><trkpt lat="44.0506918" lon="10.9562626"><ele>744.0</ele><time>2026-04-06T16:00:01.771Z</time></trkpt><trkpt lat="44.050869" lon="10.9562695"><ele>744.0</ele><time>2026-04-06T16:00:02.799Z</time></trkpt><trkpt lat="44.0510394" lon="10.9562808"><ele>742.0</ele><time>2026-04-06T16:00:03.769Z</time></trkpt><trkpt lat="44.0511808" lon="10.9563994"><ele>740.0</ele><time>2026-04-06T16:00:04.77Z</time></trkpt><trkpt lat="44.0513081" lon="10.9564942"><ele>738.0</ele><time>2026-04-06T16:00:05.775Z</time></trkpt><trkpt lat="44.0514375" lon="10.9565834"><ele>738.0</ele><time>2026-04-06T16:00:06.777Z</time></trkpt><trkpt lat="44.0515433" lon="10.9566293"><ele>738.0</ele><time>2026-04-06T16:00:07.771Z</time></trkpt><trkpt lat="44.0516293" lon="10.956649"><ele>738.0</ele><time>2026-04-06T16:00:08.772Z</time></trkpt><trkpt lat="44.0517593" lon="10.9566868"><ele>738.0</ele><time>2026-04-06T16:00:10.768Z</time></trkpt><trkpt lat="44.0518531" lon="10.9567832"><ele>738.0</ele><time>2026-04-06T16:00:11.772Z</time></trkpt><trkpt lat="44.051942" lon="10.9568183"><ele>737.6666666666666</ele><time>2026-04-06T16:00:12.775Z</time></trkpt><trkpt lat="44.0520365" lon="10.9569647"><ele>737.3333333333333</ele><time>2026-04-06T16:00:13.771Z</time></trkpt><trkpt lat="44.052139" lon="10.957091"><ele>737.0</ele><time>2026-04-06T16:00:14.766Z</time></trkpt><trkpt lat="44.0522911" lon="10.9572674"><ele>737.0</ele><time>2026-04-06T16:00:15.771Z</time></trkpt><trkpt lat="44.0524037" lon="10.9573561"><ele>737.0</ele><time>2026-04-06T16:00:16.768Z</time></trkpt><trkpt lat="44.0526579" lon="10.9575522"><ele>737.0</ele><time>2026-04-06T16:00:17.77Z</time></trkpt><trkpt lat="44.0528447" lon="10.9576386"><ele>735.3333333333333</ele><time>2026-04-06T16:00:18.772Z</time></trkpt><trkpt lat="44.0529426" lon="10.9578531"><ele>733.6666666666666</ele><time>2026-04-06T16:00:19.774Z</time></trkpt><trkpt lat="44.0530778" lon="10.9580302"><ele>732.0</ele><time>2026-04-06T16:00:20.771Z</time></trkpt><trkpt lat="44.0532083" lon="10.9581919"><ele>732.0</ele><time>2026-04-06T16:00:21.77Z</time></trkpt><trkpt lat="44.0533121" lon="10.958368"><ele>732.0</ele><time>2026-04-06T16:00:22.774Z</time></trkpt><trkpt lat="44.0534575" lon="10.958502"><ele>732.0</ele><time>2026-04-06T16:00:23.782Z</time></trkpt><trkpt lat="44.0535884" lon="10.9586498"><ele>731.75</ele><time>2026-04-06T16:00:24.77Z</time></trkpt><trkpt lat="44.053733" lon="10.9587444"><ele>731.5</ele><time>2026-04-06T16:00:25.768Z</time></trkpt><trkpt lat="44.0538401" lon="10.9588117"><ele>731.25</ele><time>2026-04-06T16:00:26.771Z</time></trkpt><trkpt lat="44.0539718" lon="10.9588438"><ele>731.0</ele><time>2026-04-06T16:00:27.78Z</time></trkpt><trkpt lat="44.0540972" lon="10.9588458"><ele>729.0</ele><time>2026-04-06T16:00:28.776Z</time></trkpt><trkpt lat="44.054236" lon="10.9588467"><ele>727.0</ele><time>2026-04-06T16:00:29.777Z</time></trkpt><trkpt lat="44.0543759" lon="10.9587598"><ele>725.0</ele><time>2026-04-06T16:00:30.771Z</time></trkpt><trkpt lat="44.0544978" lon="10.9587091"><ele>723.0</ele><time>2026-04-06T16:00:31.772Z</time></trkpt><trkpt lat="44.0546169" lon="10.9586191"><ele>723.0</ele><time>2026-04-06T16:00:32.772Z</time></trkpt><trkpt lat="44.0546946" lon="10.9584257"><ele>723.0</ele><time>2026-04-06T16:00:33.771Z</time></trkpt><trkpt lat="44.054781" lon="10.9583096"><ele>723.0</ele><time>2026-04-06T16:00:34.773Z</time></trkpt><trkpt lat="44.0548648" lon="10.9581966"><ele>723.0</ele><time>2026-04-06T16:00:35.772Z</time></trkpt><trkpt lat="44.0549374" lon="10.9581049"><ele>723.0</ele><time>2026-04-06T16:00:36.771Z</time></trkpt><trkpt lat="44.0550359" lon="10.9579717"><ele>723.0</ele><time>2026-04-06T16:00:37.771Z</time></trkpt><trkpt lat="44.0551462" lon="10.9579973"><ele>723.0</ele><time>2026-04-06T16:00:38.772Z</time></trkpt><trkpt lat="44.0552876" lon="10.9579687"><ele>723.0</ele><time>2026-04-06T16:00:39.773Z</time></trkpt><trkpt lat="44.0554217" lon="10.9579401"><ele>723.0</ele><time>2026-04-06T16:00:40.772Z</time></trkpt><trkpt lat="44.0555705" lon="10.9579264"><ele>723.0</ele><time>2026-04-06T16:00:41.772Z</time></trkpt><trkpt lat="44.0557122" lon="10.9579346"><ele>723.0</ele><time>2026-04-06T16:00:42.77Z</time></trkpt><trkpt lat="44.0558444" lon="10.9579365"><ele>723.0</ele><time>2026-04-06T16:00:43.77Z</time></trkpt><trkpt lat="44.0559469" lon="10.9580202"><ele>722.0</ele><time>2026-04-06T16:00:44.774Z</time></trkpt><trkpt lat="44.0561082" lon="10.9581973"><ele>721.0</ele><time>2026-04-06T16:00:45.777Z</time></trkpt><trkpt lat="44.0562511" lon="10.9583418"><ele>720.0</ele><time>2026-04-06T16:00:46.772Z</time></trkpt><trkpt lat="44.0563914" lon="10.958473"><ele>717.0</ele><time>2026-04-06T16:00:47.773Z</time></trkpt><trkpt lat="44.0565253" lon="10.958645"><ele>714.0</ele><time>2026-04-06T16:00:48.769Z</time></trkpt><trkpt lat="44.0565412" lon="10.9588447"><ele>711.0</ele><time>2026-04-06T16:00:49.776Z</time></trkpt><trkpt lat="44.0566395" lon="10.9590525"><ele>715.6666666666666</ele><time>2026-04-06T16:00:50.773Z</time></trkpt><trkpt lat="44.0567351" lon="10.9592746"><ele>720.3333333333333</ele><time>2026-04-06T16:00:51.77Z</time></trkpt><trkpt lat="44.0568353" lon="10.9594304"><ele>725.0</ele><time>2026-04-06T16:00:52.774Z</time></trkpt><trkpt lat="44.0569225" lon="10.9595936"><ele>725.0</ele><time>2026-04-06T16:00:53.77Z</time></trkpt><trkpt lat="44.0570198" lon="10.9597404"><ele>725.0</ele><time>2026-04-06T16:00:54.77Z</time></trkpt><trkpt lat="44.057138" lon="10.9598746"><ele>725.0</ele><time>2026-04-06T16:00:55.769Z</time></trkpt><trkpt lat="44.0572803" lon="10.9600208"><ele>720.3333333333333</ele><time>2026-04-06T16:00:56.775Z</time></trkpt><trkpt lat="44.0574245" lon="10.9601581"><ele>715.6666666666666</ele><time>2026-04-06T16:00:57.769Z</time></trkpt><trkpt lat="44.0575794" lon="10.9603508"><ele>711.0</ele><time>2026-04-06T16:00:58.771Z</time></trkpt><trkpt lat="44.057651" lon="10.9604991"><ele>711.0</ele><time>2026-04-06T16:00:59.772Z</time></trkpt><trkpt lat="44.0577965" lon="10.9605556"><ele>711.0</ele><time>2026-04-06T16:01:00.774Z</time></trkpt><trkpt lat="44.0579325" lon="10.9605768"><ele>711.0</ele><time>2026-04-06T16:01:01.774Z</time></trkpt><trkpt lat="44.0580465" lon="10.960643"><ele>711.0</ele><time>2026-04-06T16:01:02.772Z</time></trkpt><trkpt lat="44.0581912" lon="10.9607071"><ele>708.25</ele><time>2026-04-06T16:01:03.773Z</time></trkpt><trkpt lat="44.0582929" lon="10.960825"><ele>705.5</ele><time>2026-04-06T16:01:04.769Z</time></trkpt><trkpt lat="44.058394" lon="10.96093"><ele>702.75</ele><time>2026-04-06T16:01:05.773Z</time></trkpt><trkpt lat="44.0584623" lon="10.9610708"><ele>700.0</ele><time>2026-04-06T16:01:06.774Z</time></trkpt><trkpt lat="44.0585699" lon="10.9612023"><ele>698.5</ele><time>2026-04-06T16:01:07.766Z</time></trkpt><trkpt lat="44.0586416" lon="10.9613764"><ele>697.0</ele><time>2026-04-06T16:01:08.771Z</time></trkpt><trkpt lat="44.0587079" lon="10.9615492"><ele>695.5</ele><time>2026-04-06T16:01:09.772Z</time></trkpt><trkpt lat="44.0587508" lon="10.9617107"><ele>694.0</ele><time>2026-04-06T16:01:10.769Z</time></trkpt><trkpt lat="44.0587954" lon="10.9618456"><ele>692.6</ele><time>2026-04-06T16:01:11.766Z</time></trkpt><trkpt lat="44.0588448" lon="10.9620119"><ele>691.2</ele><time>2026-04-06T16:01:12.77Z</time></trkpt><trkpt lat="44.0588791" lon="10.9621373"><ele>689.8000000000001</ele><time>2026-04-06T16:01:13.771Z</time></trkpt><trkpt lat="44.0589291" lon="10.9622474"><ele>688.4000000000001</ele><time>2026-04-06T16:01:14.772Z</time></trkpt><trkpt lat="44.0590019" lon="10.9622901"><ele>687.0</ele><time>2026-04-06T16:01:15.766Z</time></trkpt><trkpt lat="44.0591985" lon="10.9622784"><ele>687.0</ele><time>2026-04-06T16:01:16.773Z</time></trkpt><trkpt lat="44.0593162" lon="10.9622458"><ele>687.0</ele><time>2026-04-06T16:01:17.775Z</time></trkpt><trkpt lat="44.0594468" lon="10.9622489"><ele>687.0</ele><time>2026-04-06T16:01:18.774Z</time></trkpt><trkpt lat="44.0595472" lon="10.9622519"><ele>687.0</ele><time>2026-04-06T16:01:19.769Z</time></trkpt><trkpt lat="44.0596217" lon="10.962257"><ele>687.0</ele><time>2026-04-06T16:01:20.776Z</time></trkpt><trkpt lat="44.0596733" lon="10.9623144"><ele>687.0</ele><time>2026-04-06T16:01:21.766Z</time></trkpt><trkpt lat="44.0597508" lon="10.962429"><ele>687.0</ele><time>2026-04-06T16:01:22.773Z</time></trkpt><trkpt lat="44.0598522" lon="10.9625812"><ele>687.0</ele><time>2026-04-06T16:01:23.768Z</time></trkpt><trkpt lat="44.0599604" lon="10.9627222"><ele>687.0</ele><time>2026-04-06T16:01:24.769Z</time></trkpt><trkpt lat="44.0600495" lon="10.9628756"><ele>688.6666666666666</ele><time>2026-04-06T16:01:25.771Z</time></trkpt><trkpt lat="44.0601455" lon="10.9630548"><ele>690.3333333333333</ele><time>2026-04-06T16:01:26.769Z</time></trkpt><trkpt lat="44.0602071" lon="10.9632605"><ele>692.0</ele><time>2026-04-06T16:01:27.773Z</time></trkpt><trkpt lat="44.0602754" lon="10.9634784"><ele>697.3333333333333</ele><time>2026-04-06T16:01:28.77Z</time></trkpt><trkpt lat="44.0603662" lon="10.9637053"><ele>702.6666666666666</ele><time>2026-04-06T16:01:29.771Z</time></trkpt><trkpt lat="44.0604347" lon="10.9639398"><ele>708.0</ele><time>2026-04-06T16:01:30.775Z</time></trkpt><trkpt lat="44.0604985" lon="10.9641767"><ele>713.3333333333334</ele><time>2026-04-06T16:01:31.768Z</time></trkpt><trkpt lat="44.0605909" lon="10.9644007"><ele>718.6666666666667</ele><time>2026-04-06T16:01:32.779Z</time></trkpt><trkpt lat="44.060676" lon="10.9645986"><ele>724.0</ele><time>2026-04-06T16:01:33.771Z</time></trkpt><trkpt lat="44.0607438" lon="10.9648537"><ele>718.25</ele><time>2026-04-06T16:01:34.776Z</time></trkpt><trkpt lat="44.0608679" lon="10.9650344"><ele>712.5</ele><time>2026-04-06T16:01:35.774Z</time></trkpt><trkpt lat="44.0609347" lon="10.9651625"><ele>706.75</ele><time>2026-04-06T16:01:36.771Z</time></trkpt><trkpt lat="44.0609806" lon="10.9653663"><ele>701.0</ele><time>2026-04-06T16:01:37.77Z</time></trkpt><trkpt lat="44.0610587" lon="10.965479"><ele>701.0</ele><time>2026-04-06T16:01:38.77Z</time></trkpt><trkpt lat="44.0611505" lon="10.9656175"><ele>701.0</ele><time>2026-04-06T16:01:39.776Z</time></trkpt><trkpt lat="44.0612993" lon="10.9657225"><ele>701.0</ele><time>2026-04-06T16:01:40.769Z</time></trkpt><trkpt lat="44.0614212" lon="10.9658661"><ele>710.3333333333333</ele><time>2026-04-06T16:01:41.77Z</time></trkpt><trkpt lat="44.0615563" lon="10.965995"><ele>719.6666666666666</ele><time>2026-04-06T16:01:42.777Z</time></trkpt><trkpt lat="44.0616331" lon="10.966187"><ele>729.0</ele><time>2026-04-06T16:01:43.771Z</time></trkpt><trkpt lat="44.0616964" lon="10.9663815"><ele>716.6666666666666</ele><time>2026-04-06T16:01:44.772Z</time></trkpt><trkpt lat="44.061835" lon="10.9665652"><ele>704.3333333333333</ele><time>2026-04-06T16:01:45.772Z</time></trkpt><trkpt lat="44.0620075" lon="10.9667267"><ele>692.0</ele><time>2026-04-06T16:01:46.77Z</time></trkpt><trkpt lat="44.0620718" lon="10.9669253"><ele>692.0</ele><time>2026-04-06T16:01:47.775Z</time></trkpt><trkpt lat="44.0621582" lon="10.9671254"><ele>692.0</ele><time>2026-04-06T16:01:48.775Z</time></trkpt><trkpt lat="44.0622353" lon="10.9673215"><ele>692.0</ele><time>2026-04-06T16:01:49.771Z</time></trkpt><trkpt lat="44.0623381" lon="10.9675056"><ele>683.3333333333333</ele><time>2026-04-06T16:01:50.772Z</time></trkpt><trkpt lat="44.0624521" lon="10.9676899"><ele>674.6666666666666</ele><time>2026-04-06T16:01:51.776Z</time></trkpt><trkpt lat="44.0625435" lon="10.9678858"><ele>666.0</ele><time>2026-04-06T16:01:52.776Z</time></trkpt><trkpt lat="44.0626315" lon="10.96809"><ele>666.0</ele><time>2026-04-06T16:01:53.776Z</time></trkpt><trkpt lat="44.0627292" lon="10.9682759"><ele>666.0</ele><time>2026-04-06T16:01:54.772Z</time></trkpt><trkpt lat="44.0628155" lon="10.9684729"><ele>666.0</ele><time>2026-04-06T16:01:55.775Z</time></trkpt><trkpt lat="44.0629393" lon="10.9686394"><ele>669.6666666666666</ele><time>2026-04-06T16:01:56.772Z</time></trkpt><trkpt lat="44.0630608" lon="10.968812"><ele>673.3333333333333</ele><time>2026-04-06T16:01:57.775Z</time></trkpt><trkpt lat="44.0631553" lon="10.9689993"><ele>677.0</ele><time>2026-04-06T16:01:58.77Z</time></trkpt><trkpt lat="44.0632466" lon="10.9691849"><ele>674.5</ele><time>2026-04-06T16:01:59.775Z</time></trkpt><trkpt lat="44.0633388" lon="10.9693527"><ele>672.0</ele><time>2026-04-06T16:02:00.771Z</time></trkpt><trkpt lat="44.0634356" lon="10.9695104"><ele>669.5</ele><time>2026-04-06T16:02:01.772Z</time></trkpt><trkpt lat="44.0635175" lon="10.9696814"><ele>667.0</ele><time>2026-04-06T16:02:02.771Z</time></trkpt><trkpt lat="44.0635988" lon="10.9698216"><ele>667.0</ele><time>2026-04-06T16:02:03.772Z</time></trkpt><trkpt lat="44.0637123" lon="10.9699304"><ele>667.0</ele><time>2026-04-06T16:02:04.772Z</time></trkpt><trkpt lat="44.0638176" lon="10.9699999"><ele>667.0</ele><time>2026-04-06T16:02:05.774Z</time></trkpt><trkpt lat="44.0639658" lon="10.970066"><ele>667.0</ele><time>2026-04-06T16:02:06.773Z</time></trkpt><trkpt lat="44.0641302" lon="10.9700919"><ele>669.3333333333334</ele><time>2026-04-06T16:02:07.769Z</time></trkpt><trkpt lat="44.0643534" lon="10.9701332"><ele>671.6666666666666</ele><time>2026-04-06T16:02:08.773Z</time></trkpt><trkpt lat="44.0645197" lon="10.970186"><ele>674.0</ele><time>2026-04-06T16:02:09.773Z</time></trkpt><trkpt lat="44.0646951" lon="10.9702716"><ele>674.0</ele><time>2026-04-06T16:02:10.77Z</time></trkpt><trkpt lat="44.0648746" lon="10.9703484"><ele>674.0</ele><time>2026-04-06T16:02:11.775Z</time></trkpt><trkpt lat="44.0650592" lon="10.9704328"><ele>674.0</ele><time>2026-04-06T16:02:12.774Z</time></trkpt><trkpt lat="44.065215" lon="10.9705785"><ele>675.3333333333333</ele><time>2026-04-06T16:02:13.772Z</time></trkpt><trkpt lat="44.0653603" lon="10.9707481"><ele>676.6666666666666</ele><time>2026-04-06T16:02:14.77Z</time></trkpt><trkpt lat="44.0655026" lon="10.9708902"><ele>678.0</ele><time>2026-04-06T16:02:15.772Z</time></trkpt><trkpt lat="44.0656402" lon="10.9710543"><ele>678.0</ele><time>2026-04-06T16:02:16.774Z</time></trkpt><trkpt lat="44.0657586" lon="10.9712774"><ele>678.0</ele><time>2026-04-06T16:02:17.772Z</time></trkpt><trkpt lat="44.0658571" lon="10.9714972"><ele>678.0</ele><time>2026-04-06T16:02:18.77Z</time></trkpt><trkpt lat="44.0659317" lon="10.9716969"><ele>671.6666666666666</ele><time>2026-04-06T16:02:19.771Z</time></trkpt><trkpt lat="44.0660182" lon="10.9719045"><ele>665.3333333333333</ele><time>2026-04-06T16:02:20.771Z</time></trkpt><trkpt lat="44.0660876" lon="10.9720911"><ele>659.0</ele><time>2026-04-06T16:02:21.772Z</time></trkpt><trkpt lat="44.0661637" lon="10.9722864"><ele>659.0</ele><time>2026-04-06T16:02:22.771Z</time></trkpt><trkpt lat="44.0662347" lon="10.9724706"><ele>659.0</ele><time>2026-04-06T16:02:23.771Z</time></trkpt><trkpt lat="44.0663131" lon="10.9726163"><ele>659.0</ele><time>2026-04-06T16:02:24.773Z</time></trkpt><trkpt lat="44.0664235" lon="10.9727533"><ele>659.0</ele><time>2026-04-06T16:02:25.771Z</time></trkpt><trkpt lat="44.0665156" lon="10.9728352"><ele>659.0</ele><time>2026-04-06T16:02:26.77Z</time></trkpt><trkpt lat="44.066655" lon="10.972938"><ele>659.0</ele><time>2026-04-06T16:02:27.776Z</time></trkpt><trkpt lat="44.0667875" lon="10.9730463"><ele>659.0</ele><time>2026-04-06T16:02:28.778Z</time></trkpt><trkpt lat="44.0669339" lon="10.9731239"><ele>659.0</ele><time>2026-04-06T16:02:29.775Z</time></trkpt><trkpt lat="44.0670849" lon="10.9731629"><ele>659.0</ele><time>2026-04-06T16:02:30.773Z</time></trkpt><trkpt lat="44.0672348" lon="10.9731877"><ele>659.0</ele><time>2026-04-06T16:02:31.77Z</time></trkpt><trkpt lat="44.0673824" lon="10.9731866"><ele>655.25</ele><time>2026-04-06T16:02:32.771Z</time></trkpt><trkpt lat="44.0675291" lon="10.9731525"><ele>651.5</ele><time>2026-04-06T16:02:33.77Z</time></trkpt><trkpt lat="44.067637" lon="10.9731032"><ele>647.75</ele><time>2026-04-06T16:02:34.769Z</time></trkpt><trkpt lat="44.0677785" lon="10.9730553"><ele>644.0</ele><time>2026-04-06T16:02:35.771Z</time></trkpt><trkpt lat="44.0678882" lon="10.9730281"><ele>644.0</ele><time>2026-04-06T16:02:36.77Z</time></trkpt><trkpt lat="44.0679847" lon="10.9729943"><ele>644.0</ele><time>2026-04-06T16:02:37.768Z</time></trkpt><trkpt lat="44.068085" lon="10.9730117"><ele>644.0</ele><time>2026-04-06T16:02:38.773Z</time></trkpt><trkpt lat="44.0681711" lon="10.9730684"><ele>644.0</ele><time>2026-04-06T16:02:39.766Z</time></trkpt><trkpt lat="44.0682595" lon="10.9731006"><ele>644.0</ele><time>2026-04-06T16:02:40.769Z</time></trkpt><trkpt lat="44.068372" lon="10.9731736"><ele>643.5</ele><time>2026-04-06T16:02:41.775Z</time></trkpt><trkpt lat="44.0684888" lon="10.9731984"><ele>643.0</ele><time>2026-04-06T16:02:42.771Z</time></trkpt><trkpt lat="44.0685957" lon="10.973249"><ele>642.5</ele><time>2026-04-06T16:02:43.784Z</time></trkpt><trkpt lat="44.0686865" lon="10.9733178"><ele>642.0</ele><time>2026-04-06T16:02:44.769Z</time></trkpt><trkpt lat="44.0688129" lon="10.9733817"><ele>641.2</ele><time>2026-04-06T16:02:45.776Z</time></trkpt><trkpt lat="44.0688917" lon="10.9734591"><ele>640.4000000000001</ele><time>2026-04-06T16:02:46.77Z</time></trkpt><trkpt lat="44.0689911" lon="10.9735423"><ele>639.5999999999999</ele><time>2026-04-06T16:02:47.771Z</time></trkpt><trkpt lat="44.069079" lon="10.9736273"><ele>638.8</ele><time>2026-04-06T16:02:48.77Z</time></trkpt><trkpt lat="44.0691398" lon="10.9737564"><ele>638.0</ele><time>2026-04-06T16:02:49.771Z</time></trkpt><trkpt lat="44.06921" lon="10.9738694"><ele>638.0</ele><time>2026-04-06T16:02:50.776Z</time></trkpt><trkpt lat="44.0692945" lon="10.9739737"><ele>638.0</ele><time>2026-04-06T16:02:51.769Z</time></trkpt><trkpt lat="44.0693642" lon="10.9741043"><ele>638.0</ele><time>2026-04-06T16:02:52.776Z</time></trkpt><trkpt lat="44.0694573" lon="10.9742411"><ele>638.0</ele><time>2026-04-06T16:02:53.775Z</time></trkpt><trkpt lat="44.0695395" lon="10.9743722"><ele>636.75</ele><time>2026-04-06T16:02:54.772Z</time></trkpt><trkpt lat="44.0696368" lon="10.9745222"><ele>635.5</ele><time>2026-04-06T16:02:55.774Z</time></trkpt><trkpt lat="44.0697366" lon="10.9746511"><ele>634.25</ele><time>2026-04-06T16:02:56.772Z</time></trkpt><trkpt lat="44.0698525" lon="10.9748049"><ele>633.0</ele><time>2026-04-06T16:02:57.771Z</time></trkpt><trkpt lat="44.0699848" lon="10.974938"><ele>633.6666666666666</ele><time>2026-04-06T16:02:58.774Z</time></trkpt><trkpt lat="44.0701341" lon="10.9750731"><ele>634.3333333333333</ele><time>2026-04-06T16:02:59.774Z</time></trkpt><trkpt lat="44.0702964" lon="10.9752207"><ele>635.0</ele><time>2026-04-06T16:03:00.77Z</time></trkpt><trkpt lat="44.0704296" lon="10.975388"><ele>635.0</ele><time>2026-04-06T16:03:01.77Z</time></trkpt><trkpt lat="44.0705477" lon="10.9755203"><ele>635.0</ele><time>2026-04-06T16:03:02.771Z</time></trkpt><trkpt lat="44.0706662" lon="10.9756333"><ele>635.0</ele><time>2026-04-06T16:03:03.774Z</time></trkpt><trkpt lat="44.0707838" lon="10.9757487"><ele>635.0</ele><time>2026-04-06T16:03:04.774Z</time></trkpt><trkpt lat="44.0708753" lon="10.9758731"><ele>634.0</ele><time>2026-04-06T16:03:05.777Z</time></trkpt><trkpt lat="44.07097" lon="10.9759937"><ele>633.0</ele><time>2026-04-06T16:03:06.775Z</time></trkpt><trkpt lat="44.0710543" lon="10.9761181"><ele>632.0</ele><time>2026-04-06T16:03:07.77Z</time></trkpt><trkpt lat="44.07114" lon="10.9762561"><ele>631.0</ele><time>2026-04-06T16:03:08.772Z</time></trkpt><trkpt lat="44.0712052" lon="10.9764112"><ele>631.0</ele><time>2026-04-06T16:03:09.771Z</time></trkpt><trkpt lat="44.0712099" lon="10.9765689"><ele>631.0</ele><time>2026-04-06T16:03:10.764Z</time></trkpt><trkpt lat="44.0712286" lon="10.9766913"><ele>631.0</ele><time>2026-04-06T16:03:11.776Z</time></trkpt><trkpt lat="44.071268" lon="10.9768145"><ele>631.0</ele><time>2026-04-06T16:03:12.777Z</time></trkpt><trkpt lat="44.0713183" lon="10.9769531"><ele>631.0</ele><time>2026-04-06T16:03:13.769Z</time></trkpt><trkpt lat="44.0713836" lon="10.9770795"><ele>631.75</ele><time>2026-04-06T16:03:14.774Z</time></trkpt><trkpt lat="44.0714782" lon="10.9772026"><ele>632.5</ele><time>2026-04-06T16:03:15.769Z</time></trkpt><trkpt lat="44.0715544" lon="10.9773387"><ele>633.25</ele><time>2026-04-06T16:03:16.776Z</time></trkpt><trkpt lat="44.0716646" lon="10.9774816"><ele>634.0</ele><time>2026-04-06T16:03:17.773Z</time></trkpt><trkpt lat="44.071726" lon="10.9775735"><ele>632.25</ele><time>2026-04-06T16:03:18.77Z</time></trkpt><trkpt lat="44.0717943" lon="10.9776741"><ele>630.5</ele><time>2026-04-06T16:03:19.767Z</time></trkpt><trkpt lat="44.0718869" lon="10.9778115"><ele>628.75</ele><time>2026-04-06T16:03:20.772Z</time></trkpt><trkpt lat="44.0719665" lon="10.977943"><ele>627.0</ele><time>2026-04-06T16:03:21.77Z</time></trkpt><trkpt lat="44.0720505" lon="10.9780853"><ele>627.0</ele><time>2026-04-06T16:03:22.774Z</time></trkpt><trkpt lat="44.0721421" lon="10.9782566"><ele>627.0</ele><time>2026-04-06T16:03:23.772Z</time></trkpt><trkpt lat="44.0722337" lon="10.9784309"><ele>627.0</ele><time>2026-04-06T16:03:24.778Z</time></trkpt><trkpt lat="44.0723309" lon="10.9787"><ele>627.6666666666666</ele><time>2026-04-06T16:03:25.771Z</time></trkpt><trkpt lat="44.0724124" lon="10.9789254"><ele>628.3333333333333</ele><time>2026-04-06T16:03:26.768Z</time></trkpt><trkpt lat="44.0725073" lon="10.9791228"><ele>629.0</ele><time>2026-04-06T16:03:27.765Z</time></trkpt><trkpt lat="44.0725913" lon="10.9793208"><ele>629.0</ele><time>2026-04-06T16:03:28.773Z</time></trkpt><trkpt lat="44.0726823" lon="10.9794821"><ele>629.0</ele><time>2026-04-06T16:03:29.775Z</time></trkpt><trkpt lat="44.0727817" lon="10.9796141"><ele>629.0</ele><time>2026-04-06T16:03:30.774Z</time></trkpt><trkpt lat="44.0729151" lon="10.9797065"><ele>629.0</ele><time>2026-04-06T16:03:31.765Z</time></trkpt><trkpt lat="44.0730779" lon="10.9797158"><ele>629.0</ele><time>2026-04-06T16:03:32.765Z</time></trkpt><trkpt lat="44.0731753" lon="10.9797549"><ele>629.0</ele><time>2026-04-06T16:03:33.772Z</time></trkpt><trkpt lat="44.0733608" lon="10.9798177"><ele>629.0</ele><time>2026-04-06T16:03:34.776Z</time></trkpt><trkpt lat="44.0735073" lon="10.979871"><ele>629.0</ele><time>2026-04-06T16:03:35.78Z</time></trkpt><trkpt lat="44.0736619" lon="10.9799143"><ele>628.25</ele><time>2026-04-06T16:03:36.774Z</time></trkpt><trkpt lat="44.0737283" lon="10.979995"><ele>627.5</ele><time>2026-04-06T16:03:37.776Z</time></trkpt><trkpt lat="44.0738385" lon="10.9800711"><ele>626.75</ele><time>2026-04-06T16:03:38.776Z</time></trkpt><trkpt lat="44.0739419" lon="10.9802172"><ele>626.0</ele><time>2026-04-06T16:03:39.773Z</time></trkpt><trkpt lat="44.0740063" lon="10.9803775"><ele>626.0</ele><time>2026-04-06T16:03:40.775Z</time></trkpt><trkpt lat="44.0740493" lon="10.9805242"><ele>626.0</ele><time>2026-04-06T16:03:41.77Z</time></trkpt><trkpt lat="44.0740899" lon="10.9806439"><ele>626.0</ele><time>2026-04-06T16:03:42.772Z</time></trkpt><trkpt lat="44.0740797" lon="10.9808329"><ele>626.0</ele><time>2026-04-06T16:03:43.771Z</time></trkpt><trkpt lat="44.0741113" lon="10.981032"><ele>626.25</ele><time>2026-04-06T16:03:44.768Z</time></trkpt><trkpt lat="44.0741547" lon="10.9812165"><ele>626.5</ele><time>2026-04-06T16:03:45.781Z</time></trkpt><trkpt lat="44.0742603" lon="10.9813436"><ele>626.75</ele><time>2026-04-06T16:03:46.77Z</time></trkpt><trkpt lat="44.0743171" lon="10.9814945"><ele>627.0</ele><time>2026-04-06T16:03:47.769Z</time></trkpt><trkpt lat="44.0744218" lon="10.98169"><ele>627.0</ele><time>2026-04-06T16:03:48.769Z</time></trkpt><trkpt lat="44.0745109" lon="10.9819"><ele>627.0</ele><time>2026-04-06T16:03:49.771Z</time></trkpt><trkpt lat="44.0745647" lon="10.9821238"><ele>627.0</ele><time>2026-04-06T16:03:50.771Z</time></trkpt><trkpt lat="44.0746553" lon="10.9823462"><ele>627.0</ele><time>2026-04-06T16:03:51.77Z</time></trkpt><trkpt lat="44.0747692" lon="10.9824962"><ele>627.0</ele><time>2026-04-06T16:03:52.77Z</time></trkpt><trkpt lat="44.0748918" lon="10.9826592"><ele>627.0</ele><time>2026-04-06T16:03:53.77Z</time></trkpt><trkpt lat="44.0750008" lon="10.9827731"><ele>627.0</ele><time>2026-04-06T16:03:54.768Z</time></trkpt><trkpt lat="44.0751686" lon="10.9828663"><ele>627.0</ele><time>2026-04-06T16:03:55.774Z</time></trkpt><trkpt lat="44.0752914" lon="10.9829713"><ele>627.0</ele><time>2026-04-06T16:03:56.773Z</time></trkpt><trkpt lat="44.0754313" lon="10.98303"><ele>627.0</ele><time>2026-04-06T16:03:57.775Z</time></trkpt><trkpt lat="44.0755963" lon="10.9830852"><ele>627.0</ele><time>2026-04-06T16:03:58.774Z</time></trkpt><trkpt lat="44.0757499" lon="10.9831357"><ele>627.0</ele><time>2026-04-06T16:03:59.776Z</time></trkpt><trkpt lat="44.075889" lon="10.9832302"><ele>624.5</ele><time>2026-04-06T16:04:00.772Z</time></trkpt><trkpt lat="44.0760031" lon="10.983354"><ele>622.0</ele><time>2026-04-06T16:04:01.771Z</time></trkpt><trkpt lat="44.0761217" lon="10.9834831"><ele>619.5</ele><time>2026-04-06T16:04:02.771Z</time></trkpt><trkpt lat="44.0762075" lon="10.9836395"><ele>617.0</ele><time>2026-04-06T16:04:03.772Z</time></trkpt><trkpt lat="44.076284" lon="10.9838134"><ele>617.0</ele><time>2026-04-06T16:04:04.769Z</time></trkpt><trkpt lat="44.0763696" lon="10.9840388"><ele>617.0</ele><time>2026-04-06T16:04:05.772Z</time></trkpt><trkpt lat="44.0764522" lon="10.9842148"><ele>617.0</ele><time>2026-04-06T16:04:06.773Z</time></trkpt><trkpt lat="44.0765055" lon="10.9844279"><ele>616.25</ele><time>2026-04-06T16:04:07.772Z</time></trkpt><trkpt lat="44.0765537" lon="10.9846225"><ele>615.5</ele><time>2026-04-06T16:04:08.771Z</time></trkpt><trkpt lat="44.0766217" lon="10.9847979"><ele>614.75</ele><time>2026-04-06T16:04:09.766Z</time></trkpt><trkpt lat="44.0766923" lon="10.9849693"><ele>614.0</ele><time>2026-04-06T16:04:10.784Z</time></trkpt><trkpt lat="44.0767348" lon="10.9851177"><ele>614.0</ele><time>2026-04-06T16:04:11.769Z</time></trkpt><trkpt lat="44.0767741" lon="10.9852706"><ele>614.0</ele><time>2026-04-06T16:04:12.773Z</time></trkpt><trkpt lat="44.0768378" lon="10.985433"><ele>614.0</ele><time>2026-04-06T16:04:13.773Z</time></trkpt><trkpt lat="44.0768944" lon="10.9855266"><ele>614.0</ele><time>2026-04-06T16:04:14.767Z</time></trkpt><trkpt lat="44.0769454" lon="10.9856121"><ele>614.0</ele><time>2026-04-06T16:04:15.772Z</time></trkpt><trkpt lat="44.0770505" lon="10.9856732"><ele>614.0</ele><time>2026-04-06T16:04:16.774Z</time></trkpt><trkpt lat="44.0771711" lon="10.9857242"><ele>614.0</ele><time>2026-04-06T16:04:17.776Z</time></trkpt><trkpt lat="44.077306" lon="10.9857267"><ele>614.0</ele><time>2026-04-06T16:04:18.772Z</time></trkpt><trkpt lat="44.0774543" lon="10.9857482"><ele>614.0</ele><time>2026-04-06T16:04:19.783Z</time></trkpt><trkpt lat="44.0776035" lon="10.98573"><ele>612.0</ele><time>2026-04-06T16:04:20.77Z</time></trkpt><trkpt lat="44.0777556" lon="10.9856919"><ele>610.0</ele><time>2026-04-06T16:04:21.77Z</time></trkpt><trkpt lat="44.0778745" lon="10.9856587"><ele>608.0</ele><time>2026-04-06T16:04:22.79Z</time></trkpt><trkpt lat="44.0780235" lon="10.9856157"><ele>606.0</ele><time>2026-04-06T16:04:23.772Z</time></trkpt><trkpt lat="44.0781834" lon="10.9855114"><ele>607.25</ele><time>2026-04-06T16:04:24.767Z</time></trkpt><trkpt lat="44.0782872" lon="10.9854591"><ele>608.5</ele><time>2026-04-06T16:04:25.778Z</time></trkpt><trkpt lat="44.0784402" lon="10.9853882"><ele>609.75</ele><time>2026-04-06T16:04:26.769Z</time></trkpt><trkpt lat="44.0785795" lon="10.9853199"><ele>611.0</ele><time>2026-04-06T16:04:27.774Z</time></trkpt><trkpt lat="44.0786825" lon="10.9852889"><ele>611.0</ele><time>2026-04-06T16:04:28.778Z</time></trkpt><trkpt lat="44.0788159" lon="10.9852875"><ele>611.0</ele><time>2026-04-06T16:04:29.776Z</time></trkpt><trkpt lat="44.0789736" lon="10.9852671"><ele>611.0</ele><time>2026-04-06T16:04:30.774Z</time></trkpt><trkpt lat="44.0791065" lon="10.9852866"><ele>611.0</ele><time>2026-04-06T16:04:31.769Z</time></trkpt><trkpt lat="44.079249" lon="10.9853575"><ele>611.6666666666666</ele><time>2026-04-06T16:04:32.769Z</time></trkpt><trkpt lat="44.0793933" lon="10.9853824"><ele>612.3333333333334</ele><time>2026-04-06T16:04:33.776Z</time></trkpt><trkpt lat="44.0795467" lon="10.9854007"><ele>613.0</ele><time>2026-04-06T16:04:34.787Z</time></trkpt><trkpt lat="44.0797049" lon="10.9853503"><ele>613.0</ele><time>2026-04-06T16:04:35.788Z</time></trkpt><trkpt lat="44.0798454" lon="10.9853049"><ele>613.0</ele><time>2026-04-06T16:04:36.766Z</time></trkpt><trkpt lat="44.0799862" lon="10.9852724"><ele>613.0</ele><time>2026-04-06T16:04:37.772Z</time></trkpt><trkpt lat="44.0801355" lon="10.9852314"><ele>613.0</ele><time>2026-04-06T16:04:38.772Z</time></trkpt><trkpt lat="44.0802739" lon="10.9851903"><ele>612.0</ele><time>2026-04-06T16:04:39.766Z</time></trkpt><trkpt lat="44.0804053" lon="10.9851642"><ele>611.0</ele><time>2026-04-06T16:04:40.766Z</time></trkpt><trkpt lat="44.0805475" lon="10.985164"><ele>610.0</ele><time>2026-04-06T16:04:41.771Z</time></trkpt><trkpt lat="44.0806815" lon="10.9851386"><ele>609.0</ele><time>2026-04-06T16:04:42.766Z</time></trkpt><trkpt lat="44.0807947" lon="10.9851799"><ele>604.5</ele><time>2026-04-06T16:04:43.77Z</time></trkpt><trkpt lat="44.0809162" lon="10.985206"><ele>600.0</ele><time>2026-04-06T16:04:44.771Z</time></trkpt><trkpt lat="44.0810131" lon="10.9853003"><ele>595.5</ele><time>2026-04-06T16:04:45.776Z</time></trkpt><trkpt lat="44.0811341" lon="10.9854645"><ele>591.0</ele><time>2026-04-06T16:04:46.772Z</time></trkpt><trkpt lat="44.0812298" lon="10.9855836"><ele>591.0</ele><time>2026-04-06T16:04:47.773Z</time></trkpt><trkpt lat="44.0813151" lon="10.9857049"><ele>591.0</ele><time>2026-04-06T16:04:48.768Z</time></trkpt><trkpt lat="44.0814132" lon="10.9858051"><ele>591.0</ele><time>2026-04-06T16:04:49.772Z</time></trkpt><trkpt lat="44.0814775" lon="10.9859177"><ele>591.0</ele><time>2026-04-06T16:04:50.769Z</time></trkpt><trkpt lat="44.081562" lon="10.9859827"><ele>591.0</ele><time>2026-04-06T16:04:51.769Z</time></trkpt><trkpt lat="44.0816694" lon="10.9860048"><ele>592.5</ele><time>2026-04-06T16:04:52.778Z</time></trkpt><trkpt lat="44.0817455" lon="10.9860227"><ele>594.0</ele><time>2026-04-06T16:04:53.772Z</time></trkpt><trkpt lat="44.0819221" lon="10.9860094"><ele>595.5</ele><time>2026-04-06T16:04:54.773Z</time></trkpt><trkpt lat="44.082071" lon="10.9860218"><ele>597.0</ele><time>2026-04-06T16:04:55.771Z</time></trkpt><trkpt lat="44.0822262" lon="10.9860281"><ele>597.0</ele><time>2026-04-06T16:04:56.773Z</time></trkpt><trkpt lat="44.082398" lon="10.9860369"><ele>597.0</ele><time>2026-04-06T16:04:57.785Z</time></trkpt><trkpt lat="44.0825658" lon="10.9860434"><ele>597.0</ele><time>2026-04-06T16:04:58.772Z</time></trkpt><trkpt lat="44.0827108" lon="10.9860237"><ele>597.5</ele><time>2026-04-06T16:04:59.773Z</time></trkpt><trkpt lat="44.0828665" lon="10.9859873"><ele>598.0</ele><time>2026-04-06T16:05:00.773Z</time></trkpt><trkpt lat="44.0830054" lon="10.9859566"><ele>598.5</ele><time>2026-04-06T16:05:01.777Z</time></trkpt><trkpt lat="44.0831235" lon="10.9859175"><ele>599.0</ele><time>2026-04-06T16:05:02.773Z</time></trkpt><trkpt lat="44.0832495" lon="10.9858663"><ele>596.8</ele><time>2026-04-06T16:05:03.776Z</time></trkpt><trkpt lat="44.0833754" lon="10.9858312"><ele>594.5999999999999</ele><time>2026-04-06T16:05:04.769Z</time></trkpt><trkpt lat="44.0834734" lon="10.9857963"><ele>592.4</ele><time>2026-04-06T16:05:05.771Z</time></trkpt><trkpt lat="44.0835731" lon="10.9857736"><ele>590.1999999999999</ele><time>2026-04-06T16:05:06.77Z</time></trkpt><trkpt lat="44.0836551" lon="10.9857826"><ele>588.0</ele><time>2026-04-06T16:05:07.773Z</time></trkpt><trkpt lat="44.0837346" lon="10.9858184"><ele>590.0</ele><time>2026-04-06T16:05:08.776Z</time></trkpt><trkpt lat="44.0837882" lon="10.9858731"><ele>592.0</ele><time>2026-04-06T16:05:09.773Z</time></trkpt><trkpt lat="44.083887" lon="10.9860206"><ele>594.0</ele><time>2026-04-06T16:05:10.778Z</time></trkpt><trkpt lat="44.0839851" lon="10.9861371"><ele>596.0</ele><time>2026-04-06T16:05:11.775Z</time></trkpt><trkpt lat="44.0840772" lon="10.9862387"><ele>594.6666666666666</ele><time>2026-04-06T16:05:12.773Z</time></trkpt><trkpt lat="44.0842253" lon="10.9863855"><ele>593.3333333333334</ele><time>2026-04-06T16:05:13.775Z</time></trkpt><trkpt lat="44.084395" lon="10.9865147"><ele>592.0</ele><time>2026-04-06T16:05:14.767Z</time></trkpt><trkpt lat="44.0845386" lon="10.986678"><ele>592.0</ele><time>2026-04-06T16:05:15.773Z</time></trkpt><trkpt lat="44.0846892" lon="10.9867683"><ele>592.0</ele><time>2026-04-06T16:05:16.775Z</time></trkpt><trkpt lat="44.0848093" lon="10.9868387"><ele>592.0</ele><time>2026-04-06T16:05:17.763Z</time></trkpt><trkpt lat="44.0849182" lon="10.9869205"><ele>592.0</ele><time>2026-04-06T16:05:18.778Z</time></trkpt><trkpt lat="44.0850367" lon="10.9869621"><ele>590.8000000000001</ele><time>2026-04-06T16:05:19.771Z</time></trkpt><trkpt lat="44.0851028" lon="10.9869541"><ele>589.6</ele><time>2026-04-06T16:05:20.773Z</time></trkpt><trkpt lat="44.0851659" lon="10.9868961"><ele>588.4000000000001</ele><time>2026-04-06T16:05:22.777Z</time></trkpt><trkpt lat="44.0852173" lon="10.9867669"><ele>587.2</ele><time>2026-04-06T16:05:23.775Z</time></trkpt><trkpt lat="44.085288" lon="10.9866585"><ele>586.0</ele><time>2026-04-06T16:05:24.774Z</time></trkpt><trkpt lat="44.0854103" lon="10.9864752"><ele>584.25</ele><time>2026-04-06T16:05:25.772Z</time></trkpt><trkpt lat="44.0855274" lon="10.986378"><ele>582.5</ele><time>2026-04-06T16:05:26.772Z</time></trkpt><trkpt lat="44.085624" lon="10.9862781"><ele>580.75</ele><time>2026-04-06T16:05:27.768Z</time></trkpt><trkpt lat="44.0857201" lon="10.9861987"><ele>579.0</ele><time>2026-04-06T16:05:28.774Z</time></trkpt><trkpt lat="44.0858437" lon="10.9862233"><ele>574.6666666666666</ele><time>2026-04-06T16:05:29.773Z</time></trkpt><trkpt lat="44.0859632" lon="10.9862866"><ele>570.3333333333333</ele><time>2026-04-06T16:05:30.771Z</time></trkpt><trkpt lat="44.0861582" lon="10.9864707"><ele>566.0</ele><time>2026-04-06T16:05:31.778Z</time></trkpt><trkpt lat="44.0863759" lon="10.9866195"><ele>564.5</ele><time>2026-04-06T16:05:32.774Z</time></trkpt><trkpt lat="44.0865763" lon="10.9867891"><ele>563.0</ele><time>2026-04-06T16:05:33.764Z</time></trkpt><trkpt lat="44.0867501" lon="10.9869716"><ele>563.0</ele><time>2026-04-06T16:05:34.77Z</time></trkpt><trkpt lat="44.0869164" lon="10.9871357"><ele>563.0</ele><time>2026-04-06T16:05:35.767Z</time></trkpt><trkpt lat="44.0871122" lon="10.9873433"><ele>565.3333333333333</ele><time>2026-04-06T16:05:36.768Z</time></trkpt><trkpt lat="44.0872046" lon="10.9876049"><ele>567.6666666666666</ele><time>2026-04-06T16:05:37.772Z</time></trkpt><trkpt lat="44.0872486" lon="10.9879021"><ele>570.0</ele><time>2026-04-06T16:05:38.764Z</time></trkpt><trkpt lat="44.0873656" lon="10.9880946"><ele>569.6666666666666</ele><time>2026-04-06T16:05:39.771Z</time></trkpt><trkpt lat="44.0874747" lon="10.9882782"><ele>569.3333333333333</ele><time>2026-04-06T16:05:40.773Z</time></trkpt><trkpt lat="44.0875088" lon="10.9884343"><ele>569.0</ele><time>2026-04-06T16:05:41.771Z</time></trkpt><trkpt lat="44.0877138" lon="10.9884687"><ele>569.0</ele><time>2026-04-06T16:05:42.773Z</time></trkpt><trkpt lat="44.0878116" lon="10.9885597"><ele>569.0</ele><time>2026-04-06T16:05:43.774Z</time></trkpt><trkpt lat="44.0880298" lon="10.9886087"><ele>569.0</ele><time>2026-04-06T16:05:44.775Z</time></trkpt><trkpt lat="44.0882638" lon="10.9886335"><ele>568.0</ele><time>2026-04-06T16:05:45.771Z</time></trkpt><trkpt lat="44.0884759" lon="10.9886208"><ele>567.0</ele><time>2026-04-06T16:05:46.77Z</time></trkpt><trkpt lat="44.0886625" lon="10.9886282"><ele>566.0</ele><time>2026-04-06T16:05:47.773Z</time></trkpt><trkpt lat="44.0888071" lon="10.9886648"><ele>566.0</ele><time>2026-04-06T16:05:48.769Z</time></trkpt><trkpt lat="44.0889609" lon="10.9886907"><ele>566.0</ele><time>2026-04-06T16:05:49.773Z</time></trkpt><trkpt lat="44.0890869" lon="10.9887533"><ele>566.0</ele><time>2026-04-06T16:05:50.764Z</time></trkpt><trkpt lat="44.0892345" lon="10.9888994"><ele>564.75</ele><time>2026-04-06T16:05:51.773Z</time></trkpt><trkpt lat="44.0893094" lon="10.9890437"><ele>563.5</ele><time>2026-04-06T16:05:52.772Z</time></trkpt><trkpt lat="44.0894134" lon="10.9892277"><ele>562.25</ele><time>2026-04-06T16:05:53.78Z</time></trkpt><trkpt lat="44.0895027" lon="10.9893708"><ele>561.0</ele><time>2026-04-06T16:05:54.771Z</time></trkpt><trkpt lat="44.0895853" lon="10.9895074"><ele>561.0</ele><time>2026-04-06T16:05:55.774Z</time></trkpt><trkpt lat="44.0896532" lon="10.9895452"><ele>561.0</ele><time>2026-04-06T16:05:56.774Z</time></trkpt><trkpt lat="44.0897493" lon="10.9895609"><ele>561.0</ele><time>2026-04-06T16:05:57.789Z</time></trkpt><trkpt lat="44.0898551" lon="10.9895633"><ele>561.0</ele><time>2026-04-06T16:05:58.767Z</time></trkpt><trkpt lat="44.0900153" lon="10.9895647"><ele>561.0</ele><time>2026-04-06T16:05:59.77Z</time></trkpt><trkpt lat="44.090218" lon="10.9895556"><ele>558.3333333333334</ele><time>2026-04-06T16:06:00.764Z</time></trkpt><trkpt lat="44.090465" lon="10.9894843"><ele>555.6666666666667</ele><time>2026-04-06T16:06:01.765Z</time></trkpt><trkpt lat="44.0906578" lon="10.9894509"><ele>553.0</ele><time>2026-04-06T16:06:02.766Z</time></trkpt><trkpt lat="44.0908367" lon="10.9894393"><ele>550.0</ele><time>2026-04-06T16:06:03.768Z</time></trkpt><trkpt lat="44.0909901" lon="10.9894589"><ele>547.0</ele><time>2026-04-06T16:06:04.771Z</time></trkpt><trkpt lat="44.0911518" lon="10.9894884"><ele>544.0</ele><time>2026-04-06T16:06:05.772Z</time></trkpt><trkpt lat="44.0913272" lon="10.9895211"><ele>544.0</ele><time>2026-04-06T16:06:06.776Z</time></trkpt><trkpt lat="44.091484" lon="10.9895287"><ele>544.0</ele><time>2026-04-06T16:06:07.775Z</time></trkpt><trkpt lat="44.0916272" lon="10.9896075"><ele>544.0</ele><time>2026-04-06T16:06:08.77Z</time></trkpt><trkpt lat="44.0917719" lon="10.9896902"><ele>544.0</ele><time>2026-04-06T16:06:09.77Z</time></trkpt><trkpt lat="44.09192" lon="10.9897907"><ele>544.0</ele><time>2026-04-06T16:06:10.774Z</time></trkpt><trkpt lat="44.0920629" lon="10.9898989"><ele>544.0</ele><time>2026-04-06T16:06:11.77Z</time></trkpt><trkpt lat="44.0921937" lon="10.990023"><ele>543.3333333333334</ele><time>2026-04-06T16:06:12.774Z</time></trkpt><trkpt lat="44.0923031" lon="10.9901773"><ele>542.6666666666666</ele><time>2026-04-06T16:06:13.775Z</time></trkpt><trkpt lat="44.092403" lon="10.9903346"><ele>542.0</ele><time>2026-04-06T16:06:14.777Z</time></trkpt><trkpt lat="44.0924856" lon="10.9904993"><ele>542.0</ele><time>2026-04-06T16:06:15.768Z</time></trkpt><trkpt lat="44.0925598" lon="10.9906724"><ele>542.0</ele><time>2026-04-06T16:06:16.77Z</time></trkpt><trkpt lat="44.0926467" lon="10.9908357"><ele>542.0</ele><time>2026-04-06T16:06:17.779Z</time></trkpt><trkpt lat="44.0927437" lon="10.9909898"><ele>542.0</ele><time>2026-04-06T16:06:18.773Z</time></trkpt><trkpt lat="44.0928915" lon="10.9911272"><ele>541.6666666666666</ele><time>2026-04-06T16:06:19.77Z</time></trkpt><trkpt lat="44.0930273" lon="10.9912701"><ele>541.3333333333334</ele><time>2026-04-06T16:06:20.771Z</time></trkpt><trkpt lat="44.0931659" lon="10.9914098"><ele>541.0</ele><time>2026-04-06T16:06:21.772Z</time></trkpt><trkpt lat="44.0933303" lon="10.9914743"><ele>541.0</ele><time>2026-04-06T16:06:22.771Z</time></trkpt><trkpt lat="44.0934977" lon="10.9915353"><ele>541.0</ele><time>2026-04-06T16:06:23.773Z</time></trkpt><trkpt lat="44.0936733" lon="10.9915333"><ele>541.0</ele><time>2026-04-06T16:06:24.773Z</time></trkpt><trkpt lat="44.0938736" lon="10.9914919"><ele>541.0</ele><time>2026-04-06T16:06:25.809Z</time></trkpt><trkpt lat="44.0940408" lon="10.9915128"><ele>541.0</ele><time>2026-04-06T16:06:26.776Z</time></trkpt><trkpt lat="44.0942169" lon="10.9915411"><ele>541.0</ele><time>2026-04-06T16:06:27.77Z</time></trkpt><trkpt lat="44.0943614" lon="10.9916302"><ele>538.3333333333334</ele><time>2026-04-06T16:06:28.784Z</time></trkpt><trkpt lat="44.0944937" lon="10.9917318"><ele>535.6666666666666</ele><time>2026-04-06T16:06:29.771Z</time></trkpt><trkpt lat="44.0946002" lon="10.9918708"><ele>533.0</ele><time>2026-04-06T16:06:30.773Z</time></trkpt><trkpt lat="44.0947224" lon="10.9920308"><ele>533.0</ele><time>2026-04-06T16:06:31.769Z</time></trkpt><trkpt lat="44.09489" lon="10.9923101"><ele>533.0</ele><time>2026-04-06T16:06:32.777Z</time></trkpt><trkpt lat="44.0950231" lon="10.9925271"><ele>533.3333333333333</ele><time>2026-04-06T16:06:33.774Z</time></trkpt><trkpt lat="44.0951587" lon="10.992704"><ele>533.6666666666666</ele><time>2026-04-06T16:06:34.774Z</time></trkpt><trkpt lat="44.0953279" lon="10.9928257"><ele>534.0</ele><time>2026-04-06T16:06:35.775Z</time></trkpt><trkpt lat="44.0955082" lon="10.9929247"><ele>534.0</ele><time>2026-04-06T16:06:36.768Z</time></trkpt><trkpt lat="44.0956575" lon="10.9930656"><ele>534.0</ele><time>2026-04-06T16:06:37.77Z</time></trkpt><trkpt lat="44.09581" lon="10.9931956"><ele>534.0</ele><time>2026-04-06T16:06:38.767Z</time></trkpt><trkpt lat="44.0959536" lon="10.9932991"><ele>535.3333333333334</ele><time>2026-04-06T16:06:39.771Z</time></trkpt><trkpt lat="44.0960971" lon="10.9934128"><ele>536.6666666666667</ele><time>2026-04-06T16:06:40.775Z</time></trkpt><trkpt lat="44.096239" lon="10.9935201"><ele>538.0</ele><time>2026-04-06T16:06:41.772Z</time></trkpt><trkpt lat="44.0963666" lon="10.9936404"><ele>538.0</ele><time>2026-04-06T16:06:42.776Z</time></trkpt><trkpt lat="44.096492" lon="10.9937352"><ele>538.0</ele><time>2026-04-06T16:06:43.775Z</time></trkpt><trkpt lat="44.096616" lon="10.9938375"><ele>538.0</ele><time>2026-04-06T16:06:44.772Z</time></trkpt><trkpt lat="44.0967559" lon="10.9939131"><ele>538.0</ele><time>2026-04-06T16:06:45.773Z</time></trkpt><trkpt lat="44.0968921" lon="10.9939969"><ele>535.6666666666667</ele><time>2026-04-06T16:06:46.773Z</time></trkpt><trkpt lat="44.097018" lon="10.9941036"><ele>533.3333333333334</ele><time>2026-04-06T16:06:47.769Z</time></trkpt><trkpt lat="44.0971569" lon="10.9942159"><ele>531.0</ele><time>2026-04-06T16:06:48.77Z</time></trkpt><trkpt lat="44.0973004" lon="10.9943357"><ele>531.0</ele><time>2026-04-06T16:06:49.77Z</time></trkpt><trkpt lat="44.0974483" lon="10.9944735"><ele>531.0</ele><time>2026-04-06T16:06:50.769Z</time></trkpt><trkpt lat="44.0976051" lon="10.9946082"><ele>531.0</ele><time>2026-04-06T16:06:51.77Z</time></trkpt><trkpt lat="44.0977786" lon="10.9947399"><ele>531.0</ele><time>2026-04-06T16:06:52.77Z</time></trkpt><trkpt lat="44.0979292" lon="10.9948981"><ele>531.0</ele><time>2026-04-06T16:06:53.771Z</time></trkpt><trkpt lat="44.0981005" lon="10.9950488"><ele>531.0</ele><time>2026-04-06T16:06:54.773Z</time></trkpt><trkpt lat="44.098271" lon="10.9952043"><ele>531.3333333333334</ele><time>2026-04-06T16:06:55.772Z</time></trkpt><trkpt lat="44.0984339" lon="10.9953591"><ele>531.6666666666667</ele><time>2026-04-06T16:06:56.773Z</time></trkpt><trkpt lat="44.0985789" lon="10.9955374"><ele>532.0</ele><time>2026-04-06T16:06:57.779Z</time></trkpt><trkpt lat="44.0986975" lon="10.9957243"><ele>536.0</ele><time>2026-04-06T16:06:58.77Z</time></trkpt><trkpt lat="44.0988215" lon="10.9959082"><ele>540.0</ele><time>2026-04-06T16:06:59.77Z</time></trkpt><trkpt lat="44.0989226" lon="10.9961035"><ele>544.0</ele><time>2026-04-06T16:07:00.769Z</time></trkpt><trkpt lat="44.0990203" lon="10.9962884"><ele>544.5</ele><time>2026-04-06T16:07:01.77Z</time></trkpt><trkpt lat="44.0991028" lon="10.9964516"><ele>545.0</ele><time>2026-04-06T16:07:02.776Z</time></trkpt><trkpt lat="44.0991803" lon="10.9965995"><ele>545.5</ele><time>2026-04-06T16:07:03.776Z</time></trkpt><trkpt lat="44.099252" lon="10.9967313"><ele>546.0</ele><time>2026-04-06T16:07:04.772Z</time></trkpt><trkpt lat="44.0992763" lon="10.9968714"><ele>546.0</ele><time>2026-04-06T16:07:05.771Z</time></trkpt><trkpt lat="44.0992738" lon="10.9970072"><ele>546.0</ele><time>2026-04-06T16:07:06.769Z</time></trkpt><trkpt lat="44.0992807" lon="10.9971325"><ele>546.0</ele><time>2026-04-06T16:07:07.772Z</time></trkpt><trkpt lat="44.0993068" lon="10.9972344"><ele>546.0</ele><time>2026-04-06T16:07:08.778Z</time></trkpt><trkpt lat="44.0993527" lon="10.9973342"><ele>546.0</ele><time>2026-04-06T16:07:09.771Z</time></trkpt><trkpt lat="44.0994145" lon="10.9974079"><ele>546.0</ele><time>2026-04-06T16:07:10.771Z</time></trkpt><trkpt lat="44.0994886" lon="10.9974734"><ele>546.6666666666666</ele><time>2026-04-06T16:07:11.77Z</time></trkpt><trkpt lat="44.0996162" lon="10.9975272"><ele>547.3333333333333</ele><time>2026-04-06T16:07:12.778Z</time></trkpt><trkpt lat="44.0997333" lon="10.9976154"><ele>548.0</ele><time>2026-04-06T16:07:13.771Z</time></trkpt><trkpt lat="44.0999565" lon="10.9977112"><ele>548.0</ele><time>2026-04-06T16:07:14.773Z</time></trkpt><trkpt lat="44.1001404" lon="10.9977824"><ele>548.0</ele><time>2026-04-06T16:07:15.769Z</time></trkpt><trkpt lat="44.1003331" lon="10.9978744"><ele>548.0</ele><time>2026-04-06T16:07:16.77Z</time></trkpt><trkpt lat="44.1004829" lon="10.9979734"><ele>548.0</ele><time>2026-04-06T16:07:17.77Z</time></trkpt><trkpt lat="44.1006556" lon="10.9980578"><ele>548.0</ele><time>2026-04-06T16:07:18.768Z</time></trkpt><trkpt lat="44.1008179" lon="10.9981432"><ele>548.0</ele><time>2026-04-06T16:07:19.77Z</time></trkpt><trkpt lat="44.1009731" lon="10.9982483"><ele>546.3333333333333</ele><time>2026-04-06T16:07:20.772Z</time></trkpt><trkpt lat="44.1011203" lon="10.9983587"><ele>544.6666666666666</ele><time>2026-04-06T16:07:21.769Z</time></trkpt><trkpt lat="44.1012616" lon="10.9984779"><ele>543.0</ele><time>2026-04-06T16:07:22.769Z</time></trkpt><trkpt lat="44.1013972" lon="10.998597"><ele>543.0</ele><time>2026-04-06T16:07:23.77Z</time></trkpt><trkpt lat="44.1015144" lon="10.998725"><ele>543.0</ele><time>2026-04-06T16:07:24.774Z</time></trkpt><trkpt lat="44.1016156" lon="10.9988555"><ele>543.0</ele><time>2026-04-06T16:07:25.772Z</time></trkpt><trkpt lat="44.1017168" lon="10.9989691"><ele>543.0</ele><time>2026-04-06T16:07:26.771Z</time></trkpt><trkpt lat="44.101815" lon="10.9991"><ele>550.8</ele><time>2026-04-06T16:07:27.775Z</time></trkpt><trkpt lat="44.1019048" lon="10.9992057"><ele>558.5999999999999</ele><time>2026-04-06T16:07:28.775Z</time></trkpt><trkpt lat="44.1019941" lon="10.9992915"><ele>566.4000000000001</ele><time>2026-04-06T16:07:29.779Z</time></trkpt><trkpt lat="44.1020933" lon="10.999338"><ele>574.2</ele><time>2026-04-06T16:07:30.771Z</time></trkpt><trkpt lat="44.1021955" lon="10.9993655"><ele>582.0</ele><time>2026-04-06T16:07:31.773Z</time></trkpt><trkpt lat="44.1023039" lon="10.9993664"><ele>576.25</ele><time>2026-04-06T16:07:32.777Z</time></trkpt><trkpt lat="44.1024304" lon="10.9993429"><ele>570.5</ele><time>2026-04-06T16:07:33.77Z</time></trkpt><trkpt lat="44.1025683" lon="10.9992993"><ele>564.75</ele><time>2026-04-06T16:07:34.768Z</time></trkpt><trkpt lat="44.1027048" lon="10.9992726"><ele>559.0</ele><time>2026-04-06T16:07:35.773Z</time></trkpt><trkpt lat="44.1028275" lon="10.9992173"><ele>559.0</ele><time>2026-04-06T16:07:36.776Z</time></trkpt><trkpt lat="44.1029242" lon="10.9991665"><ele>559.0</ele><time>2026-04-06T16:07:37.777Z</time></trkpt><trkpt lat="44.1030286" lon="10.9991412"><ele>559.0</ele><time>2026-04-06T16:07:38.77Z</time></trkpt><trkpt lat="44.1031058" lon="10.9991543"><ele>559.0</ele><time>2026-04-06T16:07:39.772Z</time></trkpt><trkpt lat="44.1031861" lon="10.9992018"><ele>559.0</ele><time>2026-04-06T16:07:40.774Z</time></trkpt><trkpt lat="44.1032546" lon="10.9992621"><ele>551.0</ele><time>2026-04-06T16:07:41.775Z</time></trkpt><trkpt lat="44.1033234" lon="10.9994062"><ele>543.0</ele><time>2026-04-06T16:07:42.771Z</time></trkpt><trkpt lat="44.1034011" lon="10.9995718"><ele>535.0</ele><time>2026-04-06T16:07:43.769Z</time></trkpt><trkpt lat="44.1034869" lon="10.9997024"><ele>527.0</ele><time>2026-04-06T16:07:44.772Z</time></trkpt><trkpt lat="44.1035759" lon="10.9998124"><ele>527.0</ele><time>2026-04-06T16:07:45.776Z</time></trkpt><trkpt lat="44.1036779" lon="10.9998944"><ele>527.0</ele><time>2026-04-06T16:07:46.781Z</time></trkpt><trkpt lat="44.1037455" lon="10.999943"><ele>527.0</ele><time>2026-04-06T16:07:47.772Z</time></trkpt><trkpt lat="44.1038217" lon="10.999959"><ele>527.0</ele><time>2026-04-06T16:07:48.772Z</time></trkpt><trkpt lat="44.1039005" lon="10.9999812"><ele>527.0</ele><time>2026-04-06T16:07:49.771Z</time></trkpt><trkpt lat="44.1040309" lon="10.9999335"><ele>523.8000000000001</ele><time>2026-04-06T16:07:50.772Z</time></trkpt><trkpt lat="44.1040882" lon="10.999897"><ele>520.6</ele><time>2026-04-06T16:07:51.777Z</time></trkpt><trkpt lat="44.104205" lon="10.9998336"><ele>517.4000000000001</ele><time>2026-04-06T16:07:52.772Z</time></trkpt><trkpt lat="44.1043001" lon="10.9997685"><ele>514.2</ele><time>2026-04-06T16:07:53.772Z</time></trkpt><trkpt lat="44.1043943" lon="10.9997171"><ele>511.0</ele><time>2026-04-06T16:07:54.778Z</time></trkpt><trkpt lat="44.1044952" lon="10.9996447"><ele>511.0</ele><time>2026-04-06T16:07:55.772Z</time></trkpt><trkpt lat="44.1046066" lon="10.9995699"><ele>511.0</ele><time>2026-04-06T16:07:56.773Z</time></trkpt><trkpt lat="44.1047124" lon="10.9995007"><ele>511.0</ele><time>2026-04-06T16:07:57.77Z</time></trkpt><trkpt lat="44.1048102" lon="10.9994505"><ele>511.0</ele><time>2026-04-06T16:07:58.774Z</time></trkpt><trkpt lat="44.104919" lon="10.9994138"><ele>509.0</ele><time>2026-04-06T16:07:59.772Z</time></trkpt><trkpt lat="44.1050051" lon="10.9994095"><ele>507.0</ele><time>2026-04-06T16:08:00.774Z</time></trkpt><trkpt lat="44.105116" lon="10.9994501"><ele>505.0</ele><time>2026-04-06T16:08:01.77Z</time></trkpt><trkpt lat="44.1052575" lon="10.9995022"><ele>503.0</ele><time>2026-04-06T16:08:02.772Z</time></trkpt><trkpt lat="44.1053964" lon="10.9994907"><ele>503.0</ele><time>2026-04-06T16:08:03.772Z</time></trkpt><trkpt lat="44.1055254" lon="10.9994546"><ele>503.0</ele><time>2026-04-06T16:08:04.771Z</time></trkpt><trkpt lat="44.1056708" lon="10.9993954"><ele>503.0</ele><time>2026-04-06T16:08:05.77Z</time></trkpt><trkpt lat="44.1058224" lon="10.9993758"><ele>503.0</ele><time>2026-04-06T16:08:06.773Z</time></trkpt><trkpt lat="44.1059702" lon="10.9994332"><ele>502.3333333333333</ele><time>2026-04-06T16:08:07.768Z</time></trkpt><trkpt lat="44.1061137" lon="10.9995913"><ele>501.66666666666663</ele><time>2026-04-06T16:08:08.769Z</time></trkpt><trkpt lat="44.1062499" lon="10.9997209"><ele>501.0</ele><time>2026-04-06T16:08:09.769Z</time></trkpt><trkpt lat="44.1063722" lon="10.9998565"><ele>501.0</ele><time>2026-04-06T16:08:10.771Z</time></trkpt><trkpt lat="44.1064984" lon="11.000018"><ele>501.0</ele><time>2026-04-06T16:08:11.776Z</time></trkpt><trkpt lat="44.1066101" lon="11.000206"><ele>501.0</ele><time>2026-04-06T16:08:12.775Z</time></trkpt><trkpt lat="44.1066954" lon="11.000419"><ele>504.0</ele><time>2026-04-06T16:08:13.772Z</time></trkpt><trkpt lat="44.1066812" lon="11.0006753"><ele>507.0</ele><time>2026-04-06T16:08:14.772Z</time></trkpt><trkpt lat="44.1067203" lon="11.0009118"><ele>510.0</ele><time>2026-04-06T16:08:15.773Z</time></trkpt><trkpt lat="44.1067733" lon="11.0011377"><ele>510.0</ele><time>2026-04-06T16:08:16.773Z</time></trkpt><trkpt lat="44.1068309" lon="11.0013628"><ele>510.0</ele><time>2026-04-06T16:08:17.777Z</time></trkpt><trkpt lat="44.1069151" lon="11.0015912"><ele>510.0</ele><time>2026-04-06T16:08:18.768Z</time></trkpt><trkpt lat="44.1070137" lon="11.0018059"><ele>506.66666666666663</ele><time>2026-04-06T16:08:19.775Z</time></trkpt><trkpt lat="44.1071377" lon="11.00201"><ele>503.3333333333333</ele><time>2026-04-06T16:08:20.777Z</time></trkpt><trkpt lat="44.107265" lon="11.0022119"><ele>500.0</ele><time>2026-04-06T16:08:21.769Z</time></trkpt><trkpt lat="44.1073672" lon="11.0024194"><ele>500.0</ele><time>2026-04-06T16:08:22.769Z</time></trkpt><trkpt lat="44.1074926" lon="11.0025867"><ele>500.0</ele><time>2026-04-06T16:08:23.771Z</time></trkpt><trkpt lat="44.1076412" lon="11.0027028"><ele>500.0</ele><time>2026-04-06T16:08:24.772Z</time></trkpt><trkpt lat="44.1077719" lon="11.0028022"><ele>500.0</ele><time>2026-04-06T16:08:25.768Z</time></trkpt><trkpt lat="44.107935" lon="11.002876"><ele>500.0</ele><time>2026-04-06T16:08:26.775Z</time></trkpt><trkpt lat="44.1081086" lon="11.002902"><ele>500.0</ele><time>2026-04-06T16:08:27.771Z</time></trkpt><trkpt lat="44.1082947" lon="11.00293"><ele>505.66666666666663</ele><time>2026-04-06T16:08:28.773Z</time></trkpt><trkpt lat="44.1085072" lon="11.0028975"><ele>511.33333333333337</ele><time>2026-04-06T16:08:29.777Z</time></trkpt><trkpt lat="44.1086675" lon="11.0029247"><ele>517.0</ele><time>2026-04-06T16:08:30.77Z</time></trkpt><trkpt lat="44.1088013" lon="11.0029497"><ele>517.0</ele><time>2026-04-06T16:08:31.767Z</time></trkpt><trkpt lat="44.1089235" lon="11.0029585"><ele>517.0</ele><time>2026-04-06T16:08:32.773Z</time></trkpt><trkpt lat="44.1090344" lon="11.0029408"><ele>517.0</ele><time>2026-04-06T16:08:33.77Z</time></trkpt><trkpt lat="44.1091305" lon="11.002875"><ele>517.0</ele><time>2026-04-06T16:08:34.769Z</time></trkpt><trkpt lat="44.1091954" lon="11.0028073"><ele>517.0</ele><time>2026-04-06T16:08:35.767Z</time></trkpt><trkpt lat="44.1093571" lon="11.002617"><ele>524.3333333333334</ele><time>2026-04-06T16:08:36.768Z</time></trkpt><trkpt lat="44.1094785" lon="11.0024951"><ele>531.6666666666666</ele><time>2026-04-06T16:08:37.771Z</time></trkpt><trkpt lat="44.1096068" lon="11.0023439"><ele>539.0</ele><time>2026-04-06T16:08:38.771Z</time></trkpt><trkpt lat="44.1098032" lon="11.002164"><ele>522.0</ele><time>2026-04-06T16:08:39.774Z</time></trkpt><trkpt lat="44.1099256" lon="11.0019668"><ele>505.0</ele><time>2026-04-06T16:08:40.768Z</time></trkpt><trkpt lat="44.110089" lon="11.0018423"><ele>488.0</ele><time>2026-04-06T16:08:41.771Z</time></trkpt><trkpt lat="44.1102489" lon="11.0017779"><ele>488.0</ele><time>2026-04-06T16:08:42.777Z</time></trkpt><trkpt lat="44.1103487" lon="11.0017431"><ele>488.0</ele><time>2026-04-06T16:08:43.772Z</time></trkpt><trkpt lat="44.1104663" lon="11.0017562"><ele>488.0</ele><time>2026-04-06T16:08:44.772Z</time></trkpt><trkpt lat="44.110651" lon="11.0017693"><ele>488.0</ele><time>2026-04-06T16:08:45.769Z</time></trkpt><trkpt lat="44.1108231" lon="11.0017593"><ele>489.5</ele><time>2026-04-06T16:08:46.776Z</time></trkpt><trkpt lat="44.1109696" lon="11.0017605"><ele>491.0</ele><time>2026-04-06T16:08:47.774Z</time></trkpt><trkpt lat="44.1110736" lon="11.0017513"><ele>492.5</ele><time>2026-04-06T16:08:48.77Z</time></trkpt><trkpt lat="44.1111809" lon="11.0017012"><ele>494.0</ele><time>2026-04-06T16:08:49.769Z</time></trkpt><trkpt lat="44.1112677" lon="11.0015956"><ele>504.3333333333333</ele><time>2026-04-06T16:08:50.772Z</time></trkpt><trkpt lat="44.1113901" lon="11.0014466"><ele>514.6666666666666</ele><time>2026-04-06T16:08:51.772Z</time></trkpt><trkpt lat="44.1115393" lon="11.0012872"><ele>525.0</ele><time>2026-04-06T16:08:52.771Z</time></trkpt><trkpt lat="44.1116777" lon="11.0011555"><ele>525.0</ele><time>2026-04-06T16:08:53.779Z</time></trkpt><trkpt lat="44.1118056" lon="11.0010925"><ele>525.0</ele><time>2026-04-06T16:08:54.772Z</time></trkpt><trkpt lat="44.1119016" lon="11.0010469"><ele>525.0</ele><time>2026-04-06T16:08:55.771Z</time></trkpt><trkpt lat="44.1120338" lon="11.0010976"><ele>525.0</ele><time>2026-04-06T16:08:56.769Z</time></trkpt><trkpt lat="44.1121836" lon="11.0011971"><ele>525.0</ele><time>2026-04-06T16:08:57.772Z</time></trkpt><trkpt lat="44.1123111" lon="11.0012448"><ele>525.0</ele><time>2026-04-06T16:08:58.776Z</time></trkpt><trkpt lat="44.112437" lon="11.0013555"><ele>525.0</ele><time>2026-04-06T16:08:59.77Z</time></trkpt><trkpt lat="44.1125721" lon="11.0015293"><ele>515.3333333333334</ele><time>2026-04-06T16:09:00.771Z</time></trkpt><trkpt lat="44.1127224" lon="11.0017657"><ele>505.6666666666667</ele><time>2026-04-06T16:09:01.771Z</time></trkpt><trkpt lat="44.11283" lon="11.0019613"><ele>496.0</ele><time>2026-04-06T16:09:02.769Z</time></trkpt><trkpt lat="44.1129757" lon="11.0021305"><ele>496.0</ele><time>2026-04-06T16:09:03.77Z</time></trkpt><trkpt lat="44.1131098" lon="11.0023001"><ele>496.0</ele><time>2026-04-06T16:09:04.776Z</time></trkpt><trkpt lat="44.1132622" lon="11.0024567"><ele>496.0</ele><time>2026-04-06T16:09:05.768Z</time></trkpt><trkpt lat="44.1133933" lon="11.0026478"><ele>497.33333333333337</ele><time>2026-04-06T16:09:06.769Z</time></trkpt><trkpt lat="44.1135549" lon="11.0028202"><ele>498.66666666666663</ele><time>2026-04-06T16:09:07.773Z</time></trkpt><trkpt lat="44.1137185" lon="11.0029783"><ele>500.0</ele><time>2026-04-06T16:09:08.771Z</time></trkpt><trkpt lat="44.1138835" lon="11.0031483"><ele>500.0</ele><time>2026-04-06T16:09:09.776Z</time></trkpt><trkpt lat="44.1140547" lon="11.0032874"><ele>500.0</ele><time>2026-04-06T16:09:10.776Z</time></trkpt><trkpt lat="44.1142267" lon="11.0034352"><ele>500.0</ele><time>2026-04-06T16:09:11.771Z</time></trkpt><trkpt lat="44.1144118" lon="11.0035565"><ele>498.3333333333333</ele><time>2026-04-06T16:09:12.777Z</time></trkpt><trkpt lat="44.114635" lon="11.0036529"><ele>496.66666666666663</ele><time>2026-04-06T16:09:13.773Z</time></trkpt><trkpt lat="44.114817" lon="11.0037719"><ele>495.0</ele><time>2026-04-06T16:09:14.772Z</time></trkpt><trkpt lat="44.1149946" lon="11.003875"><ele>492.33333333333337</ele><time>2026-04-06T16:09:15.77Z</time></trkpt><trkpt lat="44.1151627" lon="11.0040125"><ele>489.6666666666667</ele><time>2026-04-06T16:09:16.773Z</time></trkpt><trkpt lat="44.1153207" lon="11.0040933"><ele>487.0</ele><time>2026-04-06T16:09:17.771Z</time></trkpt><trkpt lat="44.115462" lon="11.0041803"><ele>487.0</ele><time>2026-04-06T16:09:18.766Z</time></trkpt><trkpt lat="44.1156151" lon="11.0042385"><ele>487.0</ele><time>2026-04-06T16:09:19.768Z</time></trkpt><trkpt lat="44.1157973" lon="11.0042894"><ele>487.0</ele><time>2026-04-06T16:09:20.767Z</time></trkpt><trkpt lat="44.115972" lon="11.0043103"><ele>491.33333333333337</ele><time>2026-04-06T16:09:21.774Z</time></trkpt><trkpt lat="44.116127" lon="11.0043298"><ele>495.66666666666663</ele><time>2026-04-06T16:09:22.77Z</time></trkpt><trkpt lat="44.1162934" lon="11.0043347"><ele>500.0</ele><time>2026-04-06T16:09:23.771Z</time></trkpt><trkpt lat="44.1164445" lon="11.004263"><ele>498.3333333333333</ele><time>2026-04-06T16:09:24.773Z</time></trkpt><trkpt lat="44.1165984" lon="11.0041891"><ele>496.66666666666663</ele><time>2026-04-06T16:09:25.768Z</time></trkpt><trkpt lat="44.1167478" lon="11.003981"><ele>495.0</ele><time>2026-04-06T16:09:26.77Z</time></trkpt><trkpt lat="44.1169449" lon="11.0038545"><ele>507.5</ele><time>2026-04-06T16:09:27.773Z</time></trkpt><trkpt lat="44.1171266" lon="11.0036289"><ele>520.0</ele><time>2026-04-06T16:09:28.772Z</time></trkpt><trkpt lat="44.1173329" lon="11.003473"><ele>521.6666666666667</ele><time>2026-04-06T16:09:29.768Z</time></trkpt><trkpt lat="44.1174964" lon="11.0033119"><ele>523.3333333333334</ele><time>2026-04-06T16:09:30.776Z</time></trkpt><trkpt lat="44.117602" lon="11.0031487"><ele>525.0</ele><time>2026-04-06T16:09:31.769Z</time></trkpt><trkpt lat="44.1177348" lon="11.0029862"><ele>525.0</ele><time>2026-04-06T16:09:32.772Z</time></trkpt><trkpt lat="44.1178473" lon="11.0028747"><ele>525.0</ele><time>2026-04-06T16:09:33.768Z</time></trkpt><trkpt lat="44.1179988" lon="11.0027485"><ele>525.0</ele><time>2026-04-06T16:09:34.772Z</time></trkpt><trkpt lat="44.1181313" lon="11.0026604"><ele>517.0</ele><time>2026-04-06T16:09:35.772Z</time></trkpt><trkpt lat="44.1182504" lon="11.0025998"><ele>509.0</ele><time>2026-04-06T16:09:36.773Z</time></trkpt><trkpt lat="44.1184057" lon="11.0025603"><ele>501.0</ele><time>2026-04-06T16:09:37.774Z</time></trkpt><trkpt lat="44.1185746" lon="11.0026298"><ele>501.0</ele><time>2026-04-06T16:09:38.769Z</time></trkpt><trkpt lat="44.1186949" lon="11.0026626"><ele>501.0</ele><time>2026-04-06T16:09:39.77Z</time></trkpt><trkpt lat="44.1188027" lon="11.0026507"><ele>501.0</ele><time>2026-04-06T16:09:40.768Z</time></trkpt><trkpt lat="44.1189051" lon="11.0026416"><ele>501.0</ele><time>2026-04-06T16:09:41.767Z</time></trkpt><trkpt lat="44.1190008" lon="11.0025769"><ele>501.0</ele><time>2026-04-06T16:09:42.769Z</time></trkpt><trkpt lat="44.11917" lon="11.0024723"><ele>507.5</ele><time>2026-04-06T16:09:43.769Z</time></trkpt><trkpt lat="44.1193177" lon="11.0024498"><ele>514.0</ele><time>2026-04-06T16:09:44.773Z</time></trkpt><trkpt lat="44.1194327" lon="11.0024004"><ele>520.5</ele><time>2026-04-06T16:09:45.773Z</time></trkpt><trkpt lat="44.1195919" lon="11.002397"><ele>527.0</ele><time>2026-04-06T16:09:46.771Z</time></trkpt><trkpt lat="44.119727" lon="11.0024439"><ele>515.75</ele><time>2026-04-06T16:09:47.777Z</time></trkpt><trkpt lat="44.1199142" lon="11.0025607"><ele>504.5</ele><time>2026-04-06T16:09:48.796Z</time></trkpt><trkpt lat="44.1200286" lon="11.0025996"><ele>493.25</ele><time>2026-04-06T16:09:49.768Z</time></trkpt><trkpt lat="44.1201502" lon="11.0026356"><ele>482.0</ele><time>2026-04-06T16:09:50.774Z</time></trkpt><trkpt lat="44.1202897" lon="11.0026215"><ele>482.0</ele><time>2026-04-06T16:09:51.773Z</time></trkpt><trkpt lat="44.1203909" lon="11.0025462"><ele>482.0</ele><time>2026-04-06T16:09:52.772Z</time></trkpt><trkpt lat="44.1205111" lon="11.0024861"><ele>482.0</ele><time>2026-04-06T16:09:53.771Z</time></trkpt><trkpt lat="44.1206505" lon="11.0024538"><ele>482.0</ele><time>2026-04-06T16:09:54.771Z</time></trkpt><trkpt lat="44.1207795" lon="11.0024248"><ele>482.40000000000003</ele><time>2026-04-06T16:09:55.77Z</time></trkpt><trkpt lat="44.1208763" lon="11.0024428"><ele>482.80000000000007</ele><time>2026-04-06T16:09:56.773Z</time></trkpt><trkpt lat="44.1209857" lon="11.0024688"><ele>483.2</ele><time>2026-04-06T16:09:57.772Z</time></trkpt><trkpt lat="44.1210886" lon="11.0025384"><ele>483.6</ele><time>2026-04-06T16:09:58.772Z</time></trkpt><trkpt lat="44.1212076" lon="11.0025698"><ele>484.0</ele><time>2026-04-06T16:09:59.771Z</time></trkpt><trkpt lat="44.1212872" lon="11.002604"><ele>483.0</ele><time>2026-04-06T16:10:00.77Z</time></trkpt><trkpt lat="44.1213602" lon="11.0026391"><ele>482.0</ele><time>2026-04-06T16:10:01.769Z</time></trkpt><trkpt lat="44.1214451" lon="11.0026223"><ele>481.0</ele><time>2026-04-06T16:10:02.77Z</time></trkpt><trkpt lat="44.1215275" lon="11.0025724"><ele>480.0</ele><time>2026-04-06T16:10:03.772Z</time></trkpt><trkpt lat="44.1216397" lon="11.0024833"><ele>479.0</ele><time>2026-04-06T16:10:04.773Z</time></trkpt><trkpt lat="44.1217909" lon="11.0023447"><ele>479.0</ele><time>2026-04-06T16:10:05.768Z</time></trkpt><trkpt lat="44.1219383" lon="11.0022389"><ele>479.0</ele><time>2026-04-06T16:10:06.772Z</time></trkpt><trkpt lat="44.122084" lon="11.0021569"><ele>479.0</ele><time>2026-04-06T16:10:07.775Z</time></trkpt><trkpt lat="44.122224" lon="11.0020476"><ele>479.0</ele><time>2026-04-06T16:10:08.776Z</time></trkpt><trkpt lat="44.1223585" lon="11.0019613"><ele>479.0</ele><time>2026-04-06T16:10:09.77Z</time></trkpt><trkpt lat="44.1224833" lon="11.001879"><ele>479.0</ele><time>2026-04-06T16:10:10.77Z</time></trkpt><trkpt lat="44.1226146" lon="11.0018083"><ele>479.0</ele><time>2026-04-06T16:10:11.776Z</time></trkpt><trkpt lat="44.1227317" lon="11.0017574"><ele>477.25</ele><time>2026-04-06T16:10:12.772Z</time></trkpt><trkpt lat="44.122883" lon="11.0018094"><ele>475.5</ele><time>2026-04-06T16:10:13.767Z</time></trkpt><trkpt lat="44.1230099" lon="11.0018727"><ele>473.75</ele><time>2026-04-06T16:10:14.762Z</time></trkpt><trkpt lat="44.1231588" lon="11.0019349"><ele>472.0</ele><time>2026-04-06T16:10:15.773Z</time></trkpt><trkpt lat="44.1233252" lon="11.0020372"><ele>471.6666666666667</ele><time>2026-04-06T16:10:16.772Z</time></trkpt><trkpt lat="44.1235009" lon="11.0020704"><ele>471.33333333333337</ele><time>2026-04-06T16:10:17.772Z</time></trkpt><trkpt lat="44.123662" lon="11.0020732"><ele>471.0</ele><time>2026-04-06T16:10:18.778Z</time></trkpt><trkpt lat="44.1238113" lon="11.0020715"><ele>471.0</ele><time>2026-04-06T16:10:19.778Z</time></trkpt><trkpt lat="44.1239458" lon="11.0020408"><ele>471.0</ele><time>2026-04-06T16:10:20.774Z</time></trkpt><trkpt lat="44.124081" lon="11.0019696"><ele>471.0</ele><time>2026-04-06T16:10:21.771Z</time></trkpt><trkpt lat="44.124157" lon="11.0018765"><ele>471.0</ele><time>2026-04-06T16:10:22.771Z</time></trkpt><trkpt lat="44.1242329" lon="11.0017709"><ele>472.25</ele><time>2026-04-06T16:10:23.773Z</time></trkpt><trkpt lat="44.1242937" lon="11.0016296"><ele>473.5</ele><time>2026-04-06T16:10:24.772Z</time></trkpt><trkpt lat="44.1243762" lon="11.0014695"><ele>474.75</ele><time>2026-04-06T16:10:25.774Z</time></trkpt><trkpt lat="44.1244427" lon="11.0013466"><ele>476.0</ele><time>2026-04-06T16:10:26.777Z</time></trkpt><trkpt lat="44.1245372" lon="11.0012194"><ele>476.0</ele><time>2026-04-06T16:10:27.772Z</time></trkpt><trkpt lat="44.1246442" lon="11.001153"><ele>476.0</ele><time>2026-04-06T16:10:28.773Z</time></trkpt><trkpt lat="44.1247402" lon="11.0010757"><ele>476.0</ele><time>2026-04-06T16:10:29.769Z</time></trkpt><trkpt lat="44.1248068" lon="11.0009408"><ele>476.0</ele><time>2026-04-06T16:10:30.774Z</time></trkpt><trkpt lat="44.1248568" lon="11.0008033"><ele>471.25</ele><time>2026-04-06T16:10:31.776Z</time></trkpt><trkpt lat="44.1249059" lon="11.0006359"><ele>466.5</ele><time>2026-04-06T16:10:32.774Z</time></trkpt><trkpt lat="44.124972" lon="11.0004602"><ele>461.75</ele><time>2026-04-06T16:10:33.772Z</time></trkpt><trkpt lat="44.1250699" lon="11.000281"><ele>457.0</ele><time>2026-04-06T16:10:34.773Z</time></trkpt><trkpt lat="44.1251721" lon="11.0001146"><ele>457.0</ele><time>2026-04-06T16:10:35.772Z</time></trkpt><trkpt lat="44.1252933" lon="10.9999482"><ele>457.0</ele><time>2026-04-06T16:10:36.774Z</time></trkpt><trkpt lat="44.1254023" lon="10.9997955"><ele>457.0</ele><time>2026-04-06T16:10:37.775Z</time></trkpt><trkpt lat="44.1254854" lon="10.9996599"><ele>457.0</ele><time>2026-04-06T16:10:38.772Z</time></trkpt><trkpt lat="44.1255692" lon="10.9995037"><ele>457.0</ele><time>2026-04-06T16:10:39.768Z</time></trkpt><trkpt lat="44.1256377" lon="10.9993391"><ele>457.0</ele><time>2026-04-06T16:10:40.77Z</time></trkpt><trkpt lat="44.1256703" lon="10.9991483"><ele>457.0</ele><time>2026-04-06T16:10:41.772Z</time></trkpt><trkpt lat="44.1257068" lon="10.9989784"><ele>451.25</ele><time>2026-04-06T16:10:42.776Z</time></trkpt><trkpt lat="44.1257439" lon="10.9988036"><ele>445.5</ele><time>2026-04-06T16:10:43.769Z</time></trkpt><trkpt lat="44.1258247" lon="10.9986492"><ele>439.75</ele><time>2026-04-06T16:10:44.769Z</time></trkpt><trkpt lat="44.1259074" lon="10.9985226"><ele>434.0</ele><time>2026-04-06T16:10:45.775Z</time></trkpt><trkpt lat="44.1259831" lon="10.9984046"><ele>438.66666666666663</ele><time>2026-04-06T16:10:46.773Z</time></trkpt><trkpt lat="44.1260988" lon="10.9982457"><ele>443.33333333333337</ele><time>2026-04-06T16:10:47.774Z</time></trkpt><trkpt lat="44.1262133" lon="10.9980974"><ele>448.0</ele><time>2026-04-06T16:10:48.769Z</time></trkpt><trkpt lat="44.1263222" lon="10.9979375"><ele>448.0</ele><time>2026-04-06T16:10:49.769Z</time></trkpt><trkpt lat="44.1264586" lon="10.9978037"><ele>448.0</ele><time>2026-04-06T16:10:50.773Z</time></trkpt><trkpt lat="44.1265919" lon="10.9976793"><ele>448.0</ele><time>2026-04-06T16:10:51.773Z</time></trkpt><trkpt lat="44.126734" lon="10.9975828"><ele>444.0</ele><time>2026-04-06T16:10:52.771Z</time></trkpt><trkpt lat="44.1268783" lon="10.9974826"><ele>440.0</ele><time>2026-04-06T16:10:53.778Z</time></trkpt><trkpt lat="44.1270021" lon="10.997356"><ele>436.0</ele><time>2026-04-06T16:10:54.778Z</time></trkpt><trkpt lat="44.1271138" lon="10.9972491"><ele>436.0</ele><time>2026-04-06T16:10:55.773Z</time></trkpt><trkpt lat="44.1272417" lon="10.9971699"><ele>436.0</ele><time>2026-04-06T16:10:56.774Z</time></trkpt><trkpt lat="44.1273656" lon="10.9970936"><ele>436.0</ele><time>2026-04-06T16:10:57.774Z</time></trkpt><trkpt lat="44.127495" lon="10.9970249"><ele>436.0</ele><time>2026-04-06T16:10:58.769Z</time></trkpt><trkpt lat="44.1275967" lon="10.9968807"><ele>434.25</ele><time>2026-04-06T16:10:59.775Z</time></trkpt><trkpt lat="44.1276998" lon="10.9967238"><ele>432.5</ele><time>2026-04-06T16:11:00.774Z</time></trkpt><trkpt lat="44.1277997" lon="10.9966202"><ele>430.75</ele><time>2026-04-06T16:11:01.775Z</time></trkpt><trkpt lat="44.1279086" lon="10.9965148"><ele>429.0</ele><time>2026-04-06T16:11:02.775Z</time></trkpt><trkpt lat="44.1279784" lon="10.9963721"><ele>429.0</ele><time>2026-04-06T16:11:03.772Z</time></trkpt><trkpt lat="44.128043" lon="10.996208"><ele>429.0</ele><time>2026-04-06T16:11:04.769Z</time></trkpt><trkpt lat="44.1281126" lon="10.9960386"><ele>429.0</ele><time>2026-04-06T16:11:05.77Z</time></trkpt><trkpt lat="44.1281626" lon="10.9958743"><ele>429.0</ele><time>2026-04-06T16:11:06.772Z</time></trkpt><trkpt lat="44.1281861" lon="10.9957373"><ele>430.75</ele><time>2026-04-06T16:11:07.774Z</time></trkpt><trkpt lat="44.128165" lon="10.995551"><ele>432.5</ele><time>2026-04-06T16:11:08.777Z</time></trkpt><trkpt lat="44.1281332" lon="10.9953488"><ele>434.25</ele><time>2026-04-06T16:11:09.773Z</time></trkpt><trkpt lat="44.1281181" lon="10.9951561"><ele>436.0</ele><time>2026-04-06T16:11:10.774Z</time></trkpt><trkpt lat="44.1280472" lon="10.9949577"><ele>436.0</ele><time>2026-04-06T16:11:11.785Z</time></trkpt><trkpt lat="44.1280447" lon="10.9947647"><ele>436.0</ele><time>2026-04-06T16:11:12.772Z</time></trkpt><trkpt lat="44.1279986" lon="10.9945689"><ele>436.0</ele><time>2026-04-06T16:11:13.77Z</time></trkpt><trkpt lat="44.1279837" lon="10.9943596"><ele>436.0</ele><time>2026-04-06T16:11:14.775Z</time></trkpt><trkpt lat="44.1279726" lon="10.9941693"><ele>434.4</ele><time>2026-04-06T16:11:15.77Z</time></trkpt><trkpt lat="44.1279862" lon="10.9939861"><ele>432.8</ele><time>2026-04-06T16:11:16.772Z</time></trkpt><trkpt lat="44.1280025" lon="10.9938411"><ele>431.19999999999993</ele><time>2026-04-06T16:11:17.776Z</time></trkpt><trkpt lat="44.1280235" lon="10.9937306"><ele>429.59999999999997</ele><time>2026-04-06T16:11:18.776Z</time></trkpt><trkpt lat="44.1280398" lon="10.9936177"><ele>428.0</ele><time>2026-04-06T16:11:19.776Z</time></trkpt><trkpt lat="44.128079" lon="10.9934865"><ele>426.25</ele><time>2026-04-06T16:11:20.772Z</time></trkpt><trkpt lat="44.1281374" lon="10.993336"><ele>424.5</ele><time>2026-04-06T16:11:21.774Z</time></trkpt><trkpt lat="44.1281789" lon="10.9931952"><ele>422.75</ele><time>2026-04-06T16:11:22.771Z</time></trkpt><trkpt lat="44.1282211" lon="10.9930494"><ele>421.0</ele><time>2026-04-06T16:11:23.772Z</time></trkpt><trkpt lat="44.1282556" lon="10.9928898"><ele>421.0</ele><time>2026-04-06T16:11:24.773Z</time></trkpt><trkpt lat="44.1282261" lon="10.992717"><ele>421.0</ele><time>2026-04-06T16:11:25.779Z</time></trkpt><trkpt lat="44.128218" lon="10.9925365"><ele>421.0</ele><time>2026-04-06T16:11:26.77Z</time></trkpt><trkpt lat="44.1282297" lon="10.9923493"><ele>421.0</ele><time>2026-04-06T16:11:27.77Z</time></trkpt><trkpt lat="44.128235" lon="10.9921855"><ele>417.20000000000005</ele><time>2026-04-06T16:11:28.774Z</time></trkpt><trkpt lat="44.1282399" lon="10.9920409"><ele>413.40000000000003</ele><time>2026-04-06T16:11:29.77Z</time></trkpt><trkpt lat="44.1282715" lon="10.9919063"><ele>409.6</ele><time>2026-04-06T16:11:30.766Z</time></trkpt><trkpt lat="44.1283222" lon="10.9918115"><ele>405.8</ele><time>2026-04-06T16:11:31.77Z</time></trkpt><trkpt lat="44.1283895" lon="10.9917264"><ele>402.0</ele><time>2026-04-06T16:11:32.767Z</time></trkpt><trkpt lat="44.1285034" lon="10.991712"><ele>402.0</ele><time>2026-04-06T16:11:33.774Z</time></trkpt><trkpt lat="44.1286341" lon="10.9917261"><ele>402.0</ele><time>2026-04-06T16:11:34.773Z</time></trkpt><trkpt lat="44.1287653" lon="10.9917375"><ele>402.0</ele><time>2026-04-06T16:11:35.777Z</time></trkpt><trkpt lat="44.1288693" lon="10.9917037"><ele>402.0</ele><time>2026-04-06T16:11:36.777Z</time></trkpt><trkpt lat="44.1289811" lon="10.9916788"><ele>401.40000000000003</ele><time>2026-04-06T16:11:37.771Z</time></trkpt><trkpt lat="44.1290898" lon="10.9916631"><ele>400.8</ele><time>2026-04-06T16:11:38.778Z</time></trkpt><trkpt lat="44.1291734" lon="10.9916684"><ele>400.2</ele><time>2026-04-06T16:11:39.773Z</time></trkpt><trkpt lat="44.1292712" lon="10.9916584"><ele>399.6</ele><time>2026-04-06T16:11:40.774Z</time></trkpt><trkpt lat="44.1293571" lon="10.9916135"><ele>399.0</ele><time>2026-04-06T16:11:41.774Z</time></trkpt><trkpt lat="44.129457" lon="10.9915669"><ele>399.0</ele><time>2026-04-06T16:11:42.78Z</time></trkpt><trkpt lat="44.1295723" lon="10.9915311"><ele>399.0</ele><time>2026-04-06T16:11:43.766Z</time></trkpt><trkpt lat="44.1296731" lon="10.9914871"><ele>399.0</ele><time>2026-04-06T16:11:44.774Z</time></trkpt><trkpt lat="44.1297687" lon="10.991455"><ele>399.0</ele><time>2026-04-06T16:11:45.775Z</time></trkpt><trkpt lat="44.1298589" lon="10.9914497"><ele>399.0</ele><time>2026-04-06T16:11:46.771Z</time></trkpt><trkpt lat="44.1299683" lon="10.9914386"><ele>400.2</ele><time>2026-04-06T16:11:47.772Z</time></trkpt><trkpt lat="44.1300516" lon="10.9914213"><ele>401.4</ele><time>2026-04-06T16:11:48.771Z</time></trkpt><trkpt lat="44.1301522" lon="10.9913811"><ele>402.6</ele><time>2026-04-06T16:11:49.774Z</time></trkpt><trkpt lat="44.1302431" lon="10.9913619"><ele>403.8</ele><time>2026-04-06T16:11:50.769Z</time></trkpt><trkpt lat="44.1303457" lon="10.9913414"><ele>405.0</ele><time>2026-04-06T16:11:51.772Z</time></trkpt><trkpt lat="44.1304565" lon="10.9913188"><ele>405.0</ele><time>2026-04-06T16:11:52.772Z</time></trkpt><trkpt lat="44.1305676" lon="10.9912988"><ele>405.0</ele><time>2026-04-06T16:11:53.769Z</time></trkpt><trkpt lat="44.1306729" lon="10.9912828"><ele>405.0</ele><time>2026-04-06T16:11:54.765Z</time></trkpt><trkpt lat="44.1307845" lon="10.9912418"><ele>405.0</ele><time>2026-04-06T16:11:55.763Z</time></trkpt><trkpt lat="44.1308975" lon="10.991216"><ele>405.0</ele><time>2026-04-06T16:11:56.771Z</time></trkpt><trkpt lat="44.13101" lon="10.9912072"><ele>404.4</ele><time>2026-04-06T16:11:57.777Z</time></trkpt><trkpt lat="44.1311164" lon="10.9911841"><ele>403.8</ele><time>2026-04-06T16:11:58.766Z</time></trkpt><trkpt lat="44.1312169" lon="10.9911692"><ele>403.20000000000005</ele><time>2026-04-06T16:11:59.771Z</time></trkpt><trkpt lat="44.1313145" lon="10.9911381"><ele>402.6</ele><time>2026-04-06T16:12:00.767Z</time></trkpt><trkpt lat="44.1314381" lon="10.9911158"><ele>402.0</ele><time>2026-04-06T16:12:01.769Z</time></trkpt><trkpt lat="44.1315433" lon="10.9910974"><ele>402.0</ele><time>2026-04-06T16:12:02.774Z</time></trkpt><trkpt lat="44.1316428" lon="10.9910509"><ele>402.0</ele><time>2026-04-06T16:12:03.777Z</time></trkpt><trkpt lat="44.1317529" lon="10.9910147"><ele>402.0</ele><time>2026-04-06T16:12:04.764Z</time></trkpt><trkpt lat="44.1318467" lon="10.9909923"><ele>402.0</ele><time>2026-04-06T16:12:05.767Z</time></trkpt><trkpt lat="44.1319326" lon="10.9909529"><ele>402.0</ele><time>2026-04-06T16:12:06.767Z</time></trkpt><trkpt lat="44.1320065" lon="10.9909314"><ele>402.0</ele><time>2026-04-06T16:12:07.775Z</time></trkpt><trkpt lat="44.1320961" lon="10.9908956"><ele>402.0</ele><time>2026-04-06T16:12:08.771Z</time></trkpt><trkpt lat="44.1321811" lon="10.9908207"><ele>402.0</ele><time>2026-04-06T16:12:09.778Z</time></trkpt><trkpt lat="44.1322816" lon="10.9907776"><ele>402.0</ele><time>2026-04-06T16:12:10.774Z</time></trkpt><trkpt lat="44.1324013" lon="10.9907152"><ele>402.0</ele><time>2026-04-06T16:12:11.771Z</time></trkpt><trkpt lat="44.1325128" lon="10.9906612"><ele>402.5</ele><time>2026-04-06T16:12:12.771Z</time></trkpt><trkpt lat="44.1326276" lon="10.9905859"><ele>403.0</ele><time>2026-04-06T16:12:13.774Z</time></trkpt><trkpt lat="44.132748" lon="10.9905126"><ele>403.5</ele><time>2026-04-06T16:12:14.774Z</time></trkpt><trkpt lat="44.1328685" lon="10.9904281"><ele>404.0</ele><time>2026-04-06T16:12:15.771Z</time></trkpt><trkpt lat="44.1329694" lon="10.990319"><ele>404.0</ele><time>2026-04-06T16:12:16.775Z</time></trkpt><trkpt lat="44.133065" lon="10.9902009"><ele>404.0</ele><time>2026-04-06T16:12:17.778Z</time></trkpt><trkpt lat="44.1331673" lon="10.9900842"><ele>404.0</ele><time>2026-04-06T16:12:18.777Z</time></trkpt><trkpt lat="44.1332677" lon="10.9899623"><ele>404.0</ele><time>2026-04-06T16:12:19.773Z</time></trkpt><trkpt lat="44.133377" lon="10.9898545"><ele>403.25</ele><time>2026-04-06T16:12:20.768Z</time></trkpt><trkpt lat="44.1334923" lon="10.9897617"><ele>402.5</ele><time>2026-04-06T16:12:21.776Z</time></trkpt><trkpt lat="44.1336149" lon="10.9896808"><ele>401.75</ele><time>2026-04-06T16:12:22.77Z</time></trkpt><trkpt lat="44.1337426" lon="10.9896091"><ele>401.0</ele><time>2026-04-06T16:12:23.772Z</time></trkpt><trkpt lat="44.1338615" lon="10.9895498"><ele>401.0</ele><time>2026-04-06T16:12:24.778Z</time></trkpt><trkpt lat="44.1339833" lon="10.9894756"><ele>401.0</ele><time>2026-04-06T16:12:25.771Z</time></trkpt><trkpt lat="44.1340939" lon="10.9894066"><ele>401.0</ele><time>2026-04-06T16:12:26.777Z</time></trkpt><trkpt lat="44.1342137" lon="10.9893464"><ele>401.0</ele><time>2026-04-06T16:12:27.776Z</time></trkpt><trkpt lat="44.1343268" lon="10.9892857"><ele>398.25</ele><time>2026-04-06T16:12:28.776Z</time></trkpt><trkpt lat="44.1344469" lon="10.9892399"><ele>395.5</ele><time>2026-04-06T16:12:29.771Z</time></trkpt><trkpt lat="44.1345681" lon="10.9892325"><ele>392.75</ele><time>2026-04-06T16:12:30.774Z</time></trkpt><trkpt lat="44.1346942" lon="10.9892347"><ele>390.0</ele><time>2026-04-06T16:12:31.77Z</time></trkpt><trkpt lat="44.1348385" lon="10.9892648"><ele>390.0</ele><time>2026-04-06T16:12:32.775Z</time></trkpt><trkpt lat="44.1349801" lon="10.989295"><ele>390.0</ele><time>2026-04-06T16:12:33.766Z</time></trkpt><trkpt lat="44.1350911" lon="10.9893161"><ele>390.0</ele><time>2026-04-06T16:12:34.77Z</time></trkpt><trkpt lat="44.1352294" lon="10.9893529"><ele>390.0</ele><time>2026-04-06T16:12:35.771Z</time></trkpt><trkpt lat="44.1353629" lon="10.9894015"><ele>390.0</ele><time>2026-04-06T16:12:36.771Z</time></trkpt><trkpt lat="44.135481" lon="10.9894454"><ele>390.0</ele><time>2026-04-06T16:12:37.777Z</time></trkpt><trkpt lat="44.1355918" lon="10.9894773"><ele>390.0</ele><time>2026-04-06T16:12:38.773Z</time></trkpt><trkpt lat="44.1357018" lon="10.9895225"><ele>390.0</ele><time>2026-04-06T16:12:39.773Z</time></trkpt><trkpt lat="44.1358244" lon="10.9895848"><ele>390.5</ele><time>2026-04-06T16:12:40.773Z</time></trkpt><trkpt lat="44.1359453" lon="10.9896365"><ele>391.0</ele><time>2026-04-06T16:12:41.772Z</time></trkpt><trkpt lat="44.1360714" lon="10.989691"><ele>391.5</ele><time>2026-04-06T16:12:42.774Z</time></trkpt><trkpt lat="44.1361835" lon="10.989752"><ele>392.0</ele><time>2026-04-06T16:12:43.771Z</time></trkpt><trkpt lat="44.1362912" lon="10.9898099"><ele>392.0</ele><time>2026-04-06T16:12:44.777Z</time></trkpt><trkpt lat="44.1363907" lon="10.9898966"><ele>392.0</ele><time>2026-04-06T16:12:45.769Z</time></trkpt><trkpt lat="44.1365007" lon="10.9899677"><ele>392.0</ele><time>2026-04-06T16:12:46.773Z</time></trkpt><trkpt lat="44.1366201" lon="10.9900485"><ele>392.0</ele><time>2026-04-06T16:12:47.769Z</time></trkpt><trkpt lat="44.13674" lon="10.9901419"><ele>389.5</ele><time>2026-04-06T16:12:48.776Z</time></trkpt><trkpt lat="44.1368538" lon="10.9902475"><ele>387.0</ele><time>2026-04-06T16:12:49.78Z</time></trkpt><trkpt lat="44.136978" lon="10.9903501"><ele>384.5</ele><time>2026-04-06T16:12:50.771Z</time></trkpt><trkpt lat="44.1370834" lon="10.9904591"><ele>382.0</ele><time>2026-04-06T16:12:51.771Z</time></trkpt><trkpt lat="44.137208" lon="10.9905464"><ele>382.0</ele><time>2026-04-06T16:12:52.771Z</time></trkpt><trkpt lat="44.1373662" lon="10.9905863"><ele>382.0</ele><time>2026-04-06T16:12:53.771Z</time></trkpt><trkpt lat="44.1375275" lon="10.9906118"><ele>382.0</ele><time>2026-04-06T16:12:54.772Z</time></trkpt><trkpt lat="44.1376845" lon="10.9906778"><ele>380.3333333333333</ele><time>2026-04-06T16:12:55.773Z</time></trkpt><trkpt lat="44.1378315" lon="10.9907737"><ele>378.6666666666667</ele><time>2026-04-06T16:12:56.766Z</time></trkpt><trkpt lat="44.1379924" lon="10.9908568"><ele>377.0</ele><time>2026-04-06T16:12:57.771Z</time></trkpt><trkpt lat="44.1381386" lon="10.9909565"><ele>376.6666666666667</ele><time>2026-04-06T16:12:58.768Z</time></trkpt><trkpt lat="44.1382823" lon="10.9910427"><ele>376.3333333333333</ele><time>2026-04-06T16:12:59.773Z</time></trkpt><trkpt lat="44.1384223" lon="10.9910902"><ele>376.0</ele><time>2026-04-06T16:13:00.771Z</time></trkpt><trkpt lat="44.1385887" lon="10.9910986"><ele>376.0</ele><time>2026-04-06T16:13:01.767Z</time></trkpt><trkpt lat="44.1387182" lon="10.9910376"><ele>376.0</ele><time>2026-04-06T16:13:02.771Z</time></trkpt><trkpt lat="44.1388654" lon="10.9909581"><ele>376.0</ele><time>2026-04-06T16:13:03.768Z</time></trkpt><trkpt lat="44.1390315" lon="10.9908594"><ele>381.66666666666663</ele><time>2026-04-06T16:13:04.77Z</time></trkpt><trkpt lat="44.1391969" lon="10.9907825"><ele>387.3333333333333</ele><time>2026-04-06T16:13:05.771Z</time></trkpt><trkpt lat="44.1393602" lon="10.990687"><ele>393.0</ele><time>2026-04-06T16:13:06.771Z</time></trkpt><trkpt lat="44.1395316" lon="10.9906418"><ele>393.0</ele><time>2026-04-06T16:13:07.777Z</time></trkpt><trkpt lat="44.1396891" lon="10.9905603"><ele>393.0</ele><time>2026-04-06T16:13:08.77Z</time></trkpt><trkpt lat="44.1398677" lon="10.9904668"><ele>393.0</ele><time>2026-04-06T16:13:09.77Z</time></trkpt><trkpt lat="44.140026" lon="10.9903084"><ele>395.66666666666663</ele><time>2026-04-06T16:13:10.77Z</time></trkpt><trkpt lat="44.1401787" lon="10.9901598"><ele>398.3333333333333</ele><time>2026-04-06T16:13:11.771Z</time></trkpt><trkpt lat="44.1403369" lon="10.9900016"><ele>401.0</ele><time>2026-04-06T16:13:12.771Z</time></trkpt><trkpt lat="44.1404902" lon="10.9898812"><ele>401.0</ele><time>2026-04-06T16:13:13.773Z</time></trkpt><trkpt lat="44.1406583" lon="10.9897641"><ele>401.0</ele><time>2026-04-06T16:13:14.771Z</time></trkpt><trkpt lat="44.1408251" lon="10.9896634"><ele>401.0</ele><time>2026-04-06T16:13:15.768Z</time></trkpt><trkpt lat="44.1410042" lon="10.9895771"><ele>396.66666666666663</ele><time>2026-04-06T16:13:16.768Z</time></trkpt><trkpt lat="44.1411774" lon="10.9894695"><ele>392.33333333333337</ele><time>2026-04-06T16:13:17.772Z</time></trkpt><trkpt lat="44.1413355" lon="10.9893503"><ele>388.0</ele><time>2026-04-06T16:13:18.767Z</time></trkpt><trkpt lat="44.1414906" lon="10.9892267"><ele>388.6666666666667</ele><time>2026-04-06T16:13:19.771Z</time></trkpt><trkpt lat="44.1416505" lon="10.989102"><ele>389.33333333333337</ele><time>2026-04-06T16:13:20.77Z</time></trkpt><trkpt lat="44.1418076" lon="10.9889799"><ele>390.0</ele><time>2026-04-06T16:13:21.769Z</time></trkpt><trkpt lat="44.141947" lon="10.9888709"><ele>390.0</ele><time>2026-04-06T16:13:22.771Z</time></trkpt><trkpt lat="44.1420735" lon="10.9887078"><ele>390.0</ele><time>2026-04-06T16:13:23.771Z</time></trkpt><trkpt lat="44.1421906" lon="10.9885202"><ele>390.0</ele><time>2026-04-06T16:13:24.773Z</time></trkpt><trkpt lat="44.1423018" lon="10.9883164"><ele>388.66666666666663</ele><time>2026-04-06T16:13:25.773Z</time></trkpt><trkpt lat="44.1424145" lon="10.9881159"><ele>387.3333333333333</ele><time>2026-04-06T16:13:26.771Z</time></trkpt><trkpt lat="44.1425383" lon="10.9879028"><ele>386.0</ele><time>2026-04-06T16:13:27.773Z</time></trkpt><trkpt lat="44.142663" lon="10.987716"><ele>390.66666666666663</ele><time>2026-04-06T16:13:28.77Z</time></trkpt><trkpt lat="44.1427944" lon="10.9875097"><ele>395.33333333333337</ele><time>2026-04-06T16:13:29.771Z</time></trkpt><trkpt lat="44.142922" lon="10.987339"><ele>400.0</ele><time>2026-04-06T16:13:30.77Z</time></trkpt><trkpt lat="44.1430679" lon="10.9872014"><ele>392.33333333333337</ele><time>2026-04-06T16:13:31.769Z</time></trkpt><trkpt lat="44.1432304" lon="10.9871386"><ele>384.6666666666667</ele><time>2026-04-06T16:13:32.77Z</time></trkpt><trkpt lat="44.1433664" lon="10.9870364"><ele>377.0</ele><time>2026-04-06T16:13:33.777Z</time></trkpt><trkpt lat="44.1435031" lon="10.9869475"><ele>377.0</ele><time>2026-04-06T16:13:34.768Z</time></trkpt><trkpt lat="44.1436014" lon="10.9868333"><ele>377.0</ele><time>2026-04-06T16:13:35.771Z</time></trkpt><trkpt lat="44.143701" lon="10.9867213"><ele>377.0</ele><time>2026-04-06T16:13:36.77Z</time></trkpt><trkpt lat="44.1438032" lon="10.9866081"><ele>377.0</ele><time>2026-04-06T16:13:37.77Z</time></trkpt><trkpt lat="44.1439081" lon="10.9864976"><ele>377.0</ele><time>2026-04-06T16:13:38.777Z</time></trkpt><trkpt lat="44.1440246" lon="10.9863939"><ele>377.0</ele><time>2026-04-06T16:13:39.777Z</time></trkpt><trkpt lat="44.1441306" lon="10.9863234"><ele>377.0</ele><time>2026-04-06T16:13:40.776Z</time></trkpt><trkpt lat="44.1442194" lon="10.986265"><ele>377.0</ele><time>2026-04-06T16:13:41.771Z</time></trkpt><trkpt lat="44.1443062" lon="10.9862001"><ele>377.0</ele><time>2026-04-06T16:13:42.769Z</time></trkpt><trkpt lat="44.1443972" lon="10.9861464"><ele>377.0</ele><time>2026-04-06T16:13:43.778Z</time></trkpt><trkpt lat="44.1444936" lon="10.9860906"><ele>377.0</ele><time>2026-04-06T16:13:44.773Z</time></trkpt><trkpt lat="44.1445985" lon="10.9860414"><ele>377.0</ele><time>2026-04-06T16:13:45.775Z</time></trkpt><trkpt lat="44.1447139" lon="10.9860003"><ele>377.0</ele><time>2026-04-06T16:13:46.773Z</time></trkpt><trkpt lat="44.1448321" lon="10.9859393"><ele>379.25</ele><time>2026-04-06T16:13:47.779Z</time></trkpt><trkpt lat="44.1449717" lon="10.9858782"><ele>381.5</ele><time>2026-04-06T16:13:48.775Z</time></trkpt><trkpt lat="44.1451296" lon="10.9858556"><ele>383.75</ele><time>2026-04-06T16:13:49.773Z</time></trkpt><trkpt lat="44.1452574" lon="10.9858113"><ele>386.0</ele><time>2026-04-06T16:13:50.767Z</time></trkpt><trkpt lat="44.1453976" lon="10.9857931"><ele>386.0</ele><time>2026-04-06T16:13:51.771Z</time></trkpt><trkpt lat="44.145537" lon="10.985783"><ele>386.0</ele><time>2026-04-06T16:13:52.773Z</time></trkpt><trkpt lat="44.1456767" lon="10.9857683"><ele>386.0</ele><time>2026-04-06T16:13:53.769Z</time></trkpt><trkpt lat="44.1458254" lon="10.9857663"><ele>386.0</ele><time>2026-04-06T16:13:54.774Z</time></trkpt><trkpt lat="44.1459779" lon="10.9857797"><ele>380.0</ele><time>2026-04-06T16:13:55.767Z</time></trkpt><trkpt lat="44.1461468" lon="10.9858042"><ele>374.0</ele><time>2026-04-06T16:13:56.769Z</time></trkpt><trkpt lat="44.1463083" lon="10.9858154"><ele>368.0</ele><time>2026-04-06T16:13:57.771Z</time></trkpt><trkpt lat="44.1464818" lon="10.9858479"><ele>367.0</ele><time>2026-04-06T16:13:58.773Z</time></trkpt><trkpt lat="44.1466562" lon="10.985868"><ele>366.0</ele><time>2026-04-06T16:13:59.773Z</time></trkpt><trkpt lat="44.1468307" lon="10.9858882"><ele>365.0</ele><time>2026-04-06T16:14:00.771Z</time></trkpt><trkpt lat="44.1470054" lon="10.9859072"><ele>365.0</ele><time>2026-04-06T16:14:01.771Z</time></trkpt><trkpt lat="44.14719" lon="10.985915"><ele>365.0</ele><time>2026-04-06T16:14:02.769Z</time></trkpt><trkpt lat="44.1473771" lon="10.9859262"><ele>365.0</ele><time>2026-04-06T16:14:03.769Z</time></trkpt><trkpt lat="44.1475626" lon="10.9859325"><ele>375.6666666666667</ele><time>2026-04-06T16:14:04.771Z</time></trkpt><trkpt lat="44.1477535" lon="10.9859328"><ele>386.33333333333337</ele><time>2026-04-06T16:14:05.768Z</time></trkpt><trkpt lat="44.1479445" lon="10.9859512"><ele>397.0</ele><time>2026-04-06T16:14:06.77Z</time></trkpt><trkpt lat="44.1505785" lon="10.9856739"><ele>388.0</ele><time>2026-04-06T16:14:19.356Z</time></trkpt><trkpt lat="44.1516848" lon="10.985583"><ele>388.0</ele><time>2026-04-06T16:14:23.77Z</time></trkpt><trkpt lat="44.1518721" lon="10.9854732"><ele>388.0</ele><time>2026-04-06T16:14:24.769Z</time></trkpt><trkpt lat="44.1520651" lon="10.985426"><ele>388.0</ele><time>2026-04-06T16:14:25.776Z</time></trkpt><trkpt lat="44.1522586" lon="10.9853941"><ele>351.0</ele><time>2026-04-06T16:14:26.772Z</time></trkpt><trkpt lat="44.1579988" lon="10.9761649"><ele>370.0</ele><time>2026-04-06T16:14:57.077Z</time></trkpt><trkpt lat="44.1597595" lon="10.9790839"><ele>373.66666666666663</ele><time>2026-04-06T16:15:06.771Z</time></trkpt><trkpt lat="44.1599272" lon="10.9788913"><ele>377.3333333333333</ele><time>2026-04-06T16:15:07.778Z</time></trkpt><trkpt lat="44.1601092" lon="10.9787042"><ele>381.0</ele><time>2026-04-06T16:15:08.77Z</time></trkpt><trkpt lat="44.1602899" lon="10.9785029"><ele>374.0</ele><time>2026-04-06T16:15:09.769Z</time></trkpt><trkpt lat="44.1604645" lon="10.9782923"><ele>367.0</ele><time>2026-04-06T16:15:10.771Z</time></trkpt><trkpt lat="44.1606419" lon="10.9780977"><ele>369.0</ele><time>2026-04-06T16:15:11.777Z</time></trkpt><trkpt lat="44.1608186" lon="10.9778818"><ele>371.0</ele><time>2026-04-06T16:15:12.773Z</time></trkpt><trkpt lat="44.1609951" lon="10.9776519"><ele>364.5</ele><time>2026-04-06T16:15:13.767Z</time></trkpt><trkpt lat="44.1611697" lon="10.9774211"><ele>358.0</ele><time>2026-04-06T16:15:14.78Z</time></trkpt><trkpt lat="44.1613443" lon="10.9771595"><ele>358.0</ele><time>2026-04-06T16:15:15.764Z</time></trkpt><trkpt lat="44.1615179" lon="10.9769025"><ele>358.0</ele><time>2026-04-06T16:15:16.766Z</time></trkpt><trkpt lat="44.1616816" lon="10.9766557"><ele>353.5</ele><time>2026-04-06T16:15:17.77Z</time></trkpt><trkpt lat="44.1618625" lon="10.976432"><ele>349.0</ele><time>2026-04-06T16:15:18.77Z</time></trkpt><trkpt lat="44.1620394" lon="10.9761985"><ele>349.0</ele><time>2026-04-06T16:15:19.767Z</time></trkpt><trkpt lat="44.1622194" lon="10.9759859"><ele>349.0</ele><time>2026-04-06T16:15:20.767Z</time></trkpt><trkpt lat="44.1624073" lon="10.9757827"><ele>344.5</ele><time>2026-04-06T16:15:21.771Z</time></trkpt><trkpt lat="44.1626164" lon="10.9756089"><ele>340.0</ele><time>2026-04-06T16:15:22.765Z</time></trkpt><trkpt lat="44.16283" lon="10.9754396"><ele>340.0</ele><time>2026-04-06T16:15:23.767Z</time></trkpt><trkpt lat="44.1630567" lon="10.9752932"><ele>340.0</ele><time>2026-04-06T16:15:24.777Z</time></trkpt><trkpt lat="44.1632869" lon="10.9751624"><ele>339.5</ele><time>2026-04-06T16:15:25.77Z</time></trkpt><trkpt lat="44.1635347" lon="10.9750622"><ele>339.0</ele><time>2026-04-06T16:15:26.771Z</time></trkpt><trkpt lat="44.1637886" lon="10.9750542"><ele>338.0</ele><time>2026-04-06T16:15:27.777Z</time></trkpt><trkpt lat="44.1640371" lon="10.9750398"><ele>337.0</ele><time>2026-04-06T16:15:28.766Z</time></trkpt><trkpt lat="44.1642822" lon="10.9750521"><ele>337.0</ele><time>2026-04-06T16:15:29.763Z</time></trkpt><trkpt lat="44.1645365" lon="10.9751226"><ele>337.0</ele><time>2026-04-06T16:15:30.774Z</time></trkpt><trkpt lat="44.1647776" lon="10.9752134"><ele>337.0</ele><time>2026-04-06T16:15:31.773Z</time></trkpt><trkpt lat="44.1650298" lon="10.9753224"><ele>337.0</ele><time>2026-04-06T16:15:32.773Z</time></trkpt><trkpt lat="44.1652817" lon="10.9754647"><ele>337.0</ele><time>2026-04-06T16:15:33.764Z</time></trkpt><trkpt lat="44.165525" lon="10.9756171"><ele>337.0</ele><time>2026-04-06T16:15:34.767Z</time></trkpt><trkpt lat="44.1657638" lon="10.9757534"><ele>337.0</ele><time>2026-04-06T16:15:35.768Z</time></trkpt><trkpt lat="44.1659885" lon="10.975886"><ele>337.0</ele><time>2026-04-06T16:15:36.764Z</time></trkpt><trkpt lat="44.1662202" lon="10.9760135"><ele>337.0</ele><time>2026-04-06T16:15:37.777Z</time></trkpt><trkpt lat="44.166455" lon="10.9761324"><ele>337.0</ele><time>2026-04-06T16:15:38.773Z</time></trkpt><trkpt lat="44.1666779" lon="10.9762595"><ele>336.5</ele><time>2026-04-06T16:15:39.766Z</time></trkpt><trkpt lat="44.1668839" lon="10.9763848"><ele>336.0</ele><time>2026-04-06T16:15:40.771Z</time></trkpt><trkpt lat="44.1671055" lon="10.9765096"><ele>336.0</ele><time>2026-04-06T16:15:41.775Z</time></trkpt><trkpt lat="44.1673212" lon="10.9766318"><ele>336.0</ele><time>2026-04-06T16:15:42.773Z</time></trkpt><trkpt lat="44.1675435" lon="10.9767567"><ele>335.0</ele><time>2026-04-06T16:15:43.77Z</time></trkpt><trkpt lat="44.1677553" lon="10.9768863"><ele>334.0</ele><time>2026-04-06T16:15:44.772Z</time></trkpt><trkpt lat="44.1679796" lon="10.9770001"><ele>333.0</ele><time>2026-04-06T16:15:45.77Z</time></trkpt><trkpt lat="44.1682044" lon="10.9771222"><ele>332.0</ele><time>2026-04-06T16:15:46.775Z</time></trkpt><trkpt lat="44.1684322" lon="10.9772354"><ele>332.0</ele><time>2026-04-06T16:15:47.774Z</time></trkpt><trkpt lat="44.1686599" lon="10.9773485"><ele>332.0</ele><time>2026-04-06T16:15:48.768Z</time></trkpt><trkpt lat="44.1688797" lon="10.9774709"><ele>331.0</ele><time>2026-04-06T16:15:49.77Z</time></trkpt><trkpt lat="44.1691034" lon="10.9775909"><ele>330.0</ele><time>2026-04-06T16:15:50.776Z</time></trkpt><trkpt lat="44.1693281" lon="10.9777088"><ele>330.0</ele><time>2026-04-06T16:15:51.769Z</time></trkpt><trkpt lat="44.1695648" lon="10.9778162"><ele>330.0</ele><time>2026-04-06T16:15:52.77Z</time></trkpt><trkpt lat="44.1698008" lon="10.9779291"><ele>330.5</ele><time>2026-04-06T16:15:53.77Z</time></trkpt><trkpt lat="44.1700294" lon="10.9780447"><ele>331.0</ele><time>2026-04-06T16:15:54.776Z</time></trkpt><trkpt lat="44.1702458" lon="10.9781582"><ele>331.0</ele><time>2026-04-06T16:15:55.778Z</time></trkpt><trkpt lat="44.1704611" lon="10.9782678"><ele>331.0</ele><time>2026-04-06T16:15:56.774Z</time></trkpt><trkpt lat="44.1706892" lon="10.9783791"><ele>330.5</ele><time>2026-04-06T16:15:57.772Z</time></trkpt><trkpt lat="44.1709111" lon="10.978498"><ele>330.0</ele><time>2026-04-06T16:15:58.781Z</time></trkpt><trkpt lat="44.1711155" lon="10.9786073"><ele>330.0</ele><time>2026-04-06T16:15:59.773Z</time></trkpt><trkpt lat="44.1713176" lon="10.9787194"><ele>330.0</ele><time>2026-04-06T16:16:00.769Z</time></trkpt><trkpt lat="44.1715103" lon="10.9788184"><ele>330.0</ele><time>2026-04-06T16:16:01.77Z</time></trkpt><trkpt lat="44.1716821" lon="10.9789114"><ele>329.3333333333333</ele><time>2026-04-06T16:16:02.772Z</time></trkpt><trkpt lat="44.1718702" lon="10.9790009"><ele>328.66666666666663</ele><time>2026-04-06T16:16:03.777Z</time></trkpt><trkpt lat="44.172054" lon="10.9790981"><ele>328.0</ele><time>2026-04-06T16:16:04.776Z</time></trkpt><trkpt lat="44.1722458" lon="10.9791929"><ele>328.3333333333333</ele><time>2026-04-06T16:16:05.771Z</time></trkpt><trkpt lat="44.1724384" lon="10.9792907"><ele>328.6666666666667</ele><time>2026-04-06T16:16:06.794Z</time></trkpt><trkpt lat="44.1726249" lon="10.9793847"><ele>329.0</ele><time>2026-04-06T16:16:07.776Z</time></trkpt><trkpt lat="44.1728165" lon="10.9794727"><ele>329.0</ele><time>2026-04-06T16:16:08.778Z</time></trkpt><trkpt lat="44.1730108" lon="10.9795482"><ele>329.0</ele><time>2026-04-06T16:16:09.772Z</time></trkpt><trkpt lat="44.1732101" lon="10.9796062"><ele>329.0</ele><time>2026-04-06T16:16:10.773Z</time></trkpt><trkpt lat="44.1734187" lon="10.9796407"><ele>328.33333333333337</ele><time>2026-04-06T16:16:11.77Z</time></trkpt><trkpt lat="44.1736318" lon="10.9796657"><ele>327.6666666666667</ele><time>2026-04-06T16:16:12.768Z</time></trkpt><trkpt lat="44.1738555" lon="10.9796759"><ele>327.0</ele><time>2026-04-06T16:16:13.773Z</time></trkpt><trkpt lat="44.1740754" lon="10.9796815"><ele>326.3333333333333</ele><time>2026-04-06T16:16:14.77Z</time></trkpt><trkpt lat="44.1742848" lon="10.9796879"><ele>325.66666666666663</ele><time>2026-04-06T16:16:15.775Z</time></trkpt><trkpt lat="44.1744964" lon="10.9796975"><ele>325.0</ele><time>2026-04-06T16:16:16.772Z</time></trkpt><trkpt lat="44.1747041" lon="10.9797046"><ele>325.0</ele><time>2026-04-06T16:16:17.769Z</time></trkpt><trkpt lat="44.1749125" lon="10.9797145"><ele>325.0</ele><time>2026-04-06T16:16:18.778Z</time></trkpt><trkpt lat="44.1751056" lon="10.9797274"><ele>325.0</ele><time>2026-04-06T16:16:19.773Z</time></trkpt><trkpt lat="44.1753005" lon="10.979741"><ele>325.0</ele><time>2026-04-06T16:16:20.768Z</time></trkpt><trkpt lat="44.1754954" lon="10.9797561"><ele>325.0</ele><time>2026-04-06T16:16:21.77Z</time></trkpt><trkpt lat="44.1756917" lon="10.9797636"><ele>325.0</ele><time>2026-04-06T16:16:22.776Z</time></trkpt><trkpt lat="44.175884" lon="10.9797677"><ele>324.66666666666663</ele><time>2026-04-06T16:16:23.773Z</time></trkpt><trkpt lat="44.1760714" lon="10.9797772"><ele>324.3333333333333</ele><time>2026-04-06T16:16:24.778Z</time></trkpt><trkpt lat="44.1762539" lon="10.9797884"><ele>324.0</ele><time>2026-04-06T16:16:25.771Z</time></trkpt><trkpt lat="44.1764434" lon="10.9798024"><ele>324.3333333333333</ele><time>2026-04-06T16:16:26.769Z</time></trkpt><trkpt lat="44.1766318" lon="10.9798201"><ele>324.66666666666663</ele><time>2026-04-06T16:16:27.783Z</time></trkpt><trkpt lat="44.1768158" lon="10.9798437"><ele>325.0</ele><time>2026-04-06T16:16:28.771Z</time></trkpt><trkpt lat="44.1770023" lon="10.9798865"><ele>325.0</ele><time>2026-04-06T16:16:29.771Z</time></trkpt><trkpt lat="44.1771824" lon="10.9799409"><ele>325.0</ele><time>2026-04-06T16:16:30.771Z</time></trkpt><trkpt lat="44.1773594" lon="10.9800075"><ele>325.0</ele><time>2026-04-06T16:16:31.774Z</time></trkpt><trkpt lat="44.1775327" lon="10.9800827"><ele>326.0</ele><time>2026-04-06T16:16:32.77Z</time></trkpt><trkpt lat="44.1777047" lon="10.9801657"><ele>327.0</ele><time>2026-04-06T16:16:33.774Z</time></trkpt><trkpt lat="44.177876" lon="10.9802624"><ele>328.0</ele><time>2026-04-06T16:16:34.782Z</time></trkpt><trkpt lat="44.1780406" lon="10.9803713"><ele>327.3333333333333</ele><time>2026-04-06T16:16:35.772Z</time></trkpt><trkpt lat="44.1782023" lon="10.98049"><ele>326.6666666666667</ele><time>2026-04-06T16:16:36.774Z</time></trkpt><trkpt lat="44.1783623" lon="10.980618"><ele>326.0</ele><time>2026-04-06T16:16:37.764Z</time></trkpt><trkpt lat="44.1785167" lon="10.9807533"><ele>327.0</ele><time>2026-04-06T16:16:38.769Z</time></trkpt><trkpt lat="44.1786659" lon="10.9809018"><ele>328.0</ele><time>2026-04-06T16:16:39.771Z</time></trkpt><trkpt lat="44.1788131" lon="10.9810643"><ele>329.0</ele><time>2026-04-06T16:16:40.77Z</time></trkpt><trkpt lat="44.1789506" lon="10.9812341"><ele>328.0</ele><time>2026-04-06T16:16:41.772Z</time></trkpt><trkpt lat="44.1790809" lon="10.9814161"><ele>327.0</ele><time>2026-04-06T16:16:42.771Z</time></trkpt><trkpt lat="44.1792063" lon="10.9816029"><ele>326.0</ele><time>2026-04-06T16:16:43.774Z</time></trkpt><trkpt lat="44.1793256" lon="10.9817903"><ele>325.6666666666667</ele><time>2026-04-06T16:16:44.776Z</time></trkpt><trkpt lat="44.1794348" lon="10.9819804"><ele>325.3333333333333</ele><time>2026-04-06T16:16:45.774Z</time></trkpt><trkpt lat="44.1795383" lon="10.9821774"><ele>325.0</ele><time>2026-04-06T16:16:46.775Z</time></trkpt><trkpt lat="44.1796328" lon="10.982381"><ele>326.3333333333333</ele><time>2026-04-06T16:16:47.773Z</time></trkpt><trkpt lat="44.179721" lon="10.9825915"><ele>327.6666666666667</ele><time>2026-04-06T16:16:48.77Z</time></trkpt><trkpt lat="44.1798086" lon="10.9828009"><ele>329.0</ele><time>2026-04-06T16:16:49.771Z</time></trkpt><trkpt lat="44.1798921" lon="10.9830056"><ele>327.5</ele><time>2026-04-06T16:16:50.779Z</time></trkpt><trkpt lat="44.1799577" lon="10.9831902"><ele>326.0</ele><time>2026-04-06T16:16:51.789Z</time></trkpt><trkpt lat="44.1800345" lon="10.9833713"><ele>324.5</ele><time>2026-04-06T16:16:52.764Z</time></trkpt><trkpt lat="44.1801099" lon="10.9835493"><ele>323.0</ele><time>2026-04-06T16:16:53.777Z</time></trkpt><trkpt lat="44.1801824" lon="10.9837258"><ele>323.0</ele><time>2026-04-06T16:16:54.766Z</time></trkpt><trkpt lat="44.1802453" lon="10.9839053"><ele>323.0</ele><time>2026-04-06T16:16:55.777Z</time></trkpt><trkpt lat="44.1803088" lon="10.9840914"><ele>323.0</ele><time>2026-04-06T16:16:56.787Z</time></trkpt><trkpt lat="44.1803783" lon="10.9842385"><ele>323.0</ele><time>2026-04-06T16:16:57.775Z</time></trkpt><trkpt lat="44.1804592" lon="10.9843586"><ele>323.5</ele><time>2026-04-06T16:16:58.77Z</time></trkpt><trkpt lat="44.1805306" lon="10.9844681"><ele>324.0</ele><time>2026-04-06T16:16:59.764Z</time></trkpt><trkpt lat="44.1805886" lon="10.9845706"><ele>324.5</ele><time>2026-04-06T16:17:00.771Z</time></trkpt><trkpt lat="44.1806388" lon="10.9846562"><ele>325.0</ele><time>2026-04-06T16:17:01.774Z</time></trkpt><trkpt lat="44.1806917" lon="10.9847402"><ele>325.5</ele><time>2026-04-06T16:17:02.773Z</time></trkpt><trkpt lat="44.1807489" lon="10.9848291"><ele>326.0</ele><time>2026-04-06T16:17:03.77Z</time></trkpt><trkpt lat="44.1808011" lon="10.9848957"><ele>326.0</ele><time>2026-04-06T16:17:04.776Z</time></trkpt><trkpt lat="44.1808582" lon="10.9849619"><ele>326.0</ele><time>2026-04-06T16:17:05.774Z</time></trkpt><trkpt lat="44.1809238" lon="10.9850498"><ele>326.0</ele><time>2026-04-06T16:17:06.774Z</time></trkpt><trkpt lat="44.1809755" lon="10.9851192"><ele>326.0</ele><time>2026-04-06T16:17:07.774Z</time></trkpt><trkpt lat="44.1810388" lon="10.9851915"><ele>326.0</ele><time>2026-04-06T16:17:08.772Z</time></trkpt><trkpt lat="44.1810987" lon="10.9852618"><ele>326.0</ele><time>2026-04-06T16:17:09.77Z</time></trkpt><trkpt lat="44.1811506" lon="10.9853512"><ele>325.5</ele><time>2026-04-06T16:17:10.782Z</time></trkpt><trkpt lat="44.1812095" lon="10.9854348"><ele>325.0</ele><time>2026-04-06T16:17:11.779Z</time></trkpt><trkpt lat="44.1812743" lon="10.9855071"><ele>324.5</ele><time>2026-04-06T16:17:12.772Z</time></trkpt><trkpt lat="44.1813309" lon="10.9855775"><ele>324.0</ele><time>2026-04-06T16:17:13.773Z</time></trkpt><trkpt lat="44.1813881" lon="10.9856429"><ele>323.5</ele><time>2026-04-06T16:17:14.771Z</time></trkpt><trkpt lat="44.1814457" lon="10.9857175"><ele>323.0</ele><time>2026-04-06T16:17:15.77Z</time></trkpt><trkpt lat="44.1814988" lon="10.9857991"><ele>323.0</ele><time>2026-04-06T16:17:16.771Z</time></trkpt><trkpt lat="44.1815599" lon="10.985882"><ele>323.0</ele><time>2026-04-06T16:17:17.772Z</time></trkpt><trkpt lat="44.1816192" lon="10.985962"><ele>323.0</ele><time>2026-04-06T16:17:18.771Z</time></trkpt><trkpt lat="44.1816804" lon="10.9860447"><ele>323.0</ele><time>2026-04-06T16:17:19.772Z</time></trkpt><trkpt lat="44.1817211" lon="10.9861172"><ele>323.0</ele><time>2026-04-06T16:17:20.777Z</time></trkpt><trkpt lat="44.1817992" lon="10.9862263"><ele>323.0</ele><time>2026-04-06T16:17:22.774Z</time></trkpt><trkpt lat="44.181859" lon="10.9862966"><ele>323.0</ele><time>2026-04-06T16:17:24.774Z</time></trkpt><trkpt lat="44.181903" lon="10.9863863"><ele>323.0</ele><time>2026-04-06T16:17:28.771Z</time></trkpt><trkpt lat="44.1819645" lon="10.9864152"><ele>323.0</ele><time>2026-04-06T16:17:31.769Z</time></trkpt><trkpt lat="44.1820858" lon="10.9864989"><ele>323.0</ele><time>2026-04-06T16:17:48.772Z</time></trkpt><trkpt lat="44.1821481" lon="10.9866265"><ele>323.0</ele><time>2026-04-06T16:17:50.785Z</time></trkpt><trkpt lat="44.1821907" lon="10.9866976"><ele>323.4</ele><time>2026-04-06T16:17:51.775Z</time></trkpt><trkpt lat="44.1822663" lon="10.9868186"><ele>323.79999999999995</ele><time>2026-04-06T16:17:53.772Z</time></trkpt><trkpt lat="44.1823382" lon="10.9869207"><ele>324.2</ele><time>2026-04-06T16:17:55.77Z</time></trkpt><trkpt lat="44.1824197" lon="10.986996"><ele>324.6</ele><time>2026-04-06T16:17:57.775Z</time></trkpt><trkpt lat="44.18248" lon="10.9870781"><ele>325.0</ele><time>2026-04-06T16:17:59.778Z</time></trkpt><trkpt lat="44.182531" lon="10.987146"><ele>325.0</ele><time>2026-04-06T16:18:01.772Z</time></trkpt><trkpt lat="44.1825711" lon="10.9872268"><ele>325.0</ele><time>2026-04-06T16:18:03.77Z</time></trkpt><trkpt lat="44.1826199" lon="10.9873009"><ele>325.0</ele><time>2026-04-06T16:18:05.79Z</time></trkpt><trkpt lat="44.1826782" lon="10.987402"><ele>325.0</ele><time>2026-04-06T16:18:07.771Z</time></trkpt><trkpt lat="44.182723" lon="10.9875038"><ele>325.0</ele><time>2026-04-06T16:18:09.78Z</time></trkpt><trkpt lat="44.1827656" lon="10.9875779"><ele>325.0</ele><time>2026-04-06T16:18:10.771Z</time></trkpt><trkpt lat="44.1828095" lon="10.9876903"><ele>324.2</ele><time>2026-04-06T16:18:11.776Z</time></trkpt><trkpt lat="44.18287" lon="10.9877602"><ele>323.4</ele><time>2026-04-06T16:18:12.773Z</time></trkpt><trkpt lat="44.1828996" lon="10.9878415"><ele>322.6</ele><time>2026-04-06T16:18:13.779Z</time></trkpt><trkpt lat="44.1829589" lon="10.9879939"><ele>321.8</ele><time>2026-04-06T16:18:15.776Z</time></trkpt><trkpt lat="44.1830178" lon="10.9881271"><ele>321.0</ele><time>2026-04-06T16:18:17.77Z</time></trkpt><trkpt lat="44.1830705" lon="10.988282"><ele>320.6</ele><time>2026-04-06T16:18:19.771Z</time></trkpt><trkpt lat="44.1831291" lon="10.9884118"><ele>320.20000000000005</ele><time>2026-04-06T16:18:21.777Z</time></trkpt><trkpt lat="44.1831955" lon="10.9885597"><ele>319.79999999999995</ele><time>2026-04-06T16:18:23.772Z</time></trkpt><trkpt lat="44.1832396" lon="10.9887323"><ele>319.4</ele><time>2026-04-06T16:18:25.77Z</time></trkpt><trkpt lat="44.1832735" lon="10.9888197"><ele>319.0</ele><time>2026-04-06T16:18:26.773Z</time></trkpt><trkpt lat="44.1833036" lon="10.9889109"><ele>319.5</ele><time>2026-04-06T16:18:27.771Z</time></trkpt><trkpt lat="44.1833371" lon="10.9890214"><ele>320.0</ele><time>2026-04-06T16:18:28.77Z</time></trkpt><trkpt lat="44.1833772" lon="10.9891278"><ele>320.5</ele><time>2026-04-06T16:18:29.773Z</time></trkpt><trkpt lat="44.1834121" lon="10.989235"><ele>321.0</ele><time>2026-04-06T16:18:30.773Z</time></trkpt><trkpt lat="44.1834556" lon="10.9893454"><ele>321.5</ele><time>2026-04-06T16:18:31.775Z</time></trkpt><trkpt lat="44.1835084" lon="10.9894485"><ele>322.0</ele><time>2026-04-06T16:18:32.774Z</time></trkpt><trkpt lat="44.1835512" lon="10.9895545"><ele>322.0</ele><time>2026-04-06T16:18:33.777Z</time></trkpt><trkpt lat="44.1836013" lon="10.9896587"><ele>322.0</ele><time>2026-04-06T16:18:34.773Z</time></trkpt><trkpt lat="44.1836522" lon="10.9897633"><ele>322.0</ele><time>2026-04-06T16:18:35.774Z</time></trkpt><trkpt lat="44.1837153" lon="10.9898757"><ele>322.0</ele><time>2026-04-06T16:18:36.774Z</time></trkpt><trkpt lat="44.1837868" lon="10.9899804"><ele>322.0</ele><time>2026-04-06T16:18:37.777Z</time></trkpt><trkpt lat="44.1838601" lon="10.9900767"><ele>321.25</ele><time>2026-04-06T16:18:38.777Z</time></trkpt><trkpt lat="44.1839259" lon="10.9901994"><ele>320.5</ele><time>2026-04-06T16:18:39.773Z</time></trkpt><trkpt lat="44.1840117" lon="10.9903217"><ele>319.75</ele><time>2026-04-06T16:18:40.769Z</time></trkpt><trkpt lat="44.184104" lon="10.9904507"><ele>319.0</ele><time>2026-04-06T16:18:41.775Z</time></trkpt><trkpt lat="44.1842052" lon="10.9905865"><ele>319.25</ele><time>2026-04-06T16:18:42.774Z</time></trkpt><trkpt lat="44.1843105" lon="10.9907072"><ele>319.5</ele><time>2026-04-06T16:18:43.77Z</time></trkpt><trkpt lat="44.1844189" lon="10.9908438"><ele>319.75</ele><time>2026-04-06T16:18:44.773Z</time></trkpt><trkpt lat="44.1845268" lon="10.9909679"><ele>320.0</ele><time>2026-04-06T16:18:45.775Z</time></trkpt><trkpt lat="44.1846298" lon="10.9911035"><ele>320.0</ele><time>2026-04-06T16:18:46.773Z</time></trkpt><trkpt lat="44.1847132" lon="10.9912478"><ele>320.0</ele><time>2026-04-06T16:18:47.783Z</time></trkpt><trkpt lat="44.184823" lon="10.9913636"><ele>320.0</ele><time>2026-04-06T16:18:48.778Z</time></trkpt><trkpt lat="44.1849234" lon="10.9914974"><ele>320.0</ele><time>2026-04-06T16:18:49.771Z</time></trkpt><trkpt lat="44.185022" lon="10.9916201"><ele>320.75</ele><time>2026-04-06T16:18:50.774Z</time></trkpt><trkpt lat="44.1850986" lon="10.991767"><ele>321.5</ele><time>2026-04-06T16:18:51.781Z</time></trkpt><trkpt lat="44.1851749" lon="10.9919031"><ele>322.25</ele><time>2026-04-06T16:18:52.775Z</time></trkpt><trkpt lat="44.185245" lon="10.9920303"><ele>323.0</ele><time>2026-04-06T16:18:53.772Z</time></trkpt><trkpt lat="44.1853145" lon="10.9921648"><ele>323.0</ele><time>2026-04-06T16:18:54.771Z</time></trkpt><trkpt lat="44.185368" lon="10.9923094"><ele>323.0</ele><time>2026-04-06T16:18:55.772Z</time></trkpt><trkpt lat="44.1854304" lon="10.9924497"><ele>323.0</ele><time>2026-04-06T16:18:56.777Z</time></trkpt><trkpt lat="44.1854672" lon="10.9926082"><ele>323.0</ele><time>2026-04-06T16:18:57.777Z</time></trkpt><trkpt lat="44.1855079" lon="10.9927743"><ele>324.25</ele><time>2026-04-06T16:18:58.774Z</time></trkpt><trkpt lat="44.1855592" lon="10.9929365"><ele>325.5</ele><time>2026-04-06T16:18:59.775Z</time></trkpt><trkpt lat="44.1856141" lon="10.9930963"><ele>326.75</ele><time>2026-04-06T16:19:00.773Z</time></trkpt><trkpt lat="44.1856576" lon="10.9932736"><ele>328.0</ele><time>2026-04-06T16:19:01.777Z</time></trkpt><trkpt lat="44.1857067" lon="10.9934605"><ele>328.0</ele><time>2026-04-06T16:19:02.773Z</time></trkpt><trkpt lat="44.1857583" lon="10.9936558"><ele>328.0</ele><time>2026-04-06T16:19:03.773Z</time></trkpt><trkpt lat="44.1858073" lon="10.9938514"><ele>328.0</ele><time>2026-04-06T16:19:04.772Z</time></trkpt><trkpt lat="44.1858652" lon="10.9940439"><ele>328.0</ele><time>2026-04-06T16:19:05.77Z</time></trkpt><trkpt lat="44.1859113" lon="10.9942238"><ele>327.79999999999995</ele><time>2026-04-06T16:19:06.774Z</time></trkpt><trkpt lat="44.1859495" lon="10.9943936"><ele>327.6</ele><time>2026-04-06T16:19:07.767Z</time></trkpt><trkpt lat="44.1859882" lon="10.9945444"><ele>327.4</ele><time>2026-04-06T16:19:08.772Z</time></trkpt><trkpt lat="44.1860231" lon="10.9946687"><ele>327.20000000000005</ele><time>2026-04-06T16:19:09.768Z</time></trkpt><trkpt lat="44.1860437" lon="10.99479"><ele>327.0</ele><time>2026-04-06T16:19:10.767Z</time></trkpt><trkpt lat="44.1860762" lon="10.994904"><ele>326.6</ele><time>2026-04-06T16:19:11.772Z</time></trkpt><trkpt lat="44.1861069" lon="10.9950286"><ele>326.20000000000005</ele><time>2026-04-06T16:19:12.771Z</time></trkpt><trkpt lat="44.1861288" lon="10.9951708"><ele>325.8</ele><time>2026-04-06T16:19:13.776Z</time></trkpt><trkpt lat="44.1861584" lon="10.9953156"><ele>325.4</ele><time>2026-04-06T16:19:14.769Z</time></trkpt><trkpt lat="44.1861913" lon="10.9954645"><ele>325.0</ele><time>2026-04-06T16:19:15.777Z</time></trkpt><trkpt lat="44.1862269" lon="10.9956128"><ele>325.0</ele><time>2026-04-06T16:19:16.771Z</time></trkpt><trkpt lat="44.1862569" lon="10.9957592"><ele>325.0</ele><time>2026-04-06T16:19:17.773Z</time></trkpt><trkpt lat="44.1862906" lon="10.9959028"><ele>325.0</ele><time>2026-04-06T16:19:18.771Z</time></trkpt><trkpt lat="44.1863291" lon="10.9960458"><ele>325.0</ele><time>2026-04-06T16:19:19.771Z</time></trkpt><trkpt lat="44.1863637" lon="10.9961861"><ele>325.0</ele><time>2026-04-06T16:19:20.774Z</time></trkpt><trkpt lat="44.1863977" lon="10.9963268"><ele>325.6</ele><time>2026-04-06T16:19:21.77Z</time></trkpt><trkpt lat="44.1864376" lon="10.9964651"><ele>326.2</ele><time>2026-04-06T16:19:22.772Z</time></trkpt><trkpt lat="44.1864776" lon="10.9966122"><ele>326.79999999999995</ele><time>2026-04-06T16:19:23.778Z</time></trkpt><trkpt lat="44.1865149" lon="10.9967611"><ele>327.4</ele><time>2026-04-06T16:19:24.775Z</time></trkpt><trkpt lat="44.1865587" lon="10.9969066"><ele>328.0</ele><time>2026-04-06T16:19:25.772Z</time></trkpt><trkpt lat="44.1866188" lon="10.9970523"><ele>328.0</ele><time>2026-04-06T16:19:26.778Z</time></trkpt><trkpt lat="44.1866881" lon="10.9972199"><ele>328.0</ele><time>2026-04-06T16:19:27.774Z</time></trkpt><trkpt lat="44.1867664" lon="10.9973779"><ele>328.0</ele><time>2026-04-06T16:19:28.769Z</time></trkpt><trkpt lat="44.1868425" lon="10.9975392"><ele>328.0</ele><time>2026-04-06T16:19:29.771Z</time></trkpt><trkpt lat="44.18693" lon="10.9977012"><ele>325.0</ele><time>2026-04-06T16:19:30.777Z</time></trkpt><trkpt lat="44.1870142" lon="10.9978497"><ele>322.0</ele><time>2026-04-06T16:19:31.771Z</time></trkpt><trkpt lat="44.1871001" lon="10.998041"><ele>319.0</ele><time>2026-04-06T16:19:32.769Z</time></trkpt><trkpt lat="44.1872071" lon="10.9981995"><ele>316.66666666666663</ele><time>2026-04-06T16:19:33.767Z</time></trkpt><trkpt lat="44.1873293" lon="10.9983745"><ele>314.3333333333333</ele><time>2026-04-06T16:19:34.778Z</time></trkpt><trkpt lat="44.1874449" lon="10.9985389"><ele>312.0</ele><time>2026-04-06T16:19:35.769Z</time></trkpt><trkpt lat="44.1875744" lon="10.9986953"><ele>312.0</ele><time>2026-04-06T16:19:36.772Z</time></trkpt><trkpt lat="44.1876895" lon="10.9988535"><ele>312.0</ele><time>2026-04-06T16:19:37.774Z</time></trkpt><trkpt lat="44.187813" lon="10.999032"><ele>312.0</ele><time>2026-04-06T16:19:38.773Z</time></trkpt><trkpt lat="44.1879117" lon="10.9991986"><ele>312.6666666666667</ele><time>2026-04-06T16:19:39.771Z</time></trkpt><trkpt lat="44.1880336" lon="10.9993688"><ele>313.33333333333337</ele><time>2026-04-06T16:19:40.772Z</time></trkpt><trkpt lat="44.1881564" lon="10.9995319"><ele>314.0</ele><time>2026-04-06T16:19:41.771Z</time></trkpt><trkpt lat="44.1882905" lon="10.9997241"><ele>314.0</ele><time>2026-04-06T16:19:42.778Z</time></trkpt><trkpt lat="44.1884312" lon="10.9999058"><ele>314.0</ele><time>2026-04-06T16:19:43.775Z</time></trkpt><trkpt lat="44.1885591" lon="11.000095"><ele>314.0</ele><time>2026-04-06T16:19:44.774Z</time></trkpt><trkpt lat="44.188704" lon="11.0002867"><ele>314.0</ele><time>2026-04-06T16:19:45.773Z</time></trkpt><trkpt lat="44.1888511" lon="11.0004755"><ele>314.0</ele><time>2026-04-06T16:19:46.773Z</time></trkpt><trkpt lat="44.1889847" lon="11.0006744"><ele>314.0</ele><time>2026-04-06T16:19:47.771Z</time></trkpt><trkpt lat="44.1891148" lon="11.0008794"><ele>314.6666666666667</ele><time>2026-04-06T16:19:48.776Z</time></trkpt><trkpt lat="44.189248" lon="11.0010847"><ele>315.3333333333333</ele><time>2026-04-06T16:19:49.773Z</time></trkpt><trkpt lat="44.1893903" lon="11.0012854"><ele>316.0</ele><time>2026-04-06T16:19:50.773Z</time></trkpt><trkpt lat="44.1895255" lon="11.0015037"><ele>317.3333333333333</ele><time>2026-04-06T16:19:51.773Z</time></trkpt><trkpt lat="44.1896709" lon="11.0017075"><ele>318.6666666666667</ele><time>2026-04-06T16:19:52.775Z</time></trkpt><trkpt lat="44.1898205" lon="11.001911"><ele>320.0</ele><time>2026-04-06T16:19:53.772Z</time></trkpt><trkpt lat="44.1899608" lon="11.0021154"><ele>320.0</ele><time>2026-04-06T16:19:54.782Z</time></trkpt><trkpt lat="44.1900903" lon="11.002324"><ele>320.0</ele><time>2026-04-06T16:19:55.768Z</time></trkpt><trkpt lat="44.1902412" lon="11.0025317"><ele>320.0</ele><time>2026-04-06T16:19:56.771Z</time></trkpt><trkpt lat="44.1903804" lon="11.0027317"><ele>322.0</ele><time>2026-04-06T16:19:57.777Z</time></trkpt><trkpt lat="44.1905738" lon="11.0029531"><ele>324.0</ele><time>2026-04-06T16:19:58.787Z</time></trkpt><trkpt lat="44.1907001" lon="11.0031826"><ele>319.6666666666667</ele><time>2026-04-06T16:19:59.769Z</time></trkpt><trkpt lat="44.1908401" lon="11.0033897"><ele>315.33333333333337</ele><time>2026-04-06T16:20:00.77Z</time></trkpt><trkpt lat="44.1909729" lon="11.0036136"><ele>311.0</ele><time>2026-04-06T16:20:01.77Z</time></trkpt><trkpt lat="44.191142" lon="11.0037793"><ele>311.0</ele><time>2026-04-06T16:20:02.777Z</time></trkpt><trkpt lat="44.1912762" lon="11.0039761"><ele>311.0</ele><time>2026-04-06T16:20:03.771Z</time></trkpt><trkpt lat="44.1914545" lon="11.0041205"><ele>311.0</ele><time>2026-04-06T16:20:04.774Z</time></trkpt><trkpt lat="44.1915218" lon="11.0043294"><ele>310.33333333333337</ele><time>2026-04-06T16:20:05.772Z</time></trkpt><trkpt lat="44.1916994" lon="11.0044768"><ele>309.6666666666667</ele><time>2026-04-06T16:20:06.772Z</time></trkpt><trkpt lat="44.1918617" lon="11.0046071"><ele>309.0</ele><time>2026-04-06T16:20:07.77Z</time></trkpt><trkpt lat="44.1920392" lon="11.0047227"><ele>309.0</ele><time>2026-04-06T16:20:08.776Z</time></trkpt><trkpt lat="44.1921994" lon="11.0048193"><ele>309.0</ele><time>2026-04-06T16:20:09.774Z</time></trkpt><trkpt lat="44.1923701" lon="11.0049105"><ele>309.0</ele><time>2026-04-06T16:20:10.778Z</time></trkpt><trkpt lat="44.1925736" lon="11.0049458"><ele>308.0</ele><time>2026-04-06T16:20:11.776Z</time></trkpt><trkpt lat="44.1927505" lon="11.0050005"><ele>307.0</ele><time>2026-04-06T16:20:12.785Z</time></trkpt><trkpt lat="44.1929254" lon="11.0050419"><ele>306.0</ele><time>2026-04-06T16:20:13.779Z</time></trkpt><trkpt lat="44.1931187" lon="11.0050785"><ele>307.6666666666667</ele><time>2026-04-06T16:20:14.768Z</time></trkpt><trkpt lat="44.1933185" lon="11.0050952"><ele>309.33333333333337</ele><time>2026-04-06T16:20:15.774Z</time></trkpt><trkpt lat="44.1935059" lon="11.0051181"><ele>311.0</ele><time>2026-04-06T16:20:16.77Z</time></trkpt><trkpt lat="44.1936884" lon="11.0051552"><ele>311.0</ele><time>2026-04-06T16:20:17.78Z</time></trkpt><trkpt lat="44.1938802" lon="11.005202"><ele>311.0</ele><time>2026-04-06T16:20:18.774Z</time></trkpt><trkpt lat="44.1940552" lon="11.0052615"><ele>311.0</ele><time>2026-04-06T16:20:19.775Z</time></trkpt><trkpt lat="44.1942389" lon="11.0053435"><ele>311.33333333333337</ele><time>2026-04-06T16:20:20.776Z</time></trkpt><trkpt lat="44.1944178" lon="11.0054438"><ele>311.6666666666667</ele><time>2026-04-06T16:20:21.773Z</time></trkpt><trkpt lat="44.1945973" lon="11.0055535"><ele>312.0</ele><time>2026-04-06T16:20:22.774Z</time></trkpt><trkpt lat="44.1947573" lon="11.0056888"><ele>311.3333333333333</ele><time>2026-04-06T16:20:23.777Z</time></trkpt><trkpt lat="44.1949207" lon="11.0058425"><ele>310.66666666666663</ele><time>2026-04-06T16:20:24.77Z</time></trkpt><trkpt lat="44.1950778" lon="11.0059972"><ele>310.0</ele><time>2026-04-06T16:20:25.773Z</time></trkpt><trkpt lat="44.1952301" lon="11.0061601"><ele>310.0</ele><time>2026-04-06T16:20:26.773Z</time></trkpt><trkpt lat="44.1953866" lon="11.0063285"><ele>310.0</ele><time>2026-04-06T16:20:27.773Z</time></trkpt><trkpt lat="44.1955417" lon="11.0065053"><ele>310.0</ele><time>2026-04-06T16:20:28.774Z</time></trkpt><trkpt lat="44.1956983" lon="11.0067032"><ele>310.66666666666663</ele><time>2026-04-06T16:20:29.775Z</time></trkpt><trkpt lat="44.1958394" lon="11.006918"><ele>311.3333333333333</ele><time>2026-04-06T16:20:30.774Z</time></trkpt><trkpt lat="44.1959719" lon="11.0071378"><ele>312.0</ele><time>2026-04-06T16:20:31.775Z</time></trkpt><trkpt lat="44.1961018" lon="11.0073591"><ele>309.6666666666667</ele><time>2026-04-06T16:20:32.774Z</time></trkpt><trkpt lat="44.1962357" lon="11.0075973"><ele>307.33333333333337</ele><time>2026-04-06T16:20:33.771Z</time></trkpt><trkpt lat="44.1963654" lon="11.0078351"><ele>305.0</ele><time>2026-04-06T16:20:34.773Z</time></trkpt><trkpt lat="44.1964989" lon="11.0080683"><ele>306.33333333333337</ele><time>2026-04-06T16:20:35.774Z</time></trkpt><trkpt lat="44.1966312" lon="11.0083009"><ele>307.6666666666667</ele><time>2026-04-06T16:20:36.773Z</time></trkpt><trkpt lat="44.1967662" lon="11.0085385"><ele>309.0</ele><time>2026-04-06T16:20:37.774Z</time></trkpt><trkpt lat="44.1969019" lon="11.0087803"><ele>306.0</ele><time>2026-04-06T16:20:38.781Z</time></trkpt><trkpt lat="44.1970345" lon="11.0090196"><ele>303.0</ele><time>2026-04-06T16:20:39.775Z</time></trkpt><trkpt lat="44.1971717" lon="11.0092451"><ele>300.0</ele><time>2026-04-06T16:20:40.777Z</time></trkpt><trkpt lat="44.1973064" lon="11.0094768"><ele>300.6666666666667</ele><time>2026-04-06T16:20:41.773Z</time></trkpt><trkpt lat="44.1974434" lon="11.009713"><ele>301.33333333333337</ele><time>2026-04-06T16:20:42.799Z</time></trkpt><trkpt lat="44.1975737" lon="11.0099428"><ele>302.0</ele><time>2026-04-06T16:20:43.771Z</time></trkpt><trkpt lat="44.1977103" lon="11.0101765"><ele>302.0</ele><time>2026-04-06T16:20:44.772Z</time></trkpt><trkpt lat="44.1978365" lon="11.0104043"><ele>302.0</ele><time>2026-04-06T16:20:45.774Z</time></trkpt><trkpt lat="44.1979565" lon="11.010634"><ele>302.0</ele><time>2026-04-06T16:20:46.774Z</time></trkpt><trkpt lat="44.1980865" lon="11.0108618"><ele>300.6666666666667</ele><time>2026-04-06T16:20:47.769Z</time></trkpt><trkpt lat="44.1982233" lon="11.0110899"><ele>299.3333333333333</ele><time>2026-04-06T16:20:48.779Z</time></trkpt><trkpt lat="44.1983566" lon="11.011321"><ele>298.0</ele><time>2026-04-06T16:20:49.769Z</time></trkpt><trkpt lat="44.1996601" lon="11.0136822"><ele>298.0</ele><time>2026-04-06T16:20:59.777Z</time></trkpt><trkpt lat="44.1997783" lon="11.0139426"><ele>298.0</ele><time>2026-04-06T16:21:00.776Z</time></trkpt><trkpt lat="44.199901" lon="11.0141994"><ele>298.0</ele><time>2026-04-06T16:21:01.774Z</time></trkpt><trkpt lat="44.2000375" lon="11.014488"><ele>298.5</ele><time>2026-04-06T16:21:02.774Z</time></trkpt><trkpt lat="44.2001377" lon="11.0147844"><ele>299.0</ele><time>2026-04-06T16:21:03.77Z</time></trkpt><trkpt lat="44.2002509" lon="11.0150802"><ele>299.0</ele><time>2026-04-06T16:21:04.772Z</time></trkpt><trkpt lat="44.2003959" lon="11.0153926"><ele>299.0</ele><time>2026-04-06T16:21:05.776Z</time></trkpt><trkpt lat="44.2005354" lon="11.0157274"><ele>298.0</ele><time>2026-04-06T16:21:06.775Z</time></trkpt><trkpt lat="44.2007059" lon="11.0159785"><ele>297.0</ele><time>2026-04-06T16:21:07.773Z</time></trkpt><trkpt lat="44.2008639" lon="11.0162499"><ele>297.0</ele><time>2026-04-06T16:21:08.772Z</time></trkpt><trkpt lat="44.2010604" lon="11.0165204"><ele>297.0</ele><time>2026-04-06T16:21:09.774Z</time></trkpt><trkpt lat="44.201256" lon="11.0167758"><ele>294.0</ele><time>2026-04-06T16:21:10.777Z</time></trkpt><trkpt lat="44.2014636" lon="11.0170171"><ele>291.0</ele><time>2026-04-06T16:21:11.771Z</time></trkpt><trkpt lat="44.201668" lon="11.0172373"><ele>291.0</ele><time>2026-04-06T16:21:12.787Z</time></trkpt><trkpt lat="44.2018796" lon="11.0174349"><ele>291.0</ele><time>2026-04-06T16:21:13.772Z</time></trkpt><trkpt lat="44.2021061" lon="11.0176117"><ele>288.5</ele><time>2026-04-06T16:21:14.778Z</time></trkpt><trkpt lat="44.2023408" lon="11.0177825"><ele>286.0</ele><time>2026-04-06T16:21:15.774Z</time></trkpt><trkpt lat="44.2025901" lon="11.0179493"><ele>286.0</ele><time>2026-04-06T16:21:16.769Z</time></trkpt><trkpt lat="44.2028126" lon="11.0181358"><ele>286.0</ele><time>2026-04-06T16:21:17.771Z</time></trkpt><trkpt lat="44.2030534" lon="11.0183092"><ele>286.5</ele><time>2026-04-06T16:21:18.772Z</time></trkpt><trkpt lat="44.2033004" lon="11.0184846"><ele>287.0</ele><time>2026-04-06T16:21:19.777Z</time></trkpt><trkpt lat="44.2035409" lon="11.0186679"><ele>287.0</ele><time>2026-04-06T16:21:20.777Z</time></trkpt><trkpt lat="44.203763" lon="11.0188363"><ele>287.0</ele><time>2026-04-06T16:21:21.771Z</time></trkpt><trkpt lat="44.2039977" lon="11.0190014"><ele>285.0</ele><time>2026-04-06T16:21:22.772Z</time></trkpt><trkpt lat="44.2042204" lon="11.0191721"><ele>283.0</ele><time>2026-04-06T16:21:23.769Z</time></trkpt><trkpt lat="44.204431" lon="11.0193295"><ele>283.0</ele><time>2026-04-06T16:21:24.77Z</time></trkpt><trkpt lat="44.2046357" lon="11.0194807"><ele>283.0</ele><time>2026-04-06T16:21:25.772Z</time></trkpt><trkpt lat="44.2048415" lon="11.0196326"><ele>286.5</ele><time>2026-04-06T16:21:26.769Z</time></trkpt><trkpt lat="44.2050527" lon="11.0198003"><ele>290.0</ele><time>2026-04-06T16:21:27.77Z</time></trkpt><trkpt lat="44.2052508" lon="11.0199785"><ele>287.0</ele><time>2026-04-06T16:21:28.776Z</time></trkpt><trkpt lat="44.2054436" lon="11.0201702"><ele>284.0</ele><time>2026-04-06T16:21:29.776Z</time></trkpt><trkpt lat="44.2056336" lon="11.0203898"><ele>282.5</ele><time>2026-04-06T16:21:30.772Z</time></trkpt><trkpt lat="44.205796" lon="11.0206146"><ele>281.0</ele><time>2026-04-06T16:21:31.771Z</time></trkpt><trkpt lat="44.2059624" lon="11.0208633"><ele>281.0</ele><time>2026-04-06T16:21:32.776Z</time></trkpt><trkpt lat="44.2061478" lon="11.021093"><ele>281.0</ele><time>2026-04-06T16:21:33.774Z</time></trkpt><trkpt lat="44.206333" lon="11.0213556"><ele>283.0</ele><time>2026-04-06T16:21:34.769Z</time></trkpt><trkpt lat="44.2064963" lon="11.0216541"><ele>285.0</ele><time>2026-04-06T16:21:35.771Z</time></trkpt><trkpt lat="44.2066679" lon="11.021978"><ele>285.0</ele><time>2026-04-06T16:21:36.773Z</time></trkpt><trkpt lat="44.2067749" lon="11.0223834"><ele>285.0</ele><time>2026-04-06T16:21:37.77Z</time></trkpt><trkpt lat="44.2068591" lon="11.0227906"><ele>284.0</ele><time>2026-04-06T16:21:38.775Z</time></trkpt><trkpt lat="44.2069809" lon="11.0231773"><ele>283.0</ele><time>2026-04-06T16:21:39.773Z</time></trkpt><trkpt lat="44.2070858" lon="11.0235689"><ele>281.5</ele><time>2026-04-06T16:21:40.774Z</time></trkpt><trkpt lat="44.2071893" lon="11.0239581"><ele>280.0</ele><time>2026-04-06T16:21:41.774Z</time></trkpt><trkpt lat="44.207299" lon="11.0243323"><ele>279.5</ele><time>2026-04-06T16:21:42.772Z</time></trkpt><trkpt lat="44.207399" lon="11.0246874"><ele>279.0</ele><time>2026-04-06T16:21:43.764Z</time></trkpt><trkpt lat="44.2074866" lon="11.0250262"><ele>277.5</ele><time>2026-04-06T16:21:44.769Z</time></trkpt><trkpt lat="44.2075812" lon="11.0253545"><ele>276.0</ele><time>2026-04-06T16:21:45.771Z</time></trkpt><trkpt lat="44.2076824" lon="11.0256746"><ele>277.0</ele><time>2026-04-06T16:21:46.768Z</time></trkpt><trkpt lat="44.2077779" lon="11.025984"><ele>278.0</ele><time>2026-04-06T16:21:47.777Z</time></trkpt><trkpt lat="44.207899" lon="11.0262734"><ele>278.0</ele><time>2026-04-06T16:21:48.777Z</time></trkpt><trkpt lat="44.2080119" lon="11.0265601"><ele>278.0</ele><time>2026-04-06T16:21:49.772Z</time></trkpt><trkpt lat="44.2081554" lon="11.0268358"><ele>278.0</ele><time>2026-04-06T16:21:50.772Z</time></trkpt><trkpt lat="44.2082968" lon="11.0270942"><ele>278.0</ele><time>2026-04-06T16:21:51.775Z</time></trkpt><trkpt lat="44.2084634" lon="11.0273443"><ele>280.0</ele><time>2026-04-06T16:21:52.773Z</time></trkpt><trkpt lat="44.2086281" lon="11.027583"><ele>282.0</ele><time>2026-04-06T16:21:53.776Z</time></trkpt><trkpt lat="44.2088278" lon="11.0278014"><ele>280.5</ele><time>2026-04-06T16:21:54.769Z</time></trkpt><trkpt lat="44.2090106" lon="11.0280182"><ele>279.0</ele><time>2026-04-06T16:21:55.771Z</time></trkpt><trkpt lat="44.2092289" lon="11.0281972"><ele>281.0</ele><time>2026-04-06T16:21:56.772Z</time></trkpt><trkpt lat="44.2094462" lon="11.028349"><ele>283.0</ele><time>2026-04-06T16:21:57.772Z</time></trkpt><trkpt lat="44.2096712" lon="11.0284937"><ele>282.0</ele><time>2026-04-06T16:21:58.78Z</time></trkpt><trkpt lat="44.2099047" lon="11.0286131"><ele>281.0</ele><time>2026-04-06T16:21:59.777Z</time></trkpt><trkpt lat="44.2101134" lon="11.0287285"><ele>281.0</ele><time>2026-04-06T16:22:00.773Z</time></trkpt><trkpt lat="44.2103772" lon="11.0287581"><ele>281.0</ele><time>2026-04-06T16:22:01.771Z</time></trkpt><trkpt lat="44.210602" lon="11.0287994"><ele>279.5</ele><time>2026-04-06T16:22:02.777Z</time></trkpt><trkpt lat="44.2108244" lon="11.0288235"><ele>278.0</ele><time>2026-04-06T16:22:03.772Z</time></trkpt><trkpt lat="44.2110511" lon="11.028832"><ele>278.0</ele><time>2026-04-06T16:22:04.773Z</time></trkpt><trkpt lat="44.2112838" lon="11.0288428"><ele>278.0</ele><time>2026-04-06T16:22:05.769Z</time></trkpt><trkpt lat="44.2115166" lon="11.0288477"><ele>277.5</ele><time>2026-04-06T16:22:06.77Z</time></trkpt><trkpt lat="44.2117549" lon="11.0288454"><ele>277.0</ele><time>2026-04-06T16:22:07.772Z</time></trkpt><trkpt lat="44.2119826" lon="11.0288402"><ele>277.0</ele><time>2026-04-06T16:22:08.773Z</time></trkpt><trkpt lat="44.2121978" lon="11.0288349"><ele>277.0</ele><time>2026-04-06T16:22:09.777Z</time></trkpt><trkpt lat="44.2124219" lon="11.028806"><ele>277.0</ele><time>2026-04-06T16:22:10.774Z</time></trkpt><trkpt lat="44.2126427" lon="11.0287534"><ele>277.0</ele><time>2026-04-06T16:22:11.777Z</time></trkpt><trkpt lat="44.2128626" lon="11.0286983"><ele>277.0</ele><time>2026-04-06T16:22:12.772Z</time></trkpt><trkpt lat="44.2130927" lon="11.0286365"><ele>279.0</ele><time>2026-04-06T16:22:13.77Z</time></trkpt><trkpt lat="44.2133192" lon="11.0285665"><ele>281.0</ele><time>2026-04-06T16:22:14.771Z</time></trkpt><trkpt lat="44.2135392" lon="11.0285027"><ele>281.0</ele><time>2026-04-06T16:22:15.77Z</time></trkpt><trkpt lat="44.2137611" lon="11.0284534"><ele>281.0</ele><time>2026-04-06T16:22:16.776Z</time></trkpt><trkpt lat="44.2139864" lon="11.0284072"><ele>280.0</ele><time>2026-04-06T16:22:17.776Z</time></trkpt><trkpt lat="44.2142131" lon="11.0283808"><ele>279.0</ele><time>2026-04-06T16:22:18.775Z</time></trkpt><trkpt lat="44.2144393" lon="11.0283738"><ele>279.0</ele><time>2026-04-06T16:22:19.772Z</time></trkpt><trkpt lat="44.2146694" lon="11.028396"><ele>279.0</ele><time>2026-04-06T16:22:20.775Z</time></trkpt><trkpt lat="44.2148855" lon="11.0284137"><ele>279.0</ele><time>2026-04-06T16:22:21.773Z</time></trkpt><trkpt lat="44.2150965" lon="11.0284409"><ele>277.6666666666667</ele><time>2026-04-06T16:22:22.776Z</time></trkpt><trkpt lat="44.2152899" lon="11.0284655"><ele>276.33333333333337</ele><time>2026-04-06T16:22:23.773Z</time></trkpt><trkpt lat="44.2154863" lon="11.0284993"><ele>275.0</ele><time>2026-04-06T16:22:24.776Z</time></trkpt><trkpt lat="44.2156892" lon="11.0285662"><ele>275.0</ele><time>2026-04-06T16:22:25.773Z</time></trkpt><trkpt lat="44.2158946" lon="11.0286428"><ele>275.0</ele><time>2026-04-06T16:22:26.777Z</time></trkpt><trkpt lat="44.2160967" lon="11.0287184"><ele>275.0</ele><time>2026-04-06T16:22:27.772Z</time></trkpt><trkpt lat="44.2163035" lon="11.0288197"><ele>275.33333333333337</ele><time>2026-04-06T16:22:28.778Z</time></trkpt><trkpt lat="44.2165171" lon="11.0289317"><ele>275.6666666666667</ele><time>2026-04-06T16:22:29.778Z</time></trkpt><trkpt lat="44.2167194" lon="11.029037"><ele>276.0</ele><time>2026-04-06T16:22:30.773Z</time></trkpt><trkpt lat="44.216929" lon="11.0292031"><ele>276.0</ele><time>2026-04-06T16:22:31.777Z</time></trkpt><trkpt lat="44.2171356" lon="11.0293675"><ele>276.0</ele><time>2026-04-06T16:22:32.777Z</time></trkpt><trkpt lat="44.2173481" lon="11.0295412"><ele>273.0</ele><time>2026-04-06T16:22:33.769Z</time></trkpt><trkpt lat="44.2175546" lon="11.029716"><ele>270.0</ele><time>2026-04-06T16:22:34.776Z</time></trkpt><trkpt lat="44.217773" lon="11.0298942"><ele>270.5</ele><time>2026-04-06T16:22:35.771Z</time></trkpt><trkpt lat="44.2179821" lon="11.0300724"><ele>271.0</ele><time>2026-04-06T16:22:36.776Z</time></trkpt><trkpt lat="44.218182" lon="11.0302556"><ele>271.0</ele><time>2026-04-06T16:22:37.775Z</time></trkpt><trkpt lat="44.2183971" lon="11.0304243"><ele>271.0</ele><time>2026-04-06T16:22:38.771Z</time></trkpt><trkpt lat="44.2186109" lon="11.0305921"><ele>271.0</ele><time>2026-04-06T16:22:39.768Z</time></trkpt><trkpt lat="44.2188282" lon="11.0307437"><ele>271.0</ele><time>2026-04-06T16:22:40.774Z</time></trkpt><trkpt lat="44.2190443" lon="11.0308813"><ele>272.5</ele><time>2026-04-06T16:22:41.771Z</time></trkpt><trkpt lat="44.2192626" lon="11.0310086"><ele>274.0</ele><time>2026-04-06T16:22:42.772Z</time></trkpt><trkpt lat="44.2194767" lon="11.0311247"><ele>274.0</ele><time>2026-04-06T16:22:43.771Z</time></trkpt><trkpt lat="44.2197222" lon="11.0312154"><ele>274.0</ele><time>2026-04-06T16:22:44.777Z</time></trkpt><trkpt lat="44.2199704" lon="11.0313014"><ele>273.5</ele><time>2026-04-06T16:22:45.774Z</time></trkpt><trkpt lat="44.2202202" lon="11.0313621"><ele>273.0</ele><time>2026-04-06T16:22:46.776Z</time></trkpt><trkpt lat="44.2204524" lon="11.0314287"><ele>271.0</ele><time>2026-04-06T16:22:47.773Z</time></trkpt><trkpt lat="44.2206909" lon="11.0314869"><ele>269.0</ele><time>2026-04-06T16:22:48.77Z</time></trkpt><trkpt lat="44.2235169" lon="11.0333031"><ele>267.5</ele><time>2026-04-06T16:23:02.786Z</time></trkpt><trkpt lat="44.2236308" lon="11.0335554"><ele>266.0</ele><time>2026-04-06T16:23:03.773Z</time></trkpt><trkpt lat="44.2237444" lon="11.033848"><ele>266.0</ele><time>2026-04-06T16:23:04.774Z</time></trkpt><trkpt lat="44.2238694" lon="11.034114"><ele>266.0</ele><time>2026-04-06T16:23:05.772Z</time></trkpt><trkpt lat="44.2240052" lon="11.0343979"><ele>262.5</ele><time>2026-04-06T16:23:06.774Z</time></trkpt><trkpt lat="44.2241289" lon="11.0346794"><ele>259.0</ele><time>2026-04-06T16:23:07.773Z</time></trkpt><trkpt lat="44.2242568" lon="11.0349567"><ele>260.0</ele><time>2026-04-06T16:23:08.774Z</time></trkpt><trkpt lat="44.2243866" lon="11.0352275"><ele>261.0</ele><time>2026-04-06T16:23:09.777Z</time></trkpt><trkpt lat="44.2245287" lon="11.0354851"><ele>261.0</ele><time>2026-04-06T16:23:10.77Z</time></trkpt><trkpt lat="44.2246894" lon="11.0357341"><ele>261.0</ele><time>2026-04-06T16:23:11.773Z</time></trkpt><trkpt lat="44.2248366" lon="11.0359801"><ele>259.0</ele><time>2026-04-06T16:23:12.776Z</time></trkpt><trkpt lat="44.2249931" lon="11.0362161"><ele>257.0</ele><time>2026-04-06T16:23:13.768Z</time></trkpt><trkpt lat="44.2251576" lon="11.0364532"><ele>258.0</ele><time>2026-04-06T16:23:14.766Z</time></trkpt><trkpt lat="44.2253323" lon="11.0366849"><ele>259.0</ele><time>2026-04-06T16:23:15.774Z</time></trkpt><trkpt lat="44.2255077" lon="11.0369155"><ele>259.0</ele><time>2026-04-06T16:23:16.77Z</time></trkpt><trkpt lat="44.2256681" lon="11.0371424"><ele>259.0</ele><time>2026-04-06T16:23:17.774Z</time></trkpt><trkpt lat="44.2258244" lon="11.0373507"><ele>259.0</ele><time>2026-04-06T16:23:18.769Z</time></trkpt><trkpt lat="44.2259745" lon="11.0375594"><ele>259.0</ele><time>2026-04-06T16:23:19.773Z</time></trkpt><trkpt lat="44.2261087" lon="11.0377611"><ele>259.0</ele><time>2026-04-06T16:23:20.774Z</time></trkpt><trkpt lat="44.2262501" lon="11.0379556"><ele>259.0</ele><time>2026-04-06T16:23:21.775Z</time></trkpt><trkpt lat="44.2263961" lon="11.0381646"><ele>259.0</ele><time>2026-04-06T16:23:22.774Z</time></trkpt><trkpt lat="44.22651" lon="11.0382951"><ele>259.0</ele><time>2026-04-06T16:23:23.771Z</time></trkpt><trkpt lat="44.2266115" lon="11.0384303"><ele>259.0</ele><time>2026-04-06T16:23:24.775Z</time></trkpt><trkpt lat="44.2266858" lon="11.038535"><ele>259.0</ele><time>2026-04-06T16:23:25.775Z</time></trkpt><trkpt lat="44.226766" lon="11.0386208"><ele>259.0</ele><time>2026-04-06T16:23:26.772Z</time></trkpt><trkpt lat="44.226831" lon="11.0386762"><ele>259.0</ele><time>2026-04-06T16:23:27.769Z</time></trkpt><trkpt lat="44.2269109" lon="11.0387007"><ele>259.0</ele><time>2026-04-06T16:23:28.775Z</time></trkpt><trkpt lat="44.2269852" lon="11.0387273"><ele>259.0</ele><time>2026-04-06T16:23:29.778Z</time></trkpt><trkpt lat="44.2270527" lon="11.038746"><ele>259.0</ele><time>2026-04-06T16:23:30.79Z</time></trkpt><trkpt lat="44.2271297" lon="11.0387889"><ele>259.0</ele><time>2026-04-06T16:23:31.773Z</time></trkpt><trkpt lat="44.2272126" lon="11.0388566"><ele>259.0</ele><time>2026-04-06T16:23:32.768Z</time></trkpt><trkpt lat="44.2272872" lon="11.0389583"><ele>259.0</ele><time>2026-04-06T16:23:33.775Z</time></trkpt><trkpt lat="44.2273724" lon="11.0390791"><ele>259.0</ele><time>2026-04-06T16:23:34.775Z</time></trkpt><trkpt lat="44.2274441" lon="11.0392501"><ele>259.0</ele><time>2026-04-06T16:23:35.777Z</time></trkpt><trkpt lat="44.2274973" lon="11.0394406"><ele>258.3333333333333</ele><time>2026-04-06T16:23:36.772Z</time></trkpt><trkpt lat="44.2275462" lon="11.0396497"><ele>257.6666666666667</ele><time>2026-04-06T16:23:37.775Z</time></trkpt><trkpt lat="44.227588" lon="11.0398755"><ele>257.0</ele><time>2026-04-06T16:23:38.775Z</time></trkpt><trkpt lat="44.2276252" lon="11.040124"><ele>257.0</ele><time>2026-04-06T16:23:39.776Z</time></trkpt><trkpt lat="44.2276568" lon="11.0404041"><ele>257.0</ele><time>2026-04-06T16:23:40.773Z</time></trkpt><trkpt lat="44.227688" lon="11.0407211"><ele>257.0</ele><time>2026-04-06T16:23:41.775Z</time></trkpt><trkpt lat="44.2277128" lon="11.041053"><ele>256.5</ele><time>2026-04-06T16:23:42.77Z</time></trkpt><trkpt lat="44.2277384" lon="11.0414452"><ele>256.0</ele><time>2026-04-06T16:23:43.762Z</time></trkpt><trkpt lat="44.2277287" lon="11.0418332"><ele>257.5</ele><time>2026-04-06T16:23:44.771Z</time></trkpt><trkpt lat="44.2276907" lon="11.0422142"><ele>259.0</ele><time>2026-04-06T16:23:45.762Z</time></trkpt><trkpt lat="44.2276766" lon="11.042595"><ele>261.0</ele><time>2026-04-06T16:23:46.758Z</time></trkpt><trkpt lat="44.2276769" lon="11.0429595"><ele>263.0</ele><time>2026-04-06T16:23:47.772Z</time></trkpt><trkpt lat="44.2276734" lon="11.0433539"><ele>264.0</ele><time>2026-04-06T16:23:48.763Z</time></trkpt><trkpt lat="44.2276457" lon="11.043751"><ele>265.0</ele><time>2026-04-06T16:23:49.772Z</time></trkpt><trkpt lat="44.2276281" lon="11.0441682"><ele>267.5</ele><time>2026-04-06T16:23:50.773Z</time></trkpt><trkpt lat="44.2276102" lon="11.0446052"><ele>270.0</ele><time>2026-04-06T16:23:51.777Z</time></trkpt><trkpt lat="44.2275981" lon="11.0450341"><ele>271.0</ele><time>2026-04-06T16:23:52.771Z</time></trkpt><trkpt lat="44.2275749" lon="11.0454563"><ele>272.0</ele><time>2026-04-06T16:23:53.769Z</time></trkpt><trkpt lat="44.2275691" lon="11.0458504"><ele>272.0</ele><time>2026-04-06T16:23:54.775Z</time></trkpt><trkpt lat="44.2275506" lon="11.0462268"><ele>272.0</ele><time>2026-04-06T16:23:55.774Z</time></trkpt><trkpt lat="44.2275349" lon="11.0465971"><ele>270.5</ele><time>2026-04-06T16:23:56.773Z</time></trkpt><trkpt lat="44.2275544" lon="11.0469589"><ele>269.0</ele><time>2026-04-06T16:23:57.774Z</time></trkpt><trkpt lat="44.2275928" lon="11.047312"><ele>267.5</ele><time>2026-04-06T16:23:58.77Z</time></trkpt><trkpt lat="44.2276475" lon="11.0476515"><ele>266.0</ele><time>2026-04-06T16:23:59.774Z</time></trkpt><trkpt lat="44.2277608" lon="11.0479815"><ele>265.5</ele><time>2026-04-06T16:24:00.769Z</time></trkpt><trkpt lat="44.2278408" lon="11.0483214"><ele>265.0</ele><time>2026-04-06T16:24:01.769Z</time></trkpt><trkpt lat="44.2279984" lon="11.0486255"><ele>258.5</ele><time>2026-04-06T16:24:02.77Z</time></trkpt><trkpt lat="44.2281541" lon="11.0489229"><ele>252.0</ele><time>2026-04-06T16:24:03.773Z</time></trkpt><trkpt lat="44.2283211" lon="11.0492181"><ele>252.0</ele><time>2026-04-06T16:24:04.77Z</time></trkpt><trkpt lat="44.2285015" lon="11.049498"><ele>252.0</ele><time>2026-04-06T16:24:05.771Z</time></trkpt><trkpt lat="44.2286827" lon="11.0497567"><ele>254.0</ele><time>2026-04-06T16:24:06.772Z</time></trkpt><trkpt lat="44.2288701" lon="11.0500006"><ele>256.0</ele><time>2026-04-06T16:24:07.774Z</time></trkpt><trkpt lat="44.2290229" lon="11.0502435"><ele>259.0</ele><time>2026-04-06T16:24:08.773Z</time></trkpt><trkpt lat="44.2291984" lon="11.0504833"><ele>262.0</ele><time>2026-04-06T16:24:09.773Z</time></trkpt><trkpt lat="44.229414" lon="11.0507121"><ele>260.0</ele><time>2026-04-06T16:24:10.776Z</time></trkpt><trkpt lat="44.2296029" lon="11.0509364"><ele>258.0</ele><time>2026-04-06T16:24:11.774Z</time></trkpt><trkpt lat="44.2297912" lon="11.051175"><ele>260.0</ele><time>2026-04-06T16:24:12.774Z</time></trkpt><trkpt lat="44.2299807" lon="11.0514145"><ele>262.0</ele><time>2026-04-06T16:24:13.768Z</time></trkpt><trkpt lat="44.2378927" lon="11.0692125"><ele>242.0</ele><time>2026-04-06T16:25:17.727Z</time></trkpt><trkpt lat="44.2386947" lon="11.0711648"><ele>242.0</ele><time>2026-04-06T16:25:24.783Z</time></trkpt><trkpt lat="44.2387849" lon="11.0714439"><ele>242.0</ele><time>2026-04-06T16:25:25.77Z</time></trkpt><trkpt lat="44.2388934" lon="11.0717211"><ele>242.0</ele><time>2026-04-06T16:25:26.777Z</time></trkpt><trkpt lat="44.238993" lon="11.0719938"><ele>239.0</ele><time>2026-04-06T16:25:27.77Z</time></trkpt><trkpt lat="44.239113" lon="11.0722721"><ele>236.0</ele><time>2026-04-06T16:25:28.774Z</time></trkpt><trkpt lat="44.2392361" lon="11.0725495"><ele>236.0</ele><time>2026-04-06T16:25:29.763Z</time></trkpt><trkpt lat="44.2393627" lon="11.0728401"><ele>236.0</ele><time>2026-04-06T16:25:30.775Z</time></trkpt><trkpt lat="44.2394904" lon="11.0731306"><ele>234.0</ele><time>2026-04-06T16:25:31.763Z</time></trkpt><trkpt lat="44.2395995" lon="11.0734142"><ele>232.0</ele><time>2026-04-06T16:25:32.769Z</time></trkpt><trkpt lat="44.2396981" lon="11.0737268"><ele>232.0</ele><time>2026-04-06T16:25:33.767Z</time></trkpt><trkpt lat="44.2397816" lon="11.0740462"><ele>232.0</ele><time>2026-04-06T16:25:34.771Z</time></trkpt><trkpt lat="44.2398719" lon="11.0743636"><ele>231.5</ele><time>2026-04-06T16:25:35.772Z</time></trkpt><trkpt lat="44.2399115" lon="11.0746961"><ele>231.0</ele><time>2026-04-06T16:25:36.775Z</time></trkpt><trkpt lat="44.239931" lon="11.0750289"><ele>231.0</ele><time>2026-04-06T16:25:37.772Z</time></trkpt><trkpt lat="44.2399482" lon="11.0753731"><ele>231.0</ele><time>2026-04-06T16:25:38.776Z</time></trkpt><trkpt lat="44.2399578" lon="11.07572"><ele>231.5</ele><time>2026-04-06T16:25:39.769Z</time></trkpt><trkpt lat="44.239976" lon="11.0760669"><ele>232.0</ele><time>2026-04-06T16:25:40.771Z</time></trkpt><trkpt lat="44.2399859" lon="11.0764103"><ele>231.0</ele><time>2026-04-06T16:25:41.772Z</time></trkpt><trkpt lat="44.2399956" lon="11.0767601"><ele>230.0</ele><time>2026-04-06T16:25:42.769Z</time></trkpt><trkpt lat="44.2400021" lon="11.0771156"><ele>229.5</ele><time>2026-04-06T16:25:43.77Z</time></trkpt><trkpt lat="44.240007" lon="11.0774747"><ele>229.0</ele><time>2026-04-06T16:25:44.762Z</time></trkpt><trkpt lat="44.2400121" lon="11.077835"><ele>229.0</ele><time>2026-04-06T16:25:45.769Z</time></trkpt><trkpt lat="44.2400205" lon="11.0782056"><ele>229.0</ele><time>2026-04-06T16:25:46.773Z</time></trkpt><trkpt lat="44.2400272" lon="11.0785853"><ele>229.0</ele><time>2026-04-06T16:25:47.779Z</time></trkpt><trkpt lat="44.2400354" lon="11.0789735"><ele>229.0</ele><time>2026-04-06T16:25:48.771Z</time></trkpt><trkpt lat="44.2400445" lon="11.0793466"><ele>229.0</ele><time>2026-04-06T16:25:49.77Z</time></trkpt><trkpt lat="44.2400564" lon="11.079709"><ele>229.0</ele><time>2026-04-06T16:25:50.77Z</time></trkpt><trkpt lat="44.2400614" lon="11.0800653"><ele>229.0</ele><time>2026-04-06T16:25:51.774Z</time></trkpt><trkpt lat="44.2400698" lon="11.0804205"><ele>229.0</ele><time>2026-04-06T16:25:52.778Z</time></trkpt><trkpt lat="44.2400779" lon="11.0807627"><ele>228.5</ele><time>2026-04-06T16:25:53.775Z</time></trkpt><trkpt lat="44.2400858" lon="11.0810986"><ele>228.0</ele><time>2026-04-06T16:25:54.774Z</time></trkpt><trkpt lat="44.2400941" lon="11.0814295"><ele>227.0</ele><time>2026-04-06T16:25:55.774Z</time></trkpt><trkpt lat="44.2401034" lon="11.0817525"><ele>226.0</ele><time>2026-04-06T16:25:56.772Z</time></trkpt><trkpt lat="44.2401101" lon="11.082073"><ele>226.0</ele><time>2026-04-06T16:25:57.772Z</time></trkpt><trkpt lat="44.2401174" lon="11.0823838"><ele>226.0</ele><time>2026-04-06T16:25:58.777Z</time></trkpt><trkpt lat="44.2401307" lon="11.0827062"><ele>227.0</ele><time>2026-04-06T16:25:59.77Z</time></trkpt><trkpt lat="44.2401505" lon="11.0830554"><ele>228.0</ele><time>2026-04-06T16:26:00.769Z</time></trkpt><trkpt lat="44.2401633" lon="11.083433"><ele>228.5</ele><time>2026-04-06T16:26:01.774Z</time></trkpt><trkpt lat="44.2401711" lon="11.0838041"><ele>229.0</ele><time>2026-04-06T16:26:02.773Z</time></trkpt><trkpt lat="44.2401799" lon="11.0841656"><ele>228.0</ele><time>2026-04-06T16:26:03.771Z</time></trkpt><trkpt lat="44.2401857" lon="11.0845155"><ele>227.0</ele><time>2026-04-06T16:26:04.772Z</time></trkpt><trkpt lat="44.2401908" lon="11.084844"><ele>227.0</ele><time>2026-04-06T16:26:05.777Z</time></trkpt><trkpt lat="44.2402012" lon="11.0851546"><ele>227.0</ele><time>2026-04-06T16:26:06.771Z</time></trkpt><trkpt lat="44.240221" lon="11.0854671"><ele>227.0</ele><time>2026-04-06T16:26:07.775Z</time></trkpt><trkpt lat="44.2402509" lon="11.0857661"><ele>227.0</ele><time>2026-04-06T16:26:08.771Z</time></trkpt><trkpt lat="44.2402972" lon="11.0860617"><ele>227.0</ele><time>2026-04-06T16:26:09.773Z</time></trkpt><trkpt lat="44.2403541" lon="11.0863554"><ele>227.0</ele><time>2026-04-06T16:26:10.779Z</time></trkpt><trkpt lat="44.2404288" lon="11.0866318"><ele>227.33333333333334</ele><time>2026-04-06T16:26:11.773Z</time></trkpt><trkpt lat="44.2405061" lon="11.0869115"><ele>227.66666666666669</ele><time>2026-04-06T16:26:12.774Z</time></trkpt><trkpt lat="44.2406085" lon="11.08718"><ele>228.0</ele><time>2026-04-06T16:26:13.77Z</time></trkpt><trkpt lat="44.2407183" lon="11.0874394"><ele>227.0</ele><time>2026-04-06T16:26:14.774Z</time></trkpt><trkpt lat="44.2408249" lon="11.0876907"><ele>226.0</ele><time>2026-04-06T16:26:15.776Z</time></trkpt><trkpt lat="44.2409505" lon="11.0879345"><ele>225.0</ele><time>2026-04-06T16:26:16.772Z</time></trkpt><trkpt lat="44.241076" lon="11.0881813"><ele>225.0</ele><time>2026-04-06T16:26:17.773Z</time></trkpt><trkpt lat="44.2412266" lon="11.0883974"><ele>225.0</ele><time>2026-04-06T16:26:18.773Z</time></trkpt><trkpt lat="44.2413734" lon="11.0886055"><ele>225.0</ele><time>2026-04-06T16:26:19.774Z</time></trkpt><trkpt lat="44.2415367" lon="11.0888051"><ele>225.0</ele><time>2026-04-06T16:26:20.774Z</time></trkpt><trkpt lat="44.2417009" lon="11.0890028"><ele>225.0</ele><time>2026-04-06T16:26:21.774Z</time></trkpt><trkpt lat="44.241877" lon="11.0891827"><ele>225.0</ele><time>2026-04-06T16:26:22.775Z</time></trkpt><trkpt lat="44.2420678" lon="11.0893163"><ele>225.0</ele><time>2026-04-06T16:26:23.772Z</time></trkpt><trkpt lat="44.2422581" lon="11.0894728"><ele>225.0</ele><time>2026-04-06T16:26:24.773Z</time></trkpt><trkpt lat="44.2424414" lon="11.089616"><ele>225.0</ele><time>2026-04-06T16:26:25.778Z</time></trkpt><trkpt lat="44.2426038" lon="11.0897466"><ele>224.33333333333331</ele><time>2026-04-06T16:26:26.774Z</time></trkpt><trkpt lat="44.2427753" lon="11.0898704"><ele>223.66666666666666</ele><time>2026-04-06T16:26:27.776Z</time></trkpt><trkpt lat="44.2429528" lon="11.0899832"><ele>223.0</ele><time>2026-04-06T16:26:28.772Z</time></trkpt><trkpt lat="44.2431143" lon="11.0901058"><ele>223.33333333333331</ele><time>2026-04-06T16:26:29.771Z</time></trkpt><trkpt lat="44.2432841" lon="11.0902201"><ele>223.66666666666669</ele><time>2026-04-06T16:26:30.778Z</time></trkpt><trkpt lat="44.2434298" lon="11.0903322"><ele>224.0</ele><time>2026-04-06T16:26:31.778Z</time></trkpt><trkpt lat="44.2435916" lon="11.0904439"><ele>224.0</ele><time>2026-04-06T16:26:32.778Z</time></trkpt><trkpt lat="44.2437078" lon="11.0905794"><ele>224.0</ele><time>2026-04-06T16:26:33.771Z</time></trkpt><trkpt lat="44.2438378" lon="11.0907198"><ele>224.0</ele><time>2026-04-06T16:26:34.772Z</time></trkpt><trkpt lat="44.2439593" lon="11.0908834"><ele>225.66666666666669</ele><time>2026-04-06T16:26:35.773Z</time></trkpt><trkpt lat="44.2440898" lon="11.0910422"><ele>227.33333333333331</ele><time>2026-04-06T16:26:36.775Z</time></trkpt><trkpt lat="44.2442327" lon="11.0911975"><ele>229.0</ele><time>2026-04-06T16:26:37.776Z</time></trkpt><trkpt lat="44.2443755" lon="11.0913604"><ele>229.0</ele><time>2026-04-06T16:26:38.769Z</time></trkpt><trkpt lat="44.2445255" lon="11.0915277"><ele>229.0</ele><time>2026-04-06T16:26:39.769Z</time></trkpt><trkpt lat="44.2446767" lon="11.0917129"><ele>229.0</ele><time>2026-04-06T16:26:40.775Z</time></trkpt><trkpt lat="44.2447808" lon="11.0918993"><ele>228.0</ele><time>2026-04-06T16:26:41.774Z</time></trkpt><trkpt lat="44.2448941" lon="11.092064"><ele>227.0</ele><time>2026-04-06T16:26:42.775Z</time></trkpt><trkpt lat="44.245007" lon="11.0922242"><ele>226.0</ele><time>2026-04-06T16:26:43.773Z</time></trkpt><trkpt lat="44.2450897" lon="11.0924012"><ele>228.66666666666666</ele><time>2026-04-06T16:26:44.769Z</time></trkpt><trkpt lat="44.2452145" lon="11.0925636"><ele>231.33333333333331</ele><time>2026-04-06T16:26:45.77Z</time></trkpt><trkpt lat="44.2453341" lon="11.0927168"><ele>234.0</ele><time>2026-04-06T16:26:46.762Z</time></trkpt><trkpt lat="44.2454573" lon="11.0928769"><ele>234.0</ele><time>2026-04-06T16:26:47.78Z</time></trkpt><trkpt lat="44.245589" lon="11.0930357"><ele>234.0</ele><time>2026-04-06T16:26:48.777Z</time></trkpt><trkpt lat="44.2457412" lon="11.0931653"><ele>234.0</ele><time>2026-04-06T16:26:49.773Z</time></trkpt><trkpt lat="44.2458962" lon="11.0933175"><ele>230.0</ele><time>2026-04-06T16:26:50.768Z</time></trkpt><trkpt lat="44.2459651" lon="11.0934973"><ele>226.0</ele><time>2026-04-06T16:26:51.765Z</time></trkpt><trkpt lat="44.2460524" lon="11.0936736"><ele>222.0</ele><time>2026-04-06T16:26:52.774Z</time></trkpt><trkpt lat="44.2461657" lon="11.0938399"><ele>223.0</ele><time>2026-04-06T16:26:53.773Z</time></trkpt><trkpt lat="44.2463923" lon="11.0941705"><ele>224.0</ele><time>2026-04-06T16:26:55.777Z</time></trkpt><trkpt lat="44.2465265" lon="11.0943622"><ele>224.33333333333334</ele><time>2026-04-06T16:26:56.849Z</time></trkpt><trkpt lat="44.2466899" lon="11.0945667"><ele>224.66666666666669</ele><time>2026-04-06T16:26:57.775Z</time></trkpt><trkpt lat="44.2468201" lon="11.0947961"><ele>225.0</ele><time>2026-04-06T16:26:58.771Z</time></trkpt><trkpt lat="44.2469708" lon="11.0950059"><ele>225.0</ele><time>2026-04-06T16:26:59.77Z</time></trkpt><trkpt lat="44.2471213" lon="11.0951994"><ele>225.0</ele><time>2026-04-06T16:27:00.773Z</time></trkpt><trkpt lat="44.2472571" lon="11.0953837"><ele>225.0</ele><time>2026-04-06T16:27:01.781Z</time></trkpt><trkpt lat="44.2473999" lon="11.0955612"><ele>223.0</ele><time>2026-04-06T16:27:02.773Z</time></trkpt><trkpt lat="44.2475478" lon="11.0957284"><ele>221.0</ele><time>2026-04-06T16:27:03.805Z</time></trkpt><trkpt lat="44.2488973" lon="11.0966351"><ele>220.75</ele><time>2026-04-06T16:27:13.767Z</time></trkpt><trkpt lat="44.2490874" lon="11.0966478"><ele>220.5</ele><time>2026-04-06T16:27:14.77Z</time></trkpt><trkpt lat="44.2492076" lon="11.0966769"><ele>220.25</ele><time>2026-04-06T16:27:15.767Z</time></trkpt><trkpt lat="44.2493284" lon="11.096726"><ele>220.0</ele><time>2026-04-06T16:27:16.766Z</time></trkpt><trkpt lat="44.2494655" lon="11.0967747"><ele>220.0</ele><time>2026-04-06T16:27:17.775Z</time></trkpt><trkpt lat="44.2495422" lon="11.0968429"><ele>220.0</ele><time>2026-04-06T16:27:18.774Z</time></trkpt><trkpt lat="44.2496414" lon="11.0968992"><ele>220.0</ele><time>2026-04-06T16:27:19.777Z</time></trkpt><trkpt lat="44.2497608" lon="11.0969192"><ele>220.0</ele><time>2026-04-06T16:27:20.763Z</time></trkpt><trkpt lat="44.2498986" lon="11.0969682"><ele>219.75</ele><time>2026-04-06T16:27:21.765Z</time></trkpt><trkpt lat="44.2500306" lon="11.097051"><ele>219.5</ele><time>2026-04-06T16:27:22.775Z</time></trkpt><trkpt lat="44.2501328" lon="11.0971317"><ele>219.25</ele><time>2026-04-06T16:27:23.788Z</time></trkpt><trkpt lat="44.2502471" lon="11.0972086"><ele>219.0</ele><time>2026-04-06T16:27:24.771Z</time></trkpt><trkpt lat="44.2504097" lon="11.0972694"><ele>219.0</ele><time>2026-04-06T16:27:25.774Z</time></trkpt><trkpt lat="44.2505391" lon="11.097328"><ele>219.0</ele><time>2026-04-06T16:27:26.767Z</time></trkpt><trkpt lat="44.2506496" lon="11.0974316"><ele>219.0</ele><time>2026-04-06T16:27:27.768Z</time></trkpt><trkpt lat="44.2507633" lon="11.0975215"><ele>219.0</ele><time>2026-04-06T16:27:28.78Z</time></trkpt><trkpt lat="44.2508749" lon="11.097604"><ele>218.5</ele><time>2026-04-06T16:27:29.781Z</time></trkpt><trkpt lat="44.2509913" lon="11.0977164"><ele>218.0</ele><time>2026-04-06T16:27:30.78Z</time></trkpt><trkpt lat="44.2511049" lon="11.0978188"><ele>217.5</ele><time>2026-04-06T16:27:31.765Z</time></trkpt><trkpt lat="44.2512343" lon="11.0979067"><ele>217.0</ele><time>2026-04-06T16:27:32.771Z</time></trkpt><trkpt lat="44.2513557" lon="11.0980158"><ele>217.0</ele><time>2026-04-06T16:27:33.779Z</time></trkpt><trkpt lat="44.2515013" lon="11.0981381"><ele>217.0</ele><time>2026-04-06T16:27:34.774Z</time></trkpt><trkpt lat="44.2516517" lon="11.098258"><ele>217.0</ele><time>2026-04-06T16:27:35.768Z</time></trkpt><trkpt lat="44.2518102" lon="11.0983795"><ele>215.66666666666666</ele><time>2026-04-06T16:27:36.769Z</time></trkpt><trkpt lat="44.2519378" lon="11.0984908"><ele>214.33333333333331</ele><time>2026-04-06T16:27:37.771Z</time></trkpt><trkpt lat="44.2520654" lon="11.098604"><ele>213.0</ele><time>2026-04-06T16:27:38.767Z</time></trkpt><trkpt lat="44.2521957" lon="11.0987194"><ele>213.0</ele><time>2026-04-06T16:27:39.78Z</time></trkpt><trkpt lat="44.2523237" lon="11.0988519"><ele>213.0</ele><time>2026-04-06T16:27:40.788Z</time></trkpt><trkpt lat="44.2524497" lon="11.098973"><ele>213.0</ele><time>2026-04-06T16:27:41.764Z</time></trkpt><trkpt lat="44.2525565" lon="11.0990841"><ele>213.0</ele><time>2026-04-06T16:27:42.821Z</time></trkpt><trkpt lat="44.252675" lon="11.0992103"><ele>213.0</ele><time>2026-04-06T16:27:43.815Z</time></trkpt><trkpt lat="44.2527797" lon="11.0993305"><ele>213.0</ele><time>2026-04-06T16:27:44.774Z</time></trkpt><trkpt lat="44.2532912" lon="11.099502"><ele>212.0</ele><time>2026-04-06T16:27:47.382Z</time></trkpt><trkpt lat="44.2534151" lon="11.0995965"><ele>211.0</ele><time>2026-04-06T16:27:48.425Z</time></trkpt><trkpt lat="44.2535316" lon="11.0997042"><ele>210.0</ele><time>2026-04-06T16:27:49.404Z</time></trkpt><trkpt lat="44.2537241" lon="11.1017976"><ele>210.0</ele><time>2026-04-06T16:27:58.381Z</time></trkpt><trkpt lat="44.2537317" lon="11.1019239"><ele>210.0</ele><time>2026-04-06T16:27:59.381Z</time></trkpt><trkpt lat="44.2538627" lon="11.1021379"><ele>210.0</ele><time>2026-04-06T16:28:00.382Z</time></trkpt><trkpt lat="44.2540655" lon="11.1022469"><ele>210.66666666666669</ele><time>2026-04-06T16:28:01.385Z</time></trkpt><trkpt lat="44.2541053" lon="11.102398"><ele>211.33333333333334</ele><time>2026-04-06T16:28:02.387Z</time></trkpt><trkpt lat="44.2541793" lon="11.1025561"><ele>212.0</ele><time>2026-04-06T16:28:03.379Z</time></trkpt><trkpt lat="44.254354" lon="11.1027133"><ele>212.0</ele><time>2026-04-06T16:28:04.382Z</time></trkpt><trkpt lat="44.2546822" lon="11.1028421"><ele>212.0</ele><time>2026-04-06T16:28:05.387Z</time></trkpt><trkpt lat="44.2548346" lon="11.1030112"><ele>212.0</ele><time>2026-04-06T16:28:06.404Z</time></trkpt><trkpt lat="44.2547872" lon="11.1032419"><ele>212.0</ele><time>2026-04-06T16:28:07.383Z</time></trkpt><trkpt lat="44.2549316" lon="11.1032945"><ele>212.0</ele><time>2026-04-06T16:28:08.384Z</time></trkpt><trkpt lat="44.2550218" lon="11.103334"><ele>212.0</ele><time>2026-04-06T16:28:09.432Z</time></trkpt><trkpt lat="44.2551476" lon="11.1034059"><ele>212.0</ele><time>2026-04-06T16:28:10.389Z</time></trkpt><trkpt lat="44.2552121" lon="11.1035545"><ele>212.0</ele><time>2026-04-06T16:28:11.384Z</time></trkpt><trkpt lat="44.2553139" lon="11.1037214"><ele>212.0</ele><time>2026-04-06T16:28:12.394Z</time></trkpt><trkpt lat="44.2554268" lon="11.1038256"><ele>212.0</ele><time>2026-04-06T16:28:13.38Z</time></trkpt><trkpt lat="44.2555403" lon="11.1039024"><ele>213.0</ele><time>2026-04-06T16:28:14.384Z</time></trkpt><trkpt lat="44.2556442" lon="11.1039565"><ele>214.0</ele><time>2026-04-06T16:28:15.382Z</time></trkpt><trkpt lat="44.2559469" lon="11.1040832"><ele>215.0</ele><time>2026-04-06T16:28:17.388Z</time></trkpt><trkpt lat="44.2561393" lon="11.1042901"><ele>214.0</ele><time>2026-04-06T16:28:18.784Z</time></trkpt><trkpt lat="44.2562762" lon="11.1043674"><ele>213.0</ele><time>2026-04-06T16:28:19.788Z</time></trkpt><trkpt lat="44.2564161" lon="11.1044231"><ele>212.0</ele><time>2026-04-06T16:28:20.766Z</time></trkpt><trkpt lat="44.2565596" lon="11.1044724"><ele>211.0</ele><time>2026-04-06T16:28:21.768Z</time></trkpt><trkpt lat="44.2567088" lon="11.1045264"><ele>211.0</ele><time>2026-04-06T16:28:22.767Z</time></trkpt><trkpt lat="44.2568493" lon="11.1045962"><ele>211.0</ele><time>2026-04-06T16:28:23.779Z</time></trkpt><trkpt lat="44.256996" lon="11.10466"><ele>211.0</ele><time>2026-04-06T16:28:24.775Z</time></trkpt><trkpt lat="44.2571435" lon="11.1047302"><ele>211.33333333333331</ele><time>2026-04-06T16:28:25.779Z</time></trkpt><trkpt lat="44.2573051" lon="11.1047863"><ele>211.66666666666669</ele><time>2026-04-06T16:28:26.772Z</time></trkpt><trkpt lat="44.2574676" lon="11.1048481"><ele>212.0</ele><time>2026-04-06T16:28:27.776Z</time></trkpt><trkpt lat="44.2576459" lon="11.1049081"><ele>212.0</ele><time>2026-04-06T16:28:28.774Z</time></trkpt><trkpt lat="44.2578167" lon="11.104984"><ele>212.0</ele><time>2026-04-06T16:28:29.776Z</time></trkpt><trkpt lat="44.2580091" lon="11.105044"><ele>212.0</ele><time>2026-04-06T16:28:30.782Z</time></trkpt><trkpt lat="44.2581717" lon="11.1051205"><ele>212.0</ele><time>2026-04-06T16:28:31.777Z</time></trkpt><trkpt lat="44.2583319" lon="11.1051995"><ele>212.0</ele><time>2026-04-06T16:28:32.775Z</time></trkpt><trkpt lat="44.2584925" lon="11.1052601"><ele>212.0</ele><time>2026-04-06T16:28:33.769Z</time></trkpt><trkpt lat="44.2586465" lon="11.1053221"><ele>212.0</ele><time>2026-04-06T16:28:34.778Z</time></trkpt><trkpt lat="44.2587949" lon="11.1053915"><ele>212.0</ele><time>2026-04-06T16:28:35.777Z</time></trkpt><trkpt lat="44.2589445" lon="11.1054679"><ele>212.0</ele><time>2026-04-06T16:28:36.771Z</time></trkpt><trkpt lat="44.2590974" lon="11.1055552"><ele>211.33333333333334</ele><time>2026-04-06T16:28:37.778Z</time></trkpt><trkpt lat="44.2592597" lon="11.1056496"><ele>210.66666666666669</ele><time>2026-04-06T16:28:38.776Z</time></trkpt><trkpt lat="44.2594187" lon="11.1057666"><ele>210.0</ele><time>2026-04-06T16:28:39.774Z</time></trkpt><trkpt lat="44.2595828" lon="11.1058798"><ele>209.0</ele><time>2026-04-06T16:28:40.77Z</time></trkpt><trkpt lat="44.2597506" lon="11.1060038"><ele>208.0</ele><time>2026-04-06T16:28:41.772Z</time></trkpt><trkpt lat="44.2599129" lon="11.106126"><ele>207.0</ele><time>2026-04-06T16:28:42.771Z</time></trkpt><trkpt lat="44.2600861" lon="11.1062383"><ele>206.66666666666669</ele><time>2026-04-06T16:28:43.776Z</time></trkpt><trkpt lat="44.2602582" lon="11.1063465"><ele>206.33333333333334</ele><time>2026-04-06T16:28:44.771Z</time></trkpt><trkpt lat="44.2604442" lon="11.1064641"><ele>206.0</ele><time>2026-04-06T16:28:45.772Z</time></trkpt><trkpt lat="44.2606368" lon="11.1065939"><ele>206.0</ele><time>2026-04-06T16:28:46.772Z</time></trkpt><trkpt lat="44.2608522" lon="11.1067351"><ele>206.0</ele><time>2026-04-06T16:28:47.777Z</time></trkpt><trkpt lat="44.2610749" lon="11.1068806"><ele>206.0</ele><time>2026-04-06T16:28:48.777Z</time></trkpt><trkpt lat="44.2613128" lon="11.1070481"><ele>206.0</ele><time>2026-04-06T16:28:49.773Z</time></trkpt><trkpt lat="44.2615536" lon="11.1072128"><ele>205.0</ele><time>2026-04-06T16:28:50.781Z</time></trkpt><trkpt lat="44.2617905" lon="11.1073754"><ele>204.0</ele><time>2026-04-06T16:28:51.774Z</time></trkpt><trkpt lat="44.2620221" lon="11.1075341"><ele>204.0</ele><time>2026-04-06T16:28:52.777Z</time></trkpt><trkpt lat="44.2622475" lon="11.1076877"><ele>204.0</ele><time>2026-04-06T16:28:53.777Z</time></trkpt><trkpt lat="44.2624687" lon="11.1078385"><ele>206.5</ele><time>2026-04-06T16:28:54.775Z</time></trkpt><trkpt lat="44.2626777" lon="11.1079836"><ele>209.0</ele><time>2026-04-06T16:28:55.774Z</time></trkpt><trkpt lat="44.2628782" lon="11.1081201"><ele>207.66666666666669</ele><time>2026-04-06T16:28:56.775Z</time></trkpt><trkpt lat="44.2630752" lon="11.108255"><ele>206.33333333333331</ele><time>2026-04-06T16:28:57.774Z</time></trkpt><trkpt lat="44.2632754" lon="11.1084059"><ele>205.0</ele><time>2026-04-06T16:28:58.778Z</time></trkpt><trkpt lat="44.263488" lon="11.108543"><ele>204.66666666666666</ele><time>2026-04-06T16:28:59.774Z</time></trkpt><trkpt lat="44.2636948" lon="11.1086632"><ele>204.33333333333331</ele><time>2026-04-06T16:29:00.776Z</time></trkpt><trkpt lat="44.2638975" lon="11.1087989"><ele>204.0</ele><time>2026-04-06T16:29:01.772Z</time></trkpt><trkpt lat="44.2640935" lon="11.108933"><ele>203.33333333333331</ele><time>2026-04-06T16:29:02.78Z</time></trkpt><trkpt lat="44.2642986" lon="11.1090601"><ele>202.66666666666666</ele><time>2026-04-06T16:29:03.766Z</time></trkpt><trkpt lat="44.2644961" lon="11.1091951"><ele>202.0</ele><time>2026-04-06T16:29:04.774Z</time></trkpt><trkpt lat="44.2647" lon="11.1093242"><ele>202.66666666666666</ele><time>2026-04-06T16:29:05.771Z</time></trkpt><trkpt lat="44.2649" lon="11.1094662"><ele>203.33333333333331</ele><time>2026-04-06T16:29:06.776Z</time></trkpt><trkpt lat="44.2651016" lon="11.109596"><ele>204.0</ele><time>2026-04-06T16:29:07.771Z</time></trkpt><trkpt lat="44.2653026" lon="11.1097341"><ele>204.0</ele><time>2026-04-06T16:29:08.778Z</time></trkpt><trkpt lat="44.2655081" lon="11.1098694"><ele>204.0</ele><time>2026-04-06T16:29:09.778Z</time></trkpt><trkpt lat="44.2657138" lon="11.1100024"><ele>204.0</ele><time>2026-04-06T16:29:10.777Z</time></trkpt><trkpt lat="44.2659373" lon="11.1101247"><ele>204.0</ele><time>2026-04-06T16:29:11.792Z</time></trkpt><trkpt lat="44.2661554" lon="11.1102472"><ele>204.0</ele><time>2026-04-06T16:29:12.771Z</time></trkpt><trkpt lat="44.2663768" lon="11.1103743"><ele>204.0</ele><time>2026-04-06T16:29:13.776Z</time></trkpt><trkpt lat="44.2666038" lon="11.1104764"><ele>206.0</ele><time>2026-04-06T16:29:14.772Z</time></trkpt><trkpt lat="44.2668276" lon="11.1105679"><ele>208.0</ele><time>2026-04-06T16:29:15.776Z</time></trkpt><trkpt lat="44.2670506" lon="11.1106564"><ele>209.0</ele><time>2026-04-06T16:29:16.782Z</time></trkpt><trkpt lat="44.2672827" lon="11.1107246"><ele>210.0</ele><time>2026-04-06T16:29:17.775Z</time></trkpt><trkpt lat="44.2675203" lon="11.1107824"><ele>206.5</ele><time>2026-04-06T16:29:18.775Z</time></trkpt><trkpt lat="44.2677499" lon="11.1108405"><ele>203.0</ele><time>2026-04-06T16:29:19.775Z</time></trkpt><trkpt lat="44.2679791" lon="11.1109007"><ele>201.5</ele><time>2026-04-06T16:29:20.774Z</time></trkpt><trkpt lat="44.2682211" lon="11.110944"><ele>200.0</ele><time>2026-04-06T16:29:21.771Z</time></trkpt><trkpt lat="44.2684531" lon="11.1109931"><ele>200.0</ele><time>2026-04-06T16:29:22.776Z</time></trkpt><trkpt lat="44.2686915" lon="11.1110441"><ele>200.0</ele><time>2026-04-06T16:29:23.776Z</time></trkpt><trkpt lat="44.2689257" lon="11.1110958"><ele>198.5</ele><time>2026-04-06T16:29:24.775Z</time></trkpt><trkpt lat="44.2691543" lon="11.1111529"><ele>197.0</ele><time>2026-04-06T16:29:25.776Z</time></trkpt><trkpt lat="44.2693838" lon="11.1112064"><ele>197.0</ele><time>2026-04-06T16:29:26.774Z</time></trkpt><trkpt lat="44.2696073" lon="11.1112646"><ele>197.0</ele><time>2026-04-06T16:29:27.772Z</time></trkpt><trkpt lat="44.2698346" lon="11.1113148"><ele>197.0</ele><time>2026-04-06T16:29:28.774Z</time></trkpt><trkpt lat="44.2700501" lon="11.1113609"><ele>197.0</ele><time>2026-04-06T16:29:29.776Z</time></trkpt><trkpt lat="44.2702589" lon="11.111403"><ele>197.0</ele><time>2026-04-06T16:29:30.775Z</time></trkpt><trkpt lat="44.2704498" lon="11.1114297"><ele>196.66666666666669</ele><time>2026-04-06T16:29:31.777Z</time></trkpt><trkpt lat="44.2706346" lon="11.1114642"><ele>196.33333333333331</ele><time>2026-04-06T16:29:32.777Z</time></trkpt><trkpt lat="44.270823" lon="11.1115022"><ele>196.0</ele><time>2026-04-06T16:29:33.775Z</time></trkpt><trkpt lat="44.2710097" lon="11.1115391"><ele>196.0</ele><time>2026-04-06T16:29:34.769Z</time></trkpt><trkpt lat="44.2711983" lon="11.1115767"><ele>196.0</ele><time>2026-04-06T16:29:35.774Z</time></trkpt><trkpt lat="44.2713876" lon="11.1116207"><ele>196.0</ele><time>2026-04-06T16:29:36.769Z</time></trkpt><trkpt lat="44.2715834" lon="11.1116552"><ele>196.0</ele><time>2026-04-06T16:29:37.772Z</time></trkpt><trkpt lat="44.2717727" lon="11.1116929"><ele>196.0</ele><time>2026-04-06T16:29:38.772Z</time></trkpt><trkpt lat="44.2719655" lon="11.1117297"><ele>196.0</ele><time>2026-04-06T16:29:39.766Z</time></trkpt><trkpt lat="44.2721479" lon="11.1117661"><ele>196.0</ele><time>2026-04-06T16:29:40.771Z</time></trkpt><trkpt lat="44.2723176" lon="11.1117997"><ele>196.0</ele><time>2026-04-06T16:29:41.772Z</time></trkpt><trkpt lat="44.2725058" lon="11.111841"><ele>196.0</ele><time>2026-04-06T16:29:42.767Z</time></trkpt><trkpt lat="44.2727003" lon="11.1118716"><ele>196.0</ele><time>2026-04-06T16:29:43.775Z</time></trkpt><trkpt lat="44.2728845" lon="11.1119139"><ele>196.0</ele><time>2026-04-06T16:29:44.772Z</time></trkpt><trkpt lat="44.273077" lon="11.1119561"><ele>196.0</ele><time>2026-04-06T16:29:45.773Z</time></trkpt><trkpt lat="44.2732666" lon="11.111999"><ele>195.66666666666666</ele><time>2026-04-06T16:29:46.774Z</time></trkpt><trkpt lat="44.2734549" lon="11.1120419"><ele>195.33333333333331</ele><time>2026-04-06T16:29:47.775Z</time></trkpt><trkpt lat="44.273643" lon="11.1120854"><ele>195.0</ele><time>2026-04-06T16:29:48.772Z</time></trkpt><trkpt lat="44.2738275" lon="11.1121328"><ele>194.66666666666669</ele><time>2026-04-06T16:29:49.774Z</time></trkpt><trkpt lat="44.2740125" lon="11.1121695"><ele>194.33333333333334</ele><time>2026-04-06T16:29:50.777Z</time></trkpt><trkpt lat="44.2741964" lon="11.1122035"><ele>194.0</ele><time>2026-04-06T16:29:51.77Z</time></trkpt><trkpt lat="44.2743755" lon="11.1122246"><ele>194.0</ele><time>2026-04-06T16:29:52.773Z</time></trkpt><trkpt lat="44.274554" lon="11.112244"><ele>194.0</ele><time>2026-04-06T16:29:53.77Z</time></trkpt><trkpt lat="44.2747269" lon="11.1122449"><ele>194.0</ele><time>2026-04-06T16:29:54.776Z</time></trkpt><trkpt lat="44.274908" lon="11.1122314"><ele>194.33333333333334</ele><time>2026-04-06T16:29:55.772Z</time></trkpt><trkpt lat="44.2750836" lon="11.1122021"><ele>194.66666666666669</ele><time>2026-04-06T16:29:56.774Z</time></trkpt><trkpt lat="44.2752646" lon="11.1121796"><ele>195.0</ele><time>2026-04-06T16:29:57.774Z</time></trkpt><trkpt lat="44.2754488" lon="11.1121488"><ele>194.66666666666669</ele><time>2026-04-06T16:29:58.779Z</time></trkpt><trkpt lat="44.2756273" lon="11.1120946"><ele>194.33333333333334</ele><time>2026-04-06T16:29:59.766Z</time></trkpt><trkpt lat="44.2757967" lon="11.112037"><ele>194.0</ele><time>2026-04-06T16:30:00.774Z</time></trkpt><trkpt lat="44.2759755" lon="11.1119937"><ele>194.0</ele><time>2026-04-06T16:30:01.775Z</time></trkpt><trkpt lat="44.2761213" lon="11.1119345"><ele>194.0</ele><time>2026-04-06T16:30:02.774Z</time></trkpt><trkpt lat="44.2762579" lon="11.1118742"><ele>194.0</ele><time>2026-04-06T16:30:03.77Z</time></trkpt><trkpt lat="44.2763886" lon="11.1118006"><ele>194.0</ele><time>2026-04-06T16:30:04.775Z</time></trkpt><trkpt lat="44.2765238" lon="11.1117278"><ele>194.0</ele><time>2026-04-06T16:30:05.775Z</time></trkpt><trkpt lat="44.2766696" lon="11.1116483"><ele>194.0</ele><time>2026-04-06T16:30:06.77Z</time></trkpt><trkpt lat="44.2768311" lon="11.1115355"><ele>194.0</ele><time>2026-04-06T16:30:07.773Z</time></trkpt><trkpt lat="44.2769879" lon="11.1114425"><ele>194.0</ele><time>2026-04-06T16:30:08.772Z</time></trkpt><trkpt lat="44.2771238" lon="11.1113739"><ele>194.0</ele><time>2026-04-06T16:30:09.776Z</time></trkpt><trkpt lat="44.2772608" lon="11.1112997"><ele>194.0</ele><time>2026-04-06T16:30:10.777Z</time></trkpt><trkpt lat="44.277388" lon="11.1112358"><ele>194.0</ele><time>2026-04-06T16:30:11.772Z</time></trkpt><trkpt lat="44.2775141" lon="11.1111681"><ele>193.75</ele><time>2026-04-06T16:30:12.776Z</time></trkpt><trkpt lat="44.2776282" lon="11.1110997"><ele>193.5</ele><time>2026-04-06T16:30:13.771Z</time></trkpt><trkpt lat="44.2777512" lon="11.1110459"><ele>193.25</ele><time>2026-04-06T16:30:14.773Z</time></trkpt><trkpt lat="44.2778623" lon="11.110972"><ele>193.0</ele><time>2026-04-06T16:30:15.777Z</time></trkpt><trkpt lat="44.2779708" lon="11.1109063"><ele>193.0</ele><time>2026-04-06T16:30:16.77Z</time></trkpt><trkpt lat="44.2780711" lon="11.1108528"><ele>193.0</ele><time>2026-04-06T16:30:17.77Z</time></trkpt><trkpt lat="44.2781636" lon="11.1107938"><ele>193.0</ele><time>2026-04-06T16:30:18.775Z</time></trkpt><trkpt lat="44.2782565" lon="11.1107388"><ele>193.0</ele><time>2026-04-06T16:30:19.772Z</time></trkpt><trkpt lat="44.2783486" lon="11.1106845"><ele>193.0</ele><time>2026-04-06T16:30:20.773Z</time></trkpt><trkpt lat="44.2784455" lon="11.1106329"><ele>194.75</ele><time>2026-04-06T16:30:21.772Z</time></trkpt><trkpt lat="44.2785584" lon="11.1105864"><ele>196.5</ele><time>2026-04-06T16:30:22.766Z</time></trkpt><trkpt lat="44.2786693" lon="11.1105415"><ele>198.25</ele><time>2026-04-06T16:30:23.773Z</time></trkpt><trkpt lat="44.2787889" lon="11.1105069"><ele>200.0</ele><time>2026-04-06T16:30:24.77Z</time></trkpt><trkpt lat="44.2788939" lon="11.1104655"><ele>200.4</ele><time>2026-04-06T16:30:25.765Z</time></trkpt><trkpt lat="44.2790021" lon="11.1104608"><ele>200.8</ele><time>2026-04-06T16:30:26.774Z</time></trkpt><trkpt lat="44.2791081" lon="11.1104286"><ele>201.2</ele><time>2026-04-06T16:30:27.774Z</time></trkpt><trkpt lat="44.2792097" lon="11.110397"><ele>201.6</ele><time>2026-04-06T16:30:28.769Z</time></trkpt><trkpt lat="44.2792747" lon="11.1103677"><ele>202.0</ele><time>2026-04-06T16:30:29.773Z</time></trkpt><trkpt lat="44.2793406" lon="11.1103443"><ele>201.99999999999997</ele><time>2026-04-06T16:30:30.776Z</time></trkpt><trkpt lat="44.2794126" lon="11.1103392"><ele>202.0</ele><time>2026-04-06T16:30:31.77Z</time></trkpt><trkpt lat="44.2794855" lon="11.1103263"><ele>202.0</ele><time>2026-04-06T16:30:32.774Z</time></trkpt><trkpt lat="44.2795825" lon="11.1103036"><ele>202.0</ele><time>2026-04-06T16:30:34.773Z</time></trkpt><trkpt lat="44.279647" lon="11.1102761"><ele>201.99999999999997</ele><time>2026-04-06T16:30:39.774Z</time></trkpt><trkpt lat="44.2797198" lon="11.1102658"><ele>202.0</ele><time>2026-04-06T16:30:51.772Z</time></trkpt><trkpt lat="44.2798002" lon="11.1102362"><ele>202.83333333333331</ele><time>2026-04-06T16:30:52.77Z</time></trkpt><trkpt lat="44.2799241" lon="11.1102276"><ele>203.66666666666666</ele><time>2026-04-06T16:30:54.767Z</time></trkpt><trkpt lat="44.2799876" lon="11.1102224"><ele>204.5</ele><time>2026-04-06T16:30:55.773Z</time></trkpt><trkpt lat="44.2800987" lon="11.1102454"><ele>205.33333333333331</ele><time>2026-04-06T16:30:57.777Z</time></trkpt><trkpt lat="44.2801776" lon="11.1102347"><ele>206.16666666666666</ele><time>2026-04-06T16:30:58.774Z</time></trkpt><trkpt lat="44.2802472" lon="11.1102249"><ele>207.0</ele><time>2026-04-06T16:30:59.778Z</time></trkpt><trkpt lat="44.2803268" lon="11.1102349"><ele>207.0</ele><time>2026-04-06T16:31:00.772Z</time></trkpt><trkpt lat="44.280406" lon="11.1102504"><ele>207.0</ele><time>2026-04-06T16:31:01.775Z</time></trkpt><trkpt lat="44.2804809" lon="11.1102735"><ele>207.0</ele><time>2026-04-06T16:31:02.771Z</time></trkpt><trkpt lat="44.2805377" lon="11.1103187"><ele>207.0</ele><time>2026-04-06T16:31:03.777Z</time></trkpt><trkpt lat="44.2806397" lon="11.110456"><ele>207.0</ele><time>2026-04-06T16:31:05.776Z</time></trkpt><trkpt lat="44.2806977" lon="11.1105293"><ele>207.0</ele><time>2026-04-06T16:31:06.772Z</time></trkpt><trkpt lat="44.2807623" lon="11.1106118"><ele>207.33333333333334</ele><time>2026-04-06T16:31:07.77Z</time></trkpt><trkpt lat="44.2808286" lon="11.1106902"><ele>207.66666666666669</ele><time>2026-04-06T16:31:08.778Z</time></trkpt><trkpt lat="44.2808903" lon="11.1107676"><ele>208.0</ele><time>2026-04-06T16:31:09.778Z</time></trkpt><trkpt lat="44.280951" lon="11.1108386"><ele>208.33333333333334</ele><time>2026-04-06T16:31:10.769Z</time></trkpt><trkpt lat="44.2810149" lon="11.1109105"><ele>208.66666666666669</ele><time>2026-04-06T16:31:11.772Z</time></trkpt><trkpt lat="44.2810756" lon="11.1109835"><ele>209.0</ele><time>2026-04-06T16:31:12.775Z</time></trkpt><trkpt lat="44.2811408" lon="11.1110505"><ele>207.50000000000003</ele><time>2026-04-06T16:31:13.777Z</time></trkpt><trkpt lat="44.2812037" lon="11.111113"><ele>206.0</ele><time>2026-04-06T16:31:14.776Z</time></trkpt><trkpt lat="44.2812668" lon="11.111175"><ele>204.5</ele><time>2026-04-06T16:31:15.776Z</time></trkpt><trkpt lat="44.2813279" lon="11.1112329"><ele>203.0</ele><time>2026-04-06T16:31:16.777Z</time></trkpt><trkpt lat="44.2813809" lon="11.1112948"><ele>201.50000000000003</ele><time>2026-04-06T16:31:17.776Z</time></trkpt><trkpt lat="44.2814288" lon="11.1113656"><ele>200.0</ele><time>2026-04-06T16:31:18.773Z</time></trkpt><trkpt lat="44.2814896" lon="11.1115106"><ele>199.50000000000003</ele><time>2026-04-06T16:31:20.774Z</time></trkpt><trkpt lat="44.2815027" lon="11.1116539"><ele>199.0</ele><time>2026-04-06T16:31:22.775Z</time></trkpt><trkpt lat="44.2814859" lon="11.1117573"><ele>198.5</ele><time>2026-04-06T16:31:24.777Z</time></trkpt><trkpt lat="44.2814035" lon="11.1117829"><ele>198.0</ele><time>2026-04-06T16:31:27.769Z</time></trkpt><trkpt lat="44.2813254" lon="11.1117525"><ele>197.50000000000003</ele><time>2026-04-06T16:31:30.778Z</time></trkpt><trkpt lat="44.2812594" lon="11.1117086"><ele>197.0</ele><time>2026-04-06T16:31:33.779Z</time></trkpt><trkpt lat="44.2811955" lon="11.1116629"><ele>197.0</ele><time>2026-04-06T16:31:36.782Z</time></trkpt><trkpt lat="44.2811457" lon="11.1116065"><ele>197.0</ele><time>2026-04-06T16:31:48.765Z</time></trkpt><trkpt lat="44.2811557" lon="11.1114868"><ele>200.0</ele><time>2026-04-06T16:31:52.766Z</time></trkpt></trkseg></trk></gpx>